24558 lines
815 KiB
XML
24558 lines
815 KiB
XML
<?xml version='1.0' encoding='UTF-8'?>
|
|
<gpx version="1.1" creator="https://www.komoot.de" xmlns="http://www.topografix.com/GPX/1/1" xmlns:xsi="http://www.w3.org/2001/XMLSchema-instance" xsi:schemaLocation="http://www.topografix.com/GPX/1/1 http://www.topografix.com/GPX/1/1/gpx.xsd">
|
|
<metadata>
|
|
<name>The north to Jerup dune Shelterplads</name>
|
|
<author>
|
|
<link href="https://www.komoot.de">
|
|
<text>komoot</text>
|
|
<type>text/html</type>
|
|
</link>
|
|
</author>
|
|
</metadata>
|
|
<trk>
|
|
<name>The north to Jerup dune Shelterplads</name>
|
|
<type>racebike</type>
|
|
<trkseg>
|
|
<trkpt lat="57.745064" lon="10.635760">
|
|
<ele>-8.853767</ele>
|
|
<time>2026-07-17T12:54:35.000Z</time>
|
|
</trkpt>
|
|
<trkpt lat="57.745041" lon="10.635747">
|
|
<ele>-8.853767</ele>
|
|
<time>2026-07-17T12:54:36.000Z</time>
|
|
</trkpt>
|
|
<trkpt lat="57.745010" lon="10.635729">
|
|
<ele>-8.853767</ele>
|
|
<time>2026-07-17T12:54:37.000Z</time>
|
|
</trkpt>
|
|
<trkpt lat="57.744965" lon="10.635704">
|
|
<ele>-8.853767</ele>
|
|
<time>2026-07-17T12:54:38.000Z</time>
|
|
</trkpt>
|
|
<trkpt lat="57.744926" lon="10.635680">
|
|
<ele>-8.853767</ele>
|
|
<time>2026-07-17T12:54:39.000Z</time>
|
|
</trkpt>
|
|
<trkpt lat="57.744892" lon="10.635651">
|
|
<ele>-8.853767</ele>
|
|
<time>2026-07-17T12:54:40.000Z</time>
|
|
</trkpt>
|
|
<trkpt lat="57.744862" lon="10.635616">
|
|
<ele>-8.853767</ele>
|
|
<time>2026-07-17T12:54:41.000Z</time>
|
|
</trkpt>
|
|
<trkpt lat="57.744839" lon="10.635573">
|
|
<ele>-8.853767</ele>
|
|
<time>2026-07-17T12:54:42.000Z</time>
|
|
</trkpt>
|
|
<trkpt lat="57.744816" lon="10.635525">
|
|
<ele>-8.853767</ele>
|
|
<time>2026-07-17T12:54:43.000Z</time>
|
|
</trkpt>
|
|
<trkpt lat="57.744801" lon="10.635474">
|
|
<ele>-8.853767</ele>
|
|
<time>2026-07-17T12:54:44.000Z</time>
|
|
</trkpt>
|
|
<trkpt lat="57.744785" lon="10.635426">
|
|
<ele>-8.853767</ele>
|
|
<time>2026-07-17T12:54:45.000Z</time>
|
|
</trkpt>
|
|
<trkpt lat="57.744766" lon="10.635381">
|
|
<ele>-8.853767</ele>
|
|
<time>2026-07-17T12:54:46.000Z</time>
|
|
</trkpt>
|
|
<trkpt lat="57.744751" lon="10.635343">
|
|
<ele>-8.853767</ele>
|
|
<time>2026-07-17T12:54:47.000Z</time>
|
|
</trkpt>
|
|
<trkpt lat="57.744728" lon="10.635313">
|
|
<ele>-8.853767</ele>
|
|
<time>2026-07-17T12:54:48.000Z</time>
|
|
</trkpt>
|
|
<trkpt lat="57.744709" lon="10.635291">
|
|
<ele>-8.853767</ele>
|
|
<time>2026-07-17T12:54:49.000Z</time>
|
|
</trkpt>
|
|
<trkpt lat="57.744690" lon="10.635280">
|
|
<ele>-8.853767</ele>
|
|
<time>2026-07-17T12:54:50.000Z</time>
|
|
</trkpt>
|
|
<trkpt lat="57.744671" lon="10.635274">
|
|
<ele>-8.853767</ele>
|
|
<time>2026-07-17T12:54:51.000Z</time>
|
|
</trkpt>
|
|
<trkpt lat="57.744648" lon="10.635271">
|
|
<ele>-8.853767</ele>
|
|
<time>2026-07-17T12:54:52.000Z</time>
|
|
</trkpt>
|
|
<trkpt lat="57.744629" lon="10.635269">
|
|
<ele>-8.853767</ele>
|
|
<time>2026-07-17T12:54:53.000Z</time>
|
|
</trkpt>
|
|
<trkpt lat="57.744606" lon="10.635265">
|
|
<ele>-8.853767</ele>
|
|
<time>2026-07-17T12:54:54.000Z</time>
|
|
</trkpt>
|
|
<trkpt lat="57.744583" lon="10.635258">
|
|
<ele>-8.853767</ele>
|
|
<time>2026-07-17T12:54:55.000Z</time>
|
|
</trkpt>
|
|
<trkpt lat="57.744553" lon="10.635244">
|
|
<ele>-8.853767</ele>
|
|
<time>2026-07-17T12:54:56.000Z</time>
|
|
</trkpt>
|
|
<trkpt lat="57.744522" lon="10.635230">
|
|
<ele>-8.853767</ele>
|
|
<time>2026-07-17T12:54:57.000Z</time>
|
|
</trkpt>
|
|
<trkpt lat="57.744495" lon="10.635213">
|
|
<ele>-8.853767</ele>
|
|
<time>2026-07-17T12:54:58.000Z</time>
|
|
</trkpt>
|
|
<trkpt lat="57.744469" lon="10.635188">
|
|
<ele>-8.853767</ele>
|
|
<time>2026-07-17T12:54:59.000Z</time>
|
|
</trkpt>
|
|
<trkpt lat="57.744442" lon="10.635159">
|
|
<ele>-8.853767</ele>
|
|
<time>2026-07-17T12:55:00.000Z</time>
|
|
</trkpt>
|
|
<trkpt lat="57.744419" lon="10.635134">
|
|
<ele>-8.853767</ele>
|
|
<time>2026-07-17T12:55:01.000Z</time>
|
|
</trkpt>
|
|
<trkpt lat="57.744392" lon="10.635108">
|
|
<ele>-8.853767</ele>
|
|
<time>2026-07-17T12:55:02.000Z</time>
|
|
</trkpt>
|
|
<trkpt lat="57.744366" lon="10.635082">
|
|
<ele>-8.853767</ele>
|
|
<time>2026-07-17T12:55:03.000Z</time>
|
|
</trkpt>
|
|
<trkpt lat="57.744347" lon="10.635060">
|
|
<ele>-8.853767</ele>
|
|
<time>2026-07-17T12:55:04.000Z</time>
|
|
</trkpt>
|
|
<trkpt lat="57.744324" lon="10.635042">
|
|
<ele>-8.853767</ele>
|
|
<time>2026-07-17T12:55:05.000Z</time>
|
|
</trkpt>
|
|
<trkpt lat="57.744301" lon="10.635025">
|
|
<ele>-8.853767</ele>
|
|
<time>2026-07-17T12:55:06.000Z</time>
|
|
</trkpt>
|
|
<trkpt lat="57.744282" lon="10.635010">
|
|
<ele>-8.855679</ele>
|
|
<time>2026-07-17T12:55:07.000Z</time>
|
|
</trkpt>
|
|
<trkpt lat="57.744263" lon="10.634992">
|
|
<ele>-8.859541</ele>
|
|
<time>2026-07-17T12:55:08.000Z</time>
|
|
</trkpt>
|
|
<trkpt lat="57.744244" lon="10.634971">
|
|
<ele>-8.863542</ele>
|
|
<time>2026-07-17T12:55:09.000Z</time>
|
|
</trkpt>
|
|
<trkpt lat="57.744225" lon="10.634947">
|
|
<ele>-8.867698</ele>
|
|
<time>2026-07-17T12:55:10.000Z</time>
|
|
</trkpt>
|
|
<trkpt lat="57.744198" lon="10.634918">
|
|
<ele>-8.873343</ele>
|
|
<time>2026-07-17T12:55:11.000Z</time>
|
|
</trkpt>
|
|
<trkpt lat="57.744171" lon="10.634890">
|
|
<ele>-8.878941</ele>
|
|
<time>2026-07-17T12:55:12.000Z</time>
|
|
</trkpt>
|
|
<trkpt lat="57.744137" lon="10.634859">
|
|
<ele>-8.885800</ele>
|
|
<time>2026-07-17T12:55:13.000Z</time>
|
|
</trkpt>
|
|
<trkpt lat="57.744110" lon="10.634833">
|
|
<ele>-8.891306</ele>
|
|
<time>2026-07-17T12:55:14.000Z</time>
|
|
</trkpt>
|
|
<trkpt lat="57.744080" lon="10.634811">
|
|
<ele>-8.897150</ele>
|
|
<time>2026-07-17T12:55:15.000Z</time>
|
|
</trkpt>
|
|
<trkpt lat="57.744053" lon="10.634790">
|
|
<ele>-8.902453</ele>
|
|
<time>2026-07-17T12:55:16.000Z</time>
|
|
</trkpt>
|
|
<trkpt lat="57.744022" lon="10.634771">
|
|
<ele>-8.908369</ele>
|
|
<time>2026-07-17T12:55:17.000Z</time>
|
|
</trkpt>
|
|
<trkpt lat="57.743992" lon="10.634751">
|
|
<ele>-8.914145</ele>
|
|
<time>2026-07-17T12:55:18.000Z</time>
|
|
</trkpt>
|
|
<trkpt lat="57.743961" lon="10.634732">
|
|
<ele>-8.920061</ele>
|
|
<time>2026-07-17T12:55:19.000Z</time>
|
|
</trkpt>
|
|
<trkpt lat="57.743931" lon="10.634717">
|
|
<ele>-8.925693</ele>
|
|
<time>2026-07-17T12:55:20.000Z</time>
|
|
</trkpt>
|
|
<trkpt lat="57.743904" lon="10.634706">
|
|
<ele>-8.930705</ele>
|
|
<time>2026-07-17T12:55:21.000Z</time>
|
|
</trkpt>
|
|
<trkpt lat="57.743874" lon="10.634699">
|
|
<ele>-8.936189</ele>
|
|
<time>2026-07-17T12:55:22.000Z</time>
|
|
</trkpt>
|
|
<trkpt lat="57.743847" lon="10.634694">
|
|
<ele>-8.941110</ele>
|
|
<time>2026-07-17T12:55:23.000Z</time>
|
|
</trkpt>
|
|
<trkpt lat="57.743816" lon="10.634691">
|
|
<ele>-8.946741</ele>
|
|
<time>2026-07-17T12:55:24.000Z</time>
|
|
</trkpt>
|
|
<trkpt lat="57.743786" lon="10.634690">
|
|
<ele>-8.952183</ele>
|
|
<time>2026-07-17T12:55:25.000Z</time>
|
|
</trkpt>
|
|
<trkpt lat="57.743755" lon="10.634687">
|
|
<ele>-8.957814</ele>
|
|
<time>2026-07-17T12:55:26.000Z</time>
|
|
</trkpt>
|
|
<trkpt lat="57.743721" lon="10.634680">
|
|
<ele>-8.964018</ele>
|
|
<time>2026-07-17T12:55:27.000Z</time>
|
|
</trkpt>
|
|
<trkpt lat="57.743691" lon="10.634672">
|
|
<ele>-8.969515</ele>
|
|
<time>2026-07-17T12:55:28.000Z</time>
|
|
</trkpt>
|
|
<trkpt lat="57.743656" lon="10.634663">
|
|
<ele>-8.975923</ele>
|
|
<time>2026-07-17T12:55:29.000Z</time>
|
|
</trkpt>
|
|
<trkpt lat="57.743626" lon="10.634650">
|
|
<ele>-8.981508</ele>
|
|
<time>2026-07-17T12:55:30.000Z</time>
|
|
</trkpt>
|
|
<trkpt lat="57.743591" lon="10.634638">
|
|
<ele>-8.987962</ele>
|
|
<time>2026-07-17T12:55:31.000Z</time>
|
|
</trkpt>
|
|
<trkpt lat="57.743557" lon="10.634625">
|
|
<ele>-8.994257</ele>
|
|
<time>2026-07-17T12:55:32.000Z</time>
|
|
</trkpt>
|
|
<trkpt lat="57.743519" lon="10.634612">
|
|
<ele>-9.001263</ele>
|
|
<time>2026-07-17T12:55:33.000Z</time>
|
|
</trkpt>
|
|
<trkpt lat="57.743481" lon="10.634601">
|
|
<ele>-9.008238</ele>
|
|
<time>2026-07-17T12:55:34.000Z</time>
|
|
</trkpt>
|
|
<trkpt lat="57.743439" lon="10.634594">
|
|
<ele>-9.015886</ele>
|
|
<time>2026-07-17T12:55:35.000Z</time>
|
|
</trkpt>
|
|
<trkpt lat="57.743389" lon="10.634590">
|
|
<ele>-9.024964</ele>
|
|
<time>2026-07-17T12:55:36.000Z</time>
|
|
</trkpt>
|
|
<trkpt lat="57.743343" lon="10.634585">
|
|
<ele>-9.033322</ele>
|
|
<time>2026-07-17T12:55:37.000Z</time>
|
|
</trkpt>
|
|
<trkpt lat="57.743298" lon="10.634578">
|
|
<ele>-9.041513</ele>
|
|
<time>2026-07-17T12:55:38.000Z</time>
|
|
</trkpt>
|
|
<trkpt lat="57.743252" lon="10.634566">
|
|
<ele>-9.049937</ele>
|
|
<time>2026-07-17T12:55:39.000Z</time>
|
|
</trkpt>
|
|
<trkpt lat="57.743206" lon="10.634552">
|
|
<ele>-9.058390</ele>
|
|
<time>2026-07-17T12:55:40.000Z</time>
|
|
</trkpt>
|
|
<trkpt lat="57.743160" lon="10.634533">
|
|
<ele>-9.066935</ele>
|
|
<time>2026-07-17T12:55:41.000Z</time>
|
|
</trkpt>
|
|
<trkpt lat="57.743115" lon="10.634509">
|
|
<ele>-9.075421</ele>
|
|
<time>2026-07-17T12:55:42.000Z</time>
|
|
</trkpt>
|
|
<trkpt lat="57.743069" lon="10.634481">
|
|
<ele>-9.084195</ele>
|
|
<time>2026-07-17T12:55:43.000Z</time>
|
|
</trkpt>
|
|
<trkpt lat="57.743023" lon="10.634453">
|
|
<ele>-9.092968</ele>
|
|
<time>2026-07-17T12:55:44.000Z</time>
|
|
</trkpt>
|
|
<trkpt lat="57.742977" lon="10.634425">
|
|
<ele>-9.101741</ele>
|
|
<time>2026-07-17T12:55:45.000Z</time>
|
|
</trkpt>
|
|
<trkpt lat="57.742931" lon="10.634398">
|
|
<ele>-9.110485</ele>
|
|
<time>2026-07-17T12:55:46.000Z</time>
|
|
</trkpt>
|
|
<trkpt lat="57.742882" lon="10.634376">
|
|
<ele>-9.119624</ele>
|
|
<time>2026-07-17T12:55:47.000Z</time>
|
|
</trkpt>
|
|
<trkpt lat="57.742832" lon="10.634357">
|
|
<ele>-9.128879</ele>
|
|
<time>2026-07-17T12:55:48.000Z</time>
|
|
</trkpt>
|
|
<trkpt lat="57.742786" lon="10.634339">
|
|
<ele>-9.137403</ele>
|
|
<time>2026-07-17T12:55:49.000Z</time>
|
|
</trkpt>
|
|
<trkpt lat="57.742741" lon="10.634320">
|
|
<ele>-9.145770</ele>
|
|
<time>2026-07-17T12:55:50.000Z</time>
|
|
</trkpt>
|
|
<trkpt lat="57.742695" lon="10.634299">
|
|
<ele>-9.154358</ele>
|
|
<time>2026-07-17T12:55:51.000Z</time>
|
|
</trkpt>
|
|
<trkpt lat="57.742645" lon="10.634273">
|
|
<ele>-9.163770</ele>
|
|
<time>2026-07-17T12:55:52.000Z</time>
|
|
</trkpt>
|
|
<trkpt lat="57.742600" lon="10.634240">
|
|
<ele>-9.172536</ele>
|
|
<time>2026-07-17T12:55:53.000Z</time>
|
|
</trkpt>
|
|
<trkpt lat="57.742558" lon="10.634205">
|
|
<ele>-9.180803</ele>
|
|
<time>2026-07-17T12:55:54.000Z</time>
|
|
</trkpt>
|
|
<trkpt lat="57.742512" lon="10.634166">
|
|
<ele>-9.189199</ele>
|
|
<time>2026-07-17T12:55:55.000Z</time>
|
|
</trkpt>
|
|
<trkpt lat="57.742466" lon="10.634125">
|
|
<ele>-9.197670</ele>
|
|
<time>2026-07-17T12:55:56.000Z</time>
|
|
</trkpt>
|
|
<trkpt lat="57.742424" lon="10.634080">
|
|
<ele>-9.205716</ele>
|
|
<time>2026-07-17T12:55:57.000Z</time>
|
|
</trkpt>
|
|
<trkpt lat="57.742382" lon="10.634036">
|
|
<ele>-9.213718</ele>
|
|
<time>2026-07-17T12:55:58.000Z</time>
|
|
</trkpt>
|
|
<trkpt lat="57.742340" lon="10.633991">
|
|
<ele>-9.221763</ele>
|
|
<time>2026-07-17T12:55:59.000Z</time>
|
|
</trkpt>
|
|
<trkpt lat="57.742298" lon="10.633942">
|
|
<ele>-9.229991</ele>
|
|
<time>2026-07-17T12:56:00.000Z</time>
|
|
</trkpt>
|
|
<trkpt lat="57.742264" lon="10.633890">
|
|
<ele>-9.237290</ele>
|
|
<time>2026-07-17T12:56:01.000Z</time>
|
|
</trkpt>
|
|
<trkpt lat="57.742229" lon="10.633842">
|
|
<ele>-9.244503</ele>
|
|
<time>2026-07-17T12:56:02.000Z</time>
|
|
</trkpt>
|
|
<trkpt lat="57.742199" lon="10.633794">
|
|
<ele>-9.251063</ele>
|
|
<time>2026-07-17T12:56:03.000Z</time>
|
|
</trkpt>
|
|
<trkpt lat="57.742165" lon="10.633740">
|
|
<ele>-9.258475</ele>
|
|
<time>2026-07-17T12:56:04.000Z</time>
|
|
</trkpt>
|
|
<trkpt lat="57.742134" lon="10.633683">
|
|
<ele>-9.265698</ele>
|
|
<time>2026-07-17T12:56:05.000Z</time>
|
|
</trkpt>
|
|
<trkpt lat="57.742100" lon="10.633631">
|
|
<ele>-9.272997</ele>
|
|
<time>2026-07-17T12:56:06.000Z</time>
|
|
</trkpt>
|
|
<trkpt lat="57.742062" lon="10.633580">
|
|
<ele>-9.280770</ele>
|
|
<time>2026-07-17T12:56:07.000Z</time>
|
|
</trkpt>
|
|
<trkpt lat="57.742023" lon="10.633531">
|
|
<ele>-9.288578</ele>
|
|
<time>2026-07-17T12:56:08.000Z</time>
|
|
</trkpt>
|
|
<trkpt lat="57.741985" lon="10.633488">
|
|
<ele>-9.295961</ele>
|
|
<time>2026-07-17T12:56:09.000Z</time>
|
|
</trkpt>
|
|
<trkpt lat="57.741936" lon="10.633451">
|
|
<ele>-9.304746</ele>
|
|
<time>2026-07-17T12:56:10.000Z</time>
|
|
</trkpt>
|
|
<trkpt lat="57.741890" lon="10.633418">
|
|
<ele>-9.312937</ele>
|
|
<time>2026-07-17T12:56:11.000Z</time>
|
|
</trkpt>
|
|
<trkpt lat="57.741840" lon="10.633391">
|
|
<ele>-9.321590</ele>
|
|
<time>2026-07-17T12:56:12.000Z</time>
|
|
</trkpt>
|
|
<trkpt lat="57.741787" lon="10.633377">
|
|
<ele>-9.330491</ele>
|
|
<time>2026-07-17T12:56:13.000Z</time>
|
|
</trkpt>
|
|
<trkpt lat="57.741734" lon="10.633368">
|
|
<ele>-9.339341</ele>
|
|
<time>2026-07-17T12:56:14.000Z</time>
|
|
</trkpt>
|
|
<trkpt lat="57.741680" lon="10.633356">
|
|
<ele>-9.348384</ele>
|
|
<time>2026-07-17T12:56:15.000Z</time>
|
|
</trkpt>
|
|
<trkpt lat="57.741631" lon="10.633339">
|
|
<ele>-9.356671</ele>
|
|
<time>2026-07-17T12:56:16.000Z</time>
|
|
</trkpt>
|
|
<trkpt lat="57.741577" lon="10.633318">
|
|
<ele>-9.365842</ele>
|
|
<time>2026-07-17T12:56:17.000Z</time>
|
|
</trkpt>
|
|
<trkpt lat="57.741528" lon="10.633290">
|
|
<ele>-9.374361</ele>
|
|
<time>2026-07-17T12:56:18.000Z</time>
|
|
</trkpt>
|
|
<trkpt lat="57.741478" lon="10.633257">
|
|
<ele>-9.383176</ele>
|
|
<time>2026-07-17T12:56:19.000Z</time>
|
|
</trkpt>
|
|
<trkpt lat="57.741432" lon="10.633221">
|
|
<ele>-9.391467</ele>
|
|
<time>2026-07-17T12:56:20.000Z</time>
|
|
</trkpt>
|
|
<trkpt lat="57.741386" lon="10.633187">
|
|
<ele>-9.399690</ele>
|
|
<time>2026-07-17T12:56:21.000Z</time>
|
|
</trkpt>
|
|
<trkpt lat="57.741341" lon="10.633148">
|
|
<ele>-9.407935</ele>
|
|
<time>2026-07-17T12:56:22.000Z</time>
|
|
</trkpt>
|
|
<trkpt lat="57.741299" lon="10.633104">
|
|
<ele>-9.415937</ele>
|
|
<time>2026-07-17T12:56:23.000Z</time>
|
|
</trkpt>
|
|
<trkpt lat="57.741253" lon="10.633063">
|
|
<ele>-9.424408</ele>
|
|
<time>2026-07-17T12:56:24.000Z</time>
|
|
</trkpt>
|
|
<trkpt lat="57.741211" lon="10.633026">
|
|
<ele>-9.432126</ele>
|
|
<time>2026-07-17T12:56:25.000Z</time>
|
|
</trkpt>
|
|
<trkpt lat="57.741169" lon="10.632985">
|
|
<ele>-9.440002</ele>
|
|
<time>2026-07-17T12:56:26.000Z</time>
|
|
</trkpt>
|
|
<trkpt lat="57.741123" lon="10.632943">
|
|
<ele>-9.448511</ele>
|
|
<time>2026-07-17T12:56:27.000Z</time>
|
|
</trkpt>
|
|
<trkpt lat="57.741077" lon="10.632900">
|
|
<ele>-9.457060</ele>
|
|
<time>2026-07-17T12:56:28.000Z</time>
|
|
</trkpt>
|
|
<trkpt lat="57.741035" lon="10.632858">
|
|
<ele>-9.464977</ele>
|
|
<time>2026-07-17T12:56:29.000Z</time>
|
|
</trkpt>
|
|
<trkpt lat="57.740986" lon="10.632818">
|
|
<ele>-9.473865</ele>
|
|
<time>2026-07-17T12:56:30.000Z</time>
|
|
</trkpt>
|
|
<trkpt lat="57.740944" lon="10.632779">
|
|
<ele>-9.470925</ele>
|
|
<time>2026-07-17T12:56:31.000Z</time>
|
|
</trkpt>
|
|
<trkpt lat="57.740894" lon="10.632738">
|
|
<ele>-9.441545</ele>
|
|
<time>2026-07-17T12:56:32.000Z</time>
|
|
</trkpt>
|
|
<trkpt lat="57.740852" lon="10.632698">
|
|
<ele>-9.416183</ele>
|
|
<time>2026-07-17T12:56:33.000Z</time>
|
|
</trkpt>
|
|
<trkpt lat="57.740810" lon="10.632658">
|
|
<ele>-9.390820</ele>
|
|
<time>2026-07-17T12:56:34.000Z</time>
|
|
</trkpt>
|
|
<trkpt lat="57.740765" lon="10.632619">
|
|
<ele>-9.364130</ele>
|
|
<time>2026-07-17T12:56:35.000Z</time>
|
|
</trkpt>
|
|
<trkpt lat="57.740723" lon="10.632582">
|
|
<ele>-9.339147</ele>
|
|
<time>2026-07-17T12:56:36.000Z</time>
|
|
</trkpt>
|
|
<trkpt lat="57.740677" lon="10.632549">
|
|
<ele>-9.312632</ele>
|
|
<time>2026-07-17T12:56:37.000Z</time>
|
|
</trkpt>
|
|
<trkpt lat="57.740631" lon="10.632524">
|
|
<ele>-9.286849</ele>
|
|
<time>2026-07-17T12:56:38.000Z</time>
|
|
</trkpt>
|
|
<trkpt lat="57.740585" lon="10.632504">
|
|
<ele>-9.261429</ele>
|
|
<time>2026-07-17T12:56:39.000Z</time>
|
|
</trkpt>
|
|
<trkpt lat="57.740540" lon="10.632486">
|
|
<ele>-9.236659</ele>
|
|
<time>2026-07-17T12:56:40.000Z</time>
|
|
</trkpt>
|
|
<trkpt lat="57.740494" lon="10.632471">
|
|
<ele>-9.211525</ele>
|
|
<time>2026-07-17T12:56:41.000Z</time>
|
|
</trkpt>
|
|
<trkpt lat="57.740448" lon="10.632461">
|
|
<ele>-9.186596</ele>
|
|
<time>2026-07-17T12:56:42.000Z</time>
|
|
</trkpt>
|
|
<trkpt lat="57.740395" lon="10.632455">
|
|
<ele>-9.158014</ele>
|
|
<time>2026-07-17T12:56:43.000Z</time>
|
|
</trkpt>
|
|
<trkpt lat="57.740349" lon="10.632448">
|
|
<ele>-9.133171</ele>
|
|
<time>2026-07-17T12:56:44.000Z</time>
|
|
</trkpt>
|
|
<trkpt lat="57.740299" lon="10.632441">
|
|
<ele>-9.106180</ele>
|
|
<time>2026-07-17T12:56:45.000Z</time>
|
|
</trkpt>
|
|
<trkpt lat="57.740253" lon="10.632439">
|
|
<ele>-9.081412</ele>
|
|
<time>2026-07-17T12:56:46.000Z</time>
|
|
</trkpt>
|
|
<trkpt lat="57.740204" lon="10.632438">
|
|
<ele>-9.055033</ele>
|
|
<time>2026-07-17T12:56:47.000Z</time>
|
|
</trkpt>
|
|
<trkpt lat="57.740162" lon="10.632434">
|
|
<ele>-9.032395</ele>
|
|
<time>2026-07-17T12:56:48.000Z</time>
|
|
</trkpt>
|
|
<trkpt lat="57.740116" lon="10.632422">
|
|
<ele>-9.007394</ele>
|
|
<time>2026-07-17T12:56:49.000Z</time>
|
|
</trkpt>
|
|
<trkpt lat="57.740074" lon="10.632403">
|
|
<ele>-8.984135</ele>
|
|
<time>2026-07-17T12:56:50.000Z</time>
|
|
</trkpt>
|
|
<trkpt lat="57.740032" lon="10.632383">
|
|
<ele>-8.960808</ele>
|
|
<time>2026-07-17T12:56:51.000Z</time>
|
|
</trkpt>
|
|
<trkpt lat="57.739998" lon="10.632366">
|
|
<ele>-8.941865</ele>
|
|
<time>2026-07-17T12:56:52.000Z</time>
|
|
</trkpt>
|
|
<trkpt lat="57.739967" lon="10.632352">
|
|
<ele>-8.924699</ele>
|
|
<time>2026-07-17T12:56:53.000Z</time>
|
|
</trkpt>
|
|
<trkpt lat="57.739941" lon="10.632338">
|
|
<ele>-8.910137</ele>
|
|
<time>2026-07-17T12:56:54.000Z</time>
|
|
</trkpt>
|
|
<trkpt lat="57.739914" lon="10.632324">
|
|
<ele>-8.895056</ele>
|
|
<time>2026-07-17T12:56:55.000Z</time>
|
|
</trkpt>
|
|
<trkpt lat="57.739887" lon="10.632311">
|
|
<ele>-8.880049</ele>
|
|
<time>2026-07-17T12:56:56.000Z</time>
|
|
</trkpt>
|
|
<trkpt lat="57.739868" lon="10.632299">
|
|
<ele>-8.869256</ele>
|
|
<time>2026-07-17T12:56:57.000Z</time>
|
|
</trkpt>
|
|
<trkpt lat="57.739845" lon="10.632288">
|
|
<ele>-8.856478</ele>
|
|
<time>2026-07-17T12:56:58.000Z</time>
|
|
</trkpt>
|
|
<trkpt lat="57.739822" lon="10.632276">
|
|
<ele>-8.843626</ele>
|
|
<time>2026-07-17T12:56:59.000Z</time>
|
|
</trkpt>
|
|
<trkpt lat="57.739796" lon="10.632261">
|
|
<ele>-8.828981</ele>
|
|
<time>2026-07-17T12:57:00.000Z</time>
|
|
</trkpt>
|
|
<trkpt lat="57.739765" lon="10.632248">
|
|
<ele>-8.811881</ele>
|
|
<time>2026-07-17T12:57:01.000Z</time>
|
|
</trkpt>
|
|
<trkpt lat="57.739731" lon="10.632244">
|
|
<ele>-8.793542</ele>
|
|
<time>2026-07-17T12:57:02.000Z</time>
|
|
</trkpt>
|
|
<trkpt lat="57.739689" lon="10.632259">
|
|
<ele>-8.770526</ele>
|
|
<time>2026-07-17T12:57:03.000Z</time>
|
|
</trkpt>
|
|
<trkpt lat="57.739651" lon="10.632293">
|
|
<ele>-8.747858</ele>
|
|
<time>2026-07-17T12:57:04.000Z</time>
|
|
</trkpt>
|
|
<trkpt lat="57.739616" lon="10.632341">
|
|
<ele>-8.724509</ele>
|
|
<time>2026-07-17T12:57:05.000Z</time>
|
|
</trkpt>
|
|
<trkpt lat="57.739590" lon="10.632401">
|
|
<ele>-8.702303</ele>
|
|
<time>2026-07-17T12:57:06.000Z</time>
|
|
</trkpt>
|
|
<trkpt lat="57.739567" lon="10.632459">
|
|
<ele>-8.681542</ele>
|
|
<time>2026-07-17T12:57:07.000Z</time>
|
|
</trkpt>
|
|
<trkpt lat="57.739544" lon="10.632518">
|
|
<ele>-8.660549</ele>
|
|
<time>2026-07-17T12:57:08.000Z</time>
|
|
</trkpt>
|
|
<trkpt lat="57.739521" lon="10.632588">
|
|
<ele>-8.636931</ele>
|
|
<time>2026-07-17T12:57:09.000Z</time>
|
|
</trkpt>
|
|
<trkpt lat="57.739502" lon="10.632657">
|
|
<ele>-8.614622</ele>
|
|
<time>2026-07-17T12:57:10.000Z</time>
|
|
</trkpt>
|
|
<trkpt lat="57.739479" lon="10.632718">
|
|
<ele>-8.593163</ele>
|
|
<time>2026-07-17T12:57:11.000Z</time>
|
|
</trkpt>
|
|
<trkpt lat="57.739460" lon="10.632777">
|
|
<ele>-8.573364</ele>
|
|
<time>2026-07-17T12:57:12.000Z</time>
|
|
</trkpt>
|
|
<trkpt lat="57.739441" lon="10.632834">
|
|
<ele>-8.554055</ele>
|
|
<time>2026-07-17T12:57:13.000Z</time>
|
|
</trkpt>
|
|
<trkpt lat="57.739422" lon="10.632886">
|
|
<ele>-8.535949</ele>
|
|
<time>2026-07-17T12:57:14.000Z</time>
|
|
</trkpt>
|
|
<trkpt lat="57.739403" lon="10.632937">
|
|
<ele>-8.518078</ele>
|
|
<time>2026-07-17T12:57:15.000Z</time>
|
|
</trkpt>
|
|
<trkpt lat="57.739387" lon="10.632987">
|
|
<ele>-8.510796</ele>
|
|
<time>2026-07-17T12:57:16.000Z</time>
|
|
</trkpt>
|
|
<trkpt lat="57.739368" lon="10.633038">
|
|
<ele>-8.510591</ele>
|
|
<time>2026-07-17T12:57:17.000Z</time>
|
|
</trkpt>
|
|
<trkpt lat="57.739349" lon="10.633087">
|
|
<ele>-8.510391</ele>
|
|
<time>2026-07-17T12:57:18.000Z</time>
|
|
</trkpt>
|
|
<trkpt lat="57.739330" lon="10.633135">
|
|
<ele>-8.510193</ele>
|
|
<time>2026-07-17T12:57:19.000Z</time>
|
|
</trkpt>
|
|
<trkpt lat="57.739311" lon="10.633181">
|
|
<ele>-8.510001</ele>
|
|
<time>2026-07-17T12:57:20.000Z</time>
|
|
</trkpt>
|
|
<trkpt lat="57.739292" lon="10.633225">
|
|
<ele>-8.509814</ele>
|
|
<time>2026-07-17T12:57:21.000Z</time>
|
|
</trkpt>
|
|
<trkpt lat="57.739277" lon="10.633271">
|
|
<ele>-8.509636</ele>
|
|
<time>2026-07-17T12:57:22.000Z</time>
|
|
</trkpt>
|
|
<trkpt lat="57.739258" lon="10.633316">
|
|
<ele>-8.509446</ele>
|
|
<time>2026-07-17T12:57:23.000Z</time>
|
|
</trkpt>
|
|
<trkpt lat="57.739243" lon="10.633359">
|
|
<ele>-8.509276</ele>
|
|
<time>2026-07-17T12:57:24.000Z</time>
|
|
</trkpt>
|
|
<trkpt lat="57.739223" lon="10.633400">
|
|
<ele>-8.509093</ele>
|
|
<time>2026-07-17T12:57:25.000Z</time>
|
|
</trkpt>
|
|
<trkpt lat="57.739208" lon="10.633441">
|
|
<ele>-8.508928</ele>
|
|
<time>2026-07-17T12:57:26.000Z</time>
|
|
</trkpt>
|
|
<trkpt lat="57.739189" lon="10.633480">
|
|
<ele>-8.508754</ele>
|
|
<time>2026-07-17T12:57:27.000Z</time>
|
|
</trkpt>
|
|
<trkpt lat="57.739174" lon="10.633513">
|
|
<ele>-8.508610</ele>
|
|
<time>2026-07-17T12:57:28.000Z</time>
|
|
</trkpt>
|
|
<trkpt lat="57.739155" lon="10.633543">
|
|
<ele>-8.508457</ele>
|
|
<time>2026-07-17T12:57:29.000Z</time>
|
|
</trkpt>
|
|
<trkpt lat="57.739140" lon="10.633571">
|
|
<ele>-8.508325</ele>
|
|
<time>2026-07-17T12:57:30.000Z</time>
|
|
</trkpt>
|
|
<trkpt lat="57.739124" lon="10.633595">
|
|
<ele>-8.508199</ele>
|
|
<time>2026-07-17T12:57:31.000Z</time>
|
|
</trkpt>
|
|
<trkpt lat="57.739113" lon="10.633615">
|
|
<ele>-8.508104</ele>
|
|
<time>2026-07-17T12:57:32.000Z</time>
|
|
</trkpt>
|
|
<trkpt lat="57.739101" lon="10.633634">
|
|
<ele>-8.508006</ele>
|
|
<time>2026-07-17T12:57:33.000Z</time>
|
|
</trkpt>
|
|
<trkpt lat="57.739090" lon="10.633653">
|
|
<ele>-8.507914</ele>
|
|
<time>2026-07-17T12:57:34.000Z</time>
|
|
</trkpt>
|
|
<trkpt lat="57.739079" lon="10.633673">
|
|
<ele>-8.507819</ele>
|
|
<time>2026-07-17T12:57:35.000Z</time>
|
|
</trkpt>
|
|
<trkpt lat="57.739067" lon="10.633698">
|
|
<ele>-8.507708</ele>
|
|
<time>2026-07-17T12:57:36.000Z</time>
|
|
</trkpt>
|
|
<trkpt lat="57.739059" lon="10.633735">
|
|
<ele>-8.507576</ele>
|
|
<time>2026-07-17T12:57:37.000Z</time>
|
|
</trkpt>
|
|
<trkpt lat="57.739056" lon="10.633771">
|
|
<ele>-8.507455</ele>
|
|
<time>2026-07-17T12:57:38.000Z</time>
|
|
</trkpt>
|
|
<trkpt lat="57.739052" lon="10.633808">
|
|
<ele>-8.507330</ele>
|
|
<time>2026-07-17T12:57:39.000Z</time>
|
|
</trkpt>
|
|
<trkpt lat="57.739048" lon="10.633844">
|
|
<ele>-8.507209</ele>
|
|
<time>2026-07-17T12:57:40.000Z</time>
|
|
</trkpt>
|
|
<trkpt lat="57.739044" lon="10.633880">
|
|
<ele>-8.507087</ele>
|
|
<time>2026-07-17T12:57:41.000Z</time>
|
|
</trkpt>
|
|
<trkpt lat="57.739040" lon="10.633915">
|
|
<ele>-8.506969</ele>
|
|
<time>2026-07-17T12:57:42.000Z</time>
|
|
</trkpt>
|
|
<trkpt lat="57.739033" lon="10.633950">
|
|
<ele>-8.506845</ele>
|
|
<time>2026-07-17T12:57:43.000Z</time>
|
|
</trkpt>
|
|
<trkpt lat="57.739029" lon="10.633982">
|
|
<ele>-8.506737</ele>
|
|
<time>2026-07-17T12:57:44.000Z</time>
|
|
</trkpt>
|
|
<trkpt lat="57.739021" lon="10.634010">
|
|
<ele>-8.506632</ele>
|
|
<time>2026-07-17T12:57:45.000Z</time>
|
|
</trkpt>
|
|
<trkpt lat="57.739014" lon="10.634036">
|
|
<ele>-8.506536</ele>
|
|
<time>2026-07-17T12:57:46.000Z</time>
|
|
</trkpt>
|
|
<trkpt lat="57.739006" lon="10.634052">
|
|
<ele>-8.506463</ele>
|
|
<time>2026-07-17T12:57:47.000Z</time>
|
|
</trkpt>
|
|
<trkpt lat="57.738991" lon="10.634089">
|
|
<ele>-8.506309</ele>
|
|
<time>2026-07-17T12:57:58.000Z</time>
|
|
</trkpt>
|
|
<trkpt lat="57.738979" lon="10.634097">
|
|
<ele>-8.506231</ele>
|
|
<time>2026-07-17T12:57:59.000Z</time>
|
|
</trkpt>
|
|
<trkpt lat="57.738964" lon="10.634106">
|
|
<ele>-8.506133</ele>
|
|
<time>2026-07-17T12:58:00.000Z</time>
|
|
</trkpt>
|
|
<trkpt lat="57.738945" lon="10.634108">
|
|
<ele>-8.506015</ele>
|
|
<time>2026-07-17T12:58:01.000Z</time>
|
|
</trkpt>
|
|
<trkpt lat="57.738922" lon="10.634103">
|
|
<ele>-8.505872</ele>
|
|
<time>2026-07-17T12:58:02.000Z</time>
|
|
</trkpt>
|
|
<trkpt lat="57.738892" lon="10.634096">
|
|
<ele>-8.505685</ele>
|
|
<time>2026-07-17T12:58:03.000Z</time>
|
|
</trkpt>
|
|
<trkpt lat="57.738869" lon="10.634091">
|
|
<ele>-8.505541</ele>
|
|
<time>2026-07-17T12:58:04.000Z</time>
|
|
</trkpt>
|
|
<trkpt lat="57.738842" lon="10.634088">
|
|
<ele>-8.505374</ele>
|
|
<time>2026-07-17T12:58:05.000Z</time>
|
|
</trkpt>
|
|
<trkpt lat="57.738815" lon="10.634090">
|
|
<ele>-8.505206</ele>
|
|
<time>2026-07-17T12:58:06.000Z</time>
|
|
</trkpt>
|
|
<trkpt lat="57.738800" lon="10.634101">
|
|
<ele>-8.505107</ele>
|
|
<time>2026-07-17T12:58:07.000Z</time>
|
|
</trkpt>
|
|
<trkpt lat="57.738789" lon="10.634115">
|
|
<ele>-8.505024</ele>
|
|
<time>2026-07-17T12:58:08.000Z</time>
|
|
</trkpt>
|
|
<trkpt lat="57.738770" lon="10.634128">
|
|
<ele>-8.504899</ele>
|
|
<time>2026-07-17T12:58:09.000Z</time>
|
|
</trkpt>
|
|
<trkpt lat="57.738750" lon="10.634133">
|
|
<ele>-8.504774</ele>
|
|
<time>2026-07-17T12:58:10.000Z</time>
|
|
</trkpt>
|
|
<trkpt lat="57.738731" lon="10.634133">
|
|
<ele>-8.504656</ele>
|
|
<time>2026-07-17T12:58:11.000Z</time>
|
|
</trkpt>
|
|
<trkpt lat="57.738712" lon="10.634129">
|
|
<ele>-8.504538</ele>
|
|
<time>2026-07-17T12:58:12.000Z</time>
|
|
</trkpt>
|
|
<trkpt lat="57.738689" lon="10.634126">
|
|
<ele>-8.504395</ele>
|
|
<time>2026-07-17T12:58:13.000Z</time>
|
|
</trkpt>
|
|
<trkpt lat="57.738670" lon="10.634128">
|
|
<ele>-8.504277</ele>
|
|
<time>2026-07-17T12:58:14.000Z</time>
|
|
</trkpt>
|
|
<trkpt lat="57.738651" lon="10.634130">
|
|
<ele>-8.504159</ele>
|
|
<time>2026-07-17T12:58:15.000Z</time>
|
|
</trkpt>
|
|
<trkpt lat="57.738636" lon="10.634128">
|
|
<ele>-8.504066</ele>
|
|
<time>2026-07-17T12:58:16.000Z</time>
|
|
</trkpt>
|
|
<trkpt lat="57.738621" lon="10.634123">
|
|
<ele>-8.503972</ele>
|
|
<time>2026-07-17T12:58:17.000Z</time>
|
|
</trkpt>
|
|
<trkpt lat="57.738609" lon="10.634113">
|
|
<ele>-8.503891</ele>
|
|
<time>2026-07-17T12:58:18.000Z</time>
|
|
</trkpt>
|
|
<trkpt lat="57.738602" lon="10.634107">
|
|
<ele>-8.503843</ele>
|
|
<time>2026-07-17T12:58:19.000Z</time>
|
|
</trkpt>
|
|
<trkpt lat="57.738602" lon="10.634104">
|
|
<ele>-8.503833</ele>
|
|
<time>2026-07-17T12:58:20.000Z</time>
|
|
</trkpt>
|
|
<trkpt lat="57.738602" lon="10.634104">
|
|
<ele>-8.503833</ele>
|
|
<time>2026-07-17T12:58:24.000Z</time>
|
|
</trkpt>
|
|
<trkpt lat="57.738590" lon="10.634094">
|
|
<ele>-8.503752</ele>
|
|
<time>2026-07-17T12:58:52.000Z</time>
|
|
</trkpt>
|
|
<trkpt lat="57.738571" lon="10.634075">
|
|
<ele>-8.503618</ele>
|
|
<time>2026-07-17T12:58:53.000Z</time>
|
|
</trkpt>
|
|
<trkpt lat="57.738552" lon="10.634050">
|
|
<ele>-8.503475</ele>
|
|
<time>2026-07-17T12:58:54.000Z</time>
|
|
</trkpt>
|
|
<trkpt lat="57.738537" lon="10.634017">
|
|
<ele>-8.503331</ele>
|
|
<time>2026-07-17T12:58:55.000Z</time>
|
|
</trkpt>
|
|
<trkpt lat="57.738518" lon="10.633976">
|
|
<ele>-8.503152</ele>
|
|
<time>2026-07-17T12:58:56.000Z</time>
|
|
</trkpt>
|
|
<trkpt lat="57.738495" lon="10.633937">
|
|
<ele>-8.502960</ele>
|
|
<time>2026-07-17T12:58:57.000Z</time>
|
|
</trkpt>
|
|
<trkpt lat="57.738468" lon="10.633909">
|
|
<ele>-8.502769</ele>
|
|
<time>2026-07-17T12:58:58.000Z</time>
|
|
</trkpt>
|
|
<trkpt lat="57.738441" lon="10.633887">
|
|
<ele>-8.502586</ele>
|
|
<time>2026-07-17T12:58:59.000Z</time>
|
|
</trkpt>
|
|
<trkpt lat="57.738411" lon="10.633867">
|
|
<ele>-8.502389</ele>
|
|
<time>2026-07-17T12:59:00.000Z</time>
|
|
</trkpt>
|
|
<trkpt lat="57.738377" lon="10.633852">
|
|
<ele>-8.502173</ele>
|
|
<time>2026-07-17T12:59:01.000Z</time>
|
|
</trkpt>
|
|
<trkpt lat="57.738342" lon="10.633841">
|
|
<ele>-8.501953</ele>
|
|
<time>2026-07-17T12:59:02.000Z</time>
|
|
</trkpt>
|
|
<trkpt lat="57.738308" lon="10.633829">
|
|
<ele>-8.501739</ele>
|
|
<time>2026-07-17T12:59:03.000Z</time>
|
|
</trkpt>
|
|
<trkpt lat="57.738270" lon="10.633817">
|
|
<ele>-8.501500</ele>
|
|
<time>2026-07-17T12:59:04.000Z</time>
|
|
</trkpt>
|
|
<trkpt lat="57.738235" lon="10.633803">
|
|
<ele>-8.501278</ele>
|
|
<time>2026-07-17T12:59:05.000Z</time>
|
|
</trkpt>
|
|
<trkpt lat="57.738201" lon="10.633788">
|
|
<ele>-8.501062</ele>
|
|
<time>2026-07-17T12:59:06.000Z</time>
|
|
</trkpt>
|
|
<trkpt lat="57.738167" lon="10.633773">
|
|
<ele>-8.500846</ele>
|
|
<time>2026-07-17T12:59:07.000Z</time>
|
|
</trkpt>
|
|
<trkpt lat="57.738132" lon="10.633759">
|
|
<ele>-8.500624</ele>
|
|
<time>2026-07-17T12:59:08.000Z</time>
|
|
</trkpt>
|
|
<trkpt lat="57.738102" lon="10.633744">
|
|
<ele>-8.500432</ele>
|
|
<time>2026-07-17T12:59:09.000Z</time>
|
|
</trkpt>
|
|
<trkpt lat="57.738071" lon="10.633721">
|
|
<ele>-8.500225</ele>
|
|
<time>2026-07-17T12:59:10.000Z</time>
|
|
</trkpt>
|
|
<trkpt lat="57.738052" lon="10.633689">
|
|
<ele>-8.500067</ele>
|
|
<time>2026-07-17T12:59:11.000Z</time>
|
|
</trkpt>
|
|
<trkpt lat="57.738037" lon="10.633645">
|
|
<ele>-8.499895</ele>
|
|
<time>2026-07-17T12:59:12.000Z</time>
|
|
</trkpt>
|
|
<trkpt lat="57.738022" lon="10.633595">
|
|
<ele>-8.497037</ele>
|
|
<time>2026-07-17T12:59:13.000Z</time>
|
|
</trkpt>
|
|
<trkpt lat="57.738010" lon="10.633545">
|
|
<ele>-8.489184</ele>
|
|
<time>2026-07-17T12:59:14.000Z</time>
|
|
</trkpt>
|
|
<trkpt lat="57.737999" lon="10.633496">
|
|
<ele>-8.481569</ele>
|
|
<time>2026-07-17T12:59:15.000Z</time>
|
|
</trkpt>
|
|
<trkpt lat="57.737988" lon="10.633452">
|
|
<ele>-8.474609</ele>
|
|
<time>2026-07-17T12:59:16.000Z</time>
|
|
</trkpt>
|
|
<trkpt lat="57.737968" lon="10.633415">
|
|
<ele>-8.467066</ele>
|
|
<time>2026-07-17T12:59:17.000Z</time>
|
|
</trkpt>
|
|
<trkpt lat="57.737949" lon="10.633384">
|
|
<ele>-8.460304</ele>
|
|
<time>2026-07-17T12:59:18.000Z</time>
|
|
</trkpt>
|
|
<trkpt lat="57.737919" lon="10.633359">
|
|
<ele>-8.451492</ele>
|
|
<time>2026-07-17T12:59:19.000Z</time>
|
|
</trkpt>
|
|
<trkpt lat="57.737892" lon="10.633343">
|
|
<ele>-8.443893</ele>
|
|
<time>2026-07-17T12:59:20.000Z</time>
|
|
</trkpt>
|
|
<trkpt lat="57.737862" lon="10.633332">
|
|
<ele>-8.435689</ele>
|
|
<time>2026-07-17T12:59:21.000Z</time>
|
|
</trkpt>
|
|
<trkpt lat="57.737831" lon="10.633323">
|
|
<ele>-8.427270</ele>
|
|
<time>2026-07-17T12:59:22.000Z</time>
|
|
</trkpt>
|
|
<trkpt lat="57.737801" lon="10.633311">
|
|
<ele>-8.419038</ele>
|
|
<time>2026-07-17T12:59:23.000Z</time>
|
|
</trkpt>
|
|
<trkpt lat="57.737770" lon="10.633300">
|
|
<ele>-8.410571</ele>
|
|
<time>2026-07-17T12:59:24.000Z</time>
|
|
</trkpt>
|
|
<trkpt lat="57.737740" lon="10.633286">
|
|
<ele>-8.402274</ele>
|
|
<time>2026-07-17T12:59:25.000Z</time>
|
|
</trkpt>
|
|
<trkpt lat="57.737709" lon="10.633271">
|
|
<ele>-8.393681</ele>
|
|
<time>2026-07-17T12:59:26.000Z</time>
|
|
</trkpt>
|
|
<trkpt lat="57.737675" lon="10.633257">
|
|
<ele>-8.384339</ele>
|
|
<time>2026-07-17T12:59:27.000Z</time>
|
|
</trkpt>
|
|
<trkpt lat="57.737637" lon="10.633243">
|
|
<ele>-8.373946</ele>
|
|
<time>2026-07-17T12:59:28.000Z</time>
|
|
</trkpt>
|
|
<trkpt lat="57.737598" lon="10.633225">
|
|
<ele>-8.363166</ele>
|
|
<time>2026-07-17T12:59:29.000Z</time>
|
|
</trkpt>
|
|
<trkpt lat="57.737556" lon="10.633199">
|
|
<ele>-8.351296</ele>
|
|
<time>2026-07-17T12:59:30.000Z</time>
|
|
</trkpt>
|
|
<trkpt lat="57.737518" lon="10.633164">
|
|
<ele>-8.339932</ele>
|
|
<time>2026-07-17T12:59:31.000Z</time>
|
|
</trkpt>
|
|
<trkpt lat="57.737476" lon="10.633126">
|
|
<ele>-8.327415</ele>
|
|
<time>2026-07-17T12:59:32.000Z</time>
|
|
</trkpt>
|
|
<trkpt lat="57.737434" lon="10.633088">
|
|
<ele>-8.314898</ele>
|
|
<time>2026-07-17T12:59:33.000Z</time>
|
|
</trkpt>
|
|
<trkpt lat="57.737392" lon="10.633046">
|
|
<ele>-8.302121</ele>
|
|
<time>2026-07-17T12:59:34.000Z</time>
|
|
</trkpt>
|
|
<trkpt lat="57.737358" lon="10.633000">
|
|
<ele>-8.290866</ele>
|
|
<time>2026-07-17T12:59:35.000Z</time>
|
|
</trkpt>
|
|
<trkpt lat="57.737324" lon="10.632952">
|
|
<ele>-8.279441</ele>
|
|
<time>2026-07-17T12:59:36.000Z</time>
|
|
</trkpt>
|
|
<trkpt lat="57.737289" lon="10.632907">
|
|
<ele>-8.268048</ele>
|
|
<time>2026-07-17T12:59:37.000Z</time>
|
|
</trkpt>
|
|
<trkpt lat="57.737255" lon="10.632863">
|
|
<ele>-8.256958</ele>
|
|
<time>2026-07-17T12:59:38.000Z</time>
|
|
</trkpt>
|
|
<trkpt lat="57.737217" lon="10.632815">
|
|
<ele>-8.244659</ele>
|
|
<time>2026-07-17T12:59:39.000Z</time>
|
|
</trkpt>
|
|
<trkpt lat="57.737179" lon="10.632766">
|
|
<ele>-8.232279</ele>
|
|
<time>2026-07-17T12:59:40.000Z</time>
|
|
</trkpt>
|
|
<trkpt lat="57.737145" lon="10.632716">
|
|
<ele>-8.220679</ele>
|
|
<time>2026-07-17T12:59:41.000Z</time>
|
|
</trkpt>
|
|
<trkpt lat="57.737110" lon="10.632664">
|
|
<ele>-8.208690</ele>
|
|
<time>2026-07-17T12:59:42.000Z</time>
|
|
</trkpt>
|
|
<trkpt lat="57.737072" lon="10.632608">
|
|
<ele>-8.195715</ele>
|
|
<time>2026-07-17T12:59:43.000Z</time>
|
|
</trkpt>
|
|
<trkpt lat="57.737038" lon="10.632549">
|
|
<ele>-8.183278</ele>
|
|
<time>2026-07-17T12:59:44.000Z</time>
|
|
</trkpt>
|
|
<trkpt lat="57.736999" lon="10.632486">
|
|
<ele>-8.169458</ele>
|
|
<time>2026-07-17T12:59:45.000Z</time>
|
|
</trkpt>
|
|
<trkpt lat="57.736965" lon="10.632420">
|
|
<ele>-8.156318</ele>
|
|
<time>2026-07-17T12:59:46.000Z</time>
|
|
</trkpt>
|
|
<trkpt lat="57.736931" lon="10.632347">
|
|
<ele>-8.142439</ele>
|
|
<time>2026-07-17T12:59:47.000Z</time>
|
|
</trkpt>
|
|
<trkpt lat="57.736896" lon="10.632273">
|
|
<ele>-8.128276</ele>
|
|
<time>2026-07-17T12:59:48.000Z</time>
|
|
</trkpt>
|
|
<trkpt lat="57.736862" lon="10.632197">
|
|
<ele>-8.114071</ele>
|
|
<time>2026-07-17T12:59:49.000Z</time>
|
|
</trkpt>
|
|
<trkpt lat="57.736835" lon="10.632120">
|
|
<ele>-8.100873</ele>
|
|
<time>2026-07-17T12:59:50.000Z</time>
|
|
</trkpt>
|
|
<trkpt lat="57.736809" lon="10.632040">
|
|
<ele>-8.087455</ele>
|
|
<time>2026-07-17T12:59:51.000Z</time>
|
|
</trkpt>
|
|
<trkpt lat="57.736774" lon="10.631956">
|
|
<ele>-8.072190</ele>
|
|
<time>2026-07-17T12:59:52.000Z</time>
|
|
</trkpt>
|
|
<trkpt lat="57.736748" lon="10.631871">
|
|
<ele>-8.058156</ele>
|
|
<time>2026-07-17T12:59:53.000Z</time>
|
|
</trkpt>
|
|
<trkpt lat="57.736721" lon="10.631789">
|
|
<ele>-8.044354</ele>
|
|
<time>2026-07-17T12:59:54.000Z</time>
|
|
</trkpt>
|
|
<trkpt lat="57.736694" lon="10.631711">
|
|
<ele>-8.031036</ele>
|
|
<time>2026-07-17T12:59:55.000Z</time>
|
|
</trkpt>
|
|
<trkpt lat="57.736668" lon="10.631632">
|
|
<ele>-8.017741</ele>
|
|
<time>2026-07-17T12:59:56.000Z</time>
|
|
</trkpt>
|
|
<trkpt lat="57.736637" lon="10.631550">
|
|
<ele>-8.013232</ele>
|
|
<time>2026-07-17T12:59:57.000Z</time>
|
|
</trkpt>
|
|
<trkpt lat="57.736614" lon="10.631466">
|
|
<ele>-8.009447</ele>
|
|
<time>2026-07-17T12:59:58.000Z</time>
|
|
</trkpt>
|
|
<trkpt lat="57.736584" lon="10.631383">
|
|
<ele>-8.005428</ele>
|
|
<time>2026-07-17T12:59:59.000Z</time>
|
|
</trkpt>
|
|
<trkpt lat="57.736561" lon="10.631298">
|
|
<ele>-8.001607</ele>
|
|
<time>2026-07-17T13:00:00.000Z</time>
|
|
</trkpt>
|
|
<trkpt lat="57.736538" lon="10.631211">
|
|
<ele>-7.997715</ele>
|
|
<time>2026-07-17T13:00:01.000Z</time>
|
|
</trkpt>
|
|
<trkpt lat="57.736511" lon="10.631125">
|
|
<ele>-7.993714</ele>
|
|
<time>2026-07-17T13:00:02.000Z</time>
|
|
</trkpt>
|
|
<trkpt lat="57.736488" lon="10.631042">
|
|
<ele>-7.989965</ele>
|
|
<time>2026-07-17T13:00:03.000Z</time>
|
|
</trkpt>
|
|
<trkpt lat="57.736462" lon="10.630955">
|
|
<ele>-7.985968</ele>
|
|
<time>2026-07-17T13:00:04.000Z</time>
|
|
</trkpt>
|
|
<trkpt lat="57.736439" lon="10.630871">
|
|
<ele>-7.982182</ele>
|
|
<time>2026-07-17T13:00:05.000Z</time>
|
|
</trkpt>
|
|
<trkpt lat="57.736412" lon="10.630783">
|
|
<ele>-7.978113</ele>
|
|
<time>2026-07-17T13:00:06.000Z</time>
|
|
</trkpt>
|
|
<trkpt lat="57.736385" lon="10.630695">
|
|
<ele>-7.974044</ele>
|
|
<time>2026-07-17T13:00:07.000Z</time>
|
|
</trkpt>
|
|
<trkpt lat="57.736362" lon="10.630610">
|
|
<ele>-7.970223</ele>
|
|
<time>2026-07-17T13:00:08.000Z</time>
|
|
</trkpt>
|
|
<trkpt lat="57.736340" lon="10.630526">
|
|
<ele>-7.966471</ele>
|
|
<time>2026-07-17T13:00:09.000Z</time>
|
|
</trkpt>
|
|
<trkpt lat="57.736317" lon="10.630439">
|
|
<ele>-7.962579</ele>
|
|
<time>2026-07-17T13:00:10.000Z</time>
|
|
</trkpt>
|
|
<trkpt lat="57.736294" lon="10.630351">
|
|
<ele>-7.958650</ele>
|
|
<time>2026-07-17T13:00:11.000Z</time>
|
|
</trkpt>
|
|
<trkpt lat="57.736267" lon="10.630264">
|
|
<ele>-7.954616</ele>
|
|
<time>2026-07-17T13:00:12.000Z</time>
|
|
</trkpt>
|
|
<trkpt lat="57.736240" lon="10.630178">
|
|
<ele>-7.950616</ele>
|
|
<time>2026-07-17T13:00:13.000Z</time>
|
|
</trkpt>
|
|
<trkpt lat="57.736214" lon="10.630095">
|
|
<ele>-7.946757</ele>
|
|
<time>2026-07-17T13:00:14.000Z</time>
|
|
</trkpt>
|
|
<trkpt lat="57.736191" lon="10.630012">
|
|
<ele>-7.943008</ele>
|
|
<time>2026-07-17T13:00:15.000Z</time>
|
|
</trkpt>
|
|
<trkpt lat="57.736168" lon="10.629925">
|
|
<ele>-7.939115</ele>
|
|
<time>2026-07-17T13:00:16.000Z</time>
|
|
</trkpt>
|
|
<trkpt lat="57.736141" lon="10.629837">
|
|
<ele>-7.935046</ele>
|
|
<time>2026-07-17T13:00:17.000Z</time>
|
|
</trkpt>
|
|
<trkpt lat="57.736118" lon="10.629750">
|
|
<ele>-7.931153</ele>
|
|
<time>2026-07-17T13:00:18.000Z</time>
|
|
</trkpt>
|
|
<trkpt lat="57.736092" lon="10.629667">
|
|
<ele>-7.927295</ele>
|
|
<time>2026-07-17T13:00:19.000Z</time>
|
|
</trkpt>
|
|
<trkpt lat="57.736069" lon="10.629581">
|
|
<ele>-7.923438</ele>
|
|
<time>2026-07-17T13:00:20.000Z</time>
|
|
</trkpt>
|
|
<trkpt lat="57.736046" lon="10.629497">
|
|
<ele>-7.919653</ele>
|
|
<time>2026-07-17T13:00:21.000Z</time>
|
|
</trkpt>
|
|
<trkpt lat="57.736023" lon="10.629411">
|
|
<ele>-7.915797</ele>
|
|
<time>2026-07-17T13:00:22.000Z</time>
|
|
</trkpt>
|
|
<trkpt lat="57.735996" lon="10.629324">
|
|
<ele>-7.911762</ele>
|
|
<time>2026-07-17T13:00:23.000Z</time>
|
|
</trkpt>
|
|
<trkpt lat="57.735973" lon="10.629241">
|
|
<ele>-7.908012</ele>
|
|
<time>2026-07-17T13:00:24.000Z</time>
|
|
</trkpt>
|
|
<trkpt lat="57.735947" lon="10.629157">
|
|
<ele>-7.904119</ele>
|
|
<time>2026-07-17T13:00:25.000Z</time>
|
|
</trkpt>
|
|
<trkpt lat="57.735924" lon="10.629071">
|
|
<ele>-7.900263</ele>
|
|
<time>2026-07-17T13:00:26.000Z</time>
|
|
</trkpt>
|
|
<trkpt lat="57.735897" lon="10.628986">
|
|
<ele>-7.896297</ele>
|
|
<time>2026-07-17T13:00:27.000Z</time>
|
|
</trkpt>
|
|
<trkpt lat="57.735874" lon="10.628901">
|
|
<ele>-7.892476</ele>
|
|
<time>2026-07-17T13:00:28.000Z</time>
|
|
</trkpt>
|
|
<trkpt lat="57.735847" lon="10.628816">
|
|
<ele>-7.888510</ele>
|
|
<time>2026-07-17T13:00:29.000Z</time>
|
|
</trkpt>
|
|
<trkpt lat="57.735821" lon="10.628732">
|
|
<ele>-7.884617</ele>
|
|
<time>2026-07-17T13:00:30.000Z</time>
|
|
</trkpt>
|
|
<trkpt lat="57.735794" lon="10.628649">
|
|
<ele>-7.880540</ele>
|
|
<time>2026-07-17T13:00:31.000Z</time>
|
|
</trkpt>
|
|
<trkpt lat="57.735771" lon="10.628560">
|
|
<ele>-7.876008</ele>
|
|
<time>2026-07-17T13:00:32.000Z</time>
|
|
</trkpt>
|
|
<trkpt lat="57.735744" lon="10.628471">
|
|
<ele>-7.871317</ele>
|
|
<time>2026-07-17T13:00:33.000Z</time>
|
|
</trkpt>
|
|
<trkpt lat="57.735718" lon="10.628386">
|
|
<ele>-7.866828</ele>
|
|
<time>2026-07-17T13:00:34.000Z</time>
|
|
</trkpt>
|
|
<trkpt lat="57.735695" lon="10.628302">
|
|
<ele>-7.862501</ele>
|
|
<time>2026-07-17T13:00:35.000Z</time>
|
|
</trkpt>
|
|
<trkpt lat="57.735668" lon="10.628217">
|
|
<ele>-7.857968</ele>
|
|
<time>2026-07-17T13:00:36.000Z</time>
|
|
</trkpt>
|
|
<trkpt lat="57.735641" lon="10.628131">
|
|
<ele>-7.853396</ele>
|
|
<time>2026-07-17T13:00:37.000Z</time>
|
|
</trkpt>
|
|
<trkpt lat="57.735619" lon="10.628045">
|
|
<ele>-7.849026</ele>
|
|
<time>2026-07-17T13:00:38.000Z</time>
|
|
</trkpt>
|
|
<trkpt lat="57.735592" lon="10.627955">
|
|
<ele>-7.844295</ele>
|
|
<time>2026-07-17T13:00:39.000Z</time>
|
|
</trkpt>
|
|
<trkpt lat="57.735569" lon="10.627865">
|
|
<ele>-7.839722</ele>
|
|
<time>2026-07-17T13:00:40.000Z</time>
|
|
</trkpt>
|
|
<trkpt lat="57.735542" lon="10.627780">
|
|
<ele>-7.835189</ele>
|
|
<time>2026-07-17T13:00:41.000Z</time>
|
|
</trkpt>
|
|
<trkpt lat="57.735516" lon="10.627695">
|
|
<ele>-7.830699</ele>
|
|
<time>2026-07-17T13:00:42.000Z</time>
|
|
</trkpt>
|
|
<trkpt lat="57.735489" lon="10.627608">
|
|
<ele>-7.826088</ele>
|
|
<time>2026-07-17T13:00:43.000Z</time>
|
|
</trkpt>
|
|
<trkpt lat="57.735462" lon="10.627520">
|
|
<ele>-7.821436</ele>
|
|
<time>2026-07-17T13:00:44.000Z</time>
|
|
</trkpt>
|
|
<trkpt lat="57.735436" lon="10.627431">
|
|
<ele>-7.816787</ele>
|
|
<time>2026-07-17T13:00:45.000Z</time>
|
|
</trkpt>
|
|
<trkpt lat="57.735409" lon="10.627345">
|
|
<ele>-7.812214</ele>
|
|
<time>2026-07-17T13:00:46.000Z</time>
|
|
</trkpt>
|
|
<trkpt lat="57.735382" lon="10.627260">
|
|
<ele>-7.807681</ele>
|
|
<time>2026-07-17T13:00:47.000Z</time>
|
|
</trkpt>
|
|
<trkpt lat="57.735355" lon="10.627172">
|
|
<ele>-7.803030</ele>
|
|
<time>2026-07-17T13:00:48.000Z</time>
|
|
</trkpt>
|
|
<trkpt lat="57.735329" lon="10.627085">
|
|
<ele>-7.798461</ele>
|
|
<time>2026-07-17T13:00:49.000Z</time>
|
|
</trkpt>
|
|
<trkpt lat="57.735302" lon="10.626998">
|
|
<ele>-7.793849</ele>
|
|
<time>2026-07-17T13:00:50.000Z</time>
|
|
</trkpt>
|
|
<trkpt lat="57.735271" lon="10.626914">
|
|
<ele>-7.789169</ele>
|
|
<time>2026-07-17T13:00:51.000Z</time>
|
|
</trkpt>
|
|
<trkpt lat="57.735245" lon="10.626831">
|
|
<ele>-7.784758</ele>
|
|
<time>2026-07-17T13:00:52.000Z</time>
|
|
</trkpt>
|
|
<trkpt lat="57.735214" lon="10.626746">
|
|
<ele>-7.780041</ele>
|
|
<time>2026-07-17T13:00:53.000Z</time>
|
|
</trkpt>
|
|
<trkpt lat="57.735187" lon="10.626662">
|
|
<ele>-7.775547</ele>
|
|
<time>2026-07-17T13:00:54.000Z</time>
|
|
</trkpt>
|
|
<trkpt lat="57.735165" lon="10.626578">
|
|
<ele>-7.771259</ele>
|
|
<time>2026-07-17T13:00:55.000Z</time>
|
|
</trkpt>
|
|
<trkpt lat="57.735138" lon="10.626495">
|
|
<ele>-7.766805</ele>
|
|
<time>2026-07-17T13:00:56.000Z</time>
|
|
</trkpt>
|
|
<trkpt lat="57.735111" lon="10.626410">
|
|
<ele>-7.762272</ele>
|
|
<time>2026-07-17T13:00:57.000Z</time>
|
|
</trkpt>
|
|
<trkpt lat="57.735088" lon="10.626319">
|
|
<ele>-7.757658</ele>
|
|
<time>2026-07-17T13:00:58.000Z</time>
|
|
</trkpt>
|
|
<trkpt lat="57.735065" lon="10.626229">
|
|
<ele>-7.753085</ele>
|
|
<time>2026-07-17T13:00:59.000Z</time>
|
|
</trkpt>
|
|
<trkpt lat="57.735039" lon="10.626141">
|
|
<ele>-7.748476</ele>
|
|
<time>2026-07-17T13:01:00.000Z</time>
|
|
</trkpt>
|
|
<trkpt lat="57.735016" lon="10.626050">
|
|
<ele>-7.743861</ele>
|
|
<time>2026-07-17T13:01:01.000Z</time>
|
|
</trkpt>
|
|
<trkpt lat="57.734993" lon="10.625956">
|
|
<ele>-7.739123</ele>
|
|
<time>2026-07-17T13:01:02.000Z</time>
|
|
</trkpt>
|
|
<trkpt lat="57.734966" lon="10.625862">
|
|
<ele>-7.734231</ele>
|
|
<time>2026-07-17T13:01:03.000Z</time>
|
|
</trkpt>
|
|
<trkpt lat="57.734940" lon="10.625772">
|
|
<ele>-7.729541</ele>
|
|
<time>2026-07-17T13:01:04.000Z</time>
|
|
</trkpt>
|
|
<trkpt lat="57.734913" lon="10.625681">
|
|
<ele>-7.726071</ele>
|
|
<time>2026-07-17T13:01:05.000Z</time>
|
|
</trkpt>
|
|
<trkpt lat="57.734890" lon="10.625593">
|
|
<ele>-7.723666</ele>
|
|
<time>2026-07-17T13:01:06.000Z</time>
|
|
</trkpt>
|
|
<trkpt lat="57.734863" lon="10.625505">
|
|
<ele>-7.721174</ele>
|
|
<time>2026-07-17T13:01:07.000Z</time>
|
|
</trkpt>
|
|
<trkpt lat="57.734840" lon="10.625418">
|
|
<ele>-7.718790</ele>
|
|
<time>2026-07-17T13:01:08.000Z</time>
|
|
</trkpt>
|
|
<trkpt lat="57.734814" lon="10.625329">
|
|
<ele>-7.716299</ele>
|
|
<time>2026-07-17T13:01:09.000Z</time>
|
|
</trkpt>
|
|
<trkpt lat="57.734787" lon="10.625242">
|
|
<ele>-7.713829</ele>
|
|
<time>2026-07-17T13:01:10.000Z</time>
|
|
</trkpt>
|
|
<trkpt lat="57.734760" lon="10.625157">
|
|
<ele>-7.711401</ele>
|
|
<time>2026-07-17T13:01:11.000Z</time>
|
|
</trkpt>
|
|
<trkpt lat="57.734734" lon="10.625070">
|
|
<ele>-7.708953</ele>
|
|
<time>2026-07-17T13:01:12.000Z</time>
|
|
</trkpt>
|
|
<trkpt lat="57.734707" lon="10.624982">
|
|
<ele>-7.706461</ele>
|
|
<time>2026-07-17T13:01:13.000Z</time>
|
|
</trkpt>
|
|
<trkpt lat="57.734680" lon="10.624892">
|
|
<ele>-7.703926</ele>
|
|
<time>2026-07-17T13:01:14.000Z</time>
|
|
</trkpt>
|
|
<trkpt lat="57.734653" lon="10.624803">
|
|
<ele>-7.701413</ele>
|
|
<time>2026-07-17T13:01:15.000Z</time>
|
|
</trkpt>
|
|
<trkpt lat="57.734627" lon="10.624714">
|
|
<ele>-7.698922</ele>
|
|
<time>2026-07-17T13:01:16.000Z</time>
|
|
</trkpt>
|
|
<trkpt lat="57.734600" lon="10.624625">
|
|
<ele>-7.696409</ele>
|
|
<time>2026-07-17T13:01:17.000Z</time>
|
|
</trkpt>
|
|
<trkpt lat="57.734573" lon="10.624536">
|
|
<ele>-7.693896</ele>
|
|
<time>2026-07-17T13:01:18.000Z</time>
|
|
</trkpt>
|
|
<trkpt lat="57.734547" lon="10.624448">
|
|
<ele>-7.691427</ele>
|
|
<time>2026-07-17T13:01:19.000Z</time>
|
|
</trkpt>
|
|
<trkpt lat="57.734516" lon="10.624361">
|
|
<ele>-7.688859</ele>
|
|
<time>2026-07-17T13:01:20.000Z</time>
|
|
</trkpt>
|
|
<trkpt lat="57.734486" lon="10.624274">
|
|
<ele>-7.686316</ele>
|
|
<time>2026-07-17T13:01:21.000Z</time>
|
|
</trkpt>
|
|
<trkpt lat="57.734459" lon="10.624186">
|
|
<ele>-7.683824</ele>
|
|
<time>2026-07-17T13:01:22.000Z</time>
|
|
</trkpt>
|
|
<trkpt lat="57.734432" lon="10.624096">
|
|
<ele>-7.681290</ele>
|
|
<time>2026-07-17T13:01:23.000Z</time>
|
|
</trkpt>
|
|
<trkpt lat="57.734402" lon="10.624005">
|
|
<ele>-7.678664</ele>
|
|
<time>2026-07-17T13:01:24.000Z</time>
|
|
</trkpt>
|
|
<trkpt lat="57.734375" lon="10.623915">
|
|
<ele>-7.676129</ele>
|
|
<time>2026-07-17T13:01:25.000Z</time>
|
|
</trkpt>
|
|
<trkpt lat="57.734352" lon="10.623823">
|
|
<ele>-7.673635</ele>
|
|
<time>2026-07-17T13:01:26.000Z</time>
|
|
</trkpt>
|
|
<trkpt lat="57.734329" lon="10.623732">
|
|
<ele>-7.671163</ele>
|
|
<time>2026-07-17T13:01:27.000Z</time>
|
|
</trkpt>
|
|
<trkpt lat="57.734306" lon="10.623641">
|
|
<ele>-7.668691</ele>
|
|
<time>2026-07-17T13:01:28.000Z</time>
|
|
</trkpt>
|
|
<trkpt lat="57.734283" lon="10.623551">
|
|
<ele>-7.666242</ele>
|
|
<time>2026-07-17T13:01:29.000Z</time>
|
|
</trkpt>
|
|
<trkpt lat="57.734261" lon="10.623466">
|
|
<ele>-7.663922</ele>
|
|
<time>2026-07-17T13:01:30.000Z</time>
|
|
</trkpt>
|
|
<trkpt lat="57.734234" lon="10.623378">
|
|
<ele>-7.661431</ele>
|
|
<time>2026-07-17T13:01:31.000Z</time>
|
|
</trkpt>
|
|
<trkpt lat="57.734211" lon="10.623288">
|
|
<ele>-7.658981</ele>
|
|
<time>2026-07-17T13:01:32.000Z</time>
|
|
</trkpt>
|
|
<trkpt lat="57.734180" lon="10.623202">
|
|
<ele>-7.656433</ele>
|
|
<time>2026-07-17T13:01:33.000Z</time>
|
|
</trkpt>
|
|
<trkpt lat="57.734154" lon="10.623117">
|
|
<ele>-7.654028</ele>
|
|
<time>2026-07-17T13:01:34.000Z</time>
|
|
</trkpt>
|
|
<trkpt lat="57.734127" lon="10.623033">
|
|
<ele>-7.651621</ele>
|
|
<time>2026-07-17T13:01:35.000Z</time>
|
|
</trkpt>
|
|
<trkpt lat="57.734100" lon="10.622951">
|
|
<ele>-7.649256</ele>
|
|
<time>2026-07-17T13:01:36.000Z</time>
|
|
</trkpt>
|
|
<trkpt lat="57.734077" lon="10.622865">
|
|
<ele>-7.646894</ele>
|
|
<time>2026-07-17T13:01:37.000Z</time>
|
|
</trkpt>
|
|
<trkpt lat="57.734051" lon="10.622779">
|
|
<ele>-7.643702</ele>
|
|
<time>2026-07-17T13:01:38.000Z</time>
|
|
</trkpt>
|
|
<trkpt lat="57.734024" lon="10.622691">
|
|
<ele>-7.636289</ele>
|
|
<time>2026-07-17T13:01:39.000Z</time>
|
|
</trkpt>
|
|
<trkpt lat="57.733997" lon="10.622603">
|
|
<ele>-7.628875</ele>
|
|
<time>2026-07-17T13:01:40.000Z</time>
|
|
</trkpt>
|
|
<trkpt lat="57.733971" lon="10.622517">
|
|
<ele>-7.621656</ele>
|
|
<time>2026-07-17T13:01:41.000Z</time>
|
|
</trkpt>
|
|
<trkpt lat="57.733940" lon="10.622432">
|
|
<ele>-7.614138</ele>
|
|
<time>2026-07-17T13:01:42.000Z</time>
|
|
</trkpt>
|
|
<trkpt lat="57.733910" lon="10.622346">
|
|
<ele>-7.606634</ele>
|
|
<time>2026-07-17T13:01:43.000Z</time>
|
|
</trkpt>
|
|
<trkpt lat="57.733879" lon="10.622255">
|
|
<ele>-7.598749</ele>
|
|
<time>2026-07-17T13:01:44.000Z</time>
|
|
</trkpt>
|
|
<trkpt lat="57.733849" lon="10.622159">
|
|
<ele>-7.590625</ele>
|
|
<time>2026-07-17T13:01:45.000Z</time>
|
|
</trkpt>
|
|
<trkpt lat="57.733818" lon="10.622062">
|
|
<ele>-7.582367</ele>
|
|
<time>2026-07-17T13:01:46.000Z</time>
|
|
</trkpt>
|
|
<trkpt lat="57.733791" lon="10.621964">
|
|
<ele>-7.574312</ele>
|
|
<time>2026-07-17T13:01:47.000Z</time>
|
|
</trkpt>
|
|
<trkpt lat="57.733761" lon="10.621859">
|
|
<ele>-7.565614</ele>
|
|
<time>2026-07-17T13:01:48.000Z</time>
|
|
</trkpt>
|
|
<trkpt lat="57.733730" lon="10.621751">
|
|
<ele>-7.556658</ele>
|
|
<time>2026-07-17T13:01:49.000Z</time>
|
|
</trkpt>
|
|
<trkpt lat="57.733696" lon="10.621642">
|
|
<ele>-7.547437</ele>
|
|
<time>2026-07-17T13:01:50.000Z</time>
|
|
</trkpt>
|
|
<trkpt lat="57.733665" lon="10.621530">
|
|
<ele>-7.538222</ele>
|
|
<time>2026-07-17T13:01:51.000Z</time>
|
|
</trkpt>
|
|
<trkpt lat="57.733635" lon="10.621417">
|
|
<ele>-7.529004</ele>
|
|
<time>2026-07-17T13:01:52.000Z</time>
|
|
</trkpt>
|
|
<trkpt lat="57.733604" lon="10.621306">
|
|
<ele>-7.519855</ele>
|
|
<time>2026-07-17T13:01:53.000Z</time>
|
|
</trkpt>
|
|
<trkpt lat="57.733574" lon="10.621200">
|
|
<ele>-7.511092</ele>
|
|
<time>2026-07-17T13:01:54.000Z</time>
|
|
</trkpt>
|
|
<trkpt lat="57.733547" lon="10.621093">
|
|
<ele>-7.502447</ele>
|
|
<time>2026-07-17T13:01:55.000Z</time>
|
|
</trkpt>
|
|
<trkpt lat="57.733521" lon="10.620992">
|
|
<ele>-7.494257</ele>
|
|
<time>2026-07-17T13:01:56.000Z</time>
|
|
</trkpt>
|
|
<trkpt lat="57.733494" lon="10.620895">
|
|
<ele>-7.486267</ele>
|
|
<time>2026-07-17T13:01:57.000Z</time>
|
|
</trkpt>
|
|
<trkpt lat="57.733471" lon="10.620809">
|
|
<ele>-7.479241</ele>
|
|
<time>2026-07-17T13:01:58.000Z</time>
|
|
</trkpt>
|
|
<trkpt lat="57.733452" lon="10.620730">
|
|
<ele>-7.472913</ele>
|
|
<time>2026-07-17T13:01:59.000Z</time>
|
|
</trkpt>
|
|
<trkpt lat="57.733429" lon="10.620661">
|
|
<ele>-7.466971</ele>
|
|
<time>2026-07-17T13:02:00.000Z</time>
|
|
</trkpt>
|
|
<trkpt lat="57.733414" lon="10.620600">
|
|
<ele>-7.462066</ele>
|
|
<time>2026-07-17T13:02:01.000Z</time>
|
|
</trkpt>
|
|
<trkpt lat="57.733395" lon="10.620544">
|
|
<ele>-7.457219</ele>
|
|
<time>2026-07-17T13:02:02.000Z</time>
|
|
</trkpt>
|
|
<trkpt lat="57.733379" lon="10.620492">
|
|
<ele>-7.452836</ele>
|
|
<time>2026-07-17T13:02:03.000Z</time>
|
|
</trkpt>
|
|
<trkpt lat="57.733364" lon="10.620442">
|
|
<ele>-7.448646</ele>
|
|
<time>2026-07-17T13:02:04.000Z</time>
|
|
</trkpt>
|
|
<trkpt lat="57.733349" lon="10.620403">
|
|
<ele>-7.445136</ele>
|
|
<time>2026-07-17T13:02:05.000Z</time>
|
|
</trkpt>
|
|
<trkpt lat="57.733341" lon="10.620377">
|
|
<ele>-7.442944</ele>
|
|
<time>2026-07-17T13:02:06.000Z</time>
|
|
</trkpt>
|
|
<trkpt lat="57.733334" lon="10.620358">
|
|
<ele>-7.441257</ele>
|
|
<time>2026-07-17T13:02:07.000Z</time>
|
|
</trkpt>
|
|
<trkpt lat="57.733326" lon="10.620340">
|
|
<ele>-7.439547</ele>
|
|
<time>2026-07-17T13:02:08.000Z</time>
|
|
</trkpt>
|
|
<trkpt lat="57.733322" lon="10.620322">
|
|
<ele>-7.438123</ele>
|
|
<time>2026-07-17T13:02:09.000Z</time>
|
|
</trkpt>
|
|
<trkpt lat="57.733314" lon="10.620302">
|
|
<ele>-7.436297</ele>
|
|
<time>2026-07-17T13:02:10.000Z</time>
|
|
</trkpt>
|
|
<trkpt lat="57.733307" lon="10.620281">
|
|
<ele>-7.434489</ele>
|
|
<time>2026-07-17T13:02:11.000Z</time>
|
|
</trkpt>
|
|
<trkpt lat="57.733303" lon="10.620257">
|
|
<ele>-7.432653</ele>
|
|
<time>2026-07-17T13:02:12.000Z</time>
|
|
</trkpt>
|
|
<trkpt lat="57.733292" lon="10.620232">
|
|
<ele>-7.430286</ele>
|
|
<time>2026-07-17T13:02:13.000Z</time>
|
|
</trkpt>
|
|
<trkpt lat="57.733276" lon="10.620195">
|
|
<ele>-7.426808</ele>
|
|
<time>2026-07-17T13:02:14.000Z</time>
|
|
</trkpt>
|
|
<trkpt lat="57.733257" lon="10.620144">
|
|
<ele>-7.422266</ele>
|
|
<time>2026-07-17T13:02:15.000Z</time>
|
|
</trkpt>
|
|
<trkpt lat="57.733234" lon="10.620077">
|
|
<ele>-7.416448</ele>
|
|
<time>2026-07-17T13:02:16.000Z</time>
|
|
</trkpt>
|
|
<trkpt lat="57.733212" lon="10.620002">
|
|
<ele>-7.410197</ele>
|
|
<time>2026-07-17T13:02:17.000Z</time>
|
|
</trkpt>
|
|
<trkpt lat="57.733189" lon="10.619922">
|
|
<ele>-7.403560</ele>
|
|
<time>2026-07-17T13:02:18.000Z</time>
|
|
</trkpt>
|
|
<trkpt lat="57.733166" lon="10.619836">
|
|
<ele>-7.398670</ele>
|
|
<time>2026-07-17T13:02:19.000Z</time>
|
|
</trkpt>
|
|
<trkpt lat="57.733147" lon="10.619746">
|
|
<ele>-7.398350</ele>
|
|
<time>2026-07-17T13:02:20.000Z</time>
|
|
</trkpt>
|
|
<trkpt lat="57.733120" lon="10.619653">
|
|
<ele>-7.397999</ele>
|
|
<time>2026-07-17T13:02:21.000Z</time>
|
|
</trkpt>
|
|
<trkpt lat="57.733093" lon="10.619557">
|
|
<ele>-7.397640</ele>
|
|
<time>2026-07-17T13:02:22.000Z</time>
|
|
</trkpt>
|
|
<trkpt lat="57.733067" lon="10.619463">
|
|
<ele>-7.397290</ele>
|
|
<time>2026-07-17T13:02:23.000Z</time>
|
|
</trkpt>
|
|
<trkpt lat="57.733040" lon="10.619368">
|
|
<ele>-7.396934</ele>
|
|
<time>2026-07-17T13:02:24.000Z</time>
|
|
</trkpt>
|
|
<trkpt lat="57.733013" lon="10.619271">
|
|
<ele>-7.396572</ele>
|
|
<time>2026-07-17T13:02:25.000Z</time>
|
|
</trkpt>
|
|
<trkpt lat="57.732986" lon="10.619177">
|
|
<ele>-7.396219</ele>
|
|
<time>2026-07-17T13:02:26.000Z</time>
|
|
</trkpt>
|
|
<trkpt lat="57.732960" lon="10.619081">
|
|
<ele>-7.395862</ele>
|
|
<time>2026-07-17T13:02:27.000Z</time>
|
|
</trkpt>
|
|
<trkpt lat="57.732933" lon="10.618987">
|
|
<ele>-7.395509</ele>
|
|
<time>2026-07-17T13:02:28.000Z</time>
|
|
</trkpt>
|
|
<trkpt lat="57.732906" lon="10.618895">
|
|
<ele>-7.395162</ele>
|
|
<time>2026-07-17T13:02:29.000Z</time>
|
|
</trkpt>
|
|
<trkpt lat="57.732880" lon="10.618803">
|
|
<ele>-7.394817</ele>
|
|
<time>2026-07-17T13:02:30.000Z</time>
|
|
</trkpt>
|
|
<trkpt lat="57.732853" lon="10.618716">
|
|
<ele>-7.394484</ele>
|
|
<time>2026-07-17T13:02:31.000Z</time>
|
|
</trkpt>
|
|
<trkpt lat="57.732822" lon="10.618628">
|
|
<ele>-7.394136</ele>
|
|
<time>2026-07-17T13:02:32.000Z</time>
|
|
</trkpt>
|
|
<trkpt lat="57.732792" lon="10.618535">
|
|
<ele>-7.393776</ele>
|
|
<time>2026-07-17T13:02:33.000Z</time>
|
|
</trkpt>
|
|
<trkpt lat="57.732765" lon="10.618444">
|
|
<ele>-7.393432</ele>
|
|
<time>2026-07-17T13:02:34.000Z</time>
|
|
</trkpt>
|
|
<trkpt lat="57.732738" lon="10.618352">
|
|
<ele>-7.393084</ele>
|
|
<time>2026-07-17T13:02:35.000Z</time>
|
|
</trkpt>
|
|
<trkpt lat="57.732708" lon="10.618257">
|
|
<ele>-7.392719</ele>
|
|
<time>2026-07-17T13:02:36.000Z</time>
|
|
</trkpt>
|
|
<trkpt lat="57.732681" lon="10.618162">
|
|
<ele>-7.392363</ele>
|
|
<time>2026-07-17T13:02:37.000Z</time>
|
|
</trkpt>
|
|
<trkpt lat="57.732655" lon="10.618070">
|
|
<ele>-7.392018</ele>
|
|
<time>2026-07-17T13:02:38.000Z</time>
|
|
</trkpt>
|
|
<trkpt lat="57.732628" lon="10.617976">
|
|
<ele>-7.391665</ele>
|
|
<time>2026-07-17T13:02:39.000Z</time>
|
|
</trkpt>
|
|
<trkpt lat="57.732601" lon="10.617880">
|
|
<ele>-7.391306</ele>
|
|
<time>2026-07-17T13:02:40.000Z</time>
|
|
</trkpt>
|
|
<trkpt lat="57.732574" lon="10.617784">
|
|
<ele>-7.390947</ele>
|
|
<time>2026-07-17T13:02:41.000Z</time>
|
|
</trkpt>
|
|
<trkpt lat="57.732548" lon="10.617690">
|
|
<ele>-7.390597</ele>
|
|
<time>2026-07-17T13:02:42.000Z</time>
|
|
</trkpt>
|
|
<trkpt lat="57.732517" lon="10.617596">
|
|
<ele>-7.390231</ele>
|
|
<time>2026-07-17T13:02:43.000Z</time>
|
|
</trkpt>
|
|
<trkpt lat="57.732491" lon="10.617503">
|
|
<ele>-7.389884</ele>
|
|
<time>2026-07-17T13:02:44.000Z</time>
|
|
</trkpt>
|
|
<trkpt lat="57.732460" lon="10.617410">
|
|
<ele>-7.389521</ele>
|
|
<time>2026-07-17T13:02:45.000Z</time>
|
|
</trkpt>
|
|
<trkpt lat="57.732433" lon="10.617314">
|
|
<ele>-7.389162</ele>
|
|
<time>2026-07-17T13:02:46.000Z</time>
|
|
</trkpt>
|
|
<trkpt lat="57.732407" lon="10.617219">
|
|
<ele>-7.388809</ele>
|
|
<time>2026-07-17T13:02:47.000Z</time>
|
|
</trkpt>
|
|
<trkpt lat="57.732380" lon="10.617125">
|
|
<ele>-7.388456</ele>
|
|
<time>2026-07-17T13:02:48.000Z</time>
|
|
</trkpt>
|
|
<trkpt lat="57.732353" lon="10.617033">
|
|
<ele>-7.388108</ele>
|
|
<time>2026-07-17T13:02:49.000Z</time>
|
|
</trkpt>
|
|
<trkpt lat="57.732323" lon="10.616941">
|
|
<ele>-7.387751</ele>
|
|
<time>2026-07-17T13:02:50.000Z</time>
|
|
</trkpt>
|
|
<trkpt lat="57.732296" lon="10.616846">
|
|
<ele>-7.385920</ele>
|
|
<time>2026-07-17T13:02:51.000Z</time>
|
|
</trkpt>
|
|
<trkpt lat="57.732265" lon="10.616751">
|
|
<ele>-7.383166</ele>
|
|
<time>2026-07-17T13:02:52.000Z</time>
|
|
</trkpt>
|
|
<trkpt lat="57.732239" lon="10.616653">
|
|
<ele>-7.380459</ele>
|
|
<time>2026-07-17T13:02:53.000Z</time>
|
|
</trkpt>
|
|
<trkpt lat="57.732212" lon="10.616557">
|
|
<ele>-7.377774</ele>
|
|
<time>2026-07-17T13:02:54.000Z</time>
|
|
</trkpt>
|
|
<trkpt lat="57.732185" lon="10.616463">
|
|
<ele>-7.375134</ele>
|
|
<time>2026-07-17T13:02:55.000Z</time>
|
|
</trkpt>
|
|
<trkpt lat="57.732155" lon="10.616368">
|
|
<ele>-7.372403</ele>
|
|
<time>2026-07-17T13:02:56.000Z</time>
|
|
</trkpt>
|
|
<trkpt lat="57.732128" lon="10.616274">
|
|
<ele>-7.369763</ele>
|
|
<time>2026-07-17T13:02:57.000Z</time>
|
|
</trkpt>
|
|
<trkpt lat="57.732101" lon="10.616179">
|
|
<ele>-7.367100</ele>
|
|
<time>2026-07-17T13:02:58.000Z</time>
|
|
</trkpt>
|
|
<trkpt lat="57.732075" lon="10.616084">
|
|
<ele>-7.364459</ele>
|
|
<time>2026-07-17T13:02:59.000Z</time>
|
|
</trkpt>
|
|
<trkpt lat="57.732044" lon="10.615994">
|
|
<ele>-7.361810</ele>
|
|
<time>2026-07-17T13:03:00.000Z</time>
|
|
</trkpt>
|
|
<trkpt lat="57.732014" lon="10.615907">
|
|
<ele>-7.359248</ele>
|
|
<time>2026-07-17T13:03:01.000Z</time>
|
|
</trkpt>
|
|
<trkpt lat="57.731983" lon="10.615815">
|
|
<ele>-7.356556</ele>
|
|
<time>2026-07-17T13:03:02.000Z</time>
|
|
</trkpt>
|
|
<trkpt lat="57.731953" lon="10.615720">
|
|
<ele>-7.353826</ele>
|
|
<time>2026-07-17T13:03:03.000Z</time>
|
|
</trkpt>
|
|
<trkpt lat="57.731922" lon="10.615623">
|
|
<ele>-7.351029</ele>
|
|
<time>2026-07-17T13:03:04.000Z</time>
|
|
</trkpt>
|
|
<trkpt lat="57.731892" lon="10.615528">
|
|
<ele>-7.348299</ele>
|
|
<time>2026-07-17T13:03:05.000Z</time>
|
|
</trkpt>
|
|
<trkpt lat="57.731861" lon="10.615431">
|
|
<ele>-7.345502</ele>
|
|
<time>2026-07-17T13:03:06.000Z</time>
|
|
</trkpt>
|
|
<trkpt lat="57.731834" lon="10.615335">
|
|
<ele>-7.342818</ele>
|
|
<time>2026-07-17T13:03:07.000Z</time>
|
|
</trkpt>
|
|
<trkpt lat="57.731808" lon="10.615242">
|
|
<ele>-7.340221</ele>
|
|
<time>2026-07-17T13:03:08.000Z</time>
|
|
</trkpt>
|
|
<trkpt lat="57.731781" lon="10.615147">
|
|
<ele>-7.337558</ele>
|
|
<time>2026-07-17T13:03:09.000Z</time>
|
|
</trkpt>
|
|
<trkpt lat="57.731754" lon="10.615053">
|
|
<ele>-7.334918</ele>
|
|
<time>2026-07-17T13:03:10.000Z</time>
|
|
</trkpt>
|
|
<trkpt lat="57.731724" lon="10.614963">
|
|
<ele>-7.332293</ele>
|
|
<time>2026-07-17T13:03:11.000Z</time>
|
|
</trkpt>
|
|
<trkpt lat="57.731693" lon="10.614870">
|
|
<ele>-7.329581</ele>
|
|
<time>2026-07-17T13:03:12.000Z</time>
|
|
</trkpt>
|
|
<trkpt lat="57.731663" lon="10.614774">
|
|
<ele>-7.326829</ele>
|
|
<time>2026-07-17T13:03:13.000Z</time>
|
|
</trkpt>
|
|
<trkpt lat="57.731636" lon="10.614680">
|
|
<ele>-7.324188</ele>
|
|
<time>2026-07-17T13:03:14.000Z</time>
|
|
</trkpt>
|
|
<trkpt lat="57.731613" lon="10.614587">
|
|
<ele>-7.321653</ele>
|
|
<time>2026-07-17T13:03:15.000Z</time>
|
|
</trkpt>
|
|
<trkpt lat="57.731586" lon="10.614491">
|
|
<ele>-7.318969</ele>
|
|
<time>2026-07-17T13:03:16.000Z</time>
|
|
</trkpt>
|
|
<trkpt lat="57.731560" lon="10.614397">
|
|
<ele>-7.316350</ele>
|
|
<time>2026-07-17T13:03:17.000Z</time>
|
|
</trkpt>
|
|
<trkpt lat="57.731533" lon="10.614304">
|
|
<ele>-7.313731</ele>
|
|
<time>2026-07-17T13:03:18.000Z</time>
|
|
</trkpt>
|
|
<trkpt lat="57.731506" lon="10.614209">
|
|
<ele>-7.311068</ele>
|
|
<time>2026-07-17T13:03:19.000Z</time>
|
|
</trkpt>
|
|
<trkpt lat="57.731476" lon="10.614116">
|
|
<ele>-7.308380</ele>
|
|
<time>2026-07-17T13:03:20.000Z</time>
|
|
</trkpt>
|
|
<trkpt lat="57.731445" lon="10.614022">
|
|
<ele>-7.305647</ele>
|
|
<time>2026-07-17T13:03:21.000Z</time>
|
|
</trkpt>
|
|
<trkpt lat="57.731415" lon="10.613930">
|
|
<ele>-7.303125</ele>
|
|
<time>2026-07-17T13:03:22.000Z</time>
|
|
</trkpt>
|
|
<trkpt lat="57.731384" lon="10.613840">
|
|
<ele>-7.300772</ele>
|
|
<time>2026-07-17T13:03:23.000Z</time>
|
|
</trkpt>
|
|
<trkpt lat="57.731354" lon="10.613750">
|
|
<ele>-7.298440</ele>
|
|
<time>2026-07-17T13:03:24.000Z</time>
|
|
</trkpt>
|
|
<trkpt lat="57.731323" lon="10.613658">
|
|
<ele>-7.296049</ele>
|
|
<time>2026-07-17T13:03:25.000Z</time>
|
|
</trkpt>
|
|
<trkpt lat="57.731293" lon="10.613565">
|
|
<ele>-7.293662</ele>
|
|
<time>2026-07-17T13:03:26.000Z</time>
|
|
</trkpt>
|
|
<trkpt lat="57.731262" lon="10.613473">
|
|
<ele>-7.291271</ele>
|
|
<time>2026-07-17T13:03:27.000Z</time>
|
|
</trkpt>
|
|
<trkpt lat="57.731232" lon="10.613380">
|
|
<ele>-7.288883</ele>
|
|
<time>2026-07-17T13:03:28.000Z</time>
|
|
</trkpt>
|
|
<trkpt lat="57.731201" lon="10.613291">
|
|
<ele>-7.286548</ele>
|
|
<time>2026-07-17T13:03:29.000Z</time>
|
|
</trkpt>
|
|
<trkpt lat="57.731171" lon="10.613201">
|
|
<ele>-7.284216</ele>
|
|
<time>2026-07-17T13:03:30.000Z</time>
|
|
</trkpt>
|
|
<trkpt lat="57.731140" lon="10.613109">
|
|
<ele>-7.281826</ele>
|
|
<time>2026-07-17T13:03:31.000Z</time>
|
|
</trkpt>
|
|
<trkpt lat="57.731110" lon="10.613014">
|
|
<ele>-7.279400</ele>
|
|
<time>2026-07-17T13:03:32.000Z</time>
|
|
</trkpt>
|
|
<trkpt lat="57.731083" lon="10.612919">
|
|
<ele>-7.277035</ele>
|
|
<time>2026-07-17T13:03:33.000Z</time>
|
|
</trkpt>
|
|
<trkpt lat="57.731056" lon="10.612821">
|
|
<ele>-7.274612</ele>
|
|
<time>2026-07-17T13:03:34.000Z</time>
|
|
</trkpt>
|
|
<trkpt lat="57.731026" lon="10.612721">
|
|
<ele>-7.272091</ele>
|
|
<time>2026-07-17T13:03:35.000Z</time>
|
|
</trkpt>
|
|
<trkpt lat="57.730995" lon="10.612618">
|
|
<ele>-7.269493</ele>
|
|
<time>2026-07-17T13:03:36.000Z</time>
|
|
</trkpt>
|
|
<trkpt lat="57.730968" lon="10.612511">
|
|
<ele>-7.266892</ele>
|
|
<time>2026-07-17T13:03:37.000Z</time>
|
|
</trkpt>
|
|
<trkpt lat="57.730938" lon="10.612399">
|
|
<ele>-7.264138</ele>
|
|
<time>2026-07-17T13:03:38.000Z</time>
|
|
</trkpt>
|
|
<trkpt lat="57.730911" lon="10.612288">
|
|
<ele>-7.261458</ele>
|
|
<time>2026-07-17T13:03:39.000Z</time>
|
|
</trkpt>
|
|
<trkpt lat="57.730881" lon="10.612181">
|
|
<ele>-7.258802</ele>
|
|
<time>2026-07-17T13:03:40.000Z</time>
|
|
</trkpt>
|
|
<trkpt lat="57.730854" lon="10.612079">
|
|
<ele>-7.256300</ele>
|
|
<time>2026-07-17T13:03:41.000Z</time>
|
|
</trkpt>
|
|
<trkpt lat="57.730827" lon="10.611978">
|
|
<ele>-7.253818</ele>
|
|
<time>2026-07-17T13:03:42.000Z</time>
|
|
</trkpt>
|
|
<trkpt lat="57.730793" lon="10.611876">
|
|
<ele>-7.251175</ele>
|
|
<time>2026-07-17T13:03:43.000Z</time>
|
|
</trkpt>
|
|
<trkpt lat="57.730763" lon="10.611775">
|
|
<ele>-7.248635</ele>
|
|
<time>2026-07-17T13:03:44.000Z</time>
|
|
</trkpt>
|
|
<trkpt lat="57.730732" lon="10.611674">
|
|
<ele>-7.246075</ele>
|
|
<time>2026-07-17T13:03:45.000Z</time>
|
|
</trkpt>
|
|
<trkpt lat="57.730701" lon="10.611571">
|
|
<ele>-7.243477</ele>
|
|
<time>2026-07-17T13:03:46.000Z</time>
|
|
</trkpt>
|
|
<trkpt lat="57.730675" lon="10.611472">
|
|
<ele>-7.241052</ele>
|
|
<time>2026-07-17T13:03:47.000Z</time>
|
|
</trkpt>
|
|
<trkpt lat="57.730648" lon="10.611368">
|
|
<ele>-7.238511</ele>
|
|
<time>2026-07-17T13:03:48.000Z</time>
|
|
</trkpt>
|
|
<trkpt lat="57.730614" lon="10.611261">
|
|
<ele>-7.235775</ele>
|
|
<time>2026-07-17T13:03:49.000Z</time>
|
|
</trkpt>
|
|
<trkpt lat="57.730583" lon="10.611159">
|
|
<ele>-7.233195</ele>
|
|
<time>2026-07-17T13:03:50.000Z</time>
|
|
</trkpt>
|
|
<trkpt lat="57.730556" lon="10.611060">
|
|
<ele>-7.230752</ele>
|
|
<time>2026-07-17T13:03:51.000Z</time>
|
|
</trkpt>
|
|
<trkpt lat="57.730526" lon="10.610961">
|
|
<ele>-7.218164</ele>
|
|
<time>2026-07-17T13:03:52.000Z</time>
|
|
</trkpt>
|
|
<trkpt lat="57.730495" lon="10.610862">
|
|
<ele>-7.202898</ele>
|
|
<time>2026-07-17T13:03:53.000Z</time>
|
|
</trkpt>
|
|
<trkpt lat="57.730465" lon="10.610764">
|
|
<ele>-7.187872</ele>
|
|
<time>2026-07-17T13:03:54.000Z</time>
|
|
</trkpt>
|
|
<trkpt lat="57.730434" lon="10.610664">
|
|
<ele>-7.172491</ele>
|
|
<time>2026-07-17T13:03:55.000Z</time>
|
|
</trkpt>
|
|
<trkpt lat="57.730408" lon="10.610562">
|
|
<ele>-7.157456</ele>
|
|
<time>2026-07-17T13:03:56.000Z</time>
|
|
</trkpt>
|
|
<trkpt lat="57.730381" lon="10.610460">
|
|
<ele>-7.142313</ele>
|
|
<time>2026-07-17T13:03:57.000Z</time>
|
|
</trkpt>
|
|
<trkpt lat="57.730350" lon="10.610357">
|
|
<ele>-7.126585</ele>
|
|
<time>2026-07-17T13:03:58.000Z</time>
|
|
</trkpt>
|
|
<trkpt lat="57.730324" lon="10.610254">
|
|
<ele>-7.111430</ele>
|
|
<time>2026-07-17T13:03:59.000Z</time>
|
|
</trkpt>
|
|
<trkpt lat="57.730293" lon="10.610151">
|
|
<ele>-7.095703</ele>
|
|
<time>2026-07-17T13:04:00.000Z</time>
|
|
</trkpt>
|
|
<trkpt lat="57.730267" lon="10.610049">
|
|
<ele>-7.080668</ele>
|
|
<time>2026-07-17T13:04:01.000Z</time>
|
|
</trkpt>
|
|
<trkpt lat="57.730240" lon="10.609953">
|
|
<ele>-7.066235</ele>
|
|
<time>2026-07-17T13:04:02.000Z</time>
|
|
</trkpt>
|
|
<trkpt lat="57.730209" lon="10.609851">
|
|
<ele>-7.050624</ele>
|
|
<time>2026-07-17T13:04:03.000Z</time>
|
|
</trkpt>
|
|
<trkpt lat="57.730175" lon="10.609744">
|
|
<ele>-7.034061</ele>
|
|
<time>2026-07-17T13:04:04.000Z</time>
|
|
</trkpt>
|
|
<trkpt lat="57.730141" lon="10.609644">
|
|
<ele>-7.018291</ele>
|
|
<time>2026-07-17T13:04:05.000Z</time>
|
|
</trkpt>
|
|
<trkpt lat="57.730110" lon="10.609548">
|
|
<ele>-7.003368</ele>
|
|
<time>2026-07-17T13:04:06.000Z</time>
|
|
</trkpt>
|
|
<trkpt lat="57.730076" lon="10.609453">
|
|
<ele>-6.988155</ele>
|
|
<time>2026-07-17T13:04:07.000Z</time>
|
|
</trkpt>
|
|
<trkpt lat="57.730042" lon="10.609360">
|
|
<ele>-6.973162</ele>
|
|
<time>2026-07-17T13:04:08.000Z</time>
|
|
</trkpt>
|
|
<trkpt lat="57.730003" lon="10.609275">
|
|
<ele>-6.958254</ele>
|
|
<time>2026-07-17T13:04:09.000Z</time>
|
|
</trkpt>
|
|
<trkpt lat="57.729965" lon="10.609203">
|
|
<ele>-6.944788</ele>
|
|
<time>2026-07-17T13:04:10.000Z</time>
|
|
</trkpt>
|
|
<trkpt lat="57.729919" lon="10.609149">
|
|
<ele>-6.931263</ele>
|
|
<time>2026-07-17T13:04:11.000Z</time>
|
|
</trkpt>
|
|
<trkpt lat="57.729877" lon="10.609101">
|
|
<ele>-6.919005</ele>
|
|
<time>2026-07-17T13:04:12.000Z</time>
|
|
</trkpt>
|
|
<trkpt lat="57.729843" lon="10.609047">
|
|
<ele>-6.907899</ele>
|
|
<time>2026-07-17T13:04:13.000Z</time>
|
|
</trkpt>
|
|
<trkpt lat="57.729816" lon="10.608978">
|
|
<ele>-6.896519</ele>
|
|
<time>2026-07-17T13:04:14.000Z</time>
|
|
</trkpt>
|
|
<trkpt lat="57.729797" lon="10.608897">
|
|
<ele>-6.884751</ele>
|
|
<time>2026-07-17T13:04:15.000Z</time>
|
|
</trkpt>
|
|
<trkpt lat="57.729794" lon="10.608811">
|
|
<ele>-6.873287</ele>
|
|
<time>2026-07-17T13:04:16.000Z</time>
|
|
</trkpt>
|
|
<trkpt lat="57.729797" lon="10.608723">
|
|
<ele>-6.861558</ele>
|
|
<time>2026-07-17T13:04:17.000Z</time>
|
|
</trkpt>
|
|
<trkpt lat="57.729797" lon="10.608637">
|
|
<ele>-6.850118</ele>
|
|
<time>2026-07-17T13:04:18.000Z</time>
|
|
</trkpt>
|
|
<trkpt lat="57.729794" lon="10.608551">
|
|
<ele>-6.838654</ele>
|
|
<time>2026-07-17T13:04:19.000Z</time>
|
|
</trkpt>
|
|
<trkpt lat="57.729782" lon="10.608468">
|
|
<ele>-6.827216</ele>
|
|
<time>2026-07-17T13:04:20.000Z</time>
|
|
</trkpt>
|
|
<trkpt lat="57.729771" lon="10.608390">
|
|
<ele>-6.816485</ele>
|
|
<time>2026-07-17T13:04:21.000Z</time>
|
|
</trkpt>
|
|
<trkpt lat="57.729752" lon="10.608315">
|
|
<ele>-6.805443</ele>
|
|
<time>2026-07-17T13:04:22.000Z</time>
|
|
</trkpt>
|
|
<trkpt lat="57.729729" lon="10.608239">
|
|
<ele>-6.793822</ele>
|
|
<time>2026-07-17T13:04:23.000Z</time>
|
|
</trkpt>
|
|
<trkpt lat="57.729710" lon="10.608163">
|
|
<ele>-6.782660</ele>
|
|
<time>2026-07-17T13:04:24.000Z</time>
|
|
</trkpt>
|
|
<trkpt lat="57.729687" lon="10.608088">
|
|
<ele>-6.782938</ele>
|
|
<time>2026-07-17T13:04:25.000Z</time>
|
|
</trkpt>
|
|
<trkpt lat="57.729668" lon="10.608018">
|
|
<ele>-6.783698</ele>
|
|
<time>2026-07-17T13:04:26.000Z</time>
|
|
</trkpt>
|
|
<trkpt lat="57.729645" lon="10.607953">
|
|
<ele>-6.784452</ele>
|
|
<time>2026-07-17T13:04:27.000Z</time>
|
|
</trkpt>
|
|
<trkpt lat="57.729630" lon="10.607891">
|
|
<ele>-6.785111</ele>
|
|
<time>2026-07-17T13:04:28.000Z</time>
|
|
</trkpt>
|
|
<trkpt lat="57.729610" lon="10.607830">
|
|
<ele>-6.785804</ele>
|
|
<time>2026-07-17T13:04:29.000Z</time>
|
|
</trkpt>
|
|
<trkpt lat="57.729588" lon="10.607771">
|
|
<ele>-6.786500</ele>
|
|
<time>2026-07-17T13:04:30.000Z</time>
|
|
</trkpt>
|
|
<trkpt lat="57.729569" lon="10.607715">
|
|
<ele>-6.787142</ele>
|
|
<time>2026-07-17T13:04:31.000Z</time>
|
|
</trkpt>
|
|
<trkpt lat="57.729549" lon="10.607661">
|
|
<ele>-6.787778</ele>
|
|
<time>2026-07-17T13:04:32.000Z</time>
|
|
</trkpt>
|
|
<trkpt lat="57.729530" lon="10.607611">
|
|
<ele>-6.788372</ele>
|
|
<time>2026-07-17T13:04:33.000Z</time>
|
|
</trkpt>
|
|
<trkpt lat="57.729507" lon="10.607565">
|
|
<ele>-6.788982</ele>
|
|
<time>2026-07-17T13:04:34.000Z</time>
|
|
</trkpt>
|
|
<trkpt lat="57.729485" lon="10.607520">
|
|
<ele>-6.789572</ele>
|
|
<time>2026-07-17T13:04:35.000Z</time>
|
|
</trkpt>
|
|
<trkpt lat="57.729462" lon="10.607477">
|
|
<ele>-6.790161</ele>
|
|
<time>2026-07-17T13:04:36.000Z</time>
|
|
</trkpt>
|
|
<trkpt lat="57.729446" lon="10.607443">
|
|
<ele>-6.790600</ele>
|
|
<time>2026-07-17T13:04:37.000Z</time>
|
|
</trkpt>
|
|
<trkpt lat="57.729431" lon="10.607415">
|
|
<ele>-6.790983</ele>
|
|
<time>2026-07-17T13:04:38.000Z</time>
|
|
</trkpt>
|
|
<trkpt lat="57.729416" lon="10.607391">
|
|
<ele>-6.791341</ele>
|
|
<time>2026-07-17T13:04:39.000Z</time>
|
|
</trkpt>
|
|
<trkpt lat="57.729408" lon="10.607368">
|
|
<ele>-6.791606</ele>
|
|
<time>2026-07-17T13:04:40.000Z</time>
|
|
</trkpt>
|
|
<trkpt lat="57.729401" lon="10.607345">
|
|
<ele>-6.791863</ele>
|
|
<time>2026-07-17T13:04:41.000Z</time>
|
|
</trkpt>
|
|
<trkpt lat="57.729389" lon="10.607324">
|
|
<ele>-6.792160</ele>
|
|
<time>2026-07-17T13:04:42.000Z</time>
|
|
</trkpt>
|
|
<trkpt lat="57.729378" lon="10.607303">
|
|
<ele>-6.792445</ele>
|
|
<time>2026-07-17T13:04:43.000Z</time>
|
|
</trkpt>
|
|
<trkpt lat="57.729366" lon="10.607281">
|
|
<ele>-6.792749</ele>
|
|
<time>2026-07-17T13:04:44.000Z</time>
|
|
</trkpt>
|
|
<trkpt lat="57.729359" lon="10.607262">
|
|
<ele>-6.792973</ele>
|
|
<time>2026-07-17T13:04:45.000Z</time>
|
|
</trkpt>
|
|
<trkpt lat="57.729351" lon="10.607246">
|
|
<ele>-6.793185</ele>
|
|
<time>2026-07-17T13:04:46.000Z</time>
|
|
</trkpt>
|
|
<trkpt lat="57.729332" lon="10.607184">
|
|
<ele>-6.793876</ele>
|
|
<time>2026-07-17T13:04:57.000Z</time>
|
|
</trkpt>
|
|
<trkpt lat="57.729317" lon="10.607135">
|
|
<ele>-6.794423</ele>
|
|
<time>2026-07-17T13:04:58.000Z</time>
|
|
</trkpt>
|
|
<trkpt lat="57.729305" lon="10.607096">
|
|
<ele>-6.794859</ele>
|
|
<time>2026-07-17T13:04:59.000Z</time>
|
|
</trkpt>
|
|
<trkpt lat="57.729298" lon="10.607050">
|
|
<ele>-6.795321</ele>
|
|
<time>2026-07-17T13:05:00.000Z</time>
|
|
</trkpt>
|
|
<trkpt lat="57.729290" lon="10.607002">
|
|
<ele>-6.795808</ele>
|
|
<time>2026-07-17T13:05:01.000Z</time>
|
|
</trkpt>
|
|
<trkpt lat="57.729275" lon="10.606949">
|
|
<ele>-6.796388</ele>
|
|
<time>2026-07-17T13:05:02.000Z</time>
|
|
</trkpt>
|
|
<trkpt lat="57.729259" lon="10.606894">
|
|
<ele>-6.796994</ele>
|
|
<time>2026-07-17T13:05:03.000Z</time>
|
|
</trkpt>
|
|
<trkpt lat="57.729244" lon="10.606844">
|
|
<ele>-6.797549</ele>
|
|
<time>2026-07-17T13:05:04.000Z</time>
|
|
</trkpt>
|
|
<trkpt lat="57.729229" lon="10.606795">
|
|
<ele>-6.798096</ele>
|
|
<time>2026-07-17T13:05:05.000Z</time>
|
|
</trkpt>
|
|
<trkpt lat="57.729214" lon="10.606750">
|
|
<ele>-6.798609</ele>
|
|
<time>2026-07-17T13:05:06.000Z</time>
|
|
</trkpt>
|
|
<trkpt lat="57.729202" lon="10.606709">
|
|
<ele>-6.799062</ele>
|
|
<time>2026-07-17T13:05:07.000Z</time>
|
|
</trkpt>
|
|
<trkpt lat="57.729187" lon="10.606672">
|
|
<ele>-6.799511</ele>
|
|
<time>2026-07-17T13:05:08.000Z</time>
|
|
</trkpt>
|
|
<trkpt lat="57.729176" lon="10.606636">
|
|
<ele>-6.799913</ele>
|
|
<time>2026-07-17T13:05:09.000Z</time>
|
|
</trkpt>
|
|
<trkpt lat="57.729160" lon="10.606592">
|
|
<ele>-6.800428</ele>
|
|
<time>2026-07-17T13:05:10.000Z</time>
|
|
</trkpt>
|
|
<trkpt lat="57.729145" lon="10.606538">
|
|
<ele>-6.801017</ele>
|
|
<time>2026-07-17T13:05:11.000Z</time>
|
|
</trkpt>
|
|
<trkpt lat="57.729130" lon="10.606474">
|
|
<ele>-6.801693</ele>
|
|
<time>2026-07-17T13:05:12.000Z</time>
|
|
</trkpt>
|
|
<trkpt lat="57.729115" lon="10.606404">
|
|
<ele>-6.802423</ele>
|
|
<time>2026-07-17T13:05:13.000Z</time>
|
|
</trkpt>
|
|
<trkpt lat="57.729103" lon="10.606328">
|
|
<ele>-6.803190</ele>
|
|
<time>2026-07-17T13:05:14.000Z</time>
|
|
</trkpt>
|
|
<trkpt lat="57.729092" lon="10.606249">
|
|
<ele>-6.803980</ele>
|
|
<time>2026-07-17T13:05:15.000Z</time>
|
|
</trkpt>
|
|
<trkpt lat="57.729080" lon="10.606169">
|
|
<ele>-6.804784</ele>
|
|
<time>2026-07-17T13:05:16.000Z</time>
|
|
</trkpt>
|
|
<trkpt lat="57.729065" lon="10.606088">
|
|
<ele>-6.805613</ele>
|
|
<time>2026-07-17T13:05:17.000Z</time>
|
|
</trkpt>
|
|
<trkpt lat="57.729050" lon="10.606009">
|
|
<ele>-6.806425</ele>
|
|
<time>2026-07-17T13:05:18.000Z</time>
|
|
</trkpt>
|
|
<trkpt lat="57.729042" lon="10.605934">
|
|
<ele>-6.807165</ele>
|
|
<time>2026-07-17T13:05:19.000Z</time>
|
|
</trkpt>
|
|
<trkpt lat="57.729031" lon="10.605863">
|
|
<ele>-6.807880</ele>
|
|
<time>2026-07-17T13:05:20.000Z</time>
|
|
</trkpt>
|
|
<trkpt lat="57.729023" lon="10.605790">
|
|
<ele>-6.808601</ele>
|
|
<time>2026-07-17T13:05:21.000Z</time>
|
|
</trkpt>
|
|
<trkpt lat="57.729015" lon="10.605715">
|
|
<ele>-6.809341</ele>
|
|
<time>2026-07-17T13:05:22.000Z</time>
|
|
</trkpt>
|
|
<trkpt lat="57.729008" lon="10.605639">
|
|
<ele>-6.810087</ele>
|
|
<time>2026-07-17T13:05:23.000Z</time>
|
|
</trkpt>
|
|
<trkpt lat="57.729000" lon="10.605569">
|
|
<ele>-6.810780</ele>
|
|
<time>2026-07-17T13:05:24.000Z</time>
|
|
</trkpt>
|
|
<trkpt lat="57.728989" lon="10.605495">
|
|
<ele>-6.811523</ele>
|
|
<time>2026-07-17T13:05:25.000Z</time>
|
|
</trkpt>
|
|
<trkpt lat="57.728973" lon="10.605417">
|
|
<ele>-6.812332</ele>
|
|
<time>2026-07-17T13:05:26.000Z</time>
|
|
</trkpt>
|
|
<trkpt lat="57.728962" lon="10.605340">
|
|
<ele>-6.813103</ele>
|
|
<time>2026-07-17T13:05:27.000Z</time>
|
|
</trkpt>
|
|
<trkpt lat="57.728943" lon="10.605268">
|
|
<ele>-6.813880</ele>
|
|
<time>2026-07-17T13:05:28.000Z</time>
|
|
</trkpt>
|
|
<trkpt lat="57.728928" lon="10.605194">
|
|
<ele>-6.814646</ele>
|
|
<time>2026-07-17T13:05:29.000Z</time>
|
|
</trkpt>
|
|
<trkpt lat="57.728909" lon="10.605123">
|
|
<ele>-6.822159</ele>
|
|
<time>2026-07-17T13:05:30.000Z</time>
|
|
</trkpt>
|
|
<trkpt lat="57.728890" lon="10.605048">
|
|
<ele>-6.830941</ele>
|
|
<time>2026-07-17T13:05:31.000Z</time>
|
|
</trkpt>
|
|
<trkpt lat="57.728870" lon="10.604974">
|
|
<ele>-6.839714</ele>
|
|
<time>2026-07-17T13:05:32.000Z</time>
|
|
</trkpt>
|
|
<trkpt lat="57.728851" lon="10.604904">
|
|
<ele>-6.848021</ele>
|
|
<time>2026-07-17T13:05:33.000Z</time>
|
|
</trkpt>
|
|
<trkpt lat="57.728836" lon="10.604837">
|
|
<ele>-6.855706</ele>
|
|
<time>2026-07-17T13:05:34.000Z</time>
|
|
</trkpt>
|
|
<trkpt lat="57.728817" lon="10.604772">
|
|
<ele>-6.863545</ele>
|
|
<time>2026-07-17T13:05:35.000Z</time>
|
|
</trkpt>
|
|
<trkpt lat="57.728794" lon="10.604706">
|
|
<ele>-6.871882</ele>
|
|
<time>2026-07-17T13:05:36.000Z</time>
|
|
</trkpt>
|
|
<trkpt lat="57.728779" lon="10.604635">
|
|
<ele>-6.879959</ele>
|
|
<time>2026-07-17T13:05:37.000Z</time>
|
|
</trkpt>
|
|
<trkpt lat="57.728767" lon="10.604560">
|
|
<ele>-6.888242</ele>
|
|
<time>2026-07-17T13:05:38.000Z</time>
|
|
</trkpt>
|
|
<trkpt lat="57.728752" lon="10.604488">
|
|
<ele>-6.896417</ele>
|
|
<time>2026-07-17T13:05:39.000Z</time>
|
|
</trkpt>
|
|
<trkpt lat="57.728737" lon="10.604420">
|
|
<ele>-6.904200</ele>
|
|
<time>2026-07-17T13:05:40.000Z</time>
|
|
</trkpt>
|
|
<trkpt lat="57.728718" lon="10.604349">
|
|
<ele>-6.912601</ele>
|
|
<time>2026-07-17T13:05:41.000Z</time>
|
|
</trkpt>
|
|
<trkpt lat="57.728703" lon="10.604279">
|
|
<ele>-6.920580</ele>
|
|
<time>2026-07-17T13:05:42.000Z</time>
|
|
</trkpt>
|
|
<trkpt lat="57.728687" lon="10.604199">
|
|
<ele>-6.929617</ele>
|
|
<time>2026-07-17T13:05:43.000Z</time>
|
|
</trkpt>
|
|
<trkpt lat="57.728668" lon="10.604116">
|
|
<ele>-6.939170</ele>
|
|
<time>2026-07-17T13:05:44.000Z</time>
|
|
</trkpt>
|
|
<trkpt lat="57.728649" lon="10.604032">
|
|
<ele>-6.948820</ele>
|
|
<time>2026-07-17T13:05:45.000Z</time>
|
|
</trkpt>
|
|
<trkpt lat="57.728630" lon="10.603946">
|
|
<ele>-6.958666</ele>
|
|
<time>2026-07-17T13:05:46.000Z</time>
|
|
</trkpt>
|
|
<trkpt lat="57.728611" lon="10.603859">
|
|
<ele>-6.968609</ele>
|
|
<time>2026-07-17T13:05:47.000Z</time>
|
|
</trkpt>
|
|
<trkpt lat="57.728592" lon="10.603769">
|
|
<ele>-6.978847</ele>
|
|
<time>2026-07-17T13:05:48.000Z</time>
|
|
</trkpt>
|
|
<trkpt lat="57.728569" lon="10.603682">
|
|
<ele>-6.989116</ele>
|
|
<time>2026-07-17T13:05:49.000Z</time>
|
|
</trkpt>
|
|
<trkpt lat="57.728550" lon="10.603595">
|
|
<ele>-6.999059</ele>
|
|
<time>2026-07-17T13:05:50.000Z</time>
|
|
</trkpt>
|
|
<trkpt lat="57.728531" lon="10.603507">
|
|
<ele>-7.009101</ele>
|
|
<time>2026-07-17T13:05:51.000Z</time>
|
|
</trkpt>
|
|
<trkpt lat="57.728508" lon="10.603419">
|
|
<ele>-7.019465</ele>
|
|
<time>2026-07-17T13:05:52.000Z</time>
|
|
</trkpt>
|
|
<trkpt lat="57.728485" lon="10.603333">
|
|
<ele>-7.029640</ele>
|
|
<time>2026-07-17T13:05:53.000Z</time>
|
|
</trkpt>
|
|
<trkpt lat="57.728458" lon="10.603252">
|
|
<ele>-7.039741</ele>
|
|
<time>2026-07-17T13:05:54.000Z</time>
|
|
</trkpt>
|
|
<trkpt lat="57.728436" lon="10.603175">
|
|
<ele>-7.048979</ele>
|
|
<time>2026-07-17T13:05:55.000Z</time>
|
|
</trkpt>
|
|
<trkpt lat="57.728409" lon="10.603101">
|
|
<ele>-7.058460</ele>
|
|
<time>2026-07-17T13:05:56.000Z</time>
|
|
</trkpt>
|
|
<trkpt lat="57.728382" lon="10.603024">
|
|
<ele>-7.068205</ele>
|
|
<time>2026-07-17T13:05:57.000Z</time>
|
|
</trkpt>
|
|
<trkpt lat="57.728352" lon="10.602945">
|
|
<ele>-7.078460</ele>
|
|
<time>2026-07-17T13:05:58.000Z</time>
|
|
</trkpt>
|
|
<trkpt lat="57.728321" lon="10.602864">
|
|
<ele>-7.089003</ele>
|
|
<time>2026-07-17T13:05:59.000Z</time>
|
|
</trkpt>
|
|
<trkpt lat="57.728294" lon="10.602788">
|
|
<ele>-7.098659</ele>
|
|
<time>2026-07-17T13:06:00.000Z</time>
|
|
</trkpt>
|
|
<trkpt lat="57.728264" lon="10.602712">
|
|
<ele>-7.108657</ele>
|
|
<time>2026-07-17T13:06:01.000Z</time>
|
|
</trkpt>
|
|
<trkpt lat="57.728233" lon="10.602633">
|
|
<ele>-7.119029</ele>
|
|
<time>2026-07-17T13:06:02.000Z</time>
|
|
</trkpt>
|
|
<trkpt lat="57.728207" lon="10.602552">
|
|
<ele>-7.129026</ele>
|
|
<time>2026-07-17T13:06:03.000Z</time>
|
|
</trkpt>
|
|
<trkpt lat="57.728172" lon="10.602470">
|
|
<ele>-7.140132</ele>
|
|
<time>2026-07-17T13:06:04.000Z</time>
|
|
</trkpt>
|
|
<trkpt lat="57.728142" lon="10.602393">
|
|
<ele>-7.150215</ele>
|
|
<time>2026-07-17T13:06:05.000Z</time>
|
|
</trkpt>
|
|
<trkpt lat="57.728107" lon="10.602316">
|
|
<ele>-7.160912</ele>
|
|
<time>2026-07-17T13:06:06.000Z</time>
|
|
</trkpt>
|
|
<trkpt lat="57.728073" lon="10.602236">
|
|
<ele>-7.170977</ele>
|
|
<time>2026-07-17T13:06:07.000Z</time>
|
|
</trkpt>
|
|
<trkpt lat="57.728043" lon="10.602155">
|
|
<ele>-7.169198</ele>
|
|
<time>2026-07-17T13:06:08.000Z</time>
|
|
</trkpt>
|
|
<trkpt lat="57.728016" lon="10.602076">
|
|
<ele>-7.167506</ele>
|
|
<time>2026-07-17T13:06:09.000Z</time>
|
|
</trkpt>
|
|
<trkpt lat="57.727985" lon="10.601996">
|
|
<ele>-7.165723</ele>
|
|
<time>2026-07-17T13:06:10.000Z</time>
|
|
</trkpt>
|
|
<trkpt lat="57.727955" lon="10.601914">
|
|
<ele>-7.163929</ele>
|
|
<time>2026-07-17T13:06:11.000Z</time>
|
|
</trkpt>
|
|
<trkpt lat="57.727924" lon="10.601838">
|
|
<ele>-7.162203</ele>
|
|
<time>2026-07-17T13:06:12.000Z</time>
|
|
</trkpt>
|
|
<trkpt lat="57.727894" lon="10.601760">
|
|
<ele>-7.160469</ele>
|
|
<time>2026-07-17T13:06:13.000Z</time>
|
|
</trkpt>
|
|
<trkpt lat="57.727863" lon="10.601686">
|
|
<ele>-7.158772</ele>
|
|
<time>2026-07-17T13:06:14.000Z</time>
|
|
</trkpt>
|
|
<trkpt lat="57.727833" lon="10.601609">
|
|
<ele>-7.157052</ele>
|
|
<time>2026-07-17T13:06:15.000Z</time>
|
|
</trkpt>
|
|
<trkpt lat="57.727798" lon="10.601528">
|
|
<ele>-7.155172</ele>
|
|
<time>2026-07-17T13:06:16.000Z</time>
|
|
</trkpt>
|
|
<trkpt lat="57.727768" lon="10.601451">
|
|
<ele>-7.153452</ele>
|
|
<time>2026-07-17T13:06:17.000Z</time>
|
|
</trkpt>
|
|
<trkpt lat="57.727737" lon="10.601377">
|
|
<ele>-7.151755</ele>
|
|
<time>2026-07-17T13:06:18.000Z</time>
|
|
</trkpt>
|
|
<trkpt lat="57.727707" lon="10.601302">
|
|
<ele>-7.150064</ele>
|
|
<time>2026-07-17T13:06:19.000Z</time>
|
|
</trkpt>
|
|
<trkpt lat="57.727676" lon="10.601227">
|
|
<ele>-7.148353</ele>
|
|
<time>2026-07-17T13:06:20.000Z</time>
|
|
</trkpt>
|
|
<trkpt lat="57.727650" lon="10.601155">
|
|
<ele>-7.146785</ele>
|
|
<time>2026-07-17T13:06:21.000Z</time>
|
|
</trkpt>
|
|
<trkpt lat="57.727627" lon="10.601096">
|
|
<ele>-7.145467</ele>
|
|
<time>2026-07-17T13:06:22.000Z</time>
|
|
</trkpt>
|
|
<trkpt lat="57.727604" lon="10.601039">
|
|
<ele>-7.144178</ele>
|
|
<time>2026-07-17T13:06:23.000Z</time>
|
|
</trkpt>
|
|
<trkpt lat="57.727566" lon="10.600944">
|
|
<ele>-7.142036</ele>
|
|
<time>2026-07-17T13:06:24.000Z</time>
|
|
</trkpt>
|
|
<trkpt lat="57.727539" lon="10.600877">
|
|
<ele>-7.140521</ele>
|
|
<time>2026-07-17T13:06:25.000Z</time>
|
|
</trkpt>
|
|
<trkpt lat="57.727509" lon="10.600808">
|
|
<ele>-7.138916</ele>
|
|
<time>2026-07-17T13:06:26.000Z</time>
|
|
</trkpt>
|
|
<trkpt lat="57.727482" lon="10.600744">
|
|
<ele>-7.137444</ele>
|
|
<time>2026-07-17T13:06:27.000Z</time>
|
|
</trkpt>
|
|
<trkpt lat="57.727455" lon="10.600681">
|
|
<ele>-7.135987</ele>
|
|
<time>2026-07-17T13:06:28.000Z</time>
|
|
</trkpt>
|
|
<trkpt lat="57.727432" lon="10.600620">
|
|
<ele>-7.134639</ele>
|
|
<time>2026-07-17T13:06:29.000Z</time>
|
|
</trkpt>
|
|
<trkpt lat="57.727409" lon="10.600561">
|
|
<ele>-7.133321</ele>
|
|
<time>2026-07-17T13:06:30.000Z</time>
|
|
</trkpt>
|
|
<trkpt lat="57.727394" lon="10.600507">
|
|
<ele>-7.132223</ele>
|
|
<time>2026-07-17T13:06:31.000Z</time>
|
|
</trkpt>
|
|
<trkpt lat="57.727379" lon="10.600464">
|
|
<ele>-7.131296</ele>
|
|
<time>2026-07-17T13:06:32.000Z</time>
|
|
</trkpt>
|
|
<trkpt lat="57.727364" lon="10.600429">
|
|
<ele>-7.130486</ele>
|
|
<time>2026-07-17T13:06:33.000Z</time>
|
|
</trkpt>
|
|
<trkpt lat="57.727352" lon="10.600400">
|
|
<ele>-7.129824</ele>
|
|
<time>2026-07-17T13:06:34.000Z</time>
|
|
</trkpt>
|
|
<trkpt lat="57.727341" lon="10.600373">
|
|
<ele>-7.129212</ele>
|
|
<time>2026-07-17T13:08:22.000Z</time>
|
|
</trkpt>
|
|
<trkpt lat="57.727322" lon="10.600336">
|
|
<ele>-7.128285</ele>
|
|
<time>2026-07-17T13:08:25.000Z</time>
|
|
</trkpt>
|
|
<trkpt lat="57.727295" lon="10.600285">
|
|
<ele>-7.126990</ele>
|
|
<time>2026-07-17T13:08:26.000Z</time>
|
|
</trkpt>
|
|
<trkpt lat="57.727276" lon="10.600237">
|
|
<ele>-7.125911</ele>
|
|
<time>2026-07-17T13:08:27.000Z</time>
|
|
</trkpt>
|
|
<trkpt lat="57.727257" lon="10.600188">
|
|
<ele>-7.124819</ele>
|
|
<time>2026-07-17T13:08:28.000Z</time>
|
|
</trkpt>
|
|
<trkpt lat="57.727234" lon="10.600135">
|
|
<ele>-7.123587</ele>
|
|
<time>2026-07-17T13:08:29.000Z</time>
|
|
</trkpt>
|
|
<trkpt lat="57.727211" lon="10.600076">
|
|
<ele>-7.122268</ele>
|
|
<time>2026-07-17T13:08:30.000Z</time>
|
|
</trkpt>
|
|
<trkpt lat="57.727188" lon="10.600018">
|
|
<ele>-7.120965</ele>
|
|
<time>2026-07-17T13:08:31.000Z</time>
|
|
</trkpt>
|
|
<trkpt lat="57.727161" lon="10.599959">
|
|
<ele>-7.119563</ele>
|
|
<time>2026-07-17T13:08:32.000Z</time>
|
|
</trkpt>
|
|
<trkpt lat="57.727139" lon="10.599899">
|
|
<ele>-7.118250</ele>
|
|
<time>2026-07-17T13:08:33.000Z</time>
|
|
</trkpt>
|
|
<trkpt lat="57.727112" lon="10.599834">
|
|
<ele>-7.116764</ele>
|
|
<time>2026-07-17T13:08:34.000Z</time>
|
|
</trkpt>
|
|
<trkpt lat="57.727089" lon="10.599770">
|
|
<ele>-7.115372</ele>
|
|
<time>2026-07-17T13:08:35.000Z</time>
|
|
</trkpt>
|
|
<trkpt lat="57.727066" lon="10.599706">
|
|
<ele>-7.113980</ele>
|
|
<time>2026-07-17T13:08:36.000Z</time>
|
|
</trkpt>
|
|
<trkpt lat="57.727043" lon="10.599640">
|
|
<ele>-7.112558</ele>
|
|
<time>2026-07-17T13:08:37.000Z</time>
|
|
</trkpt>
|
|
<trkpt lat="57.727016" lon="10.599572">
|
|
<ele>-7.111029</ele>
|
|
<time>2026-07-17T13:08:38.000Z</time>
|
|
</trkpt>
|
|
<trkpt lat="57.726990" lon="10.599503">
|
|
<ele>-7.106750</ele>
|
|
<time>2026-07-17T13:08:39.000Z</time>
|
|
</trkpt>
|
|
<trkpt lat="57.726963" lon="10.599430">
|
|
<ele>-7.099646</ele>
|
|
<time>2026-07-17T13:08:40.000Z</time>
|
|
</trkpt>
|
|
<trkpt lat="57.726932" lon="10.599361">
|
|
<ele>-7.092432</ele>
|
|
<time>2026-07-17T13:08:41.000Z</time>
|
|
</trkpt>
|
|
<trkpt lat="57.726910" lon="10.599296">
|
|
<ele>-7.086275</ele>
|
|
<time>2026-07-17T13:08:42.000Z</time>
|
|
</trkpt>
|
|
<trkpt lat="57.726883" lon="10.599229">
|
|
<ele>-7.079560</ele>
|
|
<time>2026-07-17T13:08:43.000Z</time>
|
|
</trkpt>
|
|
<trkpt lat="57.726856" lon="10.599162">
|
|
<ele>-7.072845</ele>
|
|
<time>2026-07-17T13:08:44.000Z</time>
|
|
</trkpt>
|
|
<trkpt lat="57.726826" lon="10.599093">
|
|
<ele>-7.065726</ele>
|
|
<time>2026-07-17T13:08:45.000Z</time>
|
|
</trkpt>
|
|
<trkpt lat="57.726799" lon="10.599028">
|
|
<ele>-7.059138</ele>
|
|
<time>2026-07-17T13:08:46.000Z</time>
|
|
</trkpt>
|
|
<trkpt lat="57.726768" lon="10.598963">
|
|
<ele>-7.052166</ele>
|
|
<time>2026-07-17T13:08:47.000Z</time>
|
|
</trkpt>
|
|
<trkpt lat="57.726734" lon="10.598902">
|
|
<ele>-7.045111</ele>
|
|
<time>2026-07-17T13:08:48.000Z</time>
|
|
</trkpt>
|
|
<trkpt lat="57.726711" lon="10.598839">
|
|
<ele>-7.039006</ele>
|
|
<time>2026-07-17T13:08:49.000Z</time>
|
|
</trkpt>
|
|
<trkpt lat="57.726685" lon="10.598772">
|
|
<ele>-7.032380</ele>
|
|
<time>2026-07-17T13:08:50.000Z</time>
|
|
</trkpt>
|
|
<trkpt lat="57.726654" lon="10.598702">
|
|
<ele>-7.025105</ele>
|
|
<time>2026-07-17T13:08:51.000Z</time>
|
|
</trkpt>
|
|
<trkpt lat="57.726631" lon="10.598639">
|
|
<ele>-7.018999</ele>
|
|
<time>2026-07-17T13:08:52.000Z</time>
|
|
</trkpt>
|
|
<trkpt lat="57.726604" lon="10.598577">
|
|
<ele>-7.012599</ele>
|
|
<time>2026-07-17T13:08:53.000Z</time>
|
|
</trkpt>
|
|
<trkpt lat="57.726578" lon="10.598515">
|
|
<ele>-7.006292</ele>
|
|
<time>2026-07-17T13:08:54.000Z</time>
|
|
</trkpt>
|
|
<trkpt lat="57.726551" lon="10.598452">
|
|
<ele>-6.999829</ele>
|
|
<time>2026-07-17T13:08:55.000Z</time>
|
|
</trkpt>
|
|
<trkpt lat="57.726524" lon="10.598381">
|
|
<ele>-6.992856</ele>
|
|
<time>2026-07-17T13:08:56.000Z</time>
|
|
</trkpt>
|
|
<trkpt lat="57.726494" lon="10.598315">
|
|
<ele>-6.985922</ele>
|
|
<time>2026-07-17T13:08:57.000Z</time>
|
|
</trkpt>
|
|
<trkpt lat="57.726463" lon="10.598251">
|
|
<ele>-6.979009</ele>
|
|
<time>2026-07-17T13:08:58.000Z</time>
|
|
</trkpt>
|
|
<trkpt lat="57.726433" lon="10.598189">
|
|
<ele>-6.972315</ele>
|
|
<time>2026-07-17T13:08:59.000Z</time>
|
|
</trkpt>
|
|
<trkpt lat="57.726406" lon="10.598125">
|
|
<ele>-6.965790</ele>
|
|
<time>2026-07-17T13:09:00.000Z</time>
|
|
</trkpt>
|
|
<trkpt lat="57.726383" lon="10.598060">
|
|
<ele>-6.959552</ele>
|
|
<time>2026-07-17T13:09:01.000Z</time>
|
|
</trkpt>
|
|
<trkpt lat="57.726353" lon="10.597988">
|
|
<ele>-6.952246</ele>
|
|
<time>2026-07-17T13:09:02.000Z</time>
|
|
</trkpt>
|
|
<trkpt lat="57.726326" lon="10.597917">
|
|
<ele>-6.945272</ele>
|
|
<time>2026-07-17T13:09:03.000Z</time>
|
|
</trkpt>
|
|
<trkpt lat="57.726295" lon="10.597858">
|
|
<ele>-6.938650</ele>
|
|
<time>2026-07-17T13:09:04.000Z</time>
|
|
</trkpt>
|
|
<trkpt lat="57.726261" lon="10.597810">
|
|
<ele>-6.932271</ele>
|
|
<time>2026-07-17T13:09:05.000Z</time>
|
|
</trkpt>
|
|
<trkpt lat="57.726223" lon="10.597772">
|
|
<ele>-6.925817</ele>
|
|
<time>2026-07-17T13:09:06.000Z</time>
|
|
</trkpt>
|
|
<trkpt lat="57.726185" lon="10.597743">
|
|
<ele>-6.919669</ele>
|
|
<time>2026-07-17T13:09:07.000Z</time>
|
|
</trkpt>
|
|
<trkpt lat="57.726147" lon="10.597726">
|
|
<ele>-6.913815</ele>
|
|
<time>2026-07-17T13:09:08.000Z</time>
|
|
</trkpt>
|
|
<trkpt lat="57.726105" lon="10.597708">
|
|
<ele>-6.907360</ele>
|
|
<time>2026-07-17T13:09:09.000Z</time>
|
|
</trkpt>
|
|
<trkpt lat="57.726063" lon="10.597685">
|
|
<ele>-6.900804</ele>
|
|
<time>2026-07-17T13:09:10.000Z</time>
|
|
</trkpt>
|
|
<trkpt lat="57.726025" lon="10.597666">
|
|
<ele>-6.894911</ele>
|
|
<time>2026-07-17T13:09:11.000Z</time>
|
|
</trkpt>
|
|
<trkpt lat="57.725990" lon="10.597652">
|
|
<ele>-6.889549</ele>
|
|
<time>2026-07-17T13:09:12.000Z</time>
|
|
</trkpt>
|
|
<trkpt lat="57.725952" lon="10.597641">
|
|
<ele>-6.883788</ele>
|
|
<time>2026-07-17T13:09:13.000Z</time>
|
|
</trkpt>
|
|
<trkpt lat="57.725918" lon="10.597630">
|
|
<ele>-6.878619</ele>
|
|
<time>2026-07-17T13:09:14.000Z</time>
|
|
</trkpt>
|
|
<trkpt lat="57.725883" lon="10.597615">
|
|
<ele>-6.873239</ele>
|
|
<time>2026-07-17T13:09:15.000Z</time>
|
|
</trkpt>
|
|
<trkpt lat="57.725845" lon="10.597601">
|
|
<ele>-6.867437</ele>
|
|
<time>2026-07-17T13:09:16.000Z</time>
|
|
</trkpt>
|
|
<trkpt lat="57.725815" lon="10.597589">
|
|
<ele>-6.862841</ele>
|
|
<time>2026-07-17T13:09:17.000Z</time>
|
|
</trkpt>
|
|
<trkpt lat="57.725788" lon="10.597579">
|
|
<ele>-6.858717</ele>
|
|
<time>2026-07-17T13:09:18.000Z</time>
|
|
</trkpt>
|
|
<trkpt lat="57.725761" lon="10.597566">
|
|
<ele>-6.854540</ele>
|
|
<time>2026-07-17T13:09:19.000Z</time>
|
|
</trkpt>
|
|
<trkpt lat="57.725735" lon="10.597552">
|
|
<ele>-6.850487</ele>
|
|
<time>2026-07-17T13:09:20.000Z</time>
|
|
</trkpt>
|
|
<trkpt lat="57.725708" lon="10.597541">
|
|
<ele>-6.846347</ele>
|
|
<time>2026-07-17T13:09:21.000Z</time>
|
|
</trkpt>
|
|
<trkpt lat="57.725685" lon="10.597531">
|
|
<ele>-6.842809</ele>
|
|
<time>2026-07-17T13:09:22.000Z</time>
|
|
</trkpt>
|
|
<trkpt lat="57.725658" lon="10.597520">
|
|
<ele>-6.796345</ele>
|
|
<time>2026-07-17T13:09:23.000Z</time>
|
|
</trkpt>
|
|
<trkpt lat="57.725632" lon="10.597509">
|
|
<ele>-6.713977</ele>
|
|
<time>2026-07-17T13:09:24.000Z</time>
|
|
</trkpt>
|
|
<trkpt lat="57.725605" lon="10.597498">
|
|
<ele>-6.628593</ele>
|
|
<time>2026-07-17T13:09:25.000Z</time>
|
|
</trkpt>
|
|
<trkpt lat="57.725578" lon="10.597486">
|
|
<ele>-6.542843</ele>
|
|
<time>2026-07-17T13:09:26.000Z</time>
|
|
</trkpt>
|
|
<trkpt lat="57.725552" lon="10.597471">
|
|
<ele>-6.458775</ele>
|
|
<time>2026-07-17T13:09:27.000Z</time>
|
|
</trkpt>
|
|
<trkpt lat="57.725525" lon="10.597451">
|
|
<ele>-6.369053</ele>
|
|
<time>2026-07-17T13:09:28.000Z</time>
|
|
</trkpt>
|
|
<trkpt lat="57.725498" lon="10.597424">
|
|
<ele>-6.274471</ele>
|
|
<time>2026-07-17T13:09:29.000Z</time>
|
|
</trkpt>
|
|
<trkpt lat="57.725472" lon="10.597393">
|
|
<ele>-6.179227</ele>
|
|
<time>2026-07-17T13:09:30.000Z</time>
|
|
</trkpt>
|
|
<trkpt lat="57.725445" lon="10.597360">
|
|
<ele>-6.079598</ele>
|
|
<time>2026-07-17T13:09:31.000Z</time>
|
|
</trkpt>
|
|
<trkpt lat="57.725418" lon="10.597320">
|
|
<ele>-5.973216</ele>
|
|
<time>2026-07-17T13:09:32.000Z</time>
|
|
</trkpt>
|
|
<trkpt lat="57.725391" lon="10.597274">
|
|
<ele>-5.860424</ele>
|
|
<time>2026-07-17T13:09:33.000Z</time>
|
|
</trkpt>
|
|
<trkpt lat="57.725372" lon="10.597229">
|
|
<ele>-5.765764</ele>
|
|
<time>2026-07-17T13:09:34.000Z</time>
|
|
</trkpt>
|
|
<trkpt lat="57.725349" lon="10.597186">
|
|
<ele>-5.665338</ele>
|
|
<time>2026-07-17T13:09:35.000Z</time>
|
|
</trkpt>
|
|
<trkpt lat="57.725327" lon="10.597137">
|
|
<ele>-5.559704</ele>
|
|
<time>2026-07-17T13:09:36.000Z</time>
|
|
</trkpt>
|
|
<trkpt lat="57.725296" lon="10.597079">
|
|
<ele>-5.424296</ele>
|
|
<time>2026-07-17T13:09:37.000Z</time>
|
|
</trkpt>
|
|
<trkpt lat="57.725266" lon="10.597021">
|
|
<ele>-5.291056</ele>
|
|
<time>2026-07-17T13:09:38.000Z</time>
|
|
</trkpt>
|
|
<trkpt lat="57.725243" lon="10.596966">
|
|
<ele>-5.175785</ele>
|
|
<time>2026-07-17T13:09:39.000Z</time>
|
|
</trkpt>
|
|
<trkpt lat="57.725220" lon="10.596913">
|
|
<ele>-5.063095</ele>
|
|
<time>2026-07-17T13:09:40.000Z</time>
|
|
</trkpt>
|
|
<trkpt lat="57.725197" lon="10.596866">
|
|
<ele>-4.957901</ele>
|
|
<time>2026-07-17T13:09:41.000Z</time>
|
|
</trkpt>
|
|
<trkpt lat="57.725178" lon="10.596821">
|
|
<ele>-4.863242</ele>
|
|
<time>2026-07-17T13:09:42.000Z</time>
|
|
</trkpt>
|
|
<trkpt lat="57.725155" lon="10.596775">
|
|
<ele>-4.759259</ele>
|
|
<time>2026-07-17T13:09:43.000Z</time>
|
|
</trkpt>
|
|
<trkpt lat="57.725128" lon="10.596726">
|
|
<ele>-4.643077</ele>
|
|
<time>2026-07-17T13:09:44.000Z</time>
|
|
</trkpt>
|
|
<trkpt lat="57.725101" lon="10.596675">
|
|
<ele>-4.524576</ele>
|
|
<time>2026-07-17T13:09:45.000Z</time>
|
|
</trkpt>
|
|
<trkpt lat="57.725079" lon="10.596625">
|
|
<ele>-4.417672</ele>
|
|
<time>2026-07-17T13:09:46.000Z</time>
|
|
</trkpt>
|
|
<trkpt lat="57.725059" lon="10.596582">
|
|
<ele>-4.323578</ele>
|
|
<time>2026-07-17T13:09:47.000Z</time>
|
|
</trkpt>
|
|
<trkpt lat="57.725044" lon="10.596547">
|
|
<ele>-4.249526</ele>
|
|
<time>2026-07-17T13:09:48.000Z</time>
|
|
</trkpt>
|
|
<trkpt lat="57.725029" lon="10.596512">
|
|
<ele>-4.175474</ele>
|
|
<time>2026-07-17T13:09:49.000Z</time>
|
|
</trkpt>
|
|
<trkpt lat="57.725014" lon="10.596467">
|
|
<ele>-4.087941</ele>
|
|
<time>2026-07-17T13:09:50.000Z</time>
|
|
</trkpt>
|
|
<trkpt lat="57.724991" lon="10.596419">
|
|
<ele>-3.981525</ele>
|
|
<time>2026-07-17T13:09:51.000Z</time>
|
|
</trkpt>
|
|
<trkpt lat="57.724972" lon="10.596380">
|
|
<ele>-3.894414</ele>
|
|
<time>2026-07-17T13:09:52.000Z</time>
|
|
</trkpt>
|
|
<trkpt lat="57.724953" lon="10.596340">
|
|
<ele>-3.806078</ele>
|
|
<time>2026-07-17T13:09:53.000Z</time>
|
|
</trkpt>
|
|
<trkpt lat="57.724934" lon="10.596296">
|
|
<ele>-3.712706</ele>
|
|
<time>2026-07-17T13:09:54.000Z</time>
|
|
</trkpt>
|
|
<trkpt lat="57.724915" lon="10.596258">
|
|
<ele>-3.626807</ele>
|
|
<time>2026-07-17T13:09:55.000Z</time>
|
|
</trkpt>
|
|
<trkpt lat="57.724895" lon="10.596226">
|
|
<ele>-3.545520</ele>
|
|
<time>2026-07-17T13:09:56.000Z</time>
|
|
</trkpt>
|
|
<trkpt lat="57.724876" lon="10.596195">
|
|
<ele>-3.467651</ele>
|
|
<time>2026-07-17T13:09:57.000Z</time>
|
|
</trkpt>
|
|
<trkpt lat="57.724857" lon="10.596160">
|
|
<ele>-3.385296</ele>
|
|
<time>2026-07-17T13:09:58.000Z</time>
|
|
</trkpt>
|
|
<trkpt lat="57.724838" lon="10.596121">
|
|
<ele>-3.298185</ele>
|
|
<time>2026-07-17T13:09:59.000Z</time>
|
|
</trkpt>
|
|
<trkpt lat="57.724827" lon="10.596086">
|
|
<ele>-3.231172</ele>
|
|
<time>2026-07-17T13:10:00.000Z</time>
|
|
</trkpt>
|
|
<trkpt lat="57.724815" lon="10.596049">
|
|
<ele>-3.159741</ele>
|
|
<time>2026-07-17T13:10:01.000Z</time>
|
|
</trkpt>
|
|
<trkpt lat="57.724804" lon="10.596015">
|
|
<ele>-3.094144</ele>
|
|
<time>2026-07-17T13:10:02.000Z</time>
|
|
</trkpt>
|
|
<trkpt lat="57.724785" lon="10.595981">
|
|
<ele>-3.012938</ele>
|
|
<time>2026-07-17T13:10:03.000Z</time>
|
|
</trkpt>
|
|
<trkpt lat="57.724766" lon="10.595942">
|
|
<ele>-2.925826</ele>
|
|
<time>2026-07-17T13:10:04.000Z</time>
|
|
</trkpt>
|
|
<trkpt lat="57.724747" lon="10.595906">
|
|
<ele>-2.842306</ele>
|
|
<time>2026-07-17T13:10:05.000Z</time>
|
|
</trkpt>
|
|
<trkpt lat="57.724728" lon="10.595870">
|
|
<ele>-2.758785</ele>
|
|
<time>2026-07-17T13:10:06.000Z</time>
|
|
</trkpt>
|
|
<trkpt lat="57.724712" lon="10.595833">
|
|
<ele>-2.680223</ele>
|
|
<time>2026-07-17T13:10:07.000Z</time>
|
|
</trkpt>
|
|
<trkpt lat="57.724701" lon="10.595790">
|
|
<ele>-2.601548</ele>
|
|
<time>2026-07-17T13:10:08.000Z</time>
|
|
</trkpt>
|
|
<trkpt lat="57.724686" lon="10.595749">
|
|
<ele>-2.519540</ele>
|
|
<time>2026-07-17T13:10:09.000Z</time>
|
|
</trkpt>
|
|
<trkpt lat="57.724670" lon="10.595708">
|
|
<ele>-2.435746</ele>
|
|
<time>2026-07-17T13:10:10.000Z</time>
|
|
</trkpt>
|
|
<trkpt lat="57.724655" lon="10.595669">
|
|
<ele>-2.356438</ele>
|
|
<time>2026-07-17T13:10:11.000Z</time>
|
|
</trkpt>
|
|
<trkpt lat="57.724648" lon="10.595639">
|
|
<ele>-2.302416</ele>
|
|
<time>2026-07-17T13:10:12.000Z</time>
|
|
</trkpt>
|
|
<trkpt lat="57.724640" lon="10.595623">
|
|
<ele>-2.266248</ele>
|
|
<time>2026-07-17T13:10:13.000Z</time>
|
|
</trkpt>
|
|
<trkpt lat="57.724640" lon="10.595620">
|
|
<ele>-2.261298</ele>
|
|
<time>2026-07-17T13:10:14.000Z</time>
|
|
</trkpt>
|
|
<trkpt lat="57.724640" lon="10.595620">
|
|
<ele>-2.261298</ele>
|
|
<time>2026-07-17T13:10:17.000Z</time>
|
|
</trkpt>
|
|
<trkpt lat="57.724625" lon="10.595680">
|
|
<ele>-2.151980</ele>
|
|
<time>2026-07-17T13:11:51.000Z</time>
|
|
</trkpt>
|
|
<trkpt lat="57.724632" lon="10.595713">
|
|
<ele>-2.093389</ele>
|
|
<time>2026-07-17T13:11:52.000Z</time>
|
|
</trkpt>
|
|
<trkpt lat="57.724644" lon="10.595753">
|
|
<ele>-2.017683</ele>
|
|
<time>2026-07-17T13:11:53.000Z</time>
|
|
</trkpt>
|
|
<trkpt lat="57.724655" lon="10.595795">
|
|
<ele>-1.940492</ele>
|
|
<time>2026-07-17T13:11:54.000Z</time>
|
|
</trkpt>
|
|
<trkpt lat="57.724670" lon="10.595836">
|
|
<ele>-1.858484</ele>
|
|
<time>2026-07-17T13:11:55.000Z</time>
|
|
</trkpt>
|
|
<trkpt lat="57.724689" lon="10.595875">
|
|
<ele>-1.771373</ele>
|
|
<time>2026-07-17T13:11:56.000Z</time>
|
|
</trkpt>
|
|
<trkpt lat="57.724709" lon="10.595918">
|
|
<ele>-1.677278</ele>
|
|
<time>2026-07-17T13:11:57.000Z</time>
|
|
</trkpt>
|
|
<trkpt lat="57.724724" lon="10.595965">
|
|
<ele>-1.586929</ele>
|
|
<time>2026-07-17T13:11:58.000Z</time>
|
|
</trkpt>
|
|
<trkpt lat="57.724739" lon="10.596013">
|
|
<ele>-1.495159</ele>
|
|
<time>2026-07-17T13:11:59.000Z</time>
|
|
</trkpt>
|
|
<trkpt lat="57.724758" lon="10.596057">
|
|
<ele>-1.401787</ele>
|
|
<time>2026-07-17T13:12:00.000Z</time>
|
|
</trkpt>
|
|
<trkpt lat="57.724777" lon="10.596100">
|
|
<ele>-1.309693</ele>
|
|
<time>2026-07-17T13:12:01.000Z</time>
|
|
</trkpt>
|
|
<trkpt lat="57.724793" lon="10.596138">
|
|
<ele>-1.163706</ele>
|
|
<time>2026-07-17T13:12:02.000Z</time>
|
|
</trkpt>
|
|
<trkpt lat="57.724812" lon="10.596173">
|
|
<ele>-0.978595</ele>
|
|
<time>2026-07-17T13:12:03.000Z</time>
|
|
</trkpt>
|
|
<trkpt lat="57.724831" lon="10.596210">
|
|
<ele>-0.788208</ele>
|
|
<time>2026-07-17T13:12:04.000Z</time>
|
|
</trkpt>
|
|
<trkpt lat="57.724846" lon="10.596248">
|
|
<ele>-0.612943</ele>
|
|
<time>2026-07-17T13:12:05.000Z</time>
|
|
</trkpt>
|
|
<trkpt lat="57.724865" lon="10.596285">
|
|
<ele>-0.422556</ele>
|
|
<time>2026-07-17T13:12:06.000Z</time>
|
|
</trkpt>
|
|
<trkpt lat="57.724884" lon="10.596319">
|
|
<ele>-0.240027</ele>
|
|
<time>2026-07-17T13:12:07.000Z</time>
|
|
</trkpt>
|
|
<trkpt lat="57.724899" lon="10.596353">
|
|
<ele>-0.076454</ele>
|
|
<time>2026-07-17T13:12:08.000Z</time>
|
|
</trkpt>
|
|
<trkpt lat="57.724915" lon="10.596384">
|
|
<ele>0.083450</ele>
|
|
<time>2026-07-17T13:12:09.000Z</time>
|
|
</trkpt>
|
|
<trkpt lat="57.724930" lon="10.596412">
|
|
<ele>0.230552</ele>
|
|
<time>2026-07-17T13:12:10.000Z</time>
|
|
</trkpt>
|
|
<trkpt lat="57.724941" lon="10.596433">
|
|
<ele>0.339656</ele>
|
|
<time>2026-07-17T13:12:11.000Z</time>
|
|
</trkpt>
|
|
<trkpt lat="57.724957" lon="10.596445">
|
|
<ele>0.459367</ele>
|
|
<time>2026-07-17T13:12:12.000Z</time>
|
|
</trkpt>
|
|
<trkpt lat="57.724972" lon="10.596448">
|
|
<ele>0.564144</ele>
|
|
<time>2026-07-17T13:12:13.000Z</time>
|
|
</trkpt>
|
|
<trkpt lat="57.724983" lon="10.596442">
|
|
<ele>0.643721</ele>
|
|
<time>2026-07-17T13:12:14.000Z</time>
|
|
</trkpt>
|
|
<trkpt lat="57.724991" lon="10.596430">
|
|
<ele>0.714913</ele>
|
|
<time>2026-07-17T13:12:15.000Z</time>
|
|
</trkpt>
|
|
<trkpt lat="57.724998" lon="10.596413">
|
|
<ele>0.794533</ele>
|
|
<time>2026-07-17T13:12:16.000Z</time>
|
|
</trkpt>
|
|
<trkpt lat="57.725002" lon="10.596396">
|
|
<ele>0.863433</ele>
|
|
<time>2026-07-17T13:12:17.000Z</time>
|
|
</trkpt>
|
|
<trkpt lat="57.725010" lon="10.596383">
|
|
<ele>0.937001</ele>
|
|
<time>2026-07-17T13:12:18.000Z</time>
|
|
</trkpt>
|
|
<trkpt lat="57.725010" lon="10.596376">
|
|
<ele>0.962963</ele>
|
|
<time>2026-07-17T13:12:19.000Z</time>
|
|
</trkpt>
|
|
<trkpt lat="57.725010" lon="10.596374">
|
|
<ele>0.970381</ele>
|
|
<time>2026-07-17T13:12:20.000Z</time>
|
|
</trkpt>
|
|
<trkpt lat="57.725010" lon="10.596376">
|
|
<ele>0.977798</ele>
|
|
<time>2026-07-17T13:12:21.000Z</time>
|
|
</trkpt>
|
|
<trkpt lat="57.724946" lon="10.596234">
|
|
<ele>1.666979</ele>
|
|
<time>2026-07-17T14:01:41.000Z</time>
|
|
</trkpt>
|
|
<trkpt lat="57.724937" lon="10.596229">
|
|
<ele>1.732182</ele>
|
|
<time>2026-07-17T14:01:42.000Z</time>
|
|
</trkpt>
|
|
<trkpt lat="57.724928" lon="10.596221">
|
|
<ele>1.801378</ele>
|
|
<time>2026-07-17T14:01:43.000Z</time>
|
|
</trkpt>
|
|
<trkpt lat="57.724923" lon="10.596210">
|
|
<ele>1.854955</ele>
|
|
<time>2026-07-17T14:01:44.000Z</time>
|
|
</trkpt>
|
|
<trkpt lat="57.724917" lon="10.596198">
|
|
<ele>1.915926</ele>
|
|
<time>2026-07-17T14:01:45.000Z</time>
|
|
</trkpt>
|
|
<trkpt lat="57.724911" lon="10.596183">
|
|
<ele>1.985437</ele>
|
|
<time>2026-07-17T14:01:46.000Z</time>
|
|
</trkpt>
|
|
<trkpt lat="57.724905" lon="10.596165">
|
|
<ele>2.064136</ele>
|
|
<time>2026-07-17T14:01:47.000Z</time>
|
|
</trkpt>
|
|
<trkpt lat="57.724900" lon="10.596150">
|
|
<ele>2.129719</ele>
|
|
<time>2026-07-17T14:01:48.000Z</time>
|
|
</trkpt>
|
|
<trkpt lat="57.724892" lon="10.596139">
|
|
<ele>2.198653</ele>
|
|
<time>2026-07-17T14:01:49.000Z</time>
|
|
</trkpt>
|
|
<trkpt lat="57.724883" lon="10.596125">
|
|
<ele>2.279917</ele>
|
|
<time>2026-07-17T14:01:50.000Z</time>
|
|
</trkpt>
|
|
<trkpt lat="57.724872" lon="10.596112">
|
|
<ele>2.370261</ele>
|
|
<time>2026-07-17T14:01:51.000Z</time>
|
|
</trkpt>
|
|
<trkpt lat="57.724858" lon="10.596107">
|
|
<ele>2.469252</ele>
|
|
<time>2026-07-17T14:01:52.000Z</time>
|
|
</trkpt>
|
|
<trkpt lat="57.724845" lon="10.596105">
|
|
<ele>2.559850</ele>
|
|
<time>2026-07-17T14:01:53.000Z</time>
|
|
</trkpt>
|
|
<trkpt lat="57.724827" lon="10.596107">
|
|
<ele>2.685092</ele>
|
|
<time>2026-07-17T14:01:54.000Z</time>
|
|
</trkpt>
|
|
<trkpt lat="57.724807" lon="10.596114">
|
|
<ele>2.826410</ele>
|
|
<time>2026-07-17T14:01:55.000Z</time>
|
|
</trkpt>
|
|
<trkpt lat="57.724797" lon="10.596117">
|
|
<ele>2.896752</ele>
|
|
<time>2026-07-17T14:01:56.000Z</time>
|
|
</trkpt>
|
|
<trkpt lat="57.724789" lon="10.596118">
|
|
<ele>2.952441</ele>
|
|
<time>2026-07-17T14:01:57.000Z</time>
|
|
</trkpt>
|
|
<trkpt lat="57.724783" lon="10.596117">
|
|
<ele>2.994280</ele>
|
|
<time>2026-07-17T14:01:58.000Z</time>
|
|
</trkpt>
|
|
<trkpt lat="57.724781" lon="10.596117">
|
|
<ele>3.008171</ele>
|
|
<time>2026-07-17T14:01:59.000Z</time>
|
|
</trkpt>
|
|
<trkpt lat="57.724759" lon="10.596063">
|
|
<ele>3.260086</ele>
|
|
<time>2026-07-17T14:02:02.000Z</time>
|
|
</trkpt>
|
|
<trkpt lat="57.724749" lon="10.596034">
|
|
<ele>3.388121</ele>
|
|
<time>2026-07-17T14:02:03.000Z</time>
|
|
</trkpt>
|
|
<trkpt lat="57.724738" lon="10.595999">
|
|
<ele>3.538747</ele>
|
|
<time>2026-07-17T14:02:04.000Z</time>
|
|
</trkpt>
|
|
<trkpt lat="57.724727" lon="10.595964">
|
|
<ele>3.689373</ele>
|
|
<time>2026-07-17T14:02:05.000Z</time>
|
|
</trkpt>
|
|
<trkpt lat="57.724713" lon="10.595924">
|
|
<ele>3.866757</ele>
|
|
<time>2026-07-17T14:02:06.000Z</time>
|
|
</trkpt>
|
|
<trkpt lat="57.724697" lon="10.595885">
|
|
<ele>4.049165</ele>
|
|
<time>2026-07-17T14:02:07.000Z</time>
|
|
</trkpt>
|
|
<trkpt lat="57.724679" lon="10.595842">
|
|
<ele>4.251810</ele>
|
|
<time>2026-07-17T14:02:08.000Z</time>
|
|
</trkpt>
|
|
<trkpt lat="57.724664" lon="10.595795">
|
|
<ele>4.454890</ele>
|
|
<time>2026-07-17T14:02:09.000Z</time>
|
|
</trkpt>
|
|
<trkpt lat="57.724645" lon="10.595753">
|
|
<ele>4.659049</ele>
|
|
<time>2026-07-17T14:02:10.000Z</time>
|
|
</trkpt>
|
|
<trkpt lat="57.724624" lon="10.595713">
|
|
<ele>4.867098</ele>
|
|
<time>2026-07-17T14:02:11.000Z</time>
|
|
</trkpt>
|
|
<trkpt lat="57.724605" lon="10.595671">
|
|
<ele>5.071257</ele>
|
|
<time>2026-07-17T14:02:12.000Z</time>
|
|
</trkpt>
|
|
<trkpt lat="57.724586" lon="10.595629">
|
|
<ele>5.275416</ele>
|
|
<time>2026-07-17T14:02:13.000Z</time>
|
|
</trkpt>
|
|
<trkpt lat="57.724567" lon="10.595588">
|
|
<ele>5.476759</ele>
|
|
<time>2026-07-17T14:02:14.000Z</time>
|
|
</trkpt>
|
|
<trkpt lat="57.724549" lon="10.595549">
|
|
<ele>5.667949</ele>
|
|
<time>2026-07-17T14:02:15.000Z</time>
|
|
</trkpt>
|
|
<trkpt lat="57.724534" lon="10.595512">
|
|
<ele>5.840246</ele>
|
|
<time>2026-07-17T14:02:16.000Z</time>
|
|
</trkpt>
|
|
<trkpt lat="57.724521" lon="10.595476">
|
|
<ele>6.001432</ele>
|
|
<time>2026-07-17T14:02:17.000Z</time>
|
|
</trkpt>
|
|
<trkpt lat="57.724511" lon="10.595443">
|
|
<ele>6.142160</ele>
|
|
<time>2026-07-17T14:02:18.000Z</time>
|
|
</trkpt>
|
|
<trkpt lat="57.724503" lon="10.595409">
|
|
<ele>6.279963</ele>
|
|
<time>2026-07-17T14:02:19.000Z</time>
|
|
</trkpt>
|
|
<trkpt lat="57.724495" lon="10.595375">
|
|
<ele>6.417765</ele>
|
|
<time>2026-07-17T14:02:20.000Z</time>
|
|
</trkpt>
|
|
<trkpt lat="57.724486" lon="10.595347">
|
|
<ele>6.538977</ele>
|
|
<time>2026-07-17T14:02:21.000Z</time>
|
|
</trkpt>
|
|
<trkpt lat="57.724475" lon="10.595318">
|
|
<ele>6.670910</ele>
|
|
<time>2026-07-17T14:02:22.000Z</time>
|
|
</trkpt>
|
|
<trkpt lat="57.724462" lon="10.595286">
|
|
<ele>6.820038</ele>
|
|
<time>2026-07-17T14:02:23.000Z</time>
|
|
</trkpt>
|
|
<trkpt lat="57.724448" lon="10.595248">
|
|
<ele>6.991266</ele>
|
|
<time>2026-07-17T14:02:24.000Z</time>
|
|
</trkpt>
|
|
<trkpt lat="57.724435" lon="10.595203">
|
|
<ele>7.181027</ele>
|
|
<time>2026-07-17T14:02:25.000Z</time>
|
|
</trkpt>
|
|
<trkpt lat="57.724420" lon="10.595155">
|
|
<ele>7.387300</ele>
|
|
<time>2026-07-17T14:02:26.000Z</time>
|
|
</trkpt>
|
|
<trkpt lat="57.724401" lon="10.595109">
|
|
<ele>7.602992</ele>
|
|
<time>2026-07-17T14:02:27.000Z</time>
|
|
</trkpt>
|
|
<trkpt lat="57.724383" lon="10.595060">
|
|
<ele>7.823580</ele>
|
|
<time>2026-07-17T14:02:28.000Z</time>
|
|
</trkpt>
|
|
<trkpt lat="57.724370" lon="10.595005">
|
|
<ele>8.046661</ele>
|
|
<time>2026-07-17T14:02:29.000Z</time>
|
|
</trkpt>
|
|
<trkpt lat="57.724353" lon="10.594946">
|
|
<ele>8.295312</ele>
|
|
<time>2026-07-17T14:02:30.000Z</time>
|
|
</trkpt>
|
|
<trkpt lat="57.724336" lon="10.594888">
|
|
<ele>8.540705</ele>
|
|
<time>2026-07-17T14:02:31.000Z</time>
|
|
</trkpt>
|
|
<trkpt lat="57.724322" lon="10.594832">
|
|
<ele>8.770041</ele>
|
|
<time>2026-07-17T14:02:32.000Z</time>
|
|
</trkpt>
|
|
<trkpt lat="57.724311" lon="10.594781">
|
|
<ele>8.974044</ele>
|
|
<time>2026-07-17T14:02:33.000Z</time>
|
|
</trkpt>
|
|
<trkpt lat="57.724298" lon="10.594736">
|
|
<ele>9.163805</ele>
|
|
<time>2026-07-17T14:02:34.000Z</time>
|
|
</trkpt>
|
|
<trkpt lat="57.724282" lon="10.594689">
|
|
<ele>9.370535</ele>
|
|
<time>2026-07-17T14:02:35.000Z</time>
|
|
</trkpt>
|
|
<trkpt lat="57.724265" lon="10.594638">
|
|
<ele>9.593519</ele>
|
|
<time>2026-07-17T14:02:36.000Z</time>
|
|
</trkpt>
|
|
<trkpt lat="57.724245" lon="10.594582">
|
|
<ele>9.843392</ele>
|
|
<time>2026-07-17T14:02:37.000Z</time>
|
|
</trkpt>
|
|
<trkpt lat="57.724224" lon="10.594523">
|
|
<ele>10.106376</ele>
|
|
<time>2026-07-17T14:02:38.000Z</time>
|
|
</trkpt>
|
|
<trkpt lat="57.724205" lon="10.594463">
|
|
<ele>10.365099</ele>
|
|
<time>2026-07-17T14:02:39.000Z</time>
|
|
</trkpt>
|
|
<trkpt lat="57.724185" lon="10.594402">
|
|
<ele>10.630588</ele>
|
|
<time>2026-07-17T14:02:40.000Z</time>
|
|
</trkpt>
|
|
<trkpt lat="57.724166" lon="10.594336">
|
|
<ele>10.908684</ele>
|
|
<time>2026-07-17T14:02:41.000Z</time>
|
|
</trkpt>
|
|
<trkpt lat="57.724147" lon="10.594271">
|
|
<ele>11.183522</ele>
|
|
<time>2026-07-17T14:02:42.000Z</time>
|
|
</trkpt>
|
|
<trkpt lat="57.724127" lon="10.594206">
|
|
<ele>11.216266</ele>
|
|
<time>2026-07-17T14:02:43.000Z</time>
|
|
</trkpt>
|
|
<trkpt lat="57.724105" lon="10.594141">
|
|
<ele>11.223474</ele>
|
|
<time>2026-07-17T14:02:44.000Z</time>
|
|
</trkpt>
|
|
<trkpt lat="57.724086" lon="10.594076">
|
|
<ele>11.230414</ele>
|
|
<time>2026-07-17T14:02:45.000Z</time>
|
|
</trkpt>
|
|
<trkpt lat="57.724066" lon="10.594012">
|
|
<ele>11.237360</ele>
|
|
<time>2026-07-17T14:02:46.000Z</time>
|
|
</trkpt>
|
|
<trkpt lat="57.724044" lon="10.593950">
|
|
<ele>11.244332</ele>
|
|
<time>2026-07-17T14:02:47.000Z</time>
|
|
</trkpt>
|
|
<trkpt lat="57.724024" lon="10.593885">
|
|
<ele>11.251359</ele>
|
|
<time>2026-07-17T14:02:48.000Z</time>
|
|
</trkpt>
|
|
<trkpt lat="57.724001" lon="10.593823">
|
|
<ele>11.258429</ele>
|
|
<time>2026-07-17T14:02:49.000Z</time>
|
|
</trkpt>
|
|
<trkpt lat="57.723978" lon="10.593761">
|
|
<ele>11.265500</ele>
|
|
<time>2026-07-17T14:02:50.000Z</time>
|
|
</trkpt>
|
|
<trkpt lat="57.723953" lon="10.593694">
|
|
<ele>11.273156</ele>
|
|
<time>2026-07-17T14:02:51.000Z</time>
|
|
</trkpt>
|
|
<trkpt lat="57.723928" lon="10.593624">
|
|
<ele>11.281044</ele>
|
|
<time>2026-07-17T14:02:52.000Z</time>
|
|
</trkpt>
|
|
<trkpt lat="57.723904" lon="10.593554">
|
|
<ele>11.288835</ele>
|
|
<time>2026-07-17T14:02:53.000Z</time>
|
|
</trkpt>
|
|
<trkpt lat="57.723879" lon="10.593488">
|
|
<ele>11.296414</ele>
|
|
<time>2026-07-17T14:02:54.000Z</time>
|
|
</trkpt>
|
|
<trkpt lat="57.723854" lon="10.593422">
|
|
<ele>11.303993</ele>
|
|
<time>2026-07-17T14:02:55.000Z</time>
|
|
</trkpt>
|
|
<trkpt lat="57.723829" lon="10.593356">
|
|
<ele>11.311572</ele>
|
|
<time>2026-07-17T14:02:56.000Z</time>
|
|
</trkpt>
|
|
<trkpt lat="57.723805" lon="10.593292">
|
|
<ele>11.318897</ele>
|
|
<time>2026-07-17T14:02:57.000Z</time>
|
|
</trkpt>
|
|
<trkpt lat="57.723779" lon="10.593225">
|
|
<ele>11.326655</ele>
|
|
<time>2026-07-17T14:02:58.000Z</time>
|
|
</trkpt>
|
|
<trkpt lat="57.723758" lon="10.593152">
|
|
<ele>11.334421</ele>
|
|
<time>2026-07-17T14:02:59.000Z</time>
|
|
</trkpt>
|
|
<trkpt lat="57.723739" lon="10.593086">
|
|
<ele>11.341444</ele>
|
|
<time>2026-07-17T14:03:00.000Z</time>
|
|
</trkpt>
|
|
<trkpt lat="57.723719" lon="10.593023">
|
|
<ele>11.348309</ele>
|
|
<time>2026-07-17T14:03:01.000Z</time>
|
|
</trkpt>
|
|
<trkpt lat="57.723696" lon="10.592955">
|
|
<ele>11.355848</ele>
|
|
<time>2026-07-17T14:03:02.000Z</time>
|
|
</trkpt>
|
|
<trkpt lat="57.723674" lon="10.592881">
|
|
<ele>11.363781</ele>
|
|
<time>2026-07-17T14:03:03.000Z</time>
|
|
</trkpt>
|
|
<trkpt lat="57.723657" lon="10.592807">
|
|
<ele>11.371326</ele>
|
|
<time>2026-07-17T14:03:04.000Z</time>
|
|
</trkpt>
|
|
<trkpt lat="57.723640" lon="10.592735">
|
|
<ele>11.378700</ele>
|
|
<time>2026-07-17T14:03:05.000Z</time>
|
|
</trkpt>
|
|
<trkpt lat="57.723623" lon="10.592670">
|
|
<ele>11.385479</ele>
|
|
<time>2026-07-17T14:03:06.000Z</time>
|
|
</trkpt>
|
|
<trkpt lat="57.723606" lon="10.592611">
|
|
<ele>11.391758</ele>
|
|
<time>2026-07-17T14:03:07.000Z</time>
|
|
</trkpt>
|
|
<trkpt lat="57.723586" lon="10.592555">
|
|
<ele>11.398068</ele>
|
|
<time>2026-07-17T14:03:08.000Z</time>
|
|
</trkpt>
|
|
<trkpt lat="57.723567" lon="10.592500">
|
|
<ele>11.404204</ele>
|
|
<time>2026-07-17T14:03:09.000Z</time>
|
|
</trkpt>
|
|
<trkpt lat="57.723550" lon="10.592443">
|
|
<ele>11.410319</ele>
|
|
<time>2026-07-17T14:03:10.000Z</time>
|
|
</trkpt>
|
|
<trkpt lat="57.723536" lon="10.592382">
|
|
<ele>11.416538</ele>
|
|
<time>2026-07-17T14:03:11.000Z</time>
|
|
</trkpt>
|
|
<trkpt lat="57.723523" lon="10.592318">
|
|
<ele>11.422951</ele>
|
|
<time>2026-07-17T14:03:12.000Z</time>
|
|
</trkpt>
|
|
<trkpt lat="57.723508" lon="10.592258">
|
|
<ele>11.429157</ele>
|
|
<time>2026-07-17T14:03:13.000Z</time>
|
|
</trkpt>
|
|
<trkpt lat="57.723491" lon="10.592202">
|
|
<ele>11.435190</ele>
|
|
<time>2026-07-17T14:03:14.000Z</time>
|
|
</trkpt>
|
|
<trkpt lat="57.723474" lon="10.592146">
|
|
<ele>11.441224</ele>
|
|
<time>2026-07-17T14:03:15.000Z</time>
|
|
</trkpt>
|
|
<trkpt lat="57.723460" lon="10.592093">
|
|
<ele>11.446762</ele>
|
|
<time>2026-07-17T14:03:16.000Z</time>
|
|
</trkpt>
|
|
<trkpt lat="57.723447" lon="10.592041">
|
|
<ele>11.452140</ele>
|
|
<time>2026-07-17T14:03:17.000Z</time>
|
|
</trkpt>
|
|
<trkpt lat="57.723432" lon="10.591994">
|
|
<ele>11.457268</ele>
|
|
<time>2026-07-17T14:03:18.000Z</time>
|
|
</trkpt>
|
|
<trkpt lat="57.723417" lon="10.591946">
|
|
<ele>11.462478</ele>
|
|
<time>2026-07-17T14:03:19.000Z</time>
|
|
</trkpt>
|
|
<trkpt lat="57.723406" lon="10.591887">
|
|
<ele>11.468331</ele>
|
|
<time>2026-07-17T14:03:20.000Z</time>
|
|
</trkpt>
|
|
<trkpt lat="57.723407" lon="10.591820">
|
|
<ele>11.474609</ele>
|
|
<time>2026-07-17T14:03:21.000Z</time>
|
|
</trkpt>
|
|
<trkpt lat="57.723418" lon="10.591755">
|
|
<ele>11.480996</ele>
|
|
<time>2026-07-17T14:03:22.000Z</time>
|
|
</trkpt>
|
|
<trkpt lat="57.723435" lon="10.591700">
|
|
<ele>11.486948</ele>
|
|
<time>2026-07-17T14:03:23.000Z</time>
|
|
</trkpt>
|
|
<trkpt lat="57.723457" lon="10.591651">
|
|
<ele>11.492944</ele>
|
|
<time>2026-07-17T14:03:24.000Z</time>
|
|
</trkpt>
|
|
<trkpt lat="57.723482" lon="10.591599">
|
|
<ele>11.499498</ele>
|
|
<time>2026-07-17T14:03:25.000Z</time>
|
|
</trkpt>
|
|
<trkpt lat="57.723505" lon="10.591542">
|
|
<ele>11.506189</ele>
|
|
<time>2026-07-17T14:03:26.000Z</time>
|
|
</trkpt>
|
|
<trkpt lat="57.723527" lon="10.591481">
|
|
<ele>11.513084</ele>
|
|
<time>2026-07-17T14:03:27.000Z</time>
|
|
</trkpt>
|
|
<trkpt lat="57.723546" lon="10.591419">
|
|
<ele>11.519779</ele>
|
|
<time>2026-07-17T14:03:28.000Z</time>
|
|
</trkpt>
|
|
<trkpt lat="57.723563" lon="10.591353">
|
|
<ele>11.526495</ele>
|
|
<time>2026-07-17T14:03:29.000Z</time>
|
|
</trkpt>
|
|
<trkpt lat="57.723577" lon="10.591284">
|
|
<ele>11.532593</ele>
|
|
<time>2026-07-17T14:03:30.000Z</time>
|
|
</trkpt>
|
|
<trkpt lat="57.723590" lon="10.591213">
|
|
<ele>11.538795</ele>
|
|
<time>2026-07-17T14:03:31.000Z</time>
|
|
</trkpt>
|
|
<trkpt lat="57.723602" lon="10.591139">
|
|
<ele>11.545185</ele>
|
|
<time>2026-07-17T14:03:32.000Z</time>
|
|
</trkpt>
|
|
<trkpt lat="57.723606" lon="10.591066">
|
|
<ele>11.551248</ele>
|
|
<time>2026-07-17T14:03:33.000Z</time>
|
|
</trkpt>
|
|
<trkpt lat="57.723606" lon="10.590993">
|
|
<ele>11.557280</ele>
|
|
<time>2026-07-17T14:03:34.000Z</time>
|
|
</trkpt>
|
|
<trkpt lat="57.723604" lon="10.590925">
|
|
<ele>11.562907</ele>
|
|
<time>2026-07-17T14:03:35.000Z</time>
|
|
</trkpt>
|
|
<trkpt lat="57.723601" lon="10.590859">
|
|
<ele>11.568380</ele>
|
|
<time>2026-07-17T14:03:36.000Z</time>
|
|
</trkpt>
|
|
<trkpt lat="57.723594" lon="10.590793">
|
|
<ele>11.573940</ele>
|
|
<time>2026-07-17T14:03:37.000Z</time>
|
|
</trkpt>
|
|
<trkpt lat="57.723584" lon="10.590730">
|
|
<ele>11.579370</ele>
|
|
<time>2026-07-17T14:03:38.000Z</time>
|
|
</trkpt>
|
|
<trkpt lat="57.723575" lon="10.590672">
|
|
<ele>11.584361</ele>
|
|
<time>2026-07-17T14:03:39.000Z</time>
|
|
</trkpt>
|
|
<trkpt lat="57.723560" lon="10.590615">
|
|
<ele>11.589611</ele>
|
|
<time>2026-07-17T14:03:40.000Z</time>
|
|
</trkpt>
|
|
<trkpt lat="57.723544" lon="10.590557">
|
|
<ele>11.595005</ele>
|
|
<time>2026-07-17T14:03:41.000Z</time>
|
|
</trkpt>
|
|
<trkpt lat="57.723531" lon="10.590495">
|
|
<ele>11.600509</ele>
|
|
<time>2026-07-17T14:03:42.000Z</time>
|
|
</trkpt>
|
|
<trkpt lat="57.723516" lon="10.590434">
|
|
<ele>11.606058</ele>
|
|
<time>2026-07-17T14:03:43.000Z</time>
|
|
</trkpt>
|
|
<trkpt lat="57.723500" lon="10.590371">
|
|
<ele>11.611822</ele>
|
|
<time>2026-07-17T14:03:44.000Z</time>
|
|
</trkpt>
|
|
<trkpt lat="57.723487" lon="10.590302">
|
|
<ele>11.617868</ele>
|
|
<time>2026-07-17T14:03:45.000Z</time>
|
|
</trkpt>
|
|
<trkpt lat="57.723474" lon="10.590231">
|
|
<ele>11.624069</ele>
|
|
<time>2026-07-17T14:03:46.000Z</time>
|
|
</trkpt>
|
|
<trkpt lat="57.723458" lon="10.590160">
|
|
<ele>11.630437</ele>
|
|
<time>2026-07-17T14:03:47.000Z</time>
|
|
</trkpt>
|
|
<trkpt lat="57.723443" lon="10.590090">
|
|
<ele>11.636669</ele>
|
|
<time>2026-07-17T14:03:48.000Z</time>
|
|
</trkpt>
|
|
<trkpt lat="57.723428" lon="10.590020">
|
|
<ele>11.642901</ele>
|
|
<time>2026-07-17T14:03:49.000Z</time>
|
|
</trkpt>
|
|
<trkpt lat="57.723413" lon="10.589949">
|
|
<ele>11.649210</ele>
|
|
<time>2026-07-17T14:03:50.000Z</time>
|
|
</trkpt>
|
|
<trkpt lat="57.723396" lon="10.589877">
|
|
<ele>11.655714</ele>
|
|
<time>2026-07-17T14:03:51.000Z</time>
|
|
</trkpt>
|
|
<trkpt lat="57.723378" lon="10.589804">
|
|
<ele>11.662358</ele>
|
|
<time>2026-07-17T14:03:52.000Z</time>
|
|
</trkpt>
|
|
<trkpt lat="57.723363" lon="10.589729">
|
|
<ele>11.668975</ele>
|
|
<time>2026-07-17T14:03:53.000Z</time>
|
|
</trkpt>
|
|
<trkpt lat="57.723346" lon="10.589652">
|
|
<ele>11.675860</ele>
|
|
<time>2026-07-17T14:03:54.000Z</time>
|
|
</trkpt>
|
|
<trkpt lat="57.723330" lon="10.589573">
|
|
<ele>11.682841</ele>
|
|
<time>2026-07-17T14:03:55.000Z</time>
|
|
</trkpt>
|
|
<trkpt lat="57.723317" lon="10.589494">
|
|
<ele>11.689671</ele>
|
|
<time>2026-07-17T14:03:56.000Z</time>
|
|
</trkpt>
|
|
<trkpt lat="57.723300" lon="10.589414">
|
|
<ele>11.696785</ele>
|
|
<time>2026-07-17T14:03:57.000Z</time>
|
|
</trkpt>
|
|
<trkpt lat="57.723281" lon="10.589336">
|
|
<ele>11.703869</ele>
|
|
<time>2026-07-17T14:03:58.000Z</time>
|
|
</trkpt>
|
|
<trkpt lat="57.723264" lon="10.589258">
|
|
<ele>11.710830</ele>
|
|
<time>2026-07-17T14:03:59.000Z</time>
|
|
</trkpt>
|
|
<trkpt lat="57.723249" lon="10.589176">
|
|
<ele>11.717992</ele>
|
|
<time>2026-07-17T14:04:00.000Z</time>
|
|
</trkpt>
|
|
<trkpt lat="57.723232" lon="10.589092">
|
|
<ele>11.725414</ele>
|
|
<time>2026-07-17T14:04:01.000Z</time>
|
|
</trkpt>
|
|
<trkpt lat="57.723214" lon="10.589008">
|
|
<ele>11.732893</ele>
|
|
<time>2026-07-17T14:04:02.000Z</time>
|
|
</trkpt>
|
|
<trkpt lat="57.723199" lon="10.588921">
|
|
<ele>11.740447</ele>
|
|
<time>2026-07-17T14:04:03.000Z</time>
|
|
</trkpt>
|
|
<trkpt lat="57.723184" lon="10.588832">
|
|
<ele>11.748158</ele>
|
|
<time>2026-07-17T14:04:04.000Z</time>
|
|
</trkpt>
|
|
<trkpt lat="57.723169" lon="10.588746">
|
|
<ele>11.755633</ele>
|
|
<time>2026-07-17T14:04:05.000Z</time>
|
|
</trkpt>
|
|
<trkpt lat="57.723155" lon="10.588664">
|
|
<ele>11.762747</ele>
|
|
<time>2026-07-17T14:04:06.000Z</time>
|
|
</trkpt>
|
|
<trkpt lat="57.723142" lon="10.588583">
|
|
<ele>11.769735</ele>
|
|
<time>2026-07-17T14:04:07.000Z</time>
|
|
</trkpt>
|
|
<trkpt lat="57.723127" lon="10.588503">
|
|
<ele>11.776741</ele>
|
|
<time>2026-07-17T14:04:08.000Z</time>
|
|
</trkpt>
|
|
<trkpt lat="57.723113" lon="10.588424">
|
|
<ele>11.783618</ele>
|
|
<time>2026-07-17T14:04:09.000Z</time>
|
|
</trkpt>
|
|
<trkpt lat="57.723101" lon="10.588346">
|
|
<ele>11.790325</ele>
|
|
<time>2026-07-17T14:04:10.000Z</time>
|
|
</trkpt>
|
|
<trkpt lat="57.723085" lon="10.588269">
|
|
<ele>11.797152</ele>
|
|
<time>2026-07-17T14:04:11.000Z</time>
|
|
</trkpt>
|
|
<trkpt lat="57.723063" lon="10.588187">
|
|
<ele>11.804697</ele>
|
|
<time>2026-07-17T14:04:12.000Z</time>
|
|
</trkpt>
|
|
<trkpt lat="57.723043" lon="10.588101">
|
|
<ele>11.812165</ele>
|
|
<time>2026-07-17T14:04:13.000Z</time>
|
|
</trkpt>
|
|
<trkpt lat="57.723029" lon="10.588020">
|
|
<ele>11.818944</ele>
|
|
<time>2026-07-17T14:04:14.000Z</time>
|
|
</trkpt>
|
|
<trkpt lat="57.723019" lon="10.587942">
|
|
<ele>11.825331</ele>
|
|
<time>2026-07-17T14:04:15.000Z</time>
|
|
</trkpt>
|
|
<trkpt lat="57.723012" lon="10.587862">
|
|
<ele>11.831785</ele>
|
|
<time>2026-07-17T14:04:16.000Z</time>
|
|
</trkpt>
|
|
<trkpt lat="57.723004" lon="10.587781">
|
|
<ele>11.838344</ele>
|
|
<time>2026-07-17T14:04:17.000Z</time>
|
|
</trkpt>
|
|
<trkpt lat="57.722995" lon="10.587699">
|
|
<ele>11.845009</ele>
|
|
<time>2026-07-17T14:04:18.000Z</time>
|
|
</trkpt>
|
|
<trkpt lat="57.722983" lon="10.587619">
|
|
<ele>11.851625</ele>
|
|
<time>2026-07-17T14:04:19.000Z</time>
|
|
</trkpt>
|
|
<trkpt lat="57.722973" lon="10.587539">
|
|
<ele>11.858167</ele>
|
|
<time>2026-07-17T14:04:20.000Z</time>
|
|
</trkpt>
|
|
<trkpt lat="57.722966" lon="10.587457">
|
|
<ele>11.864779</ele>
|
|
<time>2026-07-17T14:04:21.000Z</time>
|
|
</trkpt>
|
|
<trkpt lat="57.722958" lon="10.587375">
|
|
<ele>11.871416</ele>
|
|
<time>2026-07-17T14:04:22.000Z</time>
|
|
</trkpt>
|
|
<trkpt lat="57.722951" lon="10.587292">
|
|
<ele>11.878106</ele>
|
|
<time>2026-07-17T14:04:23.000Z</time>
|
|
</trkpt>
|
|
<trkpt lat="57.722941" lon="10.587210">
|
|
<ele>11.884803</ele>
|
|
<time>2026-07-17T14:04:24.000Z</time>
|
|
</trkpt>
|
|
<trkpt lat="57.722930" lon="10.587127">
|
|
<ele>11.891612</ele>
|
|
<time>2026-07-17T14:04:25.000Z</time>
|
|
</trkpt>
|
|
<trkpt lat="57.722920" lon="10.587041">
|
|
<ele>11.898620</ele>
|
|
<time>2026-07-17T14:04:26.000Z</time>
|
|
</trkpt>
|
|
<trkpt lat="57.722912" lon="10.586957">
|
|
<ele>11.905414</ele>
|
|
<time>2026-07-17T14:04:27.000Z</time>
|
|
</trkpt>
|
|
<trkpt lat="57.722905" lon="10.586875">
|
|
<ele>11.912025</ele>
|
|
<time>2026-07-17T14:04:28.000Z</time>
|
|
</trkpt>
|
|
<trkpt lat="57.722897" lon="10.586789">
|
|
<ele>11.918976</ele>
|
|
<time>2026-07-17T14:04:29.000Z</time>
|
|
</trkpt>
|
|
<trkpt lat="57.722889" lon="10.586702">
|
|
<ele>11.926005</ele>
|
|
<time>2026-07-17T14:04:30.000Z</time>
|
|
</trkpt>
|
|
<trkpt lat="57.722882" lon="10.586616">
|
|
<ele>11.932931</ele>
|
|
<time>2026-07-17T14:04:31.000Z</time>
|
|
</trkpt>
|
|
<trkpt lat="57.722874" lon="10.586530">
|
|
<ele>11.939882</ele>
|
|
<time>2026-07-17T14:04:32.000Z</time>
|
|
</trkpt>
|
|
<trkpt lat="57.722867" lon="10.586444">
|
|
<ele>11.946808</ele>
|
|
<time>2026-07-17T14:04:33.000Z</time>
|
|
</trkpt>
|
|
<trkpt lat="57.722861" lon="10.586358">
|
|
<ele>11.953714</ele>
|
|
<time>2026-07-17T14:04:34.000Z</time>
|
|
</trkpt>
|
|
<trkpt lat="57.722855" lon="10.586272">
|
|
<ele>11.960619</ele>
|
|
<time>2026-07-17T14:04:35.000Z</time>
|
|
</trkpt>
|
|
<trkpt lat="57.722847" lon="10.586184">
|
|
<ele>11.967727</ele>
|
|
<time>2026-07-17T14:04:36.000Z</time>
|
|
</trkpt>
|
|
<trkpt lat="57.722840" lon="10.586096">
|
|
<ele>11.974811</ele>
|
|
<time>2026-07-17T14:04:37.000Z</time>
|
|
</trkpt>
|
|
<trkpt lat="57.722834" lon="10.586009">
|
|
<ele>11.981795</ele>
|
|
<time>2026-07-17T14:04:38.000Z</time>
|
|
</trkpt>
|
|
<trkpt lat="57.722828" lon="10.585921">
|
|
<ele>11.988859</ele>
|
|
<time>2026-07-17T14:04:39.000Z</time>
|
|
</trkpt>
|
|
<trkpt lat="57.722821" lon="10.585832">
|
|
<ele>11.996022</ele>
|
|
<time>2026-07-17T14:04:40.000Z</time>
|
|
</trkpt>
|
|
<trkpt lat="57.722815" lon="10.585745">
|
|
<ele>12.003006</ele>
|
|
<time>2026-07-17T14:04:41.000Z</time>
|
|
</trkpt>
|
|
<trkpt lat="57.722809" lon="10.585659">
|
|
<ele>12.009912</ele>
|
|
<time>2026-07-17T14:04:42.000Z</time>
|
|
</trkpt>
|
|
<trkpt lat="57.722803" lon="10.585573">
|
|
<ele>12.016817</ele>
|
|
<time>2026-07-17T14:04:43.000Z</time>
|
|
</trkpt>
|
|
<trkpt lat="57.722798" lon="10.585487">
|
|
<ele>12.023705</ele>
|
|
<time>2026-07-17T14:04:44.000Z</time>
|
|
</trkpt>
|
|
<trkpt lat="57.722792" lon="10.585402">
|
|
<ele>12.030532</ele>
|
|
<time>2026-07-17T14:04:45.000Z</time>
|
|
</trkpt>
|
|
<trkpt lat="57.722786" lon="10.585319">
|
|
<ele>12.037201</ele>
|
|
<time>2026-07-17T14:04:46.000Z</time>
|
|
</trkpt>
|
|
<trkpt lat="57.722782" lon="10.585236">
|
|
<ele>12.043836</ele>
|
|
<time>2026-07-17T14:04:47.000Z</time>
|
|
</trkpt>
|
|
<trkpt lat="57.722781" lon="10.585153">
|
|
<ele>12.050446</ele>
|
|
<time>2026-07-17T14:04:48.000Z</time>
|
|
</trkpt>
|
|
<trkpt lat="57.722777" lon="10.585072">
|
|
<ele>12.056923</ele>
|
|
<time>2026-07-17T14:04:49.000Z</time>
|
|
</trkpt>
|
|
<trkpt lat="57.722773" lon="10.584993">
|
|
<ele>12.063241</ele>
|
|
<time>2026-07-17T14:04:50.000Z</time>
|
|
</trkpt>
|
|
<trkpt lat="57.722769" lon="10.584916">
|
|
<ele>12.069401</ele>
|
|
<time>2026-07-17T14:04:51.000Z</time>
|
|
</trkpt>
|
|
<trkpt lat="57.722764" lon="10.584841">
|
|
<ele>12.072967</ele>
|
|
<time>2026-07-17T14:04:52.000Z</time>
|
|
</trkpt>
|
|
<trkpt lat="57.722756" lon="10.584766">
|
|
<ele>12.074860</ele>
|
|
<time>2026-07-17T14:04:53.000Z</time>
|
|
</trkpt>
|
|
<trkpt lat="57.722750" lon="10.584693">
|
|
<ele>12.076687</ele>
|
|
<time>2026-07-17T14:04:54.000Z</time>
|
|
</trkpt>
|
|
<trkpt lat="57.722746" lon="10.584621">
|
|
<ele>12.078478</ele>
|
|
<time>2026-07-17T14:04:55.000Z</time>
|
|
</trkpt>
|
|
<trkpt lat="57.722742" lon="10.584553">
|
|
<ele>12.080171</ele>
|
|
<time>2026-07-17T14:04:56.000Z</time>
|
|
</trkpt>
|
|
<trkpt lat="57.722739" lon="10.584487">
|
|
<ele>12.081809</ele>
|
|
<time>2026-07-17T14:04:57.000Z</time>
|
|
</trkpt>
|
|
<trkpt lat="57.722735" lon="10.584423">
|
|
<ele>12.083404</ele>
|
|
<time>2026-07-17T14:04:58.000Z</time>
|
|
</trkpt>
|
|
<trkpt lat="57.722729" lon="10.584358">
|
|
<ele>12.085036</ele>
|
|
<time>2026-07-17T14:04:59.000Z</time>
|
|
</trkpt>
|
|
<trkpt lat="57.722725" lon="10.584291">
|
|
<ele>12.086704</ele>
|
|
<time>2026-07-17T14:05:00.000Z</time>
|
|
</trkpt>
|
|
<trkpt lat="57.722722" lon="10.584222">
|
|
<ele>12.088417</ele>
|
|
<time>2026-07-17T14:05:01.000Z</time>
|
|
</trkpt>
|
|
<trkpt lat="57.722717" lon="10.584154">
|
|
<ele>12.090115</ele>
|
|
<time>2026-07-17T14:05:02.000Z</time>
|
|
</trkpt>
|
|
<trkpt lat="57.722716" lon="10.584086">
|
|
<ele>12.091798</ele>
|
|
<time>2026-07-17T14:05:03.000Z</time>
|
|
</trkpt>
|
|
<trkpt lat="57.722713" lon="10.584018">
|
|
<ele>12.093486</ele>
|
|
<time>2026-07-17T14:05:04.000Z</time>
|
|
</trkpt>
|
|
<trkpt lat="57.722713" lon="10.583952">
|
|
<ele>12.095119</ele>
|
|
<time>2026-07-17T14:05:05.000Z</time>
|
|
</trkpt>
|
|
<trkpt lat="57.722712" lon="10.583886">
|
|
<ele>12.096753</ele>
|
|
<time>2026-07-17T14:05:06.000Z</time>
|
|
</trkpt>
|
|
<trkpt lat="57.722710" lon="10.583822">
|
|
<ele>12.098339</ele>
|
|
<time>2026-07-17T14:05:07.000Z</time>
|
|
</trkpt>
|
|
<trkpt lat="57.722708" lon="10.583766">
|
|
<ele>12.099728</ele>
|
|
<time>2026-07-17T14:05:08.000Z</time>
|
|
</trkpt>
|
|
<trkpt lat="57.722706" lon="10.583725">
|
|
<ele>12.100746</ele>
|
|
<time>2026-07-17T14:05:09.000Z</time>
|
|
</trkpt>
|
|
<trkpt lat="57.722706" lon="10.583693">
|
|
<ele>12.101538</ele>
|
|
<time>2026-07-17T14:05:10.000Z</time>
|
|
</trkpt>
|
|
<trkpt lat="57.722703" lon="10.583661">
|
|
<ele>12.102342</ele>
|
|
<time>2026-07-17T14:05:11.000Z</time>
|
|
</trkpt>
|
|
<trkpt lat="57.722698" lon="10.583623">
|
|
<ele>12.103310</ele>
|
|
<time>2026-07-17T14:05:12.000Z</time>
|
|
</trkpt>
|
|
<trkpt lat="57.722695" lon="10.583573">
|
|
<ele>12.104555</ele>
|
|
<time>2026-07-17T14:05:13.000Z</time>
|
|
</trkpt>
|
|
<trkpt lat="57.722689" lon="10.583513">
|
|
<ele>12.106065</ele>
|
|
<time>2026-07-17T14:05:14.000Z</time>
|
|
</trkpt>
|
|
<trkpt lat="57.722684" lon="10.583447">
|
|
<ele>12.107715</ele>
|
|
<time>2026-07-17T14:05:15.000Z</time>
|
|
</trkpt>
|
|
<trkpt lat="57.722676" lon="10.583375">
|
|
<ele>12.109534</ele>
|
|
<time>2026-07-17T14:05:16.000Z</time>
|
|
</trkpt>
|
|
<trkpt lat="57.722668" lon="10.583298">
|
|
<ele>12.111475</ele>
|
|
<time>2026-07-17T14:05:17.000Z</time>
|
|
</trkpt>
|
|
<trkpt lat="57.722662" lon="10.583216">
|
|
<ele>12.113523</ele>
|
|
<time>2026-07-17T14:05:18.000Z</time>
|
|
</trkpt>
|
|
<trkpt lat="57.722657" lon="10.583131">
|
|
<ele>12.115639</ele>
|
|
<time>2026-07-17T14:05:19.000Z</time>
|
|
</trkpt>
|
|
<trkpt lat="57.722649" lon="10.583046">
|
|
<ele>12.117774</ele>
|
|
<time>2026-07-17T14:05:20.000Z</time>
|
|
</trkpt>
|
|
<trkpt lat="57.722642" lon="10.582961">
|
|
<ele>12.119902</ele>
|
|
<time>2026-07-17T14:05:21.000Z</time>
|
|
</trkpt>
|
|
<trkpt lat="57.722634" lon="10.582873">
|
|
<ele>12.122111</ele>
|
|
<time>2026-07-17T14:05:22.000Z</time>
|
|
</trkpt>
|
|
<trkpt lat="57.722626" lon="10.582783">
|
|
<ele>12.124368</ele>
|
|
<time>2026-07-17T14:05:23.000Z</time>
|
|
</trkpt>
|
|
<trkpt lat="57.722619" lon="10.582691">
|
|
<ele>12.126667</ele>
|
|
<time>2026-07-17T14:05:24.000Z</time>
|
|
</trkpt>
|
|
<trkpt lat="57.722611" lon="10.582597">
|
|
<ele>12.129022</ele>
|
|
<time>2026-07-17T14:05:25.000Z</time>
|
|
</trkpt>
|
|
<trkpt lat="57.722602" lon="10.582502">
|
|
<ele>12.131410</ele>
|
|
<time>2026-07-17T14:05:26.000Z</time>
|
|
</trkpt>
|
|
<trkpt lat="57.722594" lon="10.582408">
|
|
<ele>12.133765</ele>
|
|
<time>2026-07-17T14:05:27.000Z</time>
|
|
</trkpt>
|
|
<trkpt lat="57.722586" lon="10.582314">
|
|
<ele>12.136120</ele>
|
|
<time>2026-07-17T14:05:28.000Z</time>
|
|
</trkpt>
|
|
<trkpt lat="57.722577" lon="10.582221">
|
|
<ele>12.138458</ele>
|
|
<time>2026-07-17T14:05:29.000Z</time>
|
|
</trkpt>
|
|
<trkpt lat="57.722569" lon="10.582129">
|
|
<ele>12.140764</ele>
|
|
<time>2026-07-17T14:05:30.000Z</time>
|
|
</trkpt>
|
|
<trkpt lat="57.722560" lon="10.582038">
|
|
<ele>12.143054</ele>
|
|
<time>2026-07-17T14:05:31.000Z</time>
|
|
</trkpt>
|
|
<trkpt lat="57.722550" lon="10.581948">
|
|
<ele>12.145329</ele>
|
|
<time>2026-07-17T14:05:32.000Z</time>
|
|
</trkpt>
|
|
<trkpt lat="57.722542" lon="10.581857">
|
|
<ele>12.147610</ele>
|
|
<time>2026-07-17T14:05:33.000Z</time>
|
|
</trkpt>
|
|
<trkpt lat="57.722536" lon="10.581763">
|
|
<ele>12.149953</ele>
|
|
<time>2026-07-17T14:05:34.000Z</time>
|
|
</trkpt>
|
|
<trkpt lat="57.722531" lon="10.581671">
|
|
<ele>12.152241</ele>
|
|
<time>2026-07-17T14:05:35.000Z</time>
|
|
</trkpt>
|
|
<trkpt lat="57.722525" lon="10.581581">
|
|
<ele>12.154485</ele>
|
|
<time>2026-07-17T14:05:36.000Z</time>
|
|
</trkpt>
|
|
<trkpt lat="57.722521" lon="10.581491">
|
|
<ele>12.147501</ele>
|
|
<time>2026-07-17T14:05:37.000Z</time>
|
|
</trkpt>
|
|
<trkpt lat="57.722516" lon="10.581402">
|
|
<ele>12.136319</ele>
|
|
<time>2026-07-17T14:05:38.000Z</time>
|
|
</trkpt>
|
|
<trkpt lat="57.722508" lon="10.581314">
|
|
<ele>12.125164</ele>
|
|
<time>2026-07-17T14:05:39.000Z</time>
|
|
</trkpt>
|
|
<trkpt lat="57.722502" lon="10.581228">
|
|
<ele>12.114327</ele>
|
|
<time>2026-07-17T14:05:40.000Z</time>
|
|
</trkpt>
|
|
<trkpt lat="57.722497" lon="10.581138">
|
|
<ele>12.103020</ele>
|
|
<time>2026-07-17T14:05:41.000Z</time>
|
|
</trkpt>
|
|
<trkpt lat="57.722489" lon="10.581049">
|
|
<ele>12.091743</ele>
|
|
<time>2026-07-17T14:05:42.000Z</time>
|
|
</trkpt>
|
|
<trkpt lat="57.722480" lon="10.580960">
|
|
<ele>12.080424</ele>
|
|
<time>2026-07-17T14:05:43.000Z</time>
|
|
</trkpt>
|
|
<trkpt lat="57.722471" lon="10.580869">
|
|
<ele>12.068860</ele>
|
|
<time>2026-07-17T14:05:44.000Z</time>
|
|
</trkpt>
|
|
<trkpt lat="57.722469" lon="10.580777">
|
|
<ele>12.057355</ele>
|
|
<time>2026-07-17T14:05:45.000Z</time>
|
|
</trkpt>
|
|
<trkpt lat="57.722468" lon="10.580686">
|
|
<ele>12.045981</ele>
|
|
<time>2026-07-17T14:05:46.000Z</time>
|
|
</trkpt>
|
|
<trkpt lat="57.722464" lon="10.580598">
|
|
<ele>12.034946</ele>
|
|
<time>2026-07-17T14:05:47.000Z</time>
|
|
</trkpt>
|
|
<trkpt lat="57.722457" lon="10.580513">
|
|
<ele>12.024199</ele>
|
|
<time>2026-07-17T14:05:48.000Z</time>
|
|
</trkpt>
|
|
<trkpt lat="57.722445" lon="10.580431">
|
|
<ele>12.013575</ele>
|
|
<time>2026-07-17T14:05:49.000Z</time>
|
|
</trkpt>
|
|
<trkpt lat="57.722434" lon="10.580350">
|
|
<ele>12.003131</ele>
|
|
<time>2026-07-17T14:05:50.000Z</time>
|
|
</trkpt>
|
|
<trkpt lat="57.722424" lon="10.580267">
|
|
<ele>11.992499</ele>
|
|
<time>2026-07-17T14:05:51.000Z</time>
|
|
</trkpt>
|
|
<trkpt lat="57.722415" lon="10.580181">
|
|
<ele>11.981549</ele>
|
|
<time>2026-07-17T14:05:52.000Z</time>
|
|
</trkpt>
|
|
<trkpt lat="57.722407" lon="10.580089">
|
|
<ele>11.969901</ele>
|
|
<time>2026-07-17T14:05:53.000Z</time>
|
|
</trkpt>
|
|
<trkpt lat="57.722401" lon="10.579993">
|
|
<ele>11.957824</ele>
|
|
<time>2026-07-17T14:05:54.000Z</time>
|
|
</trkpt>
|
|
<trkpt lat="57.722392" lon="10.579897">
|
|
<ele>11.945645</ele>
|
|
<time>2026-07-17T14:05:55.000Z</time>
|
|
</trkpt>
|
|
<trkpt lat="57.722379" lon="10.579802">
|
|
<ele>11.933390</ele>
|
|
<time>2026-07-17T14:05:56.000Z</time>
|
|
</trkpt>
|
|
<trkpt lat="57.722365" lon="10.579704">
|
|
<ele>11.920714</ele>
|
|
<time>2026-07-17T14:05:57.000Z</time>
|
|
</trkpt>
|
|
<trkpt lat="57.722355" lon="10.579599">
|
|
<ele>11.907387</ele>
|
|
<time>2026-07-17T14:05:58.000Z</time>
|
|
</trkpt>
|
|
<trkpt lat="57.722346" lon="10.579489">
|
|
<ele>11.893481</ele>
|
|
<time>2026-07-17T14:05:59.000Z</time>
|
|
</trkpt>
|
|
<trkpt lat="57.722335" lon="10.579377">
|
|
<ele>11.879252</ele>
|
|
<time>2026-07-17T14:06:00.000Z</time>
|
|
</trkpt>
|
|
<trkpt lat="57.722327" lon="10.579261">
|
|
<ele>11.864636</ele>
|
|
<time>2026-07-17T14:06:01.000Z</time>
|
|
</trkpt>
|
|
<trkpt lat="57.722319" lon="10.579143">
|
|
<ele>11.849773</ele>
|
|
<time>2026-07-17T14:06:02.000Z</time>
|
|
</trkpt>
|
|
<trkpt lat="57.722308" lon="10.579024">
|
|
<ele>11.834682</ele>
|
|
<time>2026-07-17T14:06:03.000Z</time>
|
|
</trkpt>
|
|
<trkpt lat="57.722298" lon="10.578900">
|
|
<ele>11.819012</ele>
|
|
<time>2026-07-17T14:06:04.000Z</time>
|
|
</trkpt>
|
|
<trkpt lat="57.722292" lon="10.578777">
|
|
<ele>11.803579</ele>
|
|
<time>2026-07-17T14:06:05.000Z</time>
|
|
</trkpt>
|
|
<trkpt lat="57.722285" lon="10.578659">
|
|
<ele>11.788743</ele>
|
|
<time>2026-07-17T14:06:06.000Z</time>
|
|
</trkpt>
|
|
<trkpt lat="57.722277" lon="10.578546">
|
|
<ele>11.774500</ele>
|
|
<time>2026-07-17T14:06:07.000Z</time>
|
|
</trkpt>
|
|
<trkpt lat="57.722270" lon="10.578439">
|
|
<ele>11.761029</ele>
|
|
<time>2026-07-17T14:06:08.000Z</time>
|
|
</trkpt>
|
|
<trkpt lat="57.722258" lon="10.578332">
|
|
<ele>11.747368</ele>
|
|
<time>2026-07-17T14:06:09.000Z</time>
|
|
</trkpt>
|
|
<trkpt lat="57.722249" lon="10.578225">
|
|
<ele>11.734570</ele>
|
|
<time>2026-07-17T14:06:10.000Z</time>
|
|
</trkpt>
|
|
<trkpt lat="57.722241" lon="10.578118">
|
|
<ele>11.740960</ele>
|
|
<time>2026-07-17T14:06:11.000Z</time>
|
|
</trkpt>
|
|
<trkpt lat="57.722232" lon="10.578014">
|
|
<ele>11.747191</ele>
|
|
<time>2026-07-17T14:06:12.000Z</time>
|
|
</trkpt>
|
|
<trkpt lat="57.722222" lon="10.577911">
|
|
<ele>11.753382</ele>
|
|
<time>2026-07-17T14:06:13.000Z</time>
|
|
</trkpt>
|
|
<trkpt lat="57.722214" lon="10.577808">
|
|
<ele>11.759538</ele>
|
|
<time>2026-07-17T14:06:14.000Z</time>
|
|
</trkpt>
|
|
<trkpt lat="57.722208" lon="10.577708">
|
|
<ele>11.765489</ele>
|
|
<time>2026-07-17T14:06:15.000Z</time>
|
|
</trkpt>
|
|
<trkpt lat="57.722203" lon="10.577614">
|
|
<ele>11.771076</ele>
|
|
<time>2026-07-17T14:06:16.000Z</time>
|
|
</trkpt>
|
|
<trkpt lat="57.722198" lon="10.577532">
|
|
<ele>11.775957</ele>
|
|
<time>2026-07-17T14:06:17.000Z</time>
|
|
</trkpt>
|
|
<trkpt lat="57.722198" lon="10.577459">
|
|
<ele>11.780275</ele>
|
|
<time>2026-07-17T14:06:18.000Z</time>
|
|
</trkpt>
|
|
<trkpt lat="57.722198" lon="10.577385">
|
|
<ele>11.784651</ele>
|
|
<time>2026-07-17T14:06:19.000Z</time>
|
|
</trkpt>
|
|
<trkpt lat="57.722195" lon="10.577309">
|
|
<ele>11.789158</ele>
|
|
<time>2026-07-17T14:06:20.000Z</time>
|
|
</trkpt>
|
|
<trkpt lat="57.722188" lon="10.577227">
|
|
<ele>11.794070</ele>
|
|
<time>2026-07-17T14:06:21.000Z</time>
|
|
</trkpt>
|
|
<trkpt lat="57.722180" lon="10.577138">
|
|
<ele>11.799407</ele>
|
|
<time>2026-07-17T14:06:22.000Z</time>
|
|
</trkpt>
|
|
<trkpt lat="57.722174" lon="10.577046">
|
|
<ele>11.804889</ele>
|
|
<time>2026-07-17T14:06:23.000Z</time>
|
|
</trkpt>
|
|
<trkpt lat="57.722168" lon="10.576950">
|
|
<ele>11.810605</ele>
|
|
<time>2026-07-17T14:06:24.000Z</time>
|
|
</trkpt>
|
|
<trkpt lat="57.722161" lon="10.576851">
|
|
<ele>11.816512</ele>
|
|
<time>2026-07-17T14:06:25.000Z</time>
|
|
</trkpt>
|
|
<trkpt lat="57.722152" lon="10.576751">
|
|
<ele>11.822509</ele>
|
|
<time>2026-07-17T14:06:26.000Z</time>
|
|
</trkpt>
|
|
<trkpt lat="57.722140" lon="10.576651">
|
|
<ele>11.828571</ele>
|
|
<time>2026-07-17T14:06:27.000Z</time>
|
|
</trkpt>
|
|
<trkpt lat="57.722130" lon="10.576552">
|
|
<ele>11.834530</ele>
|
|
<time>2026-07-17T14:06:28.000Z</time>
|
|
</trkpt>
|
|
<trkpt lat="57.722123" lon="10.576456">
|
|
<ele>11.840260</ele>
|
|
<time>2026-07-17T14:06:29.000Z</time>
|
|
</trkpt>
|
|
<trkpt lat="57.722115" lon="10.576363">
|
|
<ele>11.845831</ele>
|
|
<time>2026-07-17T14:06:30.000Z</time>
|
|
</trkpt>
|
|
<trkpt lat="57.722108" lon="10.576273">
|
|
<ele>11.851210</ele>
|
|
<time>2026-07-17T14:06:31.000Z</time>
|
|
</trkpt>
|
|
<trkpt lat="57.722098" lon="10.576189">
|
|
<ele>11.856300</ele>
|
|
<time>2026-07-17T14:06:32.000Z</time>
|
|
</trkpt>
|
|
<trkpt lat="57.722088" lon="10.576108">
|
|
<ele>11.861217</ele>
|
|
<time>2026-07-17T14:06:33.000Z</time>
|
|
</trkpt>
|
|
<trkpt lat="57.722081" lon="10.576028">
|
|
<ele>11.866012</ele>
|
|
<time>2026-07-17T14:06:34.000Z</time>
|
|
</trkpt>
|
|
<trkpt lat="57.722073" lon="10.575950">
|
|
<ele>11.870709</ele>
|
|
<time>2026-07-17T14:06:35.000Z</time>
|
|
</trkpt>
|
|
<trkpt lat="57.722066" lon="10.575873">
|
|
<ele>11.875329</ele>
|
|
<time>2026-07-17T14:06:36.000Z</time>
|
|
</trkpt>
|
|
<trkpt lat="57.722058" lon="10.575798">
|
|
<ele>11.879852</ele>
|
|
<time>2026-07-17T14:06:37.000Z</time>
|
|
</trkpt>
|
|
<trkpt lat="57.722054" lon="10.575724">
|
|
<ele>11.884251</ele>
|
|
<time>2026-07-17T14:06:38.000Z</time>
|
|
</trkpt>
|
|
<trkpt lat="57.722050" lon="10.575648">
|
|
<ele>11.888768</ele>
|
|
<time>2026-07-17T14:06:39.000Z</time>
|
|
</trkpt>
|
|
<trkpt lat="57.722044" lon="10.575570">
|
|
<ele>11.893428</ele>
|
|
<time>2026-07-17T14:06:40.000Z</time>
|
|
</trkpt>
|
|
<trkpt lat="57.722040" lon="10.575489">
|
|
<ele>11.898239</ele>
|
|
<time>2026-07-17T14:06:41.000Z</time>
|
|
</trkpt>
|
|
<trkpt lat="57.722035" lon="10.575404">
|
|
<ele>11.903297</ele>
|
|
<time>2026-07-17T14:06:42.000Z</time>
|
|
</trkpt>
|
|
<trkpt lat="57.722031" lon="10.575316">
|
|
<ele>11.908520</ele>
|
|
<time>2026-07-17T14:06:43.000Z</time>
|
|
</trkpt>
|
|
<trkpt lat="57.722031" lon="10.575225">
|
|
<ele>11.913902</ele>
|
|
<time>2026-07-17T14:06:44.000Z</time>
|
|
</trkpt>
|
|
<trkpt lat="57.722031" lon="10.575131">
|
|
<ele>11.919462</ele>
|
|
<time>2026-07-17T14:06:45.000Z</time>
|
|
</trkpt>
|
|
<trkpt lat="57.722031" lon="10.575034">
|
|
<ele>11.925199</ele>
|
|
<time>2026-07-17T14:06:46.000Z</time>
|
|
</trkpt>
|
|
<trkpt lat="57.722029" lon="10.574934">
|
|
<ele>11.931117</ele>
|
|
<time>2026-07-17T14:06:47.000Z</time>
|
|
</trkpt>
|
|
<trkpt lat="57.722027" lon="10.574830">
|
|
<ele>11.930145</ele>
|
|
<time>2026-07-17T14:06:48.000Z</time>
|
|
</trkpt>
|
|
<trkpt lat="57.722025" lon="10.574722">
|
|
<ele>11.924363</ele>
|
|
<time>2026-07-17T14:06:49.000Z</time>
|
|
</trkpt>
|
|
<trkpt lat="57.722021" lon="10.574617">
|
|
<ele>11.918731</ele>
|
|
<time>2026-07-17T14:06:50.000Z</time>
|
|
</trkpt>
|
|
<trkpt lat="57.722019" lon="10.574511">
|
|
<ele>11.913056</ele>
|
|
<time>2026-07-17T14:06:51.000Z</time>
|
|
</trkpt>
|
|
<trkpt lat="57.722019" lon="10.574404">
|
|
<ele>11.907331</ele>
|
|
<time>2026-07-17T14:06:52.000Z</time>
|
|
</trkpt>
|
|
<trkpt lat="57.722019" lon="10.574300">
|
|
<ele>11.901767</ele>
|
|
<time>2026-07-17T14:06:53.000Z</time>
|
|
</trkpt>
|
|
<trkpt lat="57.722018" lon="10.574198">
|
|
<ele>11.896308</ele>
|
|
<time>2026-07-17T14:06:54.000Z</time>
|
|
</trkpt>
|
|
<trkpt lat="57.722015" lon="10.574095">
|
|
<ele>11.890789</ele>
|
|
<time>2026-07-17T14:06:55.000Z</time>
|
|
</trkpt>
|
|
<trkpt lat="57.722015" lon="10.573988">
|
|
<ele>11.885064</ele>
|
|
<time>2026-07-17T14:06:56.000Z</time>
|
|
</trkpt>
|
|
<trkpt lat="57.722014" lon="10.573878">
|
|
<ele>11.879178</ele>
|
|
<time>2026-07-17T14:06:57.000Z</time>
|
|
</trkpt>
|
|
<trkpt lat="57.722012" lon="10.573768">
|
|
<ele>11.873289</ele>
|
|
<time>2026-07-17T14:06:58.000Z</time>
|
|
</trkpt>
|
|
<trkpt lat="57.722012" lon="10.573658">
|
|
<ele>11.867404</ele>
|
|
<time>2026-07-17T14:06:59.000Z</time>
|
|
</trkpt>
|
|
<trkpt lat="57.722010" lon="10.573550">
|
|
<ele>11.861622</ele>
|
|
<time>2026-07-17T14:07:00.000Z</time>
|
|
</trkpt>
|
|
<trkpt lat="57.722008" lon="10.573442">
|
|
<ele>11.855840</ele>
|
|
<time>2026-07-17T14:07:01.000Z</time>
|
|
</trkpt>
|
|
<trkpt lat="57.722008" lon="10.573335">
|
|
<ele>11.850115</ele>
|
|
<time>2026-07-17T14:07:02.000Z</time>
|
|
</trkpt>
|
|
<trkpt lat="57.722008" lon="10.573227">
|
|
<ele>11.844337</ele>
|
|
<time>2026-07-17T14:07:03.000Z</time>
|
|
</trkpt>
|
|
<trkpt lat="57.722006" lon="10.573118">
|
|
<ele>11.838502</ele>
|
|
<time>2026-07-17T14:07:04.000Z</time>
|
|
</trkpt>
|
|
<trkpt lat="57.722004" lon="10.573010">
|
|
<ele>11.832720</ele>
|
|
<time>2026-07-17T14:07:05.000Z</time>
|
|
</trkpt>
|
|
<trkpt lat="57.722002" lon="10.572903">
|
|
<ele>11.826991</ele>
|
|
<time>2026-07-17T14:07:06.000Z</time>
|
|
</trkpt>
|
|
<trkpt lat="57.722002" lon="10.572792">
|
|
<ele>11.821052</ele>
|
|
<time>2026-07-17T14:07:07.000Z</time>
|
|
</trkpt>
|
|
<trkpt lat="57.722004" lon="10.572680">
|
|
<ele>11.815057</ele>
|
|
<time>2026-07-17T14:07:08.000Z</time>
|
|
</trkpt>
|
|
<trkpt lat="57.722004" lon="10.572569">
|
|
<ele>11.809118</ele>
|
|
<time>2026-07-17T14:07:09.000Z</time>
|
|
</trkpt>
|
|
<trkpt lat="57.722004" lon="10.572459">
|
|
<ele>11.803232</ele>
|
|
<time>2026-07-17T14:07:10.000Z</time>
|
|
</trkpt>
|
|
<trkpt lat="57.722002" lon="10.572349">
|
|
<ele>11.797344</ele>
|
|
<time>2026-07-17T14:07:11.000Z</time>
|
|
</trkpt>
|
|
<trkpt lat="57.722000" lon="10.572240">
|
|
<ele>11.791508</ele>
|
|
<time>2026-07-17T14:07:12.000Z</time>
|
|
</trkpt>
|
|
<trkpt lat="57.722002" lon="10.572134">
|
|
<ele>11.785833</ele>
|
|
<time>2026-07-17T14:07:13.000Z</time>
|
|
</trkpt>
|
|
<trkpt lat="57.722004" lon="10.572030">
|
|
<ele>11.780265</ele>
|
|
<time>2026-07-17T14:07:14.000Z</time>
|
|
</trkpt>
|
|
<trkpt lat="57.722006" lon="10.571925">
|
|
<ele>11.774644</ele>
|
|
<time>2026-07-17T14:07:15.000Z</time>
|
|
</trkpt>
|
|
<trkpt lat="57.722008" lon="10.571819">
|
|
<ele>11.768969</ele>
|
|
<time>2026-07-17T14:07:16.000Z</time>
|
|
</trkpt>
|
|
<trkpt lat="57.722009" lon="10.571714">
|
|
<ele>11.763350</ele>
|
|
<time>2026-07-17T14:07:17.000Z</time>
|
|
</trkpt>
|
|
<trkpt lat="57.722013" lon="10.571613">
|
|
<ele>11.757932</ele>
|
|
<time>2026-07-17T14:07:18.000Z</time>
|
|
</trkpt>
|
|
<trkpt lat="57.722019" lon="10.571514">
|
|
<ele>11.756469</ele>
|
|
<time>2026-07-17T14:07:19.000Z</time>
|
|
</trkpt>
|
|
<trkpt lat="57.722025" lon="10.571414">
|
|
<ele>11.779797</ele>
|
|
<time>2026-07-17T14:07:20.000Z</time>
|
|
</trkpt>
|
|
<trkpt lat="57.722030" lon="10.571315">
|
|
<ele>11.802849</ele>
|
|
<time>2026-07-17T14:07:21.000Z</time>
|
|
</trkpt>
|
|
<trkpt lat="57.722036" lon="10.571212">
|
|
<ele>11.826868</ele>
|
|
<time>2026-07-17T14:07:22.000Z</time>
|
|
</trkpt>
|
|
<trkpt lat="57.722042" lon="10.571105">
|
|
<ele>11.851810</ele>
|
|
<time>2026-07-17T14:07:23.000Z</time>
|
|
</trkpt>
|
|
<trkpt lat="57.722049" lon="10.570998">
|
|
<ele>11.876800</ele>
|
|
<time>2026-07-17T14:07:24.000Z</time>
|
|
</trkpt>
|
|
<trkpt lat="57.722057" lon="10.570891">
|
|
<ele>11.901847</ele>
|
|
<time>2026-07-17T14:07:25.000Z</time>
|
|
</trkpt>
|
|
<trkpt lat="57.722064" lon="10.570784">
|
|
<ele>11.926837</ele>
|
|
<time>2026-07-17T14:07:26.000Z</time>
|
|
</trkpt>
|
|
<trkpt lat="57.722072" lon="10.570679">
|
|
<ele>11.951424</ele>
|
|
<time>2026-07-17T14:07:27.000Z</time>
|
|
</trkpt>
|
|
<trkpt lat="57.722080" lon="10.570574">
|
|
<ele>11.976012</ele>
|
|
<time>2026-07-17T14:07:28.000Z</time>
|
|
</trkpt>
|
|
<trkpt lat="57.722087" lon="10.570469">
|
|
<ele>12.000542</ele>
|
|
<time>2026-07-17T14:07:29.000Z</time>
|
|
</trkpt>
|
|
<trkpt lat="57.722097" lon="10.570363">
|
|
<ele>12.025495</ele>
|
|
<time>2026-07-17T14:07:30.000Z</time>
|
|
</trkpt>
|
|
<trkpt lat="57.722110" lon="10.570257">
|
|
<ele>12.050708</ele>
|
|
<time>2026-07-17T14:07:31.000Z</time>
|
|
</trkpt>
|
|
<trkpt lat="57.722123" lon="10.570152">
|
|
<ele>12.075695</ele>
|
|
<time>2026-07-17T14:07:32.000Z</time>
|
|
</trkpt>
|
|
<trkpt lat="57.722136" lon="10.570044">
|
|
<ele>12.101359</ele>
|
|
<time>2026-07-17T14:07:33.000Z</time>
|
|
</trkpt>
|
|
<trkpt lat="57.722150" lon="10.569934">
|
|
<ele>12.127574</ele>
|
|
<time>2026-07-17T14:07:34.000Z</time>
|
|
</trkpt>
|
|
<trkpt lat="57.722163" lon="10.569827">
|
|
<ele>12.153012</ele>
|
|
<time>2026-07-17T14:07:35.000Z</time>
|
|
</trkpt>
|
|
<trkpt lat="57.722178" lon="10.569717">
|
|
<ele>12.179331</ele>
|
|
<time>2026-07-17T14:07:36.000Z</time>
|
|
</trkpt>
|
|
<trkpt lat="57.722193" lon="10.569607">
|
|
<ele>12.205649</ele>
|
|
<time>2026-07-17T14:07:37.000Z</time>
|
|
</trkpt>
|
|
<trkpt lat="57.722209" lon="10.569499">
|
|
<ele>12.231631</ele>
|
|
<time>2026-07-17T14:07:38.000Z</time>
|
|
</trkpt>
|
|
<trkpt lat="57.722225" lon="10.569392">
|
|
<ele>12.257390</ele>
|
|
<time>2026-07-17T14:07:39.000Z</time>
|
|
</trkpt>
|
|
<trkpt lat="57.722246" lon="10.569286">
|
|
<ele>12.283599</ele>
|
|
<time>2026-07-17T14:07:40.000Z</time>
|
|
</trkpt>
|
|
<trkpt lat="57.722266" lon="10.569179">
|
|
<ele>12.309879</ele>
|
|
<time>2026-07-17T14:07:41.000Z</time>
|
|
</trkpt>
|
|
<trkpt lat="57.722285" lon="10.569074">
|
|
<ele>12.335580</ele>
|
|
<time>2026-07-17T14:07:42.000Z</time>
|
|
</trkpt>
|
|
<trkpt lat="57.722306" lon="10.568969">
|
|
<ele>12.361572</ele>
|
|
<time>2026-07-17T14:07:43.000Z</time>
|
|
</trkpt>
|
|
<trkpt lat="57.722328" lon="10.568864">
|
|
<ele>12.387719</ele>
|
|
<time>2026-07-17T14:07:44.000Z</time>
|
|
</trkpt>
|
|
<trkpt lat="57.722352" lon="10.568761">
|
|
<ele>12.413770</ele>
|
|
<time>2026-07-17T14:07:45.000Z</time>
|
|
</trkpt>
|
|
<trkpt lat="57.722371" lon="10.568659">
|
|
<ele>12.438813</ele>
|
|
<time>2026-07-17T14:07:46.000Z</time>
|
|
</trkpt>
|
|
<trkpt lat="57.722393" lon="10.568560">
|
|
<ele>12.463671</ele>
|
|
<time>2026-07-17T14:07:47.000Z</time>
|
|
</trkpt>
|
|
<trkpt lat="57.722420" lon="10.568461">
|
|
<ele>12.489440</ele>
|
|
<time>2026-07-17T14:07:48.000Z</time>
|
|
</trkpt>
|
|
<trkpt lat="57.722446" lon="10.568360">
|
|
<ele>12.515432</ele>
|
|
<time>2026-07-17T14:07:49.000Z</time>
|
|
</trkpt>
|
|
<trkpt lat="57.722473" lon="10.568259">
|
|
<ele>12.540698</ele>
|
|
<time>2026-07-17T14:07:50.000Z</time>
|
|
</trkpt>
|
|
<trkpt lat="57.722500" lon="10.568161">
|
|
<ele>12.563136</ele>
|
|
<time>2026-07-17T14:07:51.000Z</time>
|
|
</trkpt>
|
|
<trkpt lat="57.722526" lon="10.568065">
|
|
<ele>12.585037</ele>
|
|
<time>2026-07-17T14:07:52.000Z</time>
|
|
</trkpt>
|
|
<trkpt lat="57.722553" lon="10.567969">
|
|
<ele>12.607113</ele>
|
|
<time>2026-07-17T14:07:53.000Z</time>
|
|
</trkpt>
|
|
<trkpt lat="57.722580" lon="10.567874">
|
|
<ele>12.629010</ele>
|
|
<time>2026-07-17T14:07:54.000Z</time>
|
|
</trkpt>
|
|
<trkpt lat="57.722605" lon="10.567780">
|
|
<ele>12.650376</ele>
|
|
<time>2026-07-17T14:07:55.000Z</time>
|
|
</trkpt>
|
|
<trkpt lat="57.722631" lon="10.567689">
|
|
<ele>12.671376</ele>
|
|
<time>2026-07-17T14:07:56.000Z</time>
|
|
</trkpt>
|
|
<trkpt lat="57.722660" lon="10.567596">
|
|
<ele>12.693288</ele>
|
|
<time>2026-07-17T14:07:57.000Z</time>
|
|
</trkpt>
|
|
<trkpt lat="57.722687" lon="10.567503">
|
|
<ele>12.714826</ele>
|
|
<time>2026-07-17T14:07:58.000Z</time>
|
|
</trkpt>
|
|
<trkpt lat="57.722713" lon="10.567412">
|
|
<ele>12.735825</ele>
|
|
<time>2026-07-17T14:07:59.000Z</time>
|
|
</trkpt>
|
|
<trkpt lat="57.722741" lon="10.567328">
|
|
<ele>12.755972</ele>
|
|
<time>2026-07-17T14:08:00.000Z</time>
|
|
</trkpt>
|
|
<trkpt lat="57.722771" lon="10.567244">
|
|
<ele>12.776534</ele>
|
|
<time>2026-07-17T14:08:01.000Z</time>
|
|
</trkpt>
|
|
<trkpt lat="57.722806" lon="10.567141">
|
|
<ele>12.801374</ele>
|
|
<time>2026-07-17T14:08:02.000Z</time>
|
|
</trkpt>
|
|
<trkpt lat="57.722839" lon="10.567050">
|
|
<ele>12.823755</ele>
|
|
<time>2026-07-17T14:08:03.000Z</time>
|
|
</trkpt>
|
|
<trkpt lat="57.722872" lon="10.566960">
|
|
<ele>12.845968</ele>
|
|
<time>2026-07-17T14:08:04.000Z</time>
|
|
</trkpt>
|
|
<trkpt lat="57.722904" lon="10.566874">
|
|
<ele>12.867295</ele>
|
|
<time>2026-07-17T14:08:05.000Z</time>
|
|
</trkpt>
|
|
<trkpt lat="57.722938" lon="10.566790">
|
|
<ele>12.888741</ele>
|
|
<time>2026-07-17T14:08:06.000Z</time>
|
|
</trkpt>
|
|
<trkpt lat="57.722974" lon="10.566706">
|
|
<ele>12.910655</ele>
|
|
<time>2026-07-17T14:08:07.000Z</time>
|
|
</trkpt>
|
|
<trkpt lat="57.723010" lon="10.566623">
|
|
<ele>12.932411</ele>
|
|
<time>2026-07-17T14:08:08.000Z</time>
|
|
</trkpt>
|
|
<trkpt lat="57.723043" lon="10.566537">
|
|
<ele>12.953958</ele>
|
|
<time>2026-07-17T14:08:09.000Z</time>
|
|
</trkpt>
|
|
<trkpt lat="57.723074" lon="10.566453">
|
|
<ele>12.974734</ele>
|
|
<time>2026-07-17T14:08:10.000Z</time>
|
|
</trkpt>
|
|
<trkpt lat="57.723104" lon="10.566369">
|
|
<ele>12.995295</ele>
|
|
<time>2026-07-17T14:08:11.000Z</time>
|
|
</trkpt>
|
|
<trkpt lat="57.723136" lon="10.566283">
|
|
<ele>13.016621</ele>
|
|
<time>2026-07-17T14:08:12.000Z</time>
|
|
</trkpt>
|
|
<trkpt lat="57.723169" lon="10.566197">
|
|
<ele>13.038168</ele>
|
|
<time>2026-07-17T14:08:13.000Z</time>
|
|
</trkpt>
|
|
<trkpt lat="57.723201" lon="10.566113">
|
|
<ele>13.059163</ele>
|
|
<time>2026-07-17T14:08:14.000Z</time>
|
|
</trkpt>
|
|
<trkpt lat="57.723235" lon="10.566030">
|
|
<ele>13.080446</ele>
|
|
<time>2026-07-17T14:08:15.000Z</time>
|
|
</trkpt>
|
|
<trkpt lat="57.723268" lon="10.565948">
|
|
<ele>13.101338</ele>
|
|
<time>2026-07-17T14:08:16.000Z</time>
|
|
</trkpt>
|
|
<trkpt lat="57.723300" lon="10.565868">
|
|
<ele>13.121675</ele>
|
|
<time>2026-07-17T14:08:17.000Z</time>
|
|
</trkpt>
|
|
<trkpt lat="57.723331" lon="10.565788">
|
|
<ele>13.141786</ele>
|
|
<time>2026-07-17T14:08:18.000Z</time>
|
|
</trkpt>
|
|
<trkpt lat="57.723360" lon="10.565709">
|
|
<ele>13.161291</ele>
|
|
<time>2026-07-17T14:08:19.000Z</time>
|
|
</trkpt>
|
|
<trkpt lat="57.723392" lon="10.565631">
|
|
<ele>13.181304</ele>
|
|
<time>2026-07-17T14:08:20.000Z</time>
|
|
</trkpt>
|
|
<trkpt lat="57.723424" lon="10.565557">
|
|
<ele>13.200678</ele>
|
|
<time>2026-07-17T14:08:21.000Z</time>
|
|
</trkpt>
|
|
<trkpt lat="57.723455" lon="10.565485">
|
|
<ele>13.219558</ele>
|
|
<time>2026-07-17T14:08:22.000Z</time>
|
|
</trkpt>
|
|
<trkpt lat="57.723486" lon="10.565410">
|
|
<ele>13.254664</ele>
|
|
<time>2026-07-17T14:08:23.000Z</time>
|
|
</trkpt>
|
|
<trkpt lat="57.723516" lon="10.565333">
|
|
<ele>13.289944</ele>
|
|
<time>2026-07-17T14:08:24.000Z</time>
|
|
</trkpt>
|
|
<trkpt lat="57.723547" lon="10.565255">
|
|
<ele>13.325934</ele>
|
|
<time>2026-07-17T14:08:25.000Z</time>
|
|
</trkpt>
|
|
<trkpt lat="57.723577" lon="10.565178">
|
|
<ele>13.361215</ele>
|
|
<time>2026-07-17T14:08:26.000Z</time>
|
|
</trkpt>
|
|
<trkpt lat="57.723607" lon="10.565101">
|
|
<ele>13.396495</ele>
|
|
<time>2026-07-17T14:08:27.000Z</time>
|
|
</trkpt>
|
|
<trkpt lat="57.723640" lon="10.565023">
|
|
<ele>13.433329</ele>
|
|
<time>2026-07-17T14:08:28.000Z</time>
|
|
</trkpt>
|
|
<trkpt lat="57.723671" lon="10.564945">
|
|
<ele>13.469319</ele>
|
|
<time>2026-07-17T14:08:29.000Z</time>
|
|
</trkpt>
|
|
<trkpt lat="57.723697" lon="10.564867">
|
|
<ele>13.503353</ele>
|
|
<time>2026-07-17T14:08:30.000Z</time>
|
|
</trkpt>
|
|
<trkpt lat="57.723724" lon="10.564787">
|
|
<ele>13.538383</ele>
|
|
<time>2026-07-17T14:08:31.000Z</time>
|
|
</trkpt>
|
|
<trkpt lat="57.723753" lon="10.564706">
|
|
<ele>13.574480</ele>
|
|
<time>2026-07-17T14:08:32.000Z</time>
|
|
</trkpt>
|
|
<trkpt lat="57.723783" lon="10.564629">
|
|
<ele>13.609760</ele>
|
|
<time>2026-07-17T14:08:33.000Z</time>
|
|
</trkpt>
|
|
<trkpt lat="57.723815" lon="10.564554">
|
|
<ele>13.645294</ele>
|
|
<time>2026-07-17T14:08:34.000Z</time>
|
|
</trkpt>
|
|
<trkpt lat="57.723848" lon="10.564483">
|
|
<ele>13.680134</ele>
|
|
<time>2026-07-17T14:08:35.000Z</time>
|
|
</trkpt>
|
|
<trkpt lat="57.723879" lon="10.564411">
|
|
<ele>13.714368</ele>
|
|
<time>2026-07-17T14:08:36.000Z</time>
|
|
</trkpt>
|
|
<trkpt lat="57.723909" lon="10.564342">
|
|
<ele>13.747302</ele>
|
|
<time>2026-07-17T14:08:37.000Z</time>
|
|
</trkpt>
|
|
<trkpt lat="57.723941" lon="10.564276">
|
|
<ele>13.780299</ele>
|
|
<time>2026-07-17T14:08:38.000Z</time>
|
|
</trkpt>
|
|
<trkpt lat="57.723975" lon="10.564210">
|
|
<ele>13.814243</ele>
|
|
<time>2026-07-17T14:08:39.000Z</time>
|
|
</trkpt>
|
|
<trkpt lat="57.724010" lon="10.564141">
|
|
<ele>13.849468</ele>
|
|
<time>2026-07-17T14:08:40.000Z</time>
|
|
</trkpt>
|
|
<trkpt lat="57.724044" lon="10.564073">
|
|
<ele>13.883949</ele>
|
|
<time>2026-07-17T14:08:41.000Z</time>
|
|
</trkpt>
|
|
<trkpt lat="57.724078" lon="10.564005">
|
|
<ele>13.918429</ele>
|
|
<time>2026-07-17T14:08:42.000Z</time>
|
|
</trkpt>
|
|
<trkpt lat="57.724112" lon="10.563939">
|
|
<ele>13.952373</ele>
|
|
<time>2026-07-17T14:08:43.000Z</time>
|
|
</trkpt>
|
|
<trkpt lat="57.724141" lon="10.563882">
|
|
<ele>13.981514</ele>
|
|
<time>2026-07-17T14:08:44.000Z</time>
|
|
</trkpt>
|
|
<trkpt lat="57.724166" lon="10.563832">
|
|
<ele>14.006867</ele>
|
|
<time>2026-07-17T14:08:45.000Z</time>
|
|
</trkpt>
|
|
<trkpt lat="57.724193" lon="10.563765">
|
|
<ele>14.037936</ele>
|
|
<time>2026-07-17T14:08:46.000Z</time>
|
|
</trkpt>
|
|
<trkpt lat="57.724218" lon="10.563696">
|
|
<ele>14.068799</ele>
|
|
<time>2026-07-17T14:08:47.000Z</time>
|
|
</trkpt>
|
|
<trkpt lat="57.724236" lon="10.563644">
|
|
<ele>14.091736</ele>
|
|
<time>2026-07-17T14:08:48.000Z</time>
|
|
</trkpt>
|
|
<trkpt lat="57.724269" lon="10.563561">
|
|
<ele>14.130038</ele>
|
|
<time>2026-07-17T14:08:49.000Z</time>
|
|
</trkpt>
|
|
<trkpt lat="57.724296" lon="10.563489">
|
|
<ele>14.162603</ele>
|
|
<time>2026-07-17T14:08:50.000Z</time>
|
|
</trkpt>
|
|
<trkpt lat="57.724319" lon="10.563427">
|
|
<ele>14.190545</ele>
|
|
<time>2026-07-17T14:08:51.000Z</time>
|
|
</trkpt>
|
|
<trkpt lat="57.724339" lon="10.563362">
|
|
<ele>14.218313</ele>
|
|
<time>2026-07-17T14:08:52.000Z</time>
|
|
</trkpt>
|
|
<trkpt lat="57.724356" lon="10.563301">
|
|
<ele>14.243781</ele>
|
|
<time>2026-07-17T14:08:53.000Z</time>
|
|
</trkpt>
|
|
<trkpt lat="57.724373" lon="10.563243">
|
|
<ele>14.268270</ele>
|
|
<time>2026-07-17T14:08:54.000Z</time>
|
|
</trkpt>
|
|
<trkpt lat="57.724391" lon="10.563190">
|
|
<ele>14.291519</ele>
|
|
<time>2026-07-17T14:08:55.000Z</time>
|
|
</trkpt>
|
|
<trkpt lat="57.724408" lon="10.563140">
|
|
<ele>14.313458</ele>
|
|
<time>2026-07-17T14:08:56.000Z</time>
|
|
</trkpt>
|
|
<trkpt lat="57.724423" lon="10.563085">
|
|
<ele>14.336317</ele>
|
|
<time>2026-07-17T14:08:57.000Z</time>
|
|
</trkpt>
|
|
<trkpt lat="57.724434" lon="10.563047">
|
|
<ele>14.352316</ele>
|
|
<time>2026-07-17T14:08:58.000Z</time>
|
|
</trkpt>
|
|
<trkpt lat="57.724461" lon="10.562981">
|
|
<ele>14.383090</ele>
|
|
<time>2026-07-17T14:08:59.000Z</time>
|
|
</trkpt>
|
|
<trkpt lat="57.724480" lon="10.562925">
|
|
<ele>14.407647</ele>
|
|
<time>2026-07-17T14:09:00.000Z</time>
|
|
</trkpt>
|
|
<trkpt lat="57.724494" lon="10.562882">
|
|
<ele>14.426288</ele>
|
|
<time>2026-07-17T14:09:01.000Z</time>
|
|
</trkpt>
|
|
<trkpt lat="57.724515" lon="10.562832">
|
|
<ele>14.449833</ele>
|
|
<time>2026-07-17T14:09:02.000Z</time>
|
|
</trkpt>
|
|
<trkpt lat="57.724535" lon="10.562798">
|
|
<ele>14.467829</ele>
|
|
<time>2026-07-17T14:09:03.000Z</time>
|
|
</trkpt>
|
|
<trkpt lat="57.724546" lon="10.562773">
|
|
<ele>14.476202</ele>
|
|
<time>2026-07-17T14:09:04.000Z</time>
|
|
</trkpt>
|
|
<trkpt lat="57.724517" lon="10.562849">
|
|
<ele>14.500347</ele>
|
|
<time>2026-07-17T14:09:11.000Z</time>
|
|
</trkpt>
|
|
<trkpt lat="57.724504" lon="10.562887">
|
|
<ele>14.512012</ele>
|
|
<time>2026-07-17T14:09:12.000Z</time>
|
|
</trkpt>
|
|
<trkpt lat="57.724487" lon="10.562928">
|
|
<ele>14.525430</ele>
|
|
<time>2026-07-17T14:09:13.000Z</time>
|
|
</trkpt>
|
|
<trkpt lat="57.724468" lon="10.562975">
|
|
<ele>14.540667</ele>
|
|
<time>2026-07-17T14:09:14.000Z</time>
|
|
</trkpt>
|
|
<trkpt lat="57.724451" lon="10.563027">
|
|
<ele>14.556427</ele>
|
|
<time>2026-07-17T14:09:15.000Z</time>
|
|
</trkpt>
|
|
<trkpt lat="57.724436" lon="10.563087">
|
|
<ele>14.573551</ele>
|
|
<time>2026-07-17T14:09:16.000Z</time>
|
|
</trkpt>
|
|
<trkpt lat="57.724422" lon="10.563150">
|
|
<ele>14.591190</ele>
|
|
<time>2026-07-17T14:09:17.000Z</time>
|
|
</trkpt>
|
|
<trkpt lat="57.724408" lon="10.563213">
|
|
<ele>14.608828</ele>
|
|
<time>2026-07-17T14:09:18.000Z</time>
|
|
</trkpt>
|
|
<trkpt lat="57.724389" lon="10.563276">
|
|
<ele>14.627530</ele>
|
|
<time>2026-07-17T14:09:19.000Z</time>
|
|
</trkpt>
|
|
<trkpt lat="57.724371" lon="10.563341">
|
|
<ele>14.646456</ele>
|
|
<time>2026-07-17T14:09:20.000Z</time>
|
|
</trkpt>
|
|
<trkpt lat="57.724355" lon="10.563402">
|
|
<ele>14.664023</ele>
|
|
<time>2026-07-17T14:09:21.000Z</time>
|
|
</trkpt>
|
|
<trkpt lat="57.724336" lon="10.563459">
|
|
<ele>14.681392</ele>
|
|
<time>2026-07-17T14:09:22.000Z</time>
|
|
</trkpt>
|
|
<trkpt lat="57.724316" lon="10.563515">
|
|
<ele>14.698806</ele>
|
|
<time>2026-07-17T14:09:23.000Z</time>
|
|
</trkpt>
|
|
<trkpt lat="57.724297" lon="10.563571">
|
|
<ele>14.715956</ele>
|
|
<time>2026-07-17T14:09:24.000Z</time>
|
|
</trkpt>
|
|
<trkpt lat="57.724278" lon="10.563622">
|
|
<ele>14.732030</ele>
|
|
<time>2026-07-17T14:09:25.000Z</time>
|
|
</trkpt>
|
|
<trkpt lat="57.724261" lon="10.563667">
|
|
<ele>14.746278</ele>
|
|
<time>2026-07-17T14:09:26.000Z</time>
|
|
</trkpt>
|
|
<trkpt lat="57.724245" lon="10.563703">
|
|
<ele>14.758385</ele>
|
|
<time>2026-07-17T14:09:27.000Z</time>
|
|
</trkpt>
|
|
<trkpt lat="57.724234" lon="10.563720">
|
|
<ele>14.765289</ele>
|
|
<time>2026-07-17T14:09:28.000Z</time>
|
|
</trkpt>
|
|
<trkpt lat="57.724230" lon="10.563722">
|
|
<ele>14.767293</ele>
|
|
<time>2026-07-17T14:09:29.000Z</time>
|
|
</trkpt>
|
|
<trkpt lat="57.724228" lon="10.563721">
|
|
<ele>14.768295</ele>
|
|
<time>2026-07-17T14:09:30.000Z</time>
|
|
</trkpt>
|
|
<trkpt lat="57.724228" lon="10.563720">
|
|
<ele>14.768553</ele>
|
|
<time>2026-07-17T14:09:31.000Z</time>
|
|
</trkpt>
|
|
<trkpt lat="57.724217" lon="10.563705">
|
|
<ele>14.775140</ele>
|
|
<time>2026-07-17T14:09:45.000Z</time>
|
|
</trkpt>
|
|
<trkpt lat="57.724196" lon="10.563677">
|
|
<ele>14.787618</ele>
|
|
<time>2026-07-17T14:09:46.000Z</time>
|
|
</trkpt>
|
|
<trkpt lat="57.724186" lon="10.563653">
|
|
<ele>14.795487</ele>
|
|
<time>2026-07-17T14:09:47.000Z</time>
|
|
</trkpt>
|
|
<trkpt lat="57.724180" lon="10.563629">
|
|
<ele>14.802337</ele>
|
|
<time>2026-07-17T14:09:48.000Z</time>
|
|
</trkpt>
|
|
<trkpt lat="57.724178" lon="10.563604">
|
|
<ele>14.808871</ele>
|
|
<time>2026-07-17T14:09:49.000Z</time>
|
|
</trkpt>
|
|
<trkpt lat="57.724174" lon="10.563580">
|
|
<ele>14.815370</ele>
|
|
<time>2026-07-17T14:09:50.000Z</time>
|
|
</trkpt>
|
|
<trkpt lat="57.724162" lon="10.563556">
|
|
<ele>14.823869</ele>
|
|
<time>2026-07-17T14:09:51.000Z</time>
|
|
</trkpt>
|
|
<trkpt lat="57.724151" lon="10.563537">
|
|
<ele>14.831112</ele>
|
|
<time>2026-07-17T14:09:52.000Z</time>
|
|
</trkpt>
|
|
<trkpt lat="57.724141" lon="10.563521">
|
|
<ele>14.837479</ele>
|
|
<time>2026-07-17T14:09:53.000Z</time>
|
|
</trkpt>
|
|
<trkpt lat="57.724132" lon="10.563506">
|
|
<ele>14.843311</ele>
|
|
<time>2026-07-17T14:09:54.000Z</time>
|
|
</trkpt>
|
|
<trkpt lat="57.724120" lon="10.563494">
|
|
<ele>14.849896</ele>
|
|
<time>2026-07-17T14:09:55.000Z</time>
|
|
</trkpt>
|
|
<trkpt lat="57.724109" lon="10.563485">
|
|
<ele>14.855707</ele>
|
|
<time>2026-07-17T14:09:56.000Z</time>
|
|
</trkpt>
|
|
<trkpt lat="57.724097" lon="10.563480">
|
|
<ele>14.861658</ele>
|
|
<time>2026-07-17T14:09:57.000Z</time>
|
|
</trkpt>
|
|
<trkpt lat="57.724089" lon="10.563482">
|
|
<ele>14.865564</ele>
|
|
<time>2026-07-17T14:09:58.000Z</time>
|
|
</trkpt>
|
|
<trkpt lat="57.724087" lon="10.563487">
|
|
<ele>14.867179</ele>
|
|
<time>2026-07-17T14:09:59.000Z</time>
|
|
</trkpt>
|
|
<trkpt lat="57.724074" lon="10.563487">
|
|
<ele>14.873472</ele>
|
|
<time>2026-07-17T14:10:01.000Z</time>
|
|
</trkpt>
|
|
<trkpt lat="57.724053" lon="10.563481">
|
|
<ele>14.883755</ele>
|
|
<time>2026-07-17T14:10:02.000Z</time>
|
|
</trkpt>
|
|
<trkpt lat="57.724045" lon="10.563459">
|
|
<ele>14.890635</ele>
|
|
<time>2026-07-17T14:10:03.000Z</time>
|
|
</trkpt>
|
|
<trkpt lat="57.724038" lon="10.563424">
|
|
<ele>14.900295</ele>
|
|
<time>2026-07-17T14:10:04.000Z</time>
|
|
</trkpt>
|
|
<trkpt lat="57.724032" lon="10.563386">
|
|
<ele>14.910538</ele>
|
|
<time>2026-07-17T14:10:05.000Z</time>
|
|
</trkpt>
|
|
<trkpt lat="57.724031" lon="10.563346">
|
|
<ele>14.920889</ele>
|
|
<time>2026-07-17T14:10:06.000Z</time>
|
|
</trkpt>
|
|
<trkpt lat="57.724040" lon="10.563298">
|
|
<ele>14.934039</ele>
|
|
<time>2026-07-17T14:10:07.000Z</time>
|
|
</trkpt>
|
|
<trkpt lat="57.724055" lon="10.563250">
|
|
<ele>14.948415</ele>
|
|
<time>2026-07-17T14:10:08.000Z</time>
|
|
</trkpt>
|
|
<trkpt lat="57.724073" lon="10.563201">
|
|
<ele>14.963788</ele>
|
|
<time>2026-07-17T14:10:09.000Z</time>
|
|
</trkpt>
|
|
<trkpt lat="57.724095" lon="10.563146">
|
|
<ele>14.981551</ele>
|
|
<time>2026-07-17T14:10:10.000Z</time>
|
|
</trkpt>
|
|
<trkpt lat="57.724114" lon="10.563092">
|
|
<ele>14.998267</ele>
|
|
<time>2026-07-17T14:10:11.000Z</time>
|
|
</trkpt>
|
|
<trkpt lat="57.724133" lon="10.563039">
|
|
<ele>15.014767</ele>
|
|
<time>2026-07-17T14:10:12.000Z</time>
|
|
</trkpt>
|
|
<trkpt lat="57.724152" lon="10.562987">
|
|
<ele>15.031054</ele>
|
|
<time>2026-07-17T14:10:13.000Z</time>
|
|
</trkpt>
|
|
<trkpt lat="57.724173" lon="10.562934">
|
|
<ele>15.048113</ele>
|
|
<time>2026-07-17T14:10:14.000Z</time>
|
|
</trkpt>
|
|
<trkpt lat="57.724194" lon="10.562878">
|
|
<ele>15.065801</ele>
|
|
<time>2026-07-17T14:10:15.000Z</time>
|
|
</trkpt>
|
|
<trkpt lat="57.724215" lon="10.562818">
|
|
<ele>15.084345</ele>
|
|
<time>2026-07-17T14:10:16.000Z</time>
|
|
</trkpt>
|
|
<trkpt lat="57.724236" lon="10.562756">
|
|
<ele>15.103323</ele>
|
|
<time>2026-07-17T14:10:17.000Z</time>
|
|
</trkpt>
|
|
<trkpt lat="57.724256" lon="10.562690">
|
|
<ele>15.122938</ele>
|
|
<time>2026-07-17T14:10:18.000Z</time>
|
|
</trkpt>
|
|
<trkpt lat="57.724281" lon="10.562620">
|
|
<ele>15.144706</ele>
|
|
<time>2026-07-17T14:10:19.000Z</time>
|
|
</trkpt>
|
|
<trkpt lat="57.724306" lon="10.562545">
|
|
<ele>15.167559</ele>
|
|
<time>2026-07-17T14:10:20.000Z</time>
|
|
</trkpt>
|
|
<trkpt lat="57.724328" lon="10.562469">
|
|
<ele>15.189905</ele>
|
|
<time>2026-07-17T14:10:21.000Z</time>
|
|
</trkpt>
|
|
<trkpt lat="57.724348" lon="10.562391">
|
|
<ele>15.212270</ele>
|
|
<time>2026-07-17T14:10:22.000Z</time>
|
|
</trkpt>
|
|
<trkpt lat="57.724371" lon="10.562312">
|
|
<ele>15.235528</ele>
|
|
<time>2026-07-17T14:10:23.000Z</time>
|
|
</trkpt>
|
|
<trkpt lat="57.724393" lon="10.562232">
|
|
<ele>15.258788</ele>
|
|
<time>2026-07-17T14:10:24.000Z</time>
|
|
</trkpt>
|
|
<trkpt lat="57.724413" lon="10.562152">
|
|
<ele>15.281621</ele>
|
|
<time>2026-07-17T14:10:25.000Z</time>
|
|
</trkpt>
|
|
<trkpt lat="57.724433" lon="10.562069">
|
|
<ele>15.305158</ele>
|
|
<time>2026-07-17T14:10:26.000Z</time>
|
|
</trkpt>
|
|
<trkpt lat="57.724448" lon="10.561987">
|
|
<ele>15.327563</ele>
|
|
<time>2026-07-17T14:10:27.000Z</time>
|
|
</trkpt>
|
|
<trkpt lat="57.724461" lon="10.561901">
|
|
<ele>15.340743</ele>
|
|
<time>2026-07-17T14:10:28.000Z</time>
|
|
</trkpt>
|
|
<trkpt lat="57.724473" lon="10.561807">
|
|
<ele>15.347859</ele>
|
|
<time>2026-07-17T14:10:29.000Z</time>
|
|
</trkpt>
|
|
<trkpt lat="57.724481" lon="10.561715">
|
|
<ele>15.354721</ele>
|
|
<time>2026-07-17T14:10:30.000Z</time>
|
|
</trkpt>
|
|
<trkpt lat="57.724483" lon="10.561623">
|
|
<ele>15.361499</ele>
|
|
<time>2026-07-17T14:10:31.000Z</time>
|
|
</trkpt>
|
|
<trkpt lat="57.724480" lon="10.561528">
|
|
<ele>15.368505</ele>
|
|
<time>2026-07-17T14:10:32.000Z</time>
|
|
</trkpt>
|
|
<trkpt lat="57.724473" lon="10.561436">
|
|
<ele>15.375346</ele>
|
|
<time>2026-07-17T14:10:33.000Z</time>
|
|
</trkpt>
|
|
<trkpt lat="57.724464" lon="10.561342">
|
|
<ele>15.382377</ele>
|
|
<time>2026-07-17T14:10:34.000Z</time>
|
|
</trkpt>
|
|
<trkpt lat="57.724452" lon="10.561244">
|
|
<ele>15.389778</ele>
|
|
<time>2026-07-17T14:10:35.000Z</time>
|
|
</trkpt>
|
|
<trkpt lat="57.724440" lon="10.561149">
|
|
<ele>15.396965</ele>
|
|
<time>2026-07-17T14:10:36.000Z</time>
|
|
</trkpt>
|
|
<trkpt lat="57.724431" lon="10.561053">
|
|
<ele>15.404141</ele>
|
|
<time>2026-07-17T14:10:37.000Z</time>
|
|
</trkpt>
|
|
<trkpt lat="57.724420" lon="10.560960">
|
|
<ele>15.411153</ele>
|
|
<time>2026-07-17T14:10:38.000Z</time>
|
|
</trkpt>
|
|
<trkpt lat="57.724406" lon="10.560865">
|
|
<ele>15.418408</ele>
|
|
<time>2026-07-17T14:10:39.000Z</time>
|
|
</trkpt>
|
|
<trkpt lat="57.724395" lon="10.560770">
|
|
<ele>15.425564</ele>
|
|
<time>2026-07-17T14:10:40.000Z</time>
|
|
</trkpt>
|
|
<trkpt lat="57.724382" lon="10.560674">
|
|
<ele>15.432855</ele>
|
|
<time>2026-07-17T14:10:41.000Z</time>
|
|
</trkpt>
|
|
<trkpt lat="57.724368" lon="10.560577">
|
|
<ele>15.440252</ele>
|
|
<time>2026-07-17T14:10:42.000Z</time>
|
|
</trkpt>
|
|
<trkpt lat="57.724355" lon="10.560480">
|
|
<ele>15.447615</ele>
|
|
<time>2026-07-17T14:10:43.000Z</time>
|
|
</trkpt>
|
|
<trkpt lat="57.724341" lon="10.560382">
|
|
<ele>15.455083</ele>
|
|
<time>2026-07-17T14:10:44.000Z</time>
|
|
</trkpt>
|
|
<trkpt lat="57.724330" lon="10.560286">
|
|
<ele>15.462311</ele>
|
|
<time>2026-07-17T14:10:45.000Z</time>
|
|
</trkpt>
|
|
<trkpt lat="57.724317" lon="10.560189">
|
|
<ele>15.469674</ele>
|
|
<time>2026-07-17T14:10:46.000Z</time>
|
|
</trkpt>
|
|
<trkpt lat="57.724303" lon="10.560091">
|
|
<ele>15.477142</ele>
|
|
<time>2026-07-17T14:10:47.000Z</time>
|
|
</trkpt>
|
|
<trkpt lat="57.724292" lon="10.559996">
|
|
<ele>15.484298</ele>
|
|
<time>2026-07-17T14:10:48.000Z</time>
|
|
</trkpt>
|
|
<trkpt lat="57.724279" lon="10.559901">
|
|
<ele>15.491518</ele>
|
|
<time>2026-07-17T14:10:49.000Z</time>
|
|
</trkpt>
|
|
<trkpt lat="57.724265" lon="10.559803">
|
|
<ele>15.498986</ele>
|
|
<time>2026-07-17T14:10:50.000Z</time>
|
|
</trkpt>
|
|
<trkpt lat="57.724252" lon="10.559709">
|
|
<ele>15.506135</ele>
|
|
<time>2026-07-17T14:10:51.000Z</time>
|
|
</trkpt>
|
|
<trkpt lat="57.724237" lon="10.559614">
|
|
<ele>15.513428</ele>
|
|
<time>2026-07-17T14:10:52.000Z</time>
|
|
</trkpt>
|
|
<trkpt lat="57.724223" lon="10.559514">
|
|
<ele>15.521038</ele>
|
|
<time>2026-07-17T14:10:53.000Z</time>
|
|
</trkpt>
|
|
<trkpt lat="57.724212" lon="10.559418">
|
|
<ele>15.528267</ele>
|
|
<time>2026-07-17T14:10:54.000Z</time>
|
|
</trkpt>
|
|
<trkpt lat="57.724200" lon="10.559321">
|
|
<ele>15.535597</ele>
|
|
<time>2026-07-17T14:10:55.000Z</time>
|
|
</trkpt>
|
|
<trkpt lat="57.724187" lon="10.559223">
|
|
<ele>15.543031</ele>
|
|
<time>2026-07-17T14:10:56.000Z</time>
|
|
</trkpt>
|
|
<trkpt lat="57.724173" lon="10.559126">
|
|
<ele>15.550428</ele>
|
|
<time>2026-07-17T14:10:57.000Z</time>
|
|
</trkpt>
|
|
<trkpt lat="57.724161" lon="10.559029">
|
|
<ele>15.557758</ele>
|
|
<time>2026-07-17T14:10:58.000Z</time>
|
|
</trkpt>
|
|
<trkpt lat="57.724148" lon="10.558933">
|
|
<ele>15.565049</ele>
|
|
<time>2026-07-17T14:10:59.000Z</time>
|
|
</trkpt>
|
|
<trkpt lat="57.724135" lon="10.558835">
|
|
<ele>15.572483</ele>
|
|
<time>2026-07-17T14:11:00.000Z</time>
|
|
</trkpt>
|
|
<trkpt lat="57.724125" lon="10.558738">
|
|
<ele>15.579756</ele>
|
|
<time>2026-07-17T14:11:01.000Z</time>
|
|
</trkpt>
|
|
<trkpt lat="57.724114" lon="10.558641">
|
|
<ele>15.589098</ele>
|
|
<time>2026-07-17T14:11:02.000Z</time>
|
|
</trkpt>
|
|
<trkpt lat="57.724101" lon="10.558543">
|
|
<ele>15.603140</ele>
|
|
<time>2026-07-17T14:11:03.000Z</time>
|
|
</trkpt>
|
|
<trkpt lat="57.724089" lon="10.558447">
|
|
<ele>15.616850</ele>
|
|
<time>2026-07-17T14:11:04.000Z</time>
|
|
</trkpt>
|
|
<trkpt lat="57.724077" lon="10.558355">
|
|
<ele>15.630020</ele>
|
|
<time>2026-07-17T14:11:05.000Z</time>
|
|
</trkpt>
|
|
<trkpt lat="57.724062" lon="10.558263">
|
|
<ele>15.643396</ele>
|
|
<time>2026-07-17T14:11:06.000Z</time>
|
|
</trkpt>
|
|
<trkpt lat="57.724048" lon="10.558168">
|
|
<ele>15.657101</ele>
|
|
<time>2026-07-17T14:11:07.000Z</time>
|
|
</trkpt>
|
|
<trkpt lat="57.724038" lon="10.558076">
|
|
<ele>15.670156</ele>
|
|
<time>2026-07-17T14:11:08.000Z</time>
|
|
</trkpt>
|
|
<trkpt lat="57.724027" lon="10.557981">
|
|
<ele>15.683674</ele>
|
|
<time>2026-07-17T14:11:09.000Z</time>
|
|
</trkpt>
|
|
<trkpt lat="57.724013" lon="10.557888">
|
|
<ele>15.697110</ele>
|
|
<time>2026-07-17T14:11:10.000Z</time>
|
|
</trkpt>
|
|
<trkpt lat="57.724000" lon="10.557795">
|
|
<ele>15.710479</ele>
|
|
<time>2026-07-17T14:11:11.000Z</time>
|
|
</trkpt>
|
|
<trkpt lat="57.723987" lon="10.557699">
|
|
<ele>15.724251</ele>
|
|
<time>2026-07-17T14:11:12.000Z</time>
|
|
</trkpt>
|
|
<trkpt lat="57.723973" lon="10.557604">
|
|
<ele>15.737955</ele>
|
|
<time>2026-07-17T14:11:13.000Z</time>
|
|
</trkpt>
|
|
<trkpt lat="57.723960" lon="10.557508">
|
|
<ele>15.751727</ele>
|
|
<time>2026-07-17T14:11:14.000Z</time>
|
|
</trkpt>
|
|
<trkpt lat="57.723948" lon="10.557411">
|
|
<ele>15.765573</ele>
|
|
<time>2026-07-17T14:11:15.000Z</time>
|
|
</trkpt>
|
|
<trkpt lat="57.723939" lon="10.557312">
|
|
<ele>15.779538</ele>
|
|
<time>2026-07-17T14:11:16.000Z</time>
|
|
</trkpt>
|
|
<trkpt lat="57.723929" lon="10.557212">
|
|
<ele>15.793686</ele>
|
|
<time>2026-07-17T14:11:17.000Z</time>
|
|
</trkpt>
|
|
<trkpt lat="57.723918" lon="10.557111">
|
|
<ele>15.808020</ele>
|
|
<time>2026-07-17T14:11:18.000Z</time>
|
|
</trkpt>
|
|
<trkpt lat="57.723905" lon="10.557008">
|
|
<ele>15.822738</ele>
|
|
<time>2026-07-17T14:11:19.000Z</time>
|
|
</trkpt>
|
|
<trkpt lat="57.723890" lon="10.556904">
|
|
<ele>15.837718</ele>
|
|
<time>2026-07-17T14:11:20.000Z</time>
|
|
</trkpt>
|
|
<trkpt lat="57.723876" lon="10.556798">
|
|
<ele>15.852903</ele>
|
|
<time>2026-07-17T14:11:21.000Z</time>
|
|
</trkpt>
|
|
<trkpt lat="57.723863" lon="10.556695">
|
|
<ele>15.867620</ele>
|
|
<time>2026-07-17T14:11:22.000Z</time>
|
|
</trkpt>
|
|
<trkpt lat="57.723848" lon="10.556593">
|
|
<ele>15.882332</ele>
|
|
<time>2026-07-17T14:11:23.000Z</time>
|
|
</trkpt>
|
|
<trkpt lat="57.723834" lon="10.556487">
|
|
<ele>15.897517</ele>
|
|
<time>2026-07-17T14:11:24.000Z</time>
|
|
</trkpt>
|
|
<trkpt lat="57.723823" lon="10.556380">
|
|
<ele>15.912669</ele>
|
|
<time>2026-07-17T14:11:25.000Z</time>
|
|
</trkpt>
|
|
<trkpt lat="57.723811" lon="10.556274">
|
|
<ele>15.927737</ele>
|
|
<time>2026-07-17T14:11:26.000Z</time>
|
|
</trkpt>
|
|
<trkpt lat="57.723798" lon="10.556167">
|
|
<ele>15.942997</ele>
|
|
<time>2026-07-17T14:11:27.000Z</time>
|
|
</trkpt>
|
|
<trkpt lat="57.723783" lon="10.556062">
|
|
<ele>15.958112</ele>
|
|
<time>2026-07-17T14:11:28.000Z</time>
|
|
</trkpt>
|
|
<trkpt lat="57.723768" lon="10.555959">
|
|
<ele>15.972958</ele>
|
|
<time>2026-07-17T14:11:29.000Z</time>
|
|
</trkpt>
|
|
<trkpt lat="57.723754" lon="10.555856">
|
|
<ele>15.987738</ele>
|
|
<time>2026-07-17T14:11:30.000Z</time>
|
|
</trkpt>
|
|
<trkpt lat="57.723741" lon="10.555750">
|
|
<ele>16.002862</ele>
|
|
<time>2026-07-17T14:11:31.000Z</time>
|
|
</trkpt>
|
|
<trkpt lat="57.723727" lon="10.555644">
|
|
<ele>16.018046</ele>
|
|
<time>2026-07-17T14:11:32.000Z</time>
|
|
</trkpt>
|
|
<trkpt lat="57.723716" lon="10.555537">
|
|
<ele>16.033199</ele>
|
|
<time>2026-07-17T14:11:33.000Z</time>
|
|
</trkpt>
|
|
<trkpt lat="57.723704" lon="10.555434">
|
|
<ele>16.047859</ele>
|
|
<time>2026-07-17T14:11:34.000Z</time>
|
|
</trkpt>
|
|
<trkpt lat="57.723691" lon="10.555331">
|
|
<ele>16.056704</ele>
|
|
<time>2026-07-17T14:11:35.000Z</time>
|
|
</trkpt>
|
|
<trkpt lat="57.723678" lon="10.555227">
|
|
<ele>16.062310</ele>
|
|
<time>2026-07-17T14:11:36.000Z</time>
|
|
</trkpt>
|
|
<trkpt lat="57.723666" lon="10.555123">
|
|
<ele>16.067894</ele>
|
|
<time>2026-07-17T14:11:37.000Z</time>
|
|
</trkpt>
|
|
<trkpt lat="57.723655" lon="10.555018">
|
|
<ele>16.073510</ele>
|
|
<time>2026-07-17T14:11:38.000Z</time>
|
|
</trkpt>
|
|
<trkpt lat="57.723643" lon="10.554913">
|
|
<ele>16.079145</ele>
|
|
<time>2026-07-17T14:11:39.000Z</time>
|
|
</trkpt>
|
|
<trkpt lat="57.723632" lon="10.554807">
|
|
<ele>16.084812</ele>
|
|
<time>2026-07-17T14:11:40.000Z</time>
|
|
</trkpt>
|
|
<trkpt lat="57.723619" lon="10.554700">
|
|
<ele>16.090571</ele>
|
|
<time>2026-07-17T14:11:41.000Z</time>
|
|
</trkpt>
|
|
<trkpt lat="57.723607" lon="10.554593">
|
|
<ele>16.096309</ele>
|
|
<time>2026-07-17T14:11:42.000Z</time>
|
|
</trkpt>
|
|
<trkpt lat="57.723597" lon="10.554487">
|
|
<ele>16.101959</ele>
|
|
<time>2026-07-17T14:11:43.000Z</time>
|
|
</trkpt>
|
|
<trkpt lat="57.723586" lon="10.554381">
|
|
<ele>16.107626</ele>
|
|
<time>2026-07-17T14:11:44.000Z</time>
|
|
</trkpt>
|
|
<trkpt lat="57.723575" lon="10.554276">
|
|
<ele>16.113241</ele>
|
|
<time>2026-07-17T14:11:45.000Z</time>
|
|
</trkpt>
|
|
<trkpt lat="57.723562" lon="10.554174">
|
|
<ele>16.118745</ele>
|
|
<time>2026-07-17T14:11:46.000Z</time>
|
|
</trkpt>
|
|
<trkpt lat="57.723548" lon="10.554071">
|
|
<ele>16.124323</ele>
|
|
<time>2026-07-17T14:11:47.000Z</time>
|
|
</trkpt>
|
|
<trkpt lat="57.723536" lon="10.553966">
|
|
<ele>16.129958</ele>
|
|
<time>2026-07-17T14:11:48.000Z</time>
|
|
</trkpt>
|
|
<trkpt lat="57.723525" lon="10.553864">
|
|
<ele>16.135420</ele>
|
|
<time>2026-07-17T14:11:49.000Z</time>
|
|
</trkpt>
|
|
<trkpt lat="57.723515" lon="10.553762">
|
|
<ele>16.140862</ele>
|
|
<time>2026-07-17T14:11:50.000Z</time>
|
|
</trkpt>
|
|
<trkpt lat="57.723506" lon="10.553656">
|
|
<ele>16.146495</ele>
|
|
<time>2026-07-17T14:11:51.000Z</time>
|
|
</trkpt>
|
|
<trkpt lat="57.723494" lon="10.553553">
|
|
<ele>16.152028</ele>
|
|
<time>2026-07-17T14:11:52.000Z</time>
|
|
</trkpt>
|
|
<trkpt lat="57.723483" lon="10.553451">
|
|
<ele>16.157489</ele>
|
|
<time>2026-07-17T14:11:53.000Z</time>
|
|
</trkpt>
|
|
<trkpt lat="57.723472" lon="10.553348">
|
|
<ele>16.163002</ele>
|
|
<time>2026-07-17T14:11:54.000Z</time>
|
|
</trkpt>
|
|
<trkpt lat="57.723460" lon="10.553241">
|
|
<ele>16.168740</ele>
|
|
<time>2026-07-17T14:11:55.000Z</time>
|
|
</trkpt>
|
|
<trkpt lat="57.723449" lon="10.553135">
|
|
<ele>16.174407</ele>
|
|
<time>2026-07-17T14:11:56.000Z</time>
|
|
</trkpt>
|
|
<trkpt lat="57.723439" lon="10.553031">
|
|
<ele>16.179953</ele>
|
|
<time>2026-07-17T14:11:57.000Z</time>
|
|
</trkpt>
|
|
<trkpt lat="57.723428" lon="10.552926">
|
|
<ele>16.185569</ele>
|
|
<time>2026-07-17T14:11:58.000Z</time>
|
|
</trkpt>
|
|
<trkpt lat="57.723414" lon="10.552822">
|
|
<ele>16.191198</ele>
|
|
<time>2026-07-17T14:11:59.000Z</time>
|
|
</trkpt>
|
|
<trkpt lat="57.723401" lon="10.552716">
|
|
<ele>16.196906</ele>
|
|
<time>2026-07-17T14:12:00.000Z</time>
|
|
</trkpt>
|
|
<trkpt lat="57.723388" lon="10.552609">
|
|
<ele>16.202665</ele>
|
|
<time>2026-07-17T14:12:01.000Z</time>
|
|
</trkpt>
|
|
<trkpt lat="57.723374" lon="10.552503">
|
|
<ele>16.208396</ele>
|
|
<time>2026-07-17T14:12:02.000Z</time>
|
|
</trkpt>
|
|
<trkpt lat="57.723361" lon="10.552395">
|
|
<ele>16.214206</ele>
|
|
<time>2026-07-17T14:12:03.000Z</time>
|
|
</trkpt>
|
|
<trkpt lat="57.723348" lon="10.552291">
|
|
<ele>16.219812</ele>
|
|
<time>2026-07-17T14:12:04.000Z</time>
|
|
</trkpt>
|
|
<trkpt lat="57.723333" lon="10.552189">
|
|
<ele>16.225364</ele>
|
|
<time>2026-07-17T14:12:05.000Z</time>
|
|
</trkpt>
|
|
<trkpt lat="57.723316" lon="10.552088">
|
|
<ele>16.231950</ele>
|
|
<time>2026-07-17T14:12:06.000Z</time>
|
|
</trkpt>
|
|
<trkpt lat="57.723298" lon="10.551988">
|
|
<ele>16.243146</ele>
|
|
<time>2026-07-17T14:12:07.000Z</time>
|
|
</trkpt>
|
|
<trkpt lat="57.723283" lon="10.551889">
|
|
<ele>16.254064</ele>
|
|
<time>2026-07-17T14:12:08.000Z</time>
|
|
</trkpt>
|
|
<trkpt lat="57.723267" lon="10.551785">
|
|
<ele>16.265547</ele>
|
|
<time>2026-07-17T14:12:09.000Z</time>
|
|
</trkpt>
|
|
<trkpt lat="57.723249" lon="10.551679">
|
|
<ele>16.277347</ele>
|
|
<time>2026-07-17T14:12:10.000Z</time>
|
|
</trkpt>
|
|
<trkpt lat="57.723235" lon="10.551576">
|
|
<ele>16.288623</ele>
|
|
<time>2026-07-17T14:12:11.000Z</time>
|
|
</trkpt>
|
|
<trkpt lat="57.723220" lon="10.551469">
|
|
<ele>16.300360</ele>
|
|
<time>2026-07-17T14:12:12.000Z</time>
|
|
</trkpt>
|
|
<trkpt lat="57.723201" lon="10.551364">
|
|
<ele>16.312122</ele>
|
|
<time>2026-07-17T14:12:13.000Z</time>
|
|
</trkpt>
|
|
<trkpt lat="57.723181" lon="10.551258">
|
|
<ele>16.324049</ele>
|
|
<time>2026-07-17T14:12:14.000Z</time>
|
|
</trkpt>
|
|
<trkpt lat="57.723160" lon="10.551153">
|
|
<ele>16.335945</ele>
|
|
<time>2026-07-17T14:12:15.000Z</time>
|
|
</trkpt>
|
|
<trkpt lat="57.723141" lon="10.551048">
|
|
<ele>16.347707</ele>
|
|
<time>2026-07-17T14:12:16.000Z</time>
|
|
</trkpt>
|
|
<trkpt lat="57.723121" lon="10.550942">
|
|
<ele>16.359634</ele>
|
|
<time>2026-07-17T14:12:17.000Z</time>
|
|
</trkpt>
|
|
<trkpt lat="57.723102" lon="10.550839">
|
|
<ele>16.371196</ele>
|
|
<time>2026-07-17T14:12:18.000Z</time>
|
|
</trkpt>
|
|
<trkpt lat="57.723082" lon="10.550737">
|
|
<ele>16.382724</ele>
|
|
<time>2026-07-17T14:12:19.000Z</time>
|
|
</trkpt>
|
|
<trkpt lat="57.723059" lon="10.550636">
|
|
<ele>16.394373</ele>
|
|
<time>2026-07-17T14:12:20.000Z</time>
|
|
</trkpt>
|
|
<trkpt lat="57.723037" lon="10.550527">
|
|
<ele>16.406735</ele>
|
|
<time>2026-07-17T14:12:21.000Z</time>
|
|
</trkpt>
|
|
<trkpt lat="57.723016" lon="10.550424">
|
|
<ele>16.418432</ele>
|
|
<time>2026-07-17T14:12:22.000Z</time>
|
|
</trkpt>
|
|
<trkpt lat="57.722992" lon="10.550323">
|
|
<ele>16.430161</ele>
|
|
<time>2026-07-17T14:12:23.000Z</time>
|
|
</trkpt>
|
|
<trkpt lat="57.722966" lon="10.550221">
|
|
<ele>16.442152</ele>
|
|
<time>2026-07-17T14:12:24.000Z</time>
|
|
</trkpt>
|
|
<trkpt lat="57.722940" lon="10.550116">
|
|
<ele>16.454431</ele>
|
|
<time>2026-07-17T14:12:25.000Z</time>
|
|
</trkpt>
|
|
<trkpt lat="57.722918" lon="10.550012">
|
|
<ele>16.466299</ele>
|
|
<time>2026-07-17T14:12:26.000Z</time>
|
|
</trkpt>
|
|
<trkpt lat="57.722897" lon="10.549912">
|
|
<ele>16.477700</ele>
|
|
<time>2026-07-17T14:12:27.000Z</time>
|
|
</trkpt>
|
|
<trkpt lat="57.722874" lon="10.549808">
|
|
<ele>16.489642</ele>
|
|
<time>2026-07-17T14:12:28.000Z</time>
|
|
</trkpt>
|
|
<trkpt lat="57.722849" lon="10.549705">
|
|
<ele>16.501646</ele>
|
|
<time>2026-07-17T14:12:29.000Z</time>
|
|
</trkpt>
|
|
<trkpt lat="57.722828" lon="10.549603">
|
|
<ele>16.513244</ele>
|
|
<time>2026-07-17T14:12:30.000Z</time>
|
|
</trkpt>
|
|
<trkpt lat="57.722807" lon="10.549500">
|
|
<ele>16.524941</ele>
|
|
<time>2026-07-17T14:12:31.000Z</time>
|
|
</trkpt>
|
|
<trkpt lat="57.722785" lon="10.549393">
|
|
<ele>16.537106</ele>
|
|
<time>2026-07-17T14:12:32.000Z</time>
|
|
</trkpt>
|
|
<trkpt lat="57.722765" lon="10.549290">
|
|
<ele>16.548733</ele>
|
|
<time>2026-07-17T14:12:33.000Z</time>
|
|
</trkpt>
|
|
<trkpt lat="57.722742" lon="10.549189">
|
|
<ele>16.560383</ele>
|
|
<time>2026-07-17T14:12:34.000Z</time>
|
|
</trkpt>
|
|
<trkpt lat="57.722719" lon="10.549087">
|
|
<ele>16.572130</ele>
|
|
<time>2026-07-17T14:12:35.000Z</time>
|
|
</trkpt>
|
|
<trkpt lat="57.722698" lon="10.548987">
|
|
<ele>16.583530</ele>
|
|
<time>2026-07-17T14:12:36.000Z</time>
|
|
</trkpt>
|
|
<trkpt lat="57.722677" lon="10.548884">
|
|
<ele>16.581098</ele>
|
|
<time>2026-07-17T14:12:37.000Z</time>
|
|
</trkpt>
|
|
<trkpt lat="57.722653" lon="10.548785">
|
|
<ele>16.572181</ele>
|
|
<time>2026-07-17T14:12:38.000Z</time>
|
|
</trkpt>
|
|
<trkpt lat="57.722628" lon="10.548687">
|
|
<ele>16.563273</ele>
|
|
<time>2026-07-17T14:12:39.000Z</time>
|
|
</trkpt>
|
|
<trkpt lat="57.722604" lon="10.548586">
|
|
<ele>16.554206</ele>
|
|
<time>2026-07-17T14:12:40.000Z</time>
|
|
</trkpt>
|
|
<trkpt lat="57.722582" lon="10.548487">
|
|
<ele>16.545411</ele>
|
|
<time>2026-07-17T14:12:41.000Z</time>
|
|
</trkpt>
|
|
<trkpt lat="57.722557" lon="10.548389">
|
|
<ele>16.536503</ele>
|
|
<time>2026-07-17T14:12:42.000Z</time>
|
|
</trkpt>
|
|
<trkpt lat="57.722530" lon="10.548290">
|
|
<ele>16.527385</ele>
|
|
<time>2026-07-17T14:12:43.000Z</time>
|
|
</trkpt>
|
|
<trkpt lat="57.722505" lon="10.548194">
|
|
<ele>16.518625</ele>
|
|
<time>2026-07-17T14:12:44.000Z</time>
|
|
</trkpt>
|
|
<trkpt lat="57.722479" lon="10.548096">
|
|
<ele>16.509650</ele>
|
|
<time>2026-07-17T14:12:45.000Z</time>
|
|
</trkpt>
|
|
<trkpt lat="57.722448" lon="10.547990">
|
|
<ele>16.499737</ele>
|
|
<time>2026-07-17T14:12:46.000Z</time>
|
|
</trkpt>
|
|
<trkpt lat="57.722420" lon="10.547898">
|
|
<ele>16.491052</ele>
|
|
<time>2026-07-17T14:12:47.000Z</time>
|
|
</trkpt>
|
|
<trkpt lat="57.722390" lon="10.547809">
|
|
<ele>16.482420</ele>
|
|
<time>2026-07-17T14:12:48.000Z</time>
|
|
</trkpt>
|
|
<trkpt lat="57.722357" lon="10.547722">
|
|
<ele>16.473667</ele>
|
|
<time>2026-07-17T14:12:49.000Z</time>
|
|
</trkpt>
|
|
<trkpt lat="57.722325" lon="10.547638">
|
|
<ele>16.465204</ele>
|
|
<time>2026-07-17T14:12:50.000Z</time>
|
|
</trkpt>
|
|
<trkpt lat="57.722291" lon="10.547557">
|
|
<ele>16.456754</ele>
|
|
<time>2026-07-17T14:12:51.000Z</time>
|
|
</trkpt>
|
|
<trkpt lat="57.722257" lon="10.547472">
|
|
<ele>16.448043</ele>
|
|
<time>2026-07-17T14:12:52.000Z</time>
|
|
</trkpt>
|
|
<trkpt lat="57.722221" lon="10.547386">
|
|
<ele>16.439081</ele>
|
|
<time>2026-07-17T14:12:53.000Z</time>
|
|
</trkpt>
|
|
<trkpt lat="57.722183" lon="10.547306">
|
|
<ele>16.430299</ele>
|
|
<time>2026-07-17T14:12:54.000Z</time>
|
|
</trkpt>
|
|
<trkpt lat="57.722145" lon="10.547227">
|
|
<ele>16.421578</ele>
|
|
<time>2026-07-17T14:12:55.000Z</time>
|
|
</trkpt>
|
|
<trkpt lat="57.722104" lon="10.547152">
|
|
<ele>16.412775</ele>
|
|
<time>2026-07-17T14:12:56.000Z</time>
|
|
</trkpt>
|
|
<trkpt lat="57.722062" lon="10.547077">
|
|
<ele>16.403862</ele>
|
|
<time>2026-07-17T14:12:57.000Z</time>
|
|
</trkpt>
|
|
<trkpt lat="57.722021" lon="10.547001">
|
|
<ele>16.395001</ele>
|
|
<time>2026-07-17T14:12:58.000Z</time>
|
|
</trkpt>
|
|
<trkpt lat="57.721981" lon="10.546925">
|
|
<ele>16.386249</ele>
|
|
<time>2026-07-17T14:12:59.000Z</time>
|
|
</trkpt>
|
|
<trkpt lat="57.721941" lon="10.546848">
|
|
<ele>16.377438</ele>
|
|
<time>2026-07-17T14:13:00.000Z</time>
|
|
</trkpt>
|
|
<trkpt lat="57.721900" lon="10.546769">
|
|
<ele>16.368402</ele>
|
|
<time>2026-07-17T14:13:01.000Z</time>
|
|
</trkpt>
|
|
<trkpt lat="57.721862" lon="10.546694">
|
|
<ele>16.359923</ele>
|
|
<time>2026-07-17T14:13:02.000Z</time>
|
|
</trkpt>
|
|
<trkpt lat="57.721822" lon="10.546620">
|
|
<ele>16.351287</ele>
|
|
<time>2026-07-17T14:13:03.000Z</time>
|
|
</trkpt>
|
|
<trkpt lat="57.721782" lon="10.546546">
|
|
<ele>16.342650</ele>
|
|
<time>2026-07-17T14:13:04.000Z</time>
|
|
</trkpt>
|
|
<trkpt lat="57.721742" lon="10.546470">
|
|
<ele>16.333898</ele>
|
|
<time>2026-07-17T14:13:05.000Z</time>
|
|
</trkpt>
|
|
<trkpt lat="57.721700" lon="10.546391">
|
|
<ele>16.324755</ele>
|
|
<time>2026-07-17T14:13:06.000Z</time>
|
|
</trkpt>
|
|
<trkpt lat="57.721658" lon="10.546318">
|
|
<ele>16.315954</ele>
|
|
<time>2026-07-17T14:13:07.000Z</time>
|
|
</trkpt>
|
|
<trkpt lat="57.721615" lon="10.546253">
|
|
<ele>16.311227</ele>
|
|
<time>2026-07-17T14:13:08.000Z</time>
|
|
</trkpt>
|
|
<trkpt lat="57.721572" lon="10.546191">
|
|
<ele>16.311747</ele>
|
|
<time>2026-07-17T14:13:09.000Z</time>
|
|
</trkpt>
|
|
<trkpt lat="57.721531" lon="10.546126">
|
|
<ele>16.312261</ele>
|
|
<time>2026-07-17T14:13:10.000Z</time>
|
|
</trkpt>
|
|
<trkpt lat="57.721488" lon="10.546053">
|
|
<ele>16.312817</ele>
|
|
<time>2026-07-17T14:13:11.000Z</time>
|
|
</trkpt>
|
|
<trkpt lat="57.721448" lon="10.545978">
|
|
<ele>16.313358</ele>
|
|
<time>2026-07-17T14:13:12.000Z</time>
|
|
</trkpt>
|
|
<trkpt lat="57.721406" lon="10.545904">
|
|
<ele>16.313910</ele>
|
|
<time>2026-07-17T14:13:13.000Z</time>
|
|
</trkpt>
|
|
<trkpt lat="57.721365" lon="10.545829">
|
|
<ele>16.314459</ele>
|
|
<time>2026-07-17T14:13:14.000Z</time>
|
|
</trkpt>
|
|
<trkpt lat="57.721324" lon="10.545748">
|
|
<ele>16.315030</ele>
|
|
<time>2026-07-17T14:13:15.000Z</time>
|
|
</trkpt>
|
|
<trkpt lat="57.721285" lon="10.545666">
|
|
<ele>16.315591</ele>
|
|
<time>2026-07-17T14:13:16.000Z</time>
|
|
</trkpt>
|
|
<trkpt lat="57.721244" lon="10.545587">
|
|
<ele>16.316154</ele>
|
|
<time>2026-07-17T14:13:17.000Z</time>
|
|
</trkpt>
|
|
<trkpt lat="57.721204" lon="10.545511">
|
|
<ele>16.316700</ele>
|
|
<time>2026-07-17T14:13:18.000Z</time>
|
|
</trkpt>
|
|
<trkpt lat="57.721164" lon="10.545433">
|
|
<ele>16.317252</ele>
|
|
<time>2026-07-17T14:13:19.000Z</time>
|
|
</trkpt>
|
|
<trkpt lat="57.721125" lon="10.545351">
|
|
<ele>16.317814</ele>
|
|
<time>2026-07-17T14:13:20.000Z</time>
|
|
</trkpt>
|
|
<trkpt lat="57.721084" lon="10.545267">
|
|
<ele>16.318396</ele>
|
|
<time>2026-07-17T14:13:21.000Z</time>
|
|
</trkpt>
|
|
<trkpt lat="57.721043" lon="10.545186">
|
|
<ele>16.318966</ele>
|
|
<time>2026-07-17T14:13:22.000Z</time>
|
|
</trkpt>
|
|
<trkpt lat="57.721003" lon="10.545106">
|
|
<ele>16.319526</ele>
|
|
<time>2026-07-17T14:13:23.000Z</time>
|
|
</trkpt>
|
|
<trkpt lat="57.720964" lon="10.545025">
|
|
<ele>16.320084</ele>
|
|
<time>2026-07-17T14:13:24.000Z</time>
|
|
</trkpt>
|
|
<trkpt lat="57.720922" lon="10.544943">
|
|
<ele>16.320665</ele>
|
|
<time>2026-07-17T14:13:25.000Z</time>
|
|
</trkpt>
|
|
<trkpt lat="57.720880" lon="10.544864">
|
|
<ele>16.321234</ele>
|
|
<time>2026-07-17T14:13:26.000Z</time>
|
|
</trkpt>
|
|
<trkpt lat="57.720838" lon="10.544784">
|
|
<ele>16.321808</ele>
|
|
<time>2026-07-17T14:13:27.000Z</time>
|
|
</trkpt>
|
|
<trkpt lat="57.720798" lon="10.544706">
|
|
<ele>16.322361</ele>
|
|
<time>2026-07-17T14:13:28.000Z</time>
|
|
</trkpt>
|
|
<trkpt lat="57.720758" lon="10.544630">
|
|
<ele>16.322906</ele>
|
|
<time>2026-07-17T14:13:29.000Z</time>
|
|
</trkpt>
|
|
<trkpt lat="57.720716" lon="10.544553">
|
|
<ele>16.323469</ele>
|
|
<time>2026-07-17T14:13:30.000Z</time>
|
|
</trkpt>
|
|
<trkpt lat="57.720674" lon="10.544476">
|
|
<ele>16.324032</ele>
|
|
<time>2026-07-17T14:13:31.000Z</time>
|
|
</trkpt>
|
|
<trkpt lat="57.720632" lon="10.544396">
|
|
<ele>16.324605</ele>
|
|
<time>2026-07-17T14:13:32.000Z</time>
|
|
</trkpt>
|
|
<trkpt lat="57.720590" lon="10.544316">
|
|
<ele>16.325179</ele>
|
|
<time>2026-07-17T14:13:33.000Z</time>
|
|
</trkpt>
|
|
<trkpt lat="57.720547" lon="10.544238">
|
|
<ele>16.325752</ele>
|
|
<time>2026-07-17T14:13:34.000Z</time>
|
|
</trkpt>
|
|
<trkpt lat="57.720506" lon="10.544161">
|
|
<ele>16.326308</ele>
|
|
<time>2026-07-17T14:13:35.000Z</time>
|
|
</trkpt>
|
|
<trkpt lat="57.720463" lon="10.544081">
|
|
<ele>16.326888</ele>
|
|
<time>2026-07-17T14:13:36.000Z</time>
|
|
</trkpt>
|
|
<trkpt lat="57.720418" lon="10.543996">
|
|
<ele>16.327500</ele>
|
|
<time>2026-07-17T14:13:37.000Z</time>
|
|
</trkpt>
|
|
<trkpt lat="57.720376" lon="10.543912">
|
|
<ele>16.328088</ele>
|
|
<time>2026-07-17T14:13:38.000Z</time>
|
|
</trkpt>
|
|
<trkpt lat="57.720335" lon="10.543828">
|
|
<ele>16.332716</ele>
|
|
<time>2026-07-17T14:13:39.000Z</time>
|
|
</trkpt>
|
|
<trkpt lat="57.720297" lon="10.543740">
|
|
<ele>16.338548</ele>
|
|
<time>2026-07-17T14:13:40.000Z</time>
|
|
</trkpt>
|
|
<trkpt lat="57.720261" lon="10.543653">
|
|
<ele>16.344220</ele>
|
|
<time>2026-07-17T14:13:41.000Z</time>
|
|
</trkpt>
|
|
<trkpt lat="57.720223" lon="10.543578">
|
|
<ele>16.349548</ele>
|
|
<time>2026-07-17T14:13:42.000Z</time>
|
|
</trkpt>
|
|
<trkpt lat="57.720180" lon="10.543510">
|
|
<ele>16.354979</ele>
|
|
<time>2026-07-17T14:13:43.000Z</time>
|
|
</trkpt>
|
|
<trkpt lat="57.720137" lon="10.543441">
|
|
<ele>16.360443</ele>
|
|
<time>2026-07-17T14:13:44.000Z</time>
|
|
</trkpt>
|
|
<trkpt lat="57.720093" lon="10.543368">
|
|
<ele>16.366116</ele>
|
|
<time>2026-07-17T14:13:45.000Z</time>
|
|
</trkpt>
|
|
<trkpt lat="57.720048" lon="10.543296">
|
|
<ele>16.371827</ele>
|
|
<time>2026-07-17T14:13:46.000Z</time>
|
|
</trkpt>
|
|
<trkpt lat="57.720001" lon="10.543217">
|
|
<ele>16.377922</ele>
|
|
<time>2026-07-17T14:13:47.000Z</time>
|
|
</trkpt>
|
|
<trkpt lat="57.719957" lon="10.543134">
|
|
<ele>16.383948</ele>
|
|
<time>2026-07-17T14:13:48.000Z</time>
|
|
</trkpt>
|
|
<trkpt lat="57.719914" lon="10.543057">
|
|
<ele>16.389690</ele>
|
|
<time>2026-07-17T14:13:49.000Z</time>
|
|
</trkpt>
|
|
<trkpt lat="57.719869" lon="10.542980">
|
|
<ele>16.395572</ele>
|
|
<time>2026-07-17T14:13:50.000Z</time>
|
|
</trkpt>
|
|
<trkpt lat="57.719828" lon="10.542905">
|
|
<ele>16.401103</ele>
|
|
<time>2026-07-17T14:13:51.000Z</time>
|
|
</trkpt>
|
|
<trkpt lat="57.719784" lon="10.542832">
|
|
<ele>16.406775</ele>
|
|
<time>2026-07-17T14:13:52.000Z</time>
|
|
</trkpt>
|
|
<trkpt lat="57.719739" lon="10.542758">
|
|
<ele>16.412554</ele>
|
|
<time>2026-07-17T14:13:53.000Z</time>
|
|
</trkpt>
|
|
<trkpt lat="57.719697" lon="10.542686">
|
|
<ele>16.418049</ele>
|
|
<time>2026-07-17T14:13:54.000Z</time>
|
|
</trkpt>
|
|
<trkpt lat="57.719654" lon="10.542611">
|
|
<ele>16.423720</ele>
|
|
<time>2026-07-17T14:13:55.000Z</time>
|
|
</trkpt>
|
|
<trkpt lat="57.719608" lon="10.542532">
|
|
<ele>16.429743</ele>
|
|
<time>2026-07-17T14:13:56.000Z</time>
|
|
</trkpt>
|
|
<trkpt lat="57.719560" lon="10.542456">
|
|
<ele>16.435808</ele>
|
|
<time>2026-07-17T14:13:57.000Z</time>
|
|
</trkpt>
|
|
<trkpt lat="57.719512" lon="10.542383">
|
|
<ele>16.441775</ele>
|
|
<time>2026-07-17T14:13:58.000Z</time>
|
|
</trkpt>
|
|
<trkpt lat="57.719463" lon="10.542313">
|
|
<ele>16.447723</ele>
|
|
<time>2026-07-17T14:13:59.000Z</time>
|
|
</trkpt>
|
|
<trkpt lat="57.719410" lon="10.542249">
|
|
<ele>16.453808</ele>
|
|
<time>2026-07-17T14:14:00.000Z</time>
|
|
</trkpt>
|
|
<trkpt lat="57.719358" lon="10.542188">
|
|
<ele>16.459729</ele>
|
|
<time>2026-07-17T14:14:01.000Z</time>
|
|
</trkpt>
|
|
<trkpt lat="57.719307" lon="10.542129">
|
|
<ele>16.465514</ele>
|
|
<time>2026-07-17T14:14:02.000Z</time>
|
|
</trkpt>
|
|
<trkpt lat="57.719255" lon="10.542070">
|
|
<ele>16.471381</ele>
|
|
<time>2026-07-17T14:14:03.000Z</time>
|
|
</trkpt>
|
|
<trkpt lat="57.719207" lon="10.542010">
|
|
<ele>16.476950</ele>
|
|
<time>2026-07-17T14:14:04.000Z</time>
|
|
</trkpt>
|
|
<trkpt lat="57.719157" lon="10.541947">
|
|
<ele>16.482765</ele>
|
|
<time>2026-07-17T14:14:05.000Z</time>
|
|
</trkpt>
|
|
<trkpt lat="57.719107" lon="10.541883">
|
|
<ele>16.488610</ele>
|
|
<time>2026-07-17T14:14:06.000Z</time>
|
|
</trkpt>
|
|
<trkpt lat="57.719056" lon="10.541823">
|
|
<ele>16.494422</ele>
|
|
<time>2026-07-17T14:14:07.000Z</time>
|
|
</trkpt>
|
|
<trkpt lat="57.719004" lon="10.541767">
|
|
<ele>16.500210</ele>
|
|
<time>2026-07-17T14:14:08.000Z</time>
|
|
</trkpt>
|
|
<trkpt lat="57.718953" lon="10.541712">
|
|
<ele>16.503476</ele>
|
|
<time>2026-07-17T14:14:09.000Z</time>
|
|
</trkpt>
|
|
<trkpt lat="57.718901" lon="10.541658">
|
|
<ele>16.505843</ele>
|
|
<time>2026-07-17T14:14:10.000Z</time>
|
|
</trkpt>
|
|
<trkpt lat="57.718852" lon="10.541604">
|
|
<ele>16.508105</ele>
|
|
<time>2026-07-17T14:14:11.000Z</time>
|
|
</trkpt>
|
|
<trkpt lat="57.718802" lon="10.541552">
|
|
<ele>16.510381</ele>
|
|
<time>2026-07-17T14:14:12.000Z</time>
|
|
</trkpt>
|
|
<trkpt lat="57.718752" lon="10.541501">
|
|
<ele>16.512647</ele>
|
|
<time>2026-07-17T14:14:13.000Z</time>
|
|
</trkpt>
|
|
<trkpt lat="57.718703" lon="10.541449">
|
|
<ele>16.514889</ele>
|
|
<time>2026-07-17T14:14:14.000Z</time>
|
|
</trkpt>
|
|
<trkpt lat="57.718651" lon="10.541394">
|
|
<ele>16.517266</ele>
|
|
<time>2026-07-17T14:14:15.000Z</time>
|
|
</trkpt>
|
|
<trkpt lat="57.718599" lon="10.541336">
|
|
<ele>16.519674</ele>
|
|
<time>2026-07-17T14:14:16.000Z</time>
|
|
</trkpt>
|
|
<trkpt lat="57.718549" lon="10.541274">
|
|
<ele>16.522061</ele>
|
|
<time>2026-07-17T14:14:17.000Z</time>
|
|
</trkpt>
|
|
<trkpt lat="57.718500" lon="10.541210">
|
|
<ele>16.524439</ele>
|
|
<time>2026-07-17T14:14:18.000Z</time>
|
|
</trkpt>
|
|
<trkpt lat="57.718450" lon="10.541148">
|
|
<ele>16.526825</ele>
|
|
<time>2026-07-17T14:14:19.000Z</time>
|
|
</trkpt>
|
|
<trkpt lat="57.718398" lon="10.541087">
|
|
<ele>16.529267</ele>
|
|
<time>2026-07-17T14:14:20.000Z</time>
|
|
</trkpt>
|
|
<trkpt lat="57.718346" lon="10.541025">
|
|
<ele>16.531721</ele>
|
|
<time>2026-07-17T14:14:21.000Z</time>
|
|
</trkpt>
|
|
<trkpt lat="57.718294" lon="10.540960">
|
|
<ele>16.534209</ele>
|
|
<time>2026-07-17T14:14:22.000Z</time>
|
|
</trkpt>
|
|
<trkpt lat="57.718243" lon="10.540894">
|
|
<ele>16.536676</ele>
|
|
<time>2026-07-17T14:14:23.000Z</time>
|
|
</trkpt>
|
|
<trkpt lat="57.718192" lon="10.540831">
|
|
<ele>16.539108</ele>
|
|
<time>2026-07-17T14:14:24.000Z</time>
|
|
</trkpt>
|
|
<trkpt lat="57.718142" lon="10.540768">
|
|
<ele>16.541506</ele>
|
|
<time>2026-07-17T14:14:25.000Z</time>
|
|
</trkpt>
|
|
<trkpt lat="57.718092" lon="10.540705">
|
|
<ele>16.543904</ele>
|
|
<time>2026-07-17T14:14:26.000Z</time>
|
|
</trkpt>
|
|
<trkpt lat="57.718039" lon="10.540637">
|
|
<ele>16.546461</ele>
|
|
<time>2026-07-17T14:14:27.000Z</time>
|
|
</trkpt>
|
|
<trkpt lat="57.717984" lon="10.540568">
|
|
<ele>16.549096</ele>
|
|
<time>2026-07-17T14:14:28.000Z</time>
|
|
</trkpt>
|
|
<trkpt lat="57.717933" lon="10.540498">
|
|
<ele>16.551613</ele>
|
|
<time>2026-07-17T14:14:29.000Z</time>
|
|
</trkpt>
|
|
<trkpt lat="57.717881" lon="10.540428">
|
|
<ele>16.554161</ele>
|
|
<time>2026-07-17T14:14:30.000Z</time>
|
|
</trkpt>
|
|
<trkpt lat="57.717832" lon="10.540356">
|
|
<ele>16.556640</ele>
|
|
<time>2026-07-17T14:14:31.000Z</time>
|
|
</trkpt>
|
|
<trkpt lat="57.717784" lon="10.540281">
|
|
<ele>16.559128</ele>
|
|
<time>2026-07-17T14:14:32.000Z</time>
|
|
</trkpt>
|
|
<trkpt lat="57.717738" lon="10.540204">
|
|
<ele>16.561584</ele>
|
|
<time>2026-07-17T14:14:33.000Z</time>
|
|
</trkpt>
|
|
<trkpt lat="57.717693" lon="10.540131">
|
|
<ele>16.563953</ele>
|
|
<time>2026-07-17T14:14:34.000Z</time>
|
|
</trkpt>
|
|
<trkpt lat="57.717649" lon="10.540057">
|
|
<ele>16.566307</ele>
|
|
<time>2026-07-17T14:14:35.000Z</time>
|
|
</trkpt>
|
|
<trkpt lat="57.717602" lon="10.539983">
|
|
<ele>16.568751</ele>
|
|
<time>2026-07-17T14:14:36.000Z</time>
|
|
</trkpt>
|
|
<trkpt lat="57.717557" lon="10.539912">
|
|
<ele>16.571093</ele>
|
|
<time>2026-07-17T14:14:37.000Z</time>
|
|
</trkpt>
|
|
<trkpt lat="57.717513" lon="10.539844">
|
|
<ele>16.573361</ele>
|
|
<time>2026-07-17T14:14:38.000Z</time>
|
|
</trkpt>
|
|
<trkpt lat="57.717466" lon="10.539777">
|
|
<ele>16.570167</ele>
|
|
<time>2026-07-17T14:14:39.000Z</time>
|
|
</trkpt>
|
|
<trkpt lat="57.717423" lon="10.539710">
|
|
<ele>16.567143</ele>
|
|
<time>2026-07-17T14:14:40.000Z</time>
|
|
</trkpt>
|
|
<trkpt lat="57.717378" lon="10.539638">
|
|
<ele>16.563944</ele>
|
|
<time>2026-07-17T14:14:41.000Z</time>
|
|
</trkpt>
|
|
<trkpt lat="57.717330" lon="10.539563">
|
|
<ele>16.560564</ele>
|
|
<time>2026-07-17T14:14:42.000Z</time>
|
|
</trkpt>
|
|
<trkpt lat="57.717286" lon="10.539493">
|
|
<ele>16.557443</ele>
|
|
<time>2026-07-17T14:14:43.000Z</time>
|
|
</trkpt>
|
|
<trkpt lat="57.717245" lon="10.539420">
|
|
<ele>16.554384</ele>
|
|
<time>2026-07-17T14:14:44.000Z</time>
|
|
</trkpt>
|
|
<trkpt lat="57.717201" lon="10.539346">
|
|
<ele>16.551187</ele>
|
|
<time>2026-07-17T14:14:45.000Z</time>
|
|
</trkpt>
|
|
<trkpt lat="57.717155" lon="10.539277">
|
|
<ele>16.548001</ele>
|
|
<time>2026-07-17T14:14:46.000Z</time>
|
|
</trkpt>
|
|
<trkpt lat="57.717111" lon="10.539207">
|
|
<ele>16.544879</ele>
|
|
<time>2026-07-17T14:14:47.000Z</time>
|
|
</trkpt>
|
|
<trkpt lat="57.717067" lon="10.539137">
|
|
<ele>16.541758</ele>
|
|
<time>2026-07-17T14:14:48.000Z</time>
|
|
</trkpt>
|
|
<trkpt lat="57.717023" lon="10.539068">
|
|
<ele>16.538655</ele>
|
|
<time>2026-07-17T14:14:49.000Z</time>
|
|
</trkpt>
|
|
<trkpt lat="57.716981" lon="10.538999">
|
|
<ele>16.535635</ele>
|
|
<time>2026-07-17T14:14:50.000Z</time>
|
|
</trkpt>
|
|
<trkpt lat="57.716938" lon="10.538932">
|
|
<ele>16.532611</ele>
|
|
<time>2026-07-17T14:14:51.000Z</time>
|
|
</trkpt>
|
|
<trkpt lat="57.716894" lon="10.538864">
|
|
<ele>16.529526</ele>
|
|
<time>2026-07-17T14:14:52.000Z</time>
|
|
</trkpt>
|
|
<trkpt lat="57.716851" lon="10.538795">
|
|
<ele>16.526465</ele>
|
|
<time>2026-07-17T14:14:53.000Z</time>
|
|
</trkpt>
|
|
<trkpt lat="57.716807" lon="10.538722">
|
|
<ele>16.523287</ele>
|
|
<time>2026-07-17T14:14:54.000Z</time>
|
|
</trkpt>
|
|
<trkpt lat="57.716768" lon="10.538654">
|
|
<ele>16.520406</ele>
|
|
<time>2026-07-17T14:14:55.000Z</time>
|
|
</trkpt>
|
|
<trkpt lat="57.716725" lon="10.538587">
|
|
<ele>16.517382</ele>
|
|
<time>2026-07-17T14:14:56.000Z</time>
|
|
</trkpt>
|
|
<trkpt lat="57.716684" lon="10.538522">
|
|
<ele>16.514478</ele>
|
|
<time>2026-07-17T14:14:57.000Z</time>
|
|
</trkpt>
|
|
<trkpt lat="57.716639" lon="10.538450">
|
|
<ele>16.511278</ele>
|
|
<time>2026-07-17T14:14:58.000Z</time>
|
|
</trkpt>
|
|
<trkpt lat="57.716593" lon="10.538374">
|
|
<ele>16.507961</ele>
|
|
<time>2026-07-17T14:14:59.000Z</time>
|
|
</trkpt>
|
|
<trkpt lat="57.716550" lon="10.538298">
|
|
<ele>16.504765</ele>
|
|
<time>2026-07-17T14:15:00.000Z</time>
|
|
</trkpt>
|
|
<trkpt lat="57.716501" lon="10.538219">
|
|
<ele>16.501269</ele>
|
|
<time>2026-07-17T14:15:01.000Z</time>
|
|
</trkpt>
|
|
<trkpt lat="57.716455" lon="10.538140">
|
|
<ele>16.497895</ele>
|
|
<time>2026-07-17T14:15:02.000Z</time>
|
|
</trkpt>
|
|
<trkpt lat="57.716411" lon="10.538061">
|
|
<ele>16.494599</ele>
|
|
<time>2026-07-17T14:15:03.000Z</time>
|
|
</trkpt>
|
|
<trkpt lat="57.716367" lon="10.537981">
|
|
<ele>16.491284</ele>
|
|
<time>2026-07-17T14:15:04.000Z</time>
|
|
</trkpt>
|
|
<trkpt lat="57.716324" lon="10.537901">
|
|
<ele>16.488007</ele>
|
|
<time>2026-07-17T14:15:05.000Z</time>
|
|
</trkpt>
|
|
<trkpt lat="57.716280" lon="10.537824">
|
|
<ele>16.484751</ele>
|
|
<time>2026-07-17T14:15:06.000Z</time>
|
|
</trkpt>
|
|
<trkpt lat="57.716236" lon="10.537748">
|
|
<ele>16.481515</ele>
|
|
<time>2026-07-17T14:15:07.000Z</time>
|
|
</trkpt>
|
|
<trkpt lat="57.716190" lon="10.537667">
|
|
<ele>16.478101</ele>
|
|
<time>2026-07-17T14:15:08.000Z</time>
|
|
</trkpt>
|
|
<trkpt lat="57.716146" lon="10.537580">
|
|
<ele>16.479139</ele>
|
|
<time>2026-07-17T14:15:09.000Z</time>
|
|
</trkpt>
|
|
<trkpt lat="57.716101" lon="10.537493">
|
|
<ele>16.486203</ele>
|
|
<time>2026-07-17T14:15:10.000Z</time>
|
|
</trkpt>
|
|
<trkpt lat="57.716053" lon="10.537408">
|
|
<ele>16.493418</ele>
|
|
<time>2026-07-17T14:15:11.000Z</time>
|
|
</trkpt>
|
|
<trkpt lat="57.716005" lon="10.537325">
|
|
<ele>16.500553</ele>
|
|
<time>2026-07-17T14:15:12.000Z</time>
|
|
</trkpt>
|
|
<trkpt lat="57.715960" lon="10.537241">
|
|
<ele>16.507492</ele>
|
|
<time>2026-07-17T14:15:13.000Z</time>
|
|
</trkpt>
|
|
<trkpt lat="57.715917" lon="10.537155">
|
|
<ele>16.514363</ele>
|
|
<time>2026-07-17T14:15:14.000Z</time>
|
|
</trkpt>
|
|
<trkpt lat="57.715871" lon="10.537069">
|
|
<ele>16.521462</ele>
|
|
<time>2026-07-17T14:15:15.000Z</time>
|
|
</trkpt>
|
|
<trkpt lat="57.715827" lon="10.536987">
|
|
<ele>16.528241</ele>
|
|
<time>2026-07-17T14:15:16.000Z</time>
|
|
</trkpt>
|
|
<trkpt lat="57.715780" lon="10.536906">
|
|
<ele>16.535217</ele>
|
|
<time>2026-07-17T14:15:17.000Z</time>
|
|
</trkpt>
|
|
<trkpt lat="57.715732" lon="10.536828">
|
|
<ele>16.542158</ele>
|
|
<time>2026-07-17T14:15:18.000Z</time>
|
|
</trkpt>
|
|
<trkpt lat="57.715687" lon="10.536749">
|
|
<ele>16.548894</ele>
|
|
<time>2026-07-17T14:15:19.000Z</time>
|
|
</trkpt>
|
|
<trkpt lat="57.715640" lon="10.536667">
|
|
<ele>16.555910</ele>
|
|
<time>2026-07-17T14:15:20.000Z</time>
|
|
</trkpt>
|
|
<trkpt lat="57.715590" lon="10.536585">
|
|
<ele>16.563168</ele>
|
|
<time>2026-07-17T14:15:21.000Z</time>
|
|
</trkpt>
|
|
<trkpt lat="57.715540" lon="10.536505">
|
|
<ele>16.570351</ele>
|
|
<time>2026-07-17T14:15:22.000Z</time>
|
|
</trkpt>
|
|
<trkpt lat="57.715492" lon="10.536425">
|
|
<ele>16.577368</ele>
|
|
<time>2026-07-17T14:15:23.000Z</time>
|
|
</trkpt>
|
|
<trkpt lat="57.715446" lon="10.536348">
|
|
<ele>16.584106</ele>
|
|
<time>2026-07-17T14:15:24.000Z</time>
|
|
</trkpt>
|
|
<trkpt lat="57.715402" lon="10.536270">
|
|
<ele>16.590723</ele>
|
|
<time>2026-07-17T14:15:25.000Z</time>
|
|
</trkpt>
|
|
<trkpt lat="57.715355" lon="10.536190">
|
|
<ele>16.597660</ele>
|
|
<time>2026-07-17T14:15:26.000Z</time>
|
|
</trkpt>
|
|
<trkpt lat="57.715309" lon="10.536111">
|
|
<ele>16.604476</ele>
|
|
<time>2026-07-17T14:15:27.000Z</time>
|
|
</trkpt>
|
|
<trkpt lat="57.715264" lon="10.536037">
|
|
<ele>16.611017</ele>
|
|
<time>2026-07-17T14:15:28.000Z</time>
|
|
</trkpt>
|
|
<trkpt lat="57.715220" lon="10.535965">
|
|
<ele>16.617398</ele>
|
|
<time>2026-07-17T14:15:29.000Z</time>
|
|
</trkpt>
|
|
<trkpt lat="57.715176" lon="10.535892">
|
|
<ele>16.623818</ele>
|
|
<time>2026-07-17T14:15:30.000Z</time>
|
|
</trkpt>
|
|
<trkpt lat="57.715130" lon="10.535821">
|
|
<ele>16.630329</ele>
|
|
<time>2026-07-17T14:15:31.000Z</time>
|
|
</trkpt>
|
|
<trkpt lat="57.715086" lon="10.535751">
|
|
<ele>16.636634</ele>
|
|
<time>2026-07-17T14:15:32.000Z</time>
|
|
</trkpt>
|
|
<trkpt lat="57.715043" lon="10.535679">
|
|
<ele>16.642933</ele>
|
|
<time>2026-07-17T14:15:33.000Z</time>
|
|
</trkpt>
|
|
<trkpt lat="57.715001" lon="10.535606">
|
|
<ele>16.649192</ele>
|
|
<time>2026-07-17T14:15:34.000Z</time>
|
|
</trkpt>
|
|
<trkpt lat="57.714959" lon="10.535536">
|
|
<ele>16.655332</ele>
|
|
<time>2026-07-17T14:15:35.000Z</time>
|
|
</trkpt>
|
|
<trkpt lat="57.714915" lon="10.535462">
|
|
<ele>16.661791</ele>
|
|
<time>2026-07-17T14:15:36.000Z</time>
|
|
</trkpt>
|
|
<trkpt lat="57.714872" lon="10.535385">
|
|
<ele>16.668289</ele>
|
|
<time>2026-07-17T14:15:37.000Z</time>
|
|
</trkpt>
|
|
<trkpt lat="57.714828" lon="10.535309">
|
|
<ele>16.680308</ele>
|
|
<time>2026-07-17T14:15:38.000Z</time>
|
|
</trkpt>
|
|
<trkpt lat="57.714785" lon="10.535237">
|
|
<ele>16.701743</ele>
|
|
<time>2026-07-17T14:15:39.000Z</time>
|
|
</trkpt>
|
|
<trkpt lat="57.714744" lon="10.535165">
|
|
<ele>16.722630</ele>
|
|
<time>2026-07-17T14:15:40.000Z</time>
|
|
</trkpt>
|
|
<trkpt lat="57.714700" lon="10.535084">
|
|
<ele>16.745559</ele>
|
|
<time>2026-07-17T14:15:41.000Z</time>
|
|
</trkpt>
|
|
<trkpt lat="57.714656" lon="10.535005">
|
|
<ele>16.768211</ele>
|
|
<time>2026-07-17T14:15:42.000Z</time>
|
|
</trkpt>
|
|
<trkpt lat="57.714612" lon="10.534931">
|
|
<ele>16.790188</ele>
|
|
<time>2026-07-17T14:15:43.000Z</time>
|
|
</trkpt>
|
|
<trkpt lat="57.714569" lon="10.534857">
|
|
<ele>16.811889</ele>
|
|
<time>2026-07-17T14:15:44.000Z</time>
|
|
</trkpt>
|
|
<trkpt lat="57.714523" lon="10.534784">
|
|
<ele>16.834296</ele>
|
|
<time>2026-07-17T14:15:45.000Z</time>
|
|
</trkpt>
|
|
<trkpt lat="57.714479" lon="10.534711">
|
|
<ele>16.856141</ele>
|
|
<time>2026-07-17T14:15:46.000Z</time>
|
|
</trkpt>
|
|
<trkpt lat="57.714437" lon="10.534637">
|
|
<ele>16.877570</ele>
|
|
<time>2026-07-17T14:15:47.000Z</time>
|
|
</trkpt>
|
|
<trkpt lat="57.714394" lon="10.534565">
|
|
<ele>16.899006</ele>
|
|
<time>2026-07-17T14:15:48.000Z</time>
|
|
</trkpt>
|
|
<trkpt lat="57.714350" lon="10.534488">
|
|
<ele>16.921385</ele>
|
|
<time>2026-07-17T14:15:49.000Z</time>
|
|
</trkpt>
|
|
<trkpt lat="57.714306" lon="10.534412">
|
|
<ele>16.943629</ele>
|
|
<time>2026-07-17T14:15:50.000Z</time>
|
|
</trkpt>
|
|
<trkpt lat="57.714262" lon="10.534335">
|
|
<ele>16.966008</ele>
|
|
<time>2026-07-17T14:15:51.000Z</time>
|
|
</trkpt>
|
|
<trkpt lat="57.714218" lon="10.534256">
|
|
<ele>16.988660</ele>
|
|
<time>2026-07-17T14:15:52.000Z</time>
|
|
</trkpt>
|
|
<trkpt lat="57.714173" lon="10.534179">
|
|
<ele>17.011312</ele>
|
|
<time>2026-07-17T14:15:53.000Z</time>
|
|
</trkpt>
|
|
<trkpt lat="57.714130" lon="10.534101">
|
|
<ele>17.033559</ele>
|
|
<time>2026-07-17T14:15:54.000Z</time>
|
|
</trkpt>
|
|
<trkpt lat="57.714087" lon="10.534026">
|
|
<ele>17.055396</ele>
|
|
<time>2026-07-17T14:15:55.000Z</time>
|
|
</trkpt>
|
|
<trkpt lat="57.714043" lon="10.533951">
|
|
<ele>17.077506</ele>
|
|
<time>2026-07-17T14:15:56.000Z</time>
|
|
</trkpt>
|
|
<trkpt lat="57.713997" lon="10.533875">
|
|
<ele>17.100302</ele>
|
|
<time>2026-07-17T14:15:57.000Z</time>
|
|
</trkpt>
|
|
<trkpt lat="57.713954" lon="10.533801">
|
|
<ele>17.122004</ele>
|
|
<time>2026-07-17T14:15:58.000Z</time>
|
|
</trkpt>
|
|
<trkpt lat="57.713909" lon="10.533722">
|
|
<ele>17.144926</ele>
|
|
<time>2026-07-17T14:15:59.000Z</time>
|
|
</trkpt>
|
|
<trkpt lat="57.713863" lon="10.533645">
|
|
<ele>17.167854</ele>
|
|
<time>2026-07-17T14:16:00.000Z</time>
|
|
</trkpt>
|
|
<trkpt lat="57.713818" lon="10.533570">
|
|
<ele>17.190240</ele>
|
|
<time>2026-07-17T14:16:01.000Z</time>
|
|
</trkpt>
|
|
<trkpt lat="57.713772" lon="10.533495">
|
|
<ele>17.212905</ele>
|
|
<time>2026-07-17T14:16:02.000Z</time>
|
|
</trkpt>
|
|
<trkpt lat="57.713725" lon="10.533423">
|
|
<ele>17.235470</ele>
|
|
<time>2026-07-17T14:16:03.000Z</time>
|
|
</trkpt>
|
|
<trkpt lat="57.713680" lon="10.533352">
|
|
<ele>17.257337</ele>
|
|
<time>2026-07-17T14:16:04.000Z</time>
|
|
</trkpt>
|
|
<trkpt lat="57.713637" lon="10.533282">
|
|
<ele>17.278510</ele>
|
|
<time>2026-07-17T14:16:05.000Z</time>
|
|
</trkpt>
|
|
<trkpt lat="57.713594" lon="10.533212">
|
|
<ele>17.299683</ele>
|
|
<time>2026-07-17T14:16:06.000Z</time>
|
|
</trkpt>
|
|
<trkpt lat="57.713548" lon="10.533134">
|
|
<ele>17.322743</ele>
|
|
<time>2026-07-17T14:16:07.000Z</time>
|
|
</trkpt>
|
|
<trkpt lat="57.713506" lon="10.533067">
|
|
<ele>17.340827</ele>
|
|
<time>2026-07-17T14:16:08.000Z</time>
|
|
</trkpt>
|
|
<trkpt lat="57.713464" lon="10.533000">
|
|
<ele>17.340551</ele>
|
|
<time>2026-07-17T14:16:09.000Z</time>
|
|
</trkpt>
|
|
<trkpt lat="57.713424" lon="10.532931">
|
|
<ele>17.340280</ele>
|
|
<time>2026-07-17T14:16:10.000Z</time>
|
|
</trkpt>
|
|
<trkpt lat="57.713384" lon="10.532861">
|
|
<ele>17.340006</ele>
|
|
<time>2026-07-17T14:16:11.000Z</time>
|
|
</trkpt>
|
|
<trkpt lat="57.713342" lon="10.532788">
|
|
<ele>17.339720</ele>
|
|
<time>2026-07-17T14:16:12.000Z</time>
|
|
</trkpt>
|
|
<trkpt lat="57.713299" lon="10.532716">
|
|
<ele>17.339432</ele>
|
|
<time>2026-07-17T14:16:13.000Z</time>
|
|
</trkpt>
|
|
<trkpt lat="57.713255" lon="10.532644">
|
|
<ele>17.339141</ele>
|
|
<time>2026-07-17T14:16:14.000Z</time>
|
|
</trkpt>
|
|
<trkpt lat="57.713214" lon="10.532569">
|
|
<ele>17.338854</ele>
|
|
<time>2026-07-17T14:16:15.000Z</time>
|
|
</trkpt>
|
|
<trkpt lat="57.713175" lon="10.532496">
|
|
<ele>17.338579</ele>
|
|
<time>2026-07-17T14:16:16.000Z</time>
|
|
</trkpt>
|
|
<trkpt lat="57.713135" lon="10.532424">
|
|
<ele>17.338302</ele>
|
|
<time>2026-07-17T14:16:17.000Z</time>
|
|
</trkpt>
|
|
<trkpt lat="57.713098" lon="10.532353">
|
|
<ele>17.338038</ele>
|
|
<time>2026-07-17T14:16:18.000Z</time>
|
|
</trkpt>
|
|
<trkpt lat="57.713063" lon="10.532279">
|
|
<ele>17.337774</ele>
|
|
<time>2026-07-17T14:16:19.000Z</time>
|
|
</trkpt>
|
|
<trkpt lat="57.713029" lon="10.532198">
|
|
<ele>17.337499</ele>
|
|
<time>2026-07-17T14:16:20.000Z</time>
|
|
</trkpt>
|
|
<trkpt lat="57.712995" lon="10.532114">
|
|
<ele>17.337218</ele>
|
|
<time>2026-07-17T14:16:21.000Z</time>
|
|
</trkpt>
|
|
<trkpt lat="57.712961" lon="10.532023">
|
|
<ele>17.336922</ele>
|
|
<time>2026-07-17T14:16:22.000Z</time>
|
|
</trkpt>
|
|
<trkpt lat="57.712926" lon="10.531928">
|
|
<ele>17.336614</ele>
|
|
<time>2026-07-17T14:16:23.000Z</time>
|
|
</trkpt>
|
|
<trkpt lat="57.712892" lon="10.531839">
|
|
<ele>17.336322</ele>
|
|
<time>2026-07-17T14:16:24.000Z</time>
|
|
</trkpt>
|
|
<trkpt lat="57.712859" lon="10.531757">
|
|
<ele>17.336049</ele>
|
|
<time>2026-07-17T14:16:25.000Z</time>
|
|
</trkpt>
|
|
<trkpt lat="57.712827" lon="10.531673">
|
|
<ele>17.335773</ele>
|
|
<time>2026-07-17T14:16:26.000Z</time>
|
|
</trkpt>
|
|
<trkpt lat="57.712788" lon="10.531569">
|
|
<ele>17.335435</ele>
|
|
<time>2026-07-17T14:16:27.000Z</time>
|
|
</trkpt>
|
|
<trkpt lat="57.712754" lon="10.531474">
|
|
<ele>17.335130</ele>
|
|
<time>2026-07-17T14:16:28.000Z</time>
|
|
</trkpt>
|
|
<trkpt lat="57.712722" lon="10.531383">
|
|
<ele>17.334839</ele>
|
|
<time>2026-07-17T14:16:29.000Z</time>
|
|
</trkpt>
|
|
<trkpt lat="57.712690" lon="10.531290">
|
|
<ele>17.334544</ele>
|
|
<time>2026-07-17T14:16:30.000Z</time>
|
|
</trkpt>
|
|
<trkpt lat="57.712656" lon="10.531194">
|
|
<ele>17.334237</ele>
|
|
<time>2026-07-17T14:16:31.000Z</time>
|
|
</trkpt>
|
|
<trkpt lat="57.712626" lon="10.531102">
|
|
<ele>17.333949</ele>
|
|
<time>2026-07-17T14:16:32.000Z</time>
|
|
</trkpt>
|
|
<trkpt lat="57.712595" lon="10.531008">
|
|
<ele>17.333655</ele>
|
|
<time>2026-07-17T14:16:33.000Z</time>
|
|
</trkpt>
|
|
<trkpt lat="57.712566" lon="10.530912">
|
|
<ele>17.333361</ele>
|
|
<time>2026-07-17T14:16:34.000Z</time>
|
|
</trkpt>
|
|
<trkpt lat="57.712537" lon="10.530822">
|
|
<ele>17.333080</ele>
|
|
<time>2026-07-17T14:16:35.000Z</time>
|
|
</trkpt>
|
|
<trkpt lat="57.712505" lon="10.530734">
|
|
<ele>17.332797</ele>
|
|
<time>2026-07-17T14:16:36.000Z</time>
|
|
</trkpt>
|
|
<trkpt lat="57.712473" lon="10.530641">
|
|
<ele>17.332502</ele>
|
|
<time>2026-07-17T14:16:37.000Z</time>
|
|
</trkpt>
|
|
<trkpt lat="57.712443" lon="10.530554">
|
|
<ele>17.332225</ele>
|
|
<time>2026-07-17T14:16:38.000Z</time>
|
|
</trkpt>
|
|
<trkpt lat="57.712415" lon="10.530471">
|
|
<ele>17.331964</ele>
|
|
<time>2026-07-17T14:16:39.000Z</time>
|
|
</trkpt>
|
|
<trkpt lat="57.712388" lon="10.530387">
|
|
<ele>17.336835</ele>
|
|
<time>2026-07-17T14:16:40.000Z</time>
|
|
</trkpt>
|
|
<trkpt lat="57.712360" lon="10.530299">
|
|
<ele>17.344478</ele>
|
|
<time>2026-07-17T14:16:41.000Z</time>
|
|
</trkpt>
|
|
<trkpt lat="57.712332" lon="10.530212">
|
|
<ele>17.352057</ele>
|
|
<time>2026-07-17T14:16:42.000Z</time>
|
|
</trkpt>
|
|
<trkpt lat="57.712301" lon="10.530125">
|
|
<ele>17.359861</ele>
|
|
<time>2026-07-17T14:16:43.000Z</time>
|
|
</trkpt>
|
|
<trkpt lat="57.712271" lon="10.530039">
|
|
<ele>17.367526</ele>
|
|
<time>2026-07-17T14:16:44.000Z</time>
|
|
</trkpt>
|
|
<trkpt lat="57.712238" lon="10.529953">
|
|
<ele>17.375428</ele>
|
|
<time>2026-07-17T14:16:45.000Z</time>
|
|
</trkpt>
|
|
<trkpt lat="57.712202" lon="10.529861">
|
|
<ele>17.383938</ele>
|
|
<time>2026-07-17T14:16:46.000Z</time>
|
|
</trkpt>
|
|
<trkpt lat="57.712169" lon="10.529765">
|
|
<ele>17.392457</ele>
|
|
<time>2026-07-17T14:16:47.000Z</time>
|
|
</trkpt>
|
|
<trkpt lat="57.712136" lon="10.529669">
|
|
<ele>17.400975</ele>
|
|
<time>2026-07-17T14:16:48.000Z</time>
|
|
</trkpt>
|
|
<trkpt lat="57.712102" lon="10.529576">
|
|
<ele>17.409385</ele>
|
|
<time>2026-07-17T14:16:49.000Z</time>
|
|
</trkpt>
|
|
<trkpt lat="57.712070" lon="10.529487">
|
|
<ele>17.417391</ele>
|
|
<time>2026-07-17T14:16:50.000Z</time>
|
|
</trkpt>
|
|
<trkpt lat="57.712040" lon="10.529400">
|
|
<ele>17.425118</ele>
|
|
<time>2026-07-17T14:16:51.000Z</time>
|
|
</trkpt>
|
|
<trkpt lat="57.712008" lon="10.529312">
|
|
<ele>17.433062</ele>
|
|
<time>2026-07-17T14:16:52.000Z</time>
|
|
</trkpt>
|
|
<trkpt lat="57.711977" lon="10.529225">
|
|
<ele>17.440866</ele>
|
|
<time>2026-07-17T14:16:53.000Z</time>
|
|
</trkpt>
|
|
<trkpt lat="57.711943" lon="10.529132">
|
|
<ele>17.449275</ele>
|
|
<time>2026-07-17T14:16:54.000Z</time>
|
|
</trkpt>
|
|
<trkpt lat="57.711908" lon="10.529039">
|
|
<ele>17.457765</ele>
|
|
<time>2026-07-17T14:16:55.000Z</time>
|
|
</trkpt>
|
|
<trkpt lat="57.711872" lon="10.528940">
|
|
<ele>17.466701</ele>
|
|
<time>2026-07-17T14:16:56.000Z</time>
|
|
</trkpt>
|
|
<trkpt lat="57.711835" lon="10.528835">
|
|
<ele>17.476088</ele>
|
|
<time>2026-07-17T14:16:57.000Z</time>
|
|
</trkpt>
|
|
<trkpt lat="57.711800" lon="10.528734">
|
|
<ele>17.485072</ele>
|
|
<time>2026-07-17T14:16:58.000Z</time>
|
|
</trkpt>
|
|
<trkpt lat="57.711768" lon="10.528635">
|
|
<ele>17.493707</ele>
|
|
<time>2026-07-17T14:16:59.000Z</time>
|
|
</trkpt>
|
|
<trkpt lat="57.711739" lon="10.528533">
|
|
<ele>17.502329</ele>
|
|
<time>2026-07-17T14:17:00.000Z</time>
|
|
</trkpt>
|
|
<trkpt lat="57.711711" lon="10.528429">
|
|
<ele>17.511020</ele>
|
|
<time>2026-07-17T14:17:01.000Z</time>
|
|
</trkpt>
|
|
<trkpt lat="57.711680" lon="10.528326">
|
|
<ele>17.519842</ele>
|
|
<time>2026-07-17T14:17:02.000Z</time>
|
|
</trkpt>
|
|
<trkpt lat="57.711650" lon="10.528228">
|
|
<ele>17.528271</ele>
|
|
<time>2026-07-17T14:17:03.000Z</time>
|
|
</trkpt>
|
|
<trkpt lat="57.711621" lon="10.528133">
|
|
<ele>17.536436</ele>
|
|
<time>2026-07-17T14:17:04.000Z</time>
|
|
</trkpt>
|
|
<trkpt lat="57.711594" lon="10.528035">
|
|
<ele>17.544665</ele>
|
|
<time>2026-07-17T14:17:05.000Z</time>
|
|
</trkpt>
|
|
<trkpt lat="57.711567" lon="10.527940">
|
|
<ele>17.552695</ele>
|
|
<time>2026-07-17T14:17:06.000Z</time>
|
|
</trkpt>
|
|
<trkpt lat="57.711540" lon="10.527852">
|
|
<ele>17.560268</ele>
|
|
<time>2026-07-17T14:17:07.000Z</time>
|
|
</trkpt>
|
|
<trkpt lat="57.711512" lon="10.527769">
|
|
<ele>17.567593</ele>
|
|
<time>2026-07-17T14:17:08.000Z</time>
|
|
</trkpt>
|
|
<trkpt lat="57.711482" lon="10.527696">
|
|
<ele>17.574466</ele>
|
|
<time>2026-07-17T14:17:09.000Z</time>
|
|
</trkpt>
|
|
<trkpt lat="57.711449" lon="10.527637">
|
|
<ele>17.580841</ele>
|
|
<time>2026-07-17T14:17:10.000Z</time>
|
|
</trkpt>
|
|
<trkpt lat="57.711411" lon="10.527585">
|
|
<ele>17.592791</ele>
|
|
<time>2026-07-17T14:17:11.000Z</time>
|
|
</trkpt>
|
|
<trkpt lat="57.711377" lon="10.527529">
|
|
<ele>17.607073</ele>
|
|
<time>2026-07-17T14:17:12.000Z</time>
|
|
</trkpt>
|
|
<trkpt lat="57.711346" lon="10.527464">
|
|
<ele>17.621753</ele>
|
|
<time>2026-07-17T14:17:13.000Z</time>
|
|
</trkpt>
|
|
<trkpt lat="57.711321" lon="10.527391">
|
|
<ele>17.636361</ele>
|
|
<time>2026-07-17T14:17:14.000Z</time>
|
|
</trkpt>
|
|
<trkpt lat="57.711299" lon="10.527314">
|
|
<ele>17.651073</ele>
|
|
<time>2026-07-17T14:17:15.000Z</time>
|
|
</trkpt>
|
|
<trkpt lat="57.711277" lon="10.527234">
|
|
<ele>17.666231</ele>
|
|
<time>2026-07-17T14:17:16.000Z</time>
|
|
</trkpt>
|
|
<trkpt lat="57.711250" lon="10.527141">
|
|
<ele>17.684063</ele>
|
|
<time>2026-07-17T14:17:17.000Z</time>
|
|
</trkpt>
|
|
<trkpt lat="57.711226" lon="10.527062">
|
|
<ele>17.699374</ele>
|
|
<time>2026-07-17T14:17:18.000Z</time>
|
|
</trkpt>
|
|
<trkpt lat="57.711205" lon="10.526993">
|
|
<ele>17.712753</ele>
|
|
<time>2026-07-17T14:17:19.000Z</time>
|
|
</trkpt>
|
|
<trkpt lat="57.711186" lon="10.526933">
|
|
<ele>17.724504</ele>
|
|
<time>2026-07-17T14:17:20.000Z</time>
|
|
</trkpt>
|
|
<trkpt lat="57.711166" lon="10.526881">
|
|
<ele>17.735299</ele>
|
|
<time>2026-07-17T14:17:21.000Z</time>
|
|
</trkpt>
|
|
<trkpt lat="57.711149" lon="10.526829">
|
|
<ele>17.745569</ele>
|
|
<time>2026-07-17T14:17:22.000Z</time>
|
|
</trkpt>
|
|
<trkpt lat="57.711131" lon="10.526776">
|
|
<ele>17.756150</ele>
|
|
<time>2026-07-17T14:17:23.000Z</time>
|
|
</trkpt>
|
|
<trkpt lat="57.711109" lon="10.526723">
|
|
<ele>17.767458</ele>
|
|
<time>2026-07-17T14:17:24.000Z</time>
|
|
</trkpt>
|
|
<trkpt lat="57.711084" lon="10.526664">
|
|
<ele>17.780145</ele>
|
|
<time>2026-07-17T14:17:25.000Z</time>
|
|
</trkpt>
|
|
<trkpt lat="57.711061" lon="10.526608">
|
|
<ele>17.792045</ele>
|
|
<time>2026-07-17T14:17:26.000Z</time>
|
|
</trkpt>
|
|
<trkpt lat="57.711040" lon="10.526552">
|
|
<ele>17.803572</ele>
|
|
<time>2026-07-17T14:17:27.000Z</time>
|
|
</trkpt>
|
|
<trkpt lat="57.711021" lon="10.526490">
|
|
<ele>17.815614</ele>
|
|
<time>2026-07-17T14:17:28.000Z</time>
|
|
</trkpt>
|
|
<trkpt lat="57.711000" lon="10.526429">
|
|
<ele>17.827840</ele>
|
|
<time>2026-07-17T14:17:29.000Z</time>
|
|
</trkpt>
|
|
<trkpt lat="57.710976" lon="10.526371">
|
|
<ele>17.840200</ele>
|
|
<time>2026-07-17T14:17:30.000Z</time>
|
|
</trkpt>
|
|
<trkpt lat="57.710949" lon="10.526313">
|
|
<ele>17.853161</ele>
|
|
<time>2026-07-17T14:17:31.000Z</time>
|
|
</trkpt>
|
|
<trkpt lat="57.710923" lon="10.526251">
|
|
<ele>17.866440</ele>
|
|
<time>2026-07-17T14:17:32.000Z</time>
|
|
</trkpt>
|
|
<trkpt lat="57.710896" lon="10.526182">
|
|
<ele>17.880850</ele>
|
|
<time>2026-07-17T14:17:33.000Z</time>
|
|
</trkpt>
|
|
<trkpt lat="57.710866" lon="10.526100">
|
|
<ele>17.897594</ele>
|
|
<time>2026-07-17T14:17:34.000Z</time>
|
|
</trkpt>
|
|
<trkpt lat="57.710831" lon="10.526006">
|
|
<ele>17.916898</ele>
|
|
<time>2026-07-17T14:17:35.000Z</time>
|
|
</trkpt>
|
|
<trkpt lat="57.710796" lon="10.525912">
|
|
<ele>17.936201</ele>
|
|
<time>2026-07-17T14:17:36.000Z</time>
|
|
</trkpt>
|
|
<trkpt lat="57.710760" lon="10.525819">
|
|
<ele>17.955550</ele>
|
|
<time>2026-07-17T14:17:37.000Z</time>
|
|
</trkpt>
|
|
<trkpt lat="57.710725" lon="10.525718">
|
|
<ele>17.975833</ele>
|
|
<time>2026-07-17T14:17:38.000Z</time>
|
|
</trkpt>
|
|
<trkpt lat="57.710692" lon="10.525616">
|
|
<ele>17.995923</ele>
|
|
<time>2026-07-17T14:17:39.000Z</time>
|
|
</trkpt>
|
|
<trkpt lat="57.710662" lon="10.525528">
|
|
<ele>18.013510</ele>
|
|
<time>2026-07-17T14:17:40.000Z</time>
|
|
</trkpt>
|
|
<trkpt lat="57.710631" lon="10.525439">
|
|
<ele>18.031410</ele>
|
|
<time>2026-07-17T14:17:41.000Z</time>
|
|
</trkpt>
|
|
<trkpt lat="57.710602" lon="10.525346">
|
|
<ele>18.049552</ele>
|
|
<time>2026-07-17T14:17:42.000Z</time>
|
|
</trkpt>
|
|
<trkpt lat="57.710569" lon="10.525245">
|
|
<ele>18.069498</ele>
|
|
<time>2026-07-17T14:17:43.000Z</time>
|
|
</trkpt>
|
|
<trkpt lat="57.710532" lon="10.525145">
|
|
<ele>18.089992</ele>
|
|
<time>2026-07-17T14:17:44.000Z</time>
|
|
</trkpt>
|
|
<trkpt lat="57.710490" lon="10.525049">
|
|
<ele>18.110897</ele>
|
|
<time>2026-07-17T14:17:45.000Z</time>
|
|
</trkpt>
|
|
<trkpt lat="57.710442" lon="10.524958">
|
|
<ele>18.132442</ele>
|
|
<time>2026-07-17T14:17:46.000Z</time>
|
|
</trkpt>
|
|
<trkpt lat="57.710390" lon="10.524867">
|
|
<ele>18.154316</ele>
|
|
<time>2026-07-17T14:17:47.000Z</time>
|
|
</trkpt>
|
|
<trkpt lat="57.710341" lon="10.524780">
|
|
<ele>18.172888</ele>
|
|
<time>2026-07-17T14:17:48.000Z</time>
|
|
</trkpt>
|
|
<trkpt lat="57.710293" lon="10.524691">
|
|
<ele>18.191467</ele>
|
|
<time>2026-07-17T14:17:49.000Z</time>
|
|
</trkpt>
|
|
<trkpt lat="57.710247" lon="10.524603">
|
|
<ele>18.209554</ele>
|
|
<time>2026-07-17T14:17:50.000Z</time>
|
|
</trkpt>
|
|
<trkpt lat="57.710203" lon="10.524522">
|
|
<ele>18.226525</ele>
|
|
<time>2026-07-17T14:17:51.000Z</time>
|
|
</trkpt>
|
|
<trkpt lat="57.710161" lon="10.524438">
|
|
<ele>18.243427</ele>
|
|
<time>2026-07-17T14:17:52.000Z</time>
|
|
</trkpt>
|
|
<trkpt lat="57.710119" lon="10.524360">
|
|
<ele>18.259696</ele>
|
|
<time>2026-07-17T14:17:53.000Z</time>
|
|
</trkpt>
|
|
<trkpt lat="57.710077" lon="10.524288">
|
|
<ele>18.275358</ele>
|
|
<time>2026-07-17T14:17:54.000Z</time>
|
|
</trkpt>
|
|
<trkpt lat="57.710035" lon="10.524219">
|
|
<ele>18.290725</ele>
|
|
<time>2026-07-17T14:17:55.000Z</time>
|
|
</trkpt>
|
|
<trkpt lat="57.709996" lon="10.524155">
|
|
<ele>18.304987</ele>
|
|
<time>2026-07-17T14:17:56.000Z</time>
|
|
</trkpt>
|
|
<trkpt lat="57.709958" lon="10.524089">
|
|
<ele>18.319242</ele>
|
|
<time>2026-07-17T14:17:57.000Z</time>
|
|
</trkpt>
|
|
<trkpt lat="57.709922" lon="10.524023">
|
|
<ele>18.333100</ele>
|
|
<time>2026-07-17T14:17:58.000Z</time>
|
|
</trkpt>
|
|
<trkpt lat="57.709885" lon="10.523954">
|
|
<ele>18.347462</ele>
|
|
<time>2026-07-17T14:17:59.000Z</time>
|
|
</trkpt>
|
|
<trkpt lat="57.709846" lon="10.523887">
|
|
<ele>18.362019</ele>
|
|
<time>2026-07-17T14:18:00.000Z</time>
|
|
</trkpt>
|
|
<trkpt lat="57.709809" lon="10.523827">
|
|
<ele>18.375481</ele>
|
|
<time>2026-07-17T14:18:01.000Z</time>
|
|
</trkpt>
|
|
<trkpt lat="57.709774" lon="10.523773">
|
|
<ele>18.387954</ele>
|
|
<time>2026-07-17T14:18:02.000Z</time>
|
|
</trkpt>
|
|
<trkpt lat="57.709740" lon="10.523721">
|
|
<ele>18.400027</ele>
|
|
<time>2026-07-17T14:18:03.000Z</time>
|
|
</trkpt>
|
|
<trkpt lat="57.709707" lon="10.523670">
|
|
<ele>18.411796</ele>
|
|
<time>2026-07-17T14:18:04.000Z</time>
|
|
</trkpt>
|
|
<trkpt lat="57.709671" lon="10.523623">
|
|
<ele>18.423865</ele>
|
|
<time>2026-07-17T14:18:05.000Z</time>
|
|
</trkpt>
|
|
<trkpt lat="57.709633" lon="10.523576">
|
|
<ele>18.436390</ele>
|
|
<time>2026-07-17T14:18:06.000Z</time>
|
|
</trkpt>
|
|
<trkpt lat="57.709592" lon="10.523525">
|
|
<ele>18.449928</ele>
|
|
<time>2026-07-17T14:18:07.000Z</time>
|
|
</trkpt>
|
|
<trkpt lat="57.709535" lon="10.523456">
|
|
<ele>18.468595</ele>
|
|
<time>2026-07-17T14:18:08.000Z</time>
|
|
</trkpt>
|
|
<trkpt lat="57.709484" lon="10.523387">
|
|
<ele>18.485899</ele>
|
|
<time>2026-07-17T14:18:09.000Z</time>
|
|
</trkpt>
|
|
<trkpt lat="57.709430" lon="10.523308">
|
|
<ele>18.504746</ele>
|
|
<time>2026-07-17T14:18:10.000Z</time>
|
|
</trkpt>
|
|
<trkpt lat="57.709374" lon="10.523227">
|
|
<ele>18.524208</ele>
|
|
<time>2026-07-17T14:18:11.000Z</time>
|
|
</trkpt>
|
|
<trkpt lat="57.709318" lon="10.523147">
|
|
<ele>18.543580</ele>
|
|
<time>2026-07-17T14:18:12.000Z</time>
|
|
</trkpt>
|
|
<trkpt lat="57.709266" lon="10.523070">
|
|
<ele>18.561813</ele>
|
|
<time>2026-07-17T14:18:13.000Z</time>
|
|
</trkpt>
|
|
<trkpt lat="57.709216" lon="10.522998">
|
|
<ele>18.579161</ele>
|
|
<time>2026-07-17T14:18:14.000Z</time>
|
|
</trkpt>
|
|
<trkpt lat="57.709167" lon="10.522925">
|
|
<ele>18.596383</ele>
|
|
<time>2026-07-17T14:18:15.000Z</time>
|
|
</trkpt>
|
|
<trkpt lat="57.709122" lon="10.522855">
|
|
<ele>18.612473</ele>
|
|
<time>2026-07-17T14:18:16.000Z</time>
|
|
</trkpt>
|
|
<trkpt lat="57.709078" lon="10.522791">
|
|
<ele>18.627796</ele>
|
|
<time>2026-07-17T14:18:17.000Z</time>
|
|
</trkpt>
|
|
<trkpt lat="57.709032" lon="10.522743">
|
|
<ele>18.642279</ele>
|
|
<time>2026-07-17T14:18:18.000Z</time>
|
|
</trkpt>
|
|
<trkpt lat="57.708984" lon="10.522716">
|
|
<ele>18.627208</ele>
|
|
<time>2026-07-17T14:18:19.000Z</time>
|
|
</trkpt>
|
|
<trkpt lat="57.708939" lon="10.522705">
|
|
<ele>18.607089</ele>
|
|
<time>2026-07-17T14:18:20.000Z</time>
|
|
</trkpt>
|
|
<trkpt lat="57.708896" lon="10.522707">
|
|
<ele>18.588019</ele>
|
|
<time>2026-07-17T14:18:21.000Z</time>
|
|
</trkpt>
|
|
<trkpt lat="57.708860" lon="10.522721">
|
|
<ele>18.571718</ele>
|
|
<time>2026-07-17T14:18:22.000Z</time>
|
|
</trkpt>
|
|
<trkpt lat="57.708826" lon="10.522744">
|
|
<ele>18.555690</ele>
|
|
<time>2026-07-17T14:18:23.000Z</time>
|
|
</trkpt>
|
|
<trkpt lat="57.708791" lon="10.522777">
|
|
<ele>18.538316</ele>
|
|
<time>2026-07-17T14:18:24.000Z</time>
|
|
</trkpt>
|
|
<trkpt lat="57.708754" lon="10.522815">
|
|
<ele>18.519606</ele>
|
|
<time>2026-07-17T14:18:25.000Z</time>
|
|
</trkpt>
|
|
<trkpt lat="57.708718" lon="10.522859">
|
|
<ele>18.500545</ele>
|
|
<time>2026-07-17T14:18:26.000Z</time>
|
|
</trkpt>
|
|
<trkpt lat="57.708682" lon="10.522908">
|
|
<ele>18.480811</ele>
|
|
<time>2026-07-17T14:18:27.000Z</time>
|
|
</trkpt>
|
|
<trkpt lat="57.708646" lon="10.522962">
|
|
<ele>18.460359</ele>
|
|
<time>2026-07-17T14:18:28.000Z</time>
|
|
</trkpt>
|
|
<trkpt lat="57.708610" lon="10.523016">
|
|
<ele>18.439906</ele>
|
|
<time>2026-07-17T14:18:29.000Z</time>
|
|
</trkpt>
|
|
<trkpt lat="57.708573" lon="10.523070">
|
|
<ele>18.419106</ele>
|
|
<time>2026-07-17T14:18:30.000Z</time>
|
|
</trkpt>
|
|
<trkpt lat="57.708539" lon="10.523125">
|
|
<ele>18.399184</ele>
|
|
<time>2026-07-17T14:18:31.000Z</time>
|
|
</trkpt>
|
|
<trkpt lat="57.708505" lon="10.523185">
|
|
<ele>18.378468</ele>
|
|
<time>2026-07-17T14:18:32.000Z</time>
|
|
</trkpt>
|
|
<trkpt lat="57.708470" lon="10.523252">
|
|
<ele>18.356274</ele>
|
|
<time>2026-07-17T14:18:33.000Z</time>
|
|
</trkpt>
|
|
<trkpt lat="57.708432" lon="10.523320">
|
|
<ele>18.332967</ele>
|
|
<time>2026-07-17T14:18:34.000Z</time>
|
|
</trkpt>
|
|
<trkpt lat="57.708391" lon="10.523392">
|
|
<ele>18.308043</ele>
|
|
<time>2026-07-17T14:18:35.000Z</time>
|
|
</trkpt>
|
|
<trkpt lat="57.708351" lon="10.523457">
|
|
<ele>18.284559</ele>
|
|
<time>2026-07-17T14:18:36.000Z</time>
|
|
</trkpt>
|
|
<trkpt lat="57.708315" lon="10.523513">
|
|
<ele>18.263807</ele>
|
|
<time>2026-07-17T14:18:37.000Z</time>
|
|
</trkpt>
|
|
<trkpt lat="57.708278" lon="10.523562">
|
|
<ele>18.243714</ele>
|
|
<time>2026-07-17T14:18:38.000Z</time>
|
|
</trkpt>
|
|
<trkpt lat="57.708226" lon="10.523613">
|
|
<ele>18.217687</ele>
|
|
<time>2026-07-17T14:18:39.000Z</time>
|
|
</trkpt>
|
|
<trkpt lat="57.708175" lon="10.523641">
|
|
<ele>18.194124</ele>
|
|
<time>2026-07-17T14:18:40.000Z</time>
|
|
</trkpt>
|
|
<trkpt lat="57.708121" lon="10.523656">
|
|
<ele>18.169922</ele>
|
|
<time>2026-07-17T14:18:41.000Z</time>
|
|
</trkpt>
|
|
<trkpt lat="57.708064" lon="10.523665">
|
|
<ele>18.144562</ele>
|
|
<time>2026-07-17T14:18:42.000Z</time>
|
|
</trkpt>
|
|
<trkpt lat="57.708009" lon="10.523674">
|
|
<ele>18.120085</ele>
|
|
<time>2026-07-17T14:18:43.000Z</time>
|
|
</trkpt>
|
|
<trkpt lat="57.707954" lon="10.523684">
|
|
<ele>18.095587</ele>
|
|
<time>2026-07-17T14:18:44.000Z</time>
|
|
</trkpt>
|
|
<trkpt lat="57.707897" lon="10.523699">
|
|
<ele>18.070068</ele>
|
|
<time>2026-07-17T14:18:45.000Z</time>
|
|
</trkpt>
|
|
<trkpt lat="57.707842" lon="10.523714">
|
|
<ele>18.045427</ele>
|
|
<time>2026-07-17T14:18:46.000Z</time>
|
|
</trkpt>
|
|
<trkpt lat="57.707787" lon="10.523730">
|
|
<ele>18.020750</ele>
|
|
<time>2026-07-17T14:18:47.000Z</time>
|
|
</trkpt>
|
|
<trkpt lat="57.707727" lon="10.523747">
|
|
<ele>17.993847</ele>
|
|
<time>2026-07-17T14:18:48.000Z</time>
|
|
</trkpt>
|
|
<trkpt lat="57.707673" lon="10.523761">
|
|
<ele>17.969678</ele>
|
|
<time>2026-07-17T14:18:49.000Z</time>
|
|
</trkpt>
|
|
<trkpt lat="57.707618" lon="10.523776">
|
|
<ele>17.945037</ele>
|
|
<time>2026-07-17T14:18:50.000Z</time>
|
|
</trkpt>
|
|
<trkpt lat="57.707562" lon="10.523791">
|
|
<ele>17.919957</ele>
|
|
<time>2026-07-17T14:18:51.000Z</time>
|
|
</trkpt>
|
|
<trkpt lat="57.707508" lon="10.523805">
|
|
<ele>17.895788</ele>
|
|
<time>2026-07-17T14:18:52.000Z</time>
|
|
</trkpt>
|
|
<trkpt lat="57.707451" lon="10.523820">
|
|
<ele>17.870269</ele>
|
|
<time>2026-07-17T14:18:53.000Z</time>
|
|
</trkpt>
|
|
<trkpt lat="57.707397" lon="10.523834">
|
|
<ele>17.847860</ele>
|
|
<time>2026-07-17T14:18:54.000Z</time>
|
|
</trkpt>
|
|
<trkpt lat="57.707342" lon="10.523847">
|
|
<ele>17.851997</ele>
|
|
<time>2026-07-17T14:18:55.000Z</time>
|
|
</trkpt>
|
|
<trkpt lat="57.707290" lon="10.523860">
|
|
<ele>17.855912</ele>
|
|
<time>2026-07-17T14:18:56.000Z</time>
|
|
</trkpt>
|
|
<trkpt lat="57.707234" lon="10.523871">
|
|
<ele>17.860114</ele>
|
|
<time>2026-07-17T14:18:57.000Z</time>
|
|
</trkpt>
|
|
<trkpt lat="57.707182" lon="10.523880">
|
|
<ele>17.864012</ele>
|
|
<time>2026-07-17T14:18:58.000Z</time>
|
|
</trkpt>
|
|
<trkpt lat="57.707130" lon="10.523893">
|
|
<ele>17.867927</ele>
|
|
<time>2026-07-17T14:18:59.000Z</time>
|
|
</trkpt>
|
|
<trkpt lat="57.707074" lon="10.523908">
|
|
<ele>17.872149</ele>
|
|
<time>2026-07-17T14:19:00.000Z</time>
|
|
</trkpt>
|
|
<trkpt lat="57.707021" lon="10.523921">
|
|
<ele>17.876138</ele>
|
|
<time>2026-07-17T14:19:01.000Z</time>
|
|
</trkpt>
|
|
<trkpt lat="57.706966" lon="10.523935">
|
|
<ele>17.880280</ele>
|
|
<time>2026-07-17T14:19:02.000Z</time>
|
|
</trkpt>
|
|
<trkpt lat="57.706913" lon="10.523948">
|
|
<ele>17.884269</ele>
|
|
<time>2026-07-17T14:19:03.000Z</time>
|
|
</trkpt>
|
|
<trkpt lat="57.706860" lon="10.523962">
|
|
<ele>17.888264</ele>
|
|
<time>2026-07-17T14:19:04.000Z</time>
|
|
</trkpt>
|
|
<trkpt lat="57.706806" lon="10.523976">
|
|
<ele>17.892332</ele>
|
|
<time>2026-07-17T14:19:05.000Z</time>
|
|
</trkpt>
|
|
<trkpt lat="57.706753" lon="10.523991">
|
|
<ele>17.896333</ele>
|
|
<time>2026-07-17T14:19:06.000Z</time>
|
|
</trkpt>
|
|
<trkpt lat="57.706700" lon="10.524005">
|
|
<ele>17.900327</ele>
|
|
<time>2026-07-17T14:19:07.000Z</time>
|
|
</trkpt>
|
|
<trkpt lat="57.706648" lon="10.524022">
|
|
<ele>17.904267</ele>
|
|
<time>2026-07-17T14:19:08.000Z</time>
|
|
</trkpt>
|
|
<trkpt lat="57.706594" lon="10.524041">
|
|
<ele>17.908367</ele>
|
|
<time>2026-07-17T14:19:09.000Z</time>
|
|
</trkpt>
|
|
<trkpt lat="57.706541" lon="10.524059">
|
|
<ele>17.912387</ele>
|
|
<time>2026-07-17T14:19:10.000Z</time>
|
|
</trkpt>
|
|
<trkpt lat="57.706490" lon="10.524078">
|
|
<ele>17.916268</ele>
|
|
<time>2026-07-17T14:19:11.000Z</time>
|
|
</trkpt>
|
|
<trkpt lat="57.706436" lon="10.524100">
|
|
<ele>17.920392</ele>
|
|
<time>2026-07-17T14:19:12.000Z</time>
|
|
</trkpt>
|
|
<trkpt lat="57.706383" lon="10.524121">
|
|
<ele>17.924435</ele>
|
|
<time>2026-07-17T14:19:13.000Z</time>
|
|
</trkpt>
|
|
<trkpt lat="57.706333" lon="10.524139">
|
|
<ele>17.928235</ele>
|
|
<time>2026-07-17T14:19:14.000Z</time>
|
|
</trkpt>
|
|
<trkpt lat="57.706286" lon="10.524155">
|
|
<ele>17.931800</ele>
|
|
<time>2026-07-17T14:19:15.000Z</time>
|
|
</trkpt>
|
|
<trkpt lat="57.706234" lon="10.524173">
|
|
<ele>17.935747</ele>
|
|
<time>2026-07-17T14:19:16.000Z</time>
|
|
</trkpt>
|
|
<trkpt lat="57.706177" lon="10.524192">
|
|
<ele>17.940068</ele>
|
|
<time>2026-07-17T14:19:17.000Z</time>
|
|
</trkpt>
|
|
<trkpt lat="57.706121" lon="10.524210">
|
|
<ele>17.944308</ele>
|
|
<time>2026-07-17T14:19:18.000Z</time>
|
|
</trkpt>
|
|
<trkpt lat="57.706062" lon="10.524228">
|
|
<ele>17.948769</ele>
|
|
<time>2026-07-17T14:19:19.000Z</time>
|
|
</trkpt>
|
|
<trkpt lat="57.705995" lon="10.524248">
|
|
<ele>17.953833</ele>
|
|
<time>2026-07-17T14:19:20.000Z</time>
|
|
</trkpt>
|
|
<trkpt lat="57.705933" lon="10.524268">
|
|
<ele>17.958528</ele>
|
|
<time>2026-07-17T14:19:21.000Z</time>
|
|
</trkpt>
|
|
<trkpt lat="57.705874" lon="10.524286">
|
|
<ele>17.962989</ele>
|
|
<time>2026-07-17T14:19:22.000Z</time>
|
|
</trkpt>
|
|
<trkpt lat="57.705820" lon="10.524304">
|
|
<ele>17.967083</ele>
|
|
<time>2026-07-17T14:19:23.000Z</time>
|
|
</trkpt>
|
|
<trkpt lat="57.705765" lon="10.524322">
|
|
<ele>17.971249</ele>
|
|
<time>2026-07-17T14:19:24.000Z</time>
|
|
</trkpt>
|
|
<trkpt lat="57.705703" lon="10.524345">
|
|
<ele>17.975967</ele>
|
|
<time>2026-07-17T14:19:25.000Z</time>
|
|
</trkpt>
|
|
<trkpt lat="57.705645" lon="10.524365">
|
|
<ele>17.980368</ele>
|
|
<time>2026-07-17T14:19:26.000Z</time>
|
|
</trkpt>
|
|
<trkpt lat="57.705588" lon="10.524382">
|
|
<ele>17.995914</ele>
|
|
<time>2026-07-17T14:19:27.000Z</time>
|
|
</trkpt>
|
|
<trkpt lat="57.705531" lon="10.524398">
|
|
<ele>18.017253</ele>
|
|
<time>2026-07-17T14:19:28.000Z</time>
|
|
</trkpt>
|
|
<trkpt lat="57.705476" lon="10.524413">
|
|
<ele>18.037830</ele>
|
|
<time>2026-07-17T14:19:29.000Z</time>
|
|
</trkpt>
|
|
<trkpt lat="57.705424" lon="10.524428">
|
|
<ele>18.057309</ele>
|
|
<time>2026-07-17T14:19:30.000Z</time>
|
|
</trkpt>
|
|
<trkpt lat="57.705372" lon="10.524435">
|
|
<ele>18.076610</ele>
|
|
<time>2026-07-17T14:19:31.000Z</time>
|
|
</trkpt>
|
|
<trkpt lat="57.705322" lon="10.524427">
|
|
<ele>18.095188</ele>
|
|
<time>2026-07-17T14:19:32.000Z</time>
|
|
</trkpt>
|
|
<trkpt lat="57.705283" lon="10.524399">
|
|
<ele>18.110653</ele>
|
|
<time>2026-07-17T14:19:33.000Z</time>
|
|
</trkpt>
|
|
<trkpt lat="57.705252" lon="10.524356">
|
|
<ele>18.124938</ele>
|
|
<time>2026-07-17T14:19:34.000Z</time>
|
|
</trkpt>
|
|
<trkpt lat="57.705225" lon="10.524303">
|
|
<ele>18.139423</ele>
|
|
<time>2026-07-17T14:19:35.000Z</time>
|
|
</trkpt>
|
|
<trkpt lat="57.705200" lon="10.524241">
|
|
<ele>18.154787</ele>
|
|
<time>2026-07-17T14:19:36.000Z</time>
|
|
</trkpt>
|
|
<trkpt lat="57.705177" lon="10.524177">
|
|
<ele>18.170044</ele>
|
|
<time>2026-07-17T14:19:37.000Z</time>
|
|
</trkpt>
|
|
<trkpt lat="57.705154" lon="10.524110">
|
|
<ele>18.185796</ele>
|
|
<time>2026-07-17T14:19:38.000Z</time>
|
|
</trkpt>
|
|
<trkpt lat="57.705128" lon="10.524042">
|
|
<ele>18.202336</ele>
|
|
<time>2026-07-17T14:19:39.000Z</time>
|
|
</trkpt>
|
|
<trkpt lat="57.705100" lon="10.523973">
|
|
<ele>18.219475</ele>
|
|
<time>2026-07-17T14:19:40.000Z</time>
|
|
</trkpt>
|
|
<trkpt lat="57.705071" lon="10.523901">
|
|
<ele>18.237310</ele>
|
|
<time>2026-07-17T14:19:41.000Z</time>
|
|
</trkpt>
|
|
<trkpt lat="57.705038" lon="10.523826">
|
|
<ele>18.256528</ele>
|
|
<time>2026-07-17T14:19:42.000Z</time>
|
|
</trkpt>
|
|
<trkpt lat="57.705005" lon="10.523753">
|
|
<ele>18.275443</ele>
|
|
<time>2026-07-17T14:19:43.000Z</time>
|
|
</trkpt>
|
|
<trkpt lat="57.704974" lon="10.523679">
|
|
<ele>18.294043</ele>
|
|
<time>2026-07-17T14:19:44.000Z</time>
|
|
</trkpt>
|
|
<trkpt lat="57.704942" lon="10.523603">
|
|
<ele>18.313183</ele>
|
|
<time>2026-07-17T14:19:45.000Z</time>
|
|
</trkpt>
|
|
<trkpt lat="57.704909" lon="10.523528">
|
|
<ele>18.332401</ele>
|
|
<time>2026-07-17T14:19:46.000Z</time>
|
|
</trkpt>
|
|
<trkpt lat="57.704877" lon="10.523452">
|
|
<ele>18.351541</ele>
|
|
<time>2026-07-17T14:19:47.000Z</time>
|
|
</trkpt>
|
|
<trkpt lat="57.704839" lon="10.523382">
|
|
<ele>18.371280</ele>
|
|
<time>2026-07-17T14:19:48.000Z</time>
|
|
</trkpt>
|
|
<trkpt lat="57.704802" lon="10.523322">
|
|
<ele>18.389405</ele>
|
|
<time>2026-07-17T14:19:49.000Z</time>
|
|
</trkpt>
|
|
<trkpt lat="57.704769" lon="10.523262">
|
|
<ele>18.406438</ele>
|
|
<time>2026-07-17T14:19:50.000Z</time>
|
|
</trkpt>
|
|
<trkpt lat="57.704734" lon="10.523199">
|
|
<ele>18.424415</ele>
|
|
<time>2026-07-17T14:19:51.000Z</time>
|
|
</trkpt>
|
|
<trkpt lat="57.704705" lon="10.523134">
|
|
<ele>18.441166</ele>
|
|
<time>2026-07-17T14:19:52.000Z</time>
|
|
</trkpt>
|
|
<trkpt lat="57.704681" lon="10.523067">
|
|
<ele>18.457121</ele>
|
|
<time>2026-07-17T14:19:53.000Z</time>
|
|
</trkpt>
|
|
<trkpt lat="57.704665" lon="10.522986">
|
|
<ele>18.474203</ele>
|
|
<time>2026-07-17T14:19:54.000Z</time>
|
|
</trkpt>
|
|
<trkpt lat="57.704654" lon="10.522895">
|
|
<ele>18.492658</ele>
|
|
<time>2026-07-17T14:19:55.000Z</time>
|
|
</trkpt>
|
|
<trkpt lat="57.704644" lon="10.522806">
|
|
<ele>18.510648</ele>
|
|
<time>2026-07-17T14:19:56.000Z</time>
|
|
</trkpt>
|
|
<trkpt lat="57.704636" lon="10.522715">
|
|
<ele>18.528890</ele>
|
|
<time>2026-07-17T14:19:57.000Z</time>
|
|
</trkpt>
|
|
<trkpt lat="57.704629" lon="10.522631">
|
|
<ele>18.545706</ele>
|
|
<time>2026-07-17T14:19:58.000Z</time>
|
|
</trkpt>
|
|
<trkpt lat="57.704623" lon="10.522564">
|
|
<ele>18.559144</ele>
|
|
<time>2026-07-17T14:19:59.000Z</time>
|
|
</trkpt>
|
|
<trkpt lat="57.704620" lon="10.522520">
|
|
<ele>18.567918</ele>
|
|
<time>2026-07-17T14:20:00.000Z</time>
|
|
</trkpt>
|
|
<trkpt lat="57.704620" lon="10.522497">
|
|
<ele>18.572467</ele>
|
|
<time>2026-07-17T14:20:01.000Z</time>
|
|
</trkpt>
|
|
<trkpt lat="57.704622" lon="10.522551">
|
|
<ele>18.583174</ele>
|
|
<time>2026-07-17T14:20:08.000Z</time>
|
|
</trkpt>
|
|
<trkpt lat="57.704626" lon="10.522592">
|
|
<ele>18.591418</ele>
|
|
<time>2026-07-17T14:20:09.000Z</time>
|
|
</trkpt>
|
|
<trkpt lat="57.704628" lon="10.522636">
|
|
<ele>18.600153</ele>
|
|
<time>2026-07-17T14:20:10.000Z</time>
|
|
</trkpt>
|
|
<trkpt lat="57.704630" lon="10.522680">
|
|
<ele>18.608888</ele>
|
|
<time>2026-07-17T14:20:11.000Z</time>
|
|
</trkpt>
|
|
<trkpt lat="57.704633" lon="10.522727">
|
|
<ele>18.618251</ele>
|
|
<time>2026-07-17T14:20:12.000Z</time>
|
|
</trkpt>
|
|
<trkpt lat="57.704637" lon="10.522772">
|
|
<ele>18.627274</ele>
|
|
<time>2026-07-17T14:20:13.000Z</time>
|
|
</trkpt>
|
|
<trkpt lat="57.704638" lon="10.522812">
|
|
<ele>18.635195</ele>
|
|
<time>2026-07-17T14:20:14.000Z</time>
|
|
</trkpt>
|
|
<trkpt lat="57.704634" lon="10.522843">
|
|
<ele>18.641503</ele>
|
|
<time>2026-07-17T14:20:15.000Z</time>
|
|
</trkpt>
|
|
<trkpt lat="57.704630" lon="10.522867">
|
|
<ele>18.646476</ele>
|
|
<time>2026-07-17T14:20:16.000Z</time>
|
|
</trkpt>
|
|
<trkpt lat="57.704625" lon="10.522884">
|
|
<ele>18.645894</ele>
|
|
<time>2026-07-17T14:20:17.000Z</time>
|
|
</trkpt>
|
|
<trkpt lat="57.704619" lon="10.522896">
|
|
<ele>18.643578</ele>
|
|
<time>2026-07-17T14:20:18.000Z</time>
|
|
</trkpt>
|
|
<trkpt lat="57.704617" lon="10.522900">
|
|
<ele>18.642806</ele>
|
|
<time>2026-07-17T14:20:19.000Z</time>
|
|
</trkpt>
|
|
<trkpt lat="57.704354" lon="10.523259">
|
|
<ele>18.556961</ele>
|
|
<time>2026-07-17T14:29:18.000Z</time>
|
|
</trkpt>
|
|
<trkpt lat="57.704340" lon="10.523268">
|
|
<ele>18.553057</ele>
|
|
<time>2026-07-17T14:29:19.000Z</time>
|
|
</trkpt>
|
|
<trkpt lat="57.704323" lon="10.523274">
|
|
<ele>18.548495</ele>
|
|
<time>2026-07-17T14:29:20.000Z</time>
|
|
</trkpt>
|
|
<trkpt lat="57.704319" lon="10.523278">
|
|
<ele>18.547299</ele>
|
|
<time>2026-07-17T14:29:21.000Z</time>
|
|
</trkpt>
|
|
<trkpt lat="57.704278" lon="10.523450">
|
|
<ele>18.520761</ele>
|
|
<time>2026-07-17T14:29:41.000Z</time>
|
|
</trkpt>
|
|
<trkpt lat="57.704272" lon="10.523469">
|
|
<ele>18.517651</ele>
|
|
<time>2026-07-17T14:29:42.000Z</time>
|
|
</trkpt>
|
|
<trkpt lat="57.704266" lon="10.523488">
|
|
<ele>18.514541</ele>
|
|
<time>2026-07-17T14:29:43.000Z</time>
|
|
</trkpt>
|
|
<trkpt lat="57.704262" lon="10.523500">
|
|
<ele>18.512548</ele>
|
|
<time>2026-07-17T14:29:44.000Z</time>
|
|
</trkpt>
|
|
<trkpt lat="57.704373" lon="10.523214">
|
|
<ele>18.462740</ele>
|
|
<time>2026-07-17T14:39:49.000Z</time>
|
|
</trkpt>
|
|
<trkpt lat="57.704380" lon="10.523207">
|
|
<ele>18.460647</ele>
|
|
<time>2026-07-17T14:39:50.000Z</time>
|
|
</trkpt>
|
|
<trkpt lat="57.704380" lon="10.523207">
|
|
<ele>18.460647</ele>
|
|
<time>2026-07-17T14:39:51.000Z</time>
|
|
</trkpt>
|
|
<trkpt lat="57.704413" lon="10.523175">
|
|
<ele>18.450845</ele>
|
|
<time>2026-07-17T14:40:02.000Z</time>
|
|
</trkpt>
|
|
<trkpt lat="57.704465" lon="10.523123">
|
|
<ele>18.435297</ele>
|
|
<time>2026-07-17T14:40:03.000Z</time>
|
|
</trkpt>
|
|
<trkpt lat="57.704476" lon="10.523110">
|
|
<ele>18.431866</ele>
|
|
<time>2026-07-17T14:40:04.000Z</time>
|
|
</trkpt>
|
|
<trkpt lat="57.704486" lon="10.523103">
|
|
<ele>18.429051</ele>
|
|
<time>2026-07-17T14:40:05.000Z</time>
|
|
</trkpt>
|
|
<trkpt lat="57.704491" lon="10.523102">
|
|
<ele>18.427725</ele>
|
|
<time>2026-07-17T14:40:06.000Z</time>
|
|
</trkpt>
|
|
<trkpt lat="57.704491" lon="10.523102">
|
|
<ele>18.427725</ele>
|
|
<time>2026-07-17T14:40:07.000Z</time>
|
|
</trkpt>
|
|
<trkpt lat="57.704538" lon="10.522936">
|
|
<ele>18.401253</ele>
|
|
<time>2026-07-17T14:40:44.000Z</time>
|
|
</trkpt>
|
|
<trkpt lat="57.704542" lon="10.522899">
|
|
<ele>18.395934</ele>
|
|
<time>2026-07-17T14:40:45.000Z</time>
|
|
</trkpt>
|
|
<trkpt lat="57.704546" lon="10.522844">
|
|
<ele>18.388113</ele>
|
|
<time>2026-07-17T14:40:46.000Z</time>
|
|
</trkpt>
|
|
<trkpt lat="57.704548" lon="10.522783">
|
|
<ele>18.379502</ele>
|
|
<time>2026-07-17T14:40:47.000Z</time>
|
|
</trkpt>
|
|
<trkpt lat="57.704550" lon="10.522719">
|
|
<ele>18.370469</ele>
|
|
<time>2026-07-17T14:40:48.000Z</time>
|
|
</trkpt>
|
|
<trkpt lat="57.704552" lon="10.522651">
|
|
<ele>18.360873</ele>
|
|
<time>2026-07-17T14:40:49.000Z</time>
|
|
</trkpt>
|
|
<trkpt lat="57.704552" lon="10.522583">
|
|
<ele>18.351292</ele>
|
|
<time>2026-07-17T14:40:50.000Z</time>
|
|
</trkpt>
|
|
<trkpt lat="57.704550" lon="10.522521">
|
|
<ele>18.342540</ele>
|
|
<time>2026-07-17T14:40:51.000Z</time>
|
|
</trkpt>
|
|
<trkpt lat="57.704548" lon="10.522462">
|
|
<ele>18.334210</ele>
|
|
<time>2026-07-17T14:40:52.000Z</time>
|
|
</trkpt>
|
|
<trkpt lat="57.704548" lon="10.522396">
|
|
<ele>18.324910</ele>
|
|
<time>2026-07-17T14:40:53.000Z</time>
|
|
</trkpt>
|
|
<trkpt lat="57.704546" lon="10.522329">
|
|
<ele>18.315455</ele>
|
|
<time>2026-07-17T14:40:54.000Z</time>
|
|
</trkpt>
|
|
<trkpt lat="57.704541" lon="10.522256">
|
|
<ele>18.305085</ele>
|
|
<time>2026-07-17T14:40:55.000Z</time>
|
|
</trkpt>
|
|
<trkpt lat="57.704535" lon="10.522180">
|
|
<ele>18.294260</ele>
|
|
<time>2026-07-17T14:40:56.000Z</time>
|
|
</trkpt>
|
|
<trkpt lat="57.704528" lon="10.522107">
|
|
<ele>18.283810</ele>
|
|
<time>2026-07-17T14:40:57.000Z</time>
|
|
</trkpt>
|
|
<trkpt lat="57.704515" lon="10.522035">
|
|
<ele>18.273101</ele>
|
|
<time>2026-07-17T14:40:58.000Z</time>
|
|
</trkpt>
|
|
<trkpt lat="57.704498" lon="10.521964">
|
|
<ele>18.262138</ele>
|
|
<time>2026-07-17T14:40:59.000Z</time>
|
|
</trkpt>
|
|
<trkpt lat="57.704480" lon="10.521887">
|
|
<ele>18.250296</ele>
|
|
<time>2026-07-17T14:41:00.000Z</time>
|
|
</trkpt>
|
|
<trkpt lat="57.704467" lon="10.521806">
|
|
<ele>18.238379</ele>
|
|
<time>2026-07-17T14:41:01.000Z</time>
|
|
</trkpt>
|
|
<trkpt lat="57.704455" lon="10.521729">
|
|
<ele>18.227077</ele>
|
|
<time>2026-07-17T14:41:02.000Z</time>
|
|
</trkpt>
|
|
<trkpt lat="57.704444" lon="10.521658">
|
|
<ele>18.216661</ele>
|
|
<time>2026-07-17T14:41:03.000Z</time>
|
|
</trkpt>
|
|
<trkpt lat="57.704429" lon="10.521592">
|
|
<ele>18.206555</ele>
|
|
<time>2026-07-17T14:41:04.000Z</time>
|
|
</trkpt>
|
|
<trkpt lat="57.704412" lon="10.521525">
|
|
<ele>18.196104</ele>
|
|
<time>2026-07-17T14:41:05.000Z</time>
|
|
</trkpt>
|
|
<trkpt lat="57.704395" lon="10.521452">
|
|
<ele>18.184883</ele>
|
|
<time>2026-07-17T14:41:06.000Z</time>
|
|
</trkpt>
|
|
<trkpt lat="57.704374" lon="10.521377">
|
|
<ele>18.173443</ele>
|
|
<time>2026-07-17T14:41:07.000Z</time>
|
|
</trkpt>
|
|
<trkpt lat="57.704351" lon="10.521306">
|
|
<ele>18.174828</ele>
|
|
<time>2026-07-17T14:41:08.000Z</time>
|
|
</trkpt>
|
|
<trkpt lat="57.704330" lon="10.521236">
|
|
<ele>18.176167</ele>
|
|
<time>2026-07-17T14:41:09.000Z</time>
|
|
</trkpt>
|
|
<trkpt lat="57.704311" lon="10.521172">
|
|
<ele>18.177388</ele>
|
|
<time>2026-07-17T14:41:10.000Z</time>
|
|
</trkpt>
|
|
<trkpt lat="57.704290" lon="10.521118">
|
|
<ele>18.178502</ele>
|
|
<time>2026-07-17T14:41:11.000Z</time>
|
|
</trkpt>
|
|
<trkpt lat="57.704267" lon="10.521054">
|
|
<ele>18.179788</ele>
|
|
<time>2026-07-17T14:41:12.000Z</time>
|
|
</trkpt>
|
|
<trkpt lat="57.704243" lon="10.520974">
|
|
<ele>18.181318</ele>
|
|
<time>2026-07-17T14:41:13.000Z</time>
|
|
</trkpt>
|
|
<trkpt lat="57.704212" lon="10.520890">
|
|
<ele>18.183021</ele>
|
|
<time>2026-07-17T14:41:14.000Z</time>
|
|
</trkpt>
|
|
<trkpt lat="57.704176" lon="10.520798">
|
|
<ele>18.184923</ele>
|
|
<time>2026-07-17T14:41:15.000Z</time>
|
|
</trkpt>
|
|
<trkpt lat="57.704144" lon="10.520709">
|
|
<ele>18.186712</ele>
|
|
<time>2026-07-17T14:41:16.000Z</time>
|
|
</trkpt>
|
|
<trkpt lat="57.704109" lon="10.520611">
|
|
<ele>18.188678</ele>
|
|
<time>2026-07-17T14:41:17.000Z</time>
|
|
</trkpt>
|
|
<trkpt lat="57.704070" lon="10.520515">
|
|
<ele>18.190689</ele>
|
|
<time>2026-07-17T14:41:18.000Z</time>
|
|
</trkpt>
|
|
<trkpt lat="57.704032" lon="10.520425">
|
|
<ele>18.192603</ele>
|
|
<time>2026-07-17T14:41:19.000Z</time>
|
|
</trkpt>
|
|
<trkpt lat="57.703995" lon="10.520339">
|
|
<ele>18.194444</ele>
|
|
<time>2026-07-17T14:41:20.000Z</time>
|
|
</trkpt>
|
|
<trkpt lat="57.703963" lon="10.520254">
|
|
<ele>18.196178</ele>
|
|
<time>2026-07-17T14:41:21.000Z</time>
|
|
</trkpt>
|
|
<trkpt lat="57.703929" lon="10.520169">
|
|
<ele>18.197949</ele>
|
|
<time>2026-07-17T14:41:22.000Z</time>
|
|
</trkpt>
|
|
<trkpt lat="57.703889" lon="10.520081">
|
|
<ele>18.199876</ele>
|
|
<time>2026-07-17T14:41:23.000Z</time>
|
|
</trkpt>
|
|
<trkpt lat="57.703850" lon="10.519986">
|
|
<ele>18.201874</ele>
|
|
<time>2026-07-17T14:41:24.000Z</time>
|
|
</trkpt>
|
|
<trkpt lat="57.703818" lon="10.519890">
|
|
<ele>18.203761</ele>
|
|
<time>2026-07-17T14:41:25.000Z</time>
|
|
</trkpt>
|
|
<trkpt lat="57.703789" lon="10.519805">
|
|
<ele>18.205444</ele>
|
|
<time>2026-07-17T14:41:26.000Z</time>
|
|
</trkpt>
|
|
<trkpt lat="57.703757" lon="10.519725">
|
|
<ele>18.207110</ele>
|
|
<time>2026-07-17T14:41:27.000Z</time>
|
|
</trkpt>
|
|
<trkpt lat="57.703719" lon="10.519640">
|
|
<ele>18.208959</ele>
|
|
<time>2026-07-17T14:41:28.000Z</time>
|
|
</trkpt>
|
|
<trkpt lat="57.703681" lon="10.519547">
|
|
<ele>18.210911</ele>
|
|
<time>2026-07-17T14:41:29.000Z</time>
|
|
</trkpt>
|
|
<trkpt lat="57.703644" lon="10.519453">
|
|
<ele>18.212859</ele>
|
|
<time>2026-07-17T14:41:30.000Z</time>
|
|
</trkpt>
|
|
<trkpt lat="57.703607" lon="10.519365">
|
|
<ele>18.214726</ele>
|
|
<time>2026-07-17T14:41:31.000Z</time>
|
|
</trkpt>
|
|
<trkpt lat="57.703566" lon="10.519277">
|
|
<ele>18.216674</ele>
|
|
<time>2026-07-17T14:41:32.000Z</time>
|
|
</trkpt>
|
|
<trkpt lat="57.703528" lon="10.519189">
|
|
<ele>18.218561</ele>
|
|
<time>2026-07-17T14:41:33.000Z</time>
|
|
</trkpt>
|
|
<trkpt lat="57.703492" lon="10.519100">
|
|
<ele>18.220422</ele>
|
|
<time>2026-07-17T14:41:34.000Z</time>
|
|
</trkpt>
|
|
<trkpt lat="57.703457" lon="10.519011">
|
|
<ele>18.222266</ele>
|
|
<time>2026-07-17T14:41:35.000Z</time>
|
|
</trkpt>
|
|
<trkpt lat="57.703423" lon="10.518921">
|
|
<ele>18.224104</ele>
|
|
<time>2026-07-17T14:41:36.000Z</time>
|
|
</trkpt>
|
|
<trkpt lat="57.703389" lon="10.518833">
|
|
<ele>18.225915</ele>
|
|
<time>2026-07-17T14:41:37.000Z</time>
|
|
</trkpt>
|
|
<trkpt lat="57.703353" lon="10.518749">
|
|
<ele>18.227711</ele>
|
|
<time>2026-07-17T14:41:38.000Z</time>
|
|
</trkpt>
|
|
<trkpt lat="57.703315" lon="10.518665">
|
|
<ele>18.229586</ele>
|
|
<time>2026-07-17T14:41:39.000Z</time>
|
|
</trkpt>
|
|
<trkpt lat="57.703278" lon="10.518581">
|
|
<ele>18.238330</ele>
|
|
<time>2026-07-17T14:41:40.000Z</time>
|
|
</trkpt>
|
|
<trkpt lat="57.703244" lon="10.518499">
|
|
<ele>18.246667</ele>
|
|
<time>2026-07-17T14:41:41.000Z</time>
|
|
</trkpt>
|
|
<trkpt lat="57.703207" lon="10.518418">
|
|
<ele>18.255227</ele>
|
|
<time>2026-07-17T14:41:42.000Z</time>
|
|
</trkpt>
|
|
<trkpt lat="57.703168" lon="10.518335">
|
|
<ele>18.264104</ele>
|
|
<time>2026-07-17T14:41:43.000Z</time>
|
|
</trkpt>
|
|
<trkpt lat="57.703133" lon="10.518249">
|
|
<ele>18.272787</ele>
|
|
<time>2026-07-17T14:41:44.000Z</time>
|
|
</trkpt>
|
|
<trkpt lat="57.703096" lon="10.518162">
|
|
<ele>18.281719</ele>
|
|
<time>2026-07-17T14:41:45.000Z</time>
|
|
</trkpt>
|
|
<trkpt lat="57.703055" lon="10.518078">
|
|
<ele>18.290857</ele>
|
|
<time>2026-07-17T14:41:46.000Z</time>
|
|
</trkpt>
|
|
<trkpt lat="57.703019" lon="10.517993">
|
|
<ele>18.299569</ele>
|
|
<time>2026-07-17T14:41:47.000Z</time>
|
|
</trkpt>
|
|
<trkpt lat="57.702984" lon="10.517903">
|
|
<ele>18.308509</ele>
|
|
<time>2026-07-17T14:41:48.000Z</time>
|
|
</trkpt>
|
|
<trkpt lat="57.702948" lon="10.517816">
|
|
<ele>18.317348</ele>
|
|
<time>2026-07-17T14:41:49.000Z</time>
|
|
</trkpt>
|
|
<trkpt lat="57.702912" lon="10.517733">
|
|
<ele>18.325934</ele>
|
|
<time>2026-07-17T14:41:50.000Z</time>
|
|
</trkpt>
|
|
<trkpt lat="57.702876" lon="10.517650">
|
|
<ele>18.334521</ele>
|
|
<time>2026-07-17T14:41:51.000Z</time>
|
|
</trkpt>
|
|
<trkpt lat="57.702840" lon="10.517569">
|
|
<ele>18.342984</ele>
|
|
<time>2026-07-17T14:41:52.000Z</time>
|
|
</trkpt>
|
|
<trkpt lat="57.702806" lon="10.517487">
|
|
<ele>18.351320</ele>
|
|
<time>2026-07-17T14:41:53.000Z</time>
|
|
</trkpt>
|
|
<trkpt lat="57.702771" lon="10.517407">
|
|
<ele>18.359625</ele>
|
|
<time>2026-07-17T14:41:54.000Z</time>
|
|
</trkpt>
|
|
<trkpt lat="57.702737" lon="10.517331">
|
|
<ele>18.367587</ele>
|
|
<time>2026-07-17T14:41:55.000Z</time>
|
|
</trkpt>
|
|
<trkpt lat="57.702704" lon="10.517252">
|
|
<ele>18.375641</ele>
|
|
<time>2026-07-17T14:41:56.000Z</time>
|
|
</trkpt>
|
|
<trkpt lat="57.702670" lon="10.517169">
|
|
<ele>18.384042</ele>
|
|
<time>2026-07-17T14:41:57.000Z</time>
|
|
</trkpt>
|
|
<trkpt lat="57.702636" lon="10.517084">
|
|
<ele>18.392570</ele>
|
|
<time>2026-07-17T14:41:58.000Z</time>
|
|
</trkpt>
|
|
<trkpt lat="57.702601" lon="10.516998">
|
|
<ele>18.401253</ele>
|
|
<time>2026-07-17T14:41:59.000Z</time>
|
|
</trkpt>
|
|
<trkpt lat="57.702565" lon="10.516915">
|
|
<ele>18.409840</ele>
|
|
<time>2026-07-17T14:42:00.000Z</time>
|
|
</trkpt>
|
|
<trkpt lat="57.702530" lon="10.516837">
|
|
<ele>18.418021</ele>
|
|
<time>2026-07-17T14:42:01.000Z</time>
|
|
</trkpt>
|
|
<trkpt lat="57.702494" lon="10.516761">
|
|
<ele>18.426179</ele>
|
|
<time>2026-07-17T14:42:02.000Z</time>
|
|
</trkpt>
|
|
<trkpt lat="57.702456" lon="10.516684">
|
|
<ele>18.434598</ele>
|
|
<time>2026-07-17T14:42:03.000Z</time>
|
|
</trkpt>
|
|
<trkpt lat="57.702420" lon="10.516605">
|
|
<ele>18.442938</ele>
|
|
<time>2026-07-17T14:42:04.000Z</time>
|
|
</trkpt>
|
|
<trkpt lat="57.702384" lon="10.516523">
|
|
<ele>18.451462</ele>
|
|
<time>2026-07-17T14:42:05.000Z</time>
|
|
</trkpt>
|
|
<trkpt lat="57.702346" lon="10.516440">
|
|
<ele>18.460242</ele>
|
|
<time>2026-07-17T14:42:06.000Z</time>
|
|
</trkpt>
|
|
<trkpt lat="57.702308" lon="10.516359">
|
|
<ele>18.468900</ele>
|
|
<time>2026-07-17T14:42:07.000Z</time>
|
|
</trkpt>
|
|
<trkpt lat="57.702270" lon="10.516279">
|
|
<ele>18.477497</ele>
|
|
<time>2026-07-17T14:42:08.000Z</time>
|
|
</trkpt>
|
|
<trkpt lat="57.702232" lon="10.516196">
|
|
<ele>18.486277</ele>
|
|
<time>2026-07-17T14:42:09.000Z</time>
|
|
</trkpt>
|
|
<trkpt lat="57.702195" lon="10.516110">
|
|
<ele>18.495145</ele>
|
|
<time>2026-07-17T14:42:10.000Z</time>
|
|
</trkpt>
|
|
<trkpt lat="57.702157" lon="10.516024">
|
|
<ele>18.502464</ele>
|
|
<time>2026-07-17T14:42:11.000Z</time>
|
|
</trkpt>
|
|
<trkpt lat="57.702117" lon="10.515941">
|
|
<ele>18.507917</ele>
|
|
<time>2026-07-17T14:42:12.000Z</time>
|
|
</trkpt>
|
|
<trkpt lat="57.702077" lon="10.515860">
|
|
<ele>18.513299</ele>
|
|
<time>2026-07-17T14:42:13.000Z</time>
|
|
</trkpt>
|
|
<trkpt lat="57.702033" lon="10.515785">
|
|
<ele>18.518733</ele>
|
|
<time>2026-07-17T14:42:14.000Z</time>
|
|
</trkpt>
|
|
<trkpt lat="57.701988" lon="10.515717">
|
|
<ele>18.524014</ele>
|
|
<time>2026-07-17T14:42:15.000Z</time>
|
|
</trkpt>
|
|
<trkpt lat="57.701942" lon="10.515649">
|
|
<ele>18.529367</ele>
|
|
<time>2026-07-17T14:42:16.000Z</time>
|
|
</trkpt>
|
|
<trkpt lat="57.701898" lon="10.515584">
|
|
<ele>18.534485</ele>
|
|
<time>2026-07-17T14:42:17.000Z</time>
|
|
</trkpt>
|
|
<trkpt lat="57.701856" lon="10.515522">
|
|
<ele>18.539370</ele>
|
|
<time>2026-07-17T14:42:18.000Z</time>
|
|
</trkpt>
|
|
<trkpt lat="57.701814" lon="10.515463">
|
|
<ele>18.544165</ele>
|
|
<time>2026-07-17T14:42:19.000Z</time>
|
|
</trkpt>
|
|
<trkpt lat="57.701775" lon="10.515409">
|
|
<ele>18.548595</ele>
|
|
<time>2026-07-17T14:42:20.000Z</time>
|
|
</trkpt>
|
|
<trkpt lat="57.701743" lon="10.515360">
|
|
<ele>18.552370</ele>
|
|
<time>2026-07-17T14:42:21.000Z</time>
|
|
</trkpt>
|
|
<trkpt lat="57.701714" lon="10.515311">
|
|
<ele>18.555938</ele>
|
|
<time>2026-07-17T14:42:22.000Z</time>
|
|
</trkpt>
|
|
<trkpt lat="57.701687" lon="10.515257">
|
|
<ele>18.559546</ele>
|
|
<time>2026-07-17T14:42:23.000Z</time>
|
|
</trkpt>
|
|
<trkpt lat="57.701660" lon="10.515199">
|
|
<ele>18.563299</ele>
|
|
<time>2026-07-17T14:42:24.000Z</time>
|
|
</trkpt>
|
|
<trkpt lat="57.701635" lon="10.515142">
|
|
<ele>18.566897</ele>
|
|
<time>2026-07-17T14:42:25.000Z</time>
|
|
</trkpt>
|
|
<trkpt lat="57.701615" lon="10.515088">
|
|
<ele>18.570103</ele>
|
|
<time>2026-07-17T14:42:26.000Z</time>
|
|
</trkpt>
|
|
<trkpt lat="57.701597" lon="10.515037">
|
|
<ele>18.573085</ele>
|
|
<time>2026-07-17T14:42:27.000Z</time>
|
|
</trkpt>
|
|
<trkpt lat="57.701573" lon="10.514987">
|
|
<ele>18.576364</ele>
|
|
<time>2026-07-17T14:42:28.000Z</time>
|
|
</trkpt>
|
|
<trkpt lat="57.701545" lon="10.514933">
|
|
<ele>18.580036</ele>
|
|
<time>2026-07-17T14:42:29.000Z</time>
|
|
</trkpt>
|
|
<trkpt lat="57.701516" lon="10.514879">
|
|
<ele>18.583771</ele>
|
|
<time>2026-07-17T14:42:30.000Z</time>
|
|
</trkpt>
|
|
<trkpt lat="57.701490" lon="10.514831">
|
|
<ele>18.587106</ele>
|
|
<time>2026-07-17T14:42:31.000Z</time>
|
|
</trkpt>
|
|
<trkpt lat="57.701450" lon="10.514766">
|
|
<ele>18.591943</ele>
|
|
<time>2026-07-17T14:42:32.000Z</time>
|
|
</trkpt>
|
|
<trkpt lat="57.701409" lon="10.514706">
|
|
<ele>18.596695</ele>
|
|
<time>2026-07-17T14:42:33.000Z</time>
|
|
</trkpt>
|
|
<trkpt lat="57.701369" lon="10.514646">
|
|
<ele>18.601376</ele>
|
|
<time>2026-07-17T14:42:34.000Z</time>
|
|
</trkpt>
|
|
<trkpt lat="57.701331" lon="10.514588">
|
|
<ele>18.605854</ele>
|
|
<time>2026-07-17T14:42:35.000Z</time>
|
|
</trkpt>
|
|
<trkpt lat="57.701293" lon="10.514530">
|
|
<ele>18.610331</ele>
|
|
<time>2026-07-17T14:42:36.000Z</time>
|
|
</trkpt>
|
|
<trkpt lat="57.701255" lon="10.514475">
|
|
<ele>18.614718</ele>
|
|
<time>2026-07-17T14:42:37.000Z</time>
|
|
</trkpt>
|
|
<trkpt lat="57.701217" lon="10.514419">
|
|
<ele>18.619134</ele>
|
|
<time>2026-07-17T14:42:38.000Z</time>
|
|
</trkpt>
|
|
<trkpt lat="57.701178" lon="10.514357">
|
|
<ele>18.623807</ele>
|
|
<time>2026-07-17T14:42:39.000Z</time>
|
|
</trkpt>
|
|
<trkpt lat="57.701139" lon="10.514294">
|
|
<ele>18.628511</ele>
|
|
<time>2026-07-17T14:42:40.000Z</time>
|
|
</trkpt>
|
|
<trkpt lat="57.701095" lon="10.514225">
|
|
<ele>18.633753</ele>
|
|
<time>2026-07-17T14:42:41.000Z</time>
|
|
</trkpt>
|
|
<trkpt lat="57.701049" lon="10.514144">
|
|
<ele>18.639520</ele>
|
|
<time>2026-07-17T14:42:42.000Z</time>
|
|
</trkpt>
|
|
<trkpt lat="57.701004" lon="10.514062">
|
|
<ele>18.645255</ele>
|
|
<time>2026-07-17T14:42:43.000Z</time>
|
|
</trkpt>
|
|
<trkpt lat="57.700959" lon="10.513987">
|
|
<ele>18.650757</ele>
|
|
<time>2026-07-17T14:42:44.000Z</time>
|
|
</trkpt>
|
|
<trkpt lat="57.700918" lon="10.513912">
|
|
<ele>18.655992</ele>
|
|
<time>2026-07-17T14:42:45.000Z</time>
|
|
</trkpt>
|
|
<trkpt lat="57.700872" lon="10.513841">
|
|
<ele>18.661437</ele>
|
|
<time>2026-07-17T14:42:46.000Z</time>
|
|
</trkpt>
|
|
<trkpt lat="57.700825" lon="10.513769">
|
|
<ele>18.665061</ele>
|
|
<time>2026-07-17T14:42:47.000Z</time>
|
|
</trkpt>
|
|
<trkpt lat="57.700782" lon="10.513697">
|
|
<ele>18.666749</ele>
|
|
<time>2026-07-17T14:42:48.000Z</time>
|
|
</trkpt>
|
|
<trkpt lat="57.700744" lon="10.513630">
|
|
<ele>18.668276</ele>
|
|
<time>2026-07-17T14:42:49.000Z</time>
|
|
</trkpt>
|
|
<trkpt lat="57.700706" lon="10.513566">
|
|
<ele>18.669772</ele>
|
|
<time>2026-07-17T14:42:50.000Z</time>
|
|
</trkpt>
|
|
<trkpt lat="57.700667" lon="10.513500">
|
|
<ele>18.671310</ele>
|
|
<time>2026-07-17T14:42:51.000Z</time>
|
|
</trkpt>
|
|
<trkpt lat="57.700628" lon="10.513433">
|
|
<ele>18.672859</ele>
|
|
<time>2026-07-17T14:42:52.000Z</time>
|
|
</trkpt>
|
|
<trkpt lat="57.700585" lon="10.513360">
|
|
<ele>18.674557</ele>
|
|
<time>2026-07-17T14:42:53.000Z</time>
|
|
</trkpt>
|
|
<trkpt lat="57.700540" lon="10.513278">
|
|
<ele>18.676395</ele>
|
|
<time>2026-07-17T14:42:54.000Z</time>
|
|
</trkpt>
|
|
<trkpt lat="57.700492" lon="10.513188">
|
|
<ele>18.678382</ele>
|
|
<time>2026-07-17T14:42:55.000Z</time>
|
|
</trkpt>
|
|
<trkpt lat="57.700443" lon="10.513103">
|
|
<ele>18.680337</ele>
|
|
<time>2026-07-17T14:42:56.000Z</time>
|
|
</trkpt>
|
|
<trkpt lat="57.700390" lon="10.513026">
|
|
<ele>18.682300</ele>
|
|
<time>2026-07-17T14:42:57.000Z</time>
|
|
</trkpt>
|
|
<trkpt lat="57.700337" lon="10.512952">
|
|
<ele>18.684234</ele>
|
|
<time>2026-07-17T14:42:58.000Z</time>
|
|
</trkpt>
|
|
<trkpt lat="57.700285" lon="10.512880">
|
|
<ele>18.686126</ele>
|
|
<time>2026-07-17T14:42:59.000Z</time>
|
|
</trkpt>
|
|
<trkpt lat="57.700236" lon="10.512811">
|
|
<ele>18.687920</ele>
|
|
<time>2026-07-17T14:43:00.000Z</time>
|
|
</trkpt>
|
|
<trkpt lat="57.700186" lon="10.512742">
|
|
<ele>18.689738</ele>
|
|
<time>2026-07-17T14:43:01.000Z</time>
|
|
</trkpt>
|
|
<trkpt lat="57.700139" lon="10.512671">
|
|
<ele>18.691505</ele>
|
|
<time>2026-07-17T14:43:02.000Z</time>
|
|
</trkpt>
|
|
<trkpt lat="57.700096" lon="10.512603">
|
|
<ele>18.693152</ele>
|
|
<time>2026-07-17T14:43:03.000Z</time>
|
|
</trkpt>
|
|
<trkpt lat="57.700050" lon="10.512536">
|
|
<ele>18.694857</ele>
|
|
<time>2026-07-17T14:43:04.000Z</time>
|
|
</trkpt>
|
|
<trkpt lat="57.700004" lon="10.512469">
|
|
<ele>18.696562</ele>
|
|
<time>2026-07-17T14:43:05.000Z</time>
|
|
</trkpt>
|
|
<trkpt lat="57.699959" lon="10.512401">
|
|
<ele>18.698254</ele>
|
|
<time>2026-07-17T14:43:06.000Z</time>
|
|
</trkpt>
|
|
<trkpt lat="57.699913" lon="10.512335">
|
|
<ele>18.699950</ele>
|
|
<time>2026-07-17T14:43:07.000Z</time>
|
|
</trkpt>
|
|
<trkpt lat="57.699867" lon="10.512270">
|
|
<ele>18.701636</ele>
|
|
<time>2026-07-17T14:43:08.000Z</time>
|
|
</trkpt>
|
|
<trkpt lat="57.699821" lon="10.512204">
|
|
<ele>18.703332</ele>
|
|
<time>2026-07-17T14:43:09.000Z</time>
|
|
</trkpt>
|
|
<trkpt lat="57.699776" lon="10.512141">
|
|
<ele>18.704976</ele>
|
|
<time>2026-07-17T14:43:10.000Z</time>
|
|
</trkpt>
|
|
<trkpt lat="57.699727" lon="10.512087">
|
|
<ele>18.706639</ele>
|
|
<time>2026-07-17T14:43:11.000Z</time>
|
|
</trkpt>
|
|
<trkpt lat="57.699674" lon="10.512039">
|
|
<ele>18.708362</ele>
|
|
<time>2026-07-17T14:43:12.000Z</time>
|
|
</trkpt>
|
|
<trkpt lat="57.699626" lon="10.511998">
|
|
<ele>18.709905</ele>
|
|
<time>2026-07-17T14:43:13.000Z</time>
|
|
</trkpt>
|
|
<trkpt lat="57.699581" lon="10.511963">
|
|
<ele>18.711331</ele>
|
|
<time>2026-07-17T14:43:14.000Z</time>
|
|
</trkpt>
|
|
<trkpt lat="57.699533" lon="10.511933">
|
|
<ele>18.712811</ele>
|
|
<time>2026-07-17T14:43:15.000Z</time>
|
|
</trkpt>
|
|
<trkpt lat="57.699486" lon="10.511912">
|
|
<ele>18.714225</ele>
|
|
<time>2026-07-17T14:43:16.000Z</time>
|
|
</trkpt>
|
|
<trkpt lat="57.699439" lon="10.511895">
|
|
<ele>18.715625</ele>
|
|
<time>2026-07-17T14:43:17.000Z</time>
|
|
</trkpt>
|
|
<trkpt lat="57.699390" lon="10.511886">
|
|
<ele>18.718558</ele>
|
|
<time>2026-07-17T14:43:18.000Z</time>
|
|
</trkpt>
|
|
<trkpt lat="57.699344" lon="10.511880">
|
|
<ele>18.726786</ele>
|
|
<time>2026-07-17T14:43:19.000Z</time>
|
|
</trkpt>
|
|
<trkpt lat="57.699299" lon="10.511874">
|
|
<ele>18.734836</ele>
|
|
<time>2026-07-17T14:43:20.000Z</time>
|
|
</trkpt>
|
|
<trkpt lat="57.699252" lon="10.511866">
|
|
<ele>18.743256</ele>
|
|
<time>2026-07-17T14:43:21.000Z</time>
|
|
</trkpt>
|
|
<trkpt lat="57.699203" lon="10.511859">
|
|
<ele>18.752025</ele>
|
|
<time>2026-07-17T14:43:22.000Z</time>
|
|
</trkpt>
|
|
<trkpt lat="57.699156" lon="10.511854">
|
|
<ele>18.760424</ele>
|
|
<time>2026-07-17T14:43:23.000Z</time>
|
|
</trkpt>
|
|
<trkpt lat="57.699105" lon="10.511847">
|
|
<ele>18.769548</ele>
|
|
<time>2026-07-17T14:43:24.000Z</time>
|
|
</trkpt>
|
|
<trkpt lat="57.699048" lon="10.511831">
|
|
<ele>18.779833</ele>
|
|
<time>2026-07-17T14:43:25.000Z</time>
|
|
</trkpt>
|
|
<trkpt lat="57.698988" lon="10.511813">
|
|
<ele>18.790675</ele>
|
|
<time>2026-07-17T14:43:26.000Z</time>
|
|
</trkpt>
|
|
<trkpt lat="57.698926" lon="10.511794">
|
|
<ele>18.801885</ele>
|
|
<time>2026-07-17T14:43:27.000Z</time>
|
|
</trkpt>
|
|
<trkpt lat="57.698867" lon="10.511770">
|
|
<ele>18.812658</ele>
|
|
<time>2026-07-17T14:43:28.000Z</time>
|
|
</trkpt>
|
|
<trkpt lat="57.698811" lon="10.511744">
|
|
<ele>18.822953</ele>
|
|
<time>2026-07-17T14:43:29.000Z</time>
|
|
</trkpt>
|
|
<trkpt lat="57.698757" lon="10.511711">
|
|
<ele>18.833088</ele>
|
|
<time>2026-07-17T14:43:30.000Z</time>
|
|
</trkpt>
|
|
<trkpt lat="57.698707" lon="10.511673">
|
|
<ele>18.842717</ele>
|
|
<time>2026-07-17T14:43:31.000Z</time>
|
|
</trkpt>
|
|
<trkpt lat="57.698661" lon="10.511624">
|
|
<ele>18.852161</ele>
|
|
<time>2026-07-17T14:43:32.000Z</time>
|
|
</trkpt>
|
|
<trkpt lat="57.698615" lon="10.511568">
|
|
<ele>18.861953</ele>
|
|
<time>2026-07-17T14:43:33.000Z</time>
|
|
</trkpt>
|
|
<trkpt lat="57.698567" lon="10.511516">
|
|
<ele>18.871849</ele>
|
|
<time>2026-07-17T14:43:34.000Z</time>
|
|
</trkpt>
|
|
<trkpt lat="57.698515" lon="10.511464">
|
|
<ele>18.882369</ele>
|
|
<time>2026-07-17T14:43:35.000Z</time>
|
|
</trkpt>
|
|
<trkpt lat="57.698461" lon="10.511413">
|
|
<ele>18.893162</ele>
|
|
<time>2026-07-17T14:43:36.000Z</time>
|
|
</trkpt>
|
|
<trkpt lat="57.698412" lon="10.511359">
|
|
<ele>18.903308</ele>
|
|
<time>2026-07-17T14:43:37.000Z</time>
|
|
</trkpt>
|
|
<trkpt lat="57.698362" lon="10.511306">
|
|
<ele>18.913561</ele>
|
|
<time>2026-07-17T14:43:38.000Z</time>
|
|
</trkpt>
|
|
<trkpt lat="57.698312" lon="10.511249">
|
|
<ele>18.924007</ele>
|
|
<time>2026-07-17T14:43:39.000Z</time>
|
|
</trkpt>
|
|
<trkpt lat="57.698263" lon="10.511193">
|
|
<ele>18.934252</ele>
|
|
<time>2026-07-17T14:43:40.000Z</time>
|
|
</trkpt>
|
|
<trkpt lat="57.698213" lon="10.511146">
|
|
<ele>18.944235</ele>
|
|
<time>2026-07-17T14:43:41.000Z</time>
|
|
</trkpt>
|
|
<trkpt lat="57.698164" lon="10.511098">
|
|
<ele>18.954104</ele>
|
|
<time>2026-07-17T14:43:42.000Z</time>
|
|
</trkpt>
|
|
<trkpt lat="57.698114" lon="10.511049">
|
|
<ele>18.964174</ele>
|
|
<time>2026-07-17T14:43:43.000Z</time>
|
|
</trkpt>
|
|
<trkpt lat="57.698065" lon="10.511002">
|
|
<ele>18.973999</ele>
|
|
<time>2026-07-17T14:43:44.000Z</time>
|
|
</trkpt>
|
|
<trkpt lat="57.698015" lon="10.510959">
|
|
<ele>18.983817</ele>
|
|
<time>2026-07-17T14:43:45.000Z</time>
|
|
</trkpt>
|
|
<trkpt lat="57.697969" lon="10.510921">
|
|
<ele>18.992789</ele>
|
|
<time>2026-07-17T14:43:46.000Z</time>
|
|
</trkpt>
|
|
<trkpt lat="57.697923" lon="10.510879">
|
|
<ele>19.001922</ele>
|
|
<time>2026-07-17T14:43:47.000Z</time>
|
|
</trkpt>
|
|
<trkpt lat="57.697876" lon="10.510831">
|
|
<ele>19.011475</ele>
|
|
<time>2026-07-17T14:43:48.000Z</time>
|
|
</trkpt>
|
|
<trkpt lat="57.697830" lon="10.510785">
|
|
<ele>19.020781</ele>
|
|
<time>2026-07-17T14:43:49.000Z</time>
|
|
</trkpt>
|
|
<trkpt lat="57.697784" lon="10.510743">
|
|
<ele>19.029914</ele>
|
|
<time>2026-07-17T14:43:50.000Z</time>
|
|
</trkpt>
|
|
<trkpt lat="57.697738" lon="10.510693">
|
|
<ele>19.038247</ele>
|
|
<time>2026-07-17T14:43:51.000Z</time>
|
|
</trkpt>
|
|
<trkpt lat="57.697692" lon="10.510645">
|
|
<ele>19.041262</ele>
|
|
<time>2026-07-17T14:43:52.000Z</time>
|
|
</trkpt>
|
|
<trkpt lat="57.697646" lon="10.510597">
|
|
<ele>19.044278</ele>
|
|
<time>2026-07-17T14:43:53.000Z</time>
|
|
</trkpt>
|
|
<trkpt lat="57.697601" lon="10.510542">
|
|
<ele>19.047356</ele>
|
|
<time>2026-07-17T14:43:54.000Z</time>
|
|
</trkpt>
|
|
<trkpt lat="57.697554" lon="10.510481">
|
|
<ele>19.050631</ele>
|
|
<time>2026-07-17T14:43:55.000Z</time>
|
|
</trkpt>
|
|
<trkpt lat="57.697506" lon="10.510424">
|
|
<ele>19.053886</ele>
|
|
<time>2026-07-17T14:43:56.000Z</time>
|
|
</trkpt>
|
|
<trkpt lat="57.697460" lon="10.510366">
|
|
<ele>19.057062</ele>
|
|
<time>2026-07-17T14:43:57.000Z</time>
|
|
</trkpt>
|
|
<trkpt lat="57.697411" lon="10.510302">
|
|
<ele>19.060484</ele>
|
|
<time>2026-07-17T14:43:58.000Z</time>
|
|
</trkpt>
|
|
<trkpt lat="57.697361" lon="10.510238">
|
|
<ele>19.063953</ele>
|
|
<time>2026-07-17T14:43:59.000Z</time>
|
|
</trkpt>
|
|
<trkpt lat="57.697315" lon="10.510185">
|
|
<ele>19.067046</ele>
|
|
<time>2026-07-17T14:44:00.000Z</time>
|
|
</trkpt>
|
|
<trkpt lat="57.697267" lon="10.510122">
|
|
<ele>19.070403</ele>
|
|
<time>2026-07-17T14:44:01.000Z</time>
|
|
</trkpt>
|
|
<trkpt lat="57.697221" lon="10.510060">
|
|
<ele>19.073649</ele>
|
|
<time>2026-07-17T14:44:02.000Z</time>
|
|
</trkpt>
|
|
<trkpt lat="57.697181" lon="10.510017">
|
|
<ele>19.076290</ele>
|
|
<time>2026-07-17T14:44:03.000Z</time>
|
|
</trkpt>
|
|
<trkpt lat="57.697138" lon="10.509976">
|
|
<ele>19.079054</ele>
|
|
<time>2026-07-17T14:44:04.000Z</time>
|
|
</trkpt>
|
|
<trkpt lat="57.697090" lon="10.509926">
|
|
<ele>19.082200</ele>
|
|
<time>2026-07-17T14:44:05.000Z</time>
|
|
</trkpt>
|
|
<trkpt lat="57.697042" lon="10.509872">
|
|
<ele>19.085406</ele>
|
|
<time>2026-07-17T14:44:06.000Z</time>
|
|
</trkpt>
|
|
<trkpt lat="57.696991" lon="10.509810">
|
|
<ele>19.088889</ele>
|
|
<time>2026-07-17T14:44:07.000Z</time>
|
|
</trkpt>
|
|
<trkpt lat="57.696936" lon="10.509732">
|
|
<ele>19.092840</ele>
|
|
<time>2026-07-17T14:44:08.000Z</time>
|
|
</trkpt>
|
|
<trkpt lat="57.696883" lon="10.509675">
|
|
<ele>19.096341</ele>
|
|
<time>2026-07-17T14:44:09.000Z</time>
|
|
</trkpt>
|
|
<trkpt lat="57.696836" lon="10.509626">
|
|
<ele>19.099422</ele>
|
|
<time>2026-07-17T14:44:10.000Z</time>
|
|
</trkpt>
|
|
<trkpt lat="57.696787" lon="10.509567">
|
|
<ele>19.102758</ele>
|
|
<time>2026-07-17T14:44:11.000Z</time>
|
|
</trkpt>
|
|
<trkpt lat="57.696737" lon="10.509496">
|
|
<ele>19.106352</ele>
|
|
<time>2026-07-17T14:44:12.000Z</time>
|
|
</trkpt>
|
|
<trkpt lat="57.696692" lon="10.509409">
|
|
<ele>19.110057</ele>
|
|
<time>2026-07-17T14:44:13.000Z</time>
|
|
</trkpt>
|
|
<trkpt lat="57.696657" lon="10.509312">
|
|
<ele>19.113638</ele>
|
|
<time>2026-07-17T14:44:14.000Z</time>
|
|
</trkpt>
|
|
<trkpt lat="57.696627" lon="10.509212">
|
|
<ele>19.117148</ele>
|
|
<time>2026-07-17T14:44:15.000Z</time>
|
|
</trkpt>
|
|
<trkpt lat="57.696600" lon="10.509110">
|
|
<ele>19.120631</ele>
|
|
<time>2026-07-17T14:44:16.000Z</time>
|
|
</trkpt>
|
|
<trkpt lat="57.696575" lon="10.509008">
|
|
<ele>19.124064</ele>
|
|
<time>2026-07-17T14:44:17.000Z</time>
|
|
</trkpt>
|
|
<trkpt lat="57.696552" lon="10.508905">
|
|
<ele>19.127480</ele>
|
|
<time>2026-07-17T14:44:18.000Z</time>
|
|
</trkpt>
|
|
<trkpt lat="57.696533" lon="10.508802">
|
|
<ele>19.130815</ele>
|
|
<time>2026-07-17T14:44:19.000Z</time>
|
|
</trkpt>
|
|
<trkpt lat="57.696511" lon="10.508699">
|
|
<ele>19.134209</ele>
|
|
<time>2026-07-17T14:44:20.000Z</time>
|
|
</trkpt>
|
|
<trkpt lat="57.696486" lon="10.508596">
|
|
<ele>19.137671</ele>
|
|
<time>2026-07-17T14:44:21.000Z</time>
|
|
</trkpt>
|
|
<trkpt lat="57.696461" lon="10.508502">
|
|
<ele>19.141874</ele>
|
|
<time>2026-07-17T14:44:22.000Z</time>
|
|
</trkpt>
|
|
<trkpt lat="57.696431" lon="10.508416">
|
|
<ele>19.161071</ele>
|
|
<time>2026-07-17T14:44:23.000Z</time>
|
|
</trkpt>
|
|
<trkpt lat="57.696395" lon="10.508326">
|
|
<ele>19.182085</ele>
|
|
<time>2026-07-17T14:44:24.000Z</time>
|
|
</trkpt>
|
|
<trkpt lat="57.696352" lon="10.508232">
|
|
<ele>19.205214</ele>
|
|
<time>2026-07-17T14:44:25.000Z</time>
|
|
</trkpt>
|
|
<trkpt lat="57.696306" lon="10.508152">
|
|
<ele>19.227180</ele>
|
|
<time>2026-07-17T14:44:26.000Z</time>
|
|
</trkpt>
|
|
<trkpt lat="57.696264" lon="10.508086">
|
|
<ele>19.246364</ele>
|
|
<time>2026-07-17T14:44:27.000Z</time>
|
|
</trkpt>
|
|
<trkpt lat="57.696218" lon="10.508032">
|
|
<ele>19.265358</ele>
|
|
<time>2026-07-17T14:44:28.000Z</time>
|
|
</trkpt>
|
|
<trkpt lat="57.696169" lon="10.507988">
|
|
<ele>19.284368</ele>
|
|
<time>2026-07-17T14:44:29.000Z</time>
|
|
</trkpt>
|
|
<trkpt lat="57.696120" lon="10.507949">
|
|
<ele>19.302993</ele>
|
|
<time>2026-07-17T14:44:30.000Z</time>
|
|
</trkpt>
|
|
<trkpt lat="57.696071" lon="10.507909">
|
|
<ele>19.321693</ele>
|
|
<time>2026-07-17T14:44:31.000Z</time>
|
|
</trkpt>
|
|
<trkpt lat="57.696025" lon="10.507870">
|
|
<ele>19.339357</ele>
|
|
<time>2026-07-17T14:44:32.000Z</time>
|
|
</trkpt>
|
|
<trkpt lat="57.695980" lon="10.507834">
|
|
<ele>19.356475</ele>
|
|
<time>2026-07-17T14:44:33.000Z</time>
|
|
</trkpt>
|
|
<trkpt lat="57.695931" lon="10.507798">
|
|
<ele>19.374888</ele>
|
|
<time>2026-07-17T14:44:34.000Z</time>
|
|
</trkpt>
|
|
<trkpt lat="57.695880" lon="10.507760">
|
|
<ele>19.394089</ele>
|
|
<time>2026-07-17T14:44:35.000Z</time>
|
|
</trkpt>
|
|
<trkpt lat="57.695831" lon="10.507720">
|
|
<ele>19.412788</ele>
|
|
<time>2026-07-17T14:44:36.000Z</time>
|
|
</trkpt>
|
|
<trkpt lat="57.695784" lon="10.507681">
|
|
<ele>19.430772</ele>
|
|
<time>2026-07-17T14:44:37.000Z</time>
|
|
</trkpt>
|
|
<trkpt lat="57.695734" lon="10.507642">
|
|
<ele>19.449719</ele>
|
|
<time>2026-07-17T14:44:38.000Z</time>
|
|
</trkpt>
|
|
<trkpt lat="57.695686" lon="10.507608">
|
|
<ele>19.467672</ele>
|
|
<time>2026-07-17T14:44:39.000Z</time>
|
|
</trkpt>
|
|
<trkpt lat="57.695639" lon="10.507570">
|
|
<ele>19.485580</ele>
|
|
<time>2026-07-17T14:44:40.000Z</time>
|
|
</trkpt>
|
|
<trkpt lat="57.695591" lon="10.507528">
|
|
<ele>19.504115</ele>
|
|
<time>2026-07-17T14:44:41.000Z</time>
|
|
</trkpt>
|
|
<trkpt lat="57.695548" lon="10.507490">
|
|
<ele>19.520748</ele>
|
|
<time>2026-07-17T14:44:42.000Z</time>
|
|
</trkpt>
|
|
<trkpt lat="57.695511" lon="10.507441">
|
|
<ele>19.536603</ele>
|
|
<time>2026-07-17T14:44:43.000Z</time>
|
|
</trkpt>
|
|
<trkpt lat="57.695472" lon="10.507375">
|
|
<ele>19.554996</ele>
|
|
<time>2026-07-17T14:44:44.000Z</time>
|
|
</trkpt>
|
|
<trkpt lat="57.695434" lon="10.507301">
|
|
<ele>19.574180</ele>
|
|
<time>2026-07-17T14:44:45.000Z</time>
|
|
</trkpt>
|
|
<trkpt lat="57.695397" lon="10.507216">
|
|
<ele>19.594673</ele>
|
|
<time>2026-07-17T14:44:46.000Z</time>
|
|
</trkpt>
|
|
<trkpt lat="57.695364" lon="10.507131">
|
|
<ele>19.614312</ele>
|
|
<time>2026-07-17T14:44:47.000Z</time>
|
|
</trkpt>
|
|
<trkpt lat="57.695336" lon="10.507052">
|
|
<ele>19.632032</ele>
|
|
<time>2026-07-17T14:44:48.000Z</time>
|
|
</trkpt>
|
|
<trkpt lat="57.695314" lon="10.506980">
|
|
<ele>19.647535</ele>
|
|
<time>2026-07-17T14:44:49.000Z</time>
|
|
</trkpt>
|
|
<trkpt lat="57.695298" lon="10.506916">
|
|
<ele>19.660743</ele>
|
|
<time>2026-07-17T14:44:50.000Z</time>
|
|
</trkpt>
|
|
<trkpt lat="57.695286" lon="10.506849">
|
|
<ele>19.673952</ele>
|
|
<time>2026-07-17T14:44:51.000Z</time>
|
|
</trkpt>
|
|
<trkpt lat="57.695276" lon="10.506779">
|
|
<ele>19.687496</ele>
|
|
<time>2026-07-17T14:44:52.000Z</time>
|
|
</trkpt>
|
|
<trkpt lat="57.695265" lon="10.506703">
|
|
<ele>19.702215</ele>
|
|
<time>2026-07-17T14:44:53.000Z</time>
|
|
</trkpt>
|
|
<trkpt lat="57.695260" lon="10.506614">
|
|
<ele>19.718943</ele>
|
|
<time>2026-07-17T14:44:54.000Z</time>
|
|
</trkpt>
|
|
<trkpt lat="57.695250" lon="10.506497">
|
|
<ele>19.741092</ele>
|
|
<time>2026-07-17T14:44:55.000Z</time>
|
|
</trkpt>
|
|
<trkpt lat="57.695239" lon="10.506358">
|
|
<ele>19.767359</ele>
|
|
<time>2026-07-17T14:44:56.000Z</time>
|
|
</trkpt>
|
|
<trkpt lat="57.695228" lon="10.506218">
|
|
<ele>19.807313</ele>
|
|
<time>2026-07-17T14:44:57.000Z</time>
|
|
</trkpt>
|
|
<trkpt lat="57.695216" lon="10.506084">
|
|
<ele>19.847005</ele>
|
|
<time>2026-07-17T14:44:58.000Z</time>
|
|
</trkpt>
|
|
<trkpt lat="57.695206" lon="10.505952">
|
|
<ele>19.885953</ele>
|
|
<time>2026-07-17T14:44:59.000Z</time>
|
|
</trkpt>
|
|
<trkpt lat="57.695200" lon="10.505823">
|
|
<ele>19.923781</ele>
|
|
<time>2026-07-17T14:45:00.000Z</time>
|
|
</trkpt>
|
|
<trkpt lat="57.695195" lon="10.505697">
|
|
<ele>19.960692</ele>
|
|
<time>2026-07-17T14:45:01.000Z</time>
|
|
</trkpt>
|
|
<trkpt lat="57.695189" lon="10.505571">
|
|
<ele>19.997647</ele>
|
|
<time>2026-07-17T14:45:02.000Z</time>
|
|
</trkpt>
|
|
<trkpt lat="57.695185" lon="10.505447">
|
|
<ele>20.033938</ele>
|
|
<time>2026-07-17T14:45:03.000Z</time>
|
|
</trkpt>
|
|
<trkpt lat="57.695183" lon="10.505328">
|
|
<ele>20.068720</ele>
|
|
<time>2026-07-17T14:45:04.000Z</time>
|
|
</trkpt>
|
|
<trkpt lat="57.695183" lon="10.505214">
|
|
<ele>20.102023</ele>
|
|
<time>2026-07-17T14:45:05.000Z</time>
|
|
</trkpt>
|
|
<trkpt lat="57.695181" lon="10.505103">
|
|
<ele>20.134469</ele>
|
|
<time>2026-07-17T14:45:06.000Z</time>
|
|
</trkpt>
|
|
<trkpt lat="57.695179" lon="10.504992">
|
|
<ele>20.166915</ele>
|
|
<time>2026-07-17T14:45:07.000Z</time>
|
|
</trkpt>
|
|
<trkpt lat="57.695177" lon="10.504880">
|
|
<ele>20.199653</ele>
|
|
<time>2026-07-17T14:45:08.000Z</time>
|
|
</trkpt>
|
|
<trkpt lat="57.695175" lon="10.504769">
|
|
<ele>20.232098</ele>
|
|
<time>2026-07-17T14:45:09.000Z</time>
|
|
</trkpt>
|
|
<trkpt lat="57.695175" lon="10.504661">
|
|
<ele>20.263649</ele>
|
|
<time>2026-07-17T14:45:10.000Z</time>
|
|
</trkpt>
|
|
<trkpt lat="57.695174" lon="10.504559">
|
|
<ele>20.293452</ele>
|
|
<time>2026-07-17T14:45:11.000Z</time>
|
|
</trkpt>
|
|
<trkpt lat="57.695170" lon="10.504473">
|
|
<ele>20.318671</ele>
|
|
<time>2026-07-17T14:45:12.000Z</time>
|
|
</trkpt>
|
|
<trkpt lat="57.695159" lon="10.504412">
|
|
<ele>20.337479</ele>
|
|
<time>2026-07-17T14:45:13.000Z</time>
|
|
</trkpt>
|
|
<trkpt lat="57.695137" lon="10.504374">
|
|
<ele>20.353845</ele>
|
|
<time>2026-07-17T14:45:14.000Z</time>
|
|
</trkpt>
|
|
<trkpt lat="57.695107" lon="10.504353">
|
|
<ele>20.371354</ele>
|
|
<time>2026-07-17T14:45:15.000Z</time>
|
|
</trkpt>
|
|
<trkpt lat="57.695073" lon="10.504336">
|
|
<ele>20.390592</ele>
|
|
<time>2026-07-17T14:45:16.000Z</time>
|
|
</trkpt>
|
|
<trkpt lat="57.695039" lon="10.504316">
|
|
<ele>20.410075</ele>
|
|
<time>2026-07-17T14:45:17.000Z</time>
|
|
</trkpt>
|
|
<trkpt lat="57.695004" lon="10.504298">
|
|
<ele>20.429917</ele>
|
|
<time>2026-07-17T14:45:18.000Z</time>
|
|
</trkpt>
|
|
<trkpt lat="57.694971" lon="10.504281">
|
|
<ele>20.448627</ele>
|
|
<time>2026-07-17T14:45:19.000Z</time>
|
|
</trkpt>
|
|
<trkpt lat="57.694941" lon="10.504261">
|
|
<ele>20.466036</ele>
|
|
<time>2026-07-17T14:45:20.000Z</time>
|
|
</trkpt>
|
|
<trkpt lat="57.694909" lon="10.504240">
|
|
<ele>20.484573</ele>
|
|
<time>2026-07-17T14:45:21.000Z</time>
|
|
</trkpt>
|
|
<trkpt lat="57.694874" lon="10.504221">
|
|
<ele>20.504495</ele>
|
|
<time>2026-07-17T14:45:22.000Z</time>
|
|
</trkpt>
|
|
<trkpt lat="57.694837" lon="10.504203">
|
|
<ele>20.525393</ele>
|
|
<time>2026-07-17T14:45:23.000Z</time>
|
|
</trkpt>
|
|
<trkpt lat="57.694797" lon="10.504180">
|
|
<ele>20.548268</ele>
|
|
<time>2026-07-17T14:45:24.000Z</time>
|
|
</trkpt>
|
|
<trkpt lat="57.694757" lon="10.504154">
|
|
<ele>20.571415</ele>
|
|
<time>2026-07-17T14:45:25.000Z</time>
|
|
</trkpt>
|
|
<trkpt lat="57.694715" lon="10.504130">
|
|
<ele>20.595421</ele>
|
|
<time>2026-07-17T14:45:26.000Z</time>
|
|
</trkpt>
|
|
<trkpt lat="57.694673" lon="10.504102">
|
|
<ele>20.619793</ele>
|
|
<time>2026-07-17T14:45:27.000Z</time>
|
|
</trkpt>
|
|
<trkpt lat="57.694634" lon="10.504070">
|
|
<ele>20.643072</ele>
|
|
<time>2026-07-17T14:45:28.000Z</time>
|
|
</trkpt>
|
|
<trkpt lat="57.694598" lon="10.504035">
|
|
<ele>20.665249</ele>
|
|
<time>2026-07-17T14:45:29.000Z</time>
|
|
</trkpt>
|
|
<trkpt lat="57.694560" lon="10.503996">
|
|
<ele>20.688941</ele>
|
|
<time>2026-07-17T14:45:30.000Z</time>
|
|
</trkpt>
|
|
<trkpt lat="57.694524" lon="10.503958">
|
|
<ele>20.711535</ele>
|
|
<time>2026-07-17T14:45:31.000Z</time>
|
|
</trkpt>
|
|
<trkpt lat="57.694491" lon="10.503927">
|
|
<ele>20.731720</ele>
|
|
<time>2026-07-17T14:45:32.000Z</time>
|
|
</trkpt>
|
|
<trkpt lat="57.694459" lon="10.503905">
|
|
<ele>20.750356</ele>
|
|
<time>2026-07-17T14:45:33.000Z</time>
|
|
</trkpt>
|
|
<trkpt lat="57.694424" lon="10.503893">
|
|
<ele>20.739333</ele>
|
|
<time>2026-07-17T14:45:34.000Z</time>
|
|
</trkpt>
|
|
<trkpt lat="57.694389" lon="10.503889">
|
|
<ele>20.723681</ele>
|
|
<time>2026-07-17T14:45:35.000Z</time>
|
|
</trkpt>
|
|
<trkpt lat="57.694347" lon="10.503891">
|
|
<ele>20.704928</ele>
|
|
<time>2026-07-17T14:45:36.000Z</time>
|
|
</trkpt>
|
|
<trkpt lat="57.694301" lon="10.503902">
|
|
<ele>20.684228</ele>
|
|
<time>2026-07-17T14:45:37.000Z</time>
|
|
</trkpt>
|
|
<trkpt lat="57.694257" lon="10.503922">
|
|
<ele>20.664017</ele>
|
|
<time>2026-07-17T14:45:38.000Z</time>
|
|
</trkpt>
|
|
<trkpt lat="57.694216" lon="10.503944">
|
|
<ele>20.644979</ele>
|
|
<time>2026-07-17T14:45:39.000Z</time>
|
|
</trkpt>
|
|
<trkpt lat="57.694176" lon="10.503967">
|
|
<ele>20.626300</ele>
|
|
<time>2026-07-17T14:45:40.000Z</time>
|
|
</trkpt>
|
|
<trkpt lat="57.694137" lon="10.503990">
|
|
<ele>20.608048</ele>
|
|
<time>2026-07-17T14:45:41.000Z</time>
|
|
</trkpt>
|
|
<trkpt lat="57.694094" lon="10.504012">
|
|
<ele>20.588150</ele>
|
|
<time>2026-07-17T14:45:42.000Z</time>
|
|
</trkpt>
|
|
<trkpt lat="57.694039" lon="10.504034">
|
|
<ele>20.563045</ele>
|
|
<time>2026-07-17T14:45:43.000Z</time>
|
|
</trkpt>
|
|
<trkpt lat="57.693976" lon="10.504050">
|
|
<ele>20.534667</ele>
|
|
<time>2026-07-17T14:45:44.000Z</time>
|
|
</trkpt>
|
|
<trkpt lat="57.693911" lon="10.504059">
|
|
<ele>20.505574</ele>
|
|
<time>2026-07-17T14:45:45.000Z</time>
|
|
</trkpt>
|
|
<trkpt lat="57.693848" lon="10.504059">
|
|
<ele>20.477453</ele>
|
|
<time>2026-07-17T14:45:46.000Z</time>
|
|
</trkpt>
|
|
<trkpt lat="57.693786" lon="10.504053">
|
|
<ele>20.449742</ele>
|
|
<time>2026-07-17T14:45:47.000Z</time>
|
|
</trkpt>
|
|
<trkpt lat="57.693721" lon="10.504043">
|
|
<ele>20.420630</ele>
|
|
<time>2026-07-17T14:45:48.000Z</time>
|
|
</trkpt>
|
|
<trkpt lat="57.693658" lon="10.504031">
|
|
<ele>20.392364</ele>
|
|
<time>2026-07-17T14:45:49.000Z</time>
|
|
</trkpt>
|
|
<trkpt lat="57.693598" lon="10.504017">
|
|
<ele>20.365375</ele>
|
|
<time>2026-07-17T14:45:50.000Z</time>
|
|
</trkpt>
|
|
<trkpt lat="57.693538" lon="10.504001">
|
|
<ele>20.338323</ele>
|
|
<time>2026-07-17T14:45:51.000Z</time>
|
|
</trkpt>
|
|
<trkpt lat="57.693474" lon="10.503980">
|
|
<ele>20.309320</ele>
|
|
<time>2026-07-17T14:45:52.000Z</time>
|
|
</trkpt>
|
|
<trkpt lat="57.693415" lon="10.503954">
|
|
<ele>20.282264</ele>
|
|
<time>2026-07-17T14:45:53.000Z</time>
|
|
</trkpt>
|
|
<trkpt lat="57.693358" lon="10.503926">
|
|
<ele>20.255959</ele>
|
|
<time>2026-07-17T14:45:54.000Z</time>
|
|
</trkpt>
|
|
<trkpt lat="57.693300" lon="10.503899">
|
|
<ele>20.229281</ele>
|
|
<time>2026-07-17T14:45:55.000Z</time>
|
|
</trkpt>
|
|
<trkpt lat="57.693243" lon="10.503874">
|
|
<ele>20.203149</ele>
|
|
<time>2026-07-17T14:45:56.000Z</time>
|
|
</trkpt>
|
|
<trkpt lat="57.693186" lon="10.503854">
|
|
<ele>20.177263</ele>
|
|
<time>2026-07-17T14:45:57.000Z</time>
|
|
</trkpt>
|
|
<trkpt lat="57.693131" lon="10.503842">
|
|
<ele>20.152546</ele>
|
|
<time>2026-07-17T14:45:58.000Z</time>
|
|
</trkpt>
|
|
<trkpt lat="57.693076" lon="10.503837">
|
|
<ele>20.127968</ele>
|
|
<time>2026-07-17T14:45:59.000Z</time>
|
|
</trkpt>
|
|
<trkpt lat="57.693018" lon="10.503838">
|
|
<ele>20.102078</ele>
|
|
<time>2026-07-17T14:46:00.000Z</time>
|
|
</trkpt>
|
|
<trkpt lat="57.692961" lon="10.503841">
|
|
<ele>20.076625</ele>
|
|
<time>2026-07-17T14:46:01.000Z</time>
|
|
</trkpt>
|
|
<trkpt lat="57.692903" lon="10.503841">
|
|
<ele>20.050736</ele>
|
|
<time>2026-07-17T14:46:02.000Z</time>
|
|
</trkpt>
|
|
<trkpt lat="57.692843" lon="10.503841">
|
|
<ele>20.023954</ele>
|
|
<time>2026-07-17T14:46:03.000Z</time>
|
|
</trkpt>
|
|
<trkpt lat="57.692786" lon="10.503841">
|
|
<ele>19.998512</ele>
|
|
<time>2026-07-17T14:46:04.000Z</time>
|
|
</trkpt>
|
|
<trkpt lat="57.692727" lon="10.503841">
|
|
<ele>19.972176</ele>
|
|
<time>2026-07-17T14:46:05.000Z</time>
|
|
</trkpt>
|
|
<trkpt lat="57.692667" lon="10.503841">
|
|
<ele>19.951561</ele>
|
|
<time>2026-07-17T14:46:06.000Z</time>
|
|
</trkpt>
|
|
<trkpt lat="57.692608" lon="10.503841">
|
|
<ele>19.959113</ele>
|
|
<time>2026-07-17T14:46:07.000Z</time>
|
|
</trkpt>
|
|
<trkpt lat="57.692551" lon="10.503842">
|
|
<ele>19.966410</ele>
|
|
<time>2026-07-17T14:46:08.000Z</time>
|
|
</trkpt>
|
|
<trkpt lat="57.692496" lon="10.503847">
|
|
<ele>19.973459</ele>
|
|
<time>2026-07-17T14:46:09.000Z</time>
|
|
</trkpt>
|
|
<trkpt lat="57.692442" lon="10.503862">
|
|
<ele>19.980447</ele>
|
|
<time>2026-07-17T14:46:10.000Z</time>
|
|
</trkpt>
|
|
<trkpt lat="57.692394" lon="10.503894">
|
|
<ele>19.986970</ele>
|
|
<time>2026-07-17T14:46:11.000Z</time>
|
|
</trkpt>
|
|
<trkpt lat="57.692352" lon="10.503944">
|
|
<ele>19.993342</ele>
|
|
<time>2026-07-17T14:46:12.000Z</time>
|
|
</trkpt>
|
|
<trkpt lat="57.692316" lon="10.504008">
|
|
<ele>19.999699</ele>
|
|
<time>2026-07-17T14:46:13.000Z</time>
|
|
</trkpt>
|
|
<trkpt lat="57.692286" lon="10.504076">
|
|
<ele>20.005732</ele>
|
|
<time>2026-07-17T14:46:14.000Z</time>
|
|
</trkpt>
|
|
<trkpt lat="57.692257" lon="10.504139">
|
|
<ele>20.011420</ele>
|
|
<time>2026-07-17T14:46:15.000Z</time>
|
|
</trkpt>
|
|
<trkpt lat="57.692226" lon="10.504187">
|
|
<ele>20.016571</ele>
|
|
<time>2026-07-17T14:46:16.000Z</time>
|
|
</trkpt>
|
|
<trkpt lat="57.692186" lon="10.504214">
|
|
<ele>20.022015</ele>
|
|
<time>2026-07-17T14:46:17.000Z</time>
|
|
</trkpt>
|
|
<trkpt lat="57.692145" lon="10.504218">
|
|
<ele>20.027270</ele>
|
|
<time>2026-07-17T14:46:18.000Z</time>
|
|
</trkpt>
|
|
<trkpt lat="57.692106" lon="10.504194">
|
|
<ele>20.032525</ele>
|
|
<time>2026-07-17T14:46:19.000Z</time>
|
|
</trkpt>
|
|
<trkpt lat="57.692067" lon="10.504147">
|
|
<ele>20.038464</ele>
|
|
<time>2026-07-17T14:46:20.000Z</time>
|
|
</trkpt>
|
|
<trkpt lat="57.692036" lon="10.504082">
|
|
<ele>20.044424</ele>
|
|
<time>2026-07-17T14:46:21.000Z</time>
|
|
</trkpt>
|
|
<trkpt lat="57.692016" lon="10.504000">
|
|
<ele>20.050591</ele>
|
|
<time>2026-07-17T14:46:22.000Z</time>
|
|
</trkpt>
|
|
<trkpt lat="57.692007" lon="10.503906">
|
|
<ele>20.057124</ele>
|
|
<time>2026-07-17T14:46:23.000Z</time>
|
|
</trkpt>
|
|
<trkpt lat="57.692005" lon="10.503807">
|
|
<ele>20.063902</ele>
|
|
<time>2026-07-17T14:46:24.000Z</time>
|
|
</trkpt>
|
|
<trkpt lat="57.692004" lon="10.503708">
|
|
<ele>20.070677</ele>
|
|
<time>2026-07-17T14:46:25.000Z</time>
|
|
</trkpt>
|
|
<trkpt lat="57.691996" lon="10.503610">
|
|
<ele>20.077459</ele>
|
|
<time>2026-07-17T14:46:26.000Z</time>
|
|
</trkpt>
|
|
<trkpt lat="57.691985" lon="10.503513">
|
|
<ele>20.084244</ele>
|
|
<time>2026-07-17T14:46:27.000Z</time>
|
|
</trkpt>
|
|
<trkpt lat="57.691972" lon="10.503416">
|
|
<ele>20.091086</ele>
|
|
<time>2026-07-17T14:46:28.000Z</time>
|
|
</trkpt>
|
|
<trkpt lat="57.691955" lon="10.503316">
|
|
<ele>20.098265</ele>
|
|
<time>2026-07-17T14:46:29.000Z</time>
|
|
</trkpt>
|
|
<trkpt lat="57.691937" lon="10.503231">
|
|
<ele>20.104520</ele>
|
|
<time>2026-07-17T14:46:30.000Z</time>
|
|
</trkpt>
|
|
<trkpt lat="57.691921" lon="10.503162">
|
|
<ele>20.109666</ele>
|
|
<time>2026-07-17T14:46:31.000Z</time>
|
|
</trkpt>
|
|
<trkpt lat="57.691887" lon="10.503039">
|
|
<ele>20.119140</ele>
|
|
<time>2026-07-17T14:46:32.000Z</time>
|
|
</trkpt>
|
|
<trkpt lat="57.691860" lon="10.502954">
|
|
<ele>20.125905</ele>
|
|
<time>2026-07-17T14:46:33.000Z</time>
|
|
</trkpt>
|
|
<trkpt lat="57.691832" lon="10.502871">
|
|
<ele>20.132621</ele>
|
|
<time>2026-07-17T14:46:34.000Z</time>
|
|
</trkpt>
|
|
<trkpt lat="57.691802" lon="10.502789">
|
|
<ele>20.139419</ele>
|
|
<time>2026-07-17T14:46:35.000Z</time>
|
|
</trkpt>
|
|
<trkpt lat="57.691766" lon="10.502709">
|
|
<ele>20.146574</ele>
|
|
<time>2026-07-17T14:46:36.000Z</time>
|
|
</trkpt>
|
|
<trkpt lat="57.691724" lon="10.502637">
|
|
<ele>20.153866</ele>
|
|
<time>2026-07-17T14:46:37.000Z</time>
|
|
</trkpt>
|
|
<trkpt lat="57.691679" lon="10.502576">
|
|
<ele>20.160980</ele>
|
|
<time>2026-07-17T14:46:38.000Z</time>
|
|
</trkpt>
|
|
<trkpt lat="57.691631" lon="10.502527">
|
|
<ele>20.167979</ele>
|
|
<time>2026-07-17T14:46:39.000Z</time>
|
|
</trkpt>
|
|
<trkpt lat="57.691584" lon="10.502485">
|
|
<ele>20.174646</ele>
|
|
<time>2026-07-17T14:46:40.000Z</time>
|
|
</trkpt>
|
|
<trkpt lat="57.691537" lon="10.502446">
|
|
<ele>20.181566</ele>
|
|
<time>2026-07-17T14:46:41.000Z</time>
|
|
</trkpt>
|
|
<trkpt lat="57.691488" lon="10.502405">
|
|
<ele>20.191342</ele>
|
|
<time>2026-07-17T14:46:42.000Z</time>
|
|
</trkpt>
|
|
<trkpt lat="57.691439" lon="10.502361">
|
|
<ele>20.201241</ele>
|
|
<time>2026-07-17T14:46:43.000Z</time>
|
|
</trkpt>
|
|
<trkpt lat="57.691389" lon="10.502314">
|
|
<ele>20.211432</ele>
|
|
<time>2026-07-17T14:46:44.000Z</time>
|
|
</trkpt>
|
|
<trkpt lat="57.691339" lon="10.502268">
|
|
<ele>20.221579</ele>
|
|
<time>2026-07-17T14:46:45.000Z</time>
|
|
</trkpt>
|
|
<trkpt lat="57.691291" lon="10.502223">
|
|
<ele>20.231357</ele>
|
|
<time>2026-07-17T14:46:46.000Z</time>
|
|
</trkpt>
|
|
<trkpt lat="57.691244" lon="10.502180">
|
|
<ele>20.240886</ele>
|
|
<time>2026-07-17T14:46:47.000Z</time>
|
|
</trkpt>
|
|
<trkpt lat="57.691196" lon="10.502139">
|
|
<ele>20.250496</ele>
|
|
<time>2026-07-17T14:46:48.000Z</time>
|
|
</trkpt>
|
|
<trkpt lat="57.691149" lon="10.502098">
|
|
<ele>20.259941</ele>
|
|
<time>2026-07-17T14:46:49.000Z</time>
|
|
</trkpt>
|
|
<trkpt lat="57.691099" lon="10.502059">
|
|
<ele>20.269806</ele>
|
|
<time>2026-07-17T14:46:50.000Z</time>
|
|
</trkpt>
|
|
<trkpt lat="57.691051" lon="10.502021">
|
|
<ele>20.279299</ele>
|
|
<time>2026-07-17T14:46:51.000Z</time>
|
|
</trkpt>
|
|
<trkpt lat="57.691004" lon="10.501987">
|
|
<ele>20.288476</ele>
|
|
<time>2026-07-17T14:46:52.000Z</time>
|
|
</trkpt>
|
|
<trkpt lat="57.690952" lon="10.501956">
|
|
<ele>20.298416</ele>
|
|
<time>2026-07-17T14:46:53.000Z</time>
|
|
</trkpt>
|
|
<trkpt lat="57.690901" lon="10.501930">
|
|
<ele>20.308043</ele>
|
|
<time>2026-07-17T14:46:54.000Z</time>
|
|
</trkpt>
|
|
<trkpt lat="57.690850" lon="10.501909">
|
|
<ele>20.317554</ele>
|
|
<time>2026-07-17T14:46:55.000Z</time>
|
|
</trkpt>
|
|
<trkpt lat="57.690799" lon="10.501890">
|
|
<ele>20.327025</ele>
|
|
<time>2026-07-17T14:46:56.000Z</time>
|
|
</trkpt>
|
|
<trkpt lat="57.690746" lon="10.501873">
|
|
<ele>20.336818</ele>
|
|
<time>2026-07-17T14:46:57.000Z</time>
|
|
</trkpt>
|
|
<trkpt lat="57.690689" lon="10.501857">
|
|
<ele>20.347316</ele>
|
|
<time>2026-07-17T14:46:58.000Z</time>
|
|
</trkpt>
|
|
<trkpt lat="57.690636" lon="10.501842">
|
|
<ele>20.357078</ele>
|
|
<time>2026-07-17T14:46:59.000Z</time>
|
|
</trkpt>
|
|
<trkpt lat="57.690582" lon="10.501829">
|
|
<ele>20.366994</ele>
|
|
<time>2026-07-17T14:47:00.000Z</time>
|
|
</trkpt>
|
|
<trkpt lat="57.690530" lon="10.501818">
|
|
<ele>20.376525</ele>
|
|
<time>2026-07-17T14:47:01.000Z</time>
|
|
</trkpt>
|
|
<trkpt lat="57.690477" lon="10.501813">
|
|
<ele>20.386190</ele>
|
|
<time>2026-07-17T14:47:02.000Z</time>
|
|
</trkpt>
|
|
<trkpt lat="57.690421" lon="10.501817">
|
|
<ele>20.396396</ele>
|
|
<time>2026-07-17T14:47:03.000Z</time>
|
|
</trkpt>
|
|
<trkpt lat="57.690365" lon="10.501826">
|
|
<ele>20.406633</ele>
|
|
<time>2026-07-17T14:47:04.000Z</time>
|
|
</trkpt>
|
|
<trkpt lat="57.690312" lon="10.501840">
|
|
<ele>20.416381</ele>
|
|
<time>2026-07-17T14:47:05.000Z</time>
|
|
</trkpt>
|
|
<trkpt lat="57.690258" lon="10.501859">
|
|
<ele>20.426389</ele>
|
|
<time>2026-07-17T14:47:06.000Z</time>
|
|
</trkpt>
|
|
<trkpt lat="57.690205" lon="10.501882">
|
|
<ele>20.436297</ele>
|
|
<time>2026-07-17T14:47:07.000Z</time>
|
|
</trkpt>
|
|
<trkpt lat="57.690151" lon="10.501904">
|
|
<ele>20.446363</ele>
|
|
<time>2026-07-17T14:47:08.000Z</time>
|
|
</trkpt>
|
|
<trkpt lat="57.690096" lon="10.501926">
|
|
<ele>20.456606</ele>
|
|
<time>2026-07-17T14:47:09.000Z</time>
|
|
</trkpt>
|
|
<trkpt lat="57.690041" lon="10.501948">
|
|
<ele>20.466849</ele>
|
|
<time>2026-07-17T14:47:10.000Z</time>
|
|
</trkpt>
|
|
<trkpt lat="57.689987" lon="10.501971">
|
|
<ele>20.476936</ele>
|
|
<time>2026-07-17T14:47:11.000Z</time>
|
|
</trkpt>
|
|
<trkpt lat="57.689934" lon="10.501993">
|
|
<ele>20.486823</ele>
|
|
<time>2026-07-17T14:47:12.000Z</time>
|
|
</trkpt>
|
|
<trkpt lat="57.689880" lon="10.502014">
|
|
<ele>20.496868</ele>
|
|
<time>2026-07-17T14:47:13.000Z</time>
|
|
</trkpt>
|
|
<trkpt lat="57.689829" lon="10.502035">
|
|
<ele>20.506379</ele>
|
|
<time>2026-07-17T14:47:14.000Z</time>
|
|
</trkpt>
|
|
<trkpt lat="57.689779" lon="10.502054">
|
|
<ele>20.504734</ele>
|
|
<time>2026-07-17T14:47:15.000Z</time>
|
|
</trkpt>
|
|
<trkpt lat="57.689730" lon="10.502072">
|
|
<ele>20.500847</ele>
|
|
<time>2026-07-17T14:47:16.000Z</time>
|
|
</trkpt>
|
|
<trkpt lat="57.689680" lon="10.502086">
|
|
<ele>20.496912</ele>
|
|
<time>2026-07-17T14:47:17.000Z</time>
|
|
</trkpt>
|
|
<trkpt lat="57.689630" lon="10.502087">
|
|
<ele>20.493020</ele>
|
|
<time>2026-07-17T14:47:18.000Z</time>
|
|
</trkpt>
|
|
<trkpt lat="57.689581" lon="10.502070">
|
|
<ele>20.489141</ele>
|
|
<time>2026-07-17T14:47:19.000Z</time>
|
|
</trkpt>
|
|
<trkpt lat="57.689538" lon="10.502045">
|
|
<ele>20.485636</ele>
|
|
<time>2026-07-17T14:47:20.000Z</time>
|
|
</trkpt>
|
|
<trkpt lat="57.689502" lon="10.502018">
|
|
<ele>20.482618</ele>
|
|
<time>2026-07-17T14:47:21.000Z</time>
|
|
</trkpt>
|
|
<trkpt lat="57.689432" lon="10.501971">
|
|
<ele>20.476829</ele>
|
|
<time>2026-07-17T14:47:22.000Z</time>
|
|
</trkpt>
|
|
<trkpt lat="57.689384" lon="10.501936">
|
|
<ele>20.472819</ele>
|
|
<time>2026-07-17T14:47:23.000Z</time>
|
|
</trkpt>
|
|
<trkpt lat="57.689337" lon="10.501903">
|
|
<ele>20.468912</ele>
|
|
<time>2026-07-17T14:47:24.000Z</time>
|
|
</trkpt>
|
|
<trkpt lat="57.689285" lon="10.501872">
|
|
<ele>20.464664</ele>
|
|
<time>2026-07-17T14:47:25.000Z</time>
|
|
</trkpt>
|
|
<trkpt lat="57.689234" lon="10.501843">
|
|
<ele>20.460515</ele>
|
|
<time>2026-07-17T14:47:26.000Z</time>
|
|
</trkpt>
|
|
<trkpt lat="57.689186" lon="10.501814">
|
|
<ele>20.456589</ele>
|
|
<time>2026-07-17T14:47:27.000Z</time>
|
|
</trkpt>
|
|
<trkpt lat="57.689136" lon="10.501787">
|
|
<ele>20.452538</ele>
|
|
<time>2026-07-17T14:47:28.000Z</time>
|
|
</trkpt>
|
|
<trkpt lat="57.689085" lon="10.501760">
|
|
<ele>20.448413</ele>
|
|
<time>2026-07-17T14:47:29.000Z</time>
|
|
</trkpt>
|
|
<trkpt lat="57.689034" lon="10.501731">
|
|
<ele>20.444264</ele>
|
|
<time>2026-07-17T14:47:30.000Z</time>
|
|
</trkpt>
|
|
<trkpt lat="57.688982" lon="10.501701">
|
|
<ele>20.440029</ele>
|
|
<time>2026-07-17T14:47:31.000Z</time>
|
|
</trkpt>
|
|
<trkpt lat="57.688931" lon="10.501672">
|
|
<ele>20.435880</ele>
|
|
<time>2026-07-17T14:47:32.000Z</time>
|
|
</trkpt>
|
|
<trkpt lat="57.688879" lon="10.501647">
|
|
<ele>20.431701</ele>
|
|
<time>2026-07-17T14:47:33.000Z</time>
|
|
</trkpt>
|
|
<trkpt lat="57.688829" lon="10.501625">
|
|
<ele>20.427703</ele>
|
|
<time>2026-07-17T14:47:34.000Z</time>
|
|
</trkpt>
|
|
<trkpt lat="57.688780" lon="10.501606">
|
|
<ele>20.423808</ele>
|
|
<time>2026-07-17T14:47:35.000Z</time>
|
|
</trkpt>
|
|
<trkpt lat="57.688728" lon="10.501588">
|
|
<ele>20.419692</ele>
|
|
<time>2026-07-17T14:47:36.000Z</time>
|
|
</trkpt>
|
|
<trkpt lat="57.688676" lon="10.501575">
|
|
<ele>20.415609</ele>
|
|
<time>2026-07-17T14:47:37.000Z</time>
|
|
</trkpt>
|
|
<trkpt lat="57.688625" lon="10.501563">
|
|
<ele>20.411608</ele>
|
|
<time>2026-07-17T14:47:38.000Z</time>
|
|
</trkpt>
|
|
<trkpt lat="57.688572" lon="10.501550">
|
|
<ele>20.407447</ele>
|
|
<time>2026-07-17T14:47:39.000Z</time>
|
|
</trkpt>
|
|
<trkpt lat="57.688517" lon="10.501537">
|
|
<ele>20.403132</ele>
|
|
<time>2026-07-17T14:47:40.000Z</time>
|
|
</trkpt>
|
|
<trkpt lat="57.688462" lon="10.501524">
|
|
<ele>20.398818</ele>
|
|
<time>2026-07-17T14:47:41.000Z</time>
|
|
</trkpt>
|
|
<trkpt lat="57.688409" lon="10.501510">
|
|
<ele>20.394651</ele>
|
|
<time>2026-07-17T14:47:42.000Z</time>
|
|
</trkpt>
|
|
<trkpt lat="57.688355" lon="10.501492">
|
|
<ele>20.390382</ele>
|
|
<time>2026-07-17T14:47:43.000Z</time>
|
|
</trkpt>
|
|
<trkpt lat="57.688303" lon="10.501471">
|
|
<ele>20.386242</ele>
|
|
<time>2026-07-17T14:47:44.000Z</time>
|
|
</trkpt>
|
|
<trkpt lat="57.688252" lon="10.501448">
|
|
<ele>20.382158</ele>
|
|
<time>2026-07-17T14:47:45.000Z</time>
|
|
</trkpt>
|
|
<trkpt lat="57.688198" lon="10.501423">
|
|
<ele>20.377828</ele>
|
|
<time>2026-07-17T14:47:46.000Z</time>
|
|
</trkpt>
|
|
<trkpt lat="57.688145" lon="10.501399">
|
|
<ele>20.373584</ele>
|
|
<time>2026-07-17T14:47:47.000Z</time>
|
|
</trkpt>
|
|
<trkpt lat="57.688090" lon="10.501375">
|
|
<ele>20.369188</ele>
|
|
<time>2026-07-17T14:47:48.000Z</time>
|
|
</trkpt>
|
|
<trkpt lat="57.688035" lon="10.501354">
|
|
<ele>20.339964</ele>
|
|
<time>2026-07-17T14:47:49.000Z</time>
|
|
</trkpt>
|
|
<trkpt lat="57.687981" lon="10.501339">
|
|
<ele>20.302640</ele>
|
|
<time>2026-07-17T14:47:50.000Z</time>
|
|
</trkpt>
|
|
<trkpt lat="57.687928" lon="10.501331">
|
|
<ele>20.266287</ele>
|
|
<time>2026-07-17T14:47:51.000Z</time>
|
|
</trkpt>
|
|
<trkpt lat="57.687875" lon="10.501329">
|
|
<ele>20.230044</ele>
|
|
<time>2026-07-17T14:47:52.000Z</time>
|
|
</trkpt>
|
|
<trkpt lat="57.687821" lon="10.501334">
|
|
<ele>20.193080</ele>
|
|
<time>2026-07-17T14:47:53.000Z</time>
|
|
</trkpt>
|
|
<trkpt lat="57.687766" lon="10.501346">
|
|
<ele>20.155223</ele>
|
|
<time>2026-07-17T14:47:54.000Z</time>
|
|
</trkpt>
|
|
<trkpt lat="57.687709" lon="10.501360">
|
|
<ele>20.115918</ele>
|
|
<time>2026-07-17T14:47:55.000Z</time>
|
|
</trkpt>
|
|
<trkpt lat="57.687653" lon="10.501374">
|
|
<ele>20.077291</ele>
|
|
<time>2026-07-17T14:47:56.000Z</time>
|
|
</trkpt>
|
|
<trkpt lat="57.687598" lon="10.501385">
|
|
<ele>20.039475</ele>
|
|
<time>2026-07-17T14:47:57.000Z</time>
|
|
</trkpt>
|
|
<trkpt lat="57.687542" lon="10.501392">
|
|
<ele>20.001103</ele>
|
|
<time>2026-07-17T14:47:58.000Z</time>
|
|
</trkpt>
|
|
<trkpt lat="57.687488" lon="10.501394">
|
|
<ele>19.964177</ele>
|
|
<time>2026-07-17T14:47:59.000Z</time>
|
|
</trkpt>
|
|
<trkpt lat="57.687437" lon="10.501396">
|
|
<ele>19.929301</ele>
|
|
<time>2026-07-17T14:48:00.000Z</time>
|
|
</trkpt>
|
|
<trkpt lat="57.687386" lon="10.501404">
|
|
<ele>19.894311</ele>
|
|
<time>2026-07-17T14:48:01.000Z</time>
|
|
</trkpt>
|
|
<trkpt lat="57.687332" lon="10.501422">
|
|
<ele>19.856810</ele>
|
|
<time>2026-07-17T14:48:02.000Z</time>
|
|
</trkpt>
|
|
<trkpt lat="57.687279" lon="10.501453">
|
|
<ele>19.818845</ele>
|
|
<time>2026-07-17T14:48:03.000Z</time>
|
|
</trkpt>
|
|
<trkpt lat="57.687230" lon="10.501503">
|
|
<ele>19.780685</ele>
|
|
<time>2026-07-17T14:48:04.000Z</time>
|
|
</trkpt>
|
|
<trkpt lat="57.687190" lon="10.501569">
|
|
<ele>19.744221</ele>
|
|
<time>2026-07-17T14:48:05.000Z</time>
|
|
</trkpt>
|
|
<trkpt lat="57.687154" lon="10.501645">
|
|
<ele>19.707110</ele>
|
|
<time>2026-07-17T14:48:06.000Z</time>
|
|
</trkpt>
|
|
<trkpt lat="57.687119" lon="10.501723">
|
|
<ele>19.669892</ele>
|
|
<time>2026-07-17T14:48:07.000Z</time>
|
|
</trkpt>
|
|
<trkpt lat="57.687085" lon="10.501802">
|
|
<ele>19.632826</ele>
|
|
<time>2026-07-17T14:48:08.000Z</time>
|
|
</trkpt>
|
|
<trkpt lat="57.687049" lon="10.501880">
|
|
<ele>19.595164</ele>
|
|
<time>2026-07-17T14:48:09.000Z</time>
|
|
</trkpt>
|
|
<trkpt lat="57.687011" lon="10.501944">
|
|
<ele>19.560207</ele>
|
|
<time>2026-07-17T14:48:10.000Z</time>
|
|
</trkpt>
|
|
<trkpt lat="57.686968" lon="10.501994">
|
|
<ele>19.525592</ele>
|
|
<time>2026-07-17T14:48:11.000Z</time>
|
|
</trkpt>
|
|
<trkpt lat="57.686916" lon="10.502029">
|
|
<ele>19.487810</ele>
|
|
<time>2026-07-17T14:48:12.000Z</time>
|
|
</trkpt>
|
|
<trkpt lat="57.686860" lon="10.502054">
|
|
<ele>19.448448</ele>
|
|
<time>2026-07-17T14:48:13.000Z</time>
|
|
</trkpt>
|
|
<trkpt lat="57.686802" lon="10.502079">
|
|
<ele>19.407755</ele>
|
|
<time>2026-07-17T14:48:14.000Z</time>
|
|
</trkpt>
|
|
<trkpt lat="57.686748" lon="10.502110">
|
|
<ele>19.369137</ele>
|
|
<time>2026-07-17T14:48:15.000Z</time>
|
|
</trkpt>
|
|
<trkpt lat="57.686697" lon="10.502145">
|
|
<ele>19.331997</ele>
|
|
<time>2026-07-17T14:48:16.000Z</time>
|
|
</trkpt>
|
|
<trkpt lat="57.686647" lon="10.502185">
|
|
<ele>19.294818</ele>
|
|
<time>2026-07-17T14:48:17.000Z</time>
|
|
</trkpt>
|
|
<trkpt lat="57.686599" lon="10.502230">
|
|
<ele>19.258111</ele>
|
|
<time>2026-07-17T14:48:18.000Z</time>
|
|
</trkpt>
|
|
<trkpt lat="57.686553" lon="10.502279">
|
|
<ele>19.221921</ele>
|
|
<time>2026-07-17T14:48:19.000Z</time>
|
|
</trkpt>
|
|
<trkpt lat="57.686511" lon="10.502335">
|
|
<ele>19.186659</ele>
|
|
<time>2026-07-17T14:48:20.000Z</time>
|
|
</trkpt>
|
|
<trkpt lat="57.686473" lon="10.502396">
|
|
<ele>19.152425</ele>
|
|
<time>2026-07-17T14:48:21.000Z</time>
|
|
</trkpt>
|
|
<trkpt lat="57.686436" lon="10.502458">
|
|
<ele>19.130740</ele>
|
|
<time>2026-07-17T14:48:22.000Z</time>
|
|
</trkpt>
|
|
<trkpt lat="57.686402" lon="10.502520">
|
|
<ele>19.118360</ele>
|
|
<time>2026-07-17T14:48:23.000Z</time>
|
|
</trkpt>
|
|
<trkpt lat="57.686366" lon="10.502580">
|
|
<ele>19.105789</ele>
|
|
<time>2026-07-17T14:48:24.000Z</time>
|
|
</trkpt>
|
|
<trkpt lat="57.686328" lon="10.502636">
|
|
<ele>19.093177</ele>
|
|
<time>2026-07-17T14:48:25.000Z</time>
|
|
</trkpt>
|
|
<trkpt lat="57.686288" lon="10.502687">
|
|
<ele>19.080556</ele>
|
|
<time>2026-07-17T14:48:26.000Z</time>
|
|
</trkpt>
|
|
<trkpt lat="57.686245" lon="10.502728">
|
|
<ele>19.067973</ele>
|
|
<time>2026-07-17T14:48:27.000Z</time>
|
|
</trkpt>
|
|
<trkpt lat="57.686196" lon="10.502756">
|
|
<ele>19.054614</ele>
|
|
<time>2026-07-17T14:48:28.000Z</time>
|
|
</trkpt>
|
|
<trkpt lat="57.686144" lon="10.502772">
|
|
<ele>19.040875</ele>
|
|
<time>2026-07-17T14:48:29.000Z</time>
|
|
</trkpt>
|
|
<trkpt lat="57.686093" lon="10.502784">
|
|
<ele>19.027473</ele>
|
|
<time>2026-07-17T14:48:30.000Z</time>
|
|
</trkpt>
|
|
<trkpt lat="57.686040" lon="10.502796">
|
|
<ele>19.013554</ele>
|
|
<time>2026-07-17T14:48:31.000Z</time>
|
|
</trkpt>
|
|
<trkpt lat="57.685985" lon="10.502810">
|
|
<ele>18.999082</ele>
|
|
<time>2026-07-17T14:48:32.000Z</time>
|
|
</trkpt>
|
|
<trkpt lat="57.685929" lon="10.502825">
|
|
<ele>18.984332</ele>
|
|
<time>2026-07-17T14:48:33.000Z</time>
|
|
</trkpt>
|
|
<trkpt lat="57.685873" lon="10.502837">
|
|
<ele>18.969636</ele>
|
|
<time>2026-07-17T14:48:34.000Z</time>
|
|
</trkpt>
|
|
<trkpt lat="57.685816" lon="10.502847">
|
|
<ele>18.954710</ele>
|
|
<time>2026-07-17T14:48:35.000Z</time>
|
|
</trkpt>
|
|
<trkpt lat="57.685759" lon="10.502855">
|
|
<ele>18.939806</ele>
|
|
<time>2026-07-17T14:48:36.000Z</time>
|
|
</trkpt>
|
|
<trkpt lat="57.685702" lon="10.502864">
|
|
<ele>18.924892</ele>
|
|
<time>2026-07-17T14:48:37.000Z</time>
|
|
</trkpt>
|
|
<trkpt lat="57.685646" lon="10.502873">
|
|
<ele>18.910238</ele>
|
|
<time>2026-07-17T14:48:38.000Z</time>
|
|
</trkpt>
|
|
<trkpt lat="57.685591" lon="10.502881">
|
|
<ele>18.895855</ele>
|
|
<time>2026-07-17T14:48:39.000Z</time>
|
|
</trkpt>
|
|
<trkpt lat="57.685535" lon="10.502888">
|
|
<ele>18.881222</ele>
|
|
<time>2026-07-17T14:48:40.000Z</time>
|
|
</trkpt>
|
|
<trkpt lat="57.685477" lon="10.502899">
|
|
<ele>18.866022</ele>
|
|
<time>2026-07-17T14:48:41.000Z</time>
|
|
</trkpt>
|
|
<trkpt lat="57.685417" lon="10.502915">
|
|
<ele>18.850220</ele>
|
|
<time>2026-07-17T14:48:42.000Z</time>
|
|
</trkpt>
|
|
<trkpt lat="57.685362" lon="10.502933">
|
|
<ele>18.835663</ele>
|
|
<time>2026-07-17T14:48:43.000Z</time>
|
|
</trkpt>
|
|
<trkpt lat="57.685307" lon="10.502951">
|
|
<ele>18.821105</ele>
|
|
<time>2026-07-17T14:48:44.000Z</time>
|
|
</trkpt>
|
|
<trkpt lat="57.685253" lon="10.502968">
|
|
<ele>18.806828</ele>
|
|
<time>2026-07-17T14:48:45.000Z</time>
|
|
</trkpt>
|
|
<trkpt lat="57.685200" lon="10.502981">
|
|
<ele>18.792891</ele>
|
|
<time>2026-07-17T14:48:46.000Z</time>
|
|
</trkpt>
|
|
<trkpt lat="57.685145" lon="10.502992">
|
|
<ele>18.778470</ele>
|
|
<time>2026-07-17T14:48:47.000Z</time>
|
|
</trkpt>
|
|
<trkpt lat="57.685089" lon="10.502999">
|
|
<ele>18.763837</ele>
|
|
<time>2026-07-17T14:48:48.000Z</time>
|
|
</trkpt>
|
|
<trkpt lat="57.685034" lon="10.502997">
|
|
<ele>18.749494</ele>
|
|
<time>2026-07-17T14:48:49.000Z</time>
|
|
</trkpt>
|
|
<trkpt lat="57.684979" lon="10.502987">
|
|
<ele>18.735087</ele>
|
|
<time>2026-07-17T14:48:50.000Z</time>
|
|
</trkpt>
|
|
<trkpt lat="57.684925" lon="10.502972">
|
|
<ele>18.720853</ele>
|
|
<time>2026-07-17T14:48:51.000Z</time>
|
|
</trkpt>
|
|
<trkpt lat="57.684868" lon="10.502956">
|
|
<ele>18.705825</ele>
|
|
<time>2026-07-17T14:48:52.000Z</time>
|
|
</trkpt>
|
|
<trkpt lat="57.684811" lon="10.502941">
|
|
<ele>18.690818</ele>
|
|
<time>2026-07-17T14:48:53.000Z</time>
|
|
</trkpt>
|
|
<trkpt lat="57.684756" lon="10.502929">
|
|
<ele>18.676381</ele>
|
|
<time>2026-07-17T14:48:54.000Z</time>
|
|
</trkpt>
|
|
<trkpt lat="57.684700" lon="10.502920">
|
|
<ele>18.667869</ele>
|
|
<time>2026-07-17T14:48:55.000Z</time>
|
|
</trkpt>
|
|
<trkpt lat="57.684645" lon="10.502914">
|
|
<ele>18.665070</ele>
|
|
<time>2026-07-17T14:48:56.000Z</time>
|
|
</trkpt>
|
|
<trkpt lat="57.684588" lon="10.502912">
|
|
<ele>18.662173</ele>
|
|
<time>2026-07-17T14:48:57.000Z</time>
|
|
</trkpt>
|
|
<trkpt lat="57.684532" lon="10.502920">
|
|
<ele>18.659320</ele>
|
|
<time>2026-07-17T14:48:58.000Z</time>
|
|
</trkpt>
|
|
<trkpt lat="57.684477" lon="10.502939">
|
|
<ele>18.656478</ele>
|
|
<time>2026-07-17T14:48:59.000Z</time>
|
|
</trkpt>
|
|
<trkpt lat="57.684422" lon="10.502963">
|
|
<ele>18.653609</ele>
|
|
<time>2026-07-17T14:49:00.000Z</time>
|
|
</trkpt>
|
|
<trkpt lat="57.684370" lon="10.502989">
|
|
<ele>18.650874</ele>
|
|
<time>2026-07-17T14:49:01.000Z</time>
|
|
</trkpt>
|
|
<trkpt lat="57.684319" lon="10.503009">
|
|
<ele>18.648227</ele>
|
|
<time>2026-07-17T14:49:02.000Z</time>
|
|
</trkpt>
|
|
<trkpt lat="57.684265" lon="10.503016">
|
|
<ele>18.645476</ele>
|
|
<time>2026-07-17T14:49:03.000Z</time>
|
|
</trkpt>
|
|
<trkpt lat="57.684213" lon="10.503010">
|
|
<ele>18.642829</ele>
|
|
<time>2026-07-17T14:49:04.000Z</time>
|
|
</trkpt>
|
|
<trkpt lat="57.684160" lon="10.502998">
|
|
<ele>18.640117</ele>
|
|
<time>2026-07-17T14:49:05.000Z</time>
|
|
</trkpt>
|
|
<trkpt lat="57.684105" lon="10.502985">
|
|
<ele>18.637300</ele>
|
|
<time>2026-07-17T14:49:06.000Z</time>
|
|
</trkpt>
|
|
<trkpt lat="57.684053" lon="10.502975">
|
|
<ele>18.634644</ele>
|
|
<time>2026-07-17T14:49:07.000Z</time>
|
|
</trkpt>
|
|
<trkpt lat="57.684002" lon="10.502971">
|
|
<ele>18.632051</ele>
|
|
<time>2026-07-17T14:49:08.000Z</time>
|
|
</trkpt>
|
|
<trkpt lat="57.683949" lon="10.502973">
|
|
<ele>18.629358</ele>
|
|
<time>2026-07-17T14:49:09.000Z</time>
|
|
</trkpt>
|
|
<trkpt lat="57.683895" lon="10.502984">
|
|
<ele>18.626598</ele>
|
|
<time>2026-07-17T14:49:10.000Z</time>
|
|
</trkpt>
|
|
<trkpt lat="57.683844" lon="10.503007">
|
|
<ele>18.623932</ele>
|
|
<time>2026-07-17T14:49:11.000Z</time>
|
|
</trkpt>
|
|
<trkpt lat="57.683793" lon="10.503038">
|
|
<ele>18.621208</ele>
|
|
<time>2026-07-17T14:49:12.000Z</time>
|
|
</trkpt>
|
|
<trkpt lat="57.683740" lon="10.503074">
|
|
<ele>18.618343</ele>
|
|
<time>2026-07-17T14:49:13.000Z</time>
|
|
</trkpt>
|
|
<trkpt lat="57.683689" lon="10.503105">
|
|
<ele>18.615618</ele>
|
|
<time>2026-07-17T14:49:14.000Z</time>
|
|
</trkpt>
|
|
<trkpt lat="57.683636" lon="10.503127">
|
|
<ele>18.612860</ele>
|
|
<time>2026-07-17T14:49:15.000Z</time>
|
|
</trkpt>
|
|
<trkpt lat="57.683582" lon="10.503142">
|
|
<ele>18.610086</ele>
|
|
<time>2026-07-17T14:49:16.000Z</time>
|
|
</trkpt>
|
|
<trkpt lat="57.683527" lon="10.503152">
|
|
<ele>18.607279</ele>
|
|
<time>2026-07-17T14:49:17.000Z</time>
|
|
</trkpt>
|
|
<trkpt lat="57.683472" lon="10.503156">
|
|
<ele>18.604482</ele>
|
|
<time>2026-07-17T14:49:18.000Z</time>
|
|
</trkpt>
|
|
<trkpt lat="57.683419" lon="10.503159">
|
|
<ele>18.601788</ele>
|
|
<time>2026-07-17T14:49:19.000Z</time>
|
|
</trkpt>
|
|
<trkpt lat="57.683366" lon="10.503161">
|
|
<ele>18.599095</ele>
|
|
<time>2026-07-17T14:49:20.000Z</time>
|
|
</trkpt>
|
|
<trkpt lat="57.683312" lon="10.503162">
|
|
<ele>18.596351</ele>
|
|
<time>2026-07-17T14:49:21.000Z</time>
|
|
</trkpt>
|
|
<trkpt lat="57.683259" lon="10.503161">
|
|
<ele>18.593658</ele>
|
|
<time>2026-07-17T14:49:22.000Z</time>
|
|
</trkpt>
|
|
<trkpt lat="57.683207" lon="10.503154">
|
|
<ele>18.591009</ele>
|
|
<time>2026-07-17T14:49:23.000Z</time>
|
|
</trkpt>
|
|
<trkpt lat="57.683155" lon="10.503144">
|
|
<ele>18.588354</ele>
|
|
<time>2026-07-17T14:49:24.000Z</time>
|
|
</trkpt>
|
|
<trkpt lat="57.683103" lon="10.503135">
|
|
<ele>18.585700</ele>
|
|
<time>2026-07-17T14:49:25.000Z</time>
|
|
</trkpt>
|
|
<trkpt lat="57.683052" lon="10.503126">
|
|
<ele>18.583098</ele>
|
|
<time>2026-07-17T14:49:26.000Z</time>
|
|
</trkpt>
|
|
<trkpt lat="57.682997" lon="10.503119">
|
|
<ele>18.580297</ele>
|
|
<time>2026-07-17T14:49:27.000Z</time>
|
|
</trkpt>
|
|
<trkpt lat="57.682942" lon="10.503111">
|
|
<ele>18.573876</ele>
|
|
<time>2026-07-17T14:49:28.000Z</time>
|
|
</trkpt>
|
|
<trkpt lat="57.682890" lon="10.503101">
|
|
<ele>18.551095</ele>
|
|
<time>2026-07-17T14:49:29.000Z</time>
|
|
</trkpt>
|
|
<trkpt lat="57.682839" lon="10.503091">
|
|
<ele>18.528748</ele>
|
|
<time>2026-07-17T14:49:30.000Z</time>
|
|
</trkpt>
|
|
<trkpt lat="57.682785" lon="10.503082">
|
|
<ele>18.505122</ele>
|
|
<time>2026-07-17T14:49:31.000Z</time>
|
|
</trkpt>
|
|
<trkpt lat="57.682730" lon="10.503077">
|
|
<ele>18.481125</ele>
|
|
<time>2026-07-17T14:49:32.000Z</time>
|
|
</trkpt>
|
|
<trkpt lat="57.682675" lon="10.503072">
|
|
<ele>18.457129</ele>
|
|
<time>2026-07-17T14:49:33.000Z</time>
|
|
</trkpt>
|
|
<trkpt lat="57.682619" lon="10.503068">
|
|
<ele>18.432707</ele>
|
|
<time>2026-07-17T14:49:34.000Z</time>
|
|
</trkpt>
|
|
<trkpt lat="57.682564" lon="10.503065">
|
|
<ele>18.408728</ele>
|
|
<time>2026-07-17T14:49:35.000Z</time>
|
|
</trkpt>
|
|
<trkpt lat="57.682511" lon="10.503062">
|
|
<ele>18.385620</ele>
|
|
<time>2026-07-17T14:49:36.000Z</time>
|
|
</trkpt>
|
|
<trkpt lat="57.682457" lon="10.503058">
|
|
<ele>18.362069</ele>
|
|
<time>2026-07-17T14:49:37.000Z</time>
|
|
</trkpt>
|
|
<trkpt lat="57.682404" lon="10.503053">
|
|
<ele>18.338943</ele>
|
|
<time>2026-07-17T14:49:38.000Z</time>
|
|
</trkpt>
|
|
<trkpt lat="57.682350" lon="10.503050">
|
|
<ele>18.315400</ele>
|
|
<time>2026-07-17T14:49:39.000Z</time>
|
|
</trkpt>
|
|
<trkpt lat="57.682299" lon="10.503047">
|
|
<ele>18.293164</ele>
|
|
<time>2026-07-17T14:49:40.000Z</time>
|
|
</trkpt>
|
|
<trkpt lat="57.682249" lon="10.503043">
|
|
<ele>18.271354</ele>
|
|
<time>2026-07-17T14:49:41.000Z</time>
|
|
</trkpt>
|
|
<trkpt lat="57.682200" lon="10.503039">
|
|
<ele>18.249980</ele>
|
|
<time>2026-07-17T14:49:42.000Z</time>
|
|
</trkpt>
|
|
<trkpt lat="57.682151" lon="10.503038">
|
|
<ele>18.228625</ele>
|
|
<time>2026-07-17T14:49:43.000Z</time>
|
|
</trkpt>
|
|
<trkpt lat="57.682102" lon="10.503034">
|
|
<ele>18.207251</ele>
|
|
<time>2026-07-17T14:49:44.000Z</time>
|
|
</trkpt>
|
|
<trkpt lat="57.682049" lon="10.503028">
|
|
<ele>18.184112</ele>
|
|
<time>2026-07-17T14:49:45.000Z</time>
|
|
</trkpt>
|
|
<trkpt lat="57.681996" lon="10.503022">
|
|
<ele>18.160973</ele>
|
|
<time>2026-07-17T14:49:46.000Z</time>
|
|
</trkpt>
|
|
<trkpt lat="57.681942" lon="10.503015">
|
|
<ele>18.137384</ele>
|
|
<time>2026-07-17T14:49:47.000Z</time>
|
|
</trkpt>
|
|
<trkpt lat="57.681889" lon="10.503006">
|
|
<ele>18.114192</ele>
|
|
<time>2026-07-17T14:49:48.000Z</time>
|
|
</trkpt>
|
|
<trkpt lat="57.681834" lon="10.502999">
|
|
<ele>18.090168</ele>
|
|
<time>2026-07-17T14:49:49.000Z</time>
|
|
</trkpt>
|
|
<trkpt lat="57.681775" lon="10.502996">
|
|
<ele>18.064447</ele>
|
|
<time>2026-07-17T14:49:50.000Z</time>
|
|
</trkpt>
|
|
<trkpt lat="57.681714" lon="10.502998">
|
|
<ele>18.037860</ele>
|
|
<time>2026-07-17T14:49:51.000Z</time>
|
|
</trkpt>
|
|
<trkpt lat="57.681657" lon="10.503006">
|
|
<ele>18.012950</ele>
|
|
<time>2026-07-17T14:49:52.000Z</time>
|
|
</trkpt>
|
|
<trkpt lat="57.681601" lon="10.503018">
|
|
<ele>17.988386</ele>
|
|
<time>2026-07-17T14:49:53.000Z</time>
|
|
</trkpt>
|
|
<trkpt lat="57.681541" lon="10.503033">
|
|
<ele>17.962006</ele>
|
|
<time>2026-07-17T14:49:54.000Z</time>
|
|
</trkpt>
|
|
<trkpt lat="57.681488" lon="10.503045">
|
|
<ele>17.938741</ele>
|
|
<time>2026-07-17T14:49:55.000Z</time>
|
|
</trkpt>
|
|
<trkpt lat="57.681435" lon="10.503058">
|
|
<ele>17.915446</ele>
|
|
<time>2026-07-17T14:49:56.000Z</time>
|
|
</trkpt>
|
|
<trkpt lat="57.681382" lon="10.503073">
|
|
<ele>17.892086</ele>
|
|
<time>2026-07-17T14:49:57.000Z</time>
|
|
</trkpt>
|
|
<trkpt lat="57.681328" lon="10.503087">
|
|
<ele>17.868329</ele>
|
|
<time>2026-07-17T14:49:58.000Z</time>
|
|
</trkpt>
|
|
<trkpt lat="57.681275" lon="10.503099">
|
|
<ele>17.845063</ele>
|
|
<time>2026-07-17T14:49:59.000Z</time>
|
|
</trkpt>
|
|
<trkpt lat="57.681220" lon="10.503109">
|
|
<ele>17.820982</ele>
|
|
<time>2026-07-17T14:50:00.000Z</time>
|
|
</trkpt>
|
|
<trkpt lat="57.681162" lon="10.503116">
|
|
<ele>17.795653</ele>
|
|
<time>2026-07-17T14:50:01.000Z</time>
|
|
</trkpt>
|
|
<trkpt lat="57.681104" lon="10.503122">
|
|
<ele>17.764468</ele>
|
|
<time>2026-07-17T14:50:02.000Z</time>
|
|
</trkpt>
|
|
<trkpt lat="57.681046" lon="10.503133">
|
|
<ele>17.732795</ele>
|
|
<time>2026-07-17T14:50:03.000Z</time>
|
|
</trkpt>
|
|
<trkpt lat="57.680991" lon="10.503149">
|
|
<ele>17.702555</ele>
|
|
<time>2026-07-17T14:50:04.000Z</time>
|
|
</trkpt>
|
|
<trkpt lat="57.680934" lon="10.503166">
|
|
<ele>17.671197</ele>
|
|
<time>2026-07-17T14:50:05.000Z</time>
|
|
</trkpt>
|
|
<trkpt lat="57.680878" lon="10.503184">
|
|
<ele>17.640327</ele>
|
|
<time>2026-07-17T14:50:06.000Z</time>
|
|
</trkpt>
|
|
<trkpt lat="57.680823" lon="10.503197">
|
|
<ele>17.610208</ele>
|
|
<time>2026-07-17T14:50:07.000Z</time>
|
|
</trkpt>
|
|
<trkpt lat="57.680767" lon="10.503202">
|
|
<ele>17.579749</ele>
|
|
<time>2026-07-17T14:50:08.000Z</time>
|
|
</trkpt>
|
|
<trkpt lat="57.680714" lon="10.503200">
|
|
<ele>17.550949</ele>
|
|
<time>2026-07-17T14:50:09.000Z</time>
|
|
</trkpt>
|
|
<trkpt lat="57.680660" lon="10.503187">
|
|
<ele>17.521370</ele>
|
|
<time>2026-07-17T14:50:10.000Z</time>
|
|
</trkpt>
|
|
<trkpt lat="57.680608" lon="10.503168">
|
|
<ele>17.492585</ele>
|
|
<time>2026-07-17T14:50:11.000Z</time>
|
|
</trkpt>
|
|
<trkpt lat="57.680556" lon="10.503145">
|
|
<ele>17.463554</ele>
|
|
<time>2026-07-17T14:50:12.000Z</time>
|
|
</trkpt>
|
|
<trkpt lat="57.680499" lon="10.503120">
|
|
<ele>17.431747</ele>
|
|
<time>2026-07-17T14:50:13.000Z</time>
|
|
</trkpt>
|
|
<trkpt lat="57.680443" lon="10.503097">
|
|
<ele>17.400598</ele>
|
|
<time>2026-07-17T14:50:14.000Z</time>
|
|
</trkpt>
|
|
<trkpt lat="57.680388" lon="10.503074">
|
|
<ele>17.369980</ele>
|
|
<time>2026-07-17T14:50:15.000Z</time>
|
|
</trkpt>
|
|
<trkpt lat="57.680332" lon="10.503054">
|
|
<ele>17.339006</ele>
|
|
<time>2026-07-17T14:50:16.000Z</time>
|
|
</trkpt>
|
|
<trkpt lat="57.680277" lon="10.503040">
|
|
<ele>17.308849</ele>
|
|
<time>2026-07-17T14:50:17.000Z</time>
|
|
</trkpt>
|
|
<trkpt lat="57.680218" lon="10.503029">
|
|
<ele>17.276637</ele>
|
|
<time>2026-07-17T14:50:18.000Z</time>
|
|
</trkpt>
|
|
<trkpt lat="57.680161" lon="10.503021">
|
|
<ele>17.245582</ele>
|
|
<time>2026-07-17T14:50:19.000Z</time>
|
|
</trkpt>
|
|
<trkpt lat="57.680107" lon="10.503018">
|
|
<ele>17.216232</ele>
|
|
<time>2026-07-17T14:50:20.000Z</time>
|
|
</trkpt>
|
|
<trkpt lat="57.680054" lon="10.503015">
|
|
<ele>17.187424</ele>
|
|
<time>2026-07-17T14:50:21.000Z</time>
|
|
</trkpt>
|
|
<trkpt lat="57.680000" lon="10.503006">
|
|
<ele>17.157970</ele>
|
|
<time>2026-07-17T14:50:22.000Z</time>
|
|
</trkpt>
|
|
<trkpt lat="57.679941" lon="10.502987">
|
|
<ele>17.125445</ele>
|
|
<time>2026-07-17T14:50:23.000Z</time>
|
|
</trkpt>
|
|
<trkpt lat="57.679886" lon="10.502964">
|
|
<ele>17.094826</ele>
|
|
<time>2026-07-17T14:50:24.000Z</time>
|
|
</trkpt>
|
|
<trkpt lat="57.679831" lon="10.502938">
|
|
<ele>17.064006</ele>
|
|
<time>2026-07-17T14:50:25.000Z</time>
|
|
</trkpt>
|
|
<trkpt lat="57.679776" lon="10.502909">
|
|
<ele>17.032960</ele>
|
|
<time>2026-07-17T14:50:26.000Z</time>
|
|
</trkpt>
|
|
<trkpt lat="57.679722" lon="10.502877">
|
|
<ele>17.002185</ele>
|
|
<time>2026-07-17T14:50:27.000Z</time>
|
|
</trkpt>
|
|
<trkpt lat="57.679667" lon="10.502845">
|
|
<ele>16.970892</ele>
|
|
<time>2026-07-17T14:50:28.000Z</time>
|
|
</trkpt>
|
|
<trkpt lat="57.679611" lon="10.502814">
|
|
<ele>16.939163</ele>
|
|
<time>2026-07-17T14:50:29.000Z</time>
|
|
</trkpt>
|
|
<trkpt lat="57.679556" lon="10.502785">
|
|
<ele>16.908118</ele>
|
|
<time>2026-07-17T14:50:30.000Z</time>
|
|
</trkpt>
|
|
<trkpt lat="57.679501" lon="10.502754">
|
|
<ele>16.876910</ele>
|
|
<time>2026-07-17T14:50:31.000Z</time>
|
|
</trkpt>
|
|
<trkpt lat="57.679446" lon="10.502720">
|
|
<ele>16.845439</ele>
|
|
<time>2026-07-17T14:50:32.000Z</time>
|
|
</trkpt>
|
|
<trkpt lat="57.679390" lon="10.502685">
|
|
<ele>16.815495</ele>
|
|
<time>2026-07-17T14:50:33.000Z</time>
|
|
</trkpt>
|
|
<trkpt lat="57.679336" lon="10.502648">
|
|
<ele>16.802784</ele>
|
|
<time>2026-07-17T14:50:34.000Z</time>
|
|
</trkpt>
|
|
<trkpt lat="57.679281" lon="10.502612">
|
|
<ele>16.789905</ele>
|
|
<time>2026-07-17T14:50:35.000Z</time>
|
|
</trkpt>
|
|
<trkpt lat="57.679226" lon="10.502575">
|
|
<ele>16.776987</ele>
|
|
<time>2026-07-17T14:50:36.000Z</time>
|
|
</trkpt>
|
|
<trkpt lat="57.679171" lon="10.502541">
|
|
<ele>16.764184</ele>
|
|
<time>2026-07-17T14:50:37.000Z</time>
|
|
</trkpt>
|
|
<trkpt lat="57.679115" lon="10.502510">
|
|
<ele>16.751276</ele>
|
|
<time>2026-07-17T14:50:38.000Z</time>
|
|
</trkpt>
|
|
<trkpt lat="57.679060" lon="10.502476">
|
|
<ele>16.738472</ele>
|
|
<time>2026-07-17T14:50:39.000Z</time>
|
|
</trkpt>
|
|
<trkpt lat="57.679005" lon="10.502438">
|
|
<ele>16.725513</ele>
|
|
<time>2026-07-17T14:50:40.000Z</time>
|
|
</trkpt>
|
|
<trkpt lat="57.678953" lon="10.502399">
|
|
<ele>16.713130</ele>
|
|
<time>2026-07-17T14:50:41.000Z</time>
|
|
</trkpt>
|
|
<trkpt lat="57.678900" lon="10.502362">
|
|
<ele>16.700627</ele>
|
|
<time>2026-07-17T14:50:42.000Z</time>
|
|
</trkpt>
|
|
<trkpt lat="57.678843" lon="10.502325">
|
|
<ele>16.687291</ele>
|
|
<time>2026-07-17T14:50:43.000Z</time>
|
|
</trkpt>
|
|
<trkpt lat="57.678787" lon="10.502289">
|
|
<ele>16.674203</ele>
|
|
<time>2026-07-17T14:50:44.000Z</time>
|
|
</trkpt>
|
|
<trkpt lat="57.678734" lon="10.502258">
|
|
<ele>16.661930</ele>
|
|
<time>2026-07-17T14:50:45.000Z</time>
|
|
</trkpt>
|
|
<trkpt lat="57.678679" lon="10.502233">
|
|
<ele>16.649420</ele>
|
|
<time>2026-07-17T14:50:46.000Z</time>
|
|
</trkpt>
|
|
<trkpt lat="57.678622" lon="10.502212">
|
|
<ele>16.636579</ele>
|
|
<time>2026-07-17T14:50:47.000Z</time>
|
|
</trkpt>
|
|
<trkpt lat="57.678565" lon="10.502196">
|
|
<ele>16.623840</ele>
|
|
<time>2026-07-17T14:50:48.000Z</time>
|
|
</trkpt>
|
|
<trkpt lat="57.678509" lon="10.502181">
|
|
<ele>16.611336</ele>
|
|
<time>2026-07-17T14:50:49.000Z</time>
|
|
</trkpt>
|
|
<trkpt lat="57.678454" lon="10.502169">
|
|
<ele>16.599097</ele>
|
|
<time>2026-07-17T14:50:50.000Z</time>
|
|
</trkpt>
|
|
<trkpt lat="57.678398" lon="10.502160">
|
|
<ele>16.586675</ele>
|
|
<time>2026-07-17T14:50:51.000Z</time>
|
|
</trkpt>
|
|
<trkpt lat="57.678341" lon="10.502153">
|
|
<ele>16.574049</ele>
|
|
<time>2026-07-17T14:50:52.000Z</time>
|
|
</trkpt>
|
|
<trkpt lat="57.678282" lon="10.502145">
|
|
<ele>16.560975</ele>
|
|
<time>2026-07-17T14:50:53.000Z</time>
|
|
</trkpt>
|
|
<trkpt lat="57.678226" lon="10.502136">
|
|
<ele>16.548552</ele>
|
|
<time>2026-07-17T14:50:54.000Z</time>
|
|
</trkpt>
|
|
<trkpt lat="57.678170" lon="10.502124">
|
|
<ele>16.536093</ele>
|
|
<time>2026-07-17T14:50:55.000Z</time>
|
|
</trkpt>
|
|
<trkpt lat="57.678115" lon="10.502109">
|
|
<ele>16.523809</ele>
|
|
<time>2026-07-17T14:50:56.000Z</time>
|
|
</trkpt>
|
|
<trkpt lat="57.678059" lon="10.502090">
|
|
<ele>16.511229</ele>
|
|
<time>2026-07-17T14:50:57.000Z</time>
|
|
</trkpt>
|
|
<trkpt lat="57.678005" lon="10.502065">
|
|
<ele>16.498934</ele>
|
|
<time>2026-07-17T14:50:58.000Z</time>
|
|
</trkpt>
|
|
<trkpt lat="57.677953" lon="10.502036">
|
|
<ele>16.486940</ele>
|
|
<time>2026-07-17T14:50:59.000Z</time>
|
|
</trkpt>
|
|
<trkpt lat="57.677900" lon="10.502005">
|
|
<ele>16.474667</ele>
|
|
<time>2026-07-17T14:51:00.000Z</time>
|
|
</trkpt>
|
|
<trkpt lat="57.677845" lon="10.501976">
|
|
<ele>16.462037</ele>
|
|
<time>2026-07-17T14:51:01.000Z</time>
|
|
</trkpt>
|
|
<trkpt lat="57.677792" lon="10.501948">
|
|
<ele>16.449864</ele>
|
|
<time>2026-07-17T14:51:02.000Z</time>
|
|
</trkpt>
|
|
<trkpt lat="57.677738" lon="10.501921">
|
|
<ele>16.437510</ele>
|
|
<time>2026-07-17T14:51:03.000Z</time>
|
|
</trkpt>
|
|
<trkpt lat="57.677683" lon="10.501896">
|
|
<ele>16.425000</ele>
|
|
<time>2026-07-17T14:51:04.000Z</time>
|
|
</trkpt>
|
|
<trkpt lat="57.677628" lon="10.501871">
|
|
<ele>16.417964</ele>
|
|
<time>2026-07-17T14:51:05.000Z</time>
|
|
</trkpt>
|
|
<trkpt lat="57.677574" lon="10.501845">
|
|
<ele>16.415378</ele>
|
|
<time>2026-07-17T14:51:06.000Z</time>
|
|
</trkpt>
|
|
<trkpt lat="57.677521" lon="10.501819">
|
|
<ele>16.412837</ele>
|
|
<time>2026-07-17T14:51:07.000Z</time>
|
|
</trkpt>
|
|
<trkpt lat="57.677468" lon="10.501792">
|
|
<ele>16.410289</ele>
|
|
<time>2026-07-17T14:51:08.000Z</time>
|
|
</trkpt>
|
|
<trkpt lat="57.677414" lon="10.501765">
|
|
<ele>16.407697</ele>
|
|
<time>2026-07-17T14:51:09.000Z</time>
|
|
</trkpt>
|
|
<trkpt lat="57.677360" lon="10.501735">
|
|
<ele>16.405085</ele>
|
|
<time>2026-07-17T14:51:10.000Z</time>
|
|
</trkpt>
|
|
<trkpt lat="57.677310" lon="10.501705">
|
|
<ele>16.402650</ele>
|
|
<time>2026-07-17T14:51:11.000Z</time>
|
|
</trkpt>
|
|
<trkpt lat="57.677259" lon="10.501673">
|
|
<ele>16.400155</ele>
|
|
<time>2026-07-17T14:51:12.000Z</time>
|
|
</trkpt>
|
|
<trkpt lat="57.677201" lon="10.501630">
|
|
<ele>16.397262</ele>
|
|
<time>2026-07-17T14:51:13.000Z</time>
|
|
</trkpt>
|
|
<trkpt lat="57.677147" lon="10.501584">
|
|
<ele>16.394510</ele>
|
|
<time>2026-07-17T14:51:14.000Z</time>
|
|
</trkpt>
|
|
<trkpt lat="57.677095" lon="10.501535">
|
|
<ele>16.391810</ele>
|
|
<time>2026-07-17T14:51:15.000Z</time>
|
|
</trkpt>
|
|
<trkpt lat="57.677044" lon="10.501484">
|
|
<ele>16.389128</ele>
|
|
<time>2026-07-17T14:51:16.000Z</time>
|
|
</trkpt>
|
|
<trkpt lat="57.676992" lon="10.501429">
|
|
<ele>16.386357</ele>
|
|
<time>2026-07-17T14:51:17.000Z</time>
|
|
</trkpt>
|
|
<trkpt lat="57.676944" lon="10.501369">
|
|
<ele>16.383680</ele>
|
|
<time>2026-07-17T14:51:18.000Z</time>
|
|
</trkpt>
|
|
<trkpt lat="57.676898" lon="10.501307">
|
|
<ele>16.381050</ele>
|
|
<time>2026-07-17T14:51:19.000Z</time>
|
|
</trkpt>
|
|
<trkpt lat="57.676853" lon="10.501240">
|
|
<ele>16.378383</ele>
|
|
<time>2026-07-17T14:51:20.000Z</time>
|
|
</trkpt>
|
|
<trkpt lat="57.676809" lon="10.501170">
|
|
<ele>16.375704</ele>
|
|
<time>2026-07-17T14:51:21.000Z</time>
|
|
</trkpt>
|
|
<trkpt lat="57.676767" lon="10.501097">
|
|
<ele>16.373045</ele>
|
|
<time>2026-07-17T14:51:22.000Z</time>
|
|
</trkpt>
|
|
<trkpt lat="57.676725" lon="10.501024">
|
|
<ele>16.370386</ele>
|
|
<time>2026-07-17T14:51:23.000Z</time>
|
|
</trkpt>
|
|
<trkpt lat="57.676683" lon="10.500950">
|
|
<ele>16.367710</ele>
|
|
<time>2026-07-17T14:51:24.000Z</time>
|
|
</trkpt>
|
|
<trkpt lat="57.676641" lon="10.500879">
|
|
<ele>16.365085</ele>
|
|
<time>2026-07-17T14:51:25.000Z</time>
|
|
</trkpt>
|
|
<trkpt lat="57.676597" lon="10.500812">
|
|
<ele>16.362453</ele>
|
|
<time>2026-07-17T14:51:26.000Z</time>
|
|
</trkpt>
|
|
<trkpt lat="57.676551" lon="10.500746">
|
|
<ele>16.359765</ele>
|
|
<time>2026-07-17T14:51:27.000Z</time>
|
|
</trkpt>
|
|
<trkpt lat="57.676505" lon="10.500683">
|
|
<ele>16.357121</ele>
|
|
<time>2026-07-17T14:51:28.000Z</time>
|
|
</trkpt>
|
|
<trkpt lat="57.676460" lon="10.500622">
|
|
<ele>16.354543</ele>
|
|
<time>2026-07-17T14:51:29.000Z</time>
|
|
</trkpt>
|
|
<trkpt lat="57.676414" lon="10.500561">
|
|
<ele>16.351928</ele>
|
|
<time>2026-07-17T14:51:30.000Z</time>
|
|
</trkpt>
|
|
<trkpt lat="57.676368" lon="10.500501">
|
|
<ele>16.349327</ele>
|
|
<time>2026-07-17T14:51:31.000Z</time>
|
|
</trkpt>
|
|
<trkpt lat="57.676320" lon="10.500443">
|
|
<ele>16.346677</ele>
|
|
<time>2026-07-17T14:51:32.000Z</time>
|
|
</trkpt>
|
|
<trkpt lat="57.676273" lon="10.500384">
|
|
<ele>16.344052</ele>
|
|
<time>2026-07-17T14:51:33.000Z</time>
|
|
</trkpt>
|
|
<trkpt lat="57.676225" lon="10.500326">
|
|
<ele>16.341402</ele>
|
|
<time>2026-07-17T14:51:34.000Z</time>
|
|
</trkpt>
|
|
<trkpt lat="57.676179" lon="10.500266">
|
|
<ele>16.338801</ele>
|
|
<time>2026-07-17T14:51:35.000Z</time>
|
|
</trkpt>
|
|
<trkpt lat="57.676138" lon="10.500204">
|
|
<ele>16.336356</ele>
|
|
<time>2026-07-17T14:51:36.000Z</time>
|
|
</trkpt>
|
|
<trkpt lat="57.676097" lon="10.500138">
|
|
<ele>16.334645</ele>
|
|
<time>2026-07-17T14:51:37.000Z</time>
|
|
</trkpt>
|
|
<trkpt lat="57.676059" lon="10.500067">
|
|
<ele>16.333074</ele>
|
|
<time>2026-07-17T14:51:38.000Z</time>
|
|
</trkpt>
|
|
<trkpt lat="57.676022" lon="10.499990">
|
|
<ele>16.331456</ele>
|
|
<time>2026-07-17T14:51:39.000Z</time>
|
|
</trkpt>
|
|
<trkpt lat="57.675988" lon="10.499907">
|
|
<ele>16.329821</ele>
|
|
<time>2026-07-17T14:51:40.000Z</time>
|
|
</trkpt>
|
|
<trkpt lat="57.675956" lon="10.499821">
|
|
<ele>16.328183</ele>
|
|
<time>2026-07-17T14:51:41.000Z</time>
|
|
</trkpt>
|
|
<trkpt lat="57.675927" lon="10.499734">
|
|
<ele>16.326580</ele>
|
|
<time>2026-07-17T14:51:42.000Z</time>
|
|
</trkpt>
|
|
<trkpt lat="57.675900" lon="10.499643">
|
|
<ele>16.324953</ele>
|
|
<time>2026-07-17T14:51:43.000Z</time>
|
|
</trkpt>
|
|
<trkpt lat="57.675874" lon="10.499554">
|
|
<ele>16.323368</ele>
|
|
<time>2026-07-17T14:51:44.000Z</time>
|
|
</trkpt>
|
|
<trkpt lat="57.675852" lon="10.499466">
|
|
<ele>16.321849</ele>
|
|
<time>2026-07-17T14:51:45.000Z</time>
|
|
</trkpt>
|
|
<trkpt lat="57.675829" lon="10.499376">
|
|
<ele>16.320290</ele>
|
|
<time>2026-07-17T14:51:46.000Z</time>
|
|
</trkpt>
|
|
<trkpt lat="57.675806" lon="10.499285">
|
|
<ele>16.318716</ele>
|
|
<time>2026-07-17T14:51:47.000Z</time>
|
|
</trkpt>
|
|
<trkpt lat="57.675783" lon="10.499198">
|
|
<ele>16.317199</ele>
|
|
<time>2026-07-17T14:51:48.000Z</time>
|
|
</trkpt>
|
|
<trkpt lat="57.675758" lon="10.499115">
|
|
<ele>16.315709</ele>
|
|
<time>2026-07-17T14:51:49.000Z</time>
|
|
</trkpt>
|
|
<trkpt lat="57.675732" lon="10.499035">
|
|
<ele>16.314246</ele>
|
|
<time>2026-07-17T14:51:50.000Z</time>
|
|
</trkpt>
|
|
<trkpt lat="57.675706" lon="10.498956">
|
|
<ele>16.312795</ele>
|
|
<time>2026-07-17T14:51:51.000Z</time>
|
|
</trkpt>
|
|
<trkpt lat="57.675679" lon="10.498877">
|
|
<ele>16.311330</ele>
|
|
<time>2026-07-17T14:51:52.000Z</time>
|
|
</trkpt>
|
|
<trkpt lat="57.675650" lon="10.498808">
|
|
<ele>16.309957</ele>
|
|
<time>2026-07-17T14:51:53.000Z</time>
|
|
</trkpt>
|
|
<trkpt lat="57.675614" lon="10.498744">
|
|
<ele>16.308505</ele>
|
|
<time>2026-07-17T14:51:54.000Z</time>
|
|
</trkpt>
|
|
<trkpt lat="57.675576" lon="10.498688">
|
|
<ele>16.307091</ele>
|
|
<time>2026-07-17T14:51:55.000Z</time>
|
|
</trkpt>
|
|
<trkpt lat="57.675538" lon="10.498638">
|
|
<ele>16.305732</ele>
|
|
<time>2026-07-17T14:51:56.000Z</time>
|
|
</trkpt>
|
|
<trkpt lat="57.675490" lon="10.498579">
|
|
<ele>16.304053</ele>
|
|
<time>2026-07-17T14:51:57.000Z</time>
|
|
</trkpt>
|
|
<trkpt lat="57.675443" lon="10.498527">
|
|
<ele>16.302456</ele>
|
|
<time>2026-07-17T14:51:58.000Z</time>
|
|
</trkpt>
|
|
<trkpt lat="57.675398" lon="10.498477">
|
|
<ele>16.300926</ele>
|
|
<time>2026-07-17T14:51:59.000Z</time>
|
|
</trkpt>
|
|
<trkpt lat="57.675353" lon="10.498427">
|
|
<ele>16.299395</ele>
|
|
<time>2026-07-17T14:52:00.000Z</time>
|
|
</trkpt>
|
|
<trkpt lat="57.675306" lon="10.498375">
|
|
<ele>16.297799</ele>
|
|
<time>2026-07-17T14:52:01.000Z</time>
|
|
</trkpt>
|
|
<trkpt lat="57.675258" lon="10.498323">
|
|
<ele>16.296177</ele>
|
|
<time>2026-07-17T14:52:02.000Z</time>
|
|
</trkpt>
|
|
<trkpt lat="57.675211" lon="10.498275">
|
|
<ele>16.294611</ele>
|
|
<time>2026-07-17T14:52:03.000Z</time>
|
|
</trkpt>
|
|
<trkpt lat="57.675166" lon="10.498231">
|
|
<ele>16.293126</ele>
|
|
<time>2026-07-17T14:52:04.000Z</time>
|
|
</trkpt>
|
|
<trkpt lat="57.675119" lon="10.498189">
|
|
<ele>16.291603</ele>
|
|
<time>2026-07-17T14:52:05.000Z</time>
|
|
</trkpt>
|
|
<trkpt lat="57.675063" lon="10.498143">
|
|
<ele>16.289815</ele>
|
|
<time>2026-07-17T14:52:06.000Z</time>
|
|
</trkpt>
|
|
<trkpt lat="57.675012" lon="10.498105">
|
|
<ele>16.288210</ele>
|
|
<time>2026-07-17T14:52:07.000Z</time>
|
|
</trkpt>
|
|
<trkpt lat="57.674958" lon="10.498069">
|
|
<ele>16.286534</ele>
|
|
<time>2026-07-17T14:52:08.000Z</time>
|
|
</trkpt>
|
|
<trkpt lat="57.674908" lon="10.498039">
|
|
<ele>16.284998</ele>
|
|
<time>2026-07-17T14:52:09.000Z</time>
|
|
</trkpt>
|
|
<trkpt lat="57.674857" lon="10.498012">
|
|
<ele>16.283448</ele>
|
|
<time>2026-07-17T14:52:10.000Z</time>
|
|
</trkpt>
|
|
<trkpt lat="57.674802" lon="10.497988">
|
|
<ele>16.270841</ele>
|
|
<time>2026-07-17T14:52:11.000Z</time>
|
|
</trkpt>
|
|
<trkpt lat="57.674750" lon="10.497967">
|
|
<ele>16.258761</ele>
|
|
<time>2026-07-17T14:52:12.000Z</time>
|
|
</trkpt>
|
|
<trkpt lat="57.674699" lon="10.497948">
|
|
<ele>16.246954</ele>
|
|
<time>2026-07-17T14:52:13.000Z</time>
|
|
</trkpt>
|
|
<trkpt lat="57.674645" lon="10.497933">
|
|
<ele>16.234558</ele>
|
|
<time>2026-07-17T14:52:14.000Z</time>
|
|
</trkpt>
|
|
<trkpt lat="57.674591" lon="10.497919">
|
|
<ele>16.222180</ele>
|
|
<time>2026-07-17T14:52:15.000Z</time>
|
|
</trkpt>
|
|
<trkpt lat="57.674535" lon="10.497906">
|
|
<ele>16.209367</ele>
|
|
<time>2026-07-17T14:52:16.000Z</time>
|
|
</trkpt>
|
|
<trkpt lat="57.674482" lon="10.497894">
|
|
<ele>16.197245</ele>
|
|
<time>2026-07-17T14:52:17.000Z</time>
|
|
</trkpt>
|
|
<trkpt lat="57.674430" lon="10.497882">
|
|
<ele>16.185348</ele>
|
|
<time>2026-07-17T14:52:18.000Z</time>
|
|
</trkpt>
|
|
<trkpt lat="57.674374" lon="10.497870">
|
|
<ele>16.172550</ele>
|
|
<time>2026-07-17T14:52:19.000Z</time>
|
|
</trkpt>
|
|
<trkpt lat="57.674317" lon="10.497857">
|
|
<ele>16.159512</ele>
|
|
<time>2026-07-17T14:52:20.000Z</time>
|
|
</trkpt>
|
|
<trkpt lat="57.674259" lon="10.497847">
|
|
<ele>16.146287</ele>
|
|
<time>2026-07-17T14:52:21.000Z</time>
|
|
</trkpt>
|
|
<trkpt lat="57.674201" lon="10.497840">
|
|
<ele>16.133090</ele>
|
|
<time>2026-07-17T14:52:22.000Z</time>
|
|
</trkpt>
|
|
<trkpt lat="57.674145" lon="10.497840">
|
|
<ele>16.120375</ele>
|
|
<time>2026-07-17T14:52:23.000Z</time>
|
|
</trkpt>
|
|
<trkpt lat="57.674087" lon="10.497848">
|
|
<ele>16.107169</ele>
|
|
<time>2026-07-17T14:52:24.000Z</time>
|
|
</trkpt>
|
|
<trkpt lat="57.674032" lon="10.497859">
|
|
<ele>16.094610</ele>
|
|
<time>2026-07-17T14:52:25.000Z</time>
|
|
</trkpt>
|
|
<trkpt lat="57.673977" lon="10.497871">
|
|
<ele>16.082037</ele>
|
|
<time>2026-07-17T14:52:26.000Z</time>
|
|
</trkpt>
|
|
<trkpt lat="57.673925" lon="10.497883">
|
|
<ele>16.070141</ele>
|
|
<time>2026-07-17T14:52:27.000Z</time>
|
|
</trkpt>
|
|
<trkpt lat="57.673873" lon="10.497896">
|
|
<ele>16.058228</ele>
|
|
<time>2026-07-17T14:52:28.000Z</time>
|
|
</trkpt>
|
|
<trkpt lat="57.673819" lon="10.497905">
|
|
<ele>16.045919</ele>
|
|
<time>2026-07-17T14:52:29.000Z</time>
|
|
</trkpt>
|
|
<trkpt lat="57.673765" lon="10.497907">
|
|
<ele>16.033655</ele>
|
|
<time>2026-07-17T14:52:30.000Z</time>
|
|
</trkpt>
|
|
<trkpt lat="57.673711" lon="10.497899">
|
|
<ele>16.021356</ele>
|
|
<time>2026-07-17T14:52:31.000Z</time>
|
|
</trkpt>
|
|
<trkpt lat="57.673656" lon="10.497879">
|
|
<ele>16.008634</ele>
|
|
<time>2026-07-17T14:52:32.000Z</time>
|
|
</trkpt>
|
|
<trkpt lat="57.673601" lon="10.497848">
|
|
<ele>15.995590</ele>
|
|
<time>2026-07-17T14:52:33.000Z</time>
|
|
</trkpt>
|
|
<trkpt lat="57.673551" lon="10.497805">
|
|
<ele>15.983095</ele>
|
|
<time>2026-07-17T14:52:34.000Z</time>
|
|
</trkpt>
|
|
<trkpt lat="57.673505" lon="10.497753">
|
|
<ele>15.970890</ele>
|
|
<time>2026-07-17T14:52:35.000Z</time>
|
|
</trkpt>
|
|
<trkpt lat="57.673456" lon="10.497697">
|
|
<ele>15.957851</ele>
|
|
<time>2026-07-17T14:52:36.000Z</time>
|
|
</trkpt>
|
|
<trkpt lat="57.673413" lon="10.497647">
|
|
<ele>15.946354</ele>
|
|
<time>2026-07-17T14:52:37.000Z</time>
|
|
</trkpt>
|
|
<trkpt lat="57.673369" lon="10.497598">
|
|
<ele>15.934726</ele>
|
|
<time>2026-07-17T14:52:38.000Z</time>
|
|
</trkpt>
|
|
<trkpt lat="57.673326" lon="10.497544">
|
|
<ele>15.922965</ele>
|
|
<time>2026-07-17T14:52:39.000Z</time>
|
|
</trkpt>
|
|
<trkpt lat="57.673286" lon="10.497489">
|
|
<ele>15.911692</ele>
|
|
<time>2026-07-17T14:52:40.000Z</time>
|
|
</trkpt>
|
|
<trkpt lat="57.673249" lon="10.497433">
|
|
<ele>15.900884</ele>
|
|
<time>2026-07-17T14:52:41.000Z</time>
|
|
</trkpt>
|
|
<trkpt lat="57.673215" lon="10.497376">
|
|
<ele>15.890516</ele>
|
|
<time>2026-07-17T14:52:42.000Z</time>
|
|
</trkpt>
|
|
<trkpt lat="57.673180" lon="10.497316">
|
|
<ele>15.879735</ele>
|
|
<time>2026-07-17T14:52:43.000Z</time>
|
|
</trkpt>
|
|
<trkpt lat="57.673146" lon="10.497255">
|
|
<ele>15.880502</ele>
|
|
<time>2026-07-17T14:52:44.000Z</time>
|
|
</trkpt>
|
|
<trkpt lat="57.673112" lon="10.497192">
|
|
<ele>15.890460</ele>
|
|
<time>2026-07-17T14:52:45.000Z</time>
|
|
</trkpt>
|
|
<trkpt lat="57.673076" lon="10.497132">
|
|
<ele>15.900492</ele>
|
|
<time>2026-07-17T14:52:46.000Z</time>
|
|
</trkpt>
|
|
<trkpt lat="57.673041" lon="10.497070">
|
|
<ele>15.910522</ele>
|
|
<time>2026-07-17T14:52:47.000Z</time>
|
|
</trkpt>
|
|
<trkpt lat="57.673009" lon="10.497005">
|
|
<ele>15.920351</ele>
|
|
<time>2026-07-17T14:52:48.000Z</time>
|
|
</trkpt>
|
|
<trkpt lat="57.672974" lon="10.496939">
|
|
<ele>15.930692</ele>
|
|
<time>2026-07-17T14:52:49.000Z</time>
|
|
</trkpt>
|
|
<trkpt lat="57.672937" lon="10.496876">
|
|
<ele>15.941103</ele>
|
|
<time>2026-07-17T14:52:50.000Z</time>
|
|
</trkpt>
|
|
<trkpt lat="57.672893" lon="10.496803">
|
|
<ele>15.953340</ele>
|
|
<time>2026-07-17T14:52:51.000Z</time>
|
|
</trkpt>
|
|
<trkpt lat="57.672852" lon="10.496723">
|
|
<ele>15.965668</ele>
|
|
<time>2026-07-17T14:52:52.000Z</time>
|
|
</trkpt>
|
|
<trkpt lat="57.672816" lon="10.496646">
|
|
<ele>15.977046</ele>
|
|
<time>2026-07-17T14:52:53.000Z</time>
|
|
</trkpt>
|
|
<trkpt lat="57.672777" lon="10.496566">
|
|
<ele>15.989090</ele>
|
|
<time>2026-07-17T14:52:54.000Z</time>
|
|
</trkpt>
|
|
<trkpt lat="57.672736" lon="10.496486">
|
|
<ele>16.001417</ele>
|
|
<time>2026-07-17T14:52:55.000Z</time>
|
|
</trkpt>
|
|
<trkpt lat="57.672698" lon="10.496406">
|
|
<ele>16.013322</ele>
|
|
<time>2026-07-17T14:52:56.000Z</time>
|
|
</trkpt>
|
|
<trkpt lat="57.672661" lon="10.496328">
|
|
<ele>16.024921</ele>
|
|
<time>2026-07-17T14:52:57.000Z</time>
|
|
</trkpt>
|
|
<trkpt lat="57.672629" lon="10.496250">
|
|
<ele>16.035859</ele>
|
|
<time>2026-07-17T14:52:58.000Z</time>
|
|
</trkpt>
|
|
<trkpt lat="57.672605" lon="10.496174">
|
|
<ele>16.045678</ele>
|
|
<time>2026-07-17T14:52:59.000Z</time>
|
|
</trkpt>
|
|
<trkpt lat="57.672589" lon="10.496095">
|
|
<ele>16.055076</ele>
|
|
<time>2026-07-17T14:53:00.000Z</time>
|
|
</trkpt>
|
|
<trkpt lat="57.672576" lon="10.496016">
|
|
<ele>16.064272</ele>
|
|
<time>2026-07-17T14:53:01.000Z</time>
|
|
</trkpt>
|
|
<trkpt lat="57.672563" lon="10.495939">
|
|
<ele>16.073255</ele>
|
|
<time>2026-07-17T14:53:02.000Z</time>
|
|
</trkpt>
|
|
<trkpt lat="57.672546" lon="10.495862">
|
|
<ele>16.082523</ele>
|
|
<time>2026-07-17T14:53:03.000Z</time>
|
|
</trkpt>
|
|
<trkpt lat="57.672522" lon="10.495785">
|
|
<ele>16.092438</ele>
|
|
<time>2026-07-17T14:53:04.000Z</time>
|
|
</trkpt>
|
|
<trkpt lat="57.672489" lon="10.495705">
|
|
<ele>16.103679</ele>
|
|
<time>2026-07-17T14:53:05.000Z</time>
|
|
</trkpt>
|
|
<trkpt lat="57.672451" lon="10.495629">
|
|
<ele>16.115254</ele>
|
|
<time>2026-07-17T14:53:06.000Z</time>
|
|
</trkpt>
|
|
<trkpt lat="57.672416" lon="10.495554">
|
|
<ele>16.126329</ele>
|
|
<time>2026-07-17T14:53:07.000Z</time>
|
|
</trkpt>
|
|
<trkpt lat="57.672381" lon="10.495471">
|
|
<ele>16.138088</ele>
|
|
<time>2026-07-17T14:53:08.000Z</time>
|
|
</trkpt>
|
|
<trkpt lat="57.672346" lon="10.495394">
|
|
<ele>16.149331</ele>
|
|
<time>2026-07-17T14:53:09.000Z</time>
|
|
</trkpt>
|
|
<trkpt lat="57.672310" lon="10.495318">
|
|
<ele>16.160626</ele>
|
|
<time>2026-07-17T14:53:10.000Z</time>
|
|
</trkpt>
|
|
<trkpt lat="57.672267" lon="10.495231">
|
|
<ele>16.173806</ele>
|
|
<time>2026-07-17T14:53:11.000Z</time>
|
|
</trkpt>
|
|
<trkpt lat="57.672229" lon="10.495144">
|
|
<ele>16.186304</ele>
|
|
<time>2026-07-17T14:53:12.000Z</time>
|
|
</trkpt>
|
|
<trkpt lat="57.672191" lon="10.495057">
|
|
<ele>16.198801</ele>
|
|
<time>2026-07-17T14:53:13.000Z</time>
|
|
</trkpt>
|
|
<trkpt lat="57.672152" lon="10.494973">
|
|
<ele>16.211177</ele>
|
|
<time>2026-07-17T14:53:14.000Z</time>
|
|
</trkpt>
|
|
<trkpt lat="57.672114" lon="10.494891">
|
|
<ele>16.223249</ele>
|
|
<time>2026-07-17T14:53:15.000Z</time>
|
|
</trkpt>
|
|
<trkpt lat="57.672076" lon="10.494811">
|
|
<ele>16.235153</ele>
|
|
<time>2026-07-17T14:53:16.000Z</time>
|
|
</trkpt>
|
|
<trkpt lat="57.672038" lon="10.494735">
|
|
<ele>16.246729</ele>
|
|
<time>2026-07-17T14:53:17.000Z</time>
|
|
</trkpt>
|
|
<trkpt lat="57.671999" lon="10.494662">
|
|
<ele>16.261444</ele>
|
|
<time>2026-07-17T14:53:18.000Z</time>
|
|
</trkpt>
|
|
<trkpt lat="57.671961" lon="10.494588">
|
|
<ele>16.276963</ele>
|
|
<time>2026-07-17T14:53:19.000Z</time>
|
|
</trkpt>
|
|
<trkpt lat="57.671925" lon="10.494511">
|
|
<ele>16.292435</ele>
|
|
<time>2026-07-17T14:53:20.000Z</time>
|
|
</trkpt>
|
|
<trkpt lat="57.671888" lon="10.494429">
|
|
<ele>16.308664</ele>
|
|
<time>2026-07-17T14:53:21.000Z</time>
|
|
</trkpt>
|
|
<trkpt lat="57.671852" lon="10.494352">
|
|
<ele>16.324136</ele>
|
|
<time>2026-07-17T14:53:22.000Z</time>
|
|
</trkpt>
|
|
<trkpt lat="57.671814" lon="10.494276">
|
|
<ele>16.339875</ele>
|
|
<time>2026-07-17T14:53:23.000Z</time>
|
|
</trkpt>
|
|
<trkpt lat="57.671777" lon="10.494201">
|
|
<ele>16.355311</ele>
|
|
<time>2026-07-17T14:53:24.000Z</time>
|
|
</trkpt>
|
|
<trkpt lat="57.671741" lon="10.494128">
|
|
<ele>16.370332</ele>
|
|
<time>2026-07-17T14:53:25.000Z</time>
|
|
</trkpt>
|
|
<trkpt lat="57.671706" lon="10.494052">
|
|
<ele>16.385505</ele>
|
|
<time>2026-07-17T14:53:26.000Z</time>
|
|
</trkpt>
|
|
<trkpt lat="57.671677" lon="10.493976">
|
|
<ele>16.399628</ele>
|
|
<time>2026-07-17T14:53:27.000Z</time>
|
|
</trkpt>
|
|
<trkpt lat="57.671652" lon="10.493899">
|
|
<ele>16.413255</ele>
|
|
<time>2026-07-17T14:53:28.000Z</time>
|
|
</trkpt>
|
|
<trkpt lat="57.671631" lon="10.493817">
|
|
<ele>16.427008</ele>
|
|
<time>2026-07-17T14:53:29.000Z</time>
|
|
</trkpt>
|
|
<trkpt lat="57.671610" lon="10.493729">
|
|
<ele>16.441585</ele>
|
|
<time>2026-07-17T14:53:30.000Z</time>
|
|
</trkpt>
|
|
<trkpt lat="57.671589" lon="10.493638">
|
|
<ele>16.456578</ele>
|
|
<time>2026-07-17T14:53:31.000Z</time>
|
|
</trkpt>
|
|
<trkpt lat="57.671569" lon="10.493551">
|
|
<ele>16.470903</ele>
|
|
<time>2026-07-17T14:53:32.000Z</time>
|
|
</trkpt>
|
|
<trkpt lat="57.671543" lon="10.493462">
|
|
<ele>16.486244</ele>
|
|
<time>2026-07-17T14:53:33.000Z</time>
|
|
</trkpt>
|
|
<trkpt lat="57.671518" lon="10.493376">
|
|
<ele>16.501052</ele>
|
|
<time>2026-07-17T14:53:34.000Z</time>
|
|
</trkpt>
|
|
<trkpt lat="57.671494" lon="10.493288">
|
|
<ele>16.515995</ele>
|
|
<time>2026-07-17T14:53:35.000Z</time>
|
|
</trkpt>
|
|
<trkpt lat="57.671469" lon="10.493201">
|
|
<ele>16.530935</ele>
|
|
<time>2026-07-17T14:53:36.000Z</time>
|
|
</trkpt>
|
|
<trkpt lat="57.671444" lon="10.493118">
|
|
<ele>16.545345</ele>
|
|
<time>2026-07-17T14:53:37.000Z</time>
|
|
</trkpt>
|
|
<trkpt lat="57.671417" lon="10.493032">
|
|
<ele>16.560431</ele>
|
|
<time>2026-07-17T14:53:38.000Z</time>
|
|
</trkpt>
|
|
<trkpt lat="57.671391" lon="10.492948">
|
|
<ele>16.575113</ele>
|
|
<time>2026-07-17T14:53:39.000Z</time>
|
|
</trkpt>
|
|
<trkpt lat="57.671363" lon="10.492863">
|
|
<ele>16.590215</ele>
|
|
<time>2026-07-17T14:53:40.000Z</time>
|
|
</trkpt>
|
|
<trkpt lat="57.671332" lon="10.492776">
|
|
<ele>16.606030</ele>
|
|
<time>2026-07-17T14:53:41.000Z</time>
|
|
</trkpt>
|
|
<trkpt lat="57.671304" lon="10.492691">
|
|
<ele>16.621131</ele>
|
|
<time>2026-07-17T14:53:42.000Z</time>
|
|
</trkpt>
|
|
<trkpt lat="57.671275" lon="10.492601">
|
|
<ele>16.637027</ele>
|
|
<time>2026-07-17T14:53:43.000Z</time>
|
|
</trkpt>
|
|
<trkpt lat="57.671244" lon="10.492512">
|
|
<ele>16.653094</ele>
|
|
<time>2026-07-17T14:53:44.000Z</time>
|
|
</trkpt>
|
|
<trkpt lat="57.671215" lon="10.492425">
|
|
<ele>16.668602</ele>
|
|
<time>2026-07-17T14:53:45.000Z</time>
|
|
</trkpt>
|
|
<trkpt lat="57.671188" lon="10.492336">
|
|
<ele>16.684081</ele>
|
|
<time>2026-07-17T14:53:46.000Z</time>
|
|
</trkpt>
|
|
<trkpt lat="57.671164" lon="10.492243">
|
|
<ele>16.699702</ele>
|
|
<time>2026-07-17T14:53:47.000Z</time>
|
|
</trkpt>
|
|
<trkpt lat="57.671139" lon="10.492146">
|
|
<ele>16.715990</ele>
|
|
<time>2026-07-17T14:53:48.000Z</time>
|
|
</trkpt>
|
|
<trkpt lat="57.671112" lon="10.492048">
|
|
<ele>16.732667</ele>
|
|
<time>2026-07-17T14:53:49.000Z</time>
|
|
</trkpt>
|
|
<trkpt lat="57.671086" lon="10.491953">
|
|
<ele>16.748811</ele>
|
|
<time>2026-07-17T14:53:50.000Z</time>
|
|
</trkpt>
|
|
<trkpt lat="57.671063" lon="10.491861">
|
|
<ele>16.768157</ele>
|
|
<time>2026-07-17T14:53:51.000Z</time>
|
|
</trkpt>
|
|
<trkpt lat="57.671044" lon="10.491764">
|
|
<ele>16.793870</ele>
|
|
<time>2026-07-17T14:53:52.000Z</time>
|
|
</trkpt>
|
|
<trkpt lat="57.671024" lon="10.491652">
|
|
<ele>16.823261</ele>
|
|
<time>2026-07-17T14:53:53.000Z</time>
|
|
</trkpt>
|
|
<trkpt lat="57.671006" lon="10.491549">
|
|
<ele>16.850233</ele>
|
|
<time>2026-07-17T14:53:54.000Z</time>
|
|
</trkpt>
|
|
<trkpt lat="57.670990" lon="10.491452">
|
|
<ele>16.875500</ele>
|
|
<time>2026-07-17T14:53:55.000Z</time>
|
|
</trkpt>
|
|
<trkpt lat="57.670971" lon="10.491354">
|
|
<ele>16.901447</ele>
|
|
<time>2026-07-17T14:53:56.000Z</time>
|
|
</trkpt>
|
|
<trkpt lat="57.670950" lon="10.491248">
|
|
<ele>16.929584</ele>
|
|
<time>2026-07-17T14:53:57.000Z</time>
|
|
</trkpt>
|
|
<trkpt lat="57.670928" lon="10.491143">
|
|
<ele>16.957654</ele>
|
|
<time>2026-07-17T14:53:58.000Z</time>
|
|
</trkpt>
|
|
<trkpt lat="57.670909" lon="10.491040">
|
|
<ele>16.984774</ele>
|
|
<time>2026-07-17T14:53:59.000Z</time>
|
|
</trkpt>
|
|
<trkpt lat="57.670889" lon="10.490941">
|
|
<ele>17.011116</ele>
|
|
<time>2026-07-17T14:54:00.000Z</time>
|
|
</trkpt>
|
|
<trkpt lat="57.670868" lon="10.490845">
|
|
<ele>17.036934</ele>
|
|
<time>2026-07-17T14:54:01.000Z</time>
|
|
</trkpt>
|
|
<trkpt lat="57.670847" lon="10.490749">
|
|
<ele>17.062751</ele>
|
|
<time>2026-07-17T14:54:02.000Z</time>
|
|
</trkpt>
|
|
<trkpt lat="57.670826" lon="10.490648">
|
|
<ele>17.089725</ele>
|
|
<time>2026-07-17T14:54:03.000Z</time>
|
|
</trkpt>
|
|
<trkpt lat="57.670803" lon="10.490548">
|
|
<ele>17.116821</ele>
|
|
<time>2026-07-17T14:54:04.000Z</time>
|
|
</trkpt>
|
|
<trkpt lat="57.670776" lon="10.490449">
|
|
<ele>17.144482</ele>
|
|
<time>2026-07-17T14:54:05.000Z</time>
|
|
</trkpt>
|
|
<trkpt lat="57.670748" lon="10.490353">
|
|
<ele>17.171701</ele>
|
|
<time>2026-07-17T14:54:06.000Z</time>
|
|
</trkpt>
|
|
<trkpt lat="57.670718" lon="10.490256">
|
|
<ele>17.199593</ele>
|
|
<time>2026-07-17T14:54:07.000Z</time>
|
|
</trkpt>
|
|
<trkpt lat="57.670689" lon="10.490157">
|
|
<ele>17.227690</ele>
|
|
<time>2026-07-17T14:54:08.000Z</time>
|
|
</trkpt>
|
|
<trkpt lat="57.670660" lon="10.490065">
|
|
<ele>17.254272</ele>
|
|
<time>2026-07-17T14:54:09.000Z</time>
|
|
</trkpt>
|
|
<trkpt lat="57.670630" lon="10.489985">
|
|
<ele>17.278593</ele>
|
|
<time>2026-07-17T14:54:10.000Z</time>
|
|
</trkpt>
|
|
<trkpt lat="57.670604" lon="10.489911">
|
|
<ele>17.300632</ele>
|
|
<time>2026-07-17T14:54:11.000Z</time>
|
|
</trkpt>
|
|
<trkpt lat="57.670557" lon="10.489803">
|
|
<ele>17.335291</ele>
|
|
<time>2026-07-17T14:54:12.000Z</time>
|
|
</trkpt>
|
|
<trkpt lat="57.670520" lon="10.489717">
|
|
<ele>17.362765</ele>
|
|
<time>2026-07-17T14:54:13.000Z</time>
|
|
</trkpt>
|
|
<trkpt lat="57.670482" lon="10.489637">
|
|
<ele>17.389399</ele>
|
|
<time>2026-07-17T14:54:14.000Z</time>
|
|
</trkpt>
|
|
<trkpt lat="57.670443" lon="10.489562">
|
|
<ele>17.415438</ele>
|
|
<time>2026-07-17T14:54:15.000Z</time>
|
|
</trkpt>
|
|
<trkpt lat="57.670403" lon="10.489484">
|
|
<ele>17.442338</ele>
|
|
<time>2026-07-17T14:54:16.000Z</time>
|
|
</trkpt>
|
|
<trkpt lat="57.670364" lon="10.489404">
|
|
<ele>17.469283</ele>
|
|
<time>2026-07-17T14:54:17.000Z</time>
|
|
</trkpt>
|
|
<trkpt lat="57.670326" lon="10.489326">
|
|
<ele>17.495547</ele>
|
|
<time>2026-07-17T14:54:18.000Z</time>
|
|
</trkpt>
|
|
<trkpt lat="57.670286" lon="10.489246">
|
|
<ele>17.522808</ele>
|
|
<time>2026-07-17T14:54:19.000Z</time>
|
|
</trkpt>
|
|
<trkpt lat="57.670244" lon="10.489167">
|
|
<ele>17.550536</ele>
|
|
<time>2026-07-17T14:54:20.000Z</time>
|
|
</trkpt>
|
|
<trkpt lat="57.670206" lon="10.489089">
|
|
<ele>17.576800</ele>
|
|
<time>2026-07-17T14:54:21.000Z</time>
|
|
</trkpt>
|
|
<trkpt lat="57.670169" lon="10.489010">
|
|
<ele>17.592879</ele>
|
|
<time>2026-07-17T14:54:22.000Z</time>
|
|
</trkpt>
|
|
<trkpt lat="57.670129" lon="10.488928">
|
|
<ele>17.584702</ele>
|
|
<time>2026-07-17T14:54:23.000Z</time>
|
|
</trkpt>
|
|
<trkpt lat="57.670093" lon="10.488849">
|
|
<ele>17.577055</ele>
|
|
<time>2026-07-17T14:54:24.000Z</time>
|
|
</trkpt>
|
|
<trkpt lat="57.670056" lon="10.488769">
|
|
<ele>17.569262</ele>
|
|
<time>2026-07-17T14:54:25.000Z</time>
|
|
</trkpt>
|
|
<trkpt lat="57.670020" lon="10.488688">
|
|
<ele>17.561502</ele>
|
|
<time>2026-07-17T14:54:26.000Z</time>
|
|
</trkpt>
|
|
<trkpt lat="57.669984" lon="10.488610">
|
|
<ele>17.553911</ele>
|
|
<time>2026-07-17T14:54:27.000Z</time>
|
|
</trkpt>
|
|
<trkpt lat="57.669951" lon="10.488530">
|
|
<ele>17.546467</ele>
|
|
<time>2026-07-17T14:54:28.000Z</time>
|
|
</trkpt>
|
|
<trkpt lat="57.669918" lon="10.488449">
|
|
<ele>17.538965</ele>
|
|
<time>2026-07-17T14:54:29.000Z</time>
|
|
</trkpt>
|
|
<trkpt lat="57.669881" lon="10.488365">
|
|
<ele>17.530947</ele>
|
|
<time>2026-07-17T14:54:30.000Z</time>
|
|
</trkpt>
|
|
<trkpt lat="57.669847" lon="10.488280">
|
|
<ele>17.523126</ele>
|
|
<time>2026-07-17T14:54:31.000Z</time>
|
|
</trkpt>
|
|
<trkpt lat="57.669812" lon="10.488194">
|
|
<ele>17.515164</ele>
|
|
<time>2026-07-17T14:54:32.000Z</time>
|
|
</trkpt>
|
|
<trkpt lat="57.669772" lon="10.488103">
|
|
<ele>17.506485</ele>
|
|
<time>2026-07-17T14:54:33.000Z</time>
|
|
</trkpt>
|
|
<trkpt lat="57.669734" lon="10.488015">
|
|
<ele>17.498151</ele>
|
|
<time>2026-07-17T14:54:34.000Z</time>
|
|
</trkpt>
|
|
<trkpt lat="57.669696" lon="10.487925">
|
|
<ele>17.489703</ele>
|
|
<time>2026-07-17T14:54:35.000Z</time>
|
|
</trkpt>
|
|
<trkpt lat="57.669656" lon="10.487834">
|
|
<ele>17.481024</ele>
|
|
<time>2026-07-17T14:54:36.000Z</time>
|
|
</trkpt>
|
|
<trkpt lat="57.669614" lon="10.487745">
|
|
<ele>17.472279</ele>
|
|
<time>2026-07-17T14:54:37.000Z</time>
|
|
</trkpt>
|
|
<trkpt lat="57.669574" lon="10.487657">
|
|
<ele>17.463769</ele>
|
|
<time>2026-07-17T14:54:38.000Z</time>
|
|
</trkpt>
|
|
<trkpt lat="57.669534" lon="10.487569">
|
|
<ele>17.455260</ele>
|
|
<time>2026-07-17T14:54:39.000Z</time>
|
|
</trkpt>
|
|
<trkpt lat="57.669494" lon="10.487479">
|
|
<ele>17.446638</ele>
|
|
<time>2026-07-17T14:54:40.000Z</time>
|
|
</trkpt>
|
|
<trkpt lat="57.669458" lon="10.487389">
|
|
<ele>17.438357</ele>
|
|
<time>2026-07-17T14:54:41.000Z</time>
|
|
</trkpt>
|
|
<trkpt lat="57.669422" lon="10.487295">
|
|
<ele>17.429839</ele>
|
|
<time>2026-07-17T14:54:42.000Z</time>
|
|
</trkpt>
|
|
<trkpt lat="57.669385" lon="10.487185">
|
|
<ele>17.420264</ele>
|
|
<time>2026-07-17T14:54:43.000Z</time>
|
|
</trkpt>
|
|
<trkpt lat="57.669351" lon="10.487086">
|
|
<ele>17.411596</ele>
|
|
<time>2026-07-17T14:54:44.000Z</time>
|
|
</trkpt>
|
|
<trkpt lat="57.669317" lon="10.486987">
|
|
<ele>17.402927</ele>
|
|
<time>2026-07-17T14:54:45.000Z</time>
|
|
</trkpt>
|
|
<trkpt lat="57.669282" lon="10.486884">
|
|
<ele>17.393936</ele>
|
|
<time>2026-07-17T14:54:46.000Z</time>
|
|
</trkpt>
|
|
<trkpt lat="57.669247" lon="10.486784">
|
|
<ele>17.385130</ele>
|
|
<time>2026-07-17T14:54:47.000Z</time>
|
|
</trkpt>
|
|
<trkpt lat="57.669211" lon="10.486687">
|
|
<ele>17.376431</ele>
|
|
<time>2026-07-17T14:54:48.000Z</time>
|
|
</trkpt>
|
|
<trkpt lat="57.669175" lon="10.486592">
|
|
<ele>17.367852</ele>
|
|
<time>2026-07-17T14:54:49.000Z</time>
|
|
</trkpt>
|
|
<trkpt lat="57.669138" lon="10.486497">
|
|
<ele>17.359193</ele>
|
|
<time>2026-07-17T14:54:50.000Z</time>
|
|
</trkpt>
|
|
<trkpt lat="57.669097" lon="10.486403">
|
|
<ele>17.350256</ele>
|
|
<time>2026-07-17T14:54:51.000Z</time>
|
|
</trkpt>
|
|
<trkpt lat="57.669059" lon="10.486311">
|
|
<ele>17.355950</ele>
|
|
<time>2026-07-17T14:54:52.000Z</time>
|
|
</trkpt>
|
|
<trkpt lat="57.669019" lon="10.486223">
|
|
<ele>17.368770</ele>
|
|
<time>2026-07-17T14:54:53.000Z</time>
|
|
</trkpt>
|
|
<trkpt lat="57.668979" lon="10.486140">
|
|
<ele>17.381171</ele>
|
|
<time>2026-07-17T14:54:54.000Z</time>
|
|
</trkpt>
|
|
<trkpt lat="57.668940" lon="10.486059">
|
|
<ele>17.393269</ele>
|
|
<time>2026-07-17T14:54:55.000Z</time>
|
|
</trkpt>
|
|
<trkpt lat="57.668898" lon="10.485974">
|
|
<ele>17.406115</ele>
|
|
<time>2026-07-17T14:54:56.000Z</time>
|
|
</trkpt>
|
|
<trkpt lat="57.668855" lon="10.485884">
|
|
<ele>17.419511</ele>
|
|
<time>2026-07-17T14:54:57.000Z</time>
|
|
</trkpt>
|
|
<trkpt lat="57.668815" lon="10.485797">
|
|
<ele>17.432246</ele>
|
|
<time>2026-07-17T14:54:58.000Z</time>
|
|
</trkpt>
|
|
<trkpt lat="57.668777" lon="10.485712">
|
|
<ele>17.444544</ele>
|
|
<time>2026-07-17T14:54:59.000Z</time>
|
|
</trkpt>
|
|
<trkpt lat="57.668739" lon="10.485628">
|
|
<ele>17.456756</ele>
|
|
<time>2026-07-17T14:55:00.000Z</time>
|
|
</trkpt>
|
|
<trkpt lat="57.668702" lon="10.485545">
|
|
<ele>17.468750</ele>
|
|
<time>2026-07-17T14:55:01.000Z</time>
|
|
</trkpt>
|
|
<trkpt lat="57.668664" lon="10.485458">
|
|
<ele>17.481219</ele>
|
|
<time>2026-07-17T14:55:02.000Z</time>
|
|
</trkpt>
|
|
<trkpt lat="57.668623" lon="10.485367">
|
|
<ele>17.494427</ele>
|
|
<time>2026-07-17T14:55:03.000Z</time>
|
|
</trkpt>
|
|
<trkpt lat="57.668586" lon="10.485279">
|
|
<ele>17.506852</ele>
|
|
<time>2026-07-17T14:55:04.000Z</time>
|
|
</trkpt>
|
|
<trkpt lat="57.668553" lon="10.485187">
|
|
<ele>17.519149</ele>
|
|
<time>2026-07-17T14:55:05.000Z</time>
|
|
</trkpt>
|
|
<trkpt lat="57.668521" lon="10.485091">
|
|
<ele>17.531706</ele>
|
|
<time>2026-07-17T14:55:06.000Z</time>
|
|
</trkpt>
|
|
<trkpt lat="57.668492" lon="10.484992">
|
|
<ele>17.544235</ele>
|
|
<time>2026-07-17T14:55:07.000Z</time>
|
|
</trkpt>
|
|
<trkpt lat="57.668465" lon="10.484891">
|
|
<ele>17.556769</ele>
|
|
<time>2026-07-17T14:55:08.000Z</time>
|
|
</trkpt>
|
|
<trkpt lat="57.668440" lon="10.484790">
|
|
<ele>17.569123</ele>
|
|
<time>2026-07-17T14:55:09.000Z</time>
|
|
</trkpt>
|
|
<trkpt lat="57.668416" lon="10.484688">
|
|
<ele>17.581493</ele>
|
|
<time>2026-07-17T14:55:10.000Z</time>
|
|
</trkpt>
|
|
<trkpt lat="57.668391" lon="10.484589">
|
|
<ele>17.593645</ele>
|
|
<time>2026-07-17T14:55:11.000Z</time>
|
|
</trkpt>
|
|
<trkpt lat="57.668366" lon="10.484492">
|
|
<ele>17.605598</ele>
|
|
<time>2026-07-17T14:55:12.000Z</time>
|
|
</trkpt>
|
|
<trkpt lat="57.668339" lon="10.484389">
|
|
<ele>17.618331</ele>
|
|
<time>2026-07-17T14:55:13.000Z</time>
|
|
</trkpt>
|
|
<trkpt lat="57.668312" lon="10.484285">
|
|
<ele>17.631163</ele>
|
|
<time>2026-07-17T14:55:14.000Z</time>
|
|
</trkpt>
|
|
<trkpt lat="57.668284" lon="10.484182">
|
|
<ele>17.643989</ele>
|
|
<time>2026-07-17T14:55:15.000Z</time>
|
|
</trkpt>
|
|
<trkpt lat="57.668255" lon="10.484078">
|
|
<ele>17.657008</ele>
|
|
<time>2026-07-17T14:55:16.000Z</time>
|
|
</trkpt>
|
|
<trkpt lat="57.668229" lon="10.483973">
|
|
<ele>17.669852</ele>
|
|
<time>2026-07-17T14:55:17.000Z</time>
|
|
</trkpt>
|
|
<trkpt lat="57.668202" lon="10.483869">
|
|
<ele>17.682685</ele>
|
|
<time>2026-07-17T14:55:18.000Z</time>
|
|
</trkpt>
|
|
<trkpt lat="57.668173" lon="10.483766">
|
|
<ele>17.695606</ele>
|
|
<time>2026-07-17T14:55:19.000Z</time>
|
|
</trkpt>
|
|
<trkpt lat="57.668143" lon="10.483667">
|
|
<ele>17.708236</ele>
|
|
<time>2026-07-17T14:55:20.000Z</time>
|
|
</trkpt>
|
|
<trkpt lat="57.668115" lon="10.483566">
|
|
<ele>17.720983</ele>
|
|
<time>2026-07-17T14:55:21.000Z</time>
|
|
</trkpt>
|
|
<trkpt lat="57.668089" lon="10.483460">
|
|
<ele>17.742938</ele>
|
|
<time>2026-07-17T14:55:22.000Z</time>
|
|
</trkpt>
|
|
<trkpt lat="57.668065" lon="10.483351">
|
|
<ele>17.765131</ele>
|
|
<time>2026-07-17T14:55:23.000Z</time>
|
|
</trkpt>
|
|
<trkpt lat="57.668038" lon="10.483244">
|
|
<ele>17.787405</ele>
|
|
<time>2026-07-17T14:55:24.000Z</time>
|
|
</trkpt>
|
|
<trkpt lat="57.668009" lon="10.483141">
|
|
<ele>17.809320</ele>
|
|
<time>2026-07-17T14:55:25.000Z</time>
|
|
</trkpt>
|
|
<trkpt lat="57.667981" lon="10.483038">
|
|
<ele>17.831073</ele>
|
|
<time>2026-07-17T14:55:26.000Z</time>
|
|
</trkpt>
|
|
<trkpt lat="57.667955" lon="10.482932">
|
|
<ele>17.853028</ele>
|
|
<time>2026-07-17T14:55:27.000Z</time>
|
|
</trkpt>
|
|
<trkpt lat="57.667931" lon="10.482826">
|
|
<ele>17.874699</ele>
|
|
<time>2026-07-17T14:55:28.000Z</time>
|
|
</trkpt>
|
|
<trkpt lat="57.667907" lon="10.482722">
|
|
<ele>17.896024</ele>
|
|
<time>2026-07-17T14:55:29.000Z</time>
|
|
</trkpt>
|
|
<trkpt lat="57.667886" lon="10.482618">
|
|
<ele>17.916953</ele>
|
|
<time>2026-07-17T14:55:30.000Z</time>
|
|
</trkpt>
|
|
<trkpt lat="57.667862" lon="10.482514">
|
|
<ele>17.938278</ele>
|
|
<time>2026-07-17T14:55:31.000Z</time>
|
|
</trkpt>
|
|
<trkpt lat="57.667837" lon="10.482409">
|
|
<ele>17.959916</ele>
|
|
<time>2026-07-17T14:55:32.000Z</time>
|
|
</trkpt>
|
|
<trkpt lat="57.667816" lon="10.482306">
|
|
<ele>17.980670</ele>
|
|
<time>2026-07-17T14:55:33.000Z</time>
|
|
</trkpt>
|
|
<trkpt lat="57.667797" lon="10.482205">
|
|
<ele>18.000827</ele>
|
|
<time>2026-07-17T14:55:34.000Z</time>
|
|
</trkpt>
|
|
<trkpt lat="57.667776" lon="10.482101">
|
|
<ele>18.021756</ele>
|
|
<time>2026-07-17T14:55:35.000Z</time>
|
|
</trkpt>
|
|
<trkpt lat="57.667755" lon="10.481993">
|
|
<ele>18.043391</ele>
|
|
<time>2026-07-17T14:55:36.000Z</time>
|
|
</trkpt>
|
|
<trkpt lat="57.667734" lon="10.481882">
|
|
<ele>18.065558</ele>
|
|
<time>2026-07-17T14:55:37.000Z</time>
|
|
</trkpt>
|
|
<trkpt lat="57.667713" lon="10.481769">
|
|
<ele>18.088080</ele>
|
|
<time>2026-07-17T14:55:38.000Z</time>
|
|
</trkpt>
|
|
<trkpt lat="57.667692" lon="10.481657">
|
|
<ele>18.110425</ele>
|
|
<time>2026-07-17T14:55:39.000Z</time>
|
|
</trkpt>
|
|
<trkpt lat="57.667671" lon="10.481547">
|
|
<ele>18.132414</ele>
|
|
<time>2026-07-17T14:55:40.000Z</time>
|
|
</trkpt>
|
|
<trkpt lat="57.667650" lon="10.481442">
|
|
<ele>18.153520</ele>
|
|
<time>2026-07-17T14:55:41.000Z</time>
|
|
</trkpt>
|
|
<trkpt lat="57.667629" lon="10.481333">
|
|
<ele>18.175332</ele>
|
|
<time>2026-07-17T14:55:42.000Z</time>
|
|
</trkpt>
|
|
<trkpt lat="57.667610" lon="10.481227">
|
|
<ele>18.196380</ele>
|
|
<time>2026-07-17T14:55:43.000Z</time>
|
|
</trkpt>
|
|
<trkpt lat="57.667591" lon="10.481117">
|
|
<ele>18.218143</ele>
|
|
<time>2026-07-17T14:55:44.000Z</time>
|
|
</trkpt>
|
|
<trkpt lat="57.667570" lon="10.481001">
|
|
<ele>18.241199</ele>
|
|
<time>2026-07-17T14:55:45.000Z</time>
|
|
</trkpt>
|
|
<trkpt lat="57.667549" lon="10.480889">
|
|
<ele>18.263544</ele>
|
|
<time>2026-07-17T14:55:46.000Z</time>
|
|
</trkpt>
|
|
<trkpt lat="57.667530" lon="10.480778">
|
|
<ele>18.285486</ele>
|
|
<time>2026-07-17T14:55:47.000Z</time>
|
|
</trkpt>
|
|
<trkpt lat="57.667511" lon="10.480670">
|
|
<ele>18.306891</ele>
|
|
<time>2026-07-17T14:55:48.000Z</time>
|
|
</trkpt>
|
|
<trkpt lat="57.667490" lon="10.480565">
|
|
<ele>18.327997</ele>
|
|
<time>2026-07-17T14:55:49.000Z</time>
|
|
</trkpt>
|
|
<trkpt lat="57.667470" lon="10.480468">
|
|
<ele>18.347569</ele>
|
|
<time>2026-07-17T14:55:50.000Z</time>
|
|
</trkpt>
|
|
<trkpt lat="57.667453" lon="10.480374">
|
|
<ele>18.366028</ele>
|
|
<time>2026-07-17T14:55:51.000Z</time>
|
|
</trkpt>
|
|
<trkpt lat="57.667434" lon="10.480275">
|
|
<ele>18.385474</ele>
|
|
<time>2026-07-17T14:55:52.000Z</time>
|
|
</trkpt>
|
|
<trkpt lat="57.667413" lon="10.480173">
|
|
<ele>18.405681</ele>
|
|
<time>2026-07-17T14:55:53.000Z</time>
|
|
</trkpt>
|
|
<trkpt lat="57.667392" lon="10.480067">
|
|
<ele>18.426580</ele>
|
|
<time>2026-07-17T14:55:54.000Z</time>
|
|
</trkpt>
|
|
<trkpt lat="57.667375" lon="10.479964">
|
|
<ele>18.446509</ele>
|
|
<time>2026-07-17T14:55:55.000Z</time>
|
|
</trkpt>
|
|
<trkpt lat="57.667360" lon="10.479864">
|
|
<ele>18.465710</ele>
|
|
<time>2026-07-17T14:55:56.000Z</time>
|
|
</trkpt>
|
|
<trkpt lat="57.667344" lon="10.479763">
|
|
<ele>18.485185</ele>
|
|
<time>2026-07-17T14:55:57.000Z</time>
|
|
</trkpt>
|
|
<trkpt lat="57.667328" lon="10.479660">
|
|
<ele>18.505015</ele>
|
|
<time>2026-07-17T14:55:58.000Z</time>
|
|
</trkpt>
|
|
<trkpt lat="57.667307" lon="10.479562">
|
|
<ele>18.524534</ele>
|
|
<time>2026-07-17T14:55:59.000Z</time>
|
|
</trkpt>
|
|
<trkpt lat="57.667284" lon="10.479468">
|
|
<ele>18.543645</ele>
|
|
<time>2026-07-17T14:56:00.000Z</time>
|
|
</trkpt>
|
|
<trkpt lat="57.667263" lon="10.479371">
|
|
<ele>18.562992</ele>
|
|
<time>2026-07-17T14:56:01.000Z</time>
|
|
</trkpt>
|
|
<trkpt lat="57.667247" lon="10.479270">
|
|
<ele>18.582467</ele>
|
|
<time>2026-07-17T14:56:02.000Z</time>
|
|
</trkpt>
|
|
<trkpt lat="57.667234" lon="10.479169">
|
|
<ele>18.601674</ele>
|
|
<time>2026-07-17T14:56:03.000Z</time>
|
|
</trkpt>
|
|
<trkpt lat="57.667217" lon="10.479062">
|
|
<ele>18.622311</ele>
|
|
<time>2026-07-17T14:56:04.000Z</time>
|
|
</trkpt>
|
|
<trkpt lat="57.667201" lon="10.478957">
|
|
<ele>18.642496</ele>
|
|
<time>2026-07-17T14:56:05.000Z</time>
|
|
</trkpt>
|
|
<trkpt lat="57.667190" lon="10.478853">
|
|
<ele>18.662096</ele>
|
|
<time>2026-07-17T14:56:06.000Z</time>
|
|
</trkpt>
|
|
<trkpt lat="57.667178" lon="10.478748">
|
|
<ele>18.681947</ele>
|
|
<time>2026-07-17T14:56:07.000Z</time>
|
|
</trkpt>
|
|
<trkpt lat="57.667165" lon="10.478641">
|
|
<ele>18.702234</ele>
|
|
<time>2026-07-17T14:56:08.000Z</time>
|
|
</trkpt>
|
|
<trkpt lat="57.667147" lon="10.478533">
|
|
<ele>18.723148</ele>
|
|
<time>2026-07-17T14:56:09.000Z</time>
|
|
</trkpt>
|
|
<trkpt lat="57.667127" lon="10.478426">
|
|
<ele>18.744104</ele>
|
|
<time>2026-07-17T14:56:10.000Z</time>
|
|
</trkpt>
|
|
<trkpt lat="57.667110" lon="10.478316">
|
|
<ele>18.765273</ele>
|
|
<time>2026-07-17T14:56:11.000Z</time>
|
|
</trkpt>
|
|
<trkpt lat="57.667091" lon="10.478202">
|
|
<ele>18.787350</ele>
|
|
<time>2026-07-17T14:56:12.000Z</time>
|
|
</trkpt>
|
|
<trkpt lat="57.667075" lon="10.478094">
|
|
<ele>18.808069</ele>
|
|
<time>2026-07-17T14:56:13.000Z</time>
|
|
</trkpt>
|
|
<trkpt lat="57.667060" lon="10.477989">
|
|
<ele>18.828162</ele>
|
|
<time>2026-07-17T14:56:14.000Z</time>
|
|
</trkpt>
|
|
<trkpt lat="57.667040" lon="10.477876">
|
|
<ele>18.850168</ele>
|
|
<time>2026-07-17T14:56:15.000Z</time>
|
|
</trkpt>
|
|
<trkpt lat="57.667018" lon="10.477757">
|
|
<ele>18.873447</ele>
|
|
<time>2026-07-17T14:56:16.000Z</time>
|
|
</trkpt>
|
|
<trkpt lat="57.666999" lon="10.477644">
|
|
<ele>18.895347</ele>
|
|
<time>2026-07-17T14:56:17.000Z</time>
|
|
</trkpt>
|
|
<trkpt lat="57.666979" lon="10.477530">
|
|
<ele>18.917529</ele>
|
|
<time>2026-07-17T14:56:18.000Z</time>
|
|
</trkpt>
|
|
<trkpt lat="57.666954" lon="10.477417">
|
|
<ele>18.940138</ele>
|
|
<time>2026-07-17T14:56:19.000Z</time>
|
|
</trkpt>
|
|
<trkpt lat="57.666928" lon="10.477303">
|
|
<ele>18.963051</ele>
|
|
<time>2026-07-17T14:56:20.000Z</time>
|
|
</trkpt>
|
|
<trkpt lat="57.666899" lon="10.477186">
|
|
<ele>18.993141</ele>
|
|
<time>2026-07-17T14:56:21.000Z</time>
|
|
</trkpt>
|
|
<trkpt lat="57.666867" lon="10.477065">
|
|
<ele>19.031919</ele>
|
|
<time>2026-07-17T14:56:22.000Z</time>
|
|
</trkpt>
|
|
<trkpt lat="57.666836" lon="10.476944">
|
|
<ele>19.070463</ele>
|
|
<time>2026-07-17T14:56:23.000Z</time>
|
|
</trkpt>
|
|
<trkpt lat="57.666811" lon="10.476820">
|
|
<ele>19.108533</ele>
|
|
<time>2026-07-17T14:56:24.000Z</time>
|
|
</trkpt>
|
|
<trkpt lat="57.666788" lon="10.476698">
|
|
<ele>19.145695</ele>
|
|
<time>2026-07-17T14:56:25.000Z</time>
|
|
</trkpt>
|
|
<trkpt lat="57.666765" lon="10.476582">
|
|
<ele>19.181236</ele>
|
|
<time>2026-07-17T14:56:26.000Z</time>
|
|
</trkpt>
|
|
<trkpt lat="57.666742" lon="10.476464">
|
|
<ele>19.217316</ele>
|
|
<time>2026-07-17T14:56:27.000Z</time>
|
|
</trkpt>
|
|
<trkpt lat="57.666719" lon="10.476348">
|
|
<ele>19.252858</ele>
|
|
<time>2026-07-17T14:56:28.000Z</time>
|
|
</trkpt>
|
|
<trkpt lat="57.666697" lon="10.476236">
|
|
<ele>19.287135</ele>
|
|
<time>2026-07-17T14:56:29.000Z</time>
|
|
</trkpt>
|
|
<trkpt lat="57.666674" lon="10.476119">
|
|
<ele>19.322945</ele>
|
|
<time>2026-07-17T14:56:30.000Z</time>
|
|
</trkpt>
|
|
<trkpt lat="57.666652" lon="10.475995">
|
|
<ele>19.360477</ele>
|
|
<time>2026-07-17T14:56:31.000Z</time>
|
|
</trkpt>
|
|
<trkpt lat="57.666632" lon="10.475875">
|
|
<ele>19.396587</ele>
|
|
<time>2026-07-17T14:56:32.000Z</time>
|
|
</trkpt>
|
|
<trkpt lat="57.666609" lon="10.475756">
|
|
<ele>19.432937</ele>
|
|
<time>2026-07-17T14:56:33.000Z</time>
|
|
</trkpt>
|
|
<trkpt lat="57.666587" lon="10.475635">
|
|
<ele>19.469652</ele>
|
|
<time>2026-07-17T14:56:34.000Z</time>
|
|
</trkpt>
|
|
<trkpt lat="57.666567" lon="10.475514">
|
|
<ele>19.506036</ele>
|
|
<time>2026-07-17T14:56:35.000Z</time>
|
|
</trkpt>
|
|
<trkpt lat="57.666544" lon="10.475402">
|
|
<ele>19.540502</ele>
|
|
<time>2026-07-17T14:56:36.000Z</time>
|
|
</trkpt>
|
|
<trkpt lat="57.666523" lon="10.475289">
|
|
<ele>19.574869</ele>
|
|
<time>2026-07-17T14:56:37.000Z</time>
|
|
</trkpt>
|
|
<trkpt lat="57.666503" lon="10.475173">
|
|
<ele>19.609883</ele>
|
|
<time>2026-07-17T14:56:38.000Z</time>
|
|
</trkpt>
|
|
<trkpt lat="57.666485" lon="10.475055">
|
|
<ele>19.645134</ele>
|
|
<time>2026-07-17T14:56:39.000Z</time>
|
|
</trkpt>
|
|
<trkpt lat="57.666467" lon="10.474936">
|
|
<ele>19.680662</ele>
|
|
<time>2026-07-17T14:56:40.000Z</time>
|
|
</trkpt>
|
|
<trkpt lat="57.666452" lon="10.474817">
|
|
<ele>19.715786</ele>
|
|
<time>2026-07-17T14:56:41.000Z</time>
|
|
</trkpt>
|
|
<trkpt lat="57.666435" lon="10.474702">
|
|
<ele>19.750062</ele>
|
|
<time>2026-07-17T14:56:42.000Z</time>
|
|
</trkpt>
|
|
<trkpt lat="57.666417" lon="10.474587">
|
|
<ele>19.784486</ele>
|
|
<time>2026-07-17T14:56:43.000Z</time>
|
|
</trkpt>
|
|
<trkpt lat="57.666402" lon="10.474474">
|
|
<ele>19.817934</ele>
|
|
<time>2026-07-17T14:56:44.000Z</time>
|
|
</trkpt>
|
|
<trkpt lat="57.666388" lon="10.474362">
|
|
<ele>19.850977</ele>
|
|
<time>2026-07-17T14:56:45.000Z</time>
|
|
</trkpt>
|
|
<trkpt lat="57.666374" lon="10.474253">
|
|
<ele>19.883181</ele>
|
|
<time>2026-07-17T14:56:46.000Z</time>
|
|
</trkpt>
|
|
<trkpt lat="57.666357" lon="10.474145">
|
|
<ele>19.915524</ele>
|
|
<time>2026-07-17T14:56:47.000Z</time>
|
|
</trkpt>
|
|
<trkpt lat="57.666340" lon="10.474041">
|
|
<ele>19.943967</ele>
|
|
<time>2026-07-17T14:56:48.000Z</time>
|
|
</trkpt>
|
|
<trkpt lat="57.666322" lon="10.473944">
|
|
<ele>19.957087</ele>
|
|
<time>2026-07-17T14:56:49.000Z</time>
|
|
</trkpt>
|
|
<trkpt lat="57.666308" lon="10.473847">
|
|
<ele>19.969926</ele>
|
|
<time>2026-07-17T14:56:50.000Z</time>
|
|
</trkpt>
|
|
<trkpt lat="57.666294" lon="10.473744">
|
|
<ele>19.983506</ele>
|
|
<time>2026-07-17T14:56:51.000Z</time>
|
|
</trkpt>
|
|
<trkpt lat="57.666275" lon="10.473639">
|
|
<ele>19.997670</ele>
|
|
<time>2026-07-17T14:56:52.000Z</time>
|
|
</trkpt>
|
|
<trkpt lat="57.666257" lon="10.473540">
|
|
<ele>20.011032</ele>
|
|
<time>2026-07-17T14:56:53.000Z</time>
|
|
</trkpt>
|
|
<trkpt lat="57.666243" lon="10.473441">
|
|
<ele>20.024117</ele>
|
|
<time>2026-07-17T14:56:54.000Z</time>
|
|
</trkpt>
|
|
<trkpt lat="57.666230" lon="10.473338">
|
|
<ele>20.037640</ele>
|
|
<time>2026-07-17T14:56:55.000Z</time>
|
|
</trkpt>
|
|
<trkpt lat="57.666217" lon="10.473235">
|
|
<ele>20.051163</ele>
|
|
<time>2026-07-17T14:56:56.000Z</time>
|
|
</trkpt>
|
|
<trkpt lat="57.666202" lon="10.473130">
|
|
<ele>20.065051</ele>
|
|
<time>2026-07-17T14:56:57.000Z</time>
|
|
</trkpt>
|
|
<trkpt lat="57.666185" lon="10.473016">
|
|
<ele>20.080174</ele>
|
|
<time>2026-07-17T14:56:58.000Z</time>
|
|
</trkpt>
|
|
<trkpt lat="57.666169" lon="10.472901">
|
|
<ele>20.095358</ele>
|
|
<time>2026-07-17T14:56:59.000Z</time>
|
|
</trkpt>
|
|
<trkpt lat="57.666152" lon="10.472784">
|
|
<ele>20.110851</ele>
|
|
<time>2026-07-17T14:57:00.000Z</time>
|
|
</trkpt>
|
|
<trkpt lat="57.666132" lon="10.472666">
|
|
<ele>20.126668</ele>
|
|
<time>2026-07-17T14:57:01.000Z</time>
|
|
</trkpt>
|
|
<trkpt lat="57.666107" lon="10.472546">
|
|
<ele>20.143125</ele>
|
|
<time>2026-07-17T14:57:02.000Z</time>
|
|
</trkpt>
|
|
<trkpt lat="57.666079" lon="10.472424">
|
|
<ele>20.160089</ele>
|
|
<time>2026-07-17T14:57:03.000Z</time>
|
|
</trkpt>
|
|
<trkpt lat="57.666045" lon="10.472312">
|
|
<ele>20.176545</ele>
|
|
<time>2026-07-17T14:57:04.000Z</time>
|
|
</trkpt>
|
|
<trkpt lat="57.666007" lon="10.472207">
|
|
<ele>20.192746</ele>
|
|
<time>2026-07-17T14:57:05.000Z</time>
|
|
</trkpt>
|
|
<trkpt lat="57.665968" lon="10.472103">
|
|
<ele>20.208976</ele>
|
|
<time>2026-07-17T14:57:06.000Z</time>
|
|
</trkpt>
|
|
<trkpt lat="57.665929" lon="10.472000">
|
|
<ele>20.225103</ele>
|
|
<time>2026-07-17T14:57:07.000Z</time>
|
|
</trkpt>
|
|
<trkpt lat="57.665895" lon="10.471897">
|
|
<ele>20.240569</ele>
|
|
<time>2026-07-17T14:57:08.000Z</time>
|
|
</trkpt>
|
|
<trkpt lat="57.665860" lon="10.471792">
|
|
<ele>20.256379</ele>
|
|
<time>2026-07-17T14:57:09.000Z</time>
|
|
</trkpt>
|
|
<trkpt lat="57.665822" lon="10.471692">
|
|
<ele>20.272054</ele>
|
|
<time>2026-07-17T14:57:10.000Z</time>
|
|
</trkpt>
|
|
<trkpt lat="57.665784" lon="10.471595">
|
|
<ele>20.287419</ele>
|
|
<time>2026-07-17T14:57:11.000Z</time>
|
|
</trkpt>
|
|
<trkpt lat="57.665748" lon="10.471501">
|
|
<ele>20.302192</ele>
|
|
<time>2026-07-17T14:57:12.000Z</time>
|
|
</trkpt>
|
|
<trkpt lat="57.665711" lon="10.471408">
|
|
<ele>20.317004</ele>
|
|
<time>2026-07-17T14:57:13.000Z</time>
|
|
</trkpt>
|
|
<trkpt lat="57.665675" lon="10.471315">
|
|
<ele>20.331674</ele>
|
|
<time>2026-07-17T14:57:14.000Z</time>
|
|
</trkpt>
|
|
<trkpt lat="57.665637" lon="10.471220">
|
|
<ele>20.346833</ele>
|
|
<time>2026-07-17T14:57:15.000Z</time>
|
|
</trkpt>
|
|
<trkpt lat="57.665598" lon="10.471122">
|
|
<ele>20.362442</ele>
|
|
<time>2026-07-17T14:57:16.000Z</time>
|
|
</trkpt>
|
|
<trkpt lat="57.665557" lon="10.471024">
|
|
<ele>20.377255</ele>
|
|
<time>2026-07-17T14:57:17.000Z</time>
|
|
</trkpt>
|
|
<trkpt lat="57.665521" lon="10.470933">
|
|
<ele>20.389441</ele>
|
|
<time>2026-07-17T14:57:18.000Z</time>
|
|
</trkpt>
|
|
<trkpt lat="57.665487" lon="10.470843">
|
|
<ele>20.401304</ele>
|
|
<time>2026-07-17T14:57:19.000Z</time>
|
|
</trkpt>
|
|
<trkpt lat="57.665450" lon="10.470748">
|
|
<ele>20.413956</ele>
|
|
<time>2026-07-17T14:57:20.000Z</time>
|
|
</trkpt>
|
|
<trkpt lat="57.665412" lon="10.470654">
|
|
<ele>20.426642</ele>
|
|
<time>2026-07-17T14:57:21.000Z</time>
|
|
</trkpt>
|
|
<trkpt lat="57.665374" lon="10.470557">
|
|
<ele>20.439587</ele>
|
|
<time>2026-07-17T14:57:22.000Z</time>
|
|
</trkpt>
|
|
<trkpt lat="57.665336" lon="10.470461">
|
|
<ele>20.452445</ele>
|
|
<time>2026-07-17T14:57:23.000Z</time>
|
|
</trkpt>
|
|
<trkpt lat="57.665299" lon="10.470372">
|
|
<ele>20.464581</ele>
|
|
<time>2026-07-17T14:57:24.000Z</time>
|
|
</trkpt>
|
|
<trkpt lat="57.665265" lon="10.470292">
|
|
<ele>20.475582</ele>
|
|
<time>2026-07-17T14:57:25.000Z</time>
|
|
</trkpt>
|
|
<trkpt lat="57.665234" lon="10.470221">
|
|
<ele>20.485449</ele>
|
|
<time>2026-07-17T14:57:26.000Z</time>
|
|
</trkpt>
|
|
<trkpt lat="57.665204" lon="10.470154">
|
|
<ele>20.494857</ele>
|
|
<time>2026-07-17T14:57:27.000Z</time>
|
|
</trkpt>
|
|
<trkpt lat="57.665171" lon="10.470083">
|
|
<ele>20.504984</ele>
|
|
<time>2026-07-17T14:57:28.000Z</time>
|
|
</trkpt>
|
|
<trkpt lat="57.665142" lon="10.470012">
|
|
<ele>20.514602</ele>
|
|
<time>2026-07-17T14:57:29.000Z</time>
|
|
</trkpt>
|
|
<trkpt lat="57.665114" lon="10.469940">
|
|
<ele>20.524186</ele>
|
|
<time>2026-07-17T14:57:30.000Z</time>
|
|
</trkpt>
|
|
<trkpt lat="57.665081" lon="10.469865">
|
|
<ele>20.534642</ele>
|
|
<time>2026-07-17T14:57:31.000Z</time>
|
|
</trkpt>
|
|
<trkpt lat="57.665047" lon="10.469801">
|
|
<ele>20.544353</ele>
|
|
<time>2026-07-17T14:57:32.000Z</time>
|
|
</trkpt>
|
|
<trkpt lat="57.665022" lon="10.469732">
|
|
<ele>20.553326</ele>
|
|
<time>2026-07-17T14:57:33.000Z</time>
|
|
</trkpt>
|
|
<trkpt lat="57.664997" lon="10.469659">
|
|
<ele>20.562659</ele>
|
|
<time>2026-07-17T14:57:34.000Z</time>
|
|
</trkpt>
|
|
<trkpt lat="57.664972" lon="10.469589">
|
|
<ele>20.571721</ele>
|
|
<time>2026-07-17T14:57:35.000Z</time>
|
|
</trkpt>
|
|
<trkpt lat="57.664951" lon="10.469517">
|
|
<ele>20.580550</ele>
|
|
<time>2026-07-17T14:57:36.000Z</time>
|
|
</trkpt>
|
|
<trkpt lat="57.664932" lon="10.469438">
|
|
<ele>20.589876</ele>
|
|
<time>2026-07-17T14:57:37.000Z</time>
|
|
</trkpt>
|
|
<trkpt lat="57.664913" lon="10.469366">
|
|
<ele>20.598520</ele>
|
|
<time>2026-07-17T14:57:38.000Z</time>
|
|
</trkpt>
|
|
<trkpt lat="57.664891" lon="10.469305">
|
|
<ele>20.606441</ele>
|
|
<time>2026-07-17T14:57:39.000Z</time>
|
|
</trkpt>
|
|
<trkpt lat="57.664864" lon="10.469246">
|
|
<ele>20.614801</ele>
|
|
<time>2026-07-17T14:57:40.000Z</time>
|
|
</trkpt>
|
|
<trkpt lat="57.664842" lon="10.469196">
|
|
<ele>20.621771</ele>
|
|
<time>2026-07-17T14:57:41.000Z</time>
|
|
</trkpt>
|
|
<trkpt lat="57.664825" lon="10.469149">
|
|
<ele>20.627880</ele>
|
|
<time>2026-07-17T14:57:42.000Z</time>
|
|
</trkpt>
|
|
<trkpt lat="57.664806" lon="10.469099">
|
|
<ele>20.634483</ele>
|
|
<time>2026-07-17T14:57:43.000Z</time>
|
|
</trkpt>
|
|
<trkpt lat="57.664785" lon="10.469043">
|
|
<ele>20.641847</ele>
|
|
<time>2026-07-17T14:57:44.000Z</time>
|
|
</trkpt>
|
|
<trkpt lat="57.664764" lon="10.468983">
|
|
<ele>20.649567</ele>
|
|
<time>2026-07-17T14:57:45.000Z</time>
|
|
</trkpt>
|
|
<trkpt lat="57.664745" lon="10.468914">
|
|
<ele>20.657922</ele>
|
|
<time>2026-07-17T14:57:46.000Z</time>
|
|
</trkpt>
|
|
<trkpt lat="57.664726" lon="10.468850">
|
|
<ele>20.665803</ele>
|
|
<time>2026-07-17T14:57:47.000Z</time>
|
|
</trkpt>
|
|
<trkpt lat="57.664708" lon="10.468800">
|
|
<ele>20.672292</ele>
|
|
<time>2026-07-17T14:57:48.000Z</time>
|
|
</trkpt>
|
|
<trkpt lat="57.664691" lon="10.468753">
|
|
<ele>20.678400</ele>
|
|
<time>2026-07-17T14:57:49.000Z</time>
|
|
</trkpt>
|
|
<trkpt lat="57.664674" lon="10.468708">
|
|
<ele>20.684332</ele>
|
|
<time>2026-07-17T14:57:50.000Z</time>
|
|
</trkpt>
|
|
<trkpt lat="57.664660" lon="10.468679">
|
|
<ele>20.688538</ele>
|
|
<time>2026-07-17T14:57:51.000Z</time>
|
|
</trkpt>
|
|
<trkpt lat="57.664651" lon="10.468656">
|
|
<ele>20.691606</ele>
|
|
<time>2026-07-17T14:57:52.000Z</time>
|
|
</trkpt>
|
|
<trkpt lat="57.664642" lon="10.468633">
|
|
<ele>20.694674</ele>
|
|
<time>2026-07-17T14:57:53.000Z</time>
|
|
</trkpt>
|
|
<trkpt lat="57.664627" lon="10.468606">
|
|
<ele>20.698866</ele>
|
|
<time>2026-07-17T14:57:54.000Z</time>
|
|
</trkpt>
|
|
<trkpt lat="57.664616" lon="10.468592">
|
|
<ele>20.701544</ele>
|
|
<time>2026-07-17T14:57:55.000Z</time>
|
|
</trkpt>
|
|
<trkpt lat="57.664485" lon="10.468075">
|
|
<ele>20.709770</ele>
|
|
<time>2026-07-17T14:59:48.000Z</time>
|
|
</trkpt>
|
|
<trkpt lat="57.664475" lon="10.468067">
|
|
<ele>20.708017</ele>
|
|
<time>2026-07-17T14:59:49.000Z</time>
|
|
</trkpt>
|
|
<trkpt lat="57.664467" lon="10.468056">
|
|
<ele>20.706417</ele>
|
|
<time>2026-07-17T14:59:50.000Z</time>
|
|
</trkpt>
|
|
<trkpt lat="57.664456" lon="10.468035">
|
|
<ele>20.703884</ele>
|
|
<time>2026-07-17T14:59:51.000Z</time>
|
|
</trkpt>
|
|
<trkpt lat="57.664441" lon="10.468004">
|
|
<ele>20.700281</ele>
|
|
<time>2026-07-17T14:59:52.000Z</time>
|
|
</trkpt>
|
|
<trkpt lat="57.664424" lon="10.467966">
|
|
<ele>20.696012</ele>
|
|
<time>2026-07-17T14:59:53.000Z</time>
|
|
</trkpt>
|
|
<trkpt lat="57.664402" lon="10.467920">
|
|
<ele>20.690694</ele>
|
|
<time>2026-07-17T14:59:54.000Z</time>
|
|
</trkpt>
|
|
<trkpt lat="57.664375" lon="10.467871">
|
|
<ele>20.684631</ele>
|
|
<time>2026-07-17T14:59:55.000Z</time>
|
|
</trkpt>
|
|
<trkpt lat="57.664349" lon="10.467823">
|
|
<ele>20.678743</ele>
|
|
<time>2026-07-17T14:59:56.000Z</time>
|
|
</trkpt>
|
|
<trkpt lat="57.664322" lon="10.467776">
|
|
<ele>20.672799</ele>
|
|
<time>2026-07-17T14:59:57.000Z</time>
|
|
</trkpt>
|
|
<trkpt lat="57.664295" lon="10.467729">
|
|
<ele>20.666855</ele>
|
|
<time>2026-07-17T14:59:58.000Z</time>
|
|
</trkpt>
|
|
<trkpt lat="57.664267" lon="10.467679">
|
|
<ele>20.660616</ele>
|
|
<time>2026-07-17T14:59:59.000Z</time>
|
|
</trkpt>
|
|
<trkpt lat="57.664236" lon="10.467627">
|
|
<ele>20.653905</ele>
|
|
<time>2026-07-17T15:00:00.000Z</time>
|
|
</trkpt>
|
|
<trkpt lat="57.664206" lon="10.467579">
|
|
<ele>20.647543</ele>
|
|
<time>2026-07-17T15:00:01.000Z</time>
|
|
</trkpt>
|
|
<trkpt lat="57.664177" lon="10.467531">
|
|
<ele>20.641302</ele>
|
|
<time>2026-07-17T15:00:02.000Z</time>
|
|
</trkpt>
|
|
<trkpt lat="57.664149" lon="10.467474">
|
|
<ele>20.634632</ele>
|
|
<time>2026-07-17T15:00:03.000Z</time>
|
|
</trkpt>
|
|
<trkpt lat="57.664118" lon="10.467409">
|
|
<ele>20.627127</ele>
|
|
<time>2026-07-17T15:00:04.000Z</time>
|
|
</trkpt>
|
|
<trkpt lat="57.664088" lon="10.467346">
|
|
<ele>20.619857</ele>
|
|
<time>2026-07-17T15:00:05.000Z</time>
|
|
</trkpt>
|
|
<trkpt lat="57.664059" lon="10.467280">
|
|
<ele>20.612496</ele>
|
|
<time>2026-07-17T15:00:06.000Z</time>
|
|
</trkpt>
|
|
<trkpt lat="57.664027" lon="10.467212">
|
|
<ele>20.604690</ele>
|
|
<time>2026-07-17T15:00:07.000Z</time>
|
|
</trkpt>
|
|
<trkpt lat="57.663991" lon="10.467147">
|
|
<ele>20.596626</ele>
|
|
<time>2026-07-17T15:00:08.000Z</time>
|
|
</trkpt>
|
|
<trkpt lat="57.663955" lon="10.467081">
|
|
<ele>20.588502</ele>
|
|
<time>2026-07-17T15:00:09.000Z</time>
|
|
</trkpt>
|
|
<trkpt lat="57.663917" lon="10.467015">
|
|
<ele>20.580145</ele>
|
|
<time>2026-07-17T15:00:10.000Z</time>
|
|
</trkpt>
|
|
<trkpt lat="57.663879" lon="10.466951">
|
|
<ele>20.571904</ele>
|
|
<time>2026-07-17T15:00:11.000Z</time>
|
|
</trkpt>
|
|
<trkpt lat="57.663838" lon="10.466888">
|
|
<ele>20.563353</ele>
|
|
<time>2026-07-17T15:00:12.000Z</time>
|
|
</trkpt>
|
|
<trkpt lat="57.663792" lon="10.466826">
|
|
<ele>20.554216</ele>
|
|
<time>2026-07-17T15:00:13.000Z</time>
|
|
</trkpt>
|
|
<trkpt lat="57.663743" lon="10.466767">
|
|
<ele>20.544825</ele>
|
|
<time>2026-07-17T15:00:14.000Z</time>
|
|
</trkpt>
|
|
<trkpt lat="57.663692" lon="10.466710">
|
|
<ele>20.535251</ele>
|
|
<time>2026-07-17T15:00:15.000Z</time>
|
|
</trkpt>
|
|
<trkpt lat="57.663639" lon="10.466654">
|
|
<ele>20.525441</ele>
|
|
<time>2026-07-17T15:00:16.000Z</time>
|
|
</trkpt>
|
|
<trkpt lat="57.663586" lon="10.466601">
|
|
<ele>20.515757</ele>
|
|
<time>2026-07-17T15:00:17.000Z</time>
|
|
</trkpt>
|
|
<trkpt lat="57.663531" lon="10.466550">
|
|
<ele>20.505865</ele>
|
|
<time>2026-07-17T15:00:18.000Z</time>
|
|
</trkpt>
|
|
<trkpt lat="57.663475" lon="10.466504">
|
|
<ele>20.496009</ele>
|
|
<time>2026-07-17T15:00:19.000Z</time>
|
|
</trkpt>
|
|
<trkpt lat="57.663420" lon="10.466459">
|
|
<ele>20.486336</ele>
|
|
<time>2026-07-17T15:00:20.000Z</time>
|
|
</trkpt>
|
|
<trkpt lat="57.663365" lon="10.466417">
|
|
<ele>20.476763</ele>
|
|
<time>2026-07-17T15:00:21.000Z</time>
|
|
</trkpt>
|
|
<trkpt lat="57.663310" lon="10.466377">
|
|
<ele>20.467254</ele>
|
|
<time>2026-07-17T15:00:22.000Z</time>
|
|
</trkpt>
|
|
<trkpt lat="57.663254" lon="10.466334">
|
|
<ele>20.457499</ele>
|
|
<time>2026-07-17T15:00:23.000Z</time>
|
|
</trkpt>
|
|
<trkpt lat="57.663200" lon="10.466289">
|
|
<ele>20.447973</ele>
|
|
<time>2026-07-17T15:00:24.000Z</time>
|
|
</trkpt>
|
|
<trkpt lat="57.663144" lon="10.466245">
|
|
<ele>20.446972</ele>
|
|
<time>2026-07-17T15:00:25.000Z</time>
|
|
</trkpt>
|
|
<trkpt lat="57.663088" lon="10.466197">
|
|
<ele>20.452902</ele>
|
|
<time>2026-07-17T15:00:26.000Z</time>
|
|
</trkpt>
|
|
<trkpt lat="57.663031" lon="10.466151">
|
|
<ele>20.458879</ele>
|
|
<time>2026-07-17T15:00:27.000Z</time>
|
|
</trkpt>
|
|
<trkpt lat="57.662975" lon="10.466106">
|
|
<ele>20.464746</ele>
|
|
<time>2026-07-17T15:00:28.000Z</time>
|
|
</trkpt>
|
|
<trkpt lat="57.662922" lon="10.466061">
|
|
<ele>20.470349</ele>
|
|
<time>2026-07-17T15:00:29.000Z</time>
|
|
</trkpt>
|
|
<trkpt lat="57.662869" lon="10.466017">
|
|
<ele>20.475931</ele>
|
|
<time>2026-07-17T15:00:30.000Z</time>
|
|
</trkpt>
|
|
<trkpt lat="57.662818" lon="10.465976">
|
|
<ele>20.481275</ele>
|
|
<time>2026-07-17T15:00:31.000Z</time>
|
|
</trkpt>
|
|
<trkpt lat="57.662765" lon="10.465934">
|
|
<ele>20.486816</ele>
|
|
<time>2026-07-17T15:00:32.000Z</time>
|
|
</trkpt>
|
|
<trkpt lat="57.662709" lon="10.465891">
|
|
<ele>20.492643</ele>
|
|
<time>2026-07-17T15:00:33.000Z</time>
|
|
</trkpt>
|
|
<trkpt lat="57.662655" lon="10.465850">
|
|
<ele>20.498254</ele>
|
|
<time>2026-07-17T15:00:34.000Z</time>
|
|
</trkpt>
|
|
<trkpt lat="57.662600" lon="10.465805">
|
|
<ele>20.504033</ele>
|
|
<time>2026-07-17T15:00:35.000Z</time>
|
|
</trkpt>
|
|
<trkpt lat="57.662545" lon="10.465758">
|
|
<ele>20.509854</ele>
|
|
<time>2026-07-17T15:00:36.000Z</time>
|
|
</trkpt>
|
|
<trkpt lat="57.662490" lon="10.465710">
|
|
<ele>20.515696</ele>
|
|
<time>2026-07-17T15:00:37.000Z</time>
|
|
</trkpt>
|
|
<trkpt lat="57.662435" lon="10.465665">
|
|
<ele>20.521476</ele>
|
|
<time>2026-07-17T15:00:38.000Z</time>
|
|
</trkpt>
|
|
<trkpt lat="57.662385" lon="10.465623">
|
|
<ele>20.526752</ele>
|
|
<time>2026-07-17T15:00:39.000Z</time>
|
|
</trkpt>
|
|
<trkpt lat="57.662331" lon="10.465582">
|
|
<ele>20.532362</ele>
|
|
<time>2026-07-17T15:00:40.000Z</time>
|
|
</trkpt>
|
|
<trkpt lat="57.662269" lon="10.465535">
|
|
<ele>20.538802</ele>
|
|
<time>2026-07-17T15:00:41.000Z</time>
|
|
</trkpt>
|
|
<trkpt lat="57.662212" lon="10.465490">
|
|
<ele>20.544758</ele>
|
|
<time>2026-07-17T15:00:42.000Z</time>
|
|
</trkpt>
|
|
<trkpt lat="57.662160" lon="10.465443">
|
|
<ele>20.550318</ele>
|
|
<time>2026-07-17T15:00:43.000Z</time>
|
|
</trkpt>
|
|
<trkpt lat="57.662108" lon="10.465396">
|
|
<ele>20.555878</ele>
|
|
<time>2026-07-17T15:00:44.000Z</time>
|
|
</trkpt>
|
|
<trkpt lat="57.662057" lon="10.465349">
|
|
<ele>20.561351</ele>
|
|
<time>2026-07-17T15:00:45.000Z</time>
|
|
</trkpt>
|
|
<trkpt lat="57.662008" lon="10.465298">
|
|
<ele>20.566749</ele>
|
|
<time>2026-07-17T15:00:46.000Z</time>
|
|
</trkpt>
|
|
<trkpt lat="57.661958" lon="10.465252">
|
|
<ele>20.572113</ele>
|
|
<time>2026-07-17T15:00:47.000Z</time>
|
|
</trkpt>
|
|
<trkpt lat="57.661909" lon="10.465214">
|
|
<ele>20.577220</ele>
|
|
<time>2026-07-17T15:00:48.000Z</time>
|
|
</trkpt>
|
|
<trkpt lat="57.661859" lon="10.465177">
|
|
<ele>20.582396</ele>
|
|
<time>2026-07-17T15:00:49.000Z</time>
|
|
</trkpt>
|
|
<trkpt lat="57.661807" lon="10.465136">
|
|
<ele>20.587828</ele>
|
|
<time>2026-07-17T15:00:50.000Z</time>
|
|
</trkpt>
|
|
<trkpt lat="57.661756" lon="10.465097">
|
|
<ele>20.593132</ele>
|
|
<time>2026-07-17T15:00:51.000Z</time>
|
|
</trkpt>
|
|
<trkpt lat="57.661707" lon="10.465061">
|
|
<ele>20.598200</ele>
|
|
<time>2026-07-17T15:00:52.000Z</time>
|
|
</trkpt>
|
|
<trkpt lat="57.661658" lon="10.465024">
|
|
<ele>20.603287</ele>
|
|
<time>2026-07-17T15:00:53.000Z</time>
|
|
</trkpt>
|
|
<trkpt lat="57.661610" lon="10.464989">
|
|
<ele>20.608246</ele>
|
|
<time>2026-07-17T15:00:54.000Z</time>
|
|
</trkpt>
|
|
<trkpt lat="57.661562" lon="10.464955">
|
|
<ele>20.613187</ele>
|
|
<time>2026-07-17T15:00:55.000Z</time>
|
|
</trkpt>
|
|
<trkpt lat="57.661513" lon="10.464921">
|
|
<ele>20.615275</ele>
|
|
<time>2026-07-17T15:00:56.000Z</time>
|
|
</trkpt>
|
|
<trkpt lat="57.661463" lon="10.464885">
|
|
<ele>20.609576</ele>
|
|
<time>2026-07-17T15:00:57.000Z</time>
|
|
</trkpt>
|
|
<trkpt lat="57.661413" lon="10.464848">
|
|
<ele>20.603856</ele>
|
|
<time>2026-07-17T15:00:58.000Z</time>
|
|
</trkpt>
|
|
<trkpt lat="57.661364" lon="10.464810">
|
|
<ele>20.598213</ele>
|
|
<time>2026-07-17T15:00:59.000Z</time>
|
|
</trkpt>
|
|
<trkpt lat="57.661317" lon="10.464777">
|
|
<ele>20.592873</ele>
|
|
<time>2026-07-17T15:01:00.000Z</time>
|
|
</trkpt>
|
|
<trkpt lat="57.661270" lon="10.464747">
|
|
<ele>20.587590</ele>
|
|
<time>2026-07-17T15:01:01.000Z</time>
|
|
</trkpt>
|
|
<trkpt lat="57.661215" lon="10.464706">
|
|
<ele>20.581292</ele>
|
|
<time>2026-07-17T15:01:02.000Z</time>
|
|
</trkpt>
|
|
<trkpt lat="57.661166" lon="10.464666">
|
|
<ele>20.575604</ele>
|
|
<time>2026-07-17T15:01:03.000Z</time>
|
|
</trkpt>
|
|
<trkpt lat="57.661117" lon="10.464628">
|
|
<ele>20.569962</ele>
|
|
<time>2026-07-17T15:01:04.000Z</time>
|
|
</trkpt>
|
|
<trkpt lat="57.661066" lon="10.464591">
|
|
<ele>20.564143</ele>
|
|
<time>2026-07-17T15:01:05.000Z</time>
|
|
</trkpt>
|
|
<trkpt lat="57.661016" lon="10.464557">
|
|
<ele>20.558483</ele>
|
|
<time>2026-07-17T15:01:06.000Z</time>
|
|
</trkpt>
|
|
<trkpt lat="57.660968" lon="10.464527">
|
|
<ele>20.553100</ele>
|
|
<time>2026-07-17T15:01:07.000Z</time>
|
|
</trkpt>
|
|
<trkpt lat="57.660921" lon="10.464499">
|
|
<ele>20.547852</ele>
|
|
<time>2026-07-17T15:01:08.000Z</time>
|
|
</trkpt>
|
|
<trkpt lat="57.660872" lon="10.464466">
|
|
<ele>20.542312</ele>
|
|
<time>2026-07-17T15:01:09.000Z</time>
|
|
</trkpt>
|
|
<trkpt lat="57.660810" lon="10.464414">
|
|
<ele>20.535084</ele>
|
|
<time>2026-07-17T15:01:10.000Z</time>
|
|
</trkpt>
|
|
<trkpt lat="57.660756" lon="10.464375">
|
|
<ele>20.528926</ele>
|
|
<time>2026-07-17T15:01:11.000Z</time>
|
|
</trkpt>
|
|
<trkpt lat="57.660702" lon="10.464333">
|
|
<ele>20.522705</ele>
|
|
<time>2026-07-17T15:01:12.000Z</time>
|
|
</trkpt>
|
|
<trkpt lat="57.660648" lon="10.464294">
|
|
<ele>20.516547</ele>
|
|
<time>2026-07-17T15:01:13.000Z</time>
|
|
</trkpt>
|
|
<trkpt lat="57.660592" lon="10.464261">
|
|
<ele>20.510302</ele>
|
|
<time>2026-07-17T15:01:14.000Z</time>
|
|
</trkpt>
|
|
<trkpt lat="57.660537" lon="10.464231">
|
|
<ele>20.504207</ele>
|
|
<time>2026-07-17T15:01:15.000Z</time>
|
|
</trkpt>
|
|
<trkpt lat="57.660480" lon="10.464206">
|
|
<ele>20.497980</ele>
|
|
<time>2026-07-17T15:01:16.000Z</time>
|
|
</trkpt>
|
|
<trkpt lat="57.660424" lon="10.464182">
|
|
<ele>20.491868</ele>
|
|
<time>2026-07-17T15:01:17.000Z</time>
|
|
</trkpt>
|
|
<trkpt lat="57.660367" lon="10.464156">
|
|
<ele>20.485627</ele>
|
|
<time>2026-07-17T15:01:18.000Z</time>
|
|
</trkpt>
|
|
<trkpt lat="57.660310" lon="10.464128">
|
|
<ele>20.479359</ele>
|
|
<time>2026-07-17T15:01:19.000Z</time>
|
|
</trkpt>
|
|
<trkpt lat="57.660256" lon="10.464104">
|
|
<ele>20.473454</ele>
|
|
<time>2026-07-17T15:01:20.000Z</time>
|
|
</trkpt>
|
|
<trkpt lat="57.660201" lon="10.464078">
|
|
<ele>20.467420</ele>
|
|
<time>2026-07-17T15:01:21.000Z</time>
|
|
</trkpt>
|
|
<trkpt lat="57.660147" lon="10.464049">
|
|
<ele>20.461444</ele>
|
|
<time>2026-07-17T15:01:22.000Z</time>
|
|
</trkpt>
|
|
<trkpt lat="57.660095" lon="10.464022">
|
|
<ele>20.455703</ele>
|
|
<time>2026-07-17T15:01:23.000Z</time>
|
|
</trkpt>
|
|
<trkpt lat="57.660038" lon="10.463995">
|
|
<ele>20.449448</ele>
|
|
<time>2026-07-17T15:01:24.000Z</time>
|
|
</trkpt>
|
|
<trkpt lat="57.659985" lon="10.463967">
|
|
<ele>20.443590</ele>
|
|
<time>2026-07-17T15:01:25.000Z</time>
|
|
</trkpt>
|
|
<trkpt lat="57.659932" lon="10.463937">
|
|
<ele>20.437700</ele>
|
|
<time>2026-07-17T15:01:26.000Z</time>
|
|
</trkpt>
|
|
<trkpt lat="57.659879" lon="10.463905">
|
|
<ele>20.431775</ele>
|
|
<time>2026-07-17T15:01:27.000Z</time>
|
|
</trkpt>
|
|
<trkpt lat="57.659828" lon="10.463872">
|
|
<ele>20.426034</ele>
|
|
<time>2026-07-17T15:01:28.000Z</time>
|
|
</trkpt>
|
|
<trkpt lat="57.659777" lon="10.463840">
|
|
<ele>20.426417</ele>
|
|
<time>2026-07-17T15:01:29.000Z</time>
|
|
</trkpt>
|
|
<trkpt lat="57.659727" lon="10.463804">
|
|
<ele>20.427425</ele>
|
|
<time>2026-07-17T15:01:30.000Z</time>
|
|
</trkpt>
|
|
<trkpt lat="57.659678" lon="10.463765">
|
|
<ele>20.428428</ele>
|
|
<time>2026-07-17T15:01:31.000Z</time>
|
|
</trkpt>
|
|
<trkpt lat="57.659628" lon="10.463727">
|
|
<ele>20.429443</ele>
|
|
<time>2026-07-17T15:01:32.000Z</time>
|
|
</trkpt>
|
|
<trkpt lat="57.659581" lon="10.463685">
|
|
<ele>20.430424</ele>
|
|
<time>2026-07-17T15:01:33.000Z</time>
|
|
</trkpt>
|
|
<trkpt lat="57.659533" lon="10.463641">
|
|
<ele>20.431430</ele>
|
|
<time>2026-07-17T15:01:34.000Z</time>
|
|
</trkpt>
|
|
<trkpt lat="57.659483" lon="10.463599">
|
|
<ele>20.432462</ele>
|
|
<time>2026-07-17T15:01:35.000Z</time>
|
|
</trkpt>
|
|
<trkpt lat="57.659434" lon="10.463559">
|
|
<ele>20.433468</ele>
|
|
<time>2026-07-17T15:01:36.000Z</time>
|
|
</trkpt>
|
|
<trkpt lat="57.659384" lon="10.463520">
|
|
<ele>20.434488</ele>
|
|
<time>2026-07-17T15:01:37.000Z</time>
|
|
</trkpt>
|
|
<trkpt lat="57.659334" lon="10.463482">
|
|
<ele>20.435504</ele>
|
|
<time>2026-07-17T15:01:38.000Z</time>
|
|
</trkpt>
|
|
<trkpt lat="57.659281" lon="10.463438">
|
|
<ele>20.436596</ele>
|
|
<time>2026-07-17T15:01:39.000Z</time>
|
|
</trkpt>
|
|
<trkpt lat="57.659226" lon="10.463391">
|
|
<ele>20.437734</ele>
|
|
<time>2026-07-17T15:01:40.000Z</time>
|
|
</trkpt>
|
|
<trkpt lat="57.659172" lon="10.463348">
|
|
<ele>20.438839</ele>
|
|
<time>2026-07-17T15:01:41.000Z</time>
|
|
</trkpt>
|
|
<trkpt lat="57.659120" lon="10.463308">
|
|
<ele>20.439897</ele>
|
|
<time>2026-07-17T15:01:42.000Z</time>
|
|
</trkpt>
|
|
<trkpt lat="57.659068" lon="10.463265">
|
|
<ele>20.440967</ele>
|
|
<time>2026-07-17T15:01:43.000Z</time>
|
|
</trkpt>
|
|
<trkpt lat="57.659011" lon="10.463218">
|
|
<ele>20.442140</ele>
|
|
<time>2026-07-17T15:01:44.000Z</time>
|
|
</trkpt>
|
|
<trkpt lat="57.658955" lon="10.463175">
|
|
<ele>20.443279</ele>
|
|
<time>2026-07-17T15:01:45.000Z</time>
|
|
</trkpt>
|
|
<trkpt lat="57.658906" lon="10.463134">
|
|
<ele>20.444290</ele>
|
|
<time>2026-07-17T15:01:46.000Z</time>
|
|
</trkpt>
|
|
<trkpt lat="57.658859" lon="10.463092">
|
|
<ele>20.445270</ele>
|
|
<time>2026-07-17T15:01:47.000Z</time>
|
|
</trkpt>
|
|
<trkpt lat="57.658799" lon="10.463043">
|
|
<ele>20.446503</ele>
|
|
<time>2026-07-17T15:01:48.000Z</time>
|
|
</trkpt>
|
|
<trkpt lat="57.658746" lon="10.463003">
|
|
<ele>20.447578</ele>
|
|
<time>2026-07-17T15:01:49.000Z</time>
|
|
</trkpt>
|
|
<trkpt lat="57.658692" lon="10.462963">
|
|
<ele>20.448672</ele>
|
|
<time>2026-07-17T15:01:50.000Z</time>
|
|
</trkpt>
|
|
<trkpt lat="57.658641" lon="10.462923">
|
|
<ele>20.449713</ele>
|
|
<time>2026-07-17T15:01:51.000Z</time>
|
|
</trkpt>
|
|
<trkpt lat="57.658590" lon="10.462884">
|
|
<ele>20.450750</ele>
|
|
<time>2026-07-17T15:01:52.000Z</time>
|
|
</trkpt>
|
|
<trkpt lat="57.658538" lon="10.462843">
|
|
<ele>20.451812</ele>
|
|
<time>2026-07-17T15:01:53.000Z</time>
|
|
</trkpt>
|
|
<trkpt lat="57.658486" lon="10.462800">
|
|
<ele>20.452882</ele>
|
|
<time>2026-07-17T15:01:54.000Z</time>
|
|
</trkpt>
|
|
<trkpt lat="57.658433" lon="10.462757">
|
|
<ele>20.453970</ele>
|
|
<time>2026-07-17T15:01:55.000Z</time>
|
|
</trkpt>
|
|
<trkpt lat="57.658379" lon="10.462712">
|
|
<ele>20.455083</ele>
|
|
<time>2026-07-17T15:01:56.000Z</time>
|
|
</trkpt>
|
|
<trkpt lat="57.658327" lon="10.462667">
|
|
<ele>20.456161</ele>
|
|
<time>2026-07-17T15:01:57.000Z</time>
|
|
</trkpt>
|
|
<trkpt lat="57.658278" lon="10.462624">
|
|
<ele>20.457180</ele>
|
|
<time>2026-07-17T15:01:58.000Z</time>
|
|
</trkpt>
|
|
<trkpt lat="57.658228" lon="10.462575">
|
|
<ele>20.458243</ele>
|
|
<time>2026-07-17T15:01:59.000Z</time>
|
|
</trkpt>
|
|
<trkpt lat="57.658177" lon="10.462531">
|
|
<ele>20.459300</ele>
|
|
<time>2026-07-17T15:02:00.000Z</time>
|
|
</trkpt>
|
|
<trkpt lat="57.658124" lon="10.462494">
|
|
<ele>20.440934</ele>
|
|
<time>2026-07-17T15:02:01.000Z</time>
|
|
</trkpt>
|
|
<trkpt lat="57.658072" lon="10.462461">
|
|
<ele>20.422116</ele>
|
|
<time>2026-07-17T15:02:02.000Z</time>
|
|
</trkpt>
|
|
<trkpt lat="57.658020" lon="10.462424">
|
|
<ele>20.403050</ele>
|
|
<time>2026-07-17T15:02:03.000Z</time>
|
|
</trkpt>
|
|
<trkpt lat="57.657970" lon="10.462385">
|
|
<ele>20.384484</ele>
|
|
<time>2026-07-17T15:02:04.000Z</time>
|
|
</trkpt>
|
|
<trkpt lat="57.657922" lon="10.462346">
|
|
<ele>20.366549</ele>
|
|
<time>2026-07-17T15:02:05.000Z</time>
|
|
</trkpt>
|
|
<trkpt lat="57.657873" lon="10.462304">
|
|
<ele>20.348077</ele>
|
|
<time>2026-07-17T15:02:06.000Z</time>
|
|
</trkpt>
|
|
<trkpt lat="57.657827" lon="10.462257">
|
|
<ele>20.330113</ele>
|
|
<time>2026-07-17T15:02:07.000Z</time>
|
|
</trkpt>
|
|
<trkpt lat="57.657785" lon="10.462206">
|
|
<ele>20.312951</ele>
|
|
<time>2026-07-17T15:02:08.000Z</time>
|
|
</trkpt>
|
|
<trkpt lat="57.657743" lon="10.462155">
|
|
<ele>20.295788</ele>
|
|
<time>2026-07-17T15:02:09.000Z</time>
|
|
</trkpt>
|
|
<trkpt lat="57.657700" lon="10.462109">
|
|
<ele>20.278811</ele>
|
|
<time>2026-07-17T15:02:10.000Z</time>
|
|
</trkpt>
|
|
<trkpt lat="57.657654" lon="10.462066">
|
|
<ele>20.261187</ele>
|
|
<time>2026-07-17T15:02:11.000Z</time>
|
|
</trkpt>
|
|
<trkpt lat="57.657608" lon="10.462027">
|
|
<ele>20.243878</ele>
|
|
<time>2026-07-17T15:02:12.000Z</time>
|
|
</trkpt>
|
|
<trkpt lat="57.657561" lon="10.461990">
|
|
<ele>20.226403</ele>
|
|
<time>2026-07-17T15:02:13.000Z</time>
|
|
</trkpt>
|
|
<trkpt lat="57.657513" lon="10.461955">
|
|
<ele>20.208747</ele>
|
|
<time>2026-07-17T15:02:14.000Z</time>
|
|
</trkpt>
|
|
<trkpt lat="57.657467" lon="10.461917">
|
|
<ele>20.191513</ele>
|
|
<time>2026-07-17T15:02:15.000Z</time>
|
|
</trkpt>
|
|
<trkpt lat="57.657419" lon="10.461877">
|
|
<ele>20.173505</ele>
|
|
<time>2026-07-17T15:02:16.000Z</time>
|
|
</trkpt>
|
|
<trkpt lat="57.657369" lon="10.461840">
|
|
<ele>20.155077</ele>
|
|
<time>2026-07-17T15:02:17.000Z</time>
|
|
</trkpt>
|
|
<trkpt lat="57.657320" lon="10.461803">
|
|
<ele>20.136968</ele>
|
|
<time>2026-07-17T15:02:18.000Z</time>
|
|
</trkpt>
|
|
<trkpt lat="57.657269" lon="10.461766">
|
|
<ele>20.118221</ele>
|
|
<time>2026-07-17T15:02:19.000Z</time>
|
|
</trkpt>
|
|
<trkpt lat="57.657219" lon="10.461731">
|
|
<ele>20.099926</ele>
|
|
<time>2026-07-17T15:02:20.000Z</time>
|
|
</trkpt>
|
|
<trkpt lat="57.657169" lon="10.461694">
|
|
<ele>20.081498</ele>
|
|
<time>2026-07-17T15:02:21.000Z</time>
|
|
</trkpt>
|
|
<trkpt lat="57.657113" lon="10.461655">
|
|
<ele>20.061020</ele>
|
|
<time>2026-07-17T15:02:22.000Z</time>
|
|
</trkpt>
|
|
<trkpt lat="57.657059" lon="10.461622">
|
|
<ele>20.041552</ele>
|
|
<time>2026-07-17T15:02:23.000Z</time>
|
|
</trkpt>
|
|
<trkpt lat="57.657005" lon="10.461594">
|
|
<ele>20.022349</ele>
|
|
<time>2026-07-17T15:02:24.000Z</time>
|
|
</trkpt>
|
|
<trkpt lat="57.656950" lon="10.461571">
|
|
<ele>20.003036</ele>
|
|
<time>2026-07-17T15:02:25.000Z</time>
|
|
</trkpt>
|
|
<trkpt lat="57.656896" lon="10.461550">
|
|
<ele>19.984135</ele>
|
|
<time>2026-07-17T15:02:26.000Z</time>
|
|
</trkpt>
|
|
<trkpt lat="57.656843" lon="10.461532">
|
|
<ele>19.965676</ele>
|
|
<time>2026-07-17T15:02:27.000Z</time>
|
|
</trkpt>
|
|
<trkpt lat="57.656789" lon="10.461515">
|
|
<ele>19.946911</ele>
|
|
<time>2026-07-17T15:02:28.000Z</time>
|
|
</trkpt>
|
|
<trkpt lat="57.656736" lon="10.461500">
|
|
<ele>19.928542</ele>
|
|
<time>2026-07-17T15:02:29.000Z</time>
|
|
</trkpt>
|
|
<trkpt lat="57.656682" lon="10.461488">
|
|
<ele>19.909908</ele>
|
|
<time>2026-07-17T15:02:30.000Z</time>
|
|
</trkpt>
|
|
<trkpt lat="57.656629" lon="10.461478">
|
|
<ele>19.891654</ele>
|
|
<time>2026-07-17T15:02:31.000Z</time>
|
|
</trkpt>
|
|
<trkpt lat="57.656576" lon="10.461466">
|
|
<ele>19.873359</ele>
|
|
<time>2026-07-17T15:02:32.000Z</time>
|
|
</trkpt>
|
|
<trkpt lat="57.656523" lon="10.461456">
|
|
<ele>19.855105</ele>
|
|
<time>2026-07-17T15:02:33.000Z</time>
|
|
</trkpt>
|
|
<trkpt lat="57.656472" lon="10.461446">
|
|
<ele>19.834841</ele>
|
|
<time>2026-07-17T15:02:34.000Z</time>
|
|
</trkpt>
|
|
<trkpt lat="57.656417" lon="10.461439">
|
|
<ele>19.806659</ele>
|
|
<time>2026-07-17T15:02:35.000Z</time>
|
|
</trkpt>
|
|
<trkpt lat="57.656362" lon="10.461431">
|
|
<ele>19.778457</ele>
|
|
<time>2026-07-17T15:02:36.000Z</time>
|
|
</trkpt>
|
|
<trkpt lat="57.656308" lon="10.461421">
|
|
<ele>19.750717</ele>
|
|
<time>2026-07-17T15:02:37.000Z</time>
|
|
</trkpt>
|
|
<trkpt lat="57.656253" lon="10.461412">
|
|
<ele>19.722492</ele>
|
|
<time>2026-07-17T15:02:38.000Z</time>
|
|
</trkpt>
|
|
<trkpt lat="57.656197" lon="10.461402">
|
|
<ele>19.693734</ele>
|
|
<time>2026-07-17T15:02:39.000Z</time>
|
|
</trkpt>
|
|
<trkpt lat="57.656143" lon="10.461392">
|
|
<ele>19.665993</ele>
|
|
<time>2026-07-17T15:02:40.000Z</time>
|
|
</trkpt>
|
|
<trkpt lat="57.656088" lon="10.461380">
|
|
<ele>19.637685</ele>
|
|
<time>2026-07-17T15:02:41.000Z</time>
|
|
</trkpt>
|
|
<trkpt lat="57.656033" lon="10.461370">
|
|
<ele>19.609436</ele>
|
|
<time>2026-07-17T15:02:42.000Z</time>
|
|
</trkpt>
|
|
<trkpt lat="57.655978" lon="10.461361">
|
|
<ele>19.581211</ele>
|
|
<time>2026-07-17T15:02:43.000Z</time>
|
|
</trkpt>
|
|
<trkpt lat="57.655923" lon="10.461349">
|
|
<ele>19.552904</ele>
|
|
<time>2026-07-17T15:02:44.000Z</time>
|
|
</trkpt>
|
|
<trkpt lat="57.655870" lon="10.461335">
|
|
<ele>19.525540</ele>
|
|
<time>2026-07-17T15:02:45.000Z</time>
|
|
</trkpt>
|
|
<trkpt lat="57.655817" lon="10.461322">
|
|
<ele>19.498213</ele>
|
|
<time>2026-07-17T15:02:46.000Z</time>
|
|
</trkpt>
|
|
<trkpt lat="57.655762" lon="10.461312">
|
|
<ele>19.469964</ele>
|
|
<time>2026-07-17T15:02:47.000Z</time>
|
|
</trkpt>
|
|
<trkpt lat="57.655699" lon="10.461301">
|
|
<ele>19.437617</ele>
|
|
<time>2026-07-17T15:02:48.000Z</time>
|
|
</trkpt>
|
|
<trkpt lat="57.655642" lon="10.461291">
|
|
<ele>19.408350</ele>
|
|
<time>2026-07-17T15:02:49.000Z</time>
|
|
</trkpt>
|
|
<trkpt lat="57.655588" lon="10.461282">
|
|
<ele>19.380635</ele>
|
|
<time>2026-07-17T15:02:50.000Z</time>
|
|
</trkpt>
|
|
<trkpt lat="57.655533" lon="10.461274">
|
|
<ele>19.352433</ele>
|
|
<time>2026-07-17T15:02:51.000Z</time>
|
|
</trkpt>
|
|
<trkpt lat="57.655473" lon="10.461262">
|
|
<ele>19.321585</ele>
|
|
<time>2026-07-17T15:02:52.000Z</time>
|
|
</trkpt>
|
|
<trkpt lat="57.655412" lon="10.461252">
|
|
<ele>19.290281</ele>
|
|
<time>2026-07-17T15:02:53.000Z</time>
|
|
</trkpt>
|
|
<trkpt lat="57.655355" lon="10.461243">
|
|
<ele>19.261038</ele>
|
|
<time>2026-07-17T15:02:54.000Z</time>
|
|
</trkpt>
|
|
<trkpt lat="57.655300" lon="10.461235">
|
|
<ele>19.232836</ele>
|
|
<time>2026-07-17T15:02:55.000Z</time>
|
|
</trkpt>
|
|
<trkpt lat="57.655242" lon="10.461226">
|
|
<ele>19.203083</ele>
|
|
<time>2026-07-17T15:02:56.000Z</time>
|
|
</trkpt>
|
|
<trkpt lat="57.655185" lon="10.461215">
|
|
<ele>19.173789</ele>
|
|
<time>2026-07-17T15:02:57.000Z</time>
|
|
</trkpt>
|
|
<trkpt lat="57.655128" lon="10.461204">
|
|
<ele>19.144495</ele>
|
|
<time>2026-07-17T15:02:58.000Z</time>
|
|
</trkpt>
|
|
<trkpt lat="57.655068" lon="10.461190">
|
|
<ele>19.113584</ele>
|
|
<time>2026-07-17T15:02:59.000Z</time>
|
|
</trkpt>
|
|
<trkpt lat="57.655009" lon="10.461176">
|
|
<ele>19.083180</ele>
|
|
<time>2026-07-17T15:03:00.000Z</time>
|
|
</trkpt>
|
|
<trkpt lat="57.654952" lon="10.461162">
|
|
<ele>19.053791</ele>
|
|
<time>2026-07-17T15:03:01.000Z</time>
|
|
</trkpt>
|
|
<trkpt lat="57.654896" lon="10.461148">
|
|
<ele>19.024908</ele>
|
|
<time>2026-07-17T15:03:02.000Z</time>
|
|
</trkpt>
|
|
<trkpt lat="57.654839" lon="10.461136">
|
|
<ele>18.995584</ele>
|
|
<time>2026-07-17T15:03:03.000Z</time>
|
|
</trkpt>
|
|
<trkpt lat="57.654782" lon="10.461122">
|
|
<ele>18.966194</ele>
|
|
<time>2026-07-17T15:03:04.000Z</time>
|
|
</trkpt>
|
|
<trkpt lat="57.654727" lon="10.461106">
|
|
<ele>18.937739</ele>
|
|
<time>2026-07-17T15:03:05.000Z</time>
|
|
</trkpt>
|
|
<trkpt lat="57.654673" lon="10.461093">
|
|
<ele>18.914236</ele>
|
|
<time>2026-07-17T15:03:06.000Z</time>
|
|
</trkpt>
|
|
<trkpt lat="57.654622" lon="10.461079">
|
|
<ele>18.896272</ele>
|
|
<time>2026-07-17T15:03:07.000Z</time>
|
|
</trkpt>
|
|
<trkpt lat="57.654569" lon="10.461065">
|
|
<ele>18.877619</ele>
|
|
<time>2026-07-17T15:03:08.000Z</time>
|
|
</trkpt>
|
|
<trkpt lat="57.654513" lon="10.461053">
|
|
<ele>18.857975</ele>
|
|
<time>2026-07-17T15:03:09.000Z</time>
|
|
</trkpt>
|
|
<trkpt lat="57.654460" lon="10.461042">
|
|
<ele>18.839391</ele>
|
|
<time>2026-07-17T15:03:10.000Z</time>
|
|
</trkpt>
|
|
<trkpt lat="57.654407" lon="10.461031">
|
|
<ele>18.820807</ele>
|
|
<time>2026-07-17T15:03:11.000Z</time>
|
|
</trkpt>
|
|
<trkpt lat="57.654350" lon="10.461021">
|
|
<ele>18.800856</ele>
|
|
<time>2026-07-17T15:03:12.000Z</time>
|
|
</trkpt>
|
|
<trkpt lat="57.654293" lon="10.461015">
|
|
<ele>18.780960</ele>
|
|
<time>2026-07-17T15:03:13.000Z</time>
|
|
</trkpt>
|
|
<trkpt lat="57.654234" lon="10.461008">
|
|
<ele>18.760357</ele>
|
|
<time>2026-07-17T15:03:14.000Z</time>
|
|
</trkpt>
|
|
<trkpt lat="57.654180" lon="10.460996">
|
|
<ele>18.741406</ele>
|
|
<time>2026-07-17T15:03:15.000Z</time>
|
|
</trkpt>
|
|
<trkpt lat="57.654120" lon="10.460984">
|
|
<ele>18.720377</ele>
|
|
<time>2026-07-17T15:03:16.000Z</time>
|
|
</trkpt>
|
|
<trkpt lat="57.654064" lon="10.460970">
|
|
<ele>18.700687</ele>
|
|
<time>2026-07-17T15:03:17.000Z</time>
|
|
</trkpt>
|
|
<trkpt lat="57.654005" lon="10.460956">
|
|
<ele>18.679961</ele>
|
|
<time>2026-07-17T15:03:18.000Z</time>
|
|
</trkpt>
|
|
<trkpt lat="57.653946" lon="10.460944">
|
|
<ele>18.659278</ele>
|
|
<time>2026-07-17T15:03:19.000Z</time>
|
|
</trkpt>
|
|
<trkpt lat="57.653889" lon="10.460934">
|
|
<ele>18.639326</ele>
|
|
<time>2026-07-17T15:03:20.000Z</time>
|
|
</trkpt>
|
|
<trkpt lat="57.653829" lon="10.460921">
|
|
<ele>18.618277</ele>
|
|
<time>2026-07-17T15:03:21.000Z</time>
|
|
</trkpt>
|
|
<trkpt lat="57.653769" lon="10.460909">
|
|
<ele>18.597247</ele>
|
|
<time>2026-07-17T15:03:22.000Z</time>
|
|
</trkpt>
|
|
<trkpt lat="57.653712" lon="10.460897">
|
|
<ele>18.577257</ele>
|
|
<time>2026-07-17T15:03:23.000Z</time>
|
|
</trkpt>
|
|
<trkpt lat="57.653655" lon="10.460880">
|
|
<ele>18.557142</ele>
|
|
<time>2026-07-17T15:03:24.000Z</time>
|
|
</trkpt>
|
|
<trkpt lat="57.653596" lon="10.460863">
|
|
<ele>18.536338</ele>
|
|
<time>2026-07-17T15:03:25.000Z</time>
|
|
</trkpt>
|
|
<trkpt lat="57.653537" lon="10.460846">
|
|
<ele>18.515533</ele>
|
|
<time>2026-07-17T15:03:26.000Z</time>
|
|
</trkpt>
|
|
<trkpt lat="57.653480" lon="10.460830">
|
|
<ele>18.495446</ele>
|
|
<time>2026-07-17T15:03:27.000Z</time>
|
|
</trkpt>
|
|
<trkpt lat="57.653423" lon="10.460817">
|
|
<ele>18.475435</ele>
|
|
<time>2026-07-17T15:03:28.000Z</time>
|
|
</trkpt>
|
|
<trkpt lat="57.653365" lon="10.460802">
|
|
<ele>18.455029</ele>
|
|
<time>2026-07-17T15:03:29.000Z</time>
|
|
</trkpt>
|
|
<trkpt lat="57.653307" lon="10.460788">
|
|
<ele>18.434649</ele>
|
|
<time>2026-07-17T15:03:30.000Z</time>
|
|
</trkpt>
|
|
<trkpt lat="57.653248" lon="10.460777">
|
|
<ele>18.413985</ele>
|
|
<time>2026-07-17T15:03:31.000Z</time>
|
|
</trkpt>
|
|
<trkpt lat="57.653188" lon="10.460764">
|
|
<ele>18.392935</ele>
|
|
<time>2026-07-17T15:03:32.000Z</time>
|
|
</trkpt>
|
|
<trkpt lat="57.653129" lon="10.460750">
|
|
<ele>18.372209</ele>
|
|
<time>2026-07-17T15:03:33.000Z</time>
|
|
</trkpt>
|
|
<trkpt lat="57.653071" lon="10.460738">
|
|
<ele>18.351873</ele>
|
|
<time>2026-07-17T15:03:34.000Z</time>
|
|
</trkpt>
|
|
<trkpt lat="57.653014" lon="10.460727">
|
|
<ele>18.331903</ele>
|
|
<time>2026-07-17T15:03:35.000Z</time>
|
|
</trkpt>
|
|
<trkpt lat="57.652956" lon="10.460715">
|
|
<ele>18.311567</ele>
|
|
<time>2026-07-17T15:03:36.000Z</time>
|
|
</trkpt>
|
|
<trkpt lat="57.652899" lon="10.460703">
|
|
<ele>18.292756</ele>
|
|
<time>2026-07-17T15:03:37.000Z</time>
|
|
</trkpt>
|
|
<trkpt lat="57.652841" lon="10.460689">
|
|
<ele>18.277073</ele>
|
|
<time>2026-07-17T15:03:38.000Z</time>
|
|
</trkpt>
|
|
<trkpt lat="57.652780" lon="10.460675">
|
|
<ele>18.260592</ele>
|
|
<time>2026-07-17T15:03:39.000Z</time>
|
|
</trkpt>
|
|
<trkpt lat="57.652718" lon="10.460664">
|
|
<ele>18.243891</ele>
|
|
<time>2026-07-17T15:03:40.000Z</time>
|
|
</trkpt>
|
|
<trkpt lat="57.652659" lon="10.460652">
|
|
<ele>18.227976</ele>
|
|
<time>2026-07-17T15:03:41.000Z</time>
|
|
</trkpt>
|
|
<trkpt lat="57.652603" lon="10.460640">
|
|
<ele>18.212860</ele>
|
|
<time>2026-07-17T15:03:42.000Z</time>
|
|
</trkpt>
|
|
<trkpt lat="57.652545" lon="10.460627">
|
|
<ele>18.197195</ele>
|
|
<time>2026-07-17T15:03:43.000Z</time>
|
|
</trkpt>
|
|
<trkpt lat="57.652483" lon="10.460610">
|
|
<ele>18.180391</ele>
|
|
<time>2026-07-17T15:03:44.000Z</time>
|
|
</trkpt>
|
|
<trkpt lat="57.652424" lon="10.460595">
|
|
<ele>18.164424</ele>
|
|
<time>2026-07-17T15:03:45.000Z</time>
|
|
</trkpt>
|
|
<trkpt lat="57.652364" lon="10.460584">
|
|
<ele>18.148257</ele>
|
|
<time>2026-07-17T15:03:46.000Z</time>
|
|
</trkpt>
|
|
<trkpt lat="57.652303" lon="10.460575">
|
|
<ele>18.131848</ele>
|
|
<time>2026-07-17T15:03:47.000Z</time>
|
|
</trkpt>
|
|
<trkpt lat="57.652244" lon="10.460570">
|
|
<ele>18.116010</ele>
|
|
<time>2026-07-17T15:03:48.000Z</time>
|
|
</trkpt>
|
|
<trkpt lat="57.652184" lon="10.460566">
|
|
<ele>18.099910</ele>
|
|
<time>2026-07-17T15:03:49.000Z</time>
|
|
</trkpt>
|
|
<trkpt lat="57.652121" lon="10.460559">
|
|
<ele>18.082986</ele>
|
|
<time>2026-07-17T15:03:50.000Z</time>
|
|
</trkpt>
|
|
<trkpt lat="57.652056" lon="10.460554">
|
|
<ele>18.065540</ele>
|
|
<time>2026-07-17T15:03:51.000Z</time>
|
|
</trkpt>
|
|
<trkpt lat="57.651990" lon="10.460550">
|
|
<ele>18.047832</ele>
|
|
<time>2026-07-17T15:03:52.000Z</time>
|
|
</trkpt>
|
|
<trkpt lat="57.651926" lon="10.460549">
|
|
<ele>18.030669</ele>
|
|
<time>2026-07-17T15:03:53.000Z</time>
|
|
</trkpt>
|
|
<trkpt lat="57.651859" lon="10.460552">
|
|
<ele>18.012697</ele>
|
|
<time>2026-07-17T15:03:54.000Z</time>
|
|
</trkpt>
|
|
<trkpt lat="57.651795" lon="10.460556">
|
|
<ele>17.995525</ele>
|
|
<time>2026-07-17T15:03:55.000Z</time>
|
|
</trkpt>
|
|
<trkpt lat="57.651731" lon="10.460560">
|
|
<ele>17.978353</ele>
|
|
<time>2026-07-17T15:03:56.000Z</time>
|
|
</trkpt>
|
|
<trkpt lat="57.651668" lon="10.460567">
|
|
<ele>17.961428</ele>
|
|
<time>2026-07-17T15:03:57.000Z</time>
|
|
</trkpt>
|
|
<trkpt lat="57.651606" lon="10.460580">
|
|
<ele>17.944698</ele>
|
|
<time>2026-07-17T15:03:58.000Z</time>
|
|
</trkpt>
|
|
<trkpt lat="57.651548" lon="10.460596">
|
|
<ele>17.928976</ele>
|
|
<time>2026-07-17T15:03:59.000Z</time>
|
|
</trkpt>
|
|
<trkpt lat="57.651488" lon="10.460610">
|
|
<ele>17.912761</ele>
|
|
<time>2026-07-17T15:04:00.000Z</time>
|
|
</trkpt>
|
|
<trkpt lat="57.651429" lon="10.460624">
|
|
<ele>17.896812</ele>
|
|
<time>2026-07-17T15:04:01.000Z</time>
|
|
</trkpt>
|
|
<trkpt lat="57.651370" lon="10.460642">
|
|
<ele>17.880781</ele>
|
|
<time>2026-07-17T15:04:02.000Z</time>
|
|
</trkpt>
|
|
<trkpt lat="57.651310" lon="10.460664">
|
|
<ele>17.864385</ele>
|
|
<time>2026-07-17T15:04:03.000Z</time>
|
|
</trkpt>
|
|
<trkpt lat="57.651246" lon="10.460688">
|
|
<ele>17.846880</ele>
|
|
<time>2026-07-17T15:04:04.000Z</time>
|
|
</trkpt>
|
|
<trkpt lat="57.651188" lon="10.460711">
|
|
<ele>17.830980</ele>
|
|
<time>2026-07-17T15:04:05.000Z</time>
|
|
</trkpt>
|
|
<trkpt lat="57.651132" lon="10.460734">
|
|
<ele>17.815605</ele>
|
|
<time>2026-07-17T15:04:06.000Z</time>
|
|
</trkpt>
|
|
<trkpt lat="57.651074" lon="10.460760">
|
|
<ele>17.764471</ele>
|
|
<time>2026-07-17T15:04:07.000Z</time>
|
|
</trkpt>
|
|
<trkpt lat="57.651019" lon="10.460784">
|
|
<ele>17.713242</ele>
|
|
<time>2026-07-17T15:04:08.000Z</time>
|
|
</trkpt>
|
|
<trkpt lat="57.650965" lon="10.460806">
|
|
<ele>17.663112</ele>
|
|
<time>2026-07-17T15:04:09.000Z</time>
|
|
</trkpt>
|
|
<trkpt lat="57.650916" lon="10.460827">
|
|
<ele>17.617513</ele>
|
|
<time>2026-07-17T15:04:10.000Z</time>
|
|
</trkpt>
|
|
<trkpt lat="57.650866" lon="10.460845">
|
|
<ele>17.571328</ele>
|
|
<time>2026-07-17T15:04:11.000Z</time>
|
|
</trkpt>
|
|
<trkpt lat="57.650819" lon="10.460863">
|
|
<ele>17.527811</ele>
|
|
<time>2026-07-17T15:04:12.000Z</time>
|
|
</trkpt>
|
|
<trkpt lat="57.650774" lon="10.460878">
|
|
<ele>17.486351</ele>
|
|
<time>2026-07-17T15:04:13.000Z</time>
|
|
</trkpt>
|
|
<trkpt lat="57.650730" lon="10.460891">
|
|
<ele>17.445945</ele>
|
|
<time>2026-07-17T15:04:14.000Z</time>
|
|
</trkpt>
|
|
<trkpt lat="57.650686" lon="10.460902">
|
|
<ele>17.405680</ele>
|
|
<time>2026-07-17T15:04:15.000Z</time>
|
|
</trkpt>
|
|
<trkpt lat="57.650646" lon="10.460916">
|
|
<ele>17.368768</ele>
|
|
<time>2026-07-17T15:04:16.000Z</time>
|
|
</trkpt>
|
|
<trkpt lat="57.650607" lon="10.460932">
|
|
<ele>17.332551</ele>
|
|
<time>2026-07-17T15:04:17.000Z</time>
|
|
</trkpt>
|
|
<trkpt lat="57.650573" lon="10.460955">
|
|
<ele>17.299754</ele>
|
|
<time>2026-07-17T15:04:18.000Z</time>
|
|
</trkpt>
|
|
<trkpt lat="57.650544" lon="10.460990">
|
|
<ele>17.268442</ele>
|
|
<time>2026-07-17T15:04:19.000Z</time>
|
|
</trkpt>
|
|
<trkpt lat="57.650515" lon="10.461028">
|
|
<ele>17.236316</ele>
|
|
<time>2026-07-17T15:04:20.000Z</time>
|
|
</trkpt>
|
|
<trkpt lat="57.650478" lon="10.461062">
|
|
<ele>17.198918</ele>
|
|
<time>2026-07-17T15:04:21.000Z</time>
|
|
</trkpt>
|
|
<trkpt lat="57.650436" lon="10.461093">
|
|
<ele>17.157959</ele>
|
|
<time>2026-07-17T15:04:22.000Z</time>
|
|
</trkpt>
|
|
<trkpt lat="57.650387" lon="10.461120">
|
|
<ele>17.111623</ele>
|
|
<time>2026-07-17T15:04:23.000Z</time>
|
|
</trkpt>
|
|
<trkpt lat="57.650335" lon="10.461141">
|
|
<ele>17.063369</ele>
|
|
<time>2026-07-17T15:04:24.000Z</time>
|
|
</trkpt>
|
|
<trkpt lat="57.650285" lon="10.461160">
|
|
<ele>17.017089</ele>
|
|
<time>2026-07-17T15:04:25.000Z</time>
|
|
</trkpt>
|
|
<trkpt lat="57.650232" lon="10.461181">
|
|
<ele>16.967947</ele>
|
|
<time>2026-07-17T15:04:26.000Z</time>
|
|
</trkpt>
|
|
<trkpt lat="57.650180" lon="10.461205">
|
|
<ele>16.919364</ele>
|
|
<time>2026-07-17T15:04:27.000Z</time>
|
|
</trkpt>
|
|
<trkpt lat="57.650130" lon="10.461237">
|
|
<ele>16.871427</ele>
|
|
<time>2026-07-17T15:04:28.000Z</time>
|
|
</trkpt>
|
|
<trkpt lat="57.650078" lon="10.461269">
|
|
<ele>16.821770</ele>
|
|
<time>2026-07-17T15:04:29.000Z</time>
|
|
</trkpt>
|
|
<trkpt lat="57.650020" lon="10.461303">
|
|
<ele>16.766634</ele>
|
|
<time>2026-07-17T15:04:30.000Z</time>
|
|
</trkpt>
|
|
<trkpt lat="57.649963" lon="10.461336">
|
|
<ele>16.712509</ele>
|
|
<time>2026-07-17T15:04:31.000Z</time>
|
|
</trkpt>
|
|
<trkpt lat="57.649904" lon="10.461367">
|
|
<ele>16.656919</ele>
|
|
<time>2026-07-17T15:04:32.000Z</time>
|
|
</trkpt>
|
|
<trkpt lat="57.649845" lon="10.461396">
|
|
<ele>16.601584</ele>
|
|
<time>2026-07-17T15:04:33.000Z</time>
|
|
</trkpt>
|
|
<trkpt lat="57.649788" lon="10.461422">
|
|
<ele>16.548365</ele>
|
|
<time>2026-07-17T15:04:34.000Z</time>
|
|
</trkpt>
|
|
<trkpt lat="57.649732" lon="10.461448">
|
|
<ele>16.496027</ele>
|
|
<time>2026-07-17T15:04:35.000Z</time>
|
|
</trkpt>
|
|
<trkpt lat="57.649677" lon="10.461475">
|
|
<ele>16.444448</ele>
|
|
<time>2026-07-17T15:04:36.000Z</time>
|
|
</trkpt>
|
|
<trkpt lat="57.649619" lon="10.461506">
|
|
<ele>16.389730</ele>
|
|
<time>2026-07-17T15:04:37.000Z</time>
|
|
</trkpt>
|
|
<trkpt lat="57.649558" lon="10.461538">
|
|
<ele>16.332262</ele>
|
|
<time>2026-07-17T15:04:38.000Z</time>
|
|
</trkpt>
|
|
<trkpt lat="57.649499" lon="10.461571">
|
|
<ele>16.276402</ele>
|
|
<time>2026-07-17T15:04:39.000Z</time>
|
|
</trkpt>
|
|
<trkpt lat="57.649440" lon="10.461606">
|
|
<ele>16.220255</ele>
|
|
<time>2026-07-17T15:04:40.000Z</time>
|
|
</trkpt>
|
|
<trkpt lat="57.649383" lon="10.461639">
|
|
<ele>16.174332</ele>
|
|
<time>2026-07-17T15:04:41.000Z</time>
|
|
</trkpt>
|
|
<trkpt lat="57.649326" lon="10.461669">
|
|
<ele>16.146849</ele>
|
|
<time>2026-07-17T15:04:42.000Z</time>
|
|
</trkpt>
|
|
<trkpt lat="57.649268" lon="10.461694">
|
|
<ele>16.119225</ele>
|
|
<time>2026-07-17T15:04:43.000Z</time>
|
|
</trkpt>
|
|
<trkpt lat="57.649209" lon="10.461716">
|
|
<ele>16.091304</ele>
|
|
<time>2026-07-17T15:04:44.000Z</time>
|
|
</trkpt>
|
|
<trkpt lat="57.649150" lon="10.461735">
|
|
<ele>16.063519</ele>
|
|
<time>2026-07-17T15:04:45.000Z</time>
|
|
</trkpt>
|
|
<trkpt lat="57.649094" lon="10.461753">
|
|
<ele>16.037148</ele>
|
|
<time>2026-07-17T15:04:46.000Z</time>
|
|
</trkpt>
|
|
<trkpt lat="57.649036" lon="10.461774">
|
|
<ele>16.009730</ele>
|
|
<time>2026-07-17T15:04:47.000Z</time>
|
|
</trkpt>
|
|
<trkpt lat="57.648977" lon="10.461795">
|
|
<ele>15.981857</ele>
|
|
<time>2026-07-17T15:04:48.000Z</time>
|
|
</trkpt>
|
|
<trkpt lat="57.648919" lon="10.461811">
|
|
<ele>15.954648</ele>
|
|
<time>2026-07-17T15:04:49.000Z</time>
|
|
</trkpt>
|
|
<trkpt lat="57.648861" lon="10.461825">
|
|
<ele>15.927507</ele>
|
|
<time>2026-07-17T15:04:50.000Z</time>
|
|
</trkpt>
|
|
<trkpt lat="57.648806" lon="10.461837">
|
|
<ele>15.901808</ele>
|
|
<time>2026-07-17T15:04:51.000Z</time>
|
|
</trkpt>
|
|
<trkpt lat="57.648752" lon="10.461847">
|
|
<ele>15.876625</ele>
|
|
<time>2026-07-17T15:04:52.000Z</time>
|
|
</trkpt>
|
|
<trkpt lat="57.648697" lon="10.461855">
|
|
<ele>15.851022</ele>
|
|
<time>2026-07-17T15:04:53.000Z</time>
|
|
</trkpt>
|
|
<trkpt lat="57.648643" lon="10.461861">
|
|
<ele>15.825917</ele>
|
|
<time>2026-07-17T15:04:54.000Z</time>
|
|
</trkpt>
|
|
<trkpt lat="57.648595" lon="10.461868">
|
|
<ele>15.803573</ele>
|
|
<time>2026-07-17T15:04:55.000Z</time>
|
|
</trkpt>
|
|
<trkpt lat="57.648541" lon="10.461872">
|
|
<ele>15.778492</ele>
|
|
<time>2026-07-17T15:04:56.000Z</time>
|
|
</trkpt>
|
|
<trkpt lat="57.648482" lon="10.461872">
|
|
<ele>15.751111</ele>
|
|
<time>2026-07-17T15:04:57.000Z</time>
|
|
</trkpt>
|
|
<trkpt lat="57.648426" lon="10.461874">
|
|
<ele>15.725117</ele>
|
|
<time>2026-07-17T15:04:58.000Z</time>
|
|
</trkpt>
|
|
<trkpt lat="57.648375" lon="10.461875">
|
|
<ele>15.701447</ele>
|
|
<time>2026-07-17T15:04:59.000Z</time>
|
|
</trkpt>
|
|
<trkpt lat="57.648312" lon="10.461877">
|
|
<ele>15.672205</ele>
|
|
<time>2026-07-17T15:05:00.000Z</time>
|
|
</trkpt>
|
|
<trkpt lat="57.648257" lon="10.461878">
|
|
<ele>15.646679</ele>
|
|
<time>2026-07-17T15:05:01.000Z</time>
|
|
</trkpt>
|
|
<trkpt lat="57.648202" lon="10.461875">
|
|
<ele>15.621143</ele>
|
|
<time>2026-07-17T15:05:02.000Z</time>
|
|
</trkpt>
|
|
<trkpt lat="57.648148" lon="10.461861">
|
|
<ele>15.595842</ele>
|
|
<time>2026-07-17T15:05:03.000Z</time>
|
|
</trkpt>
|
|
<trkpt lat="57.648100" lon="10.461832">
|
|
<ele>15.572430</ele>
|
|
<time>2026-07-17T15:05:04.000Z</time>
|
|
</trkpt>
|
|
<trkpt lat="57.648058" lon="10.461785">
|
|
<ele>15.549711</ele>
|
|
<time>2026-07-17T15:05:05.000Z</time>
|
|
</trkpt>
|
|
<trkpt lat="57.648016" lon="10.461725">
|
|
<ele>15.525176</ele>
|
|
<time>2026-07-17T15:05:06.000Z</time>
|
|
</trkpt>
|
|
<trkpt lat="57.647975" lon="10.461665">
|
|
<ele>15.501008</ele>
|
|
<time>2026-07-17T15:05:07.000Z</time>
|
|
</trkpt>
|
|
<trkpt lat="57.647936" lon="10.461611">
|
|
<ele>15.478482</ele>
|
|
<time>2026-07-17T15:05:08.000Z</time>
|
|
</trkpt>
|
|
<trkpt lat="57.647892" lon="10.461569">
|
|
<ele>15.455552</ele>
|
|
<time>2026-07-17T15:05:09.000Z</time>
|
|
</trkpt>
|
|
<trkpt lat="57.647842" lon="10.461539">
|
|
<ele>15.431180</ele>
|
|
<time>2026-07-17T15:05:10.000Z</time>
|
|
</trkpt>
|
|
<trkpt lat="57.647790" lon="10.461520">
|
|
<ele>15.406591</ele>
|
|
<time>2026-07-17T15:05:11.000Z</time>
|
|
</trkpt>
|
|
<trkpt lat="57.647734" lon="10.461512">
|
|
<ele>15.380526</ele>
|
|
<time>2026-07-17T15:05:12.000Z</time>
|
|
</trkpt>
|
|
<trkpt lat="57.647675" lon="10.461510">
|
|
<ele>15.353140</ele>
|
|
<time>2026-07-17T15:05:13.000Z</time>
|
|
</trkpt>
|
|
<trkpt lat="57.647616" lon="10.461511">
|
|
<ele>15.325285</ele>
|
|
<time>2026-07-17T15:05:14.000Z</time>
|
|
</trkpt>
|
|
<trkpt lat="57.647556" lon="10.461514">
|
|
<ele>15.296844</ele>
|
|
<time>2026-07-17T15:05:15.000Z</time>
|
|
</trkpt>
|
|
<trkpt lat="57.647489" lon="10.461519">
|
|
<ele>15.265070</ele>
|
|
<time>2026-07-17T15:05:16.000Z</time>
|
|
</trkpt>
|
|
<trkpt lat="57.647426" lon="10.461528">
|
|
<ele>15.235130</ele>
|
|
<time>2026-07-17T15:05:17.000Z</time>
|
|
</trkpt>
|
|
<trkpt lat="57.647365" lon="10.461540">
|
|
<ele>15.206064</ele>
|
|
<time>2026-07-17T15:05:18.000Z</time>
|
|
</trkpt>
|
|
<trkpt lat="57.647305" lon="10.461555">
|
|
<ele>15.177380</ele>
|
|
<time>2026-07-17T15:05:19.000Z</time>
|
|
</trkpt>
|
|
<trkpt lat="57.647255" lon="10.461565">
|
|
<ele>15.153551</ele>
|
|
<time>2026-07-17T15:05:20.000Z</time>
|
|
</trkpt>
|
|
<trkpt lat="57.647206" lon="10.461570">
|
|
<ele>15.130298</ele>
|
|
<time>2026-07-17T15:05:21.000Z</time>
|
|
</trkpt>
|
|
<trkpt lat="57.647150" lon="10.461570">
|
|
<ele>15.103762</ele>
|
|
<time>2026-07-17T15:05:22.000Z</time>
|
|
</trkpt>
|
|
<trkpt lat="57.647099" lon="10.461569">
|
|
<ele>15.079594</ele>
|
|
<time>2026-07-17T15:05:23.000Z</time>
|
|
</trkpt>
|
|
<trkpt lat="57.647051" lon="10.461566">
|
|
<ele>15.056836</ele>
|
|
<time>2026-07-17T15:05:24.000Z</time>
|
|
</trkpt>
|
|
<trkpt lat="57.646987" lon="10.461559">
|
|
<ele>15.026457</ele>
|
|
<time>2026-07-17T15:05:25.000Z</time>
|
|
</trkpt>
|
|
<trkpt lat="57.646927" lon="10.461556">
|
|
<ele>14.998015</ele>
|
|
<time>2026-07-17T15:05:26.000Z</time>
|
|
</trkpt>
|
|
<trkpt lat="57.646864" lon="10.461560">
|
|
<ele>14.968145</ele>
|
|
<time>2026-07-17T15:05:27.000Z</time>
|
|
</trkpt>
|
|
<trkpt lat="57.646803" lon="10.461575">
|
|
<ele>14.938990</ele>
|
|
<time>2026-07-17T15:05:28.000Z</time>
|
|
</trkpt>
|
|
<trkpt lat="57.646743" lon="10.461592">
|
|
<ele>14.910234</ele>
|
|
<time>2026-07-17T15:05:29.000Z</time>
|
|
</trkpt>
|
|
<trkpt lat="57.646684" lon="10.461604">
|
|
<ele>14.882111</ele>
|
|
<time>2026-07-17T15:05:30.000Z</time>
|
|
</trkpt>
|
|
<trkpt lat="57.646623" lon="10.461611">
|
|
<ele>14.853151</ele>
|
|
<time>2026-07-17T15:05:31.000Z</time>
|
|
</trkpt>
|
|
<trkpt lat="57.646562" lon="10.461620">
|
|
<ele>14.824156</ele>
|
|
<time>2026-07-17T15:05:32.000Z</time>
|
|
</trkpt>
|
|
<trkpt lat="57.646502" lon="10.461629">
|
|
<ele>14.795633</ele>
|
|
<time>2026-07-17T15:05:33.000Z</time>
|
|
</trkpt>
|
|
<trkpt lat="57.646440" lon="10.461633">
|
|
<ele>14.766236</ele>
|
|
<time>2026-07-17T15:05:34.000Z</time>
|
|
</trkpt>
|
|
<trkpt lat="57.646379" lon="10.461637">
|
|
<ele>14.737313</ele>
|
|
<time>2026-07-17T15:05:35.000Z</time>
|
|
</trkpt>
|
|
<trkpt lat="57.646321" lon="10.461644">
|
|
<ele>14.709772</ele>
|
|
<time>2026-07-17T15:05:36.000Z</time>
|
|
</trkpt>
|
|
<trkpt lat="57.646267" lon="10.461651">
|
|
<ele>14.684122</ele>
|
|
<time>2026-07-17T15:05:37.000Z</time>
|
|
</trkpt>
|
|
<trkpt lat="57.646211" lon="10.461655">
|
|
<ele>14.657567</ele>
|
|
<time>2026-07-17T15:05:38.000Z</time>
|
|
</trkpt>
|
|
<trkpt lat="57.646149" lon="10.461657">
|
|
<ele>14.628183</ele>
|
|
<time>2026-07-17T15:05:39.000Z</time>
|
|
</trkpt>
|
|
<trkpt lat="57.646084" lon="10.461662">
|
|
<ele>14.597357</ele>
|
|
<time>2026-07-17T15:05:40.000Z</time>
|
|
</trkpt>
|
|
<trkpt lat="57.646019" lon="10.461674">
|
|
<ele>14.566406</ele>
|
|
<time>2026-07-17T15:05:41.000Z</time>
|
|
</trkpt>
|
|
<trkpt lat="57.645955" lon="10.461690">
|
|
<ele>14.535809</ele>
|
|
<time>2026-07-17T15:05:42.000Z</time>
|
|
</trkpt>
|
|
<trkpt lat="57.645891" lon="10.461706">
|
|
<ele>14.505212</ele>
|
|
<time>2026-07-17T15:05:43.000Z</time>
|
|
</trkpt>
|
|
<trkpt lat="57.645826" lon="10.461721">
|
|
<ele>14.479803</ele>
|
|
<time>2026-07-17T15:05:44.000Z</time>
|
|
</trkpt>
|
|
<trkpt lat="57.645766" lon="10.461738">
|
|
<ele>14.458498</ele>
|
|
<time>2026-07-17T15:05:45.000Z</time>
|
|
</trkpt>
|
|
<trkpt lat="57.645702" lon="10.461753">
|
|
<ele>14.435853</ele>
|
|
<time>2026-07-17T15:05:46.000Z</time>
|
|
</trkpt>
|
|
<trkpt lat="57.645639" lon="10.461762">
|
|
<ele>14.413672</ele>
|
|
<time>2026-07-17T15:05:47.000Z</time>
|
|
</trkpt>
|
|
<trkpt lat="57.645578" lon="10.461766">
|
|
<ele>14.392243</ele>
|
|
<time>2026-07-17T15:05:48.000Z</time>
|
|
</trkpt>
|
|
<trkpt lat="57.645519" lon="10.461764">
|
|
<ele>14.371527</ele>
|
|
<time>2026-07-17T15:05:49.000Z</time>
|
|
</trkpt>
|
|
<trkpt lat="57.645463" lon="10.461761">
|
|
<ele>14.351859</ele>
|
|
<time>2026-07-17T15:05:50.000Z</time>
|
|
</trkpt>
|
|
<trkpt lat="57.645407" lon="10.461758">
|
|
<ele>14.332191</ele>
|
|
<time>2026-07-17T15:05:51.000Z</time>
|
|
</trkpt>
|
|
<trkpt lat="57.645355" lon="10.461757">
|
|
<ele>14.313935</ele>
|
|
<time>2026-07-17T15:05:52.000Z</time>
|
|
</trkpt>
|
|
<trkpt lat="57.645303" lon="10.461760">
|
|
<ele>14.295671</ele>
|
|
<time>2026-07-17T15:05:53.000Z</time>
|
|
</trkpt>
|
|
<trkpt lat="57.645251" lon="10.461764">
|
|
<ele>14.277400</ele>
|
|
<time>2026-07-17T15:05:54.000Z</time>
|
|
</trkpt>
|
|
<trkpt lat="57.645199" lon="10.461771">
|
|
<ele>14.259097</ele>
|
|
<time>2026-07-17T15:05:55.000Z</time>
|
|
</trkpt>
|
|
<trkpt lat="57.645149" lon="10.461779">
|
|
<ele>14.241479</ele>
|
|
<time>2026-07-17T15:05:56.000Z</time>
|
|
</trkpt>
|
|
<trkpt lat="57.645103" lon="10.461791">
|
|
<ele>14.225174</ele>
|
|
<time>2026-07-17T15:05:57.000Z</time>
|
|
</trkpt>
|
|
<trkpt lat="57.645059" lon="10.461805">
|
|
<ele>14.209504</ele>
|
|
<time>2026-07-17T15:05:58.000Z</time>
|
|
</trkpt>
|
|
<trkpt lat="57.645017" lon="10.461815">
|
|
<ele>14.194640</ele>
|
|
<time>2026-07-17T15:05:59.000Z</time>
|
|
</trkpt>
|
|
<trkpt lat="57.644973" lon="10.461818">
|
|
<ele>14.179183</ele>
|
|
<time>2026-07-17T15:06:00.000Z</time>
|
|
</trkpt>
|
|
<trkpt lat="57.644930" lon="10.461823">
|
|
<ele>14.164058</ele>
|
|
<time>2026-07-17T15:06:01.000Z</time>
|
|
</trkpt>
|
|
<trkpt lat="57.644885" lon="10.461829">
|
|
<ele>14.148220</ele>
|
|
<time>2026-07-17T15:06:02.000Z</time>
|
|
</trkpt>
|
|
<trkpt lat="57.644836" lon="10.461831">
|
|
<ele>14.131013</ele>
|
|
<time>2026-07-17T15:06:03.000Z</time>
|
|
</trkpt>
|
|
<trkpt lat="57.644792" lon="10.461835">
|
|
<ele>14.115548</ele>
|
|
<time>2026-07-17T15:06:04.000Z</time>
|
|
</trkpt>
|
|
<trkpt lat="57.644748" lon="10.461842">
|
|
<ele>14.100045</ele>
|
|
<time>2026-07-17T15:06:05.000Z</time>
|
|
</trkpt>
|
|
<trkpt lat="57.644705" lon="10.461850">
|
|
<ele>14.084875</ele>
|
|
<time>2026-07-17T15:06:06.000Z</time>
|
|
</trkpt>
|
|
<trkpt lat="57.644664" lon="10.461859">
|
|
<ele>14.070382</ele>
|
|
<time>2026-07-17T15:06:07.000Z</time>
|
|
</trkpt>
|
|
<trkpt lat="57.644623" lon="10.461863">
|
|
<ele>14.055969</ele>
|
|
<time>2026-07-17T15:06:08.000Z</time>
|
|
</trkpt>
|
|
<trkpt lat="57.644584" lon="10.461859">
|
|
<ele>14.042256</ele>
|
|
<time>2026-07-17T15:06:09.000Z</time>
|
|
</trkpt>
|
|
<trkpt lat="57.644538" lon="10.461859">
|
|
<ele>14.026107</ele>
|
|
<time>2026-07-17T15:06:10.000Z</time>
|
|
</trkpt>
|
|
<trkpt lat="57.644498" lon="10.461854">
|
|
<ele>14.012033</ele>
|
|
<time>2026-07-17T15:06:11.000Z</time>
|
|
</trkpt>
|
|
<trkpt lat="57.644456" lon="10.461844">
|
|
<ele>13.997169</ele>
|
|
<time>2026-07-17T15:06:12.000Z</time>
|
|
</trkpt>
|
|
<trkpt lat="57.644416" lon="10.461831">
|
|
<ele>13.982916</ele>
|
|
<time>2026-07-17T15:06:13.000Z</time>
|
|
</trkpt>
|
|
<trkpt lat="57.644378" lon="10.461810">
|
|
<ele>13.969004</ele>
|
|
<time>2026-07-17T15:06:14.000Z</time>
|
|
</trkpt>
|
|
<trkpt lat="57.644343" lon="10.461777">
|
|
<ele>13.955241</ele>
|
|
<time>2026-07-17T15:06:15.000Z</time>
|
|
</trkpt>
|
|
<trkpt lat="57.644316" lon="10.461730">
|
|
<ele>13.942286</ele>
|
|
<time>2026-07-17T15:06:16.000Z</time>
|
|
</trkpt>
|
|
<trkpt lat="57.644295" lon="10.461675">
|
|
<ele>13.929592</ele>
|
|
<time>2026-07-17T15:06:17.000Z</time>
|
|
</trkpt>
|
|
<trkpt lat="57.644279" lon="10.461619">
|
|
<ele>13.917665</ele>
|
|
<time>2026-07-17T15:06:18.000Z</time>
|
|
</trkpt>
|
|
<trkpt lat="57.644266" lon="10.461575">
|
|
<ele>13.908223</ele>
|
|
<time>2026-07-17T15:06:19.000Z</time>
|
|
</trkpt>
|
|
<trkpt lat="57.644246" lon="10.461543">
|
|
<ele>13.898979</ele>
|
|
<time>2026-07-17T15:06:20.000Z</time>
|
|
</trkpt>
|
|
<trkpt lat="57.644221" lon="10.461515">
|
|
<ele>13.888746</ele>
|
|
<time>2026-07-17T15:06:21.000Z</time>
|
|
</trkpt>
|
|
<trkpt lat="57.644194" lon="10.461491">
|
|
<ele>13.878250</ele>
|
|
<time>2026-07-17T15:06:22.000Z</time>
|
|
</trkpt>
|
|
<trkpt lat="57.644164" lon="10.461475">
|
|
<ele>13.867297</ele>
|
|
<time>2026-07-17T15:06:23.000Z</time>
|
|
</trkpt>
|
|
<trkpt lat="57.644131" lon="10.461468">
|
|
<ele>13.859994</ele>
|
|
<time>2026-07-17T15:06:24.000Z</time>
|
|
</trkpt>
|
|
<trkpt lat="57.644097" lon="10.461468">
|
|
<ele>13.853964</ele>
|
|
<time>2026-07-17T15:06:25.000Z</time>
|
|
</trkpt>
|
|
<trkpt lat="57.644063" lon="10.461474">
|
|
<ele>13.847908</ele>
|
|
<time>2026-07-17T15:06:26.000Z</time>
|
|
</trkpt>
|
|
<trkpt lat="57.644026" lon="10.461484">
|
|
<ele>13.841278</ele>
|
|
<time>2026-07-17T15:06:27.000Z</time>
|
|
</trkpt>
|
|
<trkpt lat="57.643984" lon="10.461493">
|
|
<ele>13.833780</ele>
|
|
<time>2026-07-17T15:06:28.000Z</time>
|
|
</trkpt>
|
|
<trkpt lat="57.643940" lon="10.461500">
|
|
<ele>13.825949</ele>
|
|
<time>2026-07-17T15:06:29.000Z</time>
|
|
</trkpt>
|
|
<trkpt lat="57.643894" lon="10.461506">
|
|
<ele>13.817771</ele>
|
|
<time>2026-07-17T15:06:30.000Z</time>
|
|
</trkpt>
|
|
<trkpt lat="57.643850" lon="10.461512">
|
|
<ele>13.809947</ele>
|
|
<time>2026-07-17T15:06:31.000Z</time>
|
|
</trkpt>
|
|
<trkpt lat="57.643806" lon="10.461515">
|
|
<ele>13.802138</ele>
|
|
<time>2026-07-17T15:06:32.000Z</time>
|
|
</trkpt>
|
|
<trkpt lat="57.643760" lon="10.461513">
|
|
<ele>13.793978</ele>
|
|
<time>2026-07-17T15:06:33.000Z</time>
|
|
</trkpt>
|
|
<trkpt lat="57.643714" lon="10.461509">
|
|
<ele>13.785811</ele>
|
|
<time>2026-07-17T15:06:34.000Z</time>
|
|
</trkpt>
|
|
<trkpt lat="57.643668" lon="10.461504">
|
|
<ele>13.777639</ele>
|
|
<time>2026-07-17T15:06:35.000Z</time>
|
|
</trkpt>
|
|
<trkpt lat="57.643621" lon="10.461503">
|
|
<ele>13.769303</ele>
|
|
<time>2026-07-17T15:06:36.000Z</time>
|
|
</trkpt>
|
|
<trkpt lat="57.643575" lon="10.461504">
|
|
<ele>13.761145</ele>
|
|
<time>2026-07-17T15:06:37.000Z</time>
|
|
</trkpt>
|
|
<trkpt lat="57.643531" lon="10.461504">
|
|
<ele>13.753341</ele>
|
|
<time>2026-07-17T15:06:38.000Z</time>
|
|
</trkpt>
|
|
<trkpt lat="57.643489" lon="10.461500">
|
|
<ele>13.745883</ele>
|
|
<time>2026-07-17T15:06:39.000Z</time>
|
|
</trkpt>
|
|
<trkpt lat="57.643443" lon="10.461490">
|
|
<ele>13.737670</ele>
|
|
<time>2026-07-17T15:06:40.000Z</time>
|
|
</trkpt>
|
|
<trkpt lat="57.643386" lon="10.461467">
|
|
<ele>13.727328</ele>
|
|
<time>2026-07-17T15:06:41.000Z</time>
|
|
</trkpt>
|
|
<trkpt lat="57.643337" lon="10.461439">
|
|
<ele>13.718241</ele>
|
|
<time>2026-07-17T15:06:42.000Z</time>
|
|
</trkpt>
|
|
<trkpt lat="57.643284" lon="10.461410">
|
|
<ele>13.708446</ele>
|
|
<time>2026-07-17T15:06:43.000Z</time>
|
|
</trkpt>
|
|
<trkpt lat="57.643229" lon="10.461381">
|
|
<ele>13.698311</ele>
|
|
<time>2026-07-17T15:06:44.000Z</time>
|
|
</trkpt>
|
|
<trkpt lat="57.643174" lon="10.461354">
|
|
<ele>13.688226</ele>
|
|
<time>2026-07-17T15:06:45.000Z</time>
|
|
</trkpt>
|
|
<trkpt lat="57.643118" lon="10.461327">
|
|
<ele>13.677969</ele>
|
|
<time>2026-07-17T15:06:46.000Z</time>
|
|
</trkpt>
|
|
<trkpt lat="57.643060" lon="10.461292">
|
|
<ele>13.667160</ele>
|
|
<time>2026-07-17T15:06:47.000Z</time>
|
|
</trkpt>
|
|
<trkpt lat="57.643009" lon="10.461250">
|
|
<ele>13.657276</ele>
|
|
<time>2026-07-17T15:06:48.000Z</time>
|
|
</trkpt>
|
|
<trkpt lat="57.642960" lon="10.461207">
|
|
<ele>13.647675</ele>
|
|
<time>2026-07-17T15:06:49.000Z</time>
|
|
</trkpt>
|
|
<trkpt lat="57.642913" lon="10.461164">
|
|
<ele>13.638394</ele>
|
|
<time>2026-07-17T15:06:50.000Z</time>
|
|
</trkpt>
|
|
<trkpt lat="57.642870" lon="10.461120">
|
|
<ele>13.629699</ele>
|
|
<time>2026-07-17T15:06:51.000Z</time>
|
|
</trkpt>
|
|
<trkpt lat="57.642828" lon="10.461074">
|
|
<ele>13.621065</ele>
|
|
<time>2026-07-17T15:06:52.000Z</time>
|
|
</trkpt>
|
|
<trkpt lat="57.642787" lon="10.461031">
|
|
<ele>13.612727</ele>
|
|
<time>2026-07-17T15:06:53.000Z</time>
|
|
</trkpt>
|
|
<trkpt lat="57.642747" lon="10.460998">
|
|
<ele>13.604972</ele>
|
|
<time>2026-07-17T15:06:54.000Z</time>
|
|
</trkpt>
|
|
<trkpt lat="57.642704" lon="10.460982">
|
|
<ele>13.597196</ele>
|
|
<time>2026-07-17T15:06:55.000Z</time>
|
|
</trkpt>
|
|
<trkpt lat="57.642660" lon="10.460984">
|
|
<ele>13.589391</ele>
|
|
<time>2026-07-17T15:06:56.000Z</time>
|
|
</trkpt>
|
|
<trkpt lat="57.642617" lon="10.460999">
|
|
<ele>13.581633</ele>
|
|
<time>2026-07-17T15:06:57.000Z</time>
|
|
</trkpt>
|
|
<trkpt lat="57.642572" lon="10.461016">
|
|
<ele>13.573491</ele>
|
|
<time>2026-07-17T15:06:58.000Z</time>
|
|
</trkpt>
|
|
<trkpt lat="57.642534" lon="10.461028">
|
|
<ele>13.566656</ele>
|
|
<time>2026-07-17T15:06:59.000Z</time>
|
|
</trkpt>
|
|
<trkpt lat="57.642503" lon="10.461040">
|
|
<ele>13.561042</ele>
|
|
<time>2026-07-17T15:07:00.000Z</time>
|
|
</trkpt>
|
|
<trkpt lat="57.642480" lon="10.461060">
|
|
<ele>13.556542</ele>
|
|
<time>2026-07-17T15:07:01.000Z</time>
|
|
</trkpt>
|
|
<trkpt lat="57.642461" lon="10.461100">
|
|
<ele>13.551466</ele>
|
|
<time>2026-07-17T15:07:02.000Z</time>
|
|
</trkpt>
|
|
<trkpt lat="57.642446" lon="10.461156">
|
|
<ele>13.545522</ele>
|
|
<time>2026-07-17T15:07:03.000Z</time>
|
|
</trkpt>
|
|
<trkpt lat="57.642431" lon="10.461219">
|
|
<ele>13.532380</ele>
|
|
<time>2026-07-17T15:07:04.000Z</time>
|
|
</trkpt>
|
|
<trkpt lat="57.642418" lon="10.461290">
|
|
<ele>13.518004</ele>
|
|
<time>2026-07-17T15:07:05.000Z</time>
|
|
</trkpt>
|
|
<trkpt lat="57.642403" lon="10.461375">
|
|
<ele>13.500857</ele>
|
|
<time>2026-07-17T15:07:06.000Z</time>
|
|
</trkpt>
|
|
<trkpt lat="57.642385" lon="10.461452">
|
|
<ele>13.484760</ele>
|
|
<time>2026-07-17T15:07:07.000Z</time>
|
|
</trkpt>
|
|
<trkpt lat="57.642370" lon="10.461533">
|
|
<ele>13.468339</ele>
|
|
<time>2026-07-17T15:07:08.000Z</time>
|
|
</trkpt>
|
|
<trkpt lat="57.642354" lon="10.461608">
|
|
<ele>13.452871</ele>
|
|
<time>2026-07-17T15:07:09.000Z</time>
|
|
</trkpt>
|
|
<trkpt lat="57.642340" lon="10.461668">
|
|
<ele>13.440331</ele>
|
|
<time>2026-07-17T15:07:10.000Z</time>
|
|
</trkpt>
|
|
<trkpt lat="57.642317" lon="10.461713">
|
|
<ele>13.428410</ele>
|
|
<time>2026-07-17T15:07:11.000Z</time>
|
|
</trkpt>
|
|
<trkpt lat="57.642282" lon="10.461736">
|
|
<ele>13.415129</ele>
|
|
<time>2026-07-17T15:07:12.000Z</time>
|
|
</trkpt>
|
|
<trkpt lat="57.642249" lon="10.461741">
|
|
<ele>13.403278</ele>
|
|
<time>2026-07-17T15:07:13.000Z</time>
|
|
</trkpt>
|
|
<trkpt lat="57.642219" lon="10.461738">
|
|
<ele>13.392524</ele>
|
|
<time>2026-07-17T15:07:14.000Z</time>
|
|
</trkpt>
|
|
<trkpt lat="57.642187" lon="10.461725">
|
|
<ele>13.380801</ele>
|
|
<time>2026-07-17T15:07:15.000Z</time>
|
|
</trkpt>
|
|
<trkpt lat="57.642152" lon="10.461701">
|
|
<ele>13.367456</ele>
|
|
<time>2026-07-17T15:07:16.000Z</time>
|
|
</trkpt>
|
|
<trkpt lat="57.642116" lon="10.461673">
|
|
<ele>13.353497</ele>
|
|
<time>2026-07-17T15:07:17.000Z</time>
|
|
</trkpt>
|
|
<trkpt lat="57.642078" lon="10.461643">
|
|
<ele>13.338730</ele>
|
|
<time>2026-07-17T15:07:18.000Z</time>
|
|
</trkpt>
|
|
<trkpt lat="57.642044" lon="10.461612">
|
|
<ele>13.325188</ele>
|
|
<time>2026-07-17T15:07:19.000Z</time>
|
|
</trkpt>
|
|
<trkpt lat="57.642012" lon="10.461583">
|
|
<ele>13.312457</ele>
|
|
<time>2026-07-17T15:07:20.000Z</time>
|
|
</trkpt>
|
|
<trkpt lat="57.641973" lon="10.461550">
|
|
<ele>13.297132</ele>
|
|
<time>2026-07-17T15:07:21.000Z</time>
|
|
</trkpt>
|
|
<trkpt lat="57.641929" lon="10.461514">
|
|
<ele>13.279938</ele>
|
|
<time>2026-07-17T15:07:22.000Z</time>
|
|
</trkpt>
|
|
<trkpt lat="57.641889" lon="10.461482">
|
|
<ele>13.264362</ele>
|
|
<time>2026-07-17T15:07:23.000Z</time>
|
|
</trkpt>
|
|
<trkpt lat="57.641848" lon="10.461448">
|
|
<ele>13.248305</ele>
|
|
<time>2026-07-17T15:07:24.000Z</time>
|
|
</trkpt>
|
|
<trkpt lat="57.641804" lon="10.461407">
|
|
<ele>13.230705</ele>
|
|
<time>2026-07-17T15:07:25.000Z</time>
|
|
</trkpt>
|
|
<trkpt lat="57.641755" lon="10.461361">
|
|
<ele>13.211075</ele>
|
|
<time>2026-07-17T15:07:26.000Z</time>
|
|
</trkpt>
|
|
<trkpt lat="57.641709" lon="10.461320">
|
|
<ele>13.192832</ele>
|
|
<time>2026-07-17T15:07:27.000Z</time>
|
|
</trkpt>
|
|
<trkpt lat="57.641663" lon="10.461280">
|
|
<ele>13.174670</ele>
|
|
<time>2026-07-17T15:07:28.000Z</time>
|
|
</trkpt>
|
|
<trkpt lat="57.641615" lon="10.461242">
|
|
<ele>13.156009</ele>
|
|
<time>2026-07-17T15:07:29.000Z</time>
|
|
</trkpt>
|
|
<trkpt lat="57.641563" lon="10.461192">
|
|
<ele>13.135075</ele>
|
|
<time>2026-07-17T15:07:30.000Z</time>
|
|
</trkpt>
|
|
<trkpt lat="57.641516" lon="10.461138">
|
|
<ele>13.115324</ele>
|
|
<time>2026-07-17T15:07:31.000Z</time>
|
|
</trkpt>
|
|
<trkpt lat="57.641466" lon="10.461086">
|
|
<ele>13.094840</ele>
|
|
<time>2026-07-17T15:07:32.000Z</time>
|
|
</trkpt>
|
|
<trkpt lat="57.641417" lon="10.461033">
|
|
<ele>13.074573</ele>
|
|
<time>2026-07-17T15:07:33.000Z</time>
|
|
</trkpt>
|
|
<trkpt lat="57.641369" lon="10.460982">
|
|
<ele>13.054807</ele>
|
|
<time>2026-07-17T15:07:34.000Z</time>
|
|
</trkpt>
|
|
<trkpt lat="57.641321" lon="10.460934">
|
|
<ele>13.035319</ele>
|
|
<time>2026-07-17T15:07:35.000Z</time>
|
|
</trkpt>
|
|
<trkpt lat="57.641266" lon="10.460884">
|
|
<ele>13.013424</ele>
|
|
<time>2026-07-17T15:07:36.000Z</time>
|
|
</trkpt>
|
|
<trkpt lat="57.641218" lon="10.460841">
|
|
<ele>12.994369</ele>
|
|
<time>2026-07-17T15:07:37.000Z</time>
|
|
</trkpt>
|
|
<trkpt lat="57.641170" lon="10.460797">
|
|
<ele>12.975231</ele>
|
|
<time>2026-07-17T15:07:38.000Z</time>
|
|
</trkpt>
|
|
<trkpt lat="57.641127" lon="10.460755">
|
|
<ele>12.957862</ele>
|
|
<time>2026-07-17T15:07:39.000Z</time>
|
|
</trkpt>
|
|
<trkpt lat="57.641087" lon="10.460715">
|
|
<ele>12.941622</ele>
|
|
<time>2026-07-17T15:07:40.000Z</time>
|
|
</trkpt>
|
|
<trkpt lat="57.641046" lon="10.460674">
|
|
<ele>12.924976</ele>
|
|
<time>2026-07-17T15:07:41.000Z</time>
|
|
</trkpt>
|
|
<trkpt lat="57.641004" lon="10.460636">
|
|
<ele>12.908272</ele>
|
|
<time>2026-07-17T15:07:42.000Z</time>
|
|
</trkpt>
|
|
<trkpt lat="57.640966" lon="10.460593">
|
|
<ele>12.906719</ele>
|
|
<time>2026-07-17T15:07:43.000Z</time>
|
|
</trkpt>
|
|
<trkpt lat="57.640924" lon="10.460545">
|
|
<ele>12.916448</ele>
|
|
<time>2026-07-17T15:07:44.000Z</time>
|
|
</trkpt>
|
|
<trkpt lat="57.640875" lon="10.460498">
|
|
<ele>12.927333</ele>
|
|
<time>2026-07-17T15:07:45.000Z</time>
|
|
</trkpt>
|
|
<trkpt lat="57.640827" lon="10.460454">
|
|
<ele>12.937900</ele>
|
|
<time>2026-07-17T15:07:46.000Z</time>
|
|
</trkpt>
|
|
<trkpt lat="57.640780" lon="10.460408">
|
|
<ele>12.948385</ele>
|
|
<time>2026-07-17T15:07:47.000Z</time>
|
|
</trkpt>
|
|
<trkpt lat="57.640732" lon="10.460366">
|
|
<ele>12.958860</ele>
|
|
<time>2026-07-17T15:07:48.000Z</time>
|
|
</trkpt>
|
|
<trkpt lat="57.640685" lon="10.460334">
|
|
<ele>12.968745</ele>
|
|
<time>2026-07-17T15:07:49.000Z</time>
|
|
</trkpt>
|
|
<trkpt lat="57.640635" lon="10.460306">
|
|
<ele>12.979061</ele>
|
|
<time>2026-07-17T15:07:50.000Z</time>
|
|
</trkpt>
|
|
<trkpt lat="57.640584" lon="10.460277">
|
|
<ele>12.989596</ele>
|
|
<time>2026-07-17T15:07:51.000Z</time>
|
|
</trkpt>
|
|
<trkpt lat="57.640532" lon="10.460244">
|
|
<ele>13.000449</ele>
|
|
<time>2026-07-17T15:07:52.000Z</time>
|
|
</trkpt>
|
|
<trkpt lat="57.640482" lon="10.460207">
|
|
<ele>13.011077</ele>
|
|
<time>2026-07-17T15:07:53.000Z</time>
|
|
</trkpt>
|
|
<trkpt lat="57.640432" lon="10.460166">
|
|
<ele>13.021868</ele>
|
|
<time>2026-07-17T15:07:54.000Z</time>
|
|
</trkpt>
|
|
<trkpt lat="57.640387" lon="10.460120">
|
|
<ele>13.032005</ele>
|
|
<time>2026-07-17T15:07:55.000Z</time>
|
|
</trkpt>
|
|
<trkpt lat="57.640346" lon="10.460071">
|
|
<ele>13.041623</ele>
|
|
<time>2026-07-17T15:07:56.000Z</time>
|
|
</trkpt>
|
|
<trkpt lat="57.640289" lon="10.460006">
|
|
<ele>13.054820</ele>
|
|
<time>2026-07-17T15:07:57.000Z</time>
|
|
</trkpt>
|
|
<trkpt lat="57.640236" lon="10.459941">
|
|
<ele>13.067349</ele>
|
|
<time>2026-07-17T15:07:58.000Z</time>
|
|
</trkpt>
|
|
<trkpt lat="57.640184" lon="10.459879">
|
|
<ele>13.079539</ele>
|
|
<time>2026-07-17T15:07:59.000Z</time>
|
|
</trkpt>
|
|
<trkpt lat="57.640135" lon="10.459823">
|
|
<ele>13.090891</ele>
|
|
<time>2026-07-17T15:08:00.000Z</time>
|
|
</trkpt>
|
|
<trkpt lat="57.640084" lon="10.459768">
|
|
<ele>13.102528</ele>
|
|
<time>2026-07-17T15:08:01.000Z</time>
|
|
</trkpt>
|
|
<trkpt lat="57.640032" lon="10.459717">
|
|
<ele>13.114134</ele>
|
|
<time>2026-07-17T15:08:02.000Z</time>
|
|
</trkpt>
|
|
<trkpt lat="57.639981" lon="10.459671">
|
|
<ele>13.125326</ele>
|
|
<time>2026-07-17T15:08:03.000Z</time>
|
|
</trkpt>
|
|
<trkpt lat="57.639929" lon="10.459622">
|
|
<ele>13.136835</ele>
|
|
<time>2026-07-17T15:08:04.000Z</time>
|
|
</trkpt>
|
|
<trkpt lat="57.639879" lon="10.459567">
|
|
<ele>13.148302</ele>
|
|
<time>2026-07-17T15:08:05.000Z</time>
|
|
</trkpt>
|
|
<trkpt lat="57.639829" lon="10.459516">
|
|
<ele>13.159560</ele>
|
|
<time>2026-07-17T15:08:06.000Z</time>
|
|
</trkpt>
|
|
<trkpt lat="57.639780" lon="10.459465">
|
|
<ele>13.170644</ele>
|
|
<time>2026-07-17T15:08:07.000Z</time>
|
|
</trkpt>
|
|
<trkpt lat="57.639733" lon="10.459413">
|
|
<ele>13.181439</ele>
|
|
<time>2026-07-17T15:08:08.000Z</time>
|
|
</trkpt>
|
|
<trkpt lat="57.639690" lon="10.459364">
|
|
<ele>13.191393</ele>
|
|
<time>2026-07-17T15:08:09.000Z</time>
|
|
</trkpt>
|
|
<trkpt lat="57.639647" lon="10.459319">
|
|
<ele>13.201133</ele>
|
|
<time>2026-07-17T15:08:10.000Z</time>
|
|
</trkpt>
|
|
<trkpt lat="57.639607" lon="10.459276">
|
|
<ele>13.210253</ele>
|
|
<time>2026-07-17T15:08:11.000Z</time>
|
|
</trkpt>
|
|
<trkpt lat="57.639575" lon="10.459238">
|
|
<ele>13.217746</ele>
|
|
<time>2026-07-17T15:08:12.000Z</time>
|
|
</trkpt>
|
|
<trkpt lat="57.639546" lon="10.459207">
|
|
<ele>13.224349</ele>
|
|
<time>2026-07-17T15:08:13.000Z</time>
|
|
</trkpt>
|
|
<trkpt lat="57.639521" lon="10.459182">
|
|
<ele>13.229952</ele>
|
|
<time>2026-07-17T15:08:14.000Z</time>
|
|
</trkpt>
|
|
<trkpt lat="57.639498" lon="10.459162">
|
|
<ele>13.234966</ele>
|
|
<time>2026-07-17T15:08:15.000Z</time>
|
|
</trkpt>
|
|
<trkpt lat="57.639475" lon="10.459149">
|
|
<ele>13.239715</ele>
|
|
<time>2026-07-17T15:08:16.000Z</time>
|
|
</trkpt>
|
|
<trkpt lat="57.639455" lon="10.459136">
|
|
<ele>13.243899</ele>
|
|
<time>2026-07-17T15:08:17.000Z</time>
|
|
</trkpt>
|
|
<trkpt lat="57.639443" lon="10.459127">
|
|
<ele>13.246455</ele>
|
|
<time>2026-07-17T15:08:18.000Z</time>
|
|
</trkpt>
|
|
<trkpt lat="57.639213" lon="10.458847">
|
|
<ele>13.277267</ele>
|
|
<time>2026-07-17T15:19:23.000Z</time>
|
|
</trkpt>
|
|
<trkpt lat="57.639193" lon="10.458827">
|
|
<ele>13.279342</ele>
|
|
<time>2026-07-17T15:19:24.000Z</time>
|
|
</trkpt>
|
|
<trkpt lat="57.639172" lon="10.458797">
|
|
<ele>13.281760</ele>
|
|
<time>2026-07-17T15:19:25.000Z</time>
|
|
</trkpt>
|
|
<trkpt lat="57.639152" lon="10.458771">
|
|
<ele>13.283989</ele>
|
|
<time>2026-07-17T15:19:26.000Z</time>
|
|
</trkpt>
|
|
<trkpt lat="57.639128" lon="10.458743">
|
|
<ele>13.286577</ele>
|
|
<time>2026-07-17T15:19:27.000Z</time>
|
|
</trkpt>
|
|
<trkpt lat="57.639105" lon="10.458717">
|
|
<ele>13.289037</ele>
|
|
<time>2026-07-17T15:19:28.000Z</time>
|
|
</trkpt>
|
|
<trkpt lat="57.639082" lon="10.458692">
|
|
<ele>13.291471</ele>
|
|
<time>2026-07-17T15:19:29.000Z</time>
|
|
</trkpt>
|
|
<trkpt lat="57.639060" lon="10.458667">
|
|
<ele>13.293826</ele>
|
|
<time>2026-07-17T15:19:30.000Z</time>
|
|
</trkpt>
|
|
<trkpt lat="57.639038" lon="10.458639">
|
|
<ele>13.296261</ele>
|
|
<time>2026-07-17T15:19:31.000Z</time>
|
|
</trkpt>
|
|
<trkpt lat="57.639019" lon="10.458606">
|
|
<ele>13.298635</ele>
|
|
<time>2026-07-17T15:19:32.000Z</time>
|
|
</trkpt>
|
|
<trkpt lat="57.639000" lon="10.458570">
|
|
<ele>13.301110</ele>
|
|
<time>2026-07-17T15:19:33.000Z</time>
|
|
</trkpt>
|
|
<trkpt lat="57.638982" lon="10.458529">
|
|
<ele>13.303707</ele>
|
|
<time>2026-07-17T15:19:34.000Z</time>
|
|
</trkpt>
|
|
<trkpt lat="57.638969" lon="10.458488">
|
|
<ele>13.306040</ele>
|
|
<time>2026-07-17T15:19:35.000Z</time>
|
|
</trkpt>
|
|
<trkpt lat="57.638957" lon="10.458445">
|
|
<ele>13.308414</ele>
|
|
<time>2026-07-17T15:19:36.000Z</time>
|
|
</trkpt>
|
|
<trkpt lat="57.638947" lon="10.458402">
|
|
<ele>13.310710</ele>
|
|
<time>2026-07-17T15:19:37.000Z</time>
|
|
</trkpt>
|
|
<trkpt lat="57.638937" lon="10.458364">
|
|
<ele>13.312783</ele>
|
|
<time>2026-07-17T15:19:38.000Z</time>
|
|
</trkpt>
|
|
<trkpt lat="57.638921" lon="10.458324">
|
|
<ele>13.315228</ele>
|
|
<time>2026-07-17T15:19:39.000Z</time>
|
|
</trkpt>
|
|
<trkpt lat="57.638903" lon="10.458285">
|
|
<ele>13.317750</ele>
|
|
<time>2026-07-17T15:19:40.000Z</time>
|
|
</trkpt>
|
|
<trkpt lat="57.638878" lon="10.458247">
|
|
<ele>13.320698</ele>
|
|
<time>2026-07-17T15:19:41.000Z</time>
|
|
</trkpt>
|
|
<trkpt lat="57.638849" lon="10.458211">
|
|
<ele>13.323883</ele>
|
|
<time>2026-07-17T15:19:42.000Z</time>
|
|
</trkpt>
|
|
<trkpt lat="57.638815" lon="10.458177">
|
|
<ele>13.327411</ele>
|
|
<time>2026-07-17T15:19:43.000Z</time>
|
|
</trkpt>
|
|
<trkpt lat="57.638780" lon="10.458141">
|
|
<ele>13.331066</ele>
|
|
<time>2026-07-17T15:19:44.000Z</time>
|
|
</trkpt>
|
|
<trkpt lat="57.638744" lon="10.458105">
|
|
<ele>13.334801</ele>
|
|
<time>2026-07-17T15:19:45.000Z</time>
|
|
</trkpt>
|
|
<trkpt lat="57.638706" lon="10.458067">
|
|
<ele>13.338744</ele>
|
|
<time>2026-07-17T15:19:46.000Z</time>
|
|
</trkpt>
|
|
<trkpt lat="57.638669" lon="10.458037">
|
|
<ele>13.342434</ele>
|
|
<time>2026-07-17T15:19:47.000Z</time>
|
|
</trkpt>
|
|
<trkpt lat="57.638634" lon="10.458008">
|
|
<ele>13.345936</ele>
|
|
<time>2026-07-17T15:19:48.000Z</time>
|
|
</trkpt>
|
|
<trkpt lat="57.638595" lon="10.457975">
|
|
<ele>13.349853</ele>
|
|
<time>2026-07-17T15:19:49.000Z</time>
|
|
</trkpt>
|
|
<trkpt lat="57.638555" lon="10.457943">
|
|
<ele>13.353833</ele>
|
|
<time>2026-07-17T15:19:50.000Z</time>
|
|
</trkpt>
|
|
<trkpt lat="57.638518" lon="10.457913">
|
|
<ele>13.357523</ele>
|
|
<time>2026-07-17T15:19:51.000Z</time>
|
|
</trkpt>
|
|
<trkpt lat="57.638477" lon="10.457875">
|
|
<ele>13.361710</ele>
|
|
<time>2026-07-17T15:19:52.000Z</time>
|
|
</trkpt>
|
|
<trkpt lat="57.638439" lon="10.457838">
|
|
<ele>13.365630</ele>
|
|
<time>2026-07-17T15:19:53.000Z</time>
|
|
</trkpt>
|
|
<trkpt lat="57.638401" lon="10.457802">
|
|
<ele>13.369527</ele>
|
|
<time>2026-07-17T15:19:54.000Z</time>
|
|
</trkpt>
|
|
<trkpt lat="57.638364" lon="10.457768">
|
|
<ele>13.373299</ele>
|
|
<time>2026-07-17T15:19:55.000Z</time>
|
|
</trkpt>
|
|
<trkpt lat="57.638323" lon="10.457735">
|
|
<ele>13.377383</ele>
|
|
<time>2026-07-17T15:19:56.000Z</time>
|
|
</trkpt>
|
|
<trkpt lat="57.638281" lon="10.457703">
|
|
<ele>13.381533</ele>
|
|
<time>2026-07-17T15:19:57.000Z</time>
|
|
</trkpt>
|
|
<trkpt lat="57.638237" lon="10.457668">
|
|
<ele>13.385907</ele>
|
|
<time>2026-07-17T15:19:58.000Z</time>
|
|
</trkpt>
|
|
<trkpt lat="57.638194" lon="10.457630">
|
|
<ele>13.390259</ele>
|
|
<time>2026-07-17T15:19:59.000Z</time>
|
|
</trkpt>
|
|
<trkpt lat="57.638153" lon="10.457591">
|
|
<ele>13.394468</ele>
|
|
<time>2026-07-17T15:20:00.000Z</time>
|
|
</trkpt>
|
|
<trkpt lat="57.638110" lon="10.457550">
|
|
<ele>13.398884</ele>
|
|
<time>2026-07-17T15:20:01.000Z</time>
|
|
</trkpt>
|
|
<trkpt lat="57.638066" lon="10.457511">
|
|
<ele>13.403339</ele>
|
|
<time>2026-07-17T15:20:02.000Z</time>
|
|
</trkpt>
|
|
<trkpt lat="57.638020" lon="10.457466">
|
|
<ele>13.408089</ele>
|
|
<time>2026-07-17T15:20:03.000Z</time>
|
|
</trkpt>
|
|
<trkpt lat="57.637974" lon="10.457416">
|
|
<ele>13.412957</ele>
|
|
<time>2026-07-17T15:20:04.000Z</time>
|
|
</trkpt>
|
|
<trkpt lat="57.637930" lon="10.457372">
|
|
<ele>13.417523</ele>
|
|
<time>2026-07-17T15:20:05.000Z</time>
|
|
</trkpt>
|
|
<trkpt lat="57.637886" lon="10.457331">
|
|
<ele>13.421394</ele>
|
|
<time>2026-07-17T15:20:06.000Z</time>
|
|
</trkpt>
|
|
<trkpt lat="57.637840" lon="10.457291">
|
|
<ele>13.419068</ele>
|
|
<time>2026-07-17T15:20:07.000Z</time>
|
|
</trkpt>
|
|
<trkpt lat="57.637795" lon="10.457244">
|
|
<ele>13.416704</ele>
|
|
<time>2026-07-17T15:20:08.000Z</time>
|
|
</trkpt>
|
|
<trkpt lat="57.637748" lon="10.457192">
|
|
<ele>13.414199</ele>
|
|
<time>2026-07-17T15:20:09.000Z</time>
|
|
</trkpt>
|
|
<trkpt lat="57.637699" lon="10.457142">
|
|
<ele>13.411639</ele>
|
|
<time>2026-07-17T15:20:10.000Z</time>
|
|
</trkpt>
|
|
<trkpt lat="57.637653" lon="10.457091">
|
|
<ele>13.409187</ele>
|
|
<time>2026-07-17T15:20:11.000Z</time>
|
|
</trkpt>
|
|
<trkpt lat="57.637608" lon="10.457047">
|
|
<ele>13.406858</ele>
|
|
<time>2026-07-17T15:20:12.000Z</time>
|
|
</trkpt>
|
|
<trkpt lat="57.637563" lon="10.457005">
|
|
<ele>13.404551</ele>
|
|
<time>2026-07-17T15:20:13.000Z</time>
|
|
</trkpt>
|
|
<trkpt lat="57.637517" lon="10.456963">
|
|
<ele>13.402204</ele>
|
|
<time>2026-07-17T15:20:14.000Z</time>
|
|
</trkpt>
|
|
<trkpt lat="57.637472" lon="10.456923">
|
|
<ele>13.399919</ele>
|
|
<time>2026-07-17T15:20:15.000Z</time>
|
|
</trkpt>
|
|
<trkpt lat="57.637428" lon="10.456883">
|
|
<ele>13.397675</ele>
|
|
<time>2026-07-17T15:20:16.000Z</time>
|
|
</trkpt>
|
|
<trkpt lat="57.637379" lon="10.456839">
|
|
<ele>13.395182</ele>
|
|
<time>2026-07-17T15:20:17.000Z</time>
|
|
</trkpt>
|
|
<trkpt lat="57.637328" lon="10.456793">
|
|
<ele>13.392586</ele>
|
|
<time>2026-07-17T15:20:18.000Z</time>
|
|
</trkpt>
|
|
<trkpt lat="57.637281" lon="10.456746">
|
|
<ele>13.390141</ele>
|
|
<time>2026-07-17T15:20:19.000Z</time>
|
|
</trkpt>
|
|
<trkpt lat="57.637234" lon="10.456696">
|
|
<ele>13.387662</ele>
|
|
<time>2026-07-17T15:20:20.000Z</time>
|
|
</trkpt>
|
|
<trkpt lat="57.637187" lon="10.456643">
|
|
<ele>13.385144</ele>
|
|
<time>2026-07-17T15:20:21.000Z</time>
|
|
</trkpt>
|
|
<trkpt lat="57.637142" lon="10.456597">
|
|
<ele>13.382792</ele>
|
|
<time>2026-07-17T15:20:22.000Z</time>
|
|
</trkpt>
|
|
<trkpt lat="57.637093" lon="10.456549">
|
|
<ele>13.380256</ele>
|
|
<time>2026-07-17T15:20:23.000Z</time>
|
|
</trkpt>
|
|
<trkpt lat="57.637042" lon="10.456503">
|
|
<ele>13.377659</ele>
|
|
<time>2026-07-17T15:20:24.000Z</time>
|
|
</trkpt>
|
|
<trkpt lat="57.636993" lon="10.456454">
|
|
<ele>13.375111</ele>
|
|
<time>2026-07-17T15:20:25.000Z</time>
|
|
</trkpt>
|
|
<trkpt lat="57.636947" lon="10.456401">
|
|
<ele>13.372633</ele>
|
|
<time>2026-07-17T15:20:26.000Z</time>
|
|
</trkpt>
|
|
<trkpt lat="57.636898" lon="10.456348">
|
|
<ele>13.370036</ele>
|
|
<time>2026-07-17T15:20:27.000Z</time>
|
|
</trkpt>
|
|
<trkpt lat="57.636849" lon="10.456298">
|
|
<ele>13.367476</ele>
|
|
<time>2026-07-17T15:20:28.000Z</time>
|
|
</trkpt>
|
|
<trkpt lat="57.636801" lon="10.456245">
|
|
<ele>13.364920</ele>
|
|
<time>2026-07-17T15:20:29.000Z</time>
|
|
</trkpt>
|
|
<trkpt lat="57.636749" lon="10.456190">
|
|
<ele>13.362180</ele>
|
|
<time>2026-07-17T15:20:30.000Z</time>
|
|
</trkpt>
|
|
<trkpt lat="57.636699" lon="10.456139">
|
|
<ele>13.359568</ele>
|
|
<time>2026-07-17T15:20:31.000Z</time>
|
|
</trkpt>
|
|
<trkpt lat="57.636650" lon="10.456088">
|
|
<ele>13.356996</ele>
|
|
<time>2026-07-17T15:20:32.000Z</time>
|
|
</trkpt>
|
|
<trkpt lat="57.636599" lon="10.456040">
|
|
<ele>13.354378</ele>
|
|
<time>2026-07-17T15:20:33.000Z</time>
|
|
</trkpt>
|
|
<trkpt lat="57.636548" lon="10.455990">
|
|
<ele>13.351737</ele>
|
|
<time>2026-07-17T15:20:34.000Z</time>
|
|
</trkpt>
|
|
<trkpt lat="57.636497" lon="10.455939">
|
|
<ele>13.349084</ele>
|
|
<time>2026-07-17T15:20:35.000Z</time>
|
|
</trkpt>
|
|
<trkpt lat="57.636448" lon="10.455892">
|
|
<ele>13.346559</ele>
|
|
<time>2026-07-17T15:20:36.000Z</time>
|
|
</trkpt>
|
|
<trkpt lat="57.636398" lon="10.455842">
|
|
<ele>13.343959</ele>
|
|
<time>2026-07-17T15:20:37.000Z</time>
|
|
</trkpt>
|
|
<trkpt lat="57.636347" lon="10.455791">
|
|
<ele>13.341306</ele>
|
|
<time>2026-07-17T15:20:38.000Z</time>
|
|
</trkpt>
|
|
<trkpt lat="57.636299" lon="10.455744">
|
|
<ele>13.339760</ele>
|
|
<time>2026-07-17T15:20:39.000Z</time>
|
|
</trkpt>
|
|
<trkpt lat="57.636253" lon="10.455698">
|
|
<ele>13.344562</ele>
|
|
<time>2026-07-17T15:20:40.000Z</time>
|
|
</trkpt>
|
|
<trkpt lat="57.636205" lon="10.455652">
|
|
<ele>13.349526</ele>
|
|
<time>2026-07-17T15:20:41.000Z</time>
|
|
</trkpt>
|
|
<trkpt lat="57.636155" lon="10.455604">
|
|
<ele>13.354700</ele>
|
|
<time>2026-07-17T15:20:42.000Z</time>
|
|
</trkpt>
|
|
<trkpt lat="57.636110" lon="10.455559">
|
|
<ele>13.359398</ele>
|
|
<time>2026-07-17T15:20:43.000Z</time>
|
|
</trkpt>
|
|
<trkpt lat="57.636058" lon="10.455506">
|
|
<ele>13.364849</ele>
|
|
<time>2026-07-17T15:20:44.000Z</time>
|
|
</trkpt>
|
|
<trkpt lat="57.636009" lon="10.455455">
|
|
<ele>13.370012</ele>
|
|
<time>2026-07-17T15:20:45.000Z</time>
|
|
</trkpt>
|
|
<trkpt lat="57.635960" lon="10.455405">
|
|
<ele>13.375150</ele>
|
|
<time>2026-07-17T15:20:46.000Z</time>
|
|
</trkpt>
|
|
<trkpt lat="57.635912" lon="10.455357">
|
|
<ele>13.380161</ele>
|
|
<time>2026-07-17T15:20:47.000Z</time>
|
|
</trkpt>
|
|
<trkpt lat="57.635864" lon="10.455311">
|
|
<ele>13.385126</ele>
|
|
<time>2026-07-17T15:20:48.000Z</time>
|
|
</trkpt>
|
|
<trkpt lat="57.635814" lon="10.455269">
|
|
<ele>13.390171</ele>
|
|
<time>2026-07-17T15:20:49.000Z</time>
|
|
</trkpt>
|
|
<trkpt lat="57.635764" lon="10.455228">
|
|
<ele>13.395197</ele>
|
|
<time>2026-07-17T15:20:50.000Z</time>
|
|
</trkpt>
|
|
<trkpt lat="57.635716" lon="10.455184">
|
|
<ele>13.400117</ele>
|
|
<time>2026-07-17T15:20:51.000Z</time>
|
|
</trkpt>
|
|
<trkpt lat="57.635669" lon="10.455137">
|
|
<ele>13.405024</ele>
|
|
<time>2026-07-17T15:20:52.000Z</time>
|
|
</trkpt>
|
|
<trkpt lat="57.635621" lon="10.455087">
|
|
<ele>13.410082</ele>
|
|
<time>2026-07-17T15:20:53.000Z</time>
|
|
</trkpt>
|
|
<trkpt lat="57.635574" lon="10.455039">
|
|
<ele>13.415011</ele>
|
|
<time>2026-07-17T15:20:54.000Z</time>
|
|
</trkpt>
|
|
<trkpt lat="57.635525" lon="10.454992">
|
|
<ele>13.420081</ele>
|
|
<time>2026-07-17T15:20:55.000Z</time>
|
|
</trkpt>
|
|
<trkpt lat="57.635475" lon="10.454947">
|
|
<ele>13.425188</ele>
|
|
<time>2026-07-17T15:20:56.000Z</time>
|
|
</trkpt>
|
|
<trkpt lat="57.635427" lon="10.454905">
|
|
<ele>13.430067</ele>
|
|
<time>2026-07-17T15:20:57.000Z</time>
|
|
</trkpt>
|
|
<trkpt lat="57.635381" lon="10.454867">
|
|
<ele>13.434696</ele>
|
|
<time>2026-07-17T15:20:58.000Z</time>
|
|
</trkpt>
|
|
<trkpt lat="57.635333" lon="10.454827">
|
|
<ele>13.439533</ele>
|
|
<time>2026-07-17T15:20:59.000Z</time>
|
|
</trkpt>
|
|
<trkpt lat="57.635286" lon="10.454787">
|
|
<ele>13.444286</ele>
|
|
<time>2026-07-17T15:21:00.000Z</time>
|
|
</trkpt>
|
|
<trkpt lat="57.635241" lon="10.454746">
|
|
<ele>13.448894</ele>
|
|
<time>2026-07-17T15:21:01.000Z</time>
|
|
</trkpt>
|
|
<trkpt lat="57.635192" lon="10.454702">
|
|
<ele>13.453897</ele>
|
|
<time>2026-07-17T15:21:02.000Z</time>
|
|
</trkpt>
|
|
<trkpt lat="57.635142" lon="10.454657">
|
|
<ele>13.459005</ele>
|
|
<time>2026-07-17T15:21:03.000Z</time>
|
|
</trkpt>
|
|
<trkpt lat="57.635096" lon="10.454616">
|
|
<ele>13.463696</ele>
|
|
<time>2026-07-17T15:21:04.000Z</time>
|
|
</trkpt>
|
|
<trkpt lat="57.635049" lon="10.454571">
|
|
<ele>13.468556</ele>
|
|
<time>2026-07-17T15:21:05.000Z</time>
|
|
</trkpt>
|
|
<trkpt lat="57.635000" lon="10.454524">
|
|
<ele>13.473626</ele>
|
|
<time>2026-07-17T15:21:06.000Z</time>
|
|
</trkpt>
|
|
<trkpt lat="57.634958" lon="10.454486">
|
|
<ele>13.477921</ele>
|
|
<time>2026-07-17T15:21:07.000Z</time>
|
|
</trkpt>
|
|
<trkpt lat="57.634919" lon="10.454451">
|
|
<ele>13.481903</ele>
|
|
<time>2026-07-17T15:21:08.000Z</time>
|
|
</trkpt>
|
|
<trkpt lat="57.634853" lon="10.454395">
|
|
<ele>13.488574</ele>
|
|
<time>2026-07-17T15:21:09.000Z</time>
|
|
</trkpt>
|
|
<trkpt lat="57.634803" lon="10.454352">
|
|
<ele>13.493640</ele>
|
|
<time>2026-07-17T15:21:10.000Z</time>
|
|
</trkpt>
|
|
<trkpt lat="57.634754" lon="10.454306">
|
|
<ele>13.498687</ele>
|
|
<time>2026-07-17T15:21:11.000Z</time>
|
|
</trkpt>
|
|
<trkpt lat="57.634709" lon="10.454261">
|
|
<ele>13.503384</ele>
|
|
<time>2026-07-17T15:21:12.000Z</time>
|
|
</trkpt>
|
|
<trkpt lat="57.634660" lon="10.454215">
|
|
<ele>13.513421</ele>
|
|
<time>2026-07-17T15:21:13.000Z</time>
|
|
</trkpt>
|
|
<trkpt lat="57.634610" lon="10.454163">
|
|
<ele>13.525669</ele>
|
|
<time>2026-07-17T15:21:14.000Z</time>
|
|
</trkpt>
|
|
<trkpt lat="57.634564" lon="10.454109">
|
|
<ele>13.537297</ele>
|
|
<time>2026-07-17T15:21:15.000Z</time>
|
|
</trkpt>
|
|
<trkpt lat="57.634517" lon="10.454064">
|
|
<ele>13.548601</ele>
|
|
<time>2026-07-17T15:21:16.000Z</time>
|
|
</trkpt>
|
|
<trkpt lat="57.634469" lon="10.454019">
|
|
<ele>13.560096</ele>
|
|
<time>2026-07-17T15:21:17.000Z</time>
|
|
</trkpt>
|
|
<trkpt lat="57.634422" lon="10.453972">
|
|
<ele>13.571506</ele>
|
|
<time>2026-07-17T15:21:18.000Z</time>
|
|
</trkpt>
|
|
<trkpt lat="57.634373" lon="10.453924">
|
|
<ele>13.583348</ele>
|
|
<time>2026-07-17T15:21:19.000Z</time>
|
|
</trkpt>
|
|
<trkpt lat="57.634328" lon="10.453880">
|
|
<ele>13.594219</ele>
|
|
<time>2026-07-17T15:21:20.000Z</time>
|
|
</trkpt>
|
|
<trkpt lat="57.634282" lon="10.453837">
|
|
<ele>13.605228</ele>
|
|
<time>2026-07-17T15:21:21.000Z</time>
|
|
</trkpt>
|
|
<trkpt lat="57.634233" lon="10.453789">
|
|
<ele>13.617071</ele>
|
|
<time>2026-07-17T15:21:22.000Z</time>
|
|
</trkpt>
|
|
<trkpt lat="57.634186" lon="10.453744">
|
|
<ele>13.628374</ele>
|
|
<time>2026-07-17T15:21:23.000Z</time>
|
|
</trkpt>
|
|
<trkpt lat="57.634138" lon="10.453698">
|
|
<ele>13.639921</ele>
|
|
<time>2026-07-17T15:21:24.000Z</time>
|
|
</trkpt>
|
|
<trkpt lat="57.634089" lon="10.453651">
|
|
<ele>13.651710</ele>
|
|
<time>2026-07-17T15:21:25.000Z</time>
|
|
</trkpt>
|
|
<trkpt lat="57.634040" lon="10.453605">
|
|
<ele>13.663448</ele>
|
|
<time>2026-07-17T15:21:26.000Z</time>
|
|
</trkpt>
|
|
<trkpt lat="57.633993" lon="10.453557">
|
|
<ele>13.674912</ele>
|
|
<time>2026-07-17T15:21:27.000Z</time>
|
|
</trkpt>
|
|
<trkpt lat="57.633945" lon="10.453508">
|
|
<ele>13.686620</ele>
|
|
<time>2026-07-17T15:21:28.000Z</time>
|
|
</trkpt>
|
|
<trkpt lat="57.633899" lon="10.453462">
|
|
<ele>13.697787</ele>
|
|
<time>2026-07-17T15:21:29.000Z</time>
|
|
</trkpt>
|
|
<trkpt lat="57.633853" lon="10.453416">
|
|
<ele>13.708955</ele>
|
|
<time>2026-07-17T15:21:30.000Z</time>
|
|
</trkpt>
|
|
<trkpt lat="57.633806" lon="10.453370">
|
|
<ele>13.720311</ele>
|
|
<time>2026-07-17T15:21:31.000Z</time>
|
|
</trkpt>
|
|
<trkpt lat="57.633764" lon="10.453329">
|
|
<ele>13.730454</ele>
|
|
<time>2026-07-17T15:21:32.000Z</time>
|
|
</trkpt>
|
|
<trkpt lat="57.633711" lon="10.453274">
|
|
<ele>13.743431</ele>
|
|
<time>2026-07-17T15:21:33.000Z</time>
|
|
</trkpt>
|
|
<trkpt lat="57.633664" lon="10.453224">
|
|
<ele>13.755007</ele>
|
|
<time>2026-07-17T15:21:34.000Z</time>
|
|
</trkpt>
|
|
<trkpt lat="57.633616" lon="10.453165">
|
|
<ele>13.767305</ele>
|
|
<time>2026-07-17T15:21:35.000Z</time>
|
|
</trkpt>
|
|
<trkpt lat="57.633566" lon="10.453100">
|
|
<ele>13.780343</ele>
|
|
<time>2026-07-17T15:21:36.000Z</time>
|
|
</trkpt>
|
|
<trkpt lat="57.633517" lon="10.453047">
|
|
<ele>13.792462</ele>
|
|
<time>2026-07-17T15:21:37.000Z</time>
|
|
</trkpt>
|
|
<trkpt lat="57.633467" lon="10.452996">
|
|
<ele>13.804655</ele>
|
|
<time>2026-07-17T15:21:38.000Z</time>
|
|
</trkpt>
|
|
<trkpt lat="57.633419" lon="10.452946">
|
|
<ele>13.816418</ele>
|
|
<time>2026-07-17T15:21:39.000Z</time>
|
|
</trkpt>
|
|
<trkpt lat="57.633373" lon="10.452896">
|
|
<ele>13.827809</ele>
|
|
<time>2026-07-17T15:21:40.000Z</time>
|
|
</trkpt>
|
|
<trkpt lat="57.633324" lon="10.452844">
|
|
<ele>13.839871</ele>
|
|
<time>2026-07-17T15:21:41.000Z</time>
|
|
</trkpt>
|
|
<trkpt lat="57.633275" lon="10.452794">
|
|
<ele>13.851821</ele>
|
|
<time>2026-07-17T15:21:42.000Z</time>
|
|
</trkpt>
|
|
<trkpt lat="57.633227" lon="10.452745">
|
|
<ele>13.863529</ele>
|
|
<time>2026-07-17T15:21:43.000Z</time>
|
|
</trkpt>
|
|
<trkpt lat="57.633177" lon="10.452696">
|
|
<ele>13.875614</ele>
|
|
<time>2026-07-17T15:21:44.000Z</time>
|
|
</trkpt>
|
|
<trkpt lat="57.633128" lon="10.452646">
|
|
<ele>13.887564</ele>
|
|
<time>2026-07-17T15:21:45.000Z</time>
|
|
</trkpt>
|
|
<trkpt lat="57.633077" lon="10.452593">
|
|
<ele>13.893804</ele>
|
|
<time>2026-07-17T15:21:46.000Z</time>
|
|
</trkpt>
|
|
<trkpt lat="57.633027" lon="10.452536">
|
|
<ele>13.898820</ele>
|
|
<time>2026-07-17T15:21:47.000Z</time>
|
|
</trkpt>
|
|
<trkpt lat="57.632980" lon="10.452480">
|
|
<ele>13.903594</ele>
|
|
<time>2026-07-17T15:21:48.000Z</time>
|
|
</trkpt>
|
|
<trkpt lat="57.632932" lon="10.452423">
|
|
<ele>13.908465</ele>
|
|
<time>2026-07-17T15:21:49.000Z</time>
|
|
</trkpt>
|
|
<trkpt lat="57.632886" lon="10.452373">
|
|
<ele>13.913023</ele>
|
|
<time>2026-07-17T15:21:50.000Z</time>
|
|
</trkpt>
|
|
<trkpt lat="57.632837" lon="10.452321">
|
|
<ele>13.917849</ele>
|
|
<time>2026-07-17T15:21:51.000Z</time>
|
|
</trkpt>
|
|
<trkpt lat="57.632786" lon="10.452269">
|
|
<ele>13.922824</ele>
|
|
<time>2026-07-17T15:21:52.000Z</time>
|
|
</trkpt>
|
|
<trkpt lat="57.632739" lon="10.452220">
|
|
<ele>13.927434</ele>
|
|
<time>2026-07-17T15:21:53.000Z</time>
|
|
</trkpt>
|
|
<trkpt lat="57.632691" lon="10.452172">
|
|
<ele>13.932096</ele>
|
|
<time>2026-07-17T15:21:54.000Z</time>
|
|
</trkpt>
|
|
<trkpt lat="57.632645" lon="10.452125">
|
|
<ele>13.936586</ele>
|
|
<time>2026-07-17T15:21:55.000Z</time>
|
|
</trkpt>
|
|
<trkpt lat="57.632604" lon="10.452082">
|
|
<ele>13.940613</ele>
|
|
<time>2026-07-17T15:21:56.000Z</time>
|
|
</trkpt>
|
|
<trkpt lat="57.632567" lon="10.452042">
|
|
<ele>13.944274</ele>
|
|
<time>2026-07-17T15:21:57.000Z</time>
|
|
</trkpt>
|
|
<trkpt lat="57.632508" lon="10.451974">
|
|
<ele>13.950211</ele>
|
|
<time>2026-07-17T15:21:58.000Z</time>
|
|
</trkpt>
|
|
<trkpt lat="57.632465" lon="10.451929">
|
|
<ele>13.954432</ele>
|
|
<time>2026-07-17T15:21:59.000Z</time>
|
|
</trkpt>
|
|
<trkpt lat="57.632416" lon="10.451878">
|
|
<ele>13.959235</ele>
|
|
<time>2026-07-17T15:22:00.000Z</time>
|
|
</trkpt>
|
|
<trkpt lat="57.632376" lon="10.451834">
|
|
<ele>13.963211</ele>
|
|
<time>2026-07-17T15:22:01.000Z</time>
|
|
</trkpt>
|
|
<trkpt lat="57.632317" lon="10.451763">
|
|
<ele>13.969221</ele>
|
|
<time>2026-07-17T15:22:02.000Z</time>
|
|
</trkpt>
|
|
<trkpt lat="57.632272" lon="10.451715">
|
|
<ele>13.973659</ele>
|
|
<time>2026-07-17T15:22:03.000Z</time>
|
|
</trkpt>
|
|
<trkpt lat="57.632225" lon="10.451669">
|
|
<ele>13.978203</ele>
|
|
<time>2026-07-17T15:22:04.000Z</time>
|
|
</trkpt>
|
|
<trkpt lat="57.632177" lon="10.451625">
|
|
<ele>13.982782</ele>
|
|
<time>2026-07-17T15:22:05.000Z</time>
|
|
</trkpt>
|
|
<trkpt lat="57.632130" lon="10.451581">
|
|
<ele>13.987284</ele>
|
|
<time>2026-07-17T15:22:06.000Z</time>
|
|
</trkpt>
|
|
<trkpt lat="57.632085" lon="10.451538">
|
|
<ele>13.991612</ele>
|
|
<time>2026-07-17T15:22:07.000Z</time>
|
|
</trkpt>
|
|
<trkpt lat="57.632039" lon="10.451492">
|
|
<ele>13.996081</ele>
|
|
<time>2026-07-17T15:22:08.000Z</time>
|
|
</trkpt>
|
|
<trkpt lat="57.631991" lon="10.451446">
|
|
<ele>14.000701</ele>
|
|
<time>2026-07-17T15:22:09.000Z</time>
|
|
</trkpt>
|
|
<trkpt lat="57.631943" lon="10.451403">
|
|
<ele>14.005259</ele>
|
|
<time>2026-07-17T15:22:10.000Z</time>
|
|
</trkpt>
|
|
<trkpt lat="57.631898" lon="10.451360">
|
|
<ele>14.009588</ele>
|
|
<time>2026-07-17T15:22:11.000Z</time>
|
|
</trkpt>
|
|
<trkpt lat="57.631852" lon="10.451316">
|
|
<ele>14.014014</ele>
|
|
<time>2026-07-17T15:22:12.000Z</time>
|
|
</trkpt>
|
|
<trkpt lat="57.631804" lon="10.451272">
|
|
<ele>14.018593</ele>
|
|
<time>2026-07-17T15:22:13.000Z</time>
|
|
</trkpt>
|
|
<trkpt lat="57.631757" lon="10.451230">
|
|
<ele>14.023054</ele>
|
|
<time>2026-07-17T15:22:14.000Z</time>
|
|
</trkpt>
|
|
<trkpt lat="57.631713" lon="10.451188">
|
|
<ele>14.027286</ele>
|
|
<time>2026-07-17T15:22:15.000Z</time>
|
|
</trkpt>
|
|
<trkpt lat="57.631668" lon="10.451141">
|
|
<ele>14.031701</ele>
|
|
<time>2026-07-17T15:22:16.000Z</time>
|
|
</trkpt>
|
|
<trkpt lat="57.631621" lon="10.451081">
|
|
<ele>14.036576</ele>
|
|
<time>2026-07-17T15:22:17.000Z</time>
|
|
</trkpt>
|
|
<trkpt lat="57.631576" lon="10.451010">
|
|
<ele>14.041621</ele>
|
|
<time>2026-07-17T15:22:18.000Z</time>
|
|
</trkpt>
|
|
<trkpt lat="57.631535" lon="10.450933">
|
|
<ele>14.055032</ele>
|
|
<time>2026-07-17T15:22:19.000Z</time>
|
|
</trkpt>
|
|
<trkpt lat="57.631492" lon="10.450843">
|
|
<ele>14.076449</ele>
|
|
<time>2026-07-17T15:22:20.000Z</time>
|
|
</trkpt>
|
|
<trkpt lat="57.631452" lon="10.450757">
|
|
<ele>14.096675</ele>
|
|
<time>2026-07-17T15:22:21.000Z</time>
|
|
</trkpt>
|
|
<trkpt lat="57.631415" lon="10.450677">
|
|
<ele>14.115445</ele>
|
|
<time>2026-07-17T15:22:22.000Z</time>
|
|
</trkpt>
|
|
<trkpt lat="57.631379" lon="10.450600">
|
|
<ele>14.133595</ele>
|
|
<time>2026-07-17T15:22:23.000Z</time>
|
|
</trkpt>
|
|
<trkpt lat="57.631332" lon="10.450511">
|
|
<ele>14.155790</ele>
|
|
<time>2026-07-17T15:22:24.000Z</time>
|
|
</trkpt>
|
|
<trkpt lat="57.631292" lon="10.450439">
|
|
<ele>14.174212</ele>
|
|
<time>2026-07-17T15:22:25.000Z</time>
|
|
</trkpt>
|
|
<trkpt lat="57.631249" lon="10.450362">
|
|
<ele>14.193967</ele>
|
|
<time>2026-07-17T15:22:26.000Z</time>
|
|
</trkpt>
|
|
<trkpt lat="57.631209" lon="10.450288">
|
|
<ele>14.212637</ele>
|
|
<time>2026-07-17T15:22:27.000Z</time>
|
|
</trkpt>
|
|
<trkpt lat="57.631168" lon="10.450213">
|
|
<ele>14.231668</ele>
|
|
<time>2026-07-17T15:22:28.000Z</time>
|
|
</trkpt>
|
|
<trkpt lat="57.631129" lon="10.450136">
|
|
<ele>14.250488</ele>
|
|
<time>2026-07-17T15:22:29.000Z</time>
|
|
</trkpt>
|
|
<trkpt lat="57.631088" lon="10.450059">
|
|
<ele>14.269769</ele>
|
|
<time>2026-07-17T15:22:30.000Z</time>
|
|
</trkpt>
|
|
<trkpt lat="57.631052" lon="10.449987">
|
|
<ele>14.287260</ele>
|
|
<time>2026-07-17T15:22:31.000Z</time>
|
|
</trkpt>
|
|
<trkpt lat="57.631015" lon="10.449917">
|
|
<ele>14.304725</ele>
|
|
<time>2026-07-17T15:22:32.000Z</time>
|
|
</trkpt>
|
|
<trkpt lat="57.630972" lon="10.449838">
|
|
<ele>14.324727</ele>
|
|
<time>2026-07-17T15:22:33.000Z</time>
|
|
</trkpt>
|
|
<trkpt lat="57.630929" lon="10.449764">
|
|
<ele>14.344117</ele>
|
|
<time>2026-07-17T15:22:34.000Z</time>
|
|
</trkpt>
|
|
<trkpt lat="57.630890" lon="10.449693">
|
|
<ele>14.362178</ele>
|
|
<time>2026-07-17T15:22:35.000Z</time>
|
|
</trkpt>
|
|
<trkpt lat="57.630851" lon="10.449626">
|
|
<ele>14.379750</ele>
|
|
<time>2026-07-17T15:22:36.000Z</time>
|
|
</trkpt>
|
|
<trkpt lat="57.630808" lon="10.449557">
|
|
<ele>14.398550</ele>
|
|
<time>2026-07-17T15:22:37.000Z</time>
|
|
</trkpt>
|
|
<trkpt lat="57.630766" lon="10.449492">
|
|
<ele>14.416638</ele>
|
|
<time>2026-07-17T15:22:38.000Z</time>
|
|
</trkpt>
|
|
<trkpt lat="57.630723" lon="10.449429">
|
|
<ele>14.434762</ele>
|
|
<time>2026-07-17T15:22:39.000Z</time>
|
|
</trkpt>
|
|
<trkpt lat="57.630678" lon="10.449364">
|
|
<ele>14.453627</ele>
|
|
<time>2026-07-17T15:22:40.000Z</time>
|
|
</trkpt>
|
|
<trkpt lat="57.630636" lon="10.449299">
|
|
<ele>14.471715</ele>
|
|
<time>2026-07-17T15:22:41.000Z</time>
|
|
</trkpt>
|
|
<trkpt lat="57.630595" lon="10.449236">
|
|
<ele>14.489322</ele>
|
|
<time>2026-07-17T15:22:42.000Z</time>
|
|
</trkpt>
|
|
<trkpt lat="57.630554" lon="10.449173">
|
|
<ele>14.506928</ele>
|
|
<time>2026-07-17T15:22:43.000Z</time>
|
|
</trkpt>
|
|
<trkpt lat="57.630510" lon="10.449106">
|
|
<ele>14.525755</ele>
|
|
<time>2026-07-17T15:22:44.000Z</time>
|
|
</trkpt>
|
|
<trkpt lat="57.630468" lon="10.449043">
|
|
<ele>14.543619</ele>
|
|
<time>2026-07-17T15:22:45.000Z</time>
|
|
</trkpt>
|
|
<trkpt lat="57.630428" lon="10.448988">
|
|
<ele>14.560091</ele>
|
|
<time>2026-07-17T15:22:46.000Z</time>
|
|
</trkpt>
|
|
<trkpt lat="57.630387" lon="10.448940">
|
|
<ele>14.576138</ele>
|
|
<time>2026-07-17T15:22:47.000Z</time>
|
|
</trkpt>
|
|
<trkpt lat="57.630337" lon="10.448887">
|
|
<ele>14.595203</ele>
|
|
<time>2026-07-17T15:22:48.000Z</time>
|
|
</trkpt>
|
|
<trkpt lat="57.630285" lon="10.448833">
|
|
<ele>14.614934</ele>
|
|
<time>2026-07-17T15:22:49.000Z</time>
|
|
</trkpt>
|
|
<trkpt lat="57.630238" lon="10.448785">
|
|
<ele>14.632698</ele>
|
|
<time>2026-07-17T15:22:50.000Z</time>
|
|
</trkpt>
|
|
<trkpt lat="57.630187" lon="10.448739">
|
|
<ele>14.639400</ele>
|
|
<time>2026-07-17T15:22:51.000Z</time>
|
|
</trkpt>
|
|
<trkpt lat="57.630140" lon="10.448697">
|
|
<ele>14.638255</ele>
|
|
<time>2026-07-17T15:22:52.000Z</time>
|
|
</trkpt>
|
|
<trkpt lat="57.630091" lon="10.448657">
|
|
<ele>14.637080</ele>
|
|
<time>2026-07-17T15:22:53.000Z</time>
|
|
</trkpt>
|
|
<trkpt lat="57.630041" lon="10.448620">
|
|
<ele>14.635899</ele>
|
|
<time>2026-07-17T15:22:54.000Z</time>
|
|
</trkpt>
|
|
<trkpt lat="57.629994" lon="10.448581">
|
|
<ele>14.634769</ele>
|
|
<time>2026-07-17T15:22:55.000Z</time>
|
|
</trkpt>
|
|
<trkpt lat="57.629947" lon="10.448539">
|
|
<ele>14.633624</ele>
|
|
<time>2026-07-17T15:22:56.000Z</time>
|
|
</trkpt>
|
|
<trkpt lat="57.629899" lon="10.448490">
|
|
<ele>14.632422</ele>
|
|
<time>2026-07-17T15:22:57.000Z</time>
|
|
</trkpt>
|
|
<trkpt lat="57.629851" lon="10.448438">
|
|
<ele>14.631203</ele>
|
|
<time>2026-07-17T15:22:58.000Z</time>
|
|
</trkpt>
|
|
<trkpt lat="57.629801" lon="10.448384">
|
|
<ele>14.629934</ele>
|
|
<time>2026-07-17T15:22:59.000Z</time>
|
|
</trkpt>
|
|
<trkpt lat="57.629752" lon="10.448332">
|
|
<ele>14.628695</ele>
|
|
<time>2026-07-17T15:23:00.000Z</time>
|
|
</trkpt>
|
|
<trkpt lat="57.629701" lon="10.448281">
|
|
<ele>14.627424</ele>
|
|
<time>2026-07-17T15:23:01.000Z</time>
|
|
</trkpt>
|
|
<trkpt lat="57.629648" lon="10.448232">
|
|
<ele>14.626125</ele>
|
|
<time>2026-07-17T15:23:02.000Z</time>
|
|
</trkpt>
|
|
<trkpt lat="57.629594" lon="10.448183">
|
|
<ele>14.624806</ele>
|
|
<time>2026-07-17T15:23:03.000Z</time>
|
|
</trkpt>
|
|
<trkpt lat="57.629542" lon="10.448133">
|
|
<ele>14.623520</ele>
|
|
<time>2026-07-17T15:23:04.000Z</time>
|
|
</trkpt>
|
|
<trkpt lat="57.629491" lon="10.448083">
|
|
<ele>14.622255</ele>
|
|
<time>2026-07-17T15:23:05.000Z</time>
|
|
</trkpt>
|
|
<trkpt lat="57.629441" lon="10.448038">
|
|
<ele>14.621035</ele>
|
|
<time>2026-07-17T15:23:06.000Z</time>
|
|
</trkpt>
|
|
<trkpt lat="57.629392" lon="10.447991">
|
|
<ele>14.619825</ele>
|
|
<time>2026-07-17T15:23:07.000Z</time>
|
|
</trkpt>
|
|
<trkpt lat="57.629341" lon="10.447940">
|
|
<ele>14.618554</ele>
|
|
<time>2026-07-17T15:23:08.000Z</time>
|
|
</trkpt>
|
|
<trkpt lat="57.629291" lon="10.447892">
|
|
<ele>14.617319</ele>
|
|
<time>2026-07-17T15:23:09.000Z</time>
|
|
</trkpt>
|
|
<trkpt lat="57.629243" lon="10.447841">
|
|
<ele>14.616105</ele>
|
|
<time>2026-07-17T15:23:10.000Z</time>
|
|
</trkpt>
|
|
<trkpt lat="57.629194" lon="10.447789">
|
|
<ele>14.614867</ele>
|
|
<time>2026-07-17T15:23:11.000Z</time>
|
|
</trkpt>
|
|
<trkpt lat="57.629140" lon="10.447735">
|
|
<ele>14.613521</ele>
|
|
<time>2026-07-17T15:23:12.000Z</time>
|
|
</trkpt>
|
|
<trkpt lat="57.629087" lon="10.447684">
|
|
<ele>14.612211</ele>
|
|
<time>2026-07-17T15:23:13.000Z</time>
|
|
</trkpt>
|
|
<trkpt lat="57.629034" lon="10.447635">
|
|
<ele>14.610912</ele>
|
|
<time>2026-07-17T15:23:14.000Z</time>
|
|
</trkpt>
|
|
<trkpt lat="57.628985" lon="10.447586">
|
|
<ele>14.609690</ele>
|
|
<time>2026-07-17T15:23:15.000Z</time>
|
|
</trkpt>
|
|
<trkpt lat="57.628934" lon="10.447535">
|
|
<ele>14.608419</ele>
|
|
<time>2026-07-17T15:23:16.000Z</time>
|
|
</trkpt>
|
|
<trkpt lat="57.628885" lon="10.447483">
|
|
<ele>14.607181</ele>
|
|
<time>2026-07-17T15:23:17.000Z</time>
|
|
</trkpt>
|
|
<trkpt lat="57.628832" lon="10.447430">
|
|
<ele>14.605860</ele>
|
|
<time>2026-07-17T15:23:18.000Z</time>
|
|
</trkpt>
|
|
<trkpt lat="57.628779" lon="10.447378">
|
|
<ele>14.604544</ele>
|
|
<time>2026-07-17T15:23:19.000Z</time>
|
|
</trkpt>
|
|
<trkpt lat="57.628728" lon="10.447326">
|
|
<ele>14.603268</ele>
|
|
<time>2026-07-17T15:23:20.000Z</time>
|
|
</trkpt>
|
|
<trkpt lat="57.628675" lon="10.447275">
|
|
<ele>14.601958</ele>
|
|
<time>2026-07-17T15:23:21.000Z</time>
|
|
</trkpt>
|
|
<trkpt lat="57.628622" lon="10.447223">
|
|
<ele>14.600642</ele>
|
|
<time>2026-07-17T15:23:22.000Z</time>
|
|
</trkpt>
|
|
<trkpt lat="57.628567" lon="10.447165">
|
|
<ele>14.607046</ele>
|
|
<time>2026-07-17T15:23:23.000Z</time>
|
|
</trkpt>
|
|
<trkpt lat="57.628514" lon="10.447107">
|
|
<ele>14.613343</ele>
|
|
<time>2026-07-17T15:23:24.000Z</time>
|
|
</trkpt>
|
|
<trkpt lat="57.628463" lon="10.447054">
|
|
<ele>14.619325</ele>
|
|
<time>2026-07-17T15:23:25.000Z</time>
|
|
</trkpt>
|
|
<trkpt lat="57.628411" lon="10.447001">
|
|
<ele>14.625398</ele>
|
|
<time>2026-07-17T15:23:26.000Z</time>
|
|
</trkpt>
|
|
<trkpt lat="57.628359" lon="10.446949">
|
|
<ele>14.631444</ele>
|
|
<time>2026-07-17T15:23:27.000Z</time>
|
|
</trkpt>
|
|
<trkpt lat="57.628308" lon="10.446898">
|
|
<ele>14.637374</ele>
|
|
<time>2026-07-17T15:23:28.000Z</time>
|
|
</trkpt>
|
|
<trkpt lat="57.628255" lon="10.446845">
|
|
<ele>14.643537</ele>
|
|
<time>2026-07-17T15:23:29.000Z</time>
|
|
</trkpt>
|
|
<trkpt lat="57.628201" lon="10.446793">
|
|
<ele>14.649765</ele>
|
|
<time>2026-07-17T15:23:30.000Z</time>
|
|
</trkpt>
|
|
<trkpt lat="57.628150" lon="10.446742">
|
|
<ele>14.655695</ele>
|
|
<time>2026-07-17T15:23:31.000Z</time>
|
|
</trkpt>
|
|
<trkpt lat="57.628104" lon="10.446693">
|
|
<ele>14.661123</ele>
|
|
<time>2026-07-17T15:23:32.000Z</time>
|
|
</trkpt>
|
|
<trkpt lat="57.628053" lon="10.446642">
|
|
<ele>14.667053</ele>
|
|
<time>2026-07-17T15:23:33.000Z</time>
|
|
</trkpt>
|
|
<trkpt lat="57.627997" lon="10.446589">
|
|
<ele>14.673489</ele>
|
|
<time>2026-07-17T15:23:34.000Z</time>
|
|
</trkpt>
|
|
<trkpt lat="57.627947" lon="10.446538">
|
|
<ele>14.679329</ele>
|
|
<time>2026-07-17T15:23:35.000Z</time>
|
|
</trkpt>
|
|
<trkpt lat="57.627895" lon="10.446487">
|
|
<ele>14.685349</ele>
|
|
<time>2026-07-17T15:23:36.000Z</time>
|
|
</trkpt>
|
|
<trkpt lat="57.627845" lon="10.446435">
|
|
<ele>14.691216</ele>
|
|
<time>2026-07-17T15:23:37.000Z</time>
|
|
</trkpt>
|
|
<trkpt lat="57.627794" lon="10.446382">
|
|
<ele>14.697199</ele>
|
|
<time>2026-07-17T15:23:38.000Z</time>
|
|
</trkpt>
|
|
<trkpt lat="57.627746" lon="10.446336">
|
|
<ele>14.702729</ele>
|
|
<time>2026-07-17T15:23:39.000Z</time>
|
|
</trkpt>
|
|
<trkpt lat="57.627695" lon="10.446289">
|
|
<ele>14.708559</ele>
|
|
<time>2026-07-17T15:23:40.000Z</time>
|
|
</trkpt>
|
|
<trkpt lat="57.627663" lon="10.446259">
|
|
<ele>14.712229</ele>
|
|
<time>2026-07-17T15:23:41.000Z</time>
|
|
</trkpt>
|
|
<trkpt lat="57.627586" lon="10.446186">
|
|
<ele>14.721081</ele>
|
|
<time>2026-07-17T15:23:42.000Z</time>
|
|
</trkpt>
|
|
<trkpt lat="57.627535" lon="10.446135">
|
|
<ele>14.727011</ele>
|
|
<time>2026-07-17T15:23:43.000Z</time>
|
|
</trkpt>
|
|
<trkpt lat="57.627484" lon="10.446083">
|
|
<ele>14.732967</ele>
|
|
<time>2026-07-17T15:23:44.000Z</time>
|
|
</trkpt>
|
|
<trkpt lat="57.627433" lon="10.446035">
|
|
<ele>14.738821</ele>
|
|
<time>2026-07-17T15:23:45.000Z</time>
|
|
</trkpt>
|
|
<trkpt lat="57.627381" lon="10.445990">
|
|
<ele>14.744696</ele>
|
|
<time>2026-07-17T15:23:46.000Z</time>
|
|
</trkpt>
|
|
<trkpt lat="57.627329" lon="10.445943">
|
|
<ele>14.750618</ele>
|
|
<time>2026-07-17T15:23:47.000Z</time>
|
|
</trkpt>
|
|
<trkpt lat="57.627276" lon="10.445898">
|
|
<ele>14.756586</ele>
|
|
<time>2026-07-17T15:23:48.000Z</time>
|
|
</trkpt>
|
|
<trkpt lat="57.627227" lon="10.445856">
|
|
<ele>14.762113</ele>
|
|
<time>2026-07-17T15:23:49.000Z</time>
|
|
</trkpt>
|
|
<trkpt lat="57.627180" lon="10.445812">
|
|
<ele>14.767502</ele>
|
|
<time>2026-07-17T15:23:50.000Z</time>
|
|
</trkpt>
|
|
<trkpt lat="57.627134" lon="10.445767">
|
|
<ele>14.772825</ele>
|
|
<time>2026-07-17T15:23:51.000Z</time>
|
|
</trkpt>
|
|
<trkpt lat="57.627068" lon="10.445707">
|
|
<ele>14.780349</ele>
|
|
<time>2026-07-17T15:23:52.000Z</time>
|
|
</trkpt>
|
|
<trkpt lat="57.627013" lon="10.445660">
|
|
<ele>14.786365</ele>
|
|
<time>2026-07-17T15:23:53.000Z</time>
|
|
</trkpt>
|
|
<trkpt lat="57.626959" lon="10.445610">
|
|
<ele>14.791803</ele>
|
|
<time>2026-07-17T15:23:54.000Z</time>
|
|
</trkpt>
|
|
<trkpt lat="57.626909" lon="10.445556">
|
|
<ele>14.797015</ele>
|
|
<time>2026-07-17T15:23:55.000Z</time>
|
|
</trkpt>
|
|
<trkpt lat="57.626856" lon="10.445495">
|
|
<ele>14.802632</ele>
|
|
<time>2026-07-17T15:23:56.000Z</time>
|
|
</trkpt>
|
|
<trkpt lat="57.626804" lon="10.445427">
|
|
<ele>14.808360</ele>
|
|
<time>2026-07-17T15:23:57.000Z</time>
|
|
</trkpt>
|
|
<trkpt lat="57.626752" lon="10.445346">
|
|
<ele>14.814470</ele>
|
|
<time>2026-07-17T15:23:58.000Z</time>
|
|
</trkpt>
|
|
<trkpt lat="57.626702" lon="10.445266">
|
|
<ele>14.820411</ele>
|
|
<time>2026-07-17T15:23:59.000Z</time>
|
|
</trkpt>
|
|
<trkpt lat="57.626656" lon="10.445201">
|
|
<ele>14.825616</ele>
|
|
<time>2026-07-17T15:24:00.000Z</time>
|
|
</trkpt>
|
|
<trkpt lat="57.626607" lon="10.445141">
|
|
<ele>14.830903</ele>
|
|
<time>2026-07-17T15:24:01.000Z</time>
|
|
</trkpt>
|
|
<trkpt lat="57.626552" lon="10.445081">
|
|
<ele>14.836650</ele>
|
|
<time>2026-07-17T15:24:02.000Z</time>
|
|
</trkpt>
|
|
<trkpt lat="57.626502" lon="10.445026">
|
|
<ele>14.841886</ele>
|
|
<time>2026-07-17T15:24:03.000Z</time>
|
|
</trkpt>
|
|
<trkpt lat="57.626446" lon="10.444958">
|
|
<ele>14.847913</ele>
|
|
<time>2026-07-17T15:24:04.000Z</time>
|
|
</trkpt>
|
|
<trkpt lat="57.626395" lon="10.444896">
|
|
<ele>14.853404</ele>
|
|
<time>2026-07-17T15:24:05.000Z</time>
|
|
</trkpt>
|
|
<trkpt lat="57.626344" lon="10.444835">
|
|
<ele>14.858869</ele>
|
|
<time>2026-07-17T15:24:06.000Z</time>
|
|
</trkpt>
|
|
<trkpt lat="57.626292" lon="10.444774">
|
|
<ele>14.864410</ele>
|
|
<time>2026-07-17T15:24:07.000Z</time>
|
|
</trkpt>
|
|
<trkpt lat="57.626242" lon="10.444719">
|
|
<ele>14.869646</ele>
|
|
<time>2026-07-17T15:24:08.000Z</time>
|
|
</trkpt>
|
|
<trkpt lat="57.626189" lon="10.444672">
|
|
<ele>14.874940</ele>
|
|
<time>2026-07-17T15:24:09.000Z</time>
|
|
</trkpt>
|
|
<trkpt lat="57.626135" lon="10.444626">
|
|
<ele>14.880295</ele>
|
|
<time>2026-07-17T15:24:10.000Z</time>
|
|
</trkpt>
|
|
<trkpt lat="57.626084" lon="10.444579">
|
|
<ele>14.885427</ele>
|
|
<time>2026-07-17T15:24:11.000Z</time>
|
|
</trkpt>
|
|
<trkpt lat="57.626034" lon="10.444535">
|
|
<ele>14.890414</ele>
|
|
<time>2026-07-17T15:24:12.000Z</time>
|
|
</trkpt>
|
|
<trkpt lat="57.625980" lon="10.444491">
|
|
<ele>14.895730</ele>
|
|
<time>2026-07-17T15:24:13.000Z</time>
|
|
</trkpt>
|
|
<trkpt lat="57.625920" lon="10.444452">
|
|
<ele>14.901463</ele>
|
|
<time>2026-07-17T15:24:14.000Z</time>
|
|
</trkpt>
|
|
<trkpt lat="57.625860" lon="10.444432">
|
|
<ele>14.906962</ele>
|
|
<time>2026-07-17T15:24:15.000Z</time>
|
|
</trkpt>
|
|
<trkpt lat="57.625802" lon="10.444413">
|
|
<ele>14.912276</ele>
|
|
<time>2026-07-17T15:24:16.000Z</time>
|
|
</trkpt>
|
|
<trkpt lat="57.625746" lon="10.444378">
|
|
<ele>14.917604</ele>
|
|
<time>2026-07-17T15:24:17.000Z</time>
|
|
</trkpt>
|
|
<trkpt lat="57.625692" lon="10.444325">
|
|
<ele>14.923109</ele>
|
|
<time>2026-07-17T15:24:18.000Z</time>
|
|
</trkpt>
|
|
<trkpt lat="57.625641" lon="10.444264">
|
|
<ele>14.928573</ele>
|
|
<time>2026-07-17T15:24:19.000Z</time>
|
|
</trkpt>
|
|
<trkpt lat="57.625593" lon="10.444210">
|
|
<ele>14.933630</ele>
|
|
<time>2026-07-17T15:24:20.000Z</time>
|
|
</trkpt>
|
|
<trkpt lat="57.625539" lon="10.444154">
|
|
<ele>14.939203</ele>
|
|
<time>2026-07-17T15:24:21.000Z</time>
|
|
</trkpt>
|
|
<trkpt lat="57.625485" lon="10.444103">
|
|
<ele>14.944663</ele>
|
|
<time>2026-07-17T15:24:22.000Z</time>
|
|
</trkpt>
|
|
<trkpt lat="57.625430" lon="10.444059">
|
|
<ele>14.953159</ele>
|
|
<time>2026-07-17T15:24:23.000Z</time>
|
|
</trkpt>
|
|
<trkpt lat="57.625375" lon="10.444022">
|
|
<ele>14.964353</ele>
|
|
<time>2026-07-17T15:24:24.000Z</time>
|
|
</trkpt>
|
|
<trkpt lat="57.625320" lon="10.443986">
|
|
<ele>14.975512</ele>
|
|
<time>2026-07-17T15:24:25.000Z</time>
|
|
</trkpt>
|
|
<trkpt lat="57.625265" lon="10.443948">
|
|
<ele>14.986740</ele>
|
|
<time>2026-07-17T15:24:26.000Z</time>
|
|
</trkpt>
|
|
<trkpt lat="57.625216" lon="10.443902">
|
|
<ele>14.997241</ele>
|
|
<time>2026-07-17T15:24:27.000Z</time>
|
|
</trkpt>
|
|
<trkpt lat="57.625167" lon="10.443842">
|
|
<ele>15.008460</ele>
|
|
<time>2026-07-17T15:24:28.000Z</time>
|
|
</trkpt>
|
|
<trkpt lat="57.625120" lon="10.443773">
|
|
<ele>15.019907</ele>
|
|
<time>2026-07-17T15:24:29.000Z</time>
|
|
</trkpt>
|
|
<trkpt lat="57.625073" lon="10.443692">
|
|
<ele>15.032153</ele>
|
|
<time>2026-07-17T15:24:30.000Z</time>
|
|
</trkpt>
|
|
<trkpt lat="57.625026" lon="10.443620">
|
|
<ele>15.043793</ele>
|
|
<time>2026-07-17T15:24:31.000Z</time>
|
|
</trkpt>
|
|
<trkpt lat="57.624980" lon="10.443558">
|
|
<ele>15.054655</ele>
|
|
<time>2026-07-17T15:24:32.000Z</time>
|
|
</trkpt>
|
|
<trkpt lat="57.624930" lon="10.443503">
|
|
<ele>15.065766</ele>
|
|
<time>2026-07-17T15:24:33.000Z</time>
|
|
</trkpt>
|
|
<trkpt lat="57.624875" lon="10.443448">
|
|
<ele>15.077712</ele>
|
|
<time>2026-07-17T15:24:34.000Z</time>
|
|
</trkpt>
|
|
<trkpt lat="57.624822" lon="10.443394">
|
|
<ele>15.089272</ele>
|
|
<time>2026-07-17T15:24:35.000Z</time>
|
|
</trkpt>
|
|
<trkpt lat="57.624771" lon="10.443344">
|
|
<ele>15.100301</ele>
|
|
<time>2026-07-17T15:24:36.000Z</time>
|
|
</trkpt>
|
|
<trkpt lat="57.624724" lon="10.443296">
|
|
<ele>15.110558</ele>
|
|
<time>2026-07-17T15:24:37.000Z</time>
|
|
</trkpt>
|
|
<trkpt lat="57.624670" lon="10.443241">
|
|
<ele>15.122335</ele>
|
|
<time>2026-07-17T15:24:38.000Z</time>
|
|
</trkpt>
|
|
<trkpt lat="57.624618" lon="10.443188">
|
|
<ele>15.133678</ele>
|
|
<time>2026-07-17T15:24:39.000Z</time>
|
|
</trkpt>
|
|
<trkpt lat="57.624569" lon="10.443136">
|
|
<ele>15.144469</ele>
|
|
<time>2026-07-17T15:24:40.000Z</time>
|
|
</trkpt>
|
|
<trkpt lat="57.624513" lon="10.443080">
|
|
<ele>15.156632</ele>
|
|
<time>2026-07-17T15:24:41.000Z</time>
|
|
</trkpt>
|
|
<trkpt lat="57.624460" lon="10.443024">
|
|
<ele>15.168292</ele>
|
|
<time>2026-07-17T15:24:42.000Z</time>
|
|
</trkpt>
|
|
<trkpt lat="57.624405" lon="10.442966">
|
|
<ele>15.180386</ele>
|
|
<time>2026-07-17T15:24:43.000Z</time>
|
|
</trkpt>
|
|
<trkpt lat="57.624353" lon="10.442910">
|
|
<ele>15.191880</ele>
|
|
<time>2026-07-17T15:24:44.000Z</time>
|
|
</trkpt>
|
|
<trkpt lat="57.624302" lon="10.442856">
|
|
<ele>15.203105</ele>
|
|
<time>2026-07-17T15:24:45.000Z</time>
|
|
</trkpt>
|
|
<trkpt lat="57.624251" lon="10.442806">
|
|
<ele>15.214134</ele>
|
|
<time>2026-07-17T15:24:46.000Z</time>
|
|
</trkpt>
|
|
<trkpt lat="57.624201" lon="10.442758">
|
|
<ele>15.224899</ele>
|
|
<time>2026-07-17T15:24:47.000Z</time>
|
|
</trkpt>
|
|
<trkpt lat="57.624149" lon="10.442709">
|
|
<ele>15.236051</ele>
|
|
<time>2026-07-17T15:24:48.000Z</time>
|
|
</trkpt>
|
|
<trkpt lat="57.624103" lon="10.442661">
|
|
<ele>15.246141</ele>
|
|
<time>2026-07-17T15:24:49.000Z</time>
|
|
</trkpt>
|
|
<trkpt lat="57.624057" lon="10.442614">
|
|
<ele>15.256181</ele>
|
|
<time>2026-07-17T15:24:50.000Z</time>
|
|
</trkpt>
|
|
<trkpt lat="57.624009" lon="10.442564">
|
|
<ele>15.266705</ele>
|
|
<time>2026-07-17T15:24:51.000Z</time>
|
|
</trkpt>
|
|
<trkpt lat="57.623958" lon="10.442506">
|
|
<ele>15.278138</ele>
|
|
<time>2026-07-17T15:24:52.000Z</time>
|
|
</trkpt>
|
|
<trkpt lat="57.623913" lon="10.442445">
|
|
<ele>15.288785</ele>
|
|
<time>2026-07-17T15:24:53.000Z</time>
|
|
</trkpt>
|
|
<trkpt lat="57.623867" lon="10.442381">
|
|
<ele>15.299930</ele>
|
|
<time>2026-07-17T15:24:54.000Z</time>
|
|
</trkpt>
|
|
<trkpt lat="57.623822" lon="10.442321">
|
|
<ele>15.310728</ele>
|
|
<time>2026-07-17T15:24:55.000Z</time>
|
|
</trkpt>
|
|
<trkpt lat="57.623780" lon="10.442269">
|
|
<ele>15.320570</ele>
|
|
<time>2026-07-17T15:24:56.000Z</time>
|
|
</trkpt>
|
|
<trkpt lat="57.623739" lon="10.442224">
|
|
<ele>15.329858</ele>
|
|
<time>2026-07-17T15:24:57.000Z</time>
|
|
</trkpt>
|
|
<trkpt lat="57.623675" lon="10.442165">
|
|
<ele>15.343797</ele>
|
|
<time>2026-07-17T15:24:58.000Z</time>
|
|
</trkpt>
|
|
<trkpt lat="57.623624" lon="10.442124">
|
|
<ele>15.354641</ele>
|
|
<time>2026-07-17T15:24:59.000Z</time>
|
|
</trkpt>
|
|
<trkpt lat="57.623572" lon="10.442087">
|
|
<ele>15.365509</ele>
|
|
<time>2026-07-17T15:25:00.000Z</time>
|
|
</trkpt>
|
|
<trkpt lat="57.623519" lon="10.442049">
|
|
<ele>15.376597</ele>
|
|
<time>2026-07-17T15:25:01.000Z</time>
|
|
</trkpt>
|
|
<trkpt lat="57.623465" lon="10.442002">
|
|
<ele>15.388233</ele>
|
|
<time>2026-07-17T15:25:02.000Z</time>
|
|
</trkpt>
|
|
<trkpt lat="57.623416" lon="10.441952">
|
|
<ele>15.399138</ele>
|
|
<time>2026-07-17T15:25:03.000Z</time>
|
|
</trkpt>
|
|
<trkpt lat="57.623367" lon="10.441900">
|
|
<ele>15.410145</ele>
|
|
<time>2026-07-17T15:25:04.000Z</time>
|
|
</trkpt>
|
|
<trkpt lat="57.623316" lon="10.441847">
|
|
<ele>15.421544</ele>
|
|
<time>2026-07-17T15:25:05.000Z</time>
|
|
</trkpt>
|
|
<trkpt lat="57.623267" lon="10.441796">
|
|
<ele>15.432499</ele>
|
|
<time>2026-07-17T15:25:06.000Z</time>
|
|
</trkpt>
|
|
<trkpt lat="57.623216" lon="10.441744">
|
|
<ele>15.443848</ele>
|
|
<time>2026-07-17T15:25:07.000Z</time>
|
|
</trkpt>
|
|
<trkpt lat="57.623162" lon="10.441692">
|
|
<ele>15.455714</ele>
|
|
<time>2026-07-17T15:25:08.000Z</time>
|
|
</trkpt>
|
|
<trkpt lat="57.623110" lon="10.441641">
|
|
<ele>15.467185</ele>
|
|
<time>2026-07-17T15:25:09.000Z</time>
|
|
</trkpt>
|
|
<trkpt lat="57.623058" lon="10.441591">
|
|
<ele>15.478608</ele>
|
|
<time>2026-07-17T15:25:10.000Z</time>
|
|
</trkpt>
|
|
<trkpt lat="57.623008" lon="10.441542">
|
|
<ele>15.489636</ele>
|
|
<time>2026-07-17T15:25:11.000Z</time>
|
|
</trkpt>
|
|
<trkpt lat="57.622952" lon="10.441488">
|
|
<ele>15.501945</ele>
|
|
<time>2026-07-17T15:25:12.000Z</time>
|
|
</trkpt>
|
|
<trkpt lat="57.622899" lon="10.441438">
|
|
<ele>15.513541</ele>
|
|
<time>2026-07-17T15:25:13.000Z</time>
|
|
</trkpt>
|
|
<trkpt lat="57.622847" lon="10.441387">
|
|
<ele>15.525013</ele>
|
|
<time>2026-07-17T15:25:14.000Z</time>
|
|
</trkpt>
|
|
<trkpt lat="57.622798" lon="10.441340">
|
|
<ele>15.535771</ele>
|
|
<time>2026-07-17T15:25:15.000Z</time>
|
|
</trkpt>
|
|
<trkpt lat="57.622751" lon="10.441295">
|
|
<ele>15.546086</ele>
|
|
<time>2026-07-17T15:25:16.000Z</time>
|
|
</trkpt>
|
|
<trkpt lat="57.622703" lon="10.441248">
|
|
<ele>15.556671</ele>
|
|
<time>2026-07-17T15:25:17.000Z</time>
|
|
</trkpt>
|
|
<trkpt lat="57.622659" lon="10.441204">
|
|
<ele>15.566419</ele>
|
|
<time>2026-07-17T15:25:18.000Z</time>
|
|
</trkpt>
|
|
<trkpt lat="57.622621" lon="10.441164">
|
|
<ele>15.574938</ele>
|
|
<time>2026-07-17T15:25:19.000Z</time>
|
|
</trkpt>
|
|
<trkpt lat="57.622561" lon="10.441107">
|
|
<ele>15.588086</ele>
|
|
<time>2026-07-17T15:25:20.000Z</time>
|
|
</trkpt>
|
|
<trkpt lat="57.622513" lon="10.441062">
|
|
<ele>15.598575</ele>
|
|
<time>2026-07-17T15:25:21.000Z</time>
|
|
</trkpt>
|
|
<trkpt lat="57.622467" lon="10.441012">
|
|
<ele>15.608970</ele>
|
|
<time>2026-07-17T15:25:22.000Z</time>
|
|
</trkpt>
|
|
<trkpt lat="57.622423" lon="10.440961">
|
|
<ele>15.619084</ele>
|
|
<time>2026-07-17T15:25:23.000Z</time>
|
|
</trkpt>
|
|
<trkpt lat="57.622379" lon="10.440904">
|
|
<ele>15.629543</ele>
|
|
<time>2026-07-17T15:25:24.000Z</time>
|
|
</trkpt>
|
|
<trkpt lat="57.622333" lon="10.440840">
|
|
<ele>15.640746</ele>
|
|
<time>2026-07-17T15:25:25.000Z</time>
|
|
</trkpt>
|
|
<trkpt lat="57.622290" lon="10.440773">
|
|
<ele>15.641251</ele>
|
|
<time>2026-07-17T15:25:26.000Z</time>
|
|
</trkpt>
|
|
<trkpt lat="57.622247" lon="10.440705">
|
|
<ele>15.639071</ele>
|
|
<time>2026-07-17T15:25:27.000Z</time>
|
|
</trkpt>
|
|
<trkpt lat="57.622199" lon="10.440637">
|
|
<ele>15.636740</ele>
|
|
<time>2026-07-17T15:25:28.000Z</time>
|
|
</trkpt>
|
|
<trkpt lat="57.622150" lon="10.440576">
|
|
<ele>15.634461</ele>
|
|
<time>2026-07-17T15:25:29.000Z</time>
|
|
</trkpt>
|
|
<trkpt lat="57.622100" lon="10.440519">
|
|
<ele>15.632195</ele>
|
|
<time>2026-07-17T15:25:30.000Z</time>
|
|
</trkpt>
|
|
<trkpt lat="57.622047" lon="10.440466">
|
|
<ele>15.629869</ele>
|
|
<time>2026-07-17T15:25:31.000Z</time>
|
|
</trkpt>
|
|
<trkpt lat="57.621988" lon="10.440408">
|
|
<ele>15.627289</ele>
|
|
<time>2026-07-17T15:25:32.000Z</time>
|
|
</trkpt>
|
|
<trkpt lat="57.621935" lon="10.440355">
|
|
<ele>15.624963</ele>
|
|
<time>2026-07-17T15:25:33.000Z</time>
|
|
</trkpt>
|
|
<trkpt lat="57.621879" lon="10.440299">
|
|
<ele>15.622506</ele>
|
|
<time>2026-07-17T15:25:34.000Z</time>
|
|
</trkpt>
|
|
<trkpt lat="57.621825" lon="10.440246">
|
|
<ele>15.620146</ele>
|
|
<time>2026-07-17T15:25:35.000Z</time>
|
|
</trkpt>
|
|
<trkpt lat="57.621775" lon="10.440193">
|
|
<ele>15.617921</ele>
|
|
<time>2026-07-17T15:25:36.000Z</time>
|
|
</trkpt>
|
|
<trkpt lat="57.621724" lon="10.440141">
|
|
<ele>15.615673</ele>
|
|
<time>2026-07-17T15:25:37.000Z</time>
|
|
</trkpt>
|
|
<trkpt lat="57.621671" lon="10.440091">
|
|
<ele>15.613376</ele>
|
|
<time>2026-07-17T15:25:38.000Z</time>
|
|
</trkpt>
|
|
<trkpt lat="57.621617" lon="10.440044">
|
|
<ele>15.611071</ele>
|
|
<time>2026-07-17T15:25:39.000Z</time>
|
|
</trkpt>
|
|
<trkpt lat="57.621564" lon="10.440000">
|
|
<ele>15.608827</ele>
|
|
<time>2026-07-17T15:25:40.000Z</time>
|
|
</trkpt>
|
|
<trkpt lat="57.621510" lon="10.439959">
|
|
<ele>15.606571</ele>
|
|
<time>2026-07-17T15:25:41.000Z</time>
|
|
</trkpt>
|
|
<trkpt lat="57.621454" lon="10.439916">
|
|
<ele>15.604229</ele>
|
|
<time>2026-07-17T15:25:42.000Z</time>
|
|
</trkpt>
|
|
<trkpt lat="57.621401" lon="10.439871">
|
|
<ele>15.601976</ele>
|
|
<time>2026-07-17T15:25:43.000Z</time>
|
|
</trkpt>
|
|
<trkpt lat="57.621349" lon="10.439823">
|
|
<ele>15.599732</ele>
|
|
<time>2026-07-17T15:25:44.000Z</time>
|
|
</trkpt>
|
|
<trkpt lat="57.621299" lon="10.439773">
|
|
<ele>15.597538</ele>
|
|
<time>2026-07-17T15:25:45.000Z</time>
|
|
</trkpt>
|
|
<trkpt lat="57.621245" lon="10.439727">
|
|
<ele>15.595241</ele>
|
|
<time>2026-07-17T15:25:46.000Z</time>
|
|
</trkpt>
|
|
<trkpt lat="57.621203" lon="10.439694">
|
|
<ele>15.593479</ele>
|
|
<time>2026-07-17T15:25:47.000Z</time>
|
|
</trkpt>
|
|
<trkpt lat="57.621136" lon="10.439636">
|
|
<ele>15.590621</ele>
|
|
<time>2026-07-17T15:25:48.000Z</time>
|
|
</trkpt>
|
|
<trkpt lat="57.621084" lon="10.439587">
|
|
<ele>15.588368</ele>
|
|
<time>2026-07-17T15:25:49.000Z</time>
|
|
</trkpt>
|
|
<trkpt lat="57.621033" lon="10.439535">
|
|
<ele>15.586120</ele>
|
|
<time>2026-07-17T15:25:50.000Z</time>
|
|
</trkpt>
|
|
<trkpt lat="57.620981" lon="10.439481">
|
|
<ele>15.583818</ele>
|
|
<time>2026-07-17T15:25:51.000Z</time>
|
|
</trkpt>
|
|
<trkpt lat="57.620925" lon="10.439432">
|
|
<ele>15.581425</ele>
|
|
<time>2026-07-17T15:25:52.000Z</time>
|
|
</trkpt>
|
|
<trkpt lat="57.620867" lon="10.439389">
|
|
<ele>15.579011</ele>
|
|
<time>2026-07-17T15:25:53.000Z</time>
|
|
</trkpt>
|
|
<trkpt lat="57.620810" lon="10.439354">
|
|
<ele>15.576689</ele>
|
|
<time>2026-07-17T15:25:54.000Z</time>
|
|
</trkpt>
|
|
<trkpt lat="57.620751" lon="10.439326">
|
|
<ele>15.574334</ele>
|
|
<time>2026-07-17T15:25:55.000Z</time>
|
|
</trkpt>
|
|
<trkpt lat="57.620693" lon="10.439299">
|
|
<ele>15.571190</ele>
|
|
<time>2026-07-17T15:25:56.000Z</time>
|
|
</trkpt>
|
|
<trkpt lat="57.620636" lon="10.439272">
|
|
<ele>15.567531</ele>
|
|
<time>2026-07-17T15:25:57.000Z</time>
|
|
</trkpt>
|
|
<trkpt lat="57.620579" lon="10.439239">
|
|
<ele>15.563817</ele>
|
|
<time>2026-07-17T15:25:58.000Z</time>
|
|
</trkpt>
|
|
<trkpt lat="57.620526" lon="10.439201">
|
|
<ele>15.560284</ele>
|
|
<time>2026-07-17T15:25:59.000Z</time>
|
|
</trkpt>
|
|
<trkpt lat="57.620475" lon="10.439162">
|
|
<ele>15.556855</ele>
|
|
<time>2026-07-17T15:26:00.000Z</time>
|
|
</trkpt>
|
|
<trkpt lat="57.620426" lon="10.439121">
|
|
<ele>15.553513</ele>
|
|
<time>2026-07-17T15:26:01.000Z</time>
|
|
</trkpt>
|
|
<trkpt lat="57.620378" lon="10.439073">
|
|
<ele>15.550125</ele>
|
|
<time>2026-07-17T15:26:02.000Z</time>
|
|
</trkpt>
|
|
<trkpt lat="57.620327" lon="10.439016">
|
|
<ele>15.546426</ele>
|
|
<time>2026-07-17T15:26:03.000Z</time>
|
|
</trkpt>
|
|
<trkpt lat="57.620272" lon="10.438965">
|
|
<ele>15.542605</ele>
|
|
<time>2026-07-17T15:26:04.000Z</time>
|
|
</trkpt>
|
|
<trkpt lat="57.620218" lon="10.438919">
|
|
<ele>15.538911</ele>
|
|
<time>2026-07-17T15:26:05.000Z</time>
|
|
</trkpt>
|
|
<trkpt lat="57.620169" lon="10.438875">
|
|
<ele>15.535528</ele>
|
|
<time>2026-07-17T15:26:06.000Z</time>
|
|
</trkpt>
|
|
<trkpt lat="57.620117" lon="10.438837">
|
|
<ele>15.532053</ele>
|
|
<time>2026-07-17T15:26:07.000Z</time>
|
|
</trkpt>
|
|
<trkpt lat="57.620060" lon="10.438794">
|
|
<ele>15.528227</ele>
|
|
<time>2026-07-17T15:26:08.000Z</time>
|
|
</trkpt>
|
|
<trkpt lat="57.620009" lon="10.438751">
|
|
<ele>15.524745</ele>
|
|
<time>2026-07-17T15:26:09.000Z</time>
|
|
</trkpt>
|
|
<trkpt lat="57.619959" lon="10.438706">
|
|
<ele>15.521291</ele>
|
|
<time>2026-07-17T15:26:10.000Z</time>
|
|
</trkpt>
|
|
<trkpt lat="57.619910" lon="10.438658">
|
|
<ele>15.517848</ele>
|
|
<time>2026-07-17T15:26:11.000Z</time>
|
|
</trkpt>
|
|
<trkpt lat="57.619862" lon="10.438613">
|
|
<ele>15.514505</ele>
|
|
<time>2026-07-17T15:26:12.000Z</time>
|
|
</trkpt>
|
|
<trkpt lat="57.619801" lon="10.438561">
|
|
<ele>15.510333</ele>
|
|
<time>2026-07-17T15:26:13.000Z</time>
|
|
</trkpt>
|
|
<trkpt lat="57.619747" lon="10.438514">
|
|
<ele>15.506625</ele>
|
|
<time>2026-07-17T15:26:14.000Z</time>
|
|
</trkpt>
|
|
<trkpt lat="57.619695" lon="10.438467">
|
|
<ele>15.503030</ele>
|
|
<time>2026-07-17T15:26:15.000Z</time>
|
|
</trkpt>
|
|
<trkpt lat="57.619644" lon="10.438415">
|
|
<ele>15.499414</ele>
|
|
<time>2026-07-17T15:26:16.000Z</time>
|
|
</trkpt>
|
|
<trkpt lat="57.619596" lon="10.438358">
|
|
<ele>15.495874</ele>
|
|
<time>2026-07-17T15:26:17.000Z</time>
|
|
</trkpt>
|
|
<trkpt lat="57.619546" lon="10.438302">
|
|
<ele>15.492246</ele>
|
|
<time>2026-07-17T15:26:18.000Z</time>
|
|
</trkpt>
|
|
<trkpt lat="57.619495" lon="10.438241">
|
|
<ele>15.488477</ele>
|
|
<time>2026-07-17T15:26:19.000Z</time>
|
|
</trkpt>
|
|
<trkpt lat="57.619445" lon="10.438183">
|
|
<ele>15.484814</ele>
|
|
<time>2026-07-17T15:26:20.000Z</time>
|
|
</trkpt>
|
|
<trkpt lat="57.619394" lon="10.438129">
|
|
<ele>15.481165</ele>
|
|
<time>2026-07-17T15:26:21.000Z</time>
|
|
</trkpt>
|
|
<trkpt lat="57.619344" lon="10.438082">
|
|
<ele>15.477682</ele>
|
|
<time>2026-07-17T15:26:22.000Z</time>
|
|
</trkpt>
|
|
<trkpt lat="57.619291" lon="10.438034">
|
|
<ele>15.474016</ele>
|
|
<time>2026-07-17T15:26:23.000Z</time>
|
|
</trkpt>
|
|
<trkpt lat="57.619232" lon="10.437975">
|
|
<ele>15.469851</ele>
|
|
<time>2026-07-17T15:26:24.000Z</time>
|
|
</trkpt>
|
|
<trkpt lat="57.619176" lon="10.437916">
|
|
<ele>15.465850</ele>
|
|
<time>2026-07-17T15:26:25.000Z</time>
|
|
</trkpt>
|
|
<trkpt lat="57.619117" lon="10.437861">
|
|
<ele>15.461747</ele>
|
|
<time>2026-07-17T15:26:26.000Z</time>
|
|
</trkpt>
|
|
<trkpt lat="57.619062" lon="10.437811">
|
|
<ele>15.459351</ele>
|
|
<time>2026-07-17T15:26:27.000Z</time>
|
|
</trkpt>
|
|
<trkpt lat="57.619007" lon="10.437752">
|
|
<ele>15.456985</ele>
|
|
<time>2026-07-17T15:26:28.000Z</time>
|
|
</trkpt>
|
|
<trkpt lat="57.618949" lon="10.437676">
|
|
<ele>15.454343</ele>
|
|
<time>2026-07-17T15:26:29.000Z</time>
|
|
</trkpt>
|
|
<trkpt lat="57.618897" lon="10.437595">
|
|
<ele>15.451818</ele>
|
|
<time>2026-07-17T15:26:30.000Z</time>
|
|
</trkpt>
|
|
<trkpt lat="57.618846" lon="10.437511">
|
|
<ele>15.449282</ele>
|
|
<time>2026-07-17T15:26:31.000Z</time>
|
|
</trkpt>
|
|
<trkpt lat="57.618792" lon="10.437433">
|
|
<ele>15.446736</ele>
|
|
<time>2026-07-17T15:26:32.000Z</time>
|
|
</trkpt>
|
|
<trkpt lat="57.618738" lon="10.437365">
|
|
<ele>15.444307</ele>
|
|
<time>2026-07-17T15:26:33.000Z</time>
|
|
</trkpt>
|
|
<trkpt lat="57.618678" lon="10.437307">
|
|
<ele>15.441788</ele>
|
|
<time>2026-07-17T15:26:34.000Z</time>
|
|
</trkpt>
|
|
<trkpt lat="57.618619" lon="10.437253">
|
|
<ele>15.439337</ele>
|
|
<time>2026-07-17T15:26:35.000Z</time>
|
|
</trkpt>
|
|
<trkpt lat="57.618564" lon="10.437200">
|
|
<ele>15.437029</ele>
|
|
<time>2026-07-17T15:26:36.000Z</time>
|
|
</trkpt>
|
|
<trkpt lat="57.618508" lon="10.437145">
|
|
<ele>15.434670</ele>
|
|
<time>2026-07-17T15:26:37.000Z</time>
|
|
</trkpt>
|
|
<trkpt lat="57.618439" lon="10.437078">
|
|
<ele>15.431770</ele>
|
|
<time>2026-07-17T15:26:38.000Z</time>
|
|
</trkpt>
|
|
<trkpt lat="57.618386" lon="10.437032">
|
|
<ele>15.429590</ele>
|
|
<time>2026-07-17T15:26:39.000Z</time>
|
|
</trkpt>
|
|
<trkpt lat="57.618333" lon="10.436989">
|
|
<ele>15.427435</ele>
|
|
<time>2026-07-17T15:26:40.000Z</time>
|
|
</trkpt>
|
|
<trkpt lat="57.618281" lon="10.436946">
|
|
<ele>15.425314</ele>
|
|
<time>2026-07-17T15:26:41.000Z</time>
|
|
</trkpt>
|
|
<trkpt lat="57.618232" lon="10.436901">
|
|
<ele>15.423278</ele>
|
|
<time>2026-07-17T15:26:42.000Z</time>
|
|
</trkpt>
|
|
<trkpt lat="57.618179" lon="10.436847">
|
|
<ele>15.421027</ele>
|
|
<time>2026-07-17T15:26:43.000Z</time>
|
|
</trkpt>
|
|
<trkpt lat="57.618121" lon="10.436788">
|
|
<ele>15.418564</ele>
|
|
<time>2026-07-17T15:26:44.000Z</time>
|
|
</trkpt>
|
|
<trkpt lat="57.618063" lon="10.436732">
|
|
<ele>15.416129</ele>
|
|
<time>2026-07-17T15:26:45.000Z</time>
|
|
</trkpt>
|
|
<trkpt lat="57.618007" lon="10.436672">
|
|
<ele>15.413721</ele>
|
|
<time>2026-07-17T15:26:46.000Z</time>
|
|
</trkpt>
|
|
<trkpt lat="57.617951" lon="10.436608">
|
|
<ele>15.411273</ele>
|
|
<time>2026-07-17T15:26:47.000Z</time>
|
|
</trkpt>
|
|
<trkpt lat="57.617896" lon="10.436549">
|
|
<ele>15.408907</ele>
|
|
<time>2026-07-17T15:26:48.000Z</time>
|
|
</trkpt>
|
|
<trkpt lat="57.617842" lon="10.436498">
|
|
<ele>15.406651</ele>
|
|
<time>2026-07-17T15:26:49.000Z</time>
|
|
</trkpt>
|
|
<trkpt lat="57.617789" lon="10.436455">
|
|
<ele>15.404496</ele>
|
|
<time>2026-07-17T15:26:50.000Z</time>
|
|
</trkpt>
|
|
<trkpt lat="57.617738" lon="10.436414">
|
|
<ele>15.402425</ele>
|
|
<time>2026-07-17T15:26:51.000Z</time>
|
|
</trkpt>
|
|
<trkpt lat="57.617688" lon="10.436377">
|
|
<ele>15.400420</ele>
|
|
<time>2026-07-17T15:26:52.000Z</time>
|
|
</trkpt>
|
|
<trkpt lat="57.617624" lon="10.436321">
|
|
<ele>15.397784</ele>
|
|
<time>2026-07-17T15:26:53.000Z</time>
|
|
</trkpt>
|
|
<trkpt lat="57.617567" lon="10.436266">
|
|
<ele>15.395391</ele>
|
|
<time>2026-07-17T15:26:54.000Z</time>
|
|
</trkpt>
|
|
<trkpt lat="57.617511" lon="10.436212">
|
|
<ele>15.395359</ele>
|
|
<time>2026-07-17T15:26:55.000Z</time>
|
|
</trkpt>
|
|
<trkpt lat="57.617455" lon="10.436154">
|
|
<ele>15.397082</ele>
|
|
<time>2026-07-17T15:26:56.000Z</time>
|
|
</trkpt>
|
|
<trkpt lat="57.617398" lon="10.436097">
|
|
<ele>15.398822</ele>
|
|
<time>2026-07-17T15:26:57.000Z</time>
|
|
</trkpt>
|
|
<trkpt lat="57.617342" lon="10.436043">
|
|
<ele>15.400518</ele>
|
|
<time>2026-07-17T15:26:58.000Z</time>
|
|
</trkpt>
|
|
<trkpt lat="57.617286" lon="10.435987">
|
|
<ele>15.402227</ele>
|
|
<time>2026-07-17T15:26:59.000Z</time>
|
|
</trkpt>
|
|
<trkpt lat="57.617230" lon="10.435928">
|
|
<ele>15.403957</ele>
|
|
<time>2026-07-17T15:27:00.000Z</time>
|
|
</trkpt>
|
|
<trkpt lat="57.617172" lon="10.435869">
|
|
<ele>15.405734</ele>
|
|
<time>2026-07-17T15:27:01.000Z</time>
|
|
</trkpt>
|
|
<trkpt lat="57.617119" lon="10.435815">
|
|
<ele>15.407359</ele>
|
|
<time>2026-07-17T15:27:02.000Z</time>
|
|
</trkpt>
|
|
<trkpt lat="57.617067" lon="10.435762">
|
|
<ele>15.408953</ele>
|
|
<time>2026-07-17T15:27:03.000Z</time>
|
|
</trkpt>
|
|
<trkpt lat="57.617012" lon="10.435707">
|
|
<ele>15.410632</ele>
|
|
<time>2026-07-17T15:27:04.000Z</time>
|
|
</trkpt>
|
|
<trkpt lat="57.616954" lon="10.435658">
|
|
<ele>15.412344</ele>
|
|
<time>2026-07-17T15:27:05.000Z</time>
|
|
</trkpt>
|
|
<trkpt lat="57.616903" lon="10.435614">
|
|
<ele>15.413856</ele>
|
|
<time>2026-07-17T15:27:06.000Z</time>
|
|
</trkpt>
|
|
<trkpt lat="57.616856" lon="10.435575">
|
|
<ele>15.415240</ele>
|
|
<time>2026-07-17T15:27:07.000Z</time>
|
|
</trkpt>
|
|
<trkpt lat="57.616806" lon="10.435533">
|
|
<ele>15.416715</ele>
|
|
<time>2026-07-17T15:27:08.000Z</time>
|
|
</trkpt>
|
|
<trkpt lat="57.616759" lon="10.435489">
|
|
<ele>15.418130</ele>
|
|
<time>2026-07-17T15:27:09.000Z</time>
|
|
</trkpt>
|
|
<trkpt lat="57.616708" lon="10.435443">
|
|
<ele>15.419654</ele>
|
|
<time>2026-07-17T15:27:10.000Z</time>
|
|
</trkpt>
|
|
<trkpt lat="57.616660" lon="10.435397">
|
|
<ele>15.421106</ele>
|
|
<time>2026-07-17T15:27:11.000Z</time>
|
|
</trkpt>
|
|
<trkpt lat="57.616612" lon="10.435352">
|
|
<ele>15.422551</ele>
|
|
<time>2026-07-17T15:27:12.000Z</time>
|
|
</trkpt>
|
|
<trkpt lat="57.616553" lon="10.435297">
|
|
<ele>15.424325</ele>
|
|
<time>2026-07-17T15:27:13.000Z</time>
|
|
</trkpt>
|
|
<trkpt lat="57.616498" lon="10.435234">
|
|
<ele>15.426061</ele>
|
|
<time>2026-07-17T15:27:14.000Z</time>
|
|
</trkpt>
|
|
<trkpt lat="57.616445" lon="10.435182">
|
|
<ele>15.427672</ele>
|
|
<time>2026-07-17T15:27:15.000Z</time>
|
|
</trkpt>
|
|
<trkpt lat="57.616392" lon="10.435129">
|
|
<ele>15.429290</ele>
|
|
<time>2026-07-17T15:27:16.000Z</time>
|
|
</trkpt>
|
|
<trkpt lat="57.616339" lon="10.435075">
|
|
<ele>15.430914</ele>
|
|
<time>2026-07-17T15:27:17.000Z</time>
|
|
</trkpt>
|
|
<trkpt lat="57.616288" lon="10.435024">
|
|
<ele>15.432471</ele>
|
|
<time>2026-07-17T15:27:18.000Z</time>
|
|
</trkpt>
|
|
<trkpt lat="57.616233" lon="10.434966">
|
|
<ele>15.434171</ele>
|
|
<time>2026-07-17T15:27:19.000Z</time>
|
|
</trkpt>
|
|
<trkpt lat="57.616181" lon="10.434915">
|
|
<ele>15.435751</ele>
|
|
<time>2026-07-17T15:27:20.000Z</time>
|
|
</trkpt>
|
|
<trkpt lat="57.616124" lon="10.434864">
|
|
<ele>15.437452</ele>
|
|
<time>2026-07-17T15:27:21.000Z</time>
|
|
</trkpt>
|
|
<trkpt lat="57.616067" lon="10.434809">
|
|
<ele>15.439178</ele>
|
|
<time>2026-07-17T15:27:22.000Z</time>
|
|
</trkpt>
|
|
<trkpt lat="57.616009" lon="10.434752">
|
|
<ele>15.440942</ele>
|
|
<time>2026-07-17T15:27:23.000Z</time>
|
|
</trkpt>
|
|
<trkpt lat="57.615952" lon="10.434698">
|
|
<ele>15.442662</ele>
|
|
<time>2026-07-17T15:27:24.000Z</time>
|
|
</trkpt>
|
|
<trkpt lat="57.615900" lon="10.434647">
|
|
<ele>15.438868</ele>
|
|
<time>2026-07-17T15:27:25.000Z</time>
|
|
</trkpt>
|
|
<trkpt lat="57.615851" lon="10.434599">
|
|
<ele>15.434872</ele>
|
|
<time>2026-07-17T15:27:26.000Z</time>
|
|
</trkpt>
|
|
<trkpt lat="57.615800" lon="10.434549">
|
|
<ele>15.430713</ele>
|
|
<time>2026-07-17T15:27:27.000Z</time>
|
|
</trkpt>
|
|
<trkpt lat="57.615738" lon="10.434482">
|
|
<ele>15.425541</ele>
|
|
<time>2026-07-17T15:27:28.000Z</time>
|
|
</trkpt>
|
|
<trkpt lat="57.615685" lon="10.434426">
|
|
<ele>15.421144</ele>
|
|
<time>2026-07-17T15:27:29.000Z</time>
|
|
</trkpt>
|
|
<trkpt lat="57.615635" lon="10.434375">
|
|
<ele>15.417031</ele>
|
|
<time>2026-07-17T15:27:30.000Z</time>
|
|
</trkpt>
|
|
<trkpt lat="57.615576" lon="10.434316">
|
|
<ele>15.412198</ele>
|
|
<time>2026-07-17T15:27:31.000Z</time>
|
|
</trkpt>
|
|
<trkpt lat="57.615524" lon="10.434265">
|
|
<ele>15.407957</ele>
|
|
<time>2026-07-17T15:27:32.000Z</time>
|
|
</trkpt>
|
|
<trkpt lat="57.615468" lon="10.434214">
|
|
<ele>15.403459</ele>
|
|
<time>2026-07-17T15:27:33.000Z</time>
|
|
</trkpt>
|
|
<trkpt lat="57.615414" lon="10.434164">
|
|
<ele>15.399107</ele>
|
|
<time>2026-07-17T15:27:34.000Z</time>
|
|
</trkpt>
|
|
<trkpt lat="57.615362" lon="10.434115">
|
|
<ele>15.394901</ele>
|
|
<time>2026-07-17T15:27:35.000Z</time>
|
|
</trkpt>
|
|
<trkpt lat="57.615309" lon="10.434063">
|
|
<ele>15.390578</ele>
|
|
<time>2026-07-17T15:27:36.000Z</time>
|
|
</trkpt>
|
|
<trkpt lat="57.615251" lon="10.434011">
|
|
<ele>15.385933</ele>
|
|
<time>2026-07-17T15:27:37.000Z</time>
|
|
</trkpt>
|
|
<trkpt lat="57.615197" lon="10.433962">
|
|
<ele>15.381598</ele>
|
|
<time>2026-07-17T15:27:38.000Z</time>
|
|
</trkpt>
|
|
<trkpt lat="57.615143" lon="10.433911">
|
|
<ele>15.377228</ele>
|
|
<time>2026-07-17T15:27:39.000Z</time>
|
|
</trkpt>
|
|
<trkpt lat="57.615093" lon="10.433866">
|
|
<ele>15.373221</ele>
|
|
<time>2026-07-17T15:27:40.000Z</time>
|
|
</trkpt>
|
|
<trkpt lat="57.615045" lon="10.433822">
|
|
<ele>15.369360</ele>
|
|
<time>2026-07-17T15:27:41.000Z</time>
|
|
</trkpt>
|
|
<trkpt lat="57.614993" lon="10.433773">
|
|
<ele>15.365154</ele>
|
|
<time>2026-07-17T15:27:42.000Z</time>
|
|
</trkpt>
|
|
<trkpt lat="57.614934" lon="10.433722">
|
|
<ele>15.360460</ele>
|
|
<time>2026-07-17T15:27:43.000Z</time>
|
|
</trkpt>
|
|
<trkpt lat="57.614875" lon="10.433677">
|
|
<ele>15.355859</ele>
|
|
<time>2026-07-17T15:27:44.000Z</time>
|
|
</trkpt>
|
|
<trkpt lat="57.614817" lon="10.433634">
|
|
<ele>15.351353</ele>
|
|
<time>2026-07-17T15:27:45.000Z</time>
|
|
</trkpt>
|
|
<trkpt lat="57.614759" lon="10.433588">
|
|
<ele>15.346803</ele>
|
|
<time>2026-07-17T15:27:46.000Z</time>
|
|
</trkpt>
|
|
<trkpt lat="57.614700" lon="10.433539">
|
|
<ele>15.342141</ele>
|
|
<time>2026-07-17T15:27:47.000Z</time>
|
|
</trkpt>
|
|
<trkpt lat="57.614642" lon="10.433487">
|
|
<ele>15.337495</ele>
|
|
<time>2026-07-17T15:27:48.000Z</time>
|
|
</trkpt>
|
|
<trkpt lat="57.614582" lon="10.433434">
|
|
<ele>15.332703</ele>
|
|
<time>2026-07-17T15:27:49.000Z</time>
|
|
</trkpt>
|
|
<trkpt lat="57.614526" lon="10.433383">
|
|
<ele>15.328204</ele>
|
|
<time>2026-07-17T15:27:50.000Z</time>
|
|
</trkpt>
|
|
<trkpt lat="57.614474" lon="10.433335">
|
|
<ele>15.324016</ele>
|
|
<time>2026-07-17T15:27:51.000Z</time>
|
|
</trkpt>
|
|
<trkpt lat="57.614420" lon="10.433284">
|
|
<ele>15.319646</ele>
|
|
<time>2026-07-17T15:27:52.000Z</time>
|
|
</trkpt>
|
|
<trkpt lat="57.614367" lon="10.433230">
|
|
<ele>15.315287</ele>
|
|
<time>2026-07-17T15:27:53.000Z</time>
|
|
</trkpt>
|
|
<trkpt lat="57.614310" lon="10.433175">
|
|
<ele>15.308712</ele>
|
|
<time>2026-07-17T15:27:54.000Z</time>
|
|
</trkpt>
|
|
<trkpt lat="57.614254" lon="10.433121">
|
|
<ele>15.300256</ele>
|
|
<time>2026-07-17T15:27:55.000Z</time>
|
|
</trkpt>
|
|
<trkpt lat="57.614202" lon="10.433071">
|
|
<ele>15.292409</ele>
|
|
<time>2026-07-17T15:27:56.000Z</time>
|
|
</trkpt>
|
|
<trkpt lat="57.614153" lon="10.433026">
|
|
<ele>15.285084</ele>
|
|
<time>2026-07-17T15:27:57.000Z</time>
|
|
</trkpt>
|
|
<trkpt lat="57.614103" lon="10.432978">
|
|
<ele>15.277541</ele>
|
|
<time>2026-07-17T15:27:58.000Z</time>
|
|
</trkpt>
|
|
<trkpt lat="57.614047" lon="10.432922">
|
|
<ele>15.269019</ele>
|
|
<time>2026-07-17T15:27:59.000Z</time>
|
|
</trkpt>
|
|
<trkpt lat="57.614007" lon="10.432879">
|
|
<ele>15.262827</ele>
|
|
<time>2026-07-17T15:28:00.000Z</time>
|
|
</trkpt>
|
|
<trkpt lat="57.613933" lon="10.432805">
|
|
<ele>15.251565</ele>
|
|
<time>2026-07-17T15:28:01.000Z</time>
|
|
</trkpt>
|
|
<trkpt lat="57.613876" lon="10.432751">
|
|
<ele>15.242990</ele>
|
|
<time>2026-07-17T15:28:02.000Z</time>
|
|
</trkpt>
|
|
<trkpt lat="57.613819" lon="10.432700">
|
|
<ele>15.234510</ele>
|
|
<time>2026-07-17T15:28:03.000Z</time>
|
|
</trkpt>
|
|
<trkpt lat="57.613764" lon="10.432647">
|
|
<ele>15.226207</ele>
|
|
<time>2026-07-17T15:28:04.000Z</time>
|
|
</trkpt>
|
|
<trkpt lat="57.613709" lon="10.432590">
|
|
<ele>15.217768</ele>
|
|
<time>2026-07-17T15:28:05.000Z</time>
|
|
</trkpt>
|
|
<trkpt lat="57.613651" lon="10.432533">
|
|
<ele>15.208975</ele>
|
|
<time>2026-07-17T15:28:06.000Z</time>
|
|
</trkpt>
|
|
<trkpt lat="57.613596" lon="10.432476">
|
|
<ele>15.200536</ele>
|
|
<time>2026-07-17T15:28:07.000Z</time>
|
|
</trkpt>
|
|
<trkpt lat="57.613540" lon="10.432421">
|
|
<ele>15.192047</ele>
|
|
<time>2026-07-17T15:28:08.000Z</time>
|
|
</trkpt>
|
|
<trkpt lat="57.613484" lon="10.432369">
|
|
<ele>15.183657</ele>
|
|
<time>2026-07-17T15:28:09.000Z</time>
|
|
</trkpt>
|
|
<trkpt lat="57.613429" lon="10.432316">
|
|
<ele>15.175353</ele>
|
|
<time>2026-07-17T15:28:10.000Z</time>
|
|
</trkpt>
|
|
<trkpt lat="57.613375" lon="10.432267">
|
|
<ele>15.167299</ele>
|
|
<time>2026-07-17T15:28:11.000Z</time>
|
|
</trkpt>
|
|
<trkpt lat="57.613321" lon="10.432219">
|
|
<ele>15.159275</ele>
|
|
<time>2026-07-17T15:28:12.000Z</time>
|
|
</trkpt>
|
|
<trkpt lat="57.613258" lon="10.432171">
|
|
<ele>15.150147</ele>
|
|
<time>2026-07-17T15:28:13.000Z</time>
|
|
</trkpt>
|
|
<trkpt lat="57.613201" lon="10.432127">
|
|
<ele>15.141872</ele>
|
|
<time>2026-07-17T15:28:14.000Z</time>
|
|
</trkpt>
|
|
<trkpt lat="57.613145" lon="10.432076">
|
|
<ele>15.133513</ele>
|
|
<time>2026-07-17T15:28:15.000Z</time>
|
|
</trkpt>
|
|
<trkpt lat="57.613093" lon="10.432020">
|
|
<ele>15.125460</ele>
|
|
<time>2026-07-17T15:28:16.000Z</time>
|
|
</trkpt>
|
|
<trkpt lat="57.613040" lon="10.431962">
|
|
<ele>15.117218</ele>
|
|
<time>2026-07-17T15:28:17.000Z</time>
|
|
</trkpt>
|
|
<trkpt lat="57.612986" lon="10.431901">
|
|
<ele>15.108751</ele>
|
|
<time>2026-07-17T15:28:18.000Z</time>
|
|
</trkpt>
|
|
<trkpt lat="57.612932" lon="10.431844">
|
|
<ele>15.100429</ele>
|
|
<time>2026-07-17T15:28:19.000Z</time>
|
|
</trkpt>
|
|
<trkpt lat="57.612879" lon="10.431790">
|
|
<ele>15.092329</ele>
|
|
<time>2026-07-17T15:28:20.000Z</time>
|
|
</trkpt>
|
|
<trkpt lat="57.612827" lon="10.431739">
|
|
<ele>15.084449</ele>
|
|
<time>2026-07-17T15:28:21.000Z</time>
|
|
</trkpt>
|
|
<trkpt lat="57.612776" lon="10.431691">
|
|
<ele>15.076787</ele>
|
|
<time>2026-07-17T15:28:22.000Z</time>
|
|
</trkpt>
|
|
<trkpt lat="57.612728" lon="10.431650">
|
|
<ele>15.073301</ele>
|
|
<time>2026-07-17T15:28:23.000Z</time>
|
|
</trkpt>
|
|
<trkpt lat="57.612662" lon="10.431577">
|
|
<ele>15.082302</ele>
|
|
<time>2026-07-17T15:28:24.000Z</time>
|
|
</trkpt>
|
|
<trkpt lat="57.612611" lon="10.431503">
|
|
<ele>15.089881</ele>
|
|
<time>2026-07-17T15:28:25.000Z</time>
|
|
</trkpt>
|
|
<trkpt lat="57.612567" lon="10.431418">
|
|
<ele>15.097310</ele>
|
|
<time>2026-07-17T15:28:26.000Z</time>
|
|
</trkpt>
|
|
<trkpt lat="57.612524" lon="10.431334">
|
|
<ele>15.104612</ele>
|
|
<time>2026-07-17T15:28:27.000Z</time>
|
|
</trkpt>
|
|
<trkpt lat="57.612477" lon="10.431256">
|
|
<ele>15.111991</ele>
|
|
<time>2026-07-17T15:28:28.000Z</time>
|
|
</trkpt>
|
|
<trkpt lat="57.612426" lon="10.431189">
|
|
<ele>15.119308</ele>
|
|
<time>2026-07-17T15:28:29.000Z</time>
|
|
</trkpt>
|
|
<trkpt lat="57.612370" lon="10.431129">
|
|
<ele>15.126884</ele>
|
|
<time>2026-07-17T15:28:30.000Z</time>
|
|
</trkpt>
|
|
<trkpt lat="57.612315" lon="10.431074">
|
|
<ele>15.134204</ele>
|
|
<time>2026-07-17T15:28:31.000Z</time>
|
|
</trkpt>
|
|
<trkpt lat="57.612261" lon="10.431019">
|
|
<ele>15.141422</ele>
|
|
<time>2026-07-17T15:28:32.000Z</time>
|
|
</trkpt>
|
|
<trkpt lat="57.612209" lon="10.430964">
|
|
<ele>15.148434</ele>
|
|
<time>2026-07-17T15:28:33.000Z</time>
|
|
</trkpt>
|
|
<trkpt lat="57.612155" lon="10.430907">
|
|
<ele>15.155713</ele>
|
|
<time>2026-07-17T15:28:34.000Z</time>
|
|
</trkpt>
|
|
<trkpt lat="57.612103" lon="10.430857">
|
|
<ele>15.162576</ele>
|
|
<time>2026-07-17T15:28:35.000Z</time>
|
|
</trkpt>
|
|
<trkpt lat="57.612054" lon="10.430812">
|
|
<ele>15.168983</ele>
|
|
<time>2026-07-17T15:28:36.000Z</time>
|
|
</trkpt>
|
|
<trkpt lat="57.612005" lon="10.430770">
|
|
<ele>15.175310</ele>
|
|
<time>2026-07-17T15:28:37.000Z</time>
|
|
</trkpt>
|
|
<trkpt lat="57.611958" lon="10.430734">
|
|
<ele>15.181270</ele>
|
|
<time>2026-07-17T15:28:38.000Z</time>
|
|
</trkpt>
|
|
<trkpt lat="57.611903" lon="10.430687">
|
|
<ele>15.188367</ele>
|
|
<time>2026-07-17T15:28:39.000Z</time>
|
|
</trkpt>
|
|
<trkpt lat="57.611847" lon="10.430638">
|
|
<ele>15.195624</ele>
|
|
<time>2026-07-17T15:28:40.000Z</time>
|
|
</trkpt>
|
|
<trkpt lat="57.611791" lon="10.430595">
|
|
<ele>15.202729</ele>
|
|
<time>2026-07-17T15:28:41.000Z</time>
|
|
</trkpt>
|
|
<trkpt lat="57.611736" lon="10.430550">
|
|
<ele>15.209774</ele>
|
|
<time>2026-07-17T15:28:42.000Z</time>
|
|
</trkpt>
|
|
<trkpt lat="57.611684" lon="10.430506">
|
|
<ele>15.216473</ele>
|
|
<time>2026-07-17T15:28:43.000Z</time>
|
|
</trkpt>
|
|
<trkpt lat="57.611625" lon="10.430453">
|
|
<ele>15.224155</ele>
|
|
<time>2026-07-17T15:28:44.000Z</time>
|
|
</trkpt>
|
|
<trkpt lat="57.611574" lon="10.430403">
|
|
<ele>15.230914</ele>
|
|
<time>2026-07-17T15:28:45.000Z</time>
|
|
</trkpt>
|
|
<trkpt lat="57.611521" lon="10.430349">
|
|
<ele>15.237999</ele>
|
|
<time>2026-07-17T15:28:46.000Z</time>
|
|
</trkpt>
|
|
<trkpt lat="57.611472" lon="10.430303">
|
|
<ele>15.244434</ele>
|
|
<time>2026-07-17T15:28:47.000Z</time>
|
|
</trkpt>
|
|
<trkpt lat="57.611423" lon="10.430259">
|
|
<ele>15.250814</ele>
|
|
<time>2026-07-17T15:28:48.000Z</time>
|
|
</trkpt>
|
|
<trkpt lat="57.611376" lon="10.430215">
|
|
<ele>15.256983</ele>
|
|
<time>2026-07-17T15:28:49.000Z</time>
|
|
</trkpt>
|
|
<trkpt lat="57.611331" lon="10.430173">
|
|
<ele>15.262886</ele>
|
|
<time>2026-07-17T15:28:50.000Z</time>
|
|
</trkpt>
|
|
<trkpt lat="57.611268" lon="10.430116">
|
|
<ele>15.271100</ele>
|
|
<time>2026-07-17T15:28:51.000Z</time>
|
|
</trkpt>
|
|
<trkpt lat="57.611220" lon="10.430075">
|
|
<ele>15.277294</ele>
|
|
<time>2026-07-17T15:28:52.000Z</time>
|
|
</trkpt>
|
|
<trkpt lat="57.611176" lon="10.430033">
|
|
<ele>15.282404</ele>
|
|
<time>2026-07-17T15:28:53.000Z</time>
|
|
</trkpt>
|
|
<trkpt lat="57.611114" lon="10.429965">
|
|
<ele>15.277325</ele>
|
|
<time>2026-07-17T15:28:54.000Z</time>
|
|
</trkpt>
|
|
<trkpt lat="57.611058" lon="10.429904">
|
|
<ele>15.272745</ele>
|
|
<time>2026-07-17T15:28:55.000Z</time>
|
|
</trkpt>
|
|
<trkpt lat="57.611004" lon="10.429848">
|
|
<ele>15.268382</ele>
|
|
<time>2026-07-17T15:28:56.000Z</time>
|
|
</trkpt>
|
|
<trkpt lat="57.610951" lon="10.429796">
|
|
<ele>15.264153</ele>
|
|
<time>2026-07-17T15:28:57.000Z</time>
|
|
</trkpt>
|
|
<trkpt lat="57.610901" lon="10.429744">
|
|
<ele>15.260110</ele>
|
|
<time>2026-07-17T15:28:58.000Z</time>
|
|
</trkpt>
|
|
<trkpt lat="57.610848" lon="10.429687">
|
|
<ele>15.255789</ele>
|
|
<time>2026-07-17T15:28:59.000Z</time>
|
|
</trkpt>
|
|
<trkpt lat="57.610797" lon="10.429635">
|
|
<ele>15.251685</ele>
|
|
<time>2026-07-17T15:29:00.000Z</time>
|
|
</trkpt>
|
|
<trkpt lat="57.610739" lon="10.429578">
|
|
<ele>15.247055</ele>
|
|
<time>2026-07-17T15:29:01.000Z</time>
|
|
</trkpt>
|
|
<trkpt lat="57.610685" lon="10.429524">
|
|
<ele>15.242728</ele>
|
|
<time>2026-07-17T15:29:02.000Z</time>
|
|
</trkpt>
|
|
<trkpt lat="57.610629" lon="10.429468">
|
|
<ele>15.238241</ele>
|
|
<time>2026-07-17T15:29:03.000Z</time>
|
|
</trkpt>
|
|
<trkpt lat="57.610574" lon="10.429410">
|
|
<ele>15.233779</ele>
|
|
<time>2026-07-17T15:29:04.000Z</time>
|
|
</trkpt>
|
|
<trkpt lat="57.610519" lon="10.429351">
|
|
<ele>15.229298</ele>
|
|
<time>2026-07-17T15:29:05.000Z</time>
|
|
</trkpt>
|
|
<trkpt lat="57.610462" lon="10.429286">
|
|
<ele>15.224580</ele>
|
|
<time>2026-07-17T15:29:06.000Z</time>
|
|
</trkpt>
|
|
<trkpt lat="57.610407" lon="10.429224">
|
|
<ele>15.220042</ele>
|
|
<time>2026-07-17T15:29:07.000Z</time>
|
|
</trkpt>
|
|
<trkpt lat="57.610354" lon="10.429165">
|
|
<ele>15.215683</ele>
|
|
<time>2026-07-17T15:29:08.000Z</time>
|
|
</trkpt>
|
|
<trkpt lat="57.610297" lon="10.429101">
|
|
<ele>15.210985</ele>
|
|
<time>2026-07-17T15:29:09.000Z</time>
|
|
</trkpt>
|
|
<trkpt lat="57.610242" lon="10.429036">
|
|
<ele>15.206387</ele>
|
|
<time>2026-07-17T15:29:10.000Z</time>
|
|
</trkpt>
|
|
<trkpt lat="57.610188" lon="10.428974">
|
|
<ele>15.201909</ele>
|
|
<time>2026-07-17T15:29:11.000Z</time>
|
|
</trkpt>
|
|
<trkpt lat="57.610134" lon="10.428918">
|
|
<ele>15.197546</ele>
|
|
<time>2026-07-17T15:29:12.000Z</time>
|
|
</trkpt>
|
|
<trkpt lat="57.610082" lon="10.428863">
|
|
<ele>15.193324</ele>
|
|
<time>2026-07-17T15:29:13.000Z</time>
|
|
</trkpt>
|
|
<trkpt lat="57.610025" lon="10.428805">
|
|
<ele>15.188739</ele>
|
|
<time>2026-07-17T15:29:14.000Z</time>
|
|
</trkpt>
|
|
<trkpt lat="57.609972" lon="10.428750">
|
|
<ele>15.184456</ele>
|
|
<time>2026-07-17T15:29:15.000Z</time>
|
|
</trkpt>
|
|
<trkpt lat="57.609924" lon="10.428700">
|
|
<ele>15.180573</ele>
|
|
<time>2026-07-17T15:29:16.000Z</time>
|
|
</trkpt>
|
|
<trkpt lat="57.609884" lon="10.428659">
|
|
<ele>15.177350</ele>
|
|
<time>2026-07-17T15:29:17.000Z</time>
|
|
</trkpt>
|
|
<trkpt lat="57.609812" lon="10.428590">
|
|
<ele>15.171633</ele>
|
|
<time>2026-07-17T15:29:18.000Z</time>
|
|
</trkpt>
|
|
<trkpt lat="57.609760" lon="10.428545">
|
|
<ele>15.167585</ele>
|
|
<time>2026-07-17T15:29:19.000Z</time>
|
|
</trkpt>
|
|
<trkpt lat="57.609710" lon="10.428504">
|
|
<ele>15.163727</ele>
|
|
<time>2026-07-17T15:29:20.000Z</time>
|
|
</trkpt>
|
|
<trkpt lat="57.609658" lon="10.428459">
|
|
<ele>15.159679</ele>
|
|
<time>2026-07-17T15:29:21.000Z</time>
|
|
</trkpt>
|
|
<trkpt lat="57.609608" lon="10.428410">
|
|
<ele>15.155690</ele>
|
|
<time>2026-07-17T15:29:22.000Z</time>
|
|
</trkpt>
|
|
<trkpt lat="57.609558" lon="10.428363">
|
|
<ele>15.161758</ele>
|
|
<time>2026-07-17T15:29:23.000Z</time>
|
|
</trkpt>
|
|
<trkpt lat="57.609500" lon="10.428308">
|
|
<ele>15.169031</ele>
|
|
<time>2026-07-17T15:29:24.000Z</time>
|
|
</trkpt>
|
|
<trkpt lat="57.609445" lon="10.428252">
|
|
<ele>15.176035</ele>
|
|
<time>2026-07-17T15:29:25.000Z</time>
|
|
</trkpt>
|
|
<trkpt lat="57.609392" lon="10.428194">
|
|
<ele>15.182903</ele>
|
|
<time>2026-07-17T15:29:26.000Z</time>
|
|
</trkpt>
|
|
<trkpt lat="57.609336" lon="10.428137">
|
|
<ele>15.190034</ele>
|
|
<time>2026-07-17T15:29:27.000Z</time>
|
|
</trkpt>
|
|
<trkpt lat="57.609277" lon="10.428078">
|
|
<ele>15.197517</ele>
|
|
<time>2026-07-17T15:29:28.000Z</time>
|
|
</trkpt>
|
|
<trkpt lat="57.609222" lon="10.428026">
|
|
<ele>15.204409</ele>
|
|
<time>2026-07-17T15:29:29.000Z</time>
|
|
</trkpt>
|
|
<trkpt lat="57.609169" lon="10.427978">
|
|
<ele>15.210995</ele>
|
|
<time>2026-07-17T15:29:30.000Z</time>
|
|
</trkpt>
|
|
<trkpt lat="57.609118" lon="10.427935">
|
|
<ele>15.217251</ele>
|
|
<time>2026-07-17T15:29:31.000Z</time>
|
|
</trkpt>
|
|
<trkpt lat="57.609062" lon="10.427886">
|
|
<ele>15.224165</ele>
|
|
<time>2026-07-17T15:29:32.000Z</time>
|
|
</trkpt>
|
|
<trkpt lat="57.609009" lon="10.427831">
|
|
<ele>15.230945</ele>
|
|
<time>2026-07-17T15:29:33.000Z</time>
|
|
</trkpt>
|
|
<trkpt lat="57.608956" lon="10.427764">
|
|
<ele>15.238100</ele>
|
|
<time>2026-07-17T15:29:34.000Z</time>
|
|
</trkpt>
|
|
<trkpt lat="57.608902" lon="10.427687">
|
|
<ele>15.245697</ele>
|
|
<time>2026-07-17T15:29:35.000Z</time>
|
|
</trkpt>
|
|
<trkpt lat="57.608852" lon="10.427614">
|
|
<ele>15.252794</ele>
|
|
<time>2026-07-17T15:29:36.000Z</time>
|
|
</trkpt>
|
|
<trkpt lat="57.608802" lon="10.427545">
|
|
<ele>15.259745</ele>
|
|
<time>2026-07-17T15:29:37.000Z</time>
|
|
</trkpt>
|
|
<trkpt lat="57.608751" lon="10.427480">
|
|
<ele>15.266649</ele>
|
|
<time>2026-07-17T15:29:38.000Z</time>
|
|
</trkpt>
|
|
<trkpt lat="57.608698" lon="10.427419">
|
|
<ele>15.273610</ele>
|
|
<time>2026-07-17T15:29:39.000Z</time>
|
|
</trkpt>
|
|
<trkpt lat="57.608645" lon="10.427364">
|
|
<ele>15.280389</ele>
|
|
<time>2026-07-17T15:29:40.000Z</time>
|
|
</trkpt>
|
|
<trkpt lat="57.608591" lon="10.427310">
|
|
<ele>15.287237</ele>
|
|
<time>2026-07-17T15:29:41.000Z</time>
|
|
</trkpt>
|
|
<trkpt lat="57.608536" lon="10.427253">
|
|
<ele>15.294270</ele>
|
|
<time>2026-07-17T15:29:42.000Z</time>
|
|
</trkpt>
|
|
<trkpt lat="57.608480" lon="10.427192">
|
|
<ele>15.301519</ele>
|
|
<time>2026-07-17T15:29:43.000Z</time>
|
|
</trkpt>
|
|
<trkpt lat="57.608428" lon="10.427135">
|
|
<ele>15.308260</ele>
|
|
<time>2026-07-17T15:29:44.000Z</time>
|
|
</trkpt>
|
|
<trkpt lat="57.608375" lon="10.427079">
|
|
<ele>15.315069</ele>
|
|
<time>2026-07-17T15:29:45.000Z</time>
|
|
</trkpt>
|
|
<trkpt lat="57.608323" lon="10.427025">
|
|
<ele>15.321721</ele>
|
|
<time>2026-07-17T15:29:46.000Z</time>
|
|
</trkpt>
|
|
<trkpt lat="57.608266" lon="10.426969">
|
|
<ele>15.328922</ele>
|
|
<time>2026-07-17T15:29:47.000Z</time>
|
|
</trkpt>
|
|
<trkpt lat="57.608210" lon="10.426910">
|
|
<ele>15.336111</ele>
|
|
<time>2026-07-17T15:29:48.000Z</time>
|
|
</trkpt>
|
|
<trkpt lat="57.608153" lon="10.426850">
|
|
<ele>15.343427</ele>
|
|
<time>2026-07-17T15:29:49.000Z</time>
|
|
</trkpt>
|
|
<trkpt lat="57.608098" lon="10.426795">
|
|
<ele>15.350402</ele>
|
|
<time>2026-07-17T15:29:50.000Z</time>
|
|
</trkpt>
|
|
<trkpt lat="57.608041" lon="10.426739">
|
|
<ele>15.359286</ele>
|
|
<time>2026-07-17T15:29:51.000Z</time>
|
|
</trkpt>
|
|
<trkpt lat="57.607987" lon="10.426688">
|
|
<ele>15.378613</ele>
|
|
<time>2026-07-17T15:29:52.000Z</time>
|
|
</trkpt>
|
|
<trkpt lat="57.607931" lon="10.426640">
|
|
<ele>15.398293</ele>
|
|
<time>2026-07-17T15:29:53.000Z</time>
|
|
</trkpt>
|
|
<trkpt lat="57.607877" lon="10.426594">
|
|
<ele>15.417250</ele>
|
|
<time>2026-07-17T15:29:54.000Z</time>
|
|
</trkpt>
|
|
<trkpt lat="57.607825" lon="10.426548">
|
|
<ele>15.435627</ele>
|
|
<time>2026-07-17T15:29:55.000Z</time>
|
|
</trkpt>
|
|
<trkpt lat="57.607772" lon="10.426501">
|
|
<ele>15.454367</ele>
|
|
<time>2026-07-17T15:29:56.000Z</time>
|
|
</trkpt>
|
|
<trkpt lat="57.607721" lon="10.426456">
|
|
<ele>15.472382</ele>
|
|
<time>2026-07-17T15:29:57.000Z</time>
|
|
</trkpt>
|
|
<trkpt lat="57.607666" lon="10.426408">
|
|
<ele>15.491773</ele>
|
|
<time>2026-07-17T15:29:58.000Z</time>
|
|
</trkpt>
|
|
<trkpt lat="57.607613" lon="10.426360">
|
|
<ele>15.510586</ele>
|
|
<time>2026-07-17T15:29:59.000Z</time>
|
|
</trkpt>
|
|
<trkpt lat="57.607557" lon="10.426308">
|
|
<ele>15.530561</ele>
|
|
<time>2026-07-17T15:30:00.000Z</time>
|
|
</trkpt>
|
|
<trkpt lat="57.607506" lon="10.426260">
|
|
<ele>15.548802</ele>
|
|
<time>2026-07-17T15:30:01.000Z</time>
|
|
</trkpt>
|
|
<trkpt lat="57.607456" lon="10.426210">
|
|
<ele>15.566917</ele>
|
|
<time>2026-07-17T15:30:02.000Z</time>
|
|
</trkpt>
|
|
<trkpt lat="57.607405" lon="10.426163">
|
|
<ele>15.585082</ele>
|
|
<time>2026-07-17T15:30:03.000Z</time>
|
|
</trkpt>
|
|
<trkpt lat="57.607351" lon="10.426114">
|
|
<ele>15.604258</ele>
|
|
<time>2026-07-17T15:30:04.000Z</time>
|
|
</trkpt>
|
|
<trkpt lat="57.607300" lon="10.426066">
|
|
<ele>15.622499</ele>
|
|
<time>2026-07-17T15:30:05.000Z</time>
|
|
</trkpt>
|
|
<trkpt lat="57.607252" lon="10.426024">
|
|
<ele>15.639429</ele>
|
|
<time>2026-07-17T15:30:06.000Z</time>
|
|
</trkpt>
|
|
<trkpt lat="57.607203" lon="10.425980">
|
|
<ele>15.656794</ele>
|
|
<time>2026-07-17T15:30:07.000Z</time>
|
|
</trkpt>
|
|
<trkpt lat="57.607141" lon="10.425917">
|
|
<ele>15.679339</ele>
|
|
<time>2026-07-17T15:30:08.000Z</time>
|
|
</trkpt>
|
|
<trkpt lat="57.607087" lon="10.425863">
|
|
<ele>15.698903</ele>
|
|
<time>2026-07-17T15:30:09.000Z</time>
|
|
</trkpt>
|
|
<trkpt lat="57.607034" lon="10.425807">
|
|
<ele>15.718353</ele>
|
|
<time>2026-07-17T15:30:10.000Z</time>
|
|
</trkpt>
|
|
<trkpt lat="57.606982" lon="10.425752">
|
|
<ele>15.737441</ele>
|
|
<time>2026-07-17T15:30:11.000Z</time>
|
|
</trkpt>
|
|
<trkpt lat="57.606929" lon="10.425695">
|
|
<ele>15.756976</ele>
|
|
<time>2026-07-17T15:30:12.000Z</time>
|
|
</trkpt>
|
|
<trkpt lat="57.606875" lon="10.425636">
|
|
<ele>15.776959</ele>
|
|
<time>2026-07-17T15:30:13.000Z</time>
|
|
</trkpt>
|
|
<trkpt lat="57.606822" lon="10.425582">
|
|
<ele>15.796243</ele>
|
|
<time>2026-07-17T15:30:14.000Z</time>
|
|
</trkpt>
|
|
<trkpt lat="57.606773" lon="10.425530">
|
|
<ele>15.814244</ele>
|
|
<time>2026-07-17T15:30:15.000Z</time>
|
|
</trkpt>
|
|
<trkpt lat="57.606723" lon="10.425474">
|
|
<ele>15.832866</ele>
|
|
<time>2026-07-17T15:30:16.000Z</time>
|
|
</trkpt>
|
|
<trkpt lat="57.606667" lon="10.425412">
|
|
<ele>15.853660</ele>
|
|
<time>2026-07-17T15:30:17.000Z</time>
|
|
</trkpt>
|
|
<trkpt lat="57.606612" lon="10.425349">
|
|
<ele>15.874269</ele>
|
|
<time>2026-07-17T15:30:18.000Z</time>
|
|
</trkpt>
|
|
<trkpt lat="57.606563" lon="10.425296">
|
|
<ele>15.892355</ele>
|
|
<time>2026-07-17T15:30:19.000Z</time>
|
|
</trkpt>
|
|
<trkpt lat="57.606511" lon="10.425246">
|
|
<ele>15.911036</ele>
|
|
<time>2026-07-17T15:30:20.000Z</time>
|
|
</trkpt>
|
|
<trkpt lat="57.606453" lon="10.425190">
|
|
<ele>15.932261</ele>
|
|
<time>2026-07-17T15:30:21.000Z</time>
|
|
</trkpt>
|
|
<trkpt lat="57.606398" lon="10.425136">
|
|
<ele>15.961703</ele>
|
|
<time>2026-07-17T15:30:22.000Z</time>
|
|
</trkpt>
|
|
<trkpt lat="57.606346" lon="10.425085">
|
|
<ele>15.989533</ele>
|
|
<time>2026-07-17T15:30:23.000Z</time>
|
|
</trkpt>
|
|
<trkpt lat="57.606296" lon="10.425034">
|
|
<ele>16.016527</ele>
|
|
<time>2026-07-17T15:30:24.000Z</time>
|
|
</trkpt>
|
|
<trkpt lat="57.606246" lon="10.424983">
|
|
<ele>16.043522</ele>
|
|
<time>2026-07-17T15:30:25.000Z</time>
|
|
</trkpt>
|
|
<trkpt lat="57.606196" lon="10.424933">
|
|
<ele>16.070396</ele>
|
|
<time>2026-07-17T15:30:26.000Z</time>
|
|
</trkpt>
|
|
<trkpt lat="57.606145" lon="10.424882">
|
|
<ele>16.097807</ele>
|
|
<time>2026-07-17T15:30:27.000Z</time>
|
|
</trkpt>
|
|
<trkpt lat="57.606095" lon="10.424834">
|
|
<ele>16.124445</ele>
|
|
<time>2026-07-17T15:30:28.000Z</time>
|
|
</trkpt>
|
|
<trkpt lat="57.606044" lon="10.424786">
|
|
<ele>16.151505</ele>
|
|
<time>2026-07-17T15:30:29.000Z</time>
|
|
</trkpt>
|
|
<trkpt lat="57.605996" lon="10.424739">
|
|
<ele>16.177184</ele>
|
|
<time>2026-07-17T15:30:30.000Z</time>
|
|
</trkpt>
|
|
<trkpt lat="57.605959" lon="10.424701">
|
|
<ele>16.197192</ele>
|
|
<time>2026-07-17T15:30:31.000Z</time>
|
|
</trkpt>
|
|
<trkpt lat="57.605900" lon="10.424639">
|
|
<ele>16.229270</ele>
|
|
<time>2026-07-17T15:30:32.000Z</time>
|
|
</trkpt>
|
|
<trkpt lat="57.605856" lon="10.424590">
|
|
<ele>16.253544</ele>
|
|
<time>2026-07-17T15:30:33.000Z</time>
|
|
</trkpt>
|
|
<trkpt lat="57.605809" lon="10.424542">
|
|
<ele>16.278926</ele>
|
|
<time>2026-07-17T15:30:34.000Z</time>
|
|
</trkpt>
|
|
<trkpt lat="57.605764" lon="10.424499">
|
|
<ele>16.302877</ele>
|
|
<time>2026-07-17T15:30:35.000Z</time>
|
|
</trkpt>
|
|
<trkpt lat="57.605718" lon="10.424465">
|
|
<ele>16.326317</ele>
|
|
<time>2026-07-17T15:30:36.000Z</time>
|
|
</trkpt>
|
|
<trkpt lat="57.605674" lon="10.424453">
|
|
<ele>16.347384</ele>
|
|
<time>2026-07-17T15:30:37.000Z</time>
|
|
</trkpt>
|
|
<trkpt lat="57.605631" lon="10.424462">
|
|
<ele>16.367884</ele>
|
|
<time>2026-07-17T15:30:38.000Z</time>
|
|
</trkpt>
|
|
<trkpt lat="57.605591" lon="10.424480">
|
|
<ele>16.387377</ele>
|
|
<time>2026-07-17T15:30:39.000Z</time>
|
|
</trkpt>
|
|
<trkpt lat="57.605552" lon="10.424499">
|
|
<ele>16.406473</ele>
|
|
<time>2026-07-17T15:30:40.000Z</time>
|
|
</trkpt>
|
|
<trkpt lat="57.605516" lon="10.424516">
|
|
<ele>16.424066</ele>
|
|
<time>2026-07-17T15:30:41.000Z</time>
|
|
</trkpt>
|
|
<trkpt lat="57.605486" lon="10.424532">
|
|
<ele>16.438848</ele>
|
|
<time>2026-07-17T15:30:42.000Z</time>
|
|
</trkpt>
|
|
<trkpt lat="57.605461" lon="10.424554">
|
|
<ele>16.451943</ele>
|
|
<time>2026-07-17T15:30:43.000Z</time>
|
|
</trkpt>
|
|
<trkpt lat="57.605445" lon="10.424569">
|
|
<ele>16.460425</ele>
|
|
<time>2026-07-17T15:30:44.000Z</time>
|
|
</trkpt>
|
|
<trkpt lat="57.605434" lon="10.424570">
|
|
<ele>16.465643</ele>
|
|
<time>2026-07-17T15:30:45.000Z</time>
|
|
</trkpt>
|
|
<trkpt lat="57.605478" lon="10.424480">
|
|
<ele>16.496568</ele>
|
|
<time>2026-07-17T15:31:25.000Z</time>
|
|
</trkpt>
|
|
<trkpt lat="57.605495" lon="10.424476">
|
|
<ele>16.504686</ele>
|
|
<time>2026-07-17T15:31:26.000Z</time>
|
|
</trkpt>
|
|
<trkpt lat="57.605524" lon="10.424471">
|
|
<ele>16.518484</ele>
|
|
<time>2026-07-17T15:31:27.000Z</time>
|
|
</trkpt>
|
|
<trkpt lat="57.605549" lon="10.424465">
|
|
<ele>16.530426</ele>
|
|
<time>2026-07-17T15:31:28.000Z</time>
|
|
</trkpt>
|
|
<trkpt lat="57.605574" lon="10.424457">
|
|
<ele>16.542443</ele>
|
|
<time>2026-07-17T15:31:29.000Z</time>
|
|
</trkpt>
|
|
<trkpt lat="57.605597" lon="10.424448">
|
|
<ele>16.553576</ele>
|
|
<time>2026-07-17T15:31:30.000Z</time>
|
|
</trkpt>
|
|
<trkpt lat="57.605621" lon="10.424441">
|
|
<ele>16.565085</ele>
|
|
<time>2026-07-17T15:31:31.000Z</time>
|
|
</trkpt>
|
|
<trkpt lat="57.605645" lon="10.424440">
|
|
<ele>16.576458</ele>
|
|
<time>2026-07-17T15:31:32.000Z</time>
|
|
</trkpt>
|
|
<trkpt lat="57.605665" lon="10.424445">
|
|
<ele>16.586018</ele>
|
|
<time>2026-07-17T15:31:33.000Z</time>
|
|
</trkpt>
|
|
<trkpt lat="57.605686" lon="10.424453">
|
|
<ele>16.596172</ele>
|
|
<time>2026-07-17T15:31:34.000Z</time>
|
|
</trkpt>
|
|
<trkpt lat="57.605704" lon="10.424455">
|
|
<ele>16.604715</ele>
|
|
<time>2026-07-17T15:31:35.000Z</time>
|
|
</trkpt>
|
|
<trkpt lat="57.605718" lon="10.424447">
|
|
<ele>16.611652</ele>
|
|
<time>2026-07-17T15:31:36.000Z</time>
|
|
</trkpt>
|
|
<trkpt lat="57.605728" lon="10.424439">
|
|
<ele>16.616806</ele>
|
|
<time>2026-07-17T15:31:37.000Z</time>
|
|
</trkpt>
|
|
<trkpt lat="57.605734" lon="10.424436">
|
|
<ele>16.619749</ele>
|
|
<time>2026-07-17T15:31:38.000Z</time>
|
|
</trkpt>
|
|
<trkpt lat="57.605736" lon="10.424435">
|
|
<ele>16.620730</ele>
|
|
<time>2026-07-17T15:31:39.000Z</time>
|
|
</trkpt>
|
|
<trkpt lat="57.605736" lon="10.424435">
|
|
<ele>16.620730</ele>
|
|
<time>2026-07-17T15:31:41.000Z</time>
|
|
</trkpt>
|
|
<trkpt lat="57.605766" lon="10.424372">
|
|
<ele>16.642124</ele>
|
|
<time>2026-07-17T15:31:44.000Z</time>
|
|
</trkpt>
|
|
<trkpt lat="57.605768" lon="10.424352">
|
|
<ele>16.647288</ele>
|
|
<time>2026-07-17T15:31:45.000Z</time>
|
|
</trkpt>
|
|
<trkpt lat="57.605772" lon="10.424339">
|
|
<ele>16.651093</ele>
|
|
<time>2026-07-17T15:31:46.000Z</time>
|
|
</trkpt>
|
|
<trkpt lat="57.605776" lon="10.424331">
|
|
<ele>16.653871</ele>
|
|
<time>2026-07-17T15:31:47.000Z</time>
|
|
</trkpt>
|
|
<trkpt lat="57.605778" lon="10.424325">
|
|
<ele>16.655664</ele>
|
|
<time>2026-07-17T15:31:48.000Z</time>
|
|
</trkpt>
|
|
<trkpt lat="57.605784" lon="10.424294">
|
|
<ele>16.664030</ele>
|
|
<time>2026-07-17T15:31:49.000Z</time>
|
|
</trkpt>
|
|
<trkpt lat="57.605795" lon="10.424234">
|
|
<ele>16.680127</ele>
|
|
<time>2026-07-17T15:31:50.000Z</time>
|
|
</trkpt>
|
|
<trkpt lat="57.605797" lon="10.424192">
|
|
<ele>16.690829</ele>
|
|
<time>2026-07-17T15:31:51.000Z</time>
|
|
</trkpt>
|
|
<trkpt lat="57.605790" lon="10.424150">
|
|
<ele>16.701993</ele>
|
|
<time>2026-07-17T15:31:52.000Z</time>
|
|
</trkpt>
|
|
<trkpt lat="57.605777" lon="10.424104">
|
|
<ele>16.715194</ele>
|
|
<time>2026-07-17T15:31:53.000Z</time>
|
|
</trkpt>
|
|
<trkpt lat="57.605764" lon="10.424055">
|
|
<ele>16.729072</ele>
|
|
<time>2026-07-17T15:31:54.000Z</time>
|
|
</trkpt>
|
|
<trkpt lat="57.605749" lon="10.424001">
|
|
<ele>16.744511</ele>
|
|
<time>2026-07-17T15:31:55.000Z</time>
|
|
</trkpt>
|
|
<trkpt lat="57.605735" lon="10.423942">
|
|
<ele>16.760890</ele>
|
|
<time>2026-07-17T15:31:56.000Z</time>
|
|
</trkpt>
|
|
<trkpt lat="57.605725" lon="10.423885">
|
|
<ele>16.776113</ele>
|
|
<time>2026-07-17T15:31:57.000Z</time>
|
|
</trkpt>
|
|
<trkpt lat="57.605717" lon="10.423829">
|
|
<ele>16.778760</ele>
|
|
<time>2026-07-17T15:31:58.000Z</time>
|
|
</trkpt>
|
|
<trkpt lat="57.605710" lon="10.423775">
|
|
<ele>16.770353</ele>
|
|
<time>2026-07-17T15:31:59.000Z</time>
|
|
</trkpt>
|
|
<trkpt lat="57.605704" lon="10.423725">
|
|
<ele>16.762601</ele>
|
|
<time>2026-07-17T15:32:00.000Z</time>
|
|
</trkpt>
|
|
<trkpt lat="57.605701" lon="10.423680">
|
|
<ele>16.755739</ele>
|
|
<time>2026-07-17T15:32:01.000Z</time>
|
|
</trkpt>
|
|
<trkpt lat="57.605701" lon="10.423642">
|
|
<ele>16.749990</ele>
|
|
<time>2026-07-17T15:32:02.000Z</time>
|
|
</trkpt>
|
|
<trkpt lat="57.605701" lon="10.423612">
|
|
<ele>16.745451</ele>
|
|
<time>2026-07-17T15:32:03.000Z</time>
|
|
</trkpt>
|
|
<trkpt lat="57.605700" lon="10.423592">
|
|
<ele>16.742411</ele>
|
|
<time>2026-07-17T15:32:04.000Z</time>
|
|
</trkpt>
|
|
<trkpt lat="57.605695" lon="10.423579">
|
|
<ele>16.739990</ele>
|
|
<time>2026-07-17T15:32:05.000Z</time>
|
|
</trkpt>
|
|
<trkpt lat="57.605685" lon="10.423571">
|
|
<ele>16.736917</ele>
|
|
<time>2026-07-17T15:32:06.000Z</time>
|
|
</trkpt>
|
|
<trkpt lat="57.605672" lon="10.423567">
|
|
<ele>16.733196</ele>
|
|
<time>2026-07-17T15:32:07.000Z</time>
|
|
</trkpt>
|
|
<trkpt lat="57.605657" lon="10.423564">
|
|
<ele>16.728936</ele>
|
|
<time>2026-07-17T15:32:08.000Z</time>
|
|
</trkpt>
|
|
<trkpt lat="57.605638" lon="10.423561">
|
|
<ele>16.723551</ele>
|
|
<time>2026-07-17T15:32:09.000Z</time>
|
|
</trkpt>
|
|
<trkpt lat="57.605617" lon="10.423553">
|
|
<ele>16.717498</ele>
|
|
<time>2026-07-17T15:32:10.000Z</time>
|
|
</trkpt>
|
|
<trkpt lat="57.605595" lon="10.423542">
|
|
<ele>16.711065</ele>
|
|
<time>2026-07-17T15:32:11.000Z</time>
|
|
</trkpt>
|
|
<trkpt lat="57.605568" lon="10.423530">
|
|
<ele>16.703227</ele>
|
|
<time>2026-07-17T15:32:12.000Z</time>
|
|
</trkpt>
|
|
<trkpt lat="57.605543" lon="10.423526">
|
|
<ele>16.696140</ele>
|
|
<time>2026-07-17T15:32:13.000Z</time>
|
|
</trkpt>
|
|
<trkpt lat="57.605520" lon="10.423539">
|
|
<ele>16.689353</ele>
|
|
<time>2026-07-17T15:32:14.000Z</time>
|
|
</trkpt>
|
|
<trkpt lat="57.605496" lon="10.423561">
|
|
<ele>16.681802</ele>
|
|
<time>2026-07-17T15:32:15.000Z</time>
|
|
</trkpt>
|
|
<trkpt lat="57.605469" lon="10.423583">
|
|
<ele>16.673482</ele>
|
|
<time>2026-07-17T15:32:16.000Z</time>
|
|
</trkpt>
|
|
<trkpt lat="57.605438" lon="10.423601">
|
|
<ele>16.664313</ele>
|
|
<time>2026-07-17T15:32:17.000Z</time>
|
|
</trkpt>
|
|
<trkpt lat="57.605400" lon="10.423615">
|
|
<ele>16.653374</ele>
|
|
<time>2026-07-17T15:32:18.000Z</time>
|
|
</trkpt>
|
|
<trkpt lat="57.605361" lon="10.423620">
|
|
<ele>16.642333</ele>
|
|
<time>2026-07-17T15:32:19.000Z</time>
|
|
</trkpt>
|
|
<trkpt lat="57.605323" lon="10.423608">
|
|
<ele>16.631449</ele>
|
|
<time>2026-07-17T15:32:20.000Z</time>
|
|
</trkpt>
|
|
<trkpt lat="57.605285" lon="10.423582">
|
|
<ele>16.620019</ele>
|
|
<time>2026-07-17T15:32:21.000Z</time>
|
|
</trkpt>
|
|
<trkpt lat="57.605247" lon="10.423544">
|
|
<ele>16.607844</ele>
|
|
<time>2026-07-17T15:32:22.000Z</time>
|
|
</trkpt>
|
|
<trkpt lat="57.605208" lon="10.423501">
|
|
<ele>16.595051</ele>
|
|
<time>2026-07-17T15:32:23.000Z</time>
|
|
</trkpt>
|
|
<trkpt lat="57.605169" lon="10.423457">
|
|
<ele>16.582181</ele>
|
|
<time>2026-07-17T15:32:24.000Z</time>
|
|
</trkpt>
|
|
<trkpt lat="57.605127" lon="10.423415">
|
|
<ele>16.568724</ele>
|
|
<time>2026-07-17T15:32:25.000Z</time>
|
|
</trkpt>
|
|
<trkpt lat="57.605083" lon="10.423371">
|
|
<ele>16.554627</ele>
|
|
<time>2026-07-17T15:32:26.000Z</time>
|
|
</trkpt>
|
|
<trkpt lat="57.605036" lon="10.423326">
|
|
<ele>16.539708</ele>
|
|
<time>2026-07-17T15:32:27.000Z</time>
|
|
</trkpt>
|
|
<trkpt lat="57.604988" lon="10.423282">
|
|
<ele>16.524606</ele>
|
|
<time>2026-07-17T15:32:28.000Z</time>
|
|
</trkpt>
|
|
<trkpt lat="57.604942" lon="10.423239">
|
|
<ele>16.510076</ele>
|
|
<time>2026-07-17T15:32:29.000Z</time>
|
|
</trkpt>
|
|
<trkpt lat="57.604896" lon="10.423196">
|
|
<ele>16.495547</ele>
|
|
<time>2026-07-17T15:32:30.000Z</time>
|
|
</trkpt>
|
|
<trkpt lat="57.604851" lon="10.423150">
|
|
<ele>16.481057</ele>
|
|
<time>2026-07-17T15:32:31.000Z</time>
|
|
</trkpt>
|
|
<trkpt lat="57.604805" lon="10.423102">
|
|
<ele>16.466173</ele>
|
|
<time>2026-07-17T15:32:32.000Z</time>
|
|
</trkpt>
|
|
<trkpt lat="57.604757" lon="10.423051">
|
|
<ele>16.450574</ele>
|
|
<time>2026-07-17T15:32:33.000Z</time>
|
|
</trkpt>
|
|
<trkpt lat="57.604709" lon="10.423000">
|
|
<ele>16.434976</ele>
|
|
<time>2026-07-17T15:32:34.000Z</time>
|
|
</trkpt>
|
|
<trkpt lat="57.604662" lon="10.422951">
|
|
<ele>16.419772</ele>
|
|
<time>2026-07-17T15:32:35.000Z</time>
|
|
</trkpt>
|
|
<trkpt lat="57.604612" lon="10.422899">
|
|
<ele>16.403607</ele>
|
|
<time>2026-07-17T15:32:36.000Z</time>
|
|
</trkpt>
|
|
<trkpt lat="57.604564" lon="10.422844">
|
|
<ele>16.387700</ele>
|
|
<time>2026-07-17T15:32:37.000Z</time>
|
|
</trkpt>
|
|
<trkpt lat="57.604515" lon="10.422790">
|
|
<ele>16.371629</ele>
|
|
<time>2026-07-17T15:32:38.000Z</time>
|
|
</trkpt>
|
|
<trkpt lat="57.604463" lon="10.422736">
|
|
<ele>16.354823</ele>
|
|
<time>2026-07-17T15:32:39.000Z</time>
|
|
</trkpt>
|
|
<trkpt lat="57.604412" lon="10.422679">
|
|
<ele>16.338035</ele>
|
|
<time>2026-07-17T15:32:40.000Z</time>
|
|
</trkpt>
|
|
<trkpt lat="57.604361" lon="10.422617">
|
|
<ele>16.320846</ele>
|
|
<time>2026-07-17T15:32:41.000Z</time>
|
|
</trkpt>
|
|
<trkpt lat="57.604311" lon="10.422565">
|
|
<ele>16.304681</ele>
|
|
<time>2026-07-17T15:32:42.000Z</time>
|
|
</trkpt>
|
|
<trkpt lat="57.604262" lon="10.422519">
|
|
<ele>16.289190</ele>
|
|
<time>2026-07-17T15:32:43.000Z</time>
|
|
</trkpt>
|
|
<trkpt lat="57.604212" lon="10.422470">
|
|
<ele>16.277292</ele>
|
|
<time>2026-07-17T15:32:44.000Z</time>
|
|
</trkpt>
|
|
<trkpt lat="57.604162" lon="10.422424">
|
|
<ele>16.292654</ele>
|
|
<time>2026-07-17T15:32:45.000Z</time>
|
|
</trkpt>
|
|
<trkpt lat="57.604114" lon="10.422376">
|
|
<ele>16.307660</ele>
|
|
<time>2026-07-17T15:32:46.000Z</time>
|
|
</trkpt>
|
|
<trkpt lat="57.604067" lon="10.422325">
|
|
<ele>16.322642</ele>
|
|
<time>2026-07-17T15:32:47.000Z</time>
|
|
</trkpt>
|
|
<trkpt lat="57.604016" lon="10.422274">
|
|
<ele>16.338587</ele>
|
|
<time>2026-07-17T15:32:48.000Z</time>
|
|
</trkpt>
|
|
<trkpt lat="57.603964" lon="10.422223">
|
|
<ele>16.354774</ele>
|
|
<time>2026-07-17T15:32:49.000Z</time>
|
|
</trkpt>
|
|
<trkpt lat="57.603916" lon="10.422172">
|
|
<ele>16.369995</ele>
|
|
<time>2026-07-17T15:32:50.000Z</time>
|
|
</trkpt>
|
|
<trkpt lat="57.603868" lon="10.422122">
|
|
<ele>16.385144</ele>
|
|
<time>2026-07-17T15:32:51.000Z</time>
|
|
</trkpt>
|
|
<trkpt lat="57.603818" lon="10.422074">
|
|
<ele>16.400638</ele>
|
|
<time>2026-07-17T15:32:52.000Z</time>
|
|
</trkpt>
|
|
<trkpt lat="57.603771" lon="10.422031">
|
|
<ele>16.415063</ele>
|
|
<time>2026-07-17T15:32:53.000Z</time>
|
|
</trkpt>
|
|
<trkpt lat="57.603725" lon="10.421988">
|
|
<ele>16.429240</ele>
|
|
<time>2026-07-17T15:32:54.000Z</time>
|
|
</trkpt>
|
|
<trkpt lat="57.603679" lon="10.421945">
|
|
<ele>16.443418</ele>
|
|
<time>2026-07-17T15:32:55.000Z</time>
|
|
</trkpt>
|
|
<trkpt lat="57.603633" lon="10.421899">
|
|
<ele>16.457799</ele>
|
|
<time>2026-07-17T15:32:56.000Z</time>
|
|
</trkpt>
|
|
<trkpt lat="57.603588" lon="10.421854">
|
|
<ele>16.471868</ele>
|
|
<time>2026-07-17T15:32:57.000Z</time>
|
|
</trkpt>
|
|
<trkpt lat="57.603542" lon="10.421812">
|
|
<ele>16.485980</ele>
|
|
<time>2026-07-17T15:32:58.000Z</time>
|
|
</trkpt>
|
|
<trkpt lat="57.603496" lon="10.421767">
|
|
<ele>16.500292</ele>
|
|
<time>2026-07-17T15:32:59.000Z</time>
|
|
</trkpt>
|
|
<trkpt lat="57.603450" lon="10.421724">
|
|
<ele>16.514470</ele>
|
|
<time>2026-07-17T15:33:00.000Z</time>
|
|
</trkpt>
|
|
<trkpt lat="57.603405" lon="10.421682">
|
|
<ele>16.528335</ele>
|
|
<time>2026-07-17T15:33:01.000Z</time>
|
|
</trkpt>
|
|
<trkpt lat="57.603361" lon="10.421639">
|
|
<ele>16.542022</ele>
|
|
<time>2026-07-17T15:33:02.000Z</time>
|
|
</trkpt>
|
|
<trkpt lat="57.603317" lon="10.421597">
|
|
<ele>16.555641</ele>
|
|
<time>2026-07-17T15:33:03.000Z</time>
|
|
</trkpt>
|
|
<trkpt lat="57.603271" lon="10.421556">
|
|
<ele>16.569689</ele>
|
|
<time>2026-07-17T15:33:04.000Z</time>
|
|
</trkpt>
|
|
<trkpt lat="57.603224" lon="10.421516">
|
|
<ele>16.583924</ele>
|
|
<time>2026-07-17T15:33:05.000Z</time>
|
|
</trkpt>
|
|
<trkpt lat="57.603176" lon="10.421470">
|
|
<ele>16.598793</ele>
|
|
<time>2026-07-17T15:33:06.000Z</time>
|
|
</trkpt>
|
|
<trkpt lat="57.603130" lon="10.421426">
|
|
<ele>16.613037</ele>
|
|
<time>2026-07-17T15:33:07.000Z</time>
|
|
</trkpt>
|
|
<trkpt lat="57.603083" lon="10.421390">
|
|
<ele>16.627038</ele>
|
|
<time>2026-07-17T15:33:08.000Z</time>
|
|
</trkpt>
|
|
<trkpt lat="57.603035" lon="10.421353">
|
|
<ele>16.641349</ele>
|
|
<time>2026-07-17T15:33:09.000Z</time>
|
|
</trkpt>
|
|
<trkpt lat="57.602986" lon="10.421305">
|
|
<ele>16.656599</ele>
|
|
<time>2026-07-17T15:33:10.000Z</time>
|
|
</trkpt>
|
|
<trkpt lat="57.602932" lon="10.421247">
|
|
<ele>16.673769</ele>
|
|
<time>2026-07-17T15:33:11.000Z</time>
|
|
</trkpt>
|
|
<trkpt lat="57.602879" lon="10.421189">
|
|
<ele>16.690700</ele>
|
|
<time>2026-07-17T15:33:12.000Z</time>
|
|
</trkpt>
|
|
<trkpt lat="57.602825" lon="10.421129">
|
|
<ele>16.708018</ele>
|
|
<time>2026-07-17T15:33:13.000Z</time>
|
|
</trkpt>
|
|
<trkpt lat="57.602772" lon="10.421068">
|
|
<ele>16.725178</ele>
|
|
<time>2026-07-17T15:33:14.000Z</time>
|
|
</trkpt>
|
|
<trkpt lat="57.602720" lon="10.421011">
|
|
<ele>16.741796</ele>
|
|
<time>2026-07-17T15:33:15.000Z</time>
|
|
</trkpt>
|
|
<trkpt lat="57.602669" lon="10.420954">
|
|
<ele>16.758178</ele>
|
|
<time>2026-07-17T15:33:16.000Z</time>
|
|
</trkpt>
|
|
<trkpt lat="57.602616" lon="10.420898">
|
|
<ele>16.769691</ele>
|
|
<time>2026-07-17T15:33:17.000Z</time>
|
|
</trkpt>
|
|
<trkpt lat="57.602563" lon="10.420841">
|
|
<ele>16.764362</ele>
|
|
<time>2026-07-17T15:33:18.000Z</time>
|
|
</trkpt>
|
|
<trkpt lat="57.602510" lon="10.420782">
|
|
<ele>16.758986</ele>
|
|
<time>2026-07-17T15:33:19.000Z</time>
|
|
</trkpt>
|
|
<trkpt lat="57.602459" lon="10.420725">
|
|
<ele>16.753807</ele>
|
|
<time>2026-07-17T15:33:20.000Z</time>
|
|
</trkpt>
|
|
<trkpt lat="57.602407" lon="10.420673">
|
|
<ele>16.748668</ele>
|
|
<time>2026-07-17T15:33:21.000Z</time>
|
|
</trkpt>
|
|
<trkpt lat="57.602356" lon="10.420625">
|
|
<ele>16.743692</ele>
|
|
<time>2026-07-17T15:33:22.000Z</time>
|
|
</trkpt>
|
|
<trkpt lat="57.602304" lon="10.420576">
|
|
<ele>16.738617</ele>
|
|
<time>2026-07-17T15:33:23.000Z</time>
|
|
</trkpt>
|
|
<trkpt lat="57.602255" lon="10.420525">
|
|
<ele>16.733729</ele>
|
|
<time>2026-07-17T15:33:24.000Z</time>
|
|
</trkpt>
|
|
<trkpt lat="57.602205" lon="10.420475">
|
|
<ele>16.728788</ele>
|
|
<time>2026-07-17T15:33:25.000Z</time>
|
|
</trkpt>
|
|
<trkpt lat="57.602154" lon="10.420421">
|
|
<ele>16.723679</ele>
|
|
<time>2026-07-17T15:33:26.000Z</time>
|
|
</trkpt>
|
|
<trkpt lat="57.602103" lon="10.420366">
|
|
<ele>16.718548</ele>
|
|
<time>2026-07-17T15:33:27.000Z</time>
|
|
</trkpt>
|
|
<trkpt lat="57.602055" lon="10.420312">
|
|
<ele>16.713666</ele>
|
|
<time>2026-07-17T15:33:28.000Z</time>
|
|
</trkpt>
|
|
<trkpt lat="57.602003" lon="10.420257">
|
|
<ele>16.708459</ele>
|
|
<time>2026-07-17T15:33:29.000Z</time>
|
|
</trkpt>
|
|
<trkpt lat="57.601954" lon="10.420207">
|
|
<ele>16.703593</ele>
|
|
<time>2026-07-17T15:33:30.000Z</time>
|
|
</trkpt>
|
|
<trkpt lat="57.601905" lon="10.420158">
|
|
<ele>16.698751</ele>
|
|
<time>2026-07-17T15:33:31.000Z</time>
|
|
</trkpt>
|
|
<trkpt lat="57.601858" lon="10.420109">
|
|
<ele>16.694061</ele>
|
|
<time>2026-07-17T15:33:32.000Z</time>
|
|
</trkpt>
|
|
<trkpt lat="57.601807" lon="10.420058">
|
|
<ele>16.689020</ele>
|
|
<time>2026-07-17T15:33:33.000Z</time>
|
|
</trkpt>
|
|
<trkpt lat="57.601757" lon="10.420011">
|
|
<ele>16.684143</ele>
|
|
<time>2026-07-17T15:33:34.000Z</time>
|
|
</trkpt>
|
|
<trkpt lat="57.601708" lon="10.419964">
|
|
<ele>16.679343</ele>
|
|
<time>2026-07-17T15:33:35.000Z</time>
|
|
</trkpt>
|
|
<trkpt lat="57.601652" lon="10.419907">
|
|
<ele>16.673786</ele>
|
|
<time>2026-07-17T15:33:36.000Z</time>
|
|
</trkpt>
|
|
<trkpt lat="57.601604" lon="10.419856">
|
|
<ele>16.668975</ele>
|
|
<time>2026-07-17T15:33:37.000Z</time>
|
|
</trkpt>
|
|
<trkpt lat="57.601557" lon="10.419810">
|
|
<ele>16.664351</ele>
|
|
<time>2026-07-17T15:33:38.000Z</time>
|
|
</trkpt>
|
|
<trkpt lat="57.601506" lon="10.419762">
|
|
<ele>16.659375</ele>
|
|
<time>2026-07-17T15:33:39.000Z</time>
|
|
</trkpt>
|
|
<trkpt lat="57.601454" lon="10.419712">
|
|
<ele>16.654279</ele>
|
|
<time>2026-07-17T15:33:40.000Z</time>
|
|
</trkpt>
|
|
<trkpt lat="57.601404" lon="10.419662">
|
|
<ele>16.649338</ele>
|
|
<time>2026-07-17T15:33:41.000Z</time>
|
|
</trkpt>
|
|
<trkpt lat="57.601354" lon="10.419611">
|
|
<ele>16.644374</ele>
|
|
<time>2026-07-17T15:33:42.000Z</time>
|
|
</trkpt>
|
|
<trkpt lat="57.601302" lon="10.419560">
|
|
<ele>16.639256</ele>
|
|
<time>2026-07-17T15:33:43.000Z</time>
|
|
</trkpt>
|
|
<trkpt lat="57.601252" lon="10.419508">
|
|
<ele>16.634270</ele>
|
|
<time>2026-07-17T15:33:44.000Z</time>
|
|
</trkpt>
|
|
<trkpt lat="57.601203" lon="10.419455">
|
|
<ele>16.629336</ele>
|
|
<time>2026-07-17T15:33:45.000Z</time>
|
|
</trkpt>
|
|
<trkpt lat="57.601151" lon="10.419402">
|
|
<ele>16.624174</ele>
|
|
<time>2026-07-17T15:33:46.000Z</time>
|
|
</trkpt>
|
|
<trkpt lat="57.601099" lon="10.419351">
|
|
<ele>16.619057</ele>
|
|
<time>2026-07-17T15:33:47.000Z</time>
|
|
</trkpt>
|
|
<trkpt lat="57.601050" lon="10.419302">
|
|
<ele>16.614436</ele>
|
|
<time>2026-07-17T15:33:48.000Z</time>
|
|
</trkpt>
|
|
<trkpt lat="57.600999" lon="10.419252">
|
|
<ele>16.631744</ele>
|
|
<time>2026-07-17T15:33:49.000Z</time>
|
|
</trkpt>
|
|
<trkpt lat="57.600948" lon="10.419199">
|
|
<ele>16.649283</ele>
|
|
<time>2026-07-17T15:33:50.000Z</time>
|
|
</trkpt>
|
|
<trkpt lat="57.600897" lon="10.419143">
|
|
<ele>16.667062</ele>
|
|
<time>2026-07-17T15:33:51.000Z</time>
|
|
</trkpt>
|
|
<trkpt lat="57.600847" lon="10.419087">
|
|
<ele>16.684582</ele>
|
|
<time>2026-07-17T15:33:52.000Z</time>
|
|
</trkpt>
|
|
<trkpt lat="57.600798" lon="10.419038">
|
|
<ele>16.701285</ele>
|
|
<time>2026-07-17T15:33:53.000Z</time>
|
|
</trkpt>
|
|
<trkpt lat="57.600748" lon="10.418990">
|
|
<ele>16.718178</ele>
|
|
<time>2026-07-17T15:33:54.000Z</time>
|
|
</trkpt>
|
|
<trkpt lat="57.600699" lon="10.418941">
|
|
<ele>16.734881</ele>
|
|
<time>2026-07-17T15:33:55.000Z</time>
|
|
</trkpt>
|
|
<trkpt lat="57.600649" lon="10.418894">
|
|
<ele>16.751702</ele>
|
|
<time>2026-07-17T15:33:56.000Z</time>
|
|
</trkpt>
|
|
<trkpt lat="57.600601" lon="10.418846">
|
|
<ele>16.768063</ele>
|
|
<time>2026-07-17T15:33:57.000Z</time>
|
|
</trkpt>
|
|
<trkpt lat="57.600554" lon="10.418799">
|
|
<ele>16.784084</ele>
|
|
<time>2026-07-17T15:33:58.000Z</time>
|
|
</trkpt>
|
|
<trkpt lat="57.600505" lon="10.418759">
|
|
<ele>16.800153</ele>
|
|
<time>2026-07-17T15:33:59.000Z</time>
|
|
</trkpt>
|
|
<trkpt lat="57.600454" lon="10.418722">
|
|
<ele>16.816594</ele>
|
|
<time>2026-07-17T15:34:00.000Z</time>
|
|
</trkpt>
|
|
<trkpt lat="57.600403" lon="10.418691">
|
|
<ele>16.832709</ele>
|
|
<time>2026-07-17T15:34:01.000Z</time>
|
|
</trkpt>
|
|
<trkpt lat="57.600349" lon="10.418661">
|
|
<ele>16.849637</ele>
|
|
<time>2026-07-17T15:34:02.000Z</time>
|
|
</trkpt>
|
|
<trkpt lat="57.600296" lon="10.418624">
|
|
<ele>16.866639</ele>
|
|
<time>2026-07-17T15:34:03.000Z</time>
|
|
</trkpt>
|
|
<trkpt lat="57.600246" lon="10.418580">
|
|
<ele>16.883248</ele>
|
|
<time>2026-07-17T15:34:04.000Z</time>
|
|
</trkpt>
|
|
<trkpt lat="57.600199" lon="10.418533">
|
|
<ele>16.899269</ele>
|
|
<time>2026-07-17T15:34:05.000Z</time>
|
|
</trkpt>
|
|
<trkpt lat="57.600149" lon="10.418483">
|
|
<ele>16.916313</ele>
|
|
<time>2026-07-17T15:34:06.000Z</time>
|
|
</trkpt>
|
|
<trkpt lat="57.600099" lon="10.418432">
|
|
<ele>16.933433</ele>
|
|
<time>2026-07-17T15:34:07.000Z</time>
|
|
</trkpt>
|
|
<trkpt lat="57.600051" lon="10.418385">
|
|
<ele>16.949719</ele>
|
|
<time>2026-07-17T15:34:08.000Z</time>
|
|
</trkpt>
|
|
<trkpt lat="57.600004" lon="10.418341">
|
|
<ele>16.965518</ele>
|
|
<time>2026-07-17T15:34:09.000Z</time>
|
|
</trkpt>
|
|
<trkpt lat="57.599955" lon="10.418298">
|
|
<ele>16.981786</ele>
|
|
<time>2026-07-17T15:34:10.000Z</time>
|
|
</trkpt>
|
|
<trkpt lat="57.599907" lon="10.418252">
|
|
<ele>16.997998</ele>
|
|
<time>2026-07-17T15:34:11.000Z</time>
|
|
</trkpt>
|
|
<trkpt lat="57.599859" lon="10.418205">
|
|
<ele>17.014285</ele>
|
|
<time>2026-07-17T15:34:12.000Z</time>
|
|
</trkpt>
|
|
<trkpt lat="57.599811" lon="10.418159">
|
|
<ele>17.030497</ele>
|
|
<time>2026-07-17T15:34:13.000Z</time>
|
|
</trkpt>
|
|
<trkpt lat="57.599764" lon="10.418114">
|
|
<ele>17.046368</ele>
|
|
<time>2026-07-17T15:34:14.000Z</time>
|
|
</trkpt>
|
|
<trkpt lat="57.599716" lon="10.418069">
|
|
<ele>17.062508</ele>
|
|
<time>2026-07-17T15:34:15.000Z</time>
|
|
</trkpt>
|
|
<trkpt lat="57.599668" lon="10.418023">
|
|
<ele>17.078720</ele>
|
|
<time>2026-07-17T15:34:16.000Z</time>
|
|
</trkpt>
|
|
<trkpt lat="57.599619" lon="10.417976">
|
|
<ele>17.095273</ele>
|
|
<time>2026-07-17T15:34:17.000Z</time>
|
|
</trkpt>
|
|
<trkpt lat="57.599571" lon="10.417930">
|
|
<ele>17.111485</ele>
|
|
<time>2026-07-17T15:34:18.000Z</time>
|
|
</trkpt>
|
|
<trkpt lat="57.599525" lon="10.417883">
|
|
<ele>17.127242</ele>
|
|
<time>2026-07-17T15:34:19.000Z</time>
|
|
</trkpt>
|
|
<trkpt lat="57.599474" lon="10.417832">
|
|
<ele>17.144626</ele>
|
|
<time>2026-07-17T15:34:20.000Z</time>
|
|
</trkpt>
|
|
<trkpt lat="57.599419" lon="10.417780">
|
|
<ele>17.156380</ele>
|
|
<time>2026-07-17T15:34:21.000Z</time>
|
|
</trkpt>
|
|
<trkpt lat="57.599368" lon="10.417735">
|
|
<ele>17.159787</ele>
|
|
<time>2026-07-17T15:34:22.000Z</time>
|
|
</trkpt>
|
|
<trkpt lat="57.599319" lon="10.417690">
|
|
<ele>17.163085</ele>
|
|
<time>2026-07-17T15:34:23.000Z</time>
|
|
</trkpt>
|
|
<trkpt lat="57.599267" lon="10.417641">
|
|
<ele>17.166603</ele>
|
|
<time>2026-07-17T15:34:24.000Z</time>
|
|
</trkpt>
|
|
<trkpt lat="57.599214" lon="10.417590">
|
|
<ele>17.170205</ele>
|
|
<time>2026-07-17T15:34:25.000Z</time>
|
|
</trkpt>
|
|
<trkpt lat="57.599165" lon="10.417541">
|
|
<ele>17.173562</ele>
|
|
<time>2026-07-17T15:34:26.000Z</time>
|
|
</trkpt>
|
|
<trkpt lat="57.599114" lon="10.417494">
|
|
<ele>17.176997</ele>
|
|
<time>2026-07-17T15:34:27.000Z</time>
|
|
</trkpt>
|
|
<trkpt lat="57.599062" lon="10.417449">
|
|
<ele>17.180459</ele>
|
|
<time>2026-07-17T15:34:28.000Z</time>
|
|
</trkpt>
|
|
<trkpt lat="57.599012" lon="10.417404">
|
|
<ele>17.183811</ele>
|
|
<time>2026-07-17T15:34:29.000Z</time>
|
|
</trkpt>
|
|
<trkpt lat="57.598958" lon="10.417359">
|
|
<ele>17.187383</ele>
|
|
<time>2026-07-17T15:34:30.000Z</time>
|
|
</trkpt>
|
|
<trkpt lat="57.598901" lon="10.417316">
|
|
<ele>17.191096</ele>
|
|
<time>2026-07-17T15:34:31.000Z</time>
|
|
</trkpt>
|
|
<trkpt lat="57.598847" lon="10.417276">
|
|
<ele>17.194604</ele>
|
|
<time>2026-07-17T15:34:32.000Z</time>
|
|
</trkpt>
|
|
<trkpt lat="57.598794" lon="10.417234">
|
|
<ele>17.198082</ele>
|
|
<time>2026-07-17T15:34:33.000Z</time>
|
|
</trkpt>
|
|
<trkpt lat="57.598742" lon="10.417189">
|
|
<ele>17.201543</ele>
|
|
<time>2026-07-17T15:34:34.000Z</time>
|
|
</trkpt>
|
|
<trkpt lat="57.598691" lon="10.417141">
|
|
<ele>17.204993</ele>
|
|
<time>2026-07-17T15:34:35.000Z</time>
|
|
</trkpt>
|
|
<trkpt lat="57.598636" lon="10.417099">
|
|
<ele>17.208582</ele>
|
|
<time>2026-07-17T15:34:36.000Z</time>
|
|
</trkpt>
|
|
<trkpt lat="57.598581" lon="10.417060">
|
|
<ele>17.212135</ele>
|
|
<time>2026-07-17T15:34:37.000Z</time>
|
|
</trkpt>
|
|
<trkpt lat="57.598529" lon="10.417021">
|
|
<ele>17.215520</ele>
|
|
<time>2026-07-17T15:34:38.000Z</time>
|
|
</trkpt>
|
|
<trkpt lat="57.598477" lon="10.416980">
|
|
<ele>17.218929</ele>
|
|
<time>2026-07-17T15:34:39.000Z</time>
|
|
</trkpt>
|
|
<trkpt lat="57.598424" lon="10.416938">
|
|
<ele>17.222406</ele>
|
|
<time>2026-07-17T15:34:40.000Z</time>
|
|
</trkpt>
|
|
<trkpt lat="57.598373" lon="10.416899">
|
|
<ele>17.225735</ele>
|
|
<time>2026-07-17T15:34:41.000Z</time>
|
|
</trkpt>
|
|
<trkpt lat="57.598325" lon="10.416858">
|
|
<ele>17.228923</ele>
|
|
<time>2026-07-17T15:34:42.000Z</time>
|
|
</trkpt>
|
|
<trkpt lat="57.598276" lon="10.416819">
|
|
<ele>17.232140</ele>
|
|
<time>2026-07-17T15:34:43.000Z</time>
|
|
</trkpt>
|
|
<trkpt lat="57.598231" lon="10.416783">
|
|
<ele>17.235097</ele>
|
|
<time>2026-07-17T15:34:44.000Z</time>
|
|
</trkpt>
|
|
<trkpt lat="57.598182" lon="10.416743">
|
|
<ele>17.238327</ele>
|
|
<time>2026-07-17T15:34:45.000Z</time>
|
|
</trkpt>
|
|
<trkpt lat="57.598131" lon="10.416700">
|
|
<ele>17.241707</ele>
|
|
<time>2026-07-17T15:34:46.000Z</time>
|
|
</trkpt>
|
|
<trkpt lat="57.598077" lon="10.416658">
|
|
<ele>17.245240</ele>
|
|
<time>2026-07-17T15:34:47.000Z</time>
|
|
</trkpt>
|
|
<trkpt lat="57.598023" lon="10.416617">
|
|
<ele>17.248761</ele>
|
|
<time>2026-07-17T15:34:48.000Z</time>
|
|
</trkpt>
|
|
<trkpt lat="57.597969" lon="10.416574">
|
|
<ele>17.252306</ele>
|
|
<time>2026-07-17T15:34:49.000Z</time>
|
|
</trkpt>
|
|
<trkpt lat="57.597918" lon="10.416533">
|
|
<ele>17.255660</ele>
|
|
<time>2026-07-17T15:34:50.000Z</time>
|
|
</trkpt>
|
|
<trkpt lat="57.597870" lon="10.416490">
|
|
<ele>17.258876</ele>
|
|
<time>2026-07-17T15:34:51.000Z</time>
|
|
</trkpt>
|
|
<trkpt lat="57.597826" lon="10.416448">
|
|
<ele>17.261860</ele>
|
|
<time>2026-07-17T15:34:52.000Z</time>
|
|
</trkpt>
|
|
<trkpt lat="57.597781" lon="10.416408">
|
|
<ele>17.269058</ele>
|
|
<time>2026-07-17T15:34:53.000Z</time>
|
|
</trkpt>
|
|
<trkpt lat="57.597722" lon="10.416344">
|
|
<ele>17.284183</ele>
|
|
<time>2026-07-17T15:34:54.000Z</time>
|
|
</trkpt>
|
|
<trkpt lat="57.597675" lon="10.416293">
|
|
<ele>17.296233</ele>
|
|
<time>2026-07-17T15:34:55.000Z</time>
|
|
</trkpt>
|
|
<trkpt lat="57.597629" lon="10.416244">
|
|
<ele>17.307972</ele>
|
|
<time>2026-07-17T15:34:56.000Z</time>
|
|
</trkpt>
|
|
<trkpt lat="57.597585" lon="10.416196">
|
|
<ele>17.319267</ele>
|
|
<time>2026-07-17T15:34:57.000Z</time>
|
|
</trkpt>
|
|
<trkpt lat="57.597542" lon="10.416147">
|
|
<ele>17.330434</ele>
|
|
<time>2026-07-17T15:34:58.000Z</time>
|
|
</trkpt>
|
|
<trkpt lat="57.597498" lon="10.416099">
|
|
<ele>17.341729</ele>
|
|
<time>2026-07-17T15:34:59.000Z</time>
|
|
</trkpt>
|
|
<trkpt lat="57.597454" lon="10.416048">
|
|
<ele>17.353209</ele>
|
|
<time>2026-07-17T15:35:00.000Z</time>
|
|
</trkpt>
|
|
<trkpt lat="57.597406" lon="10.415994">
|
|
<ele>17.365631</ele>
|
|
<time>2026-07-17T15:35:01.000Z</time>
|
|
</trkpt>
|
|
<trkpt lat="57.597361" lon="10.415943">
|
|
<ele>17.377299</ele>
|
|
<time>2026-07-17T15:35:02.000Z</time>
|
|
</trkpt>
|
|
<trkpt lat="57.597314" lon="10.415891">
|
|
<ele>17.389409</ele>
|
|
<time>2026-07-17T15:35:03.000Z</time>
|
|
</trkpt>
|
|
<trkpt lat="57.597265" lon="10.415838">
|
|
<ele>17.401961</ele>
|
|
<time>2026-07-17T15:35:04.000Z</time>
|
|
</trkpt>
|
|
<trkpt lat="57.597215" lon="10.415785">
|
|
<ele>17.414705</ele>
|
|
<time>2026-07-17T15:35:05.000Z</time>
|
|
</trkpt>
|
|
<trkpt lat="57.597167" lon="10.415731">
|
|
<ele>17.427127</ele>
|
|
<time>2026-07-17T15:35:06.000Z</time>
|
|
</trkpt>
|
|
<trkpt lat="57.597121" lon="10.415682">
|
|
<ele>17.438866</ele>
|
|
<time>2026-07-17T15:35:07.000Z</time>
|
|
</trkpt>
|
|
<trkpt lat="57.597073" lon="10.415633">
|
|
<ele>17.450992</ele>
|
|
<time>2026-07-17T15:35:08.000Z</time>
|
|
</trkpt>
|
|
<trkpt lat="57.597026" lon="10.415584">
|
|
<ele>17.462924</ele>
|
|
<time>2026-07-17T15:35:09.000Z</time>
|
|
</trkpt>
|
|
<trkpt lat="57.596975" lon="10.415537">
|
|
<ele>17.475530</ele>
|
|
<time>2026-07-17T15:35:10.000Z</time>
|
|
</trkpt>
|
|
<trkpt lat="57.596925" lon="10.415492">
|
|
<ele>17.487833</ele>
|
|
<time>2026-07-17T15:35:11.000Z</time>
|
|
</trkpt>
|
|
<trkpt lat="57.596878" lon="10.415452">
|
|
<ele>17.499281</ele>
|
|
<time>2026-07-17T15:35:12.000Z</time>
|
|
</trkpt>
|
|
<trkpt lat="57.596831" lon="10.415414">
|
|
<ele>17.510634</ele>
|
|
<time>2026-07-17T15:35:13.000Z</time>
|
|
</trkpt>
|
|
<trkpt lat="57.596779" lon="10.415374">
|
|
<ele>17.523099</ele>
|
|
<time>2026-07-17T15:35:14.000Z</time>
|
|
</trkpt>
|
|
<trkpt lat="57.596726" lon="10.415332">
|
|
<ele>17.535861</ele>
|
|
<time>2026-07-17T15:35:15.000Z</time>
|
|
</trkpt>
|
|
<trkpt lat="57.596672" lon="10.415291">
|
|
<ele>17.548781</ele>
|
|
<time>2026-07-17T15:35:16.000Z</time>
|
|
</trkpt>
|
|
<trkpt lat="57.596620" lon="10.415250">
|
|
<ele>17.561292</ele>
|
|
<time>2026-07-17T15:35:17.000Z</time>
|
|
</trkpt>
|
|
<trkpt lat="57.596569" lon="10.415208">
|
|
<ele>17.573647</ele>
|
|
<time>2026-07-17T15:35:18.000Z</time>
|
|
</trkpt>
|
|
<trkpt lat="57.596518" lon="10.415164">
|
|
<ele>17.586100</ele>
|
|
<time>2026-07-17T15:35:19.000Z</time>
|
|
</trkpt>
|
|
<trkpt lat="57.596469" lon="10.415119">
|
|
<ele>17.598203</ele>
|
|
<time>2026-07-17T15:35:20.000Z</time>
|
|
</trkpt>
|
|
<trkpt lat="57.596419" lon="10.415072">
|
|
<ele>17.610611</ele>
|
|
<time>2026-07-17T15:35:21.000Z</time>
|
|
</trkpt>
|
|
<trkpt lat="57.596369" lon="10.415024">
|
|
<ele>17.623073</ele>
|
|
<time>2026-07-17T15:35:22.000Z</time>
|
|
</trkpt>
|
|
<trkpt lat="57.596319" lon="10.414980">
|
|
<ele>17.635325</ele>
|
|
<time>2026-07-17T15:35:23.000Z</time>
|
|
</trkpt>
|
|
<trkpt lat="57.596270" lon="10.414942">
|
|
<ele>17.647085</ele>
|
|
<time>2026-07-17T15:35:24.000Z</time>
|
|
</trkpt>
|
|
<trkpt lat="57.596220" lon="10.414904">
|
|
<ele>17.659051</ele>
|
|
<time>2026-07-17T15:35:25.000Z</time>
|
|
</trkpt>
|
|
<trkpt lat="57.596170" lon="10.414862">
|
|
<ele>17.668695</ele>
|
|
<time>2026-07-17T15:35:26.000Z</time>
|
|
</trkpt>
|
|
<trkpt lat="57.596122" lon="10.414819">
|
|
<ele>17.677302</ele>
|
|
<time>2026-07-17T15:35:27.000Z</time>
|
|
</trkpt>
|
|
<trkpt lat="57.596077" lon="10.414778">
|
|
<ele>17.685398</ele>
|
|
<time>2026-07-17T15:35:28.000Z</time>
|
|
</trkpt>
|
|
<trkpt lat="57.596031" lon="10.414738">
|
|
<ele>17.693602</ele>
|
|
<time>2026-07-17T15:35:29.000Z</time>
|
|
</trkpt>
|
|
<trkpt lat="57.595984" lon="10.414699">
|
|
<ele>17.701917</ele>
|
|
<time>2026-07-17T15:35:30.000Z</time>
|
|
</trkpt>
|
|
<trkpt lat="57.595934" lon="10.414662">
|
|
<ele>17.710612</ele>
|
|
<time>2026-07-17T15:35:31.000Z</time>
|
|
</trkpt>
|
|
<trkpt lat="57.595886" lon="10.414625">
|
|
<ele>17.719008</ele>
|
|
<time>2026-07-17T15:35:32.000Z</time>
|
|
</trkpt>
|
|
<trkpt lat="57.595839" lon="10.414587">
|
|
<ele>17.727289</ele>
|
|
<time>2026-07-17T15:35:33.000Z</time>
|
|
</trkpt>
|
|
<trkpt lat="57.595791" lon="10.414549">
|
|
<ele>17.735718</ele>
|
|
<time>2026-07-17T15:35:34.000Z</time>
|
|
</trkpt>
|
|
<trkpt lat="57.595745" lon="10.414516">
|
|
<ele>17.743685</ele>
|
|
<time>2026-07-17T15:35:35.000Z</time>
|
|
</trkpt>
|
|
<trkpt lat="57.595697" lon="10.414481">
|
|
<ele>17.752016</ele>
|
|
<time>2026-07-17T15:35:36.000Z</time>
|
|
</trkpt>
|
|
<trkpt lat="57.595650" lon="10.414445">
|
|
<ele>17.760229</ele>
|
|
<time>2026-07-17T15:35:37.000Z</time>
|
|
</trkpt>
|
|
<trkpt lat="57.595603" lon="10.414409">
|
|
<ele>17.768442</ele>
|
|
<time>2026-07-17T15:35:38.000Z</time>
|
|
</trkpt>
|
|
<trkpt lat="57.595553" lon="10.414372">
|
|
<ele>17.777137</ele>
|
|
<time>2026-07-17T15:35:39.000Z</time>
|
|
</trkpt>
|
|
<trkpt lat="57.595504" lon="10.414337">
|
|
<ele>17.785619</ele>
|
|
<time>2026-07-17T15:35:40.000Z</time>
|
|
</trkpt>
|
|
<trkpt lat="57.595454" lon="10.414300">
|
|
<ele>17.794315</ele>
|
|
<time>2026-07-17T15:35:41.000Z</time>
|
|
</trkpt>
|
|
<trkpt lat="57.595405" lon="10.414264">
|
|
<ele>17.802828</ele>
|
|
<time>2026-07-17T15:35:42.000Z</time>
|
|
</trkpt>
|
|
<trkpt lat="57.595357" lon="10.414228">
|
|
<ele>17.811191</ele>
|
|
<time>2026-07-17T15:35:43.000Z</time>
|
|
</trkpt>
|
|
<trkpt lat="57.595309" lon="10.414188">
|
|
<ele>17.819689</ele>
|
|
<time>2026-07-17T15:35:44.000Z</time>
|
|
</trkpt>
|
|
<trkpt lat="57.595264" lon="10.414146">
|
|
<ele>17.827823</ele>
|
|
<time>2026-07-17T15:35:45.000Z</time>
|
|
</trkpt>
|
|
<trkpt lat="57.595216" lon="10.414101">
|
|
<ele>17.836507</ele>
|
|
<time>2026-07-17T15:35:46.000Z</time>
|
|
</trkpt>
|
|
<trkpt lat="57.595171" lon="10.414055">
|
|
<ele>17.844802</ele>
|
|
<time>2026-07-17T15:35:47.000Z</time>
|
|
</trkpt>
|
|
<trkpt lat="57.595127" lon="10.414007">
|
|
<ele>17.853041</ele>
|
|
<time>2026-07-17T15:35:48.000Z</time>
|
|
</trkpt>
|
|
<trkpt lat="57.595084" lon="10.413951">
|
|
<ele>17.861518</ele>
|
|
<time>2026-07-17T15:35:49.000Z</time>
|
|
</trkpt>
|
|
<trkpt lat="57.595040" lon="10.413889">
|
|
<ele>17.870431</ele>
|
|
<time>2026-07-17T15:35:50.000Z</time>
|
|
</trkpt>
|
|
<trkpt lat="57.594994" lon="10.413827">
|
|
<ele>17.879605</ele>
|
|
<time>2026-07-17T15:35:51.000Z</time>
|
|
</trkpt>
|
|
<trkpt lat="57.594949" lon="10.413764">
|
|
<ele>17.888699</ele>
|
|
<time>2026-07-17T15:35:52.000Z</time>
|
|
</trkpt>
|
|
<trkpt lat="57.594909" lon="10.413701">
|
|
<ele>17.897161</ele>
|
|
<time>2026-07-17T15:35:53.000Z</time>
|
|
</trkpt>
|
|
<trkpt lat="57.594870" lon="10.413641">
|
|
<ele>17.905332</ele>
|
|
<time>2026-07-17T15:35:54.000Z</time>
|
|
</trkpt>
|
|
<trkpt lat="57.594830" lon="10.413581">
|
|
<ele>17.913629</ele>
|
|
<time>2026-07-17T15:35:55.000Z</time>
|
|
</trkpt>
|
|
<trkpt lat="57.594790" lon="10.413520">
|
|
<ele>17.921980</ele>
|
|
<time>2026-07-17T15:35:56.000Z</time>
|
|
</trkpt>
|
|
<trkpt lat="57.594750" lon="10.413458">
|
|
<ele>17.930386</ele>
|
|
<time>2026-07-17T15:35:57.000Z</time>
|
|
</trkpt>
|
|
<trkpt lat="57.594710" lon="10.413398">
|
|
<ele>17.938683</ele>
|
|
<time>2026-07-17T15:35:58.000Z</time>
|
|
</trkpt>
|
|
<trkpt lat="57.594668" lon="10.413340">
|
|
<ele>17.947130</ele>
|
|
<time>2026-07-17T15:35:59.000Z</time>
|
|
</trkpt>
|
|
<trkpt lat="57.594625" lon="10.413285">
|
|
<ele>17.956611</ele>
|
|
<time>2026-07-17T15:36:00.000Z</time>
|
|
</trkpt>
|
|
<trkpt lat="57.594581" lon="10.413231">
|
|
<ele>17.968264</ele>
|
|
<time>2026-07-17T15:36:01.000Z</time>
|
|
</trkpt>
|
|
<trkpt lat="57.594540" lon="10.413177">
|
|
<ele>17.979369</ele>
|
|
<time>2026-07-17T15:36:02.000Z</time>
|
|
</trkpt>
|
|
<trkpt lat="57.594497" lon="10.413122">
|
|
<ele>17.990905</ele>
|
|
<time>2026-07-17T15:36:03.000Z</time>
|
|
</trkpt>
|
|
<trkpt lat="57.594452" lon="10.413073">
|
|
<ele>18.002435</ele>
|
|
<time>2026-07-17T15:36:04.000Z</time>
|
|
</trkpt>
|
|
<trkpt lat="57.594409" lon="10.413033">
|
|
<ele>18.013067</ele>
|
|
<time>2026-07-17T15:36:05.000Z</time>
|
|
</trkpt>
|
|
<trkpt lat="57.594365" lon="10.412996">
|
|
<ele>18.023746</ele>
|
|
<time>2026-07-17T15:36:06.000Z</time>
|
|
</trkpt>
|
|
<trkpt lat="57.594321" lon="10.412962">
|
|
<ele>18.034284</ele>
|
|
<time>2026-07-17T15:36:07.000Z</time>
|
|
</trkpt>
|
|
<trkpt lat="57.594279" lon="10.412928">
|
|
<ele>18.044415</ele>
|
|
<time>2026-07-17T15:36:08.000Z</time>
|
|
</trkpt>
|
|
<trkpt lat="57.594233" lon="10.412892">
|
|
<ele>18.055453</ele>
|
|
<time>2026-07-17T15:36:09.000Z</time>
|
|
</trkpt>
|
|
<trkpt lat="57.594184" lon="10.412849">
|
|
<ele>18.067435</ele>
|
|
<time>2026-07-17T15:36:10.000Z</time>
|
|
</trkpt>
|
|
<trkpt lat="57.594136" lon="10.412806">
|
|
<ele>18.079218</ele>
|
|
<time>2026-07-17T15:36:11.000Z</time>
|
|
</trkpt>
|
|
<trkpt lat="57.594085" lon="10.412761">
|
|
<ele>18.091701</ele>
|
|
<time>2026-07-17T15:36:12.000Z</time>
|
|
</trkpt>
|
|
<trkpt lat="57.594035" lon="10.412720">
|
|
<ele>18.103787</ele>
|
|
<time>2026-07-17T15:36:13.000Z</time>
|
|
</trkpt>
|
|
<trkpt lat="57.593986" lon="10.412686">
|
|
<ele>18.115355</ele>
|
|
<time>2026-07-17T15:36:14.000Z</time>
|
|
</trkpt>
|
|
<trkpt lat="57.593935" lon="10.412655">
|
|
<ele>18.127224</ele>
|
|
<time>2026-07-17T15:36:15.000Z</time>
|
|
</trkpt>
|
|
<trkpt lat="57.593882" lon="10.412625">
|
|
<ele>18.139480</ele>
|
|
<time>2026-07-17T15:36:16.000Z</time>
|
|
</trkpt>
|
|
<trkpt lat="57.593830" lon="10.412596">
|
|
<ele>18.151489</ele>
|
|
<time>2026-07-17T15:36:17.000Z</time>
|
|
</trkpt>
|
|
<trkpt lat="57.593784" lon="10.412572">
|
|
<ele>18.162059</ele>
|
|
<time>2026-07-17T15:36:18.000Z</time>
|
|
</trkpt>
|
|
<trkpt lat="57.593738" lon="10.412550">
|
|
<ele>18.172567</ele>
|
|
<time>2026-07-17T15:36:19.000Z</time>
|
|
</trkpt>
|
|
<trkpt lat="57.593695" lon="10.412527">
|
|
<ele>18.182465</ele>
|
|
<time>2026-07-17T15:36:20.000Z</time>
|
|
</trkpt>
|
|
<trkpt lat="57.593648" lon="10.412501">
|
|
<ele>18.193313</ele>
|
|
<time>2026-07-17T15:36:21.000Z</time>
|
|
</trkpt>
|
|
<trkpt lat="57.593606" lon="10.412472">
|
|
<ele>18.203223</ele>
|
|
<time>2026-07-17T15:36:22.000Z</time>
|
|
</trkpt>
|
|
<trkpt lat="57.593572" lon="10.412442">
|
|
<ele>18.211545</ele>
|
|
<time>2026-07-17T15:36:23.000Z</time>
|
|
</trkpt>
|
|
<trkpt lat="57.593539" lon="10.412401">
|
|
<ele>18.220318</ele>
|
|
<time>2026-07-17T15:36:24.000Z</time>
|
|
</trkpt>
|
|
<trkpt lat="57.593510" lon="10.412356">
|
|
<ele>18.228665</ele>
|
|
<time>2026-07-17T15:36:25.000Z</time>
|
|
</trkpt>
|
|
<trkpt lat="57.593485" lon="10.412312">
|
|
<ele>18.236269</ele>
|
|
<time>2026-07-17T15:36:26.000Z</time>
|
|
</trkpt>
|
|
<trkpt lat="57.593456" lon="10.412277">
|
|
<ele>18.243912</ele>
|
|
<time>2026-07-17T15:36:27.000Z</time>
|
|
</trkpt>
|
|
<trkpt lat="57.593419" lon="10.412264">
|
|
<ele>18.252243</ele>
|
|
<time>2026-07-17T15:36:28.000Z</time>
|
|
</trkpt>
|
|
<trkpt lat="57.593384" lon="10.412278">
|
|
<ele>18.260164</ele>
|
|
<time>2026-07-17T15:36:29.000Z</time>
|
|
</trkpt>
|
|
<trkpt lat="57.593348" lon="10.412314">
|
|
<ele>18.269202</ele>
|
|
<time>2026-07-17T15:36:30.000Z</time>
|
|
</trkpt>
|
|
<trkpt lat="57.593313" lon="10.412362">
|
|
<ele>18.278814</ele>
|
|
<time>2026-07-17T15:36:31.000Z</time>
|
|
</trkpt>
|
|
<trkpt lat="57.593277" lon="10.412411">
|
|
<ele>18.288674</ele>
|
|
<time>2026-07-17T15:36:32.000Z</time>
|
|
</trkpt>
|
|
<trkpt lat="57.593239" lon="10.412451">
|
|
<ele>18.298329</ele>
|
|
<time>2026-07-17T15:36:33.000Z</time>
|
|
</trkpt>
|
|
<trkpt lat="57.593199" lon="10.412472">
|
|
<ele>18.307524</ele>
|
|
<time>2026-07-17T15:36:34.000Z</time>
|
|
</trkpt>
|
|
<trkpt lat="57.593158" lon="10.412485">
|
|
<ele>18.316727</ele>
|
|
<time>2026-07-17T15:36:35.000Z</time>
|
|
</trkpt>
|
|
<trkpt lat="57.593118" lon="10.412495">
|
|
<ele>18.325657</ele>
|
|
<time>2026-07-17T15:36:36.000Z</time>
|
|
</trkpt>
|
|
<trkpt lat="57.593081" lon="10.412502">
|
|
<ele>18.333886</ele>
|
|
<time>2026-07-17T15:36:37.000Z</time>
|
|
</trkpt>
|
|
<trkpt lat="57.593048" lon="10.412506">
|
|
<ele>18.341204</ele>
|
|
<time>2026-07-17T15:36:38.000Z</time>
|
|
</trkpt>
|
|
<trkpt lat="57.593019" lon="10.412511">
|
|
<ele>18.347649</ele>
|
|
<time>2026-07-17T15:36:39.000Z</time>
|
|
</trkpt>
|
|
<trkpt lat="57.592992" lon="10.412521">
|
|
<ele>18.349364</ele>
|
|
<time>2026-07-17T15:36:40.000Z</time>
|
|
</trkpt>
|
|
<trkpt lat="57.592966" lon="10.412532">
|
|
<ele>18.346740</ele>
|
|
<time>2026-07-17T15:36:41.000Z</time>
|
|
</trkpt>
|
|
<trkpt lat="57.592943" lon="10.412538">
|
|
<ele>18.344454</ele>
|
|
<time>2026-07-17T15:36:42.000Z</time>
|
|
</trkpt>
|
|
<trkpt lat="57.592920" lon="10.412527">
|
|
<ele>18.342116</ele>
|
|
<time>2026-07-17T15:36:43.000Z</time>
|
|
</trkpt>
|
|
<trkpt lat="57.592902" lon="10.412501">
|
|
<ele>18.339875</ele>
|
|
<time>2026-07-17T15:36:44.000Z</time>
|
|
</trkpt>
|
|
<trkpt lat="57.592894" lon="10.412465">
|
|
<ele>18.337819</ele>
|
|
<time>2026-07-17T15:36:45.000Z</time>
|
|
</trkpt>
|
|
<trkpt lat="57.592890" lon="10.412429">
|
|
<ele>18.335880</ele>
|
|
<time>2026-07-17T15:36:46.000Z</time>
|
|
</trkpt>
|
|
<trkpt lat="57.592888" lon="10.412394">
|
|
<ele>18.334023</ele>
|
|
<time>2026-07-17T15:36:47.000Z</time>
|
|
</trkpt>
|
|
<trkpt lat="57.592889" lon="10.412362">
|
|
<ele>18.332332</ele>
|
|
<time>2026-07-17T15:36:48.000Z</time>
|
|
</trkpt>
|
|
<trkpt lat="57.592893" lon="10.412342">
|
|
<ele>18.331205</ele>
|
|
<time>2026-07-17T15:36:49.000Z</time>
|
|
</trkpt>
|
|
<trkpt lat="57.592899" lon="10.412328">
|
|
<ele>18.330260</ele>
|
|
<time>2026-07-17T15:36:50.000Z</time>
|
|
</trkpt>
|
|
<trkpt lat="57.592961" lon="10.412380">
|
|
<ele>18.323568</ele>
|
|
<time>2026-07-17T16:01:17.000Z</time>
|
|
</trkpt>
|
|
<trkpt lat="57.592952" lon="10.412380">
|
|
<ele>18.322682</ele>
|
|
<time>2026-07-17T16:01:18.000Z</time>
|
|
</trkpt>
|
|
<trkpt lat="57.592940" lon="10.412378">
|
|
<ele>18.321496</ele>
|
|
<time>2026-07-17T16:01:19.000Z</time>
|
|
</trkpt>
|
|
<trkpt lat="57.592929" lon="10.412375">
|
|
<ele>18.320402</ele>
|
|
<time>2026-07-17T16:01:20.000Z</time>
|
|
</trkpt>
|
|
<trkpt lat="57.592918" lon="10.412376">
|
|
<ele>18.319318</ele>
|
|
<time>2026-07-17T16:01:21.000Z</time>
|
|
</trkpt>
|
|
<trkpt lat="57.592908" lon="10.412379">
|
|
<ele>18.318321</ele>
|
|
<time>2026-07-17T16:01:22.000Z</time>
|
|
</trkpt>
|
|
<trkpt lat="57.592898" lon="10.412384">
|
|
<ele>18.317302</ele>
|
|
<time>2026-07-17T16:01:23.000Z</time>
|
|
</trkpt>
|
|
<trkpt lat="57.592889" lon="10.412388">
|
|
<ele>18.316391</ele>
|
|
<time>2026-07-17T16:01:24.000Z</time>
|
|
</trkpt>
|
|
<trkpt lat="57.592879" lon="10.412392">
|
|
<ele>18.315384</ele>
|
|
<time>2026-07-17T16:01:25.000Z</time>
|
|
</trkpt>
|
|
<trkpt lat="57.592868" lon="10.412398">
|
|
<ele>18.314256</ele>
|
|
<time>2026-07-17T16:01:26.000Z</time>
|
|
</trkpt>
|
|
<trkpt lat="57.592858" lon="10.412407">
|
|
<ele>18.313163</ele>
|
|
<time>2026-07-17T16:01:27.000Z</time>
|
|
</trkpt>
|
|
<trkpt lat="57.592852" lon="10.412418">
|
|
<ele>18.312335</ele>
|
|
<time>2026-07-17T16:01:28.000Z</time>
|
|
</trkpt>
|
|
<trkpt lat="57.592848" lon="10.412422">
|
|
<ele>18.311888</ele>
|
|
<time>2026-07-17T16:01:29.000Z</time>
|
|
</trkpt>
|
|
<trkpt lat="57.592844" lon="10.412419">
|
|
<ele>18.311464</ele>
|
|
<time>2026-07-17T16:01:30.000Z</time>
|
|
</trkpt>
|
|
<trkpt lat="57.592842" lon="10.412418">
|
|
<ele>18.311260</ele>
|
|
<time>2026-07-17T16:01:31.000Z</time>
|
|
</trkpt>
|
|
<trkpt lat="57.592836" lon="10.412428">
|
|
<ele>18.310468</ele>
|
|
<time>2026-07-17T16:01:33.000Z</time>
|
|
</trkpt>
|
|
<trkpt lat="57.592825" lon="10.412452">
|
|
<ele>18.308802</ele>
|
|
<time>2026-07-17T16:01:34.000Z</time>
|
|
</trkpt>
|
|
<trkpt lat="57.592820" lon="10.412481">
|
|
<ele>18.307195</ele>
|
|
<time>2026-07-17T16:01:35.000Z</time>
|
|
</trkpt>
|
|
<trkpt lat="57.592812" lon="10.412516">
|
|
<ele>18.305188</ele>
|
|
<time>2026-07-17T16:01:36.000Z</time>
|
|
</trkpt>
|
|
<trkpt lat="57.592803" lon="10.412550">
|
|
<ele>18.303187</ele>
|
|
<time>2026-07-17T16:01:37.000Z</time>
|
|
</trkpt>
|
|
<trkpt lat="57.592787" lon="10.412579">
|
|
<ele>18.300991</ele>
|
|
<time>2026-07-17T16:01:38.000Z</time>
|
|
</trkpt>
|
|
<trkpt lat="57.592761" lon="10.412603">
|
|
<ele>18.298136</ele>
|
|
<time>2026-07-17T16:01:39.000Z</time>
|
|
</trkpt>
|
|
<trkpt lat="57.592729" lon="10.412622">
|
|
<ele>18.294830</ele>
|
|
<time>2026-07-17T16:01:40.000Z</time>
|
|
</trkpt>
|
|
<trkpt lat="57.592694" lon="10.412641">
|
|
<ele>18.291242</ele>
|
|
<time>2026-07-17T16:01:41.000Z</time>
|
|
</trkpt>
|
|
<trkpt lat="57.592660" lon="10.412659">
|
|
<ele>18.287763</ele>
|
|
<time>2026-07-17T16:01:42.000Z</time>
|
|
</trkpt>
|
|
<trkpt lat="57.592626" lon="10.412676">
|
|
<ele>18.284298</ele>
|
|
<time>2026-07-17T16:01:43.000Z</time>
|
|
</trkpt>
|
|
<trkpt lat="57.592594" lon="10.412694">
|
|
<ele>18.281008</ele>
|
|
<time>2026-07-17T16:01:44.000Z</time>
|
|
</trkpt>
|
|
<trkpt lat="57.592561" lon="10.412712">
|
|
<ele>18.277623</ele>
|
|
<time>2026-07-17T16:01:45.000Z</time>
|
|
</trkpt>
|
|
<trkpt lat="57.592528" lon="10.412727">
|
|
<ele>18.274280</ele>
|
|
<time>2026-07-17T16:01:46.000Z</time>
|
|
</trkpt>
|
|
<trkpt lat="57.592496" lon="10.412741">
|
|
<ele>18.271044</ele>
|
|
<time>2026-07-17T16:01:47.000Z</time>
|
|
</trkpt>
|
|
<trkpt lat="57.592463" lon="10.412757">
|
|
<ele>18.267688</ele>
|
|
<time>2026-07-17T16:01:48.000Z</time>
|
|
</trkpt>
|
|
<trkpt lat="57.592431" lon="10.412773">
|
|
<ele>18.264426</ele>
|
|
<time>2026-07-17T16:01:49.000Z</time>
|
|
</trkpt>
|
|
<trkpt lat="57.592397" lon="10.412791">
|
|
<ele>18.260947</ele>
|
|
<time>2026-07-17T16:01:50.000Z</time>
|
|
</trkpt>
|
|
<trkpt lat="57.592361" lon="10.412809">
|
|
<ele>18.257279</ele>
|
|
<time>2026-07-17T16:01:51.000Z</time>
|
|
</trkpt>
|
|
<trkpt lat="57.592323" lon="10.412828">
|
|
<ele>18.253406</ele>
|
|
<time>2026-07-17T16:01:52.000Z</time>
|
|
</trkpt>
|
|
<trkpt lat="57.592284" lon="10.412849">
|
|
<ele>18.249410</ele>
|
|
<time>2026-07-17T16:01:53.000Z</time>
|
|
</trkpt>
|
|
<trkpt lat="57.592245" lon="10.412870">
|
|
<ele>18.245414</ele>
|
|
<time>2026-07-17T16:01:54.000Z</time>
|
|
</trkpt>
|
|
<trkpt lat="57.592204" lon="10.412891">
|
|
<ele>18.241229</ele>
|
|
<time>2026-07-17T16:01:55.000Z</time>
|
|
</trkpt>
|
|
<trkpt lat="57.592164" lon="10.412911">
|
|
<ele>18.237152</ele>
|
|
<time>2026-07-17T16:01:56.000Z</time>
|
|
</trkpt>
|
|
<trkpt lat="57.592123" lon="10.412928">
|
|
<ele>18.233018</ele>
|
|
<time>2026-07-17T16:01:57.000Z</time>
|
|
</trkpt>
|
|
<trkpt lat="57.592079" lon="10.412942">
|
|
<ele>18.228624</ele>
|
|
<time>2026-07-17T16:01:58.000Z</time>
|
|
</trkpt>
|
|
<trkpt lat="57.592034" lon="10.412954">
|
|
<ele>18.224149</ele>
|
|
<time>2026-07-17T16:01:59.000Z</time>
|
|
</trkpt>
|
|
<trkpt lat="57.591993" lon="10.412964">
|
|
<ele>18.220079</ele>
|
|
<time>2026-07-17T16:02:00.000Z</time>
|
|
</trkpt>
|
|
<trkpt lat="57.591949" lon="10.412972">
|
|
<ele>18.215727</ele>
|
|
<time>2026-07-17T16:02:01.000Z</time>
|
|
</trkpt>
|
|
<trkpt lat="57.591896" lon="10.412981">
|
|
<ele>18.210488</ele>
|
|
<time>2026-07-17T16:02:02.000Z</time>
|
|
</trkpt>
|
|
<trkpt lat="57.591848" lon="10.412988">
|
|
<ele>18.205749</ele>
|
|
<time>2026-07-17T16:02:03.000Z</time>
|
|
</trkpt>
|
|
<trkpt lat="57.591799" lon="10.412994">
|
|
<ele>18.200915</ele>
|
|
<time>2026-07-17T16:02:04.000Z</time>
|
|
</trkpt>
|
|
<trkpt lat="57.591751" lon="10.413000">
|
|
<ele>18.196179</ele>
|
|
<time>2026-07-17T16:02:05.000Z</time>
|
|
</trkpt>
|
|
<trkpt lat="57.591703" lon="10.413004">
|
|
<ele>18.191449</ele>
|
|
<time>2026-07-17T16:02:06.000Z</time>
|
|
</trkpt>
|
|
<trkpt lat="57.591656" lon="10.413005">
|
|
<ele>18.186822</ele>
|
|
<time>2026-07-17T16:02:07.000Z</time>
|
|
</trkpt>
|
|
<trkpt lat="57.591608" lon="10.413006">
|
|
<ele>18.182097</ele>
|
|
<time>2026-07-17T16:02:08.000Z</time>
|
|
</trkpt>
|
|
<trkpt lat="57.591558" lon="10.413006">
|
|
<ele>18.177175</ele>
|
|
<time>2026-07-17T16:02:09.000Z</time>
|
|
</trkpt>
|
|
<trkpt lat="57.591511" lon="10.413004">
|
|
<ele>18.172693</ele>
|
|
<time>2026-07-17T16:02:10.000Z</time>
|
|
</trkpt>
|
|
<trkpt lat="57.591464" lon="10.412999">
|
|
<ele>18.168670</ele>
|
|
<time>2026-07-17T16:02:11.000Z</time>
|
|
</trkpt>
|
|
<trkpt lat="57.591414" lon="10.412990">
|
|
<ele>18.164377</ele>
|
|
<time>2026-07-17T16:02:12.000Z</time>
|
|
</trkpt>
|
|
<trkpt lat="57.591366" lon="10.412981">
|
|
<ele>18.160255</ele>
|
|
<time>2026-07-17T16:02:13.000Z</time>
|
|
</trkpt>
|
|
<trkpt lat="57.591316" lon="10.412976">
|
|
<ele>18.155976</ele>
|
|
<time>2026-07-17T16:02:14.000Z</time>
|
|
</trkpt>
|
|
<trkpt lat="57.591262" lon="10.412973">
|
|
<ele>18.151359</ele>
|
|
<time>2026-07-17T16:02:15.000Z</time>
|
|
</trkpt>
|
|
<trkpt lat="57.591212" lon="10.412973">
|
|
<ele>18.147087</ele>
|
|
<time>2026-07-17T16:02:16.000Z</time>
|
|
</trkpt>
|
|
<trkpt lat="57.591162" lon="10.412975">
|
|
<ele>18.142813</ele>
|
|
<time>2026-07-17T16:02:17.000Z</time>
|
|
</trkpt>
|
|
<trkpt lat="57.591112" lon="10.412977">
|
|
<ele>18.138539</ele>
|
|
<time>2026-07-17T16:02:18.000Z</time>
|
|
</trkpt>
|
|
<trkpt lat="57.591063" lon="10.412977">
|
|
<ele>18.134352</ele>
|
|
<time>2026-07-17T16:02:19.000Z</time>
|
|
</trkpt>
|
|
<trkpt lat="57.591013" lon="10.412976">
|
|
<ele>18.130079</ele>
|
|
<time>2026-07-17T16:02:20.000Z</time>
|
|
</trkpt>
|
|
<trkpt lat="57.590964" lon="10.412975">
|
|
<ele>18.125891</ele>
|
|
<time>2026-07-17T16:02:21.000Z</time>
|
|
</trkpt>
|
|
<trkpt lat="57.590915" lon="10.412973">
|
|
<ele>18.121703</ele>
|
|
<time>2026-07-17T16:02:22.000Z</time>
|
|
</trkpt>
|
|
<trkpt lat="57.590864" lon="10.412975">
|
|
<ele>18.117344</ele>
|
|
<time>2026-07-17T16:02:23.000Z</time>
|
|
</trkpt>
|
|
<trkpt lat="57.590813" lon="10.412977">
|
|
<ele>18.112985</ele>
|
|
<time>2026-07-17T16:02:24.000Z</time>
|
|
</trkpt>
|
|
<trkpt lat="57.590765" lon="10.412977">
|
|
<ele>18.108883</ele>
|
|
<time>2026-07-17T16:02:25.000Z</time>
|
|
</trkpt>
|
|
<trkpt lat="57.590713" lon="10.412974">
|
|
<ele>18.104437</ele>
|
|
<time>2026-07-17T16:02:26.000Z</time>
|
|
</trkpt>
|
|
<trkpt lat="57.590662" lon="10.412970">
|
|
<ele>18.100075</ele>
|
|
<time>2026-07-17T16:02:27.000Z</time>
|
|
</trkpt>
|
|
<trkpt lat="57.590611" lon="10.412967">
|
|
<ele>18.095715</ele>
|
|
<time>2026-07-17T16:02:28.000Z</time>
|
|
</trkpt>
|
|
<trkpt lat="57.590558" lon="10.412964">
|
|
<ele>18.091184</ele>
|
|
<time>2026-07-17T16:02:29.000Z</time>
|
|
</trkpt>
|
|
<trkpt lat="57.590506" lon="10.412963">
|
|
<ele>18.086740</ele>
|
|
<time>2026-07-17T16:02:30.000Z</time>
|
|
</trkpt>
|
|
<trkpt lat="57.590456" lon="10.412961">
|
|
<ele>18.082466</ele>
|
|
<time>2026-07-17T16:02:31.000Z</time>
|
|
</trkpt>
|
|
<trkpt lat="57.590405" lon="10.412959">
|
|
<ele>18.078107</ele>
|
|
<time>2026-07-17T16:02:32.000Z</time>
|
|
</trkpt>
|
|
<trkpt lat="57.590353" lon="10.412958">
|
|
<ele>18.073663</ele>
|
|
<time>2026-07-17T16:02:33.000Z</time>
|
|
</trkpt>
|
|
<trkpt lat="57.590302" lon="10.412957">
|
|
<ele>18.069304</ele>
|
|
<time>2026-07-17T16:02:34.000Z</time>
|
|
</trkpt>
|
|
<trkpt lat="57.590250" lon="10.412956">
|
|
<ele>18.064861</ele>
|
|
<time>2026-07-17T16:02:35.000Z</time>
|
|
</trkpt>
|
|
<trkpt lat="57.590200" lon="10.412954">
|
|
<ele>18.060587</ele>
|
|
<time>2026-07-17T16:02:36.000Z</time>
|
|
</trkpt>
|
|
<trkpt lat="57.590149" lon="10.412952">
|
|
<ele>18.056228</ele>
|
|
<time>2026-07-17T16:02:37.000Z</time>
|
|
</trkpt>
|
|
<trkpt lat="57.590098" lon="10.412952">
|
|
<ele>18.051869</ele>
|
|
<time>2026-07-17T16:02:38.000Z</time>
|
|
</trkpt>
|
|
<trkpt lat="57.590047" lon="10.412948">
|
|
<ele>18.047507</ele>
|
|
<time>2026-07-17T16:02:39.000Z</time>
|
|
</trkpt>
|
|
<trkpt lat="57.589994" lon="10.412945">
|
|
<ele>18.042976</ele>
|
|
<time>2026-07-17T16:02:40.000Z</time>
|
|
</trkpt>
|
|
<trkpt lat="57.589945" lon="10.412940">
|
|
<ele>18.038783</ele>
|
|
<time>2026-07-17T16:02:41.000Z</time>
|
|
</trkpt>
|
|
<trkpt lat="57.589896" lon="10.412936">
|
|
<ele>18.034591</ele>
|
|
<time>2026-07-17T16:02:42.000Z</time>
|
|
</trkpt>
|
|
<trkpt lat="57.589846" lon="10.412934">
|
|
<ele>18.030318</ele>
|
|
<time>2026-07-17T16:02:43.000Z</time>
|
|
</trkpt>
|
|
<trkpt lat="57.589796" lon="10.412930">
|
|
<ele>18.026041</ele>
|
|
<time>2026-07-17T16:02:44.000Z</time>
|
|
</trkpt>
|
|
<trkpt lat="57.589747" lon="10.412927">
|
|
<ele>18.021851</ele>
|
|
<time>2026-07-17T16:02:45.000Z</time>
|
|
</trkpt>
|
|
<trkpt lat="57.589697" lon="10.412924">
|
|
<ele>18.023678</ele>
|
|
<time>2026-07-17T16:02:46.000Z</time>
|
|
</trkpt>
|
|
<trkpt lat="57.589645" lon="10.412923">
|
|
<ele>18.030655</ele>
|
|
<time>2026-07-17T16:02:47.000Z</time>
|
|
</trkpt>
|
|
<trkpt lat="57.589594" lon="10.412923">
|
|
<ele>18.037497</ele>
|
|
<time>2026-07-17T16:02:48.000Z</time>
|
|
</trkpt>
|
|
<trkpt lat="57.589543" lon="10.412922">
|
|
<ele>18.044339</ele>
|
|
<time>2026-07-17T16:02:49.000Z</time>
|
|
</trkpt>
|
|
<trkpt lat="57.589492" lon="10.412922">
|
|
<ele>18.051181</ele>
|
|
<time>2026-07-17T16:02:50.000Z</time>
|
|
</trkpt>
|
|
<trkpt lat="57.589442" lon="10.412920">
|
|
<ele>18.057891</ele>
|
|
<time>2026-07-17T16:02:51.000Z</time>
|
|
</trkpt>
|
|
<trkpt lat="57.589390" lon="10.412917">
|
|
<ele>18.064871</ele>
|
|
<time>2026-07-17T16:02:52.000Z</time>
|
|
</trkpt>
|
|
<trkpt lat="57.589339" lon="10.412914">
|
|
<ele>18.071716</ele>
|
|
<time>2026-07-17T16:02:53.000Z</time>
|
|
</trkpt>
|
|
<trkpt lat="57.589288" lon="10.412912">
|
|
<ele>18.078560</ele>
|
|
<time>2026-07-17T16:02:54.000Z</time>
|
|
</trkpt>
|
|
<trkpt lat="57.589235" lon="10.412910">
|
|
<ele>18.085672</ele>
|
|
<time>2026-07-17T16:02:55.000Z</time>
|
|
</trkpt>
|
|
<trkpt lat="57.589184" lon="10.412908">
|
|
<ele>18.092516</ele>
|
|
<time>2026-07-17T16:02:56.000Z</time>
|
|
</trkpt>
|
|
<trkpt lat="57.589131" lon="10.412905">
|
|
<ele>18.099629</ele>
|
|
<time>2026-07-17T16:02:57.000Z</time>
|
|
</trkpt>
|
|
<trkpt lat="57.589079" lon="10.412901">
|
|
<ele>18.106612</ele>
|
|
<time>2026-07-17T16:02:58.000Z</time>
|
|
</trkpt>
|
|
<trkpt lat="57.589031" lon="10.412896">
|
|
<ele>18.113061</ele>
|
|
<time>2026-07-17T16:02:59.000Z</time>
|
|
</trkpt>
|
|
<trkpt lat="57.588983" lon="10.412893">
|
|
<ele>18.119505</ele>
|
|
<time>2026-07-17T16:03:00.000Z</time>
|
|
</trkpt>
|
|
<trkpt lat="57.588926" lon="10.412891">
|
|
<ele>18.127153</ele>
|
|
<time>2026-07-17T16:03:01.000Z</time>
|
|
</trkpt>
|
|
<trkpt lat="57.588875" lon="10.412891">
|
|
<ele>18.133995</ele>
|
|
<time>2026-07-17T16:03:02.000Z</time>
|
|
</trkpt>
|
|
<trkpt lat="57.588823" lon="10.412892">
|
|
<ele>18.140972</ele>
|
|
<time>2026-07-17T16:03:03.000Z</time>
|
|
</trkpt>
|
|
<trkpt lat="57.588774" lon="10.412892">
|
|
<ele>18.147546</ele>
|
|
<time>2026-07-17T16:03:04.000Z</time>
|
|
</trkpt>
|
|
<trkpt lat="57.588725" lon="10.412891">
|
|
<ele>18.154120</ele>
|
|
<time>2026-07-17T16:03:05.000Z</time>
|
|
</trkpt>
|
|
<trkpt lat="57.588676" lon="10.412890">
|
|
<ele>18.160694</ele>
|
|
<time>2026-07-17T16:03:06.000Z</time>
|
|
</trkpt>
|
|
<trkpt lat="57.588625" lon="10.412888">
|
|
<ele>18.167538</ele>
|
|
<time>2026-07-17T16:03:07.000Z</time>
|
|
</trkpt>
|
|
<trkpt lat="57.588572" lon="10.412886">
|
|
<ele>18.174650</ele>
|
|
<time>2026-07-17T16:03:08.000Z</time>
|
|
</trkpt>
|
|
<trkpt lat="57.588522" lon="10.412883">
|
|
<ele>18.181361</ele>
|
|
<time>2026-07-17T16:03:09.000Z</time>
|
|
</trkpt>
|
|
<trkpt lat="57.588470" lon="10.412881">
|
|
<ele>18.188339</ele>
|
|
<time>2026-07-17T16:03:10.000Z</time>
|
|
</trkpt>
|
|
<trkpt lat="57.588417" lon="10.412879">
|
|
<ele>18.195451</ele>
|
|
<time>2026-07-17T16:03:11.000Z</time>
|
|
</trkpt>
|
|
<trkpt lat="57.588366" lon="10.412877">
|
|
<ele>18.202295</ele>
|
|
<time>2026-07-17T16:03:12.000Z</time>
|
|
</trkpt>
|
|
<trkpt lat="57.588316" lon="10.412873">
|
|
<ele>18.209009</ele>
|
|
<time>2026-07-17T16:03:13.000Z</time>
|
|
</trkpt>
|
|
<trkpt lat="57.588264" lon="10.412869">
|
|
<ele>18.215991</ele>
|
|
<time>2026-07-17T16:03:14.000Z</time>
|
|
</trkpt>
|
|
<trkpt lat="57.588211" lon="10.412865">
|
|
<ele>18.223108</ele>
|
|
<time>2026-07-17T16:03:15.000Z</time>
|
|
</trkpt>
|
|
<trkpt lat="57.588160" lon="10.412862">
|
|
<ele>18.229953</ele>
|
|
<time>2026-07-17T16:03:16.000Z</time>
|
|
</trkpt>
|
|
<trkpt lat="57.588109" lon="10.412858">
|
|
<ele>18.236801</ele>
|
|
<time>2026-07-17T16:03:17.000Z</time>
|
|
</trkpt>
|
|
<trkpt lat="57.588057" lon="10.412854">
|
|
<ele>18.243784</ele>
|
|
<time>2026-07-17T16:03:18.000Z</time>
|
|
</trkpt>
|
|
<trkpt lat="57.588008" lon="10.412850">
|
|
<ele>18.250364</ele>
|
|
<time>2026-07-17T16:03:19.000Z</time>
|
|
</trkpt>
|
|
<trkpt lat="57.587958" lon="10.412848">
|
|
<ele>18.257073</ele>
|
|
<time>2026-07-17T16:03:20.000Z</time>
|
|
</trkpt>
|
|
<trkpt lat="57.587903" lon="10.412845">
|
|
<ele>18.262930</ele>
|
|
<time>2026-07-17T16:03:21.000Z</time>
|
|
</trkpt>
|
|
<trkpt lat="57.587849" lon="10.412841">
|
|
<ele>18.266722</ele>
|
|
<time>2026-07-17T16:03:22.000Z</time>
|
|
</trkpt>
|
|
<trkpt lat="57.587797" lon="10.412837">
|
|
<ele>18.270373</ele>
|
|
<time>2026-07-17T16:03:23.000Z</time>
|
|
</trkpt>
|
|
<trkpt lat="57.587746" lon="10.412834">
|
|
<ele>18.273954</ele>
|
|
<time>2026-07-17T16:03:24.000Z</time>
|
|
</trkpt>
|
|
<trkpt lat="57.587694" lon="10.412830">
|
|
<ele>18.277605</ele>
|
|
<time>2026-07-17T16:03:25.000Z</time>
|
|
</trkpt>
|
|
<trkpt lat="57.587644" lon="10.412828">
|
|
<ele>18.281114</ele>
|
|
<time>2026-07-17T16:03:26.000Z</time>
|
|
</trkpt>
|
|
<trkpt lat="57.587593" lon="10.412826">
|
|
<ele>18.284693</ele>
|
|
<time>2026-07-17T16:03:27.000Z</time>
|
|
</trkpt>
|
|
<trkpt lat="57.587542" lon="10.412824">
|
|
<ele>18.288273</ele>
|
|
<time>2026-07-17T16:03:28.000Z</time>
|
|
</trkpt>
|
|
<trkpt lat="57.587492" lon="10.412823">
|
|
<ele>18.291781</ele>
|
|
<time>2026-07-17T16:03:29.000Z</time>
|
|
</trkpt>
|
|
<trkpt lat="57.587443" lon="10.412822">
|
|
<ele>18.295219</ele>
|
|
<time>2026-07-17T16:03:30.000Z</time>
|
|
</trkpt>
|
|
<trkpt lat="57.587394" lon="10.412822">
|
|
<ele>18.298658</ele>
|
|
<time>2026-07-17T16:03:31.000Z</time>
|
|
</trkpt>
|
|
<trkpt lat="57.587345" lon="10.412823">
|
|
<ele>18.302096</ele>
|
|
<time>2026-07-17T16:03:32.000Z</time>
|
|
</trkpt>
|
|
<trkpt lat="57.587296" lon="10.412823">
|
|
<ele>18.305534</ele>
|
|
<time>2026-07-17T16:03:33.000Z</time>
|
|
</trkpt>
|
|
<trkpt lat="57.587246" lon="10.412820">
|
|
<ele>18.309044</ele>
|
|
<time>2026-07-17T16:03:34.000Z</time>
|
|
</trkpt>
|
|
<trkpt lat="57.587198" lon="10.412816">
|
|
<ele>18.312415</ele>
|
|
<time>2026-07-17T16:03:35.000Z</time>
|
|
</trkpt>
|
|
<trkpt lat="57.587149" lon="10.412812">
|
|
<ele>18.315857</ele>
|
|
<time>2026-07-17T16:03:36.000Z</time>
|
|
</trkpt>
|
|
<trkpt lat="57.587097" lon="10.412809">
|
|
<ele>18.319507</ele>
|
|
<time>2026-07-17T16:03:37.000Z</time>
|
|
</trkpt>
|
|
<trkpt lat="57.587047" lon="10.412805">
|
|
<ele>18.323018</ele>
|
|
<time>2026-07-17T16:03:38.000Z</time>
|
|
</trkpt>
|
|
<trkpt lat="57.586998" lon="10.412803">
|
|
<ele>18.326457</ele>
|
|
<time>2026-07-17T16:03:39.000Z</time>
|
|
</trkpt>
|
|
<trkpt lat="57.586943" lon="10.412801">
|
|
<ele>18.330317</ele>
|
|
<time>2026-07-17T16:03:40.000Z</time>
|
|
</trkpt>
|
|
<trkpt lat="57.586890" lon="10.412799">
|
|
<ele>18.334037</ele>
|
|
<time>2026-07-17T16:03:41.000Z</time>
|
|
</trkpt>
|
|
<trkpt lat="57.586838" lon="10.412796">
|
|
<ele>18.337687</ele>
|
|
<time>2026-07-17T16:03:42.000Z</time>
|
|
</trkpt>
|
|
<trkpt lat="57.586787" lon="10.412790">
|
|
<ele>18.341272</ele>
|
|
<time>2026-07-17T16:03:43.000Z</time>
|
|
</trkpt>
|
|
<trkpt lat="57.586738" lon="10.412784">
|
|
<ele>18.344718</ele>
|
|
<time>2026-07-17T16:03:44.000Z</time>
|
|
</trkpt>
|
|
<trkpt lat="57.586686" lon="10.412779">
|
|
<ele>18.348371</ele>
|
|
<time>2026-07-17T16:03:45.000Z</time>
|
|
</trkpt>
|
|
<trkpt lat="57.586634" lon="10.412775">
|
|
<ele>18.352023</ele>
|
|
<time>2026-07-17T16:03:46.000Z</time>
|
|
</trkpt>
|
|
<trkpt lat="57.586584" lon="10.412772">
|
|
<ele>18.355533</ele>
|
|
<time>2026-07-17T16:03:47.000Z</time>
|
|
</trkpt>
|
|
<trkpt lat="57.586534" lon="10.412769">
|
|
<ele>18.359043</ele>
|
|
<time>2026-07-17T16:03:48.000Z</time>
|
|
</trkpt>
|
|
<trkpt lat="57.586485" lon="10.412768">
|
|
<ele>18.362481</ele>
|
|
<time>2026-07-17T16:03:49.000Z</time>
|
|
</trkpt>
|
|
<trkpt lat="57.586435" lon="10.412765">
|
|
<ele>18.365991</ele>
|
|
<time>2026-07-17T16:03:50.000Z</time>
|
|
</trkpt>
|
|
<trkpt lat="57.586383" lon="10.412763">
|
|
<ele>18.369641</ele>
|
|
<time>2026-07-17T16:03:51.000Z</time>
|
|
</trkpt>
|
|
<trkpt lat="57.586332" lon="10.412762">
|
|
<ele>18.373219</ele>
|
|
<time>2026-07-17T16:03:52.000Z</time>
|
|
</trkpt>
|
|
<trkpt lat="57.586283" lon="10.412761">
|
|
<ele>18.376658</ele>
|
|
<time>2026-07-17T16:03:53.000Z</time>
|
|
</trkpt>
|
|
<trkpt lat="57.586234" lon="10.412759">
|
|
<ele>18.380097</ele>
|
|
<time>2026-07-17T16:03:54.000Z</time>
|
|
</trkpt>
|
|
<trkpt lat="57.586184" lon="10.412758">
|
|
<ele>18.383605</ele>
|
|
<time>2026-07-17T16:03:55.000Z</time>
|
|
</trkpt>
|
|
<trkpt lat="57.586132" lon="10.412759">
|
|
<ele>18.387254</ele>
|
|
<time>2026-07-17T16:03:56.000Z</time>
|
|
</trkpt>
|
|
<trkpt lat="57.586081" lon="10.412759">
|
|
<ele>18.378478</ele>
|
|
<time>2026-07-17T16:03:57.000Z</time>
|
|
</trkpt>
|
|
<trkpt lat="57.586032" lon="10.412757">
|
|
<ele>18.369324</ele>
|
|
<time>2026-07-17T16:03:58.000Z</time>
|
|
</trkpt>
|
|
<trkpt lat="57.585980" lon="10.412753">
|
|
<ele>18.359603</ele>
|
|
<time>2026-07-17T16:03:59.000Z</time>
|
|
</trkpt>
|
|
<trkpt lat="57.585930" lon="10.412749">
|
|
<ele>18.350255</ele>
|
|
<time>2026-07-17T16:04:00.000Z</time>
|
|
</trkpt>
|
|
<trkpt lat="57.585881" lon="10.412746">
|
|
<ele>18.341098</ele>
|
|
<time>2026-07-17T16:04:01.000Z</time>
|
|
</trkpt>
|
|
<trkpt lat="57.585829" lon="10.412745">
|
|
<ele>18.331384</ele>
|
|
<time>2026-07-17T16:04:02.000Z</time>
|
|
</trkpt>
|
|
<trkpt lat="57.585777" lon="10.412742">
|
|
<ele>18.321667</ele>
|
|
<time>2026-07-17T16:04:03.000Z</time>
|
|
</trkpt>
|
|
<trkpt lat="57.585726" lon="10.412739">
|
|
<ele>18.312136</ele>
|
|
<time>2026-07-17T16:04:04.000Z</time>
|
|
</trkpt>
|
|
<trkpt lat="57.585677" lon="10.412735">
|
|
<ele>18.302975</ele>
|
|
<time>2026-07-17T16:04:05.000Z</time>
|
|
</trkpt>
|
|
<trkpt lat="57.585627" lon="10.412730">
|
|
<ele>18.293623</ele>
|
|
<time>2026-07-17T16:04:06.000Z</time>
|
|
</trkpt>
|
|
<trkpt lat="57.585574" lon="10.412724">
|
|
<ele>18.283705</ele>
|
|
<time>2026-07-17T16:04:07.000Z</time>
|
|
</trkpt>
|
|
<trkpt lat="57.585524" lon="10.412721">
|
|
<ele>18.274361</ele>
|
|
<time>2026-07-17T16:04:08.000Z</time>
|
|
</trkpt>
|
|
<trkpt lat="57.585474" lon="10.412719">
|
|
<ele>18.265019</ele>
|
|
<time>2026-07-17T16:04:09.000Z</time>
|
|
</trkpt>
|
|
<trkpt lat="57.585423" lon="10.412718">
|
|
<ele>18.255493</ele>
|
|
<time>2026-07-17T16:04:10.000Z</time>
|
|
</trkpt>
|
|
<trkpt lat="57.585370" lon="10.412716">
|
|
<ele>18.245591</ele>
|
|
<time>2026-07-17T16:04:11.000Z</time>
|
|
</trkpt>
|
|
<trkpt lat="57.585316" lon="10.412714">
|
|
<ele>18.235503</ele>
|
|
<time>2026-07-17T16:04:12.000Z</time>
|
|
</trkpt>
|
|
<trkpt lat="57.585265" lon="10.412710">
|
|
<ele>18.225969</ele>
|
|
<time>2026-07-17T16:04:13.000Z</time>
|
|
</trkpt>
|
|
<trkpt lat="57.585214" lon="10.412705">
|
|
<ele>18.216429</ele>
|
|
<time>2026-07-17T16:04:14.000Z</time>
|
|
</trkpt>
|
|
<trkpt lat="57.585160" lon="10.412702">
|
|
<ele>18.206339</ele>
|
|
<time>2026-07-17T16:04:15.000Z</time>
|
|
</trkpt>
|
|
<trkpt lat="57.585107" lon="10.412697">
|
|
<ele>18.196426</ele>
|
|
<time>2026-07-17T16:04:16.000Z</time>
|
|
</trkpt>
|
|
<trkpt lat="57.585056" lon="10.412694">
|
|
<ele>18.186896</ele>
|
|
<time>2026-07-17T16:04:17.000Z</time>
|
|
</trkpt>
|
|
<trkpt lat="57.585007" lon="10.412692">
|
|
<ele>18.177741</ele>
|
|
<time>2026-07-17T16:04:18.000Z</time>
|
|
</trkpt>
|
|
<trkpt lat="57.584952" lon="10.412688">
|
|
<ele>18.167460</ele>
|
|
<time>2026-07-17T16:04:19.000Z</time>
|
|
</trkpt>
|
|
<trkpt lat="57.584901" lon="10.412685">
|
|
<ele>18.157930</ele>
|
|
<time>2026-07-17T16:04:20.000Z</time>
|
|
</trkpt>
|
|
<trkpt lat="57.584851" lon="10.412683">
|
|
<ele>18.148588</ele>
|
|
<time>2026-07-17T16:04:21.000Z</time>
|
|
</trkpt>
|
|
<trkpt lat="57.584800" lon="10.412681">
|
|
<ele>18.139060</ele>
|
|
<time>2026-07-17T16:04:22.000Z</time>
|
|
</trkpt>
|
|
<trkpt lat="57.584740" lon="10.412677">
|
|
<ele>18.127846</ele>
|
|
<time>2026-07-17T16:04:23.000Z</time>
|
|
</trkpt>
|
|
<trkpt lat="57.584687" lon="10.412674">
|
|
<ele>18.117942</ele>
|
|
<time>2026-07-17T16:04:24.000Z</time>
|
|
</trkpt>
|
|
<trkpt lat="57.584633" lon="10.412671">
|
|
<ele>18.107851</ele>
|
|
<time>2026-07-17T16:04:25.000Z</time>
|
|
</trkpt>
|
|
<trkpt lat="57.584582" lon="10.412669">
|
|
<ele>18.098323</ele>
|
|
<time>2026-07-17T16:04:26.000Z</time>
|
|
</trkpt>
|
|
<trkpt lat="57.584531" lon="10.412666">
|
|
<ele>18.088792</ele>
|
|
<time>2026-07-17T16:04:27.000Z</time>
|
|
</trkpt>
|
|
<trkpt lat="57.584477" lon="10.412665">
|
|
<ele>18.078705</ele>
|
|
<time>2026-07-17T16:04:28.000Z</time>
|
|
</trkpt>
|
|
<trkpt lat="57.584423" lon="10.412662">
|
|
<ele>18.068615</ele>
|
|
<time>2026-07-17T16:04:29.000Z</time>
|
|
</trkpt>
|
|
<trkpt lat="57.584370" lon="10.412658">
|
|
<ele>18.058707</ele>
|
|
<time>2026-07-17T16:04:30.000Z</time>
|
|
</trkpt>
|
|
<trkpt lat="57.584318" lon="10.412655">
|
|
<ele>18.050028</ele>
|
|
<time>2026-07-17T16:04:31.000Z</time>
|
|
</trkpt>
|
|
<trkpt lat="57.584264" lon="10.412651">
|
|
<ele>18.044106</ele>
|
|
<time>2026-07-17T16:04:32.000Z</time>
|
|
</trkpt>
|
|
<trkpt lat="57.584210" lon="10.412650">
|
|
<ele>18.038188</ele>
|
|
<time>2026-07-17T16:04:33.000Z</time>
|
|
</trkpt>
|
|
<trkpt lat="57.584155" lon="10.412649">
|
|
<ele>18.032161</ele>
|
|
<time>2026-07-17T16:04:34.000Z</time>
|
|
</trkpt>
|
|
<trkpt lat="57.584099" lon="10.412646">
|
|
<ele>18.026022</ele>
|
|
<time>2026-07-17T16:04:35.000Z</time>
|
|
</trkpt>
|
|
<trkpt lat="57.584045" lon="10.412642">
|
|
<ele>18.020100</ele>
|
|
<time>2026-07-17T16:04:36.000Z</time>
|
|
</trkpt>
|
|
<trkpt lat="57.583991" lon="10.412638">
|
|
<ele>18.014178</ele>
|
|
<time>2026-07-17T16:04:37.000Z</time>
|
|
</trkpt>
|
|
<trkpt lat="57.583936" lon="10.412633">
|
|
<ele>18.008143</ele>
|
|
<time>2026-07-17T16:04:38.000Z</time>
|
|
</trkpt>
|
|
<trkpt lat="57.583882" lon="10.412629">
|
|
<ele>18.002221</ele>
|
|
<time>2026-07-17T16:04:39.000Z</time>
|
|
</trkpt>
|
|
<trkpt lat="57.583829" lon="10.412624">
|
|
<ele>17.996406</ele>
|
|
<time>2026-07-17T16:04:40.000Z</time>
|
|
</trkpt>
|
|
<trkpt lat="57.583776" lon="10.412620">
|
|
<ele>17.990594</ele>
|
|
<time>2026-07-17T16:04:41.000Z</time>
|
|
</trkpt>
|
|
<trkpt lat="57.583723" lon="10.412617">
|
|
<ele>17.984783</ele>
|
|
<time>2026-07-17T16:04:42.000Z</time>
|
|
</trkpt>
|
|
<trkpt lat="57.583668" lon="10.412614">
|
|
<ele>17.978754</ele>
|
|
<time>2026-07-17T16:04:43.000Z</time>
|
|
</trkpt>
|
|
<trkpt lat="57.583613" lon="10.412611">
|
|
<ele>17.972724</ele>
|
|
<time>2026-07-17T16:04:44.000Z</time>
|
|
</trkpt>
|
|
<trkpt lat="57.583556" lon="10.412606">
|
|
<ele>17.966471</ele>
|
|
<time>2026-07-17T16:04:45.000Z</time>
|
|
</trkpt>
|
|
<trkpt lat="57.583499" lon="10.412602">
|
|
<ele>17.960221</ele>
|
|
<time>2026-07-17T16:04:46.000Z</time>
|
|
</trkpt>
|
|
<trkpt lat="57.583443" lon="10.412599">
|
|
<ele>17.954082</ele>
|
|
<time>2026-07-17T16:04:47.000Z</time>
|
|
</trkpt>
|
|
<trkpt lat="57.583391" lon="10.412599">
|
|
<ele>17.948383</ele>
|
|
<time>2026-07-17T16:04:48.000Z</time>
|
|
</trkpt>
|
|
<trkpt lat="57.583338" lon="10.412599">
|
|
<ele>17.942576</ele>
|
|
<time>2026-07-17T16:04:49.000Z</time>
|
|
</trkpt>
|
|
<trkpt lat="57.583283" lon="10.412599">
|
|
<ele>17.936549</ele>
|
|
<time>2026-07-17T16:04:50.000Z</time>
|
|
</trkpt>
|
|
<trkpt lat="57.583231" lon="10.412598">
|
|
<ele>17.930850</ele>
|
|
<time>2026-07-17T16:04:51.000Z</time>
|
|
</trkpt>
|
|
<trkpt lat="57.583177" lon="10.412596">
|
|
<ele>17.924932</ele>
|
|
<time>2026-07-17T16:04:52.000Z</time>
|
|
</trkpt>
|
|
<trkpt lat="57.583120" lon="10.412594">
|
|
<ele>17.918684</ele>
|
|
<time>2026-07-17T16:04:53.000Z</time>
|
|
</trkpt>
|
|
<trkpt lat="57.583066" lon="10.412592">
|
|
<ele>17.912766</ele>
|
|
<time>2026-07-17T16:04:54.000Z</time>
|
|
</trkpt>
|
|
<trkpt lat="57.583009" lon="10.412591">
|
|
<ele>17.906519</ele>
|
|
<time>2026-07-17T16:04:55.000Z</time>
|
|
</trkpt>
|
|
<trkpt lat="57.582951" lon="10.412590">
|
|
<ele>17.900164</ele>
|
|
<time>2026-07-17T16:04:56.000Z</time>
|
|
</trkpt>
|
|
<trkpt lat="57.582895" lon="10.412589">
|
|
<ele>17.894027</ele>
|
|
<time>2026-07-17T16:04:57.000Z</time>
|
|
</trkpt>
|
|
<trkpt lat="57.582836" lon="10.412587">
|
|
<ele>17.887560</ele>
|
|
<time>2026-07-17T16:04:58.000Z</time>
|
|
</trkpt>
|
|
<trkpt lat="57.582778" lon="10.412585">
|
|
<ele>17.881204</ele>
|
|
<time>2026-07-17T16:04:59.000Z</time>
|
|
</trkpt>
|
|
<trkpt lat="57.582721" lon="10.412583">
|
|
<ele>17.874956</ele>
|
|
<time>2026-07-17T16:05:00.000Z</time>
|
|
</trkpt>
|
|
<trkpt lat="57.582665" lon="10.412585">
|
|
<ele>17.868819</ele>
|
|
<time>2026-07-17T16:05:01.000Z</time>
|
|
</trkpt>
|
|
<trkpt lat="57.582610" lon="10.412588">
|
|
<ele>17.862789</ele>
|
|
<time>2026-07-17T16:05:02.000Z</time>
|
|
</trkpt>
|
|
<trkpt lat="57.582553" lon="10.412587">
|
|
<ele>17.856543</ele>
|
|
<time>2026-07-17T16:05:03.000Z</time>
|
|
</trkpt>
|
|
<trkpt lat="57.582495" lon="10.412584">
|
|
<ele>17.853048</ele>
|
|
<time>2026-07-17T16:05:04.000Z</time>
|
|
</trkpt>
|
|
<trkpt lat="57.582439" lon="10.412579">
|
|
<ele>17.851074</ele>
|
|
<time>2026-07-17T16:05:05.000Z</time>
|
|
</trkpt>
|
|
<trkpt lat="57.582383" lon="10.412574">
|
|
<ele>17.849099</ele>
|
|
<time>2026-07-17T16:05:06.000Z</time>
|
|
</trkpt>
|
|
<trkpt lat="57.582331" lon="10.412574">
|
|
<ele>17.847268</ele>
|
|
<time>2026-07-17T16:05:07.000Z</time>
|
|
</trkpt>
|
|
<trkpt lat="57.582279" lon="10.412576">
|
|
<ele>17.845436</ele>
|
|
<time>2026-07-17T16:05:08.000Z</time>
|
|
</trkpt>
|
|
<trkpt lat="57.582228" lon="10.412577">
|
|
<ele>17.843640</ele>
|
|
<time>2026-07-17T16:05:09.000Z</time>
|
|
</trkpt>
|
|
<trkpt lat="57.582178" lon="10.412580">
|
|
<ele>17.841878</ele>
|
|
<time>2026-07-17T16:05:10.000Z</time>
|
|
</trkpt>
|
|
<trkpt lat="57.582128" lon="10.412583">
|
|
<ele>17.840116</ele>
|
|
<time>2026-07-17T16:05:11.000Z</time>
|
|
</trkpt>
|
|
<trkpt lat="57.582079" lon="10.412586">
|
|
<ele>17.838390</ele>
|
|
<time>2026-07-17T16:05:12.000Z</time>
|
|
</trkpt>
|
|
<trkpt lat="57.582029" lon="10.412587">
|
|
<ele>17.836629</ele>
|
|
<time>2026-07-17T16:05:13.000Z</time>
|
|
</trkpt>
|
|
<trkpt lat="57.581974" lon="10.412590">
|
|
<ele>17.834691</ele>
|
|
<time>2026-07-17T16:05:14.000Z</time>
|
|
</trkpt>
|
|
<trkpt lat="57.581921" lon="10.412594">
|
|
<ele>17.832823</ele>
|
|
<time>2026-07-17T16:05:15.000Z</time>
|
|
</trkpt>
|
|
<trkpt lat="57.581867" lon="10.412597">
|
|
<ele>17.830920</ele>
|
|
<time>2026-07-17T16:05:16.000Z</time>
|
|
</trkpt>
|
|
<trkpt lat="57.581815" lon="10.412599">
|
|
<ele>17.829089</ele>
|
|
<time>2026-07-17T16:05:17.000Z</time>
|
|
</trkpt>
|
|
<trkpt lat="57.581762" lon="10.412600">
|
|
<ele>17.827222</ele>
|
|
<time>2026-07-17T16:05:18.000Z</time>
|
|
</trkpt>
|
|
<trkpt lat="57.581707" lon="10.412602">
|
|
<ele>17.825285</ele>
|
|
<time>2026-07-17T16:05:19.000Z</time>
|
|
</trkpt>
|
|
<trkpt lat="57.581654" lon="10.412605">
|
|
<ele>17.823417</ele>
|
|
<time>2026-07-17T16:05:20.000Z</time>
|
|
</trkpt>
|
|
<trkpt lat="57.581601" lon="10.412609">
|
|
<ele>17.821549</ele>
|
|
<time>2026-07-17T16:05:21.000Z</time>
|
|
</trkpt>
|
|
<trkpt lat="57.581548" lon="10.412614">
|
|
<ele>17.819680</ele>
|
|
<time>2026-07-17T16:05:22.000Z</time>
|
|
</trkpt>
|
|
<trkpt lat="57.581495" lon="10.412620">
|
|
<ele>17.817810</ele>
|
|
<time>2026-07-17T16:05:23.000Z</time>
|
|
</trkpt>
|
|
<trkpt lat="57.581441" lon="10.412630">
|
|
<ele>17.815899</ele>
|
|
<time>2026-07-17T16:05:24.000Z</time>
|
|
</trkpt>
|
|
<trkpt lat="57.581387" lon="10.412641">
|
|
<ele>17.813986</ele>
|
|
<time>2026-07-17T16:05:25.000Z</time>
|
|
</trkpt>
|
|
<trkpt lat="57.581334" lon="10.412649">
|
|
<ele>17.812114</ele>
|
|
<time>2026-07-17T16:05:26.000Z</time>
|
|
</trkpt>
|
|
<trkpt lat="57.581281" lon="10.412655">
|
|
<ele>17.810244</ele>
|
|
<time>2026-07-17T16:05:27.000Z</time>
|
|
</trkpt>
|
|
<trkpt lat="57.581228" lon="10.412661">
|
|
<ele>17.808374</ele>
|
|
<time>2026-07-17T16:05:28.000Z</time>
|
|
</trkpt>
|
|
<trkpt lat="57.581173" lon="10.412666">
|
|
<ele>17.806434</ele>
|
|
<time>2026-07-17T16:05:29.000Z</time>
|
|
</trkpt>
|
|
<trkpt lat="57.581121" lon="10.412673">
|
|
<ele>17.804598</ele>
|
|
<time>2026-07-17T16:05:30.000Z</time>
|
|
</trkpt>
|
|
<trkpt lat="57.581072" lon="10.412679">
|
|
<ele>17.802869</ele>
|
|
<time>2026-07-17T16:05:31.000Z</time>
|
|
</trkpt>
|
|
<trkpt lat="57.581022" lon="10.412685">
|
|
<ele>17.801105</ele>
|
|
<time>2026-07-17T16:05:32.000Z</time>
|
|
</trkpt>
|
|
<trkpt lat="57.580967" lon="10.412689">
|
|
<ele>17.799166</ele>
|
|
<time>2026-07-17T16:05:33.000Z</time>
|
|
</trkpt>
|
|
<trkpt lat="57.580918" lon="10.412691">
|
|
<ele>17.797440</ele>
|
|
<time>2026-07-17T16:05:34.000Z</time>
|
|
</trkpt>
|
|
<trkpt lat="57.580872" lon="10.412695">
|
|
<ele>17.795818</ele>
|
|
<time>2026-07-17T16:05:35.000Z</time>
|
|
</trkpt>
|
|
<trkpt lat="57.580830" lon="10.412699">
|
|
<ele>17.794337</ele>
|
|
<time>2026-07-17T16:05:36.000Z</time>
|
|
</trkpt>
|
|
<trkpt lat="57.580792" lon="10.412703">
|
|
<ele>17.792997</ele>
|
|
<time>2026-07-17T16:05:37.000Z</time>
|
|
</trkpt>
|
|
<trkpt lat="57.580761" lon="10.412707">
|
|
<ele>17.791902</ele>
|
|
<time>2026-07-17T16:05:38.000Z</time>
|
|
</trkpt>
|
|
<trkpt lat="57.580704" lon="10.412690">
|
|
<ele>17.790670</ele>
|
|
<time>2026-07-17T16:06:23.000Z</time>
|
|
</trkpt>
|
|
<trkpt lat="57.580690" lon="10.412696">
|
|
<ele>17.790504</ele>
|
|
<time>2026-07-17T16:06:24.000Z</time>
|
|
</trkpt>
|
|
<trkpt lat="57.580665" lon="10.412699">
|
|
<ele>17.790214</ele>
|
|
<time>2026-07-17T16:06:25.000Z</time>
|
|
</trkpt>
|
|
<trkpt lat="57.580634" lon="10.412700">
|
|
<ele>17.789856</ele>
|
|
<time>2026-07-17T16:06:26.000Z</time>
|
|
</trkpt>
|
|
<trkpt lat="57.580602" lon="10.412703">
|
|
<ele>17.789486</ele>
|
|
<time>2026-07-17T16:06:27.000Z</time>
|
|
</trkpt>
|
|
<trkpt lat="57.580566" lon="10.412707">
|
|
<ele>17.789069</ele>
|
|
<time>2026-07-17T16:06:28.000Z</time>
|
|
</trkpt>
|
|
<trkpt lat="57.580526" lon="10.412711">
|
|
<ele>17.788606</ele>
|
|
<time>2026-07-17T16:06:29.000Z</time>
|
|
</trkpt>
|
|
<trkpt lat="57.580482" lon="10.412712">
|
|
<ele>17.788098</ele>
|
|
<time>2026-07-17T16:06:30.000Z</time>
|
|
</trkpt>
|
|
<trkpt lat="57.580437" lon="10.412716">
|
|
<ele>17.787577</ele>
|
|
<time>2026-07-17T16:06:31.000Z</time>
|
|
</trkpt>
|
|
<trkpt lat="57.580391" lon="10.412724">
|
|
<ele>17.787043</ele>
|
|
<time>2026-07-17T16:06:32.000Z</time>
|
|
</trkpt>
|
|
<trkpt lat="57.580344" lon="10.412735">
|
|
<ele>17.786496</ele>
|
|
<time>2026-07-17T16:06:33.000Z</time>
|
|
</trkpt>
|
|
<trkpt lat="57.580294" lon="10.412744">
|
|
<ele>17.785916</ele>
|
|
<time>2026-07-17T16:06:34.000Z</time>
|
|
</trkpt>
|
|
<trkpt lat="57.580245" lon="10.412753">
|
|
<ele>17.785347</ele>
|
|
<time>2026-07-17T16:06:35.000Z</time>
|
|
</trkpt>
|
|
<trkpt lat="57.580196" lon="10.412761">
|
|
<ele>17.784778</ele>
|
|
<time>2026-07-17T16:06:36.000Z</time>
|
|
</trkpt>
|
|
<trkpt lat="57.580146" lon="10.412770">
|
|
<ele>17.784198</ele>
|
|
<time>2026-07-17T16:06:37.000Z</time>
|
|
</trkpt>
|
|
<trkpt lat="57.580096" lon="10.412777">
|
|
<ele>17.783619</ele>
|
|
<time>2026-07-17T16:06:38.000Z</time>
|
|
</trkpt>
|
|
<trkpt lat="57.580043" lon="10.412781">
|
|
<ele>17.783006</ele>
|
|
<time>2026-07-17T16:06:39.000Z</time>
|
|
</trkpt>
|
|
<trkpt lat="57.579992" lon="10.412785">
|
|
<ele>17.782416</ele>
|
|
<time>2026-07-17T16:06:40.000Z</time>
|
|
</trkpt>
|
|
<trkpt lat="57.579939" lon="10.412790">
|
|
<ele>17.781803</ele>
|
|
<time>2026-07-17T16:06:41.000Z</time>
|
|
</trkpt>
|
|
<trkpt lat="57.579885" lon="10.412798">
|
|
<ele>17.781177</ele>
|
|
<time>2026-07-17T16:06:42.000Z</time>
|
|
</trkpt>
|
|
<trkpt lat="57.579829" lon="10.412807">
|
|
<ele>17.780527</ele>
|
|
<time>2026-07-17T16:06:43.000Z</time>
|
|
</trkpt>
|
|
<trkpt lat="57.579774" lon="10.412815">
|
|
<ele>17.779890</ele>
|
|
<time>2026-07-17T16:06:44.000Z</time>
|
|
</trkpt>
|
|
<trkpt lat="57.579720" lon="10.412824">
|
|
<ele>17.779264</ele>
|
|
<time>2026-07-17T16:06:45.000Z</time>
|
|
</trkpt>
|
|
<trkpt lat="57.579667" lon="10.412834">
|
|
<ele>17.778648</ele>
|
|
<time>2026-07-17T16:06:46.000Z</time>
|
|
</trkpt>
|
|
<trkpt lat="57.579612" lon="10.412843">
|
|
<ele>17.778010</ele>
|
|
<time>2026-07-17T16:06:47.000Z</time>
|
|
</trkpt>
|
|
<trkpt lat="57.579556" lon="10.412852">
|
|
<ele>17.777361</ele>
|
|
<time>2026-07-17T16:06:48.000Z</time>
|
|
</trkpt>
|
|
<trkpt lat="57.579503" lon="10.412860">
|
|
<ele>17.776746</ele>
|
|
<time>2026-07-17T16:06:49.000Z</time>
|
|
</trkpt>
|
|
<trkpt lat="57.579450" lon="10.412866">
|
|
<ele>17.776133</ele>
|
|
<time>2026-07-17T16:06:50.000Z</time>
|
|
</trkpt>
|
|
<trkpt lat="57.579397" lon="10.412873">
|
|
<ele>17.775519</ele>
|
|
<time>2026-07-17T16:06:51.000Z</time>
|
|
</trkpt>
|
|
<trkpt lat="57.579342" lon="10.412880">
|
|
<ele>17.774882</ele>
|
|
<time>2026-07-17T16:06:52.000Z</time>
|
|
</trkpt>
|
|
<trkpt lat="57.579285" lon="10.412887">
|
|
<ele>17.774222</ele>
|
|
<time>2026-07-17T16:06:53.000Z</time>
|
|
</trkpt>
|
|
<trkpt lat="57.579231" lon="10.412894">
|
|
<ele>17.773596</ele>
|
|
<time>2026-07-17T16:06:54.000Z</time>
|
|
</trkpt>
|
|
<trkpt lat="57.579175" lon="10.412901">
|
|
<ele>17.772948</ele>
|
|
<time>2026-07-17T16:06:55.000Z</time>
|
|
</trkpt>
|
|
<trkpt lat="57.579121" lon="10.412909">
|
|
<ele>17.772322</ele>
|
|
<time>2026-07-17T16:06:56.000Z</time>
|
|
</trkpt>
|
|
<trkpt lat="57.579066" lon="10.412918">
|
|
<ele>17.771684</ele>
|
|
<time>2026-07-17T16:06:57.000Z</time>
|
|
</trkpt>
|
|
<trkpt lat="57.579009" lon="10.412926">
|
|
<ele>17.771024</ele>
|
|
<time>2026-07-17T16:06:58.000Z</time>
|
|
</trkpt>
|
|
<trkpt lat="57.578953" lon="10.412935">
|
|
<ele>17.770374</ele>
|
|
<time>2026-07-17T16:06:59.000Z</time>
|
|
</trkpt>
|
|
<trkpt lat="57.578898" lon="10.412943">
|
|
<ele>17.770072</ele>
|
|
<time>2026-07-17T16:07:00.000Z</time>
|
|
</trkpt>
|
|
<trkpt lat="57.578843" lon="10.412948">
|
|
<ele>17.769831</ele>
|
|
<time>2026-07-17T16:07:01.000Z</time>
|
|
</trkpt>
|
|
<trkpt lat="57.578789" lon="10.412953">
|
|
<ele>17.769593</ele>
|
|
<time>2026-07-17T16:07:02.000Z</time>
|
|
</trkpt>
|
|
<trkpt lat="57.578731" lon="10.412961">
|
|
<ele>17.769338</ele>
|
|
<time>2026-07-17T16:07:03.000Z</time>
|
|
</trkpt>
|
|
<trkpt lat="57.578675" lon="10.412969">
|
|
<ele>17.769091</ele>
|
|
<time>2026-07-17T16:07:04.000Z</time>
|
|
</trkpt>
|
|
<trkpt lat="57.578617" lon="10.412978">
|
|
<ele>17.768836</ele>
|
|
<time>2026-07-17T16:07:05.000Z</time>
|
|
</trkpt>
|
|
<trkpt lat="57.578558" lon="10.412986">
|
|
<ele>17.768576</ele>
|
|
<time>2026-07-17T16:07:06.000Z</time>
|
|
</trkpt>
|
|
<trkpt lat="57.578499" lon="10.412991">
|
|
<ele>17.768317</ele>
|
|
<time>2026-07-17T16:07:07.000Z</time>
|
|
</trkpt>
|
|
<trkpt lat="57.578447" lon="10.412997">
|
|
<ele>17.768088</ele>
|
|
<time>2026-07-17T16:07:08.000Z</time>
|
|
</trkpt>
|
|
<trkpt lat="57.578393" lon="10.413006">
|
|
<ele>17.767850</ele>
|
|
<time>2026-07-17T16:07:09.000Z</time>
|
|
</trkpt>
|
|
<trkpt lat="57.578338" lon="10.413016">
|
|
<ele>17.767608</ele>
|
|
<time>2026-07-17T16:07:10.000Z</time>
|
|
</trkpt>
|
|
<trkpt lat="57.578281" lon="10.413026">
|
|
<ele>17.767356</ele>
|
|
<time>2026-07-17T16:07:11.000Z</time>
|
|
</trkpt>
|
|
<trkpt lat="57.578224" lon="10.413034">
|
|
<ele>17.767106</ele>
|
|
<time>2026-07-17T16:07:12.000Z</time>
|
|
</trkpt>
|
|
<trkpt lat="57.578169" lon="10.413040">
|
|
<ele>17.766864</ele>
|
|
<time>2026-07-17T16:07:13.000Z</time>
|
|
</trkpt>
|
|
<trkpt lat="57.578112" lon="10.413041">
|
|
<ele>17.766613</ele>
|
|
<time>2026-07-17T16:07:14.000Z</time>
|
|
</trkpt>
|
|
<trkpt lat="57.578053" lon="10.413037">
|
|
<ele>17.766354</ele>
|
|
<time>2026-07-17T16:07:15.000Z</time>
|
|
</trkpt>
|
|
<trkpt lat="57.578000" lon="10.413034">
|
|
<ele>17.766122</ele>
|
|
<time>2026-07-17T16:07:16.000Z</time>
|
|
</trkpt>
|
|
<trkpt lat="57.577948" lon="10.413035">
|
|
<ele>17.765893</ele>
|
|
<time>2026-07-17T16:07:17.000Z</time>
|
|
</trkpt>
|
|
<trkpt lat="57.577894" lon="10.413041">
|
|
<ele>17.765656</ele>
|
|
<time>2026-07-17T16:07:18.000Z</time>
|
|
</trkpt>
|
|
<trkpt lat="57.577834" lon="10.413049">
|
|
<ele>17.765392</ele>
|
|
<time>2026-07-17T16:07:19.000Z</time>
|
|
</trkpt>
|
|
<trkpt lat="57.577777" lon="10.413061">
|
|
<ele>17.765140</ele>
|
|
<time>2026-07-17T16:07:20.000Z</time>
|
|
</trkpt>
|
|
<trkpt lat="57.577721" lon="10.413078">
|
|
<ele>17.764891</ele>
|
|
<time>2026-07-17T16:07:21.000Z</time>
|
|
</trkpt>
|
|
<trkpt lat="57.577669" lon="10.413098">
|
|
<ele>17.764658</ele>
|
|
<time>2026-07-17T16:07:22.000Z</time>
|
|
</trkpt>
|
|
<trkpt lat="57.577619" lon="10.413116">
|
|
<ele>17.764434</ele>
|
|
<time>2026-07-17T16:07:23.000Z</time>
|
|
</trkpt>
|
|
<trkpt lat="57.577568" lon="10.413127">
|
|
<ele>17.764209</ele>
|
|
<time>2026-07-17T16:07:24.000Z</time>
|
|
</trkpt>
|
|
<trkpt lat="57.577504" lon="10.413139">
|
|
<ele>17.763927</ele>
|
|
<time>2026-07-17T16:07:25.000Z</time>
|
|
</trkpt>
|
|
<trkpt lat="57.577449" lon="10.413146">
|
|
<ele>17.763685</ele>
|
|
<time>2026-07-17T16:07:26.000Z</time>
|
|
</trkpt>
|
|
<trkpt lat="57.577393" lon="10.413153">
|
|
<ele>17.763438</ele>
|
|
<time>2026-07-17T16:07:27.000Z</time>
|
|
</trkpt>
|
|
<trkpt lat="57.577339" lon="10.413161">
|
|
<ele>17.763200</ele>
|
|
<time>2026-07-17T16:07:28.000Z</time>
|
|
</trkpt>
|
|
<trkpt lat="57.577283" lon="10.413169">
|
|
<ele>17.762954</ele>
|
|
<time>2026-07-17T16:07:29.000Z</time>
|
|
</trkpt>
|
|
<trkpt lat="57.577230" lon="10.413179">
|
|
<ele>17.762720</ele>
|
|
<time>2026-07-17T16:07:30.000Z</time>
|
|
</trkpt>
|
|
<trkpt lat="57.577175" lon="10.413188">
|
|
<ele>17.762478</ele>
|
|
<time>2026-07-17T16:07:31.000Z</time>
|
|
</trkpt>
|
|
<trkpt lat="57.577118" lon="10.413195">
|
|
<ele>17.759593</ele>
|
|
<time>2026-07-17T16:07:32.000Z</time>
|
|
</trkpt>
|
|
<trkpt lat="57.577063" lon="10.413200">
|
|
<ele>17.755259</ele>
|
|
<time>2026-07-17T16:07:33.000Z</time>
|
|
</trkpt>
|
|
<trkpt lat="57.577008" lon="10.413205">
|
|
<ele>17.750925</ele>
|
|
<time>2026-07-17T16:07:34.000Z</time>
|
|
</trkpt>
|
|
<trkpt lat="57.576950" lon="10.413210">
|
|
<ele>17.746354</ele>
|
|
<time>2026-07-17T16:07:35.000Z</time>
|
|
</trkpt>
|
|
<trkpt lat="57.576894" lon="10.413217">
|
|
<ele>17.741937</ele>
|
|
<time>2026-07-17T16:07:36.000Z</time>
|
|
</trkpt>
|
|
<trkpt lat="57.576840" lon="10.413223">
|
|
<ele>17.737679</ele>
|
|
<time>2026-07-17T16:07:37.000Z</time>
|
|
</trkpt>
|
|
<trkpt lat="57.576784" lon="10.413231">
|
|
<ele>17.733258</ele>
|
|
<time>2026-07-17T16:07:38.000Z</time>
|
|
</trkpt>
|
|
<trkpt lat="57.576728" lon="10.413240">
|
|
<ele>17.728834</ele>
|
|
<time>2026-07-17T16:07:39.000Z</time>
|
|
</trkpt>
|
|
<trkpt lat="57.576673" lon="10.413249">
|
|
<ele>17.724488</ele>
|
|
<time>2026-07-17T16:07:40.000Z</time>
|
|
</trkpt>
|
|
<trkpt lat="57.576617" lon="10.413257">
|
|
<ele>17.720067</ele>
|
|
<time>2026-07-17T16:07:41.000Z</time>
|
|
</trkpt>
|
|
<trkpt lat="57.576561" lon="10.413264">
|
|
<ele>17.715649</ele>
|
|
<time>2026-07-17T16:07:42.000Z</time>
|
|
</trkpt>
|
|
<trkpt lat="57.576506" lon="10.413269">
|
|
<ele>17.711315</ele>
|
|
<time>2026-07-17T16:07:43.000Z</time>
|
|
</trkpt>
|
|
<trkpt lat="57.576450" lon="10.413276">
|
|
<ele>17.706897</ele>
|
|
<time>2026-07-17T16:07:44.000Z</time>
|
|
</trkpt>
|
|
<trkpt lat="57.576394" lon="10.413284">
|
|
<ele>17.702476</ele>
|
|
<time>2026-07-17T16:07:45.000Z</time>
|
|
</trkpt>
|
|
<trkpt lat="57.576339" lon="10.413291">
|
|
<ele>17.698137</ele>
|
|
<time>2026-07-17T16:07:46.000Z</time>
|
|
</trkpt>
|
|
<trkpt lat="57.576284" lon="10.413297">
|
|
<ele>17.693800</ele>
|
|
<time>2026-07-17T16:07:47.000Z</time>
|
|
</trkpt>
|
|
<trkpt lat="57.576231" lon="10.413303">
|
|
<ele>17.689621</ele>
|
|
<time>2026-07-17T16:07:48.000Z</time>
|
|
</trkpt>
|
|
<trkpt lat="57.576177" lon="10.413310">
|
|
<ele>17.685360</ele>
|
|
<time>2026-07-17T16:07:49.000Z</time>
|
|
</trkpt>
|
|
<trkpt lat="57.576122" lon="10.413318">
|
|
<ele>17.681018</ele>
|
|
<time>2026-07-17T16:07:50.000Z</time>
|
|
</trkpt>
|
|
<trkpt lat="57.576066" lon="10.413327">
|
|
<ele>17.676594</ele>
|
|
<time>2026-07-17T16:07:51.000Z</time>
|
|
</trkpt>
|
|
<trkpt lat="57.576012" lon="10.413337">
|
|
<ele>17.672322</ele>
|
|
<time>2026-07-17T16:07:52.000Z</time>
|
|
</trkpt>
|
|
<trkpt lat="57.575960" lon="10.413345">
|
|
<ele>17.668215</ele>
|
|
<time>2026-07-17T16:07:53.000Z</time>
|
|
</trkpt>
|
|
<trkpt lat="57.575905" lon="10.413353">
|
|
<ele>17.663873</ele>
|
|
<time>2026-07-17T16:07:54.000Z</time>
|
|
</trkpt>
|
|
<trkpt lat="57.575845" lon="10.413364">
|
|
<ele>17.659128</ele>
|
|
<time>2026-07-17T16:07:55.000Z</time>
|
|
</trkpt>
|
|
<trkpt lat="57.575790" lon="10.413374">
|
|
<ele>17.654778</ele>
|
|
<time>2026-07-17T16:07:56.000Z</time>
|
|
</trkpt>
|
|
<trkpt lat="57.575734" lon="10.413382">
|
|
<ele>17.650357</ele>
|
|
<time>2026-07-17T16:07:57.000Z</time>
|
|
</trkpt>
|
|
<trkpt lat="57.575678" lon="10.413389">
|
|
<ele>17.645939</ele>
|
|
<time>2026-07-17T16:07:58.000Z</time>
|
|
</trkpt>
|
|
<trkpt lat="57.575621" lon="10.413396">
|
|
<ele>17.641443</ele>
|
|
<time>2026-07-17T16:07:59.000Z</time>
|
|
</trkpt>
|
|
<trkpt lat="57.575566" lon="10.413402">
|
|
<ele>17.637106</ele>
|
|
<time>2026-07-17T16:08:00.000Z</time>
|
|
</trkpt>
|
|
<trkpt lat="57.575512" lon="10.413409">
|
|
<ele>17.632846</ele>
|
|
<time>2026-07-17T16:08:01.000Z</time>
|
|
</trkpt>
|
|
<trkpt lat="57.575457" lon="10.413416">
|
|
<ele>17.628507</ele>
|
|
<time>2026-07-17T16:08:02.000Z</time>
|
|
</trkpt>
|
|
<trkpt lat="57.575402" lon="10.413423">
|
|
<ele>17.624167</ele>
|
|
<time>2026-07-17T16:08:03.000Z</time>
|
|
</trkpt>
|
|
<trkpt lat="57.575348" lon="10.413431">
|
|
<ele>17.617192</ele>
|
|
<time>2026-07-17T16:08:04.000Z</time>
|
|
</trkpt>
|
|
<trkpt lat="57.575290" lon="10.413441">
|
|
<ele>17.598854</ele>
|
|
<time>2026-07-17T16:08:05.000Z</time>
|
|
</trkpt>
|
|
<trkpt lat="57.575233" lon="10.413449">
|
|
<ele>17.580858</ele>
|
|
<time>2026-07-17T16:08:06.000Z</time>
|
|
</trkpt>
|
|
<trkpt lat="57.575178" lon="10.413456">
|
|
<ele>17.563502</ele>
|
|
<time>2026-07-17T16:08:07.000Z</time>
|
|
</trkpt>
|
|
<trkpt lat="57.575125" lon="10.413464">
|
|
<ele>17.546762</ele>
|
|
<time>2026-07-17T16:08:08.000Z</time>
|
|
</trkpt>
|
|
<trkpt lat="57.575065" lon="10.413470">
|
|
<ele>17.527845</ele>
|
|
<time>2026-07-17T16:08:09.000Z</time>
|
|
</trkpt>
|
|
<trkpt lat="57.575007" lon="10.413477">
|
|
<ele>17.509547</ele>
|
|
<time>2026-07-17T16:08:10.000Z</time>
|
|
</trkpt>
|
|
<trkpt lat="57.574951" lon="10.413484">
|
|
<ele>17.491877</ele>
|
|
<time>2026-07-17T16:08:11.000Z</time>
|
|
</trkpt>
|
|
<trkpt lat="57.574895" lon="10.413490">
|
|
<ele>17.474217</ele>
|
|
<time>2026-07-17T16:08:12.000Z</time>
|
|
</trkpt>
|
|
<trkpt lat="57.574840" lon="10.413496">
|
|
<ele>17.456872</ele>
|
|
<time>2026-07-17T16:08:13.000Z</time>
|
|
</trkpt>
|
|
<trkpt lat="57.574784" lon="10.413503">
|
|
<ele>17.439202</ele>
|
|
<time>2026-07-17T16:08:14.000Z</time>
|
|
</trkpt>
|
|
<trkpt lat="57.574726" lon="10.413512">
|
|
<ele>17.420879</ele>
|
|
<time>2026-07-17T16:08:15.000Z</time>
|
|
</trkpt>
|
|
<trkpt lat="57.574669" lon="10.413520">
|
|
<ele>17.402883</ele>
|
|
<time>2026-07-17T16:08:16.000Z</time>
|
|
</trkpt>
|
|
<trkpt lat="57.574611" lon="10.413527">
|
|
<ele>17.384584</ele>
|
|
<time>2026-07-17T16:08:17.000Z</time>
|
|
</trkpt>
|
|
<trkpt lat="57.574555" lon="10.413534">
|
|
<ele>17.366914</ele>
|
|
<time>2026-07-17T16:08:18.000Z</time>
|
|
</trkpt>
|
|
<trkpt lat="57.574499" lon="10.413541">
|
|
<ele>17.349244</ele>
|
|
<time>2026-07-17T16:08:19.000Z</time>
|
|
</trkpt>
|
|
<trkpt lat="57.574439" lon="10.413550">
|
|
<ele>17.330293</ele>
|
|
<time>2026-07-17T16:08:20.000Z</time>
|
|
</trkpt>
|
|
<trkpt lat="57.574383" lon="10.413559">
|
|
<ele>17.312598</ele>
|
|
<time>2026-07-17T16:08:21.000Z</time>
|
|
</trkpt>
|
|
<trkpt lat="57.574326" lon="10.413567">
|
|
<ele>17.294602</ele>
|
|
<time>2026-07-17T16:08:22.000Z</time>
|
|
</trkpt>
|
|
<trkpt lat="57.574270" lon="10.413574">
|
|
<ele>17.276932</ele>
|
|
<time>2026-07-17T16:08:23.000Z</time>
|
|
</trkpt>
|
|
<trkpt lat="57.574211" lon="10.413581">
|
|
<ele>17.258319</ele>
|
|
<time>2026-07-17T16:08:24.000Z</time>
|
|
</trkpt>
|
|
<trkpt lat="57.574154" lon="10.413587">
|
|
<ele>17.240345</ele>
|
|
<time>2026-07-17T16:08:25.000Z</time>
|
|
</trkpt>
|
|
<trkpt lat="57.574096" lon="10.413595">
|
|
<ele>17.222035</ele>
|
|
<time>2026-07-17T16:08:26.000Z</time>
|
|
</trkpt>
|
|
<trkpt lat="57.574041" lon="10.413602">
|
|
<ele>17.204679</ele>
|
|
<time>2026-07-17T16:08:27.000Z</time>
|
|
</trkpt>
|
|
<trkpt lat="57.573984" lon="10.413609">
|
|
<ele>17.186695</ele>
|
|
<time>2026-07-17T16:08:28.000Z</time>
|
|
</trkpt>
|
|
<trkpt lat="57.573923" lon="10.413616">
|
|
<ele>17.167454</ele>
|
|
<time>2026-07-17T16:08:29.000Z</time>
|
|
</trkpt>
|
|
<trkpt lat="57.573864" lon="10.413622">
|
|
<ele>17.148852</ele>
|
|
<time>2026-07-17T16:08:30.000Z</time>
|
|
</trkpt>
|
|
<trkpt lat="57.573807" lon="10.413627">
|
|
<ele>17.130887</ele>
|
|
<time>2026-07-17T16:08:31.000Z</time>
|
|
</trkpt>
|
|
<trkpt lat="57.573747" lon="10.413633">
|
|
<ele>17.111970</ele>
|
|
<time>2026-07-17T16:08:32.000Z</time>
|
|
</trkpt>
|
|
<trkpt lat="57.573690" lon="10.413641">
|
|
<ele>17.093974</ele>
|
|
<time>2026-07-17T16:08:33.000Z</time>
|
|
</trkpt>
|
|
<trkpt lat="57.573635" lon="10.413650">
|
|
<ele>17.076592</ele>
|
|
<time>2026-07-17T16:08:34.000Z</time>
|
|
</trkpt>
|
|
<trkpt lat="57.573573" lon="10.413658">
|
|
<ele>17.057026</ele>
|
|
<time>2026-07-17T16:08:35.000Z</time>
|
|
</trkpt>
|
|
<trkpt lat="57.573515" lon="10.413666">
|
|
<ele>17.036896</ele>
|
|
<time>2026-07-17T16:08:36.000Z</time>
|
|
</trkpt>
|
|
<trkpt lat="57.573457" lon="10.413671">
|
|
<ele>17.016514</ele>
|
|
<time>2026-07-17T16:08:37.000Z</time>
|
|
</trkpt>
|
|
<trkpt lat="57.573402" lon="10.413676">
|
|
<ele>16.997185</ele>
|
|
<time>2026-07-17T16:08:38.000Z</time>
|
|
</trkpt>
|
|
<trkpt lat="57.573344" lon="10.413682">
|
|
<ele>16.976793</ele>
|
|
<time>2026-07-17T16:08:39.000Z</time>
|
|
</trkpt>
|
|
<trkpt lat="57.573284" lon="10.413688">
|
|
<ele>16.955701</ele>
|
|
<time>2026-07-17T16:08:40.000Z</time>
|
|
</trkpt>
|
|
<trkpt lat="57.573227" lon="10.413697">
|
|
<ele>16.935621</ele>
|
|
<time>2026-07-17T16:08:41.000Z</time>
|
|
</trkpt>
|
|
<trkpt lat="57.573171" lon="10.413706">
|
|
<ele>16.915890</ele>
|
|
<time>2026-07-17T16:08:42.000Z</time>
|
|
</trkpt>
|
|
<trkpt lat="57.573114" lon="10.413715">
|
|
<ele>16.895810</ele>
|
|
<time>2026-07-17T16:08:43.000Z</time>
|
|
</trkpt>
|
|
<trkpt lat="57.573056" lon="10.413722">
|
|
<ele>16.875407</ele>
|
|
<time>2026-07-17T16:08:44.000Z</time>
|
|
</trkpt>
|
|
<trkpt lat="57.572998" lon="10.413727">
|
|
<ele>16.855026</ele>
|
|
<time>2026-07-17T16:08:45.000Z</time>
|
|
</trkpt>
|
|
<trkpt lat="57.572941" lon="10.413731">
|
|
<ele>16.835003</ele>
|
|
<time>2026-07-17T16:08:46.000Z</time>
|
|
</trkpt>
|
|
<trkpt lat="57.572886" lon="10.413732">
|
|
<ele>16.815695</ele>
|
|
<time>2026-07-17T16:08:47.000Z</time>
|
|
</trkpt>
|
|
<trkpt lat="57.572832" lon="10.413727">
|
|
<ele>16.796716</ele>
|
|
<time>2026-07-17T16:08:48.000Z</time>
|
|
</trkpt>
|
|
<trkpt lat="57.572773" lon="10.413721">
|
|
<ele>16.775975</ele>
|
|
<time>2026-07-17T16:08:49.000Z</time>
|
|
</trkpt>
|
|
<trkpt lat="57.572715" lon="10.413720">
|
|
<ele>16.755614</ele>
|
|
<time>2026-07-17T16:08:50.000Z</time>
|
|
</trkpt>
|
|
<trkpt lat="57.572657" lon="10.413727">
|
|
<ele>16.735212</ele>
|
|
<time>2026-07-17T16:08:51.000Z</time>
|
|
</trkpt>
|
|
<trkpt lat="57.572600" lon="10.413736">
|
|
<ele>16.715131</ele>
|
|
<time>2026-07-17T16:08:52.000Z</time>
|
|
</trkpt>
|
|
<trkpt lat="57.572546" lon="10.413745">
|
|
<ele>16.696100</ele>
|
|
<time>2026-07-17T16:08:53.000Z</time>
|
|
</trkpt>
|
|
<trkpt lat="57.572492" lon="10.413752">
|
|
<ele>16.677099</ele>
|
|
<time>2026-07-17T16:08:54.000Z</time>
|
|
</trkpt>
|
|
<trkpt lat="57.572433" lon="10.413759">
|
|
<ele>16.656346</ele>
|
|
<time>2026-07-17T16:08:55.000Z</time>
|
|
</trkpt>
|
|
<trkpt lat="57.572375" lon="10.413763">
|
|
<ele>16.635972</ele>
|
|
<time>2026-07-17T16:08:56.000Z</time>
|
|
</trkpt>
|
|
<trkpt lat="57.572321" lon="10.413769">
|
|
<ele>16.616983</ele>
|
|
<time>2026-07-17T16:08:57.000Z</time>
|
|
</trkpt>
|
|
<trkpt lat="57.572267" lon="10.413781">
|
|
<ele>16.597893</ele>
|
|
<time>2026-07-17T16:08:58.000Z</time>
|
|
</trkpt>
|
|
<trkpt lat="57.572210" lon="10.413797">
|
|
<ele>16.577659</ele>
|
|
<time>2026-07-17T16:08:59.000Z</time>
|
|
</trkpt>
|
|
<trkpt lat="57.572156" lon="10.413817">
|
|
<ele>16.558333</ele>
|
|
<time>2026-07-17T16:09:00.000Z</time>
|
|
</trkpt>
|
|
<trkpt lat="57.572101" lon="10.413837">
|
|
<ele>16.538662</ele>
|
|
<time>2026-07-17T16:09:01.000Z</time>
|
|
</trkpt>
|
|
<trkpt lat="57.572045" lon="10.413851">
|
|
<ele>16.518829</ele>
|
|
<time>2026-07-17T16:09:02.000Z</time>
|
|
</trkpt>
|
|
<trkpt lat="57.571990" lon="10.413859">
|
|
<ele>16.499464</ele>
|
|
<time>2026-07-17T16:09:03.000Z</time>
|
|
</trkpt>
|
|
<trkpt lat="57.571933" lon="10.413866">
|
|
<ele>16.479411</ele>
|
|
<time>2026-07-17T16:09:04.000Z</time>
|
|
</trkpt>
|
|
<trkpt lat="57.571877" lon="10.413873">
|
|
<ele>16.459710</ele>
|
|
<time>2026-07-17T16:09:05.000Z</time>
|
|
</trkpt>
|
|
<trkpt lat="57.571819" lon="10.413880">
|
|
<ele>16.439307</ele>
|
|
<time>2026-07-17T16:09:06.000Z</time>
|
|
</trkpt>
|
|
<trkpt lat="57.571762" lon="10.413889">
|
|
<ele>16.421493</ele>
|
|
<time>2026-07-17T16:09:07.000Z</time>
|
|
</trkpt>
|
|
<trkpt lat="57.571706" lon="10.413896">
|
|
<ele>16.413142</ele>
|
|
<time>2026-07-17T16:09:08.000Z</time>
|
|
</trkpt>
|
|
<trkpt lat="57.571649" lon="10.413903">
|
|
<ele>16.404642</ele>
|
|
<time>2026-07-17T16:09:09.000Z</time>
|
|
</trkpt>
|
|
<trkpt lat="57.571589" lon="10.413911">
|
|
<ele>16.395691</ele>
|
|
<time>2026-07-17T16:09:10.000Z</time>
|
|
</trkpt>
|
|
<trkpt lat="57.571527" lon="10.413919">
|
|
<ele>16.386443</ele>
|
|
<time>2026-07-17T16:09:11.000Z</time>
|
|
</trkpt>
|
|
<trkpt lat="57.571467" lon="10.413927">
|
|
<ele>16.377492</ele>
|
|
<time>2026-07-17T16:09:12.000Z</time>
|
|
</trkpt>
|
|
<trkpt lat="57.571404" lon="10.413935">
|
|
<ele>16.368095</ele>
|
|
<time>2026-07-17T16:09:13.000Z</time>
|
|
</trkpt>
|
|
<trkpt lat="57.571340" lon="10.413944">
|
|
<ele>16.358545</ele>
|
|
<time>2026-07-17T16:09:14.000Z</time>
|
|
</trkpt>
|
|
<trkpt lat="57.571279" lon="10.413952">
|
|
<ele>16.349446</ele>
|
|
<time>2026-07-17T16:09:15.000Z</time>
|
|
</trkpt>
|
|
<trkpt lat="57.571219" lon="10.413962">
|
|
<ele>16.340482</ele>
|
|
<time>2026-07-17T16:09:16.000Z</time>
|
|
</trkpt>
|
|
<trkpt lat="57.571159" lon="10.413970">
|
|
<ele>16.331531</ele>
|
|
<time>2026-07-17T16:09:17.000Z</time>
|
|
</trkpt>
|
|
<trkpt lat="57.571098" lon="10.413977">
|
|
<ele>16.322437</ele>
|
|
<time>2026-07-17T16:09:18.000Z</time>
|
|
</trkpt>
|
|
<trkpt lat="57.571034" lon="10.413983">
|
|
<ele>16.312901</ele>
|
|
<time>2026-07-17T16:09:19.000Z</time>
|
|
</trkpt>
|
|
<trkpt lat="57.570972" lon="10.413992">
|
|
<ele>16.303647</ele>
|
|
<time>2026-07-17T16:09:20.000Z</time>
|
|
</trkpt>
|
|
<trkpt lat="57.570915" lon="10.414002">
|
|
<ele>16.295128</ele>
|
|
<time>2026-07-17T16:09:21.000Z</time>
|
|
</trkpt>
|
|
<trkpt lat="57.570855" lon="10.414010">
|
|
<ele>16.286177</ele>
|
|
<time>2026-07-17T16:09:22.000Z</time>
|
|
</trkpt>
|
|
<trkpt lat="57.570794" lon="10.414021">
|
|
<ele>16.277058</ele>
|
|
<time>2026-07-17T16:09:23.000Z</time>
|
|
</trkpt>
|
|
<trkpt lat="57.570735" lon="10.414032">
|
|
<ele>16.268235</ele>
|
|
<time>2026-07-17T16:09:24.000Z</time>
|
|
</trkpt>
|
|
<trkpt lat="57.570678" lon="10.414040">
|
|
<ele>16.259729</ele>
|
|
<time>2026-07-17T16:09:25.000Z</time>
|
|
</trkpt>
|
|
<trkpt lat="57.570619" lon="10.414048">
|
|
<ele>16.250926</ele>
|
|
<time>2026-07-17T16:09:26.000Z</time>
|
|
</trkpt>
|
|
<trkpt lat="57.570561" lon="10.414055">
|
|
<ele>16.242278</ele>
|
|
<time>2026-07-17T16:09:27.000Z</time>
|
|
</trkpt>
|
|
<trkpt lat="57.570503" lon="10.414061">
|
|
<ele>16.233634</ele>
|
|
<time>2026-07-17T16:09:28.000Z</time>
|
|
</trkpt>
|
|
<trkpt lat="57.570443" lon="10.414068">
|
|
<ele>16.224688</ele>
|
|
<time>2026-07-17T16:09:29.000Z</time>
|
|
</trkpt>
|
|
<trkpt lat="57.570383" lon="10.414075">
|
|
<ele>16.215743</ele>
|
|
<time>2026-07-17T16:09:30.000Z</time>
|
|
</trkpt>
|
|
<trkpt lat="57.570322" lon="10.414082">
|
|
<ele>16.206648</ele>
|
|
<time>2026-07-17T16:09:31.000Z</time>
|
|
</trkpt>
|
|
<trkpt lat="57.570262" lon="10.414090">
|
|
<ele>16.197698</ele>
|
|
<time>2026-07-17T16:09:32.000Z</time>
|
|
</trkpt>
|
|
<trkpt lat="57.570203" lon="10.414098">
|
|
<ele>16.188895</ele>
|
|
<time>2026-07-17T16:09:33.000Z</time>
|
|
</trkpt>
|
|
<trkpt lat="57.570139" lon="10.414107">
|
|
<ele>16.179344</ele>
|
|
<time>2026-07-17T16:09:34.000Z</time>
|
|
</trkpt>
|
|
<trkpt lat="57.570077" lon="10.414115">
|
|
<ele>16.170097</ele>
|
|
<time>2026-07-17T16:09:35.000Z</time>
|
|
</trkpt>
|
|
<trkpt lat="57.570015" lon="10.414123">
|
|
<ele>16.160849</ele>
|
|
<time>2026-07-17T16:09:36.000Z</time>
|
|
</trkpt>
|
|
<trkpt lat="57.569952" lon="10.414132">
|
|
<ele>16.151758</ele>
|
|
<time>2026-07-17T16:09:37.000Z</time>
|
|
</trkpt>
|
|
<trkpt lat="57.569891" lon="10.414140">
|
|
<ele>16.143355</ele>
|
|
<time>2026-07-17T16:09:38.000Z</time>
|
|
</trkpt>
|
|
<trkpt lat="57.569829" lon="10.414149">
|
|
<ele>16.134810</ele>
|
|
<time>2026-07-17T16:09:39.000Z</time>
|
|
</trkpt>
|
|
<trkpt lat="57.569768" lon="10.414156">
|
|
<ele>16.126412</ele>
|
|
<time>2026-07-17T16:09:40.000Z</time>
|
|
</trkpt>
|
|
<trkpt lat="57.569707" lon="10.414163">
|
|
<ele>16.118014</ele>
|
|
<time>2026-07-17T16:09:41.000Z</time>
|
|
</trkpt>
|
|
<trkpt lat="57.569648" lon="10.414170">
|
|
<ele>16.109890</ele>
|
|
<time>2026-07-17T16:09:42.000Z</time>
|
|
</trkpt>
|
|
<trkpt lat="57.569588" lon="10.414179">
|
|
<ele>16.101618</ele>
|
|
<time>2026-07-17T16:09:43.000Z</time>
|
|
</trkpt>
|
|
<trkpt lat="57.569527" lon="10.414190">
|
|
<ele>16.093197</ele>
|
|
<time>2026-07-17T16:09:44.000Z</time>
|
|
</trkpt>
|
|
<trkpt lat="57.569466" lon="10.414201">
|
|
<ele>16.084776</ele>
|
|
<time>2026-07-17T16:09:45.000Z</time>
|
|
</trkpt>
|
|
<trkpt lat="57.569405" lon="10.414210">
|
|
<ele>16.076367</ele>
|
|
<time>2026-07-17T16:09:46.000Z</time>
|
|
</trkpt>
|
|
<trkpt lat="57.569341" lon="10.414218">
|
|
<ele>16.067553</ele>
|
|
<time>2026-07-17T16:09:47.000Z</time>
|
|
</trkpt>
|
|
<trkpt lat="57.569282" lon="10.414224">
|
|
<ele>16.059433</ele>
|
|
<time>2026-07-17T16:09:48.000Z</time>
|
|
</trkpt>
|
|
<trkpt lat="57.569222" lon="10.414232">
|
|
<ele>16.051167</ele>
|
|
<time>2026-07-17T16:09:49.000Z</time>
|
|
</trkpt>
|
|
<trkpt lat="57.569159" lon="10.414240">
|
|
<ele>16.042490</ele>
|
|
<time>2026-07-17T16:09:50.000Z</time>
|
|
</trkpt>
|
|
<trkpt lat="57.569096" lon="10.414247">
|
|
<ele>16.033818</ele>
|
|
<time>2026-07-17T16:09:51.000Z</time>
|
|
</trkpt>
|
|
<trkpt lat="57.569029" lon="10.414254">
|
|
<ele>16.024597</ele>
|
|
<time>2026-07-17T16:09:52.000Z</time>
|
|
</trkpt>
|
|
<trkpt lat="57.568964" lon="10.414261">
|
|
<ele>16.015650</ele>
|
|
<time>2026-07-17T16:09:53.000Z</time>
|
|
</trkpt>
|
|
<trkpt lat="57.568900" lon="10.414267">
|
|
<ele>16.006844</ele>
|
|
<time>2026-07-17T16:09:54.000Z</time>
|
|
</trkpt>
|
|
<trkpt lat="57.568832" lon="10.414274">
|
|
<ele>15.997486</ele>
|
|
<time>2026-07-17T16:09:55.000Z</time>
|
|
</trkpt>
|
|
<trkpt lat="57.568767" lon="10.414279">
|
|
<ele>15.988546</ele>
|
|
<time>2026-07-17T16:09:56.000Z</time>
|
|
</trkpt>
|
|
<trkpt lat="57.568705" lon="10.414281">
|
|
<ele>15.980025</ele>
|
|
<time>2026-07-17T16:09:57.000Z</time>
|
|
</trkpt>
|
|
<trkpt lat="57.568644" lon="10.414283">
|
|
<ele>15.971642</ele>
|
|
<time>2026-07-17T16:09:58.000Z</time>
|
|
</trkpt>
|
|
<trkpt lat="57.568575" lon="10.414285">
|
|
<ele>15.962159</ele>
|
|
<time>2026-07-17T16:09:59.000Z</time>
|
|
</trkpt>
|
|
<trkpt lat="57.568508" lon="10.414287">
|
|
<ele>15.952951</ele>
|
|
<time>2026-07-17T16:10:00.000Z</time>
|
|
</trkpt>
|
|
<trkpt lat="57.568445" lon="10.414287">
|
|
<ele>15.944294</ele>
|
|
<time>2026-07-17T16:10:01.000Z</time>
|
|
</trkpt>
|
|
<trkpt lat="57.568380" lon="10.414288">
|
|
<ele>15.935362</ele>
|
|
<time>2026-07-17T16:10:02.000Z</time>
|
|
</trkpt>
|
|
<trkpt lat="57.568315" lon="10.414292">
|
|
<ele>15.926425</ele>
|
|
<time>2026-07-17T16:10:03.000Z</time>
|
|
</trkpt>
|
|
<trkpt lat="57.568252" lon="10.414295">
|
|
<ele>15.917765</ele>
|
|
<time>2026-07-17T16:10:04.000Z</time>
|
|
</trkpt>
|
|
<trkpt lat="57.568187" lon="10.414298">
|
|
<ele>15.908831</ele>
|
|
<time>2026-07-17T16:10:05.000Z</time>
|
|
</trkpt>
|
|
<trkpt lat="57.568124" lon="10.414301">
|
|
<ele>15.900546</ele>
|
|
<time>2026-07-17T16:10:06.000Z</time>
|
|
</trkpt>
|
|
<trkpt lat="57.568058" lon="10.414304">
|
|
<ele>15.891890</ele>
|
|
<time>2026-07-17T16:10:07.000Z</time>
|
|
</trkpt>
|
|
<trkpt lat="57.567996" lon="10.414305">
|
|
<ele>15.883760</ele>
|
|
<time>2026-07-17T16:10:08.000Z</time>
|
|
</trkpt>
|
|
<trkpt lat="57.567937" lon="10.414308">
|
|
<ele>15.876021</ele>
|
|
<time>2026-07-17T16:10:09.000Z</time>
|
|
</trkpt>
|
|
<trkpt lat="57.567872" lon="10.414312">
|
|
<ele>15.867494</ele>
|
|
<time>2026-07-17T16:10:10.000Z</time>
|
|
</trkpt>
|
|
<trkpt lat="57.567805" lon="10.414315">
|
|
<ele>15.858706</ele>
|
|
<time>2026-07-17T16:10:11.000Z</time>
|
|
</trkpt>
|
|
<trkpt lat="57.567742" lon="10.414318">
|
|
<ele>15.850443</ele>
|
|
<time>2026-07-17T16:10:12.000Z</time>
|
|
</trkpt>
|
|
<trkpt lat="57.567680" lon="10.414322">
|
|
<ele>15.842309</ele>
|
|
<time>2026-07-17T16:10:13.000Z</time>
|
|
</trkpt>
|
|
<trkpt lat="57.567617" lon="10.414326">
|
|
<ele>15.834044</ele>
|
|
<time>2026-07-17T16:10:14.000Z</time>
|
|
</trkpt>
|
|
<trkpt lat="57.567554" lon="10.414330">
|
|
<ele>15.825779</ele>
|
|
<time>2026-07-17T16:10:15.000Z</time>
|
|
</trkpt>
|
|
<trkpt lat="57.567491" lon="10.414331">
|
|
<ele>15.817518</ele>
|
|
<time>2026-07-17T16:10:16.000Z</time>
|
|
</trkpt>
|
|
<trkpt lat="57.567432" lon="10.414331">
|
|
<ele>15.809782</ele>
|
|
<time>2026-07-17T16:10:17.000Z</time>
|
|
</trkpt>
|
|
<trkpt lat="57.567374" lon="10.414330">
|
|
<ele>15.802177</ele>
|
|
<time>2026-07-17T16:10:18.000Z</time>
|
|
</trkpt>
|
|
<trkpt lat="57.567310" lon="10.414333">
|
|
<ele>15.793783</ele>
|
|
<time>2026-07-17T16:10:19.000Z</time>
|
|
</trkpt>
|
|
<trkpt lat="57.567246" lon="10.414340">
|
|
<ele>15.785377</ele>
|
|
<time>2026-07-17T16:10:20.000Z</time>
|
|
</trkpt>
|
|
<trkpt lat="57.567188" lon="10.414347">
|
|
<ele>15.777756</ele>
|
|
<time>2026-07-17T16:10:21.000Z</time>
|
|
</trkpt>
|
|
<trkpt lat="57.567126" lon="10.414355">
|
|
<ele>15.769608</ele>
|
|
<time>2026-07-17T16:10:22.000Z</time>
|
|
</trkpt>
|
|
<trkpt lat="57.567072" lon="10.414362">
|
|
<ele>15.762510</ele>
|
|
<time>2026-07-17T16:10:23.000Z</time>
|
|
</trkpt>
|
|
<trkpt lat="57.567026" lon="10.414368">
|
|
<ele>15.756464</ele>
|
|
<time>2026-07-17T16:10:24.000Z</time>
|
|
</trkpt>
|
|
<trkpt lat="57.566952" lon="10.414377">
|
|
<ele>15.746741</ele>
|
|
<time>2026-07-17T16:10:25.000Z</time>
|
|
</trkpt>
|
|
<trkpt lat="57.566894" lon="10.414381">
|
|
<ele>15.739131</ele>
|
|
<time>2026-07-17T16:10:26.000Z</time>
|
|
</trkpt>
|
|
<trkpt lat="57.566832" lon="10.414385">
|
|
<ele>15.730997</ele>
|
|
<time>2026-07-17T16:10:27.000Z</time>
|
|
</trkpt>
|
|
<trkpt lat="57.566767" lon="10.414388">
|
|
<ele>15.722471</ele>
|
|
<time>2026-07-17T16:10:28.000Z</time>
|
|
</trkpt>
|
|
<trkpt lat="57.566707" lon="10.414392">
|
|
<ele>15.714599</ele>
|
|
<time>2026-07-17T16:10:29.000Z</time>
|
|
</trkpt>
|
|
<trkpt lat="57.566650" lon="10.414398">
|
|
<ele>15.707114</ele>
|
|
<time>2026-07-17T16:10:30.000Z</time>
|
|
</trkpt>
|
|
<trkpt lat="57.566591" lon="10.414403">
|
|
<ele>15.699370</ele>
|
|
<time>2026-07-17T16:10:31.000Z</time>
|
|
</trkpt>
|
|
<trkpt lat="57.566529" lon="10.414407">
|
|
<ele>15.691236</ele>
|
|
<time>2026-07-17T16:10:32.000Z</time>
|
|
</trkpt>
|
|
<trkpt lat="57.566468" lon="10.414413">
|
|
<ele>15.683226</ele>
|
|
<time>2026-07-17T16:10:33.000Z</time>
|
|
</trkpt>
|
|
<trkpt lat="57.566404" lon="10.414418">
|
|
<ele>15.674827</ele>
|
|
<time>2026-07-17T16:10:34.000Z</time>
|
|
</trkpt>
|
|
<trkpt lat="57.566333" lon="10.414423">
|
|
<ele>15.672556</ele>
|
|
<time>2026-07-17T16:10:35.000Z</time>
|
|
</trkpt>
|
|
<trkpt lat="57.566267" lon="10.414426">
|
|
<ele>15.672594</ele>
|
|
<time>2026-07-17T16:10:36.000Z</time>
|
|
</trkpt>
|
|
<trkpt lat="57.566199" lon="10.414428">
|
|
<ele>15.672633</ele>
|
|
<time>2026-07-17T16:10:37.000Z</time>
|
|
</trkpt>
|
|
<trkpt lat="57.566132" lon="10.414429">
|
|
<ele>15.672672</ele>
|
|
<time>2026-07-17T16:10:38.000Z</time>
|
|
</trkpt>
|
|
<trkpt lat="57.566065" lon="10.414430">
|
|
<ele>15.672710</ele>
|
|
<time>2026-07-17T16:10:39.000Z</time>
|
|
</trkpt>
|
|
<trkpt lat="57.565998" lon="10.414434">
|
|
<ele>15.672749</ele>
|
|
<time>2026-07-17T16:10:40.000Z</time>
|
|
</trkpt>
|
|
<trkpt lat="57.565932" lon="10.414438">
|
|
<ele>15.672787</ele>
|
|
<time>2026-07-17T16:10:41.000Z</time>
|
|
</trkpt>
|
|
<trkpt lat="57.565865" lon="10.414441">
|
|
<ele>15.672826</ele>
|
|
<time>2026-07-17T16:10:42.000Z</time>
|
|
</trkpt>
|
|
<trkpt lat="57.565799" lon="10.414442">
|
|
<ele>15.672864</ele>
|
|
<time>2026-07-17T16:10:43.000Z</time>
|
|
</trkpt>
|
|
<trkpt lat="57.565731" lon="10.414443">
|
|
<ele>15.672903</ele>
|
|
<time>2026-07-17T16:10:44.000Z</time>
|
|
</trkpt>
|
|
<trkpt lat="57.565662" lon="10.414448">
|
|
<ele>15.672943</ele>
|
|
<time>2026-07-17T16:10:45.000Z</time>
|
|
</trkpt>
|
|
<trkpt lat="57.565598" lon="10.414454">
|
|
<ele>15.672980</ele>
|
|
<time>2026-07-17T16:10:46.000Z</time>
|
|
</trkpt>
|
|
<trkpt lat="57.565533" lon="10.414459">
|
|
<ele>15.673018</ele>
|
|
<time>2026-07-17T16:10:47.000Z</time>
|
|
</trkpt>
|
|
<trkpt lat="57.565471" lon="10.414462">
|
|
<ele>15.673053</ele>
|
|
<time>2026-07-17T16:10:48.000Z</time>
|
|
</trkpt>
|
|
<trkpt lat="57.565408" lon="10.414465">
|
|
<ele>15.673090</ele>
|
|
<time>2026-07-17T16:10:49.000Z</time>
|
|
</trkpt>
|
|
<trkpt lat="57.565338" lon="10.414473">
|
|
<ele>15.673130</ele>
|
|
<time>2026-07-17T16:10:50.000Z</time>
|
|
</trkpt>
|
|
<trkpt lat="57.565273" lon="10.414483">
|
|
<ele>15.673168</ele>
|
|
<time>2026-07-17T16:10:51.000Z</time>
|
|
</trkpt>
|
|
<trkpt lat="57.565211" lon="10.414496">
|
|
<ele>15.673204</ele>
|
|
<time>2026-07-17T16:10:52.000Z</time>
|
|
</trkpt>
|
|
<trkpt lat="57.565150" lon="10.414511">
|
|
<ele>15.673239</ele>
|
|
<time>2026-07-17T16:10:53.000Z</time>
|
|
</trkpt>
|
|
<trkpt lat="57.565083" lon="10.414527">
|
|
<ele>15.673278</ele>
|
|
<time>2026-07-17T16:10:54.000Z</time>
|
|
</trkpt>
|
|
<trkpt lat="57.565018" lon="10.414544">
|
|
<ele>15.673316</ele>
|
|
<time>2026-07-17T16:10:55.000Z</time>
|
|
</trkpt>
|
|
<trkpt lat="57.564953" lon="10.414560">
|
|
<ele>15.673354</ele>
|
|
<time>2026-07-17T16:10:56.000Z</time>
|
|
</trkpt>
|
|
<trkpt lat="57.564886" lon="10.414574">
|
|
<ele>15.673393</ele>
|
|
<time>2026-07-17T16:10:57.000Z</time>
|
|
</trkpt>
|
|
<trkpt lat="57.564822" lon="10.414587">
|
|
<ele>15.673430</ele>
|
|
<time>2026-07-17T16:10:58.000Z</time>
|
|
</trkpt>
|
|
<trkpt lat="57.564759" lon="10.414599">
|
|
<ele>15.673466</ele>
|
|
<time>2026-07-17T16:10:59.000Z</time>
|
|
</trkpt>
|
|
<trkpt lat="57.564690" lon="10.414614">
|
|
<ele>15.673507</ele>
|
|
<time>2026-07-17T16:11:00.000Z</time>
|
|
</trkpt>
|
|
<trkpt lat="57.564625" lon="10.414629">
|
|
<ele>15.673544</ele>
|
|
<time>2026-07-17T16:11:01.000Z</time>
|
|
</trkpt>
|
|
<trkpt lat="57.564561" lon="10.414645">
|
|
<ele>15.672947</ele>
|
|
<time>2026-07-17T16:11:02.000Z</time>
|
|
</trkpt>
|
|
<trkpt lat="57.564499" lon="10.414660">
|
|
<ele>15.671775</ele>
|
|
<time>2026-07-17T16:11:03.000Z</time>
|
|
</trkpt>
|
|
<trkpt lat="57.564434" lon="10.414674">
|
|
<ele>15.670549</ele>
|
|
<time>2026-07-17T16:11:04.000Z</time>
|
|
</trkpt>
|
|
<trkpt lat="57.564369" lon="10.414690">
|
|
<ele>15.669321</ele>
|
|
<time>2026-07-17T16:11:05.000Z</time>
|
|
</trkpt>
|
|
<trkpt lat="57.564304" lon="10.414705">
|
|
<ele>15.668093</ele>
|
|
<time>2026-07-17T16:11:06.000Z</time>
|
|
</trkpt>
|
|
<trkpt lat="57.564241" lon="10.414722">
|
|
<ele>15.666901</ele>
|
|
<time>2026-07-17T16:11:07.000Z</time>
|
|
</trkpt>
|
|
<trkpt lat="57.564177" lon="10.414738">
|
|
<ele>15.665691</ele>
|
|
<time>2026-07-17T16:11:08.000Z</time>
|
|
</trkpt>
|
|
<trkpt lat="57.564111" lon="10.414755">
|
|
<ele>15.664442</ele>
|
|
<time>2026-07-17T16:11:09.000Z</time>
|
|
</trkpt>
|
|
<trkpt lat="57.564046" lon="10.414774">
|
|
<ele>15.663210</ele>
|
|
<time>2026-07-17T16:11:10.000Z</time>
|
|
</trkpt>
|
|
<trkpt lat="57.563982" lon="10.414792">
|
|
<ele>15.661997</ele>
|
|
<time>2026-07-17T16:11:11.000Z</time>
|
|
</trkpt>
|
|
<trkpt lat="57.563920" lon="10.414807">
|
|
<ele>15.660825</ele>
|
|
<time>2026-07-17T16:11:12.000Z</time>
|
|
</trkpt>
|
|
<trkpt lat="57.563857" lon="10.414820">
|
|
<ele>15.659638</ele>
|
|
<time>2026-07-17T16:11:13.000Z</time>
|
|
</trkpt>
|
|
<trkpt lat="57.563796" lon="10.414834">
|
|
<ele>15.658486</ele>
|
|
<time>2026-07-17T16:11:14.000Z</time>
|
|
</trkpt>
|
|
<trkpt lat="57.563729" lon="10.414849">
|
|
<ele>15.657222</ele>
|
|
<time>2026-07-17T16:11:15.000Z</time>
|
|
</trkpt>
|
|
<trkpt lat="57.563665" lon="10.414865">
|
|
<ele>15.656012</ele>
|
|
<time>2026-07-17T16:11:16.000Z</time>
|
|
</trkpt>
|
|
<trkpt lat="57.563603" lon="10.414882">
|
|
<ele>15.654838</ele>
|
|
<time>2026-07-17T16:11:17.000Z</time>
|
|
</trkpt>
|
|
<trkpt lat="57.563541" lon="10.414896">
|
|
<ele>15.653668</ele>
|
|
<time>2026-07-17T16:11:18.000Z</time>
|
|
</trkpt>
|
|
<trkpt lat="57.563481" lon="10.414910">
|
|
<ele>15.652535</ele>
|
|
<time>2026-07-17T16:11:19.000Z</time>
|
|
</trkpt>
|
|
<trkpt lat="57.563413" lon="10.414927">
|
|
<ele>15.651249</ele>
|
|
<time>2026-07-17T16:11:20.000Z</time>
|
|
</trkpt>
|
|
<trkpt lat="57.563349" lon="10.414943">
|
|
<ele>15.650039</ele>
|
|
<time>2026-07-17T16:11:21.000Z</time>
|
|
</trkpt>
|
|
<trkpt lat="57.563287" lon="10.414958">
|
|
<ele>15.648868</ele>
|
|
<time>2026-07-17T16:11:22.000Z</time>
|
|
</trkpt>
|
|
<trkpt lat="57.563223" lon="10.414975">
|
|
<ele>15.647656</ele>
|
|
<time>2026-07-17T16:11:23.000Z</time>
|
|
</trkpt>
|
|
<trkpt lat="57.563157" lon="10.414990">
|
|
<ele>15.646411</ele>
|
|
<time>2026-07-17T16:11:24.000Z</time>
|
|
</trkpt>
|
|
<trkpt lat="57.563094" lon="10.415005">
|
|
<ele>15.645221</ele>
|
|
<time>2026-07-17T16:11:25.000Z</time>
|
|
</trkpt>
|
|
<trkpt lat="57.563030" lon="10.415020">
|
|
<ele>15.644012</ele>
|
|
<time>2026-07-17T16:11:26.000Z</time>
|
|
</trkpt>
|
|
<trkpt lat="57.562966" lon="10.415035">
|
|
<ele>15.642803</ele>
|
|
<time>2026-07-17T16:11:27.000Z</time>
|
|
</trkpt>
|
|
<trkpt lat="57.562902" lon="10.415051">
|
|
<ele>15.641594</ele>
|
|
<time>2026-07-17T16:11:28.000Z</time>
|
|
</trkpt>
|
|
<trkpt lat="57.562836" lon="10.415066">
|
|
<ele>15.640348</ele>
|
|
<time>2026-07-17T16:11:29.000Z</time>
|
|
</trkpt>
|
|
<trkpt lat="57.562770" lon="10.415082">
|
|
<ele>15.642089</ele>
|
|
<time>2026-07-17T16:11:30.000Z</time>
|
|
</trkpt>
|
|
<trkpt lat="57.562703" lon="10.415098">
|
|
<ele>15.645793</ele>
|
|
<time>2026-07-17T16:11:31.000Z</time>
|
|
</trkpt>
|
|
<trkpt lat="57.562640" lon="10.415115">
|
|
<ele>15.649285</ele>
|
|
<time>2026-07-17T16:11:32.000Z</time>
|
|
</trkpt>
|
|
<trkpt lat="57.562576" lon="10.415130">
|
|
<ele>15.652823</ele>
|
|
<time>2026-07-17T16:11:33.000Z</time>
|
|
</trkpt>
|
|
<trkpt lat="57.562512" lon="10.415147">
|
|
<ele>15.656368</ele>
|
|
<time>2026-07-17T16:11:34.000Z</time>
|
|
</trkpt>
|
|
<trkpt lat="57.562447" lon="10.415165">
|
|
<ele>15.659973</ele>
|
|
<time>2026-07-17T16:11:35.000Z</time>
|
|
</trkpt>
|
|
<trkpt lat="57.562384" lon="10.415182">
|
|
<ele>15.663464</ele>
|
|
<time>2026-07-17T16:11:36.000Z</time>
|
|
</trkpt>
|
|
<trkpt lat="57.562322" lon="10.415199">
|
|
<ele>15.666901</ele>
|
|
<time>2026-07-17T16:11:37.000Z</time>
|
|
</trkpt>
|
|
<trkpt lat="57.562255" lon="10.415214">
|
|
<ele>15.670602</ele>
|
|
<time>2026-07-17T16:11:38.000Z</time>
|
|
</trkpt>
|
|
<trkpt lat="57.562192" lon="10.415228">
|
|
<ele>15.674082</ele>
|
|
<time>2026-07-17T16:11:39.000Z</time>
|
|
</trkpt>
|
|
<trkpt lat="57.562130" lon="10.415240">
|
|
<ele>15.677501</ele>
|
|
<time>2026-07-17T16:11:40.000Z</time>
|
|
</trkpt>
|
|
<trkpt lat="57.562067" lon="10.415255">
|
|
<ele>15.680984</ele>
|
|
<time>2026-07-17T16:11:41.000Z</time>
|
|
</trkpt>
|
|
<trkpt lat="57.562006" lon="10.415272">
|
|
<ele>15.684367</ele>
|
|
<time>2026-07-17T16:11:42.000Z</time>
|
|
</trkpt>
|
|
<trkpt lat="57.561942" lon="10.415289">
|
|
<ele>15.687913</ele>
|
|
<time>2026-07-17T16:11:43.000Z</time>
|
|
</trkpt>
|
|
<trkpt lat="57.561878" lon="10.415305">
|
|
<ele>15.691455</ele>
|
|
<time>2026-07-17T16:11:44.000Z</time>
|
|
</trkpt>
|
|
<trkpt lat="57.561815" lon="10.415320">
|
|
<ele>15.694938</ele>
|
|
<time>2026-07-17T16:11:45.000Z</time>
|
|
</trkpt>
|
|
<trkpt lat="57.561752" lon="10.415337">
|
|
<ele>15.698429</ele>
|
|
<time>2026-07-17T16:11:46.000Z</time>
|
|
</trkpt>
|
|
<trkpt lat="57.561693" lon="10.415354">
|
|
<ele>15.701704</ele>
|
|
<time>2026-07-17T16:11:47.000Z</time>
|
|
</trkpt>
|
|
<trkpt lat="57.561628" lon="10.415371">
|
|
<ele>15.705304</ele>
|
|
<time>2026-07-17T16:11:48.000Z</time>
|
|
</trkpt>
|
|
<trkpt lat="57.561563" lon="10.415386">
|
|
<ele>15.708896</ele>
|
|
<time>2026-07-17T16:11:49.000Z</time>
|
|
</trkpt>
|
|
<trkpt lat="57.561500" lon="10.415399">
|
|
<ele>15.712373</ele>
|
|
<time>2026-07-17T16:11:50.000Z</time>
|
|
</trkpt>
|
|
<trkpt lat="57.561433" lon="10.415415">
|
|
<ele>15.716077</ele>
|
|
<time>2026-07-17T16:11:51.000Z</time>
|
|
</trkpt>
|
|
<trkpt lat="57.561369" lon="10.415431">
|
|
<ele>15.719619</ele>
|
|
<time>2026-07-17T16:11:52.000Z</time>
|
|
</trkpt>
|
|
<trkpt lat="57.561308" lon="10.415446">
|
|
<ele>15.722994</ele>
|
|
<time>2026-07-17T16:11:53.000Z</time>
|
|
</trkpt>
|
|
<trkpt lat="57.561241" lon="10.415463">
|
|
<ele>15.726702</ele>
|
|
<time>2026-07-17T16:11:54.000Z</time>
|
|
</trkpt>
|
|
<trkpt lat="57.561176" lon="10.415479">
|
|
<ele>15.730298</ele>
|
|
<time>2026-07-17T16:11:55.000Z</time>
|
|
</trkpt>
|
|
<trkpt lat="57.561111" lon="10.415496">
|
|
<ele>15.733898</ele>
|
|
<time>2026-07-17T16:11:56.000Z</time>
|
|
</trkpt>
|
|
<trkpt lat="57.561045" lon="10.415513">
|
|
<ele>15.737553</ele>
|
|
<time>2026-07-17T16:11:57.000Z</time>
|
|
</trkpt>
|
|
<trkpt lat="57.560979" lon="10.415524">
|
|
<ele>15.732767</ele>
|
|
<time>2026-07-17T16:11:58.000Z</time>
|
|
</trkpt>
|
|
<trkpt lat="57.560911" lon="10.415526">
|
|
<ele>15.724755</ele>
|
|
<time>2026-07-17T16:11:59.000Z</time>
|
|
</trkpt>
|
|
<trkpt lat="57.560845" lon="10.415528">
|
|
<ele>15.716979</ele>
|
|
<time>2026-07-17T16:12:00.000Z</time>
|
|
</trkpt>
|
|
<trkpt lat="57.560781" lon="10.415538">
|
|
<ele>15.709412</ele>
|
|
<time>2026-07-17T16:12:01.000Z</time>
|
|
</trkpt>
|
|
<trkpt lat="57.560717" lon="10.415553">
|
|
<ele>15.701813</ele>
|
|
<time>2026-07-17T16:12:02.000Z</time>
|
|
</trkpt>
|
|
<trkpt lat="57.560650" lon="10.415569">
|
|
<ele>15.693856</ele>
|
|
<time>2026-07-17T16:12:03.000Z</time>
|
|
</trkpt>
|
|
<trkpt lat="57.560579" lon="10.415584">
|
|
<ele>15.685437</ele>
|
|
<time>2026-07-17T16:12:04.000Z</time>
|
|
</trkpt>
|
|
<trkpt lat="57.560512" lon="10.415601">
|
|
<ele>15.677471</ele>
|
|
<time>2026-07-17T16:12:05.000Z</time>
|
|
</trkpt>
|
|
<trkpt lat="57.560448" lon="10.415622">
|
|
<ele>15.669816</ele>
|
|
<time>2026-07-17T16:12:06.000Z</time>
|
|
</trkpt>
|
|
<trkpt lat="57.560387" lon="10.415650">
|
|
<ele>15.662415</ele>
|
|
<time>2026-07-17T16:12:07.000Z</time>
|
|
</trkpt>
|
|
<trkpt lat="57.560326" lon="10.415679">
|
|
<ele>15.654998</ele>
|
|
<time>2026-07-17T16:12:08.000Z</time>
|
|
</trkpt>
|
|
<trkpt lat="57.560252" lon="10.415706">
|
|
<ele>15.646115</ele>
|
|
<time>2026-07-17T16:12:09.000Z</time>
|
|
</trkpt>
|
|
<trkpt lat="57.560188" lon="10.415722">
|
|
<ele>15.638508</ele>
|
|
<time>2026-07-17T16:12:10.000Z</time>
|
|
</trkpt>
|
|
<trkpt lat="57.560122" lon="10.415734">
|
|
<ele>15.630695</ele>
|
|
<time>2026-07-17T16:12:11.000Z</time>
|
|
</trkpt>
|
|
<trkpt lat="57.560055" lon="10.415747">
|
|
<ele>15.622759</ele>
|
|
<time>2026-07-17T16:12:12.000Z</time>
|
|
</trkpt>
|
|
<trkpt lat="57.559991" lon="10.415762">
|
|
<ele>15.615160</ele>
|
|
<time>2026-07-17T16:12:13.000Z</time>
|
|
</trkpt>
|
|
<trkpt lat="57.559923" lon="10.415778">
|
|
<ele>15.607085</ele>
|
|
<time>2026-07-17T16:12:14.000Z</time>
|
|
</trkpt>
|
|
<trkpt lat="57.559856" lon="10.415794">
|
|
<ele>15.599128</ele>
|
|
<time>2026-07-17T16:12:15.000Z</time>
|
|
</trkpt>
|
|
<trkpt lat="57.559793" lon="10.415810">
|
|
<ele>15.591637</ele>
|
|
<time>2026-07-17T16:12:16.000Z</time>
|
|
</trkpt>
|
|
<trkpt lat="57.559730" lon="10.415826">
|
|
<ele>15.584147</ele>
|
|
<time>2026-07-17T16:12:17.000Z</time>
|
|
</trkpt>
|
|
<trkpt lat="57.559661" lon="10.415842">
|
|
<ele>15.575955</ele>
|
|
<time>2026-07-17T16:12:18.000Z</time>
|
|
</trkpt>
|
|
<trkpt lat="57.559594" lon="10.415858">
|
|
<ele>15.567997</ele>
|
|
<time>2026-07-17T16:12:19.000Z</time>
|
|
</trkpt>
|
|
<trkpt lat="57.559529" lon="10.415874">
|
|
<ele>15.560273</ele>
|
|
<time>2026-07-17T16:12:20.000Z</time>
|
|
</trkpt>
|
|
<trkpt lat="57.559465" lon="10.415888">
|
|
<ele>15.552682</ele>
|
|
<time>2026-07-17T16:12:21.000Z</time>
|
|
</trkpt>
|
|
<trkpt lat="57.559398" lon="10.415903">
|
|
<ele>15.544732</ele>
|
|
<time>2026-07-17T16:12:22.000Z</time>
|
|
</trkpt>
|
|
<trkpt lat="57.559331" lon="10.415918">
|
|
<ele>15.536782</ele>
|
|
<time>2026-07-17T16:12:23.000Z</time>
|
|
</trkpt>
|
|
<trkpt lat="57.559267" lon="10.415934">
|
|
<ele>15.529174</ele>
|
|
<time>2026-07-17T16:12:24.000Z</time>
|
|
</trkpt>
|
|
<trkpt lat="57.559202" lon="10.415950">
|
|
<ele>15.524408</ele>
|
|
<time>2026-07-17T16:12:25.000Z</time>
|
|
</trkpt>
|
|
<trkpt lat="57.559139" lon="10.415966">
|
|
<ele>15.521207</ele>
|
|
<time>2026-07-17T16:12:26.000Z</time>
|
|
</trkpt>
|
|
<trkpt lat="57.559075" lon="10.415981">
|
|
<ele>15.517960</ele>
|
|
<time>2026-07-17T16:12:27.000Z</time>
|
|
</trkpt>
|
|
<trkpt lat="57.559013" lon="10.415997">
|
|
<ele>15.514810</ele>
|
|
<time>2026-07-17T16:12:28.000Z</time>
|
|
</trkpt>
|
|
<trkpt lat="57.558948" lon="10.416013">
|
|
<ele>15.511510</ele>
|
|
<time>2026-07-17T16:12:29.000Z</time>
|
|
</trkpt>
|
|
<trkpt lat="57.558882" lon="10.416030">
|
|
<ele>15.508156</ele>
|
|
<time>2026-07-17T16:12:30.000Z</time>
|
|
</trkpt>
|
|
<trkpt lat="57.558821" lon="10.416046">
|
|
<ele>15.505055</ele>
|
|
<time>2026-07-17T16:12:31.000Z</time>
|
|
</trkpt>
|
|
<trkpt lat="57.558760" lon="10.416060">
|
|
<ele>15.501962</ele>
|
|
<time>2026-07-17T16:12:32.000Z</time>
|
|
</trkpt>
|
|
<trkpt lat="57.558695" lon="10.416073">
|
|
<ele>15.498671</ele>
|
|
<time>2026-07-17T16:12:33.000Z</time>
|
|
</trkpt>
|
|
<trkpt lat="57.558628" lon="10.416087">
|
|
<ele>15.495277</ele>
|
|
<time>2026-07-17T16:12:34.000Z</time>
|
|
</trkpt>
|
|
<trkpt lat="57.558563" lon="10.416101">
|
|
<ele>15.491984</ele>
|
|
<time>2026-07-17T16:12:35.000Z</time>
|
|
</trkpt>
|
|
<trkpt lat="57.558499" lon="10.416116">
|
|
<ele>15.488737</ele>
|
|
<time>2026-07-17T16:12:36.000Z</time>
|
|
</trkpt>
|
|
<trkpt lat="57.558437" lon="10.416130">
|
|
<ele>15.485593</ele>
|
|
<time>2026-07-17T16:12:37.000Z</time>
|
|
</trkpt>
|
|
<trkpt lat="57.558374" lon="10.416144">
|
|
<ele>15.482400</ele>
|
|
<time>2026-07-17T16:12:38.000Z</time>
|
|
</trkpt>
|
|
<trkpt lat="57.558310" lon="10.416157">
|
|
<ele>15.479159</ele>
|
|
<time>2026-07-17T16:12:39.000Z</time>
|
|
</trkpt>
|
|
<trkpt lat="57.558243" lon="10.416172">
|
|
<ele>15.475762</ele>
|
|
<time>2026-07-17T16:12:40.000Z</time>
|
|
</trkpt>
|
|
<trkpt lat="57.558178" lon="10.416188">
|
|
<ele>15.472462</ele>
|
|
<time>2026-07-17T16:12:41.000Z</time>
|
|
</trkpt>
|
|
<trkpt lat="57.558114" lon="10.416201">
|
|
<ele>15.469222</ele>
|
|
<time>2026-07-17T16:12:42.000Z</time>
|
|
</trkpt>
|
|
<trkpt lat="57.558050" lon="10.416210">
|
|
<ele>15.465991</ele>
|
|
<time>2026-07-17T16:12:43.000Z</time>
|
|
</trkpt>
|
|
<trkpt lat="57.557983" lon="10.416220">
|
|
<ele>15.462608</ele>
|
|
<time>2026-07-17T16:12:44.000Z</time>
|
|
</trkpt>
|
|
<trkpt lat="57.557915" lon="10.416233">
|
|
<ele>15.459167</ele>
|
|
<time>2026-07-17T16:12:45.000Z</time>
|
|
</trkpt>
|
|
<trkpt lat="57.557851" lon="10.416245">
|
|
<ele>15.455929</ele>
|
|
<time>2026-07-17T16:12:46.000Z</time>
|
|
</trkpt>
|
|
<trkpt lat="57.557785" lon="10.416258">
|
|
<ele>15.452588</ele>
|
|
<time>2026-07-17T16:12:47.000Z</time>
|
|
</trkpt>
|
|
<trkpt lat="57.557723" lon="10.416269">
|
|
<ele>15.449454</ele>
|
|
<time>2026-07-17T16:12:48.000Z</time>
|
|
</trkpt>
|
|
<trkpt lat="57.557661" lon="10.416281">
|
|
<ele>15.446316</ele>
|
|
<time>2026-07-17T16:12:49.000Z</time>
|
|
</trkpt>
|
|
<trkpt lat="57.557594" lon="10.416291">
|
|
<ele>15.442933</ele>
|
|
<time>2026-07-17T16:12:50.000Z</time>
|
|
</trkpt>
|
|
<trkpt lat="57.557531" lon="10.416303">
|
|
<ele>15.439745</ele>
|
|
<time>2026-07-17T16:12:51.000Z</time>
|
|
</trkpt>
|
|
<trkpt lat="57.557472" lon="10.416315">
|
|
<ele>15.436758</ele>
|
|
<time>2026-07-17T16:12:52.000Z</time>
|
|
</trkpt>
|
|
<trkpt lat="57.557410" lon="10.416328">
|
|
<ele>15.438106</ele>
|
|
<time>2026-07-17T16:12:53.000Z</time>
|
|
</trkpt>
|
|
<trkpt lat="57.557340" lon="10.416343">
|
|
<ele>15.441029</ele>
|
|
<time>2026-07-17T16:12:54.000Z</time>
|
|
</trkpt>
|
|
<trkpt lat="57.557278" lon="10.416354">
|
|
<ele>15.443612</ele>
|
|
<time>2026-07-17T16:12:55.000Z</time>
|
|
</trkpt>
|
|
<trkpt lat="57.557214" lon="10.416362">
|
|
<ele>15.446273</ele>
|
|
<time>2026-07-17T16:12:56.000Z</time>
|
|
</trkpt>
|
|
<trkpt lat="57.557158" lon="10.416372">
|
|
<ele>15.448606</ele>
|
|
<time>2026-07-17T16:12:57.000Z</time>
|
|
</trkpt>
|
|
<trkpt lat="57.557103" lon="10.416380">
|
|
<ele>15.450895</ele>
|
|
<time>2026-07-17T16:12:58.000Z</time>
|
|
</trkpt>
|
|
<trkpt lat="57.557032" lon="10.416391">
|
|
<ele>15.453850</ele>
|
|
<time>2026-07-17T16:12:59.000Z</time>
|
|
</trkpt>
|
|
<trkpt lat="57.556972" lon="10.416401">
|
|
<ele>15.456349</ele>
|
|
<time>2026-07-17T16:13:00.000Z</time>
|
|
</trkpt>
|
|
<trkpt lat="57.556903" lon="10.416416">
|
|
<ele>15.459230</ele>
|
|
<time>2026-07-17T16:13:01.000Z</time>
|
|
</trkpt>
|
|
<trkpt lat="57.556840" lon="10.416430">
|
|
<ele>15.461862</ele>
|
|
<time>2026-07-17T16:13:02.000Z</time>
|
|
</trkpt>
|
|
<trkpt lat="57.556777" lon="10.416444">
|
|
<ele>15.464494</ele>
|
|
<time>2026-07-17T16:13:03.000Z</time>
|
|
</trkpt>
|
|
<trkpt lat="57.556713" lon="10.416456">
|
|
<ele>15.467162</ele>
|
|
<time>2026-07-17T16:13:04.000Z</time>
|
|
</trkpt>
|
|
<trkpt lat="57.556648" lon="10.416467">
|
|
<ele>15.469869</ele>
|
|
<time>2026-07-17T16:13:05.000Z</time>
|
|
</trkpt>
|
|
<trkpt lat="57.556585" lon="10.416478">
|
|
<ele>15.472494</ele>
|
|
<time>2026-07-17T16:13:06.000Z</time>
|
|
</trkpt>
|
|
<trkpt lat="57.556522" lon="10.416490">
|
|
<ele>15.475121</ele>
|
|
<time>2026-07-17T16:13:07.000Z</time>
|
|
</trkpt>
|
|
<trkpt lat="57.556459" lon="10.416503">
|
|
<ele>15.477750</ele>
|
|
<time>2026-07-17T16:13:08.000Z</time>
|
|
</trkpt>
|
|
<trkpt lat="57.556397" lon="10.416513">
|
|
<ele>15.480331</ele>
|
|
<time>2026-07-17T16:13:09.000Z</time>
|
|
</trkpt>
|
|
<trkpt lat="57.556335" lon="10.416522">
|
|
<ele>15.482911</ele>
|
|
<time>2026-07-17T16:13:10.000Z</time>
|
|
</trkpt>
|
|
<trkpt lat="57.556273" lon="10.416533">
|
|
<ele>15.485494</ele>
|
|
<time>2026-07-17T16:13:11.000Z</time>
|
|
</trkpt>
|
|
<trkpt lat="57.556212" lon="10.416544">
|
|
<ele>15.488036</ele>
|
|
<time>2026-07-17T16:13:12.000Z</time>
|
|
</trkpt>
|
|
<trkpt lat="57.556149" lon="10.416552">
|
|
<ele>15.490656</ele>
|
|
<time>2026-07-17T16:13:13.000Z</time>
|
|
</trkpt>
|
|
<trkpt lat="57.556086" lon="10.416561">
|
|
<ele>15.493276</ele>
|
|
<time>2026-07-17T16:13:14.000Z</time>
|
|
</trkpt>
|
|
<trkpt lat="57.556024" lon="10.416574">
|
|
<ele>15.495864</ele>
|
|
<time>2026-07-17T16:13:15.000Z</time>
|
|
</trkpt>
|
|
<trkpt lat="57.555962" lon="10.416587">
|
|
<ele>15.498452</ele>
|
|
<time>2026-07-17T16:13:16.000Z</time>
|
|
</trkpt>
|
|
<trkpt lat="57.555899" lon="10.416597">
|
|
<ele>15.501075</ele>
|
|
<time>2026-07-17T16:13:17.000Z</time>
|
|
</trkpt>
|
|
<trkpt lat="57.555841" lon="10.416606">
|
|
<ele>15.503489</ele>
|
|
<time>2026-07-17T16:13:18.000Z</time>
|
|
</trkpt>
|
|
<trkpt lat="57.555779" lon="10.416615">
|
|
<ele>15.506069</ele>
|
|
<time>2026-07-17T16:13:19.000Z</time>
|
|
</trkpt>
|
|
<trkpt lat="57.555716" lon="10.416625">
|
|
<ele>15.508692</ele>
|
|
<time>2026-07-17T16:13:20.000Z</time>
|
|
</trkpt>
|
|
<trkpt lat="57.555655" lon="10.416636">
|
|
<ele>15.509977</ele>
|
|
<time>2026-07-17T16:13:21.000Z</time>
|
|
</trkpt>
|
|
<trkpt lat="57.555597" lon="10.416647">
|
|
<ele>15.506846</ele>
|
|
<time>2026-07-17T16:13:22.000Z</time>
|
|
</trkpt>
|
|
<trkpt lat="57.555541" lon="10.416658">
|
|
<ele>15.503822</ele>
|
|
<time>2026-07-17T16:13:23.000Z</time>
|
|
</trkpt>
|
|
<trkpt lat="57.555472" lon="10.416672">
|
|
<ele>15.500095</ele>
|
|
<time>2026-07-17T16:13:24.000Z</time>
|
|
</trkpt>
|
|
<trkpt lat="57.555410" lon="10.416682">
|
|
<ele>15.496753</ele>
|
|
<time>2026-07-17T16:13:25.000Z</time>
|
|
</trkpt>
|
|
<trkpt lat="57.555350" lon="10.416693">
|
|
<ele>15.493516</ele>
|
|
<time>2026-07-17T16:13:26.000Z</time>
|
|
</trkpt>
|
|
<trkpt lat="57.555291" lon="10.416705">
|
|
<ele>15.490329</ele>
|
|
<time>2026-07-17T16:13:27.000Z</time>
|
|
</trkpt>
|
|
<trkpt lat="57.555229" lon="10.416715">
|
|
<ele>15.486987</ele>
|
|
<time>2026-07-17T16:13:28.000Z</time>
|
|
</trkpt>
|
|
<trkpt lat="57.555169" lon="10.416724">
|
|
<ele>15.483755</ele>
|
|
<time>2026-07-17T16:13:29.000Z</time>
|
|
</trkpt>
|
|
<trkpt lat="57.555105" lon="10.416733">
|
|
<ele>15.480308</ele>
|
|
<time>2026-07-17T16:13:30.000Z</time>
|
|
</trkpt>
|
|
<trkpt lat="57.555042" lon="10.416741">
|
|
<ele>15.476917</ele>
|
|
<time>2026-07-17T16:13:31.000Z</time>
|
|
</trkpt>
|
|
<trkpt lat="57.554980" lon="10.416752">
|
|
<ele>15.473573</ele>
|
|
<time>2026-07-17T16:13:32.000Z</time>
|
|
</trkpt>
|
|
<trkpt lat="57.554921" lon="10.416763">
|
|
<ele>15.470389</ele>
|
|
<time>2026-07-17T16:13:33.000Z</time>
|
|
</trkpt>
|
|
<trkpt lat="57.554858" lon="10.416776">
|
|
<ele>15.466985</ele>
|
|
<time>2026-07-17T16:13:34.000Z</time>
|
|
</trkpt>
|
|
<trkpt lat="57.554795" lon="10.416786">
|
|
<ele>15.463590</ele>
|
|
<time>2026-07-17T16:13:35.000Z</time>
|
|
</trkpt>
|
|
<trkpt lat="57.554734" lon="10.416799">
|
|
<ele>15.460293</ele>
|
|
<time>2026-07-17T16:13:36.000Z</time>
|
|
</trkpt>
|
|
<trkpt lat="57.554674" lon="10.416811">
|
|
<ele>15.457053</ele>
|
|
<time>2026-07-17T16:13:37.000Z</time>
|
|
</trkpt>
|
|
<trkpt lat="57.554613" lon="10.416823">
|
|
<ele>15.453759</ele>
|
|
<time>2026-07-17T16:13:38.000Z</time>
|
|
</trkpt>
|
|
<trkpt lat="57.554550" lon="10.416836">
|
|
<ele>15.450355</ele>
|
|
<time>2026-07-17T16:13:39.000Z</time>
|
|
</trkpt>
|
|
<trkpt lat="57.554488" lon="10.416848">
|
|
<ele>15.447008</ele>
|
|
<time>2026-07-17T16:13:40.000Z</time>
|
|
</trkpt>
|
|
<trkpt lat="57.554427" lon="10.416859">
|
|
<ele>15.443717</ele>
|
|
<time>2026-07-17T16:13:41.000Z</time>
|
|
</trkpt>
|
|
<trkpt lat="57.554365" lon="10.416870">
|
|
<ele>15.440372</ele>
|
|
<time>2026-07-17T16:13:42.000Z</time>
|
|
</trkpt>
|
|
<trkpt lat="57.554305" lon="10.416878">
|
|
<ele>15.437142</ele>
|
|
<time>2026-07-17T16:13:43.000Z</time>
|
|
</trkpt>
|
|
<trkpt lat="57.554245" lon="10.416887">
|
|
<ele>15.433910</ele>
|
|
<time>2026-07-17T16:13:44.000Z</time>
|
|
</trkpt>
|
|
<trkpt lat="57.554184" lon="10.416896">
|
|
<ele>15.430624</ele>
|
|
<time>2026-07-17T16:13:45.000Z</time>
|
|
</trkpt>
|
|
<trkpt lat="57.554123" lon="10.416906">
|
|
<ele>15.427336</ele>
|
|
<time>2026-07-17T16:13:46.000Z</time>
|
|
</trkpt>
|
|
<trkpt lat="57.554064" lon="10.416914">
|
|
<ele>15.424159</ele>
|
|
<time>2026-07-17T16:13:47.000Z</time>
|
|
</trkpt>
|
|
<trkpt lat="57.554009" lon="10.416921">
|
|
<ele>15.421199</ele>
|
|
<time>2026-07-17T16:13:48.000Z</time>
|
|
</trkpt>
|
|
<trkpt lat="57.553935" lon="10.416935">
|
|
<ele>15.417205</ele>
|
|
<time>2026-07-17T16:13:49.000Z</time>
|
|
</trkpt>
|
|
<trkpt lat="57.553874" lon="10.416947">
|
|
<ele>15.413520</ele>
|
|
<time>2026-07-17T16:13:50.000Z</time>
|
|
</trkpt>
|
|
<trkpt lat="57.553809" lon="10.416960">
|
|
<ele>15.402786</ele>
|
|
<time>2026-07-17T16:13:51.000Z</time>
|
|
</trkpt>
|
|
<trkpt lat="57.553748" lon="10.416971">
|
|
<ele>15.392723</ele>
|
|
<time>2026-07-17T16:13:52.000Z</time>
|
|
</trkpt>
|
|
<trkpt lat="57.553686" lon="10.416980">
|
|
<ele>15.382512</ele>
|
|
<time>2026-07-17T16:13:53.000Z</time>
|
|
</trkpt>
|
|
<trkpt lat="57.553625" lon="10.416991">
|
|
<ele>15.372449</ele>
|
|
<time>2026-07-17T16:13:54.000Z</time>
|
|
</trkpt>
|
|
<trkpt lat="57.553564" lon="10.417003">
|
|
<ele>15.362377</ele>
|
|
<time>2026-07-17T16:13:55.000Z</time>
|
|
</trkpt>
|
|
<trkpt lat="57.553501" lon="10.417016">
|
|
<ele>15.351969</ele>
|
|
<time>2026-07-17T16:13:56.000Z</time>
|
|
</trkpt>
|
|
<trkpt lat="57.553438" lon="10.417028">
|
|
<ele>15.341570</ele>
|
|
<time>2026-07-17T16:13:57.000Z</time>
|
|
</trkpt>
|
|
<trkpt lat="57.553376" lon="10.417038">
|
|
<ele>15.331352</ele>
|
|
<time>2026-07-17T16:13:58.000Z</time>
|
|
</trkpt>
|
|
<trkpt lat="57.553313" lon="10.417052">
|
|
<ele>15.320934</ele>
|
|
<time>2026-07-17T16:13:59.000Z</time>
|
|
</trkpt>
|
|
<trkpt lat="57.553250" lon="10.417066">
|
|
<ele>15.310516</ele>
|
|
<time>2026-07-17T16:14:00.000Z</time>
|
|
</trkpt>
|
|
<trkpt lat="57.553187" lon="10.417077">
|
|
<ele>15.300126</ele>
|
|
<time>2026-07-17T16:14:01.000Z</time>
|
|
</trkpt>
|
|
<trkpt lat="57.553124" lon="10.417088">
|
|
<ele>15.289736</ele>
|
|
<time>2026-07-17T16:14:02.000Z</time>
|
|
</trkpt>
|
|
<trkpt lat="57.553059" lon="10.417097">
|
|
<ele>15.279034</ele>
|
|
<time>2026-07-17T16:14:03.000Z</time>
|
|
</trkpt>
|
|
<trkpt lat="57.552995" lon="10.417106">
|
|
<ele>15.268495</ele>
|
|
<time>2026-07-17T16:14:04.000Z</time>
|
|
</trkpt>
|
|
<trkpt lat="57.552930" lon="10.417116">
|
|
<ele>15.257786</ele>
|
|
<time>2026-07-17T16:14:05.000Z</time>
|
|
</trkpt>
|
|
<trkpt lat="57.552866" lon="10.417126">
|
|
<ele>15.247240</ele>
|
|
<time>2026-07-17T16:14:06.000Z</time>
|
|
</trkpt>
|
|
<trkpt lat="57.552799" lon="10.417135">
|
|
<ele>15.236210</ele>
|
|
<time>2026-07-17T16:14:07.000Z</time>
|
|
</trkpt>
|
|
<trkpt lat="57.552736" lon="10.417142">
|
|
<ele>15.225847</ele>
|
|
<time>2026-07-17T16:14:08.000Z</time>
|
|
</trkpt>
|
|
<trkpt lat="57.552672" lon="10.417146">
|
|
<ele>15.215332</ele>
|
|
<time>2026-07-17T16:14:09.000Z</time>
|
|
</trkpt>
|
|
<trkpt lat="57.552609" lon="10.417147">
|
|
<ele>15.204987</ele>
|
|
<time>2026-07-17T16:14:10.000Z</time>
|
|
</trkpt>
|
|
<trkpt lat="57.552543" lon="10.417146">
|
|
<ele>15.194150</ele>
|
|
<time>2026-07-17T16:14:11.000Z</time>
|
|
</trkpt>
|
|
<trkpt lat="57.552482" lon="10.417144">
|
|
<ele>15.184132</ele>
|
|
<time>2026-07-17T16:14:12.000Z</time>
|
|
</trkpt>
|
|
<trkpt lat="57.552425" lon="10.417142">
|
|
<ele>15.174771</ele>
|
|
<time>2026-07-17T16:14:13.000Z</time>
|
|
</trkpt>
|
|
<trkpt lat="57.552351" lon="10.417138">
|
|
<ele>15.162615</ele>
|
|
<time>2026-07-17T16:14:14.000Z</time>
|
|
</trkpt>
|
|
<trkpt lat="57.552290" lon="10.417133">
|
|
<ele>15.152589</ele>
|
|
<time>2026-07-17T16:14:15.000Z</time>
|
|
</trkpt>
|
|
<trkpt lat="57.552224" lon="10.417124">
|
|
<ele>15.141723</ele>
|
|
<time>2026-07-17T16:14:16.000Z</time>
|
|
</trkpt>
|
|
<trkpt lat="57.552164" lon="10.417114">
|
|
<ele>15.131831</ele>
|
|
<time>2026-07-17T16:14:17.000Z</time>
|
|
</trkpt>
|
|
<trkpt lat="57.552110" lon="10.417103">
|
|
<ele>15.122912</ele>
|
|
<time>2026-07-17T16:14:18.000Z</time>
|
|
</trkpt>
|
|
<trkpt lat="57.552033" lon="10.417087">
|
|
<ele>15.122681</ele>
|
|
<time>2026-07-17T16:14:19.000Z</time>
|
|
</trkpt>
|
|
<trkpt lat="57.551975" lon="10.417074">
|
|
<ele>15.127066</ele>
|
|
<time>2026-07-17T16:14:20.000Z</time>
|
|
</trkpt>
|
|
<trkpt lat="57.551908" lon="10.417057">
|
|
<ele>15.132142</ele>
|
|
<time>2026-07-17T16:14:21.000Z</time>
|
|
</trkpt>
|
|
<trkpt lat="57.551846" lon="10.417039">
|
|
<ele>15.136852</ele>
|
|
<time>2026-07-17T16:14:22.000Z</time>
|
|
</trkpt>
|
|
<trkpt lat="57.551782" lon="10.417017">
|
|
<ele>15.141737</ele>
|
|
<time>2026-07-17T16:14:23.000Z</time>
|
|
</trkpt>
|
|
<trkpt lat="57.551721" lon="10.416995">
|
|
<ele>15.146401</ele>
|
|
<time>2026-07-17T16:14:24.000Z</time>
|
|
</trkpt>
|
|
<trkpt lat="57.551661" lon="10.416973">
|
|
<ele>15.150991</ele>
|
|
<time>2026-07-17T16:14:25.000Z</time>
|
|
</trkpt>
|
|
<trkpt lat="57.551600" lon="10.416948">
|
|
<ele>15.155679</ele>
|
|
<time>2026-07-17T16:14:26.000Z</time>
|
|
</trkpt>
|
|
<trkpt lat="57.551537" lon="10.416921">
|
|
<ele>15.160532</ele>
|
|
<time>2026-07-17T16:14:27.000Z</time>
|
|
</trkpt>
|
|
<trkpt lat="57.551474" lon="10.416892">
|
|
<ele>15.165403</ele>
|
|
<time>2026-07-17T16:14:28.000Z</time>
|
|
</trkpt>
|
|
<trkpt lat="57.551413" lon="10.416863">
|
|
<ele>15.170128</ele>
|
|
<time>2026-07-17T16:14:29.000Z</time>
|
|
</trkpt>
|
|
<trkpt lat="57.551351" lon="10.416833">
|
|
<ele>15.174937</ele>
|
|
<time>2026-07-17T16:14:30.000Z</time>
|
|
</trkpt>
|
|
<trkpt lat="57.551290" lon="10.416801">
|
|
<ele>15.179694</ele>
|
|
<time>2026-07-17T16:14:31.000Z</time>
|
|
</trkpt>
|
|
<trkpt lat="57.551231" lon="10.416767">
|
|
<ele>15.184329</ele>
|
|
<time>2026-07-17T16:14:32.000Z</time>
|
|
</trkpt>
|
|
<trkpt lat="57.551173" lon="10.416730">
|
|
<ele>15.188931</ele>
|
|
<time>2026-07-17T16:14:33.000Z</time>
|
|
</trkpt>
|
|
<trkpt lat="57.551112" lon="10.416692">
|
|
<ele>15.193759</ele>
|
|
<time>2026-07-17T16:14:34.000Z</time>
|
|
</trkpt>
|
|
<trkpt lat="57.551052" lon="10.416652">
|
|
<ele>15.198542</ele>
|
|
<time>2026-07-17T16:14:35.000Z</time>
|
|
</trkpt>
|
|
<trkpt lat="57.550995" lon="10.416613">
|
|
<ele>15.203100</ele>
|
|
<time>2026-07-17T16:14:36.000Z</time>
|
|
</trkpt>
|
|
<trkpt lat="57.550939" lon="10.416571">
|
|
<ele>15.207631</ele>
|
|
<time>2026-07-17T16:14:37.000Z</time>
|
|
</trkpt>
|
|
<trkpt lat="57.550885" lon="10.416530">
|
|
<ele>15.212008</ele>
|
|
<time>2026-07-17T16:14:38.000Z</time>
|
|
</trkpt>
|
|
<trkpt lat="57.550828" lon="10.416484">
|
|
<ele>15.216671</ele>
|
|
<time>2026-07-17T16:14:39.000Z</time>
|
|
</trkpt>
|
|
<trkpt lat="57.550772" lon="10.416439">
|
|
<ele>15.221249</ele>
|
|
<time>2026-07-17T16:14:40.000Z</time>
|
|
</trkpt>
|
|
<trkpt lat="57.550715" lon="10.416393">
|
|
<ele>15.225911</ele>
|
|
<time>2026-07-17T16:14:41.000Z</time>
|
|
</trkpt>
|
|
<trkpt lat="57.550657" lon="10.416344">
|
|
<ele>15.230691</ele>
|
|
<time>2026-07-17T16:14:42.000Z</time>
|
|
</trkpt>
|
|
<trkpt lat="57.550603" lon="10.416296">
|
|
<ele>15.235182</ele>
|
|
<time>2026-07-17T16:14:43.000Z</time>
|
|
</trkpt>
|
|
<trkpt lat="57.550547" lon="10.416247">
|
|
<ele>15.239826</ele>
|
|
<time>2026-07-17T16:14:44.000Z</time>
|
|
</trkpt>
|
|
<trkpt lat="57.550489" lon="10.416196">
|
|
<ele>15.244640</ele>
|
|
<time>2026-07-17T16:14:45.000Z</time>
|
|
</trkpt>
|
|
<trkpt lat="57.550432" lon="10.416146">
|
|
<ele>15.249369</ele>
|
|
<time>2026-07-17T16:14:46.000Z</time>
|
|
</trkpt>
|
|
<trkpt lat="57.550377" lon="10.416094">
|
|
<ele>15.254947</ele>
|
|
<time>2026-07-17T16:14:47.000Z</time>
|
|
</trkpt>
|
|
<trkpt lat="57.550319" lon="10.416043">
|
|
<ele>15.280321</ele>
|
|
<time>2026-07-17T16:14:48.000Z</time>
|
|
</trkpt>
|
|
<trkpt lat="57.550263" lon="10.415994">
|
|
<ele>15.304799</ele>
|
|
<time>2026-07-17T16:14:49.000Z</time>
|
|
</trkpt>
|
|
<trkpt lat="57.550207" lon="10.415943">
|
|
<ele>15.329460</ele>
|
|
<time>2026-07-17T16:14:50.000Z</time>
|
|
</trkpt>
|
|
<trkpt lat="57.550152" lon="10.415891">
|
|
<ele>15.353861</ele>
|
|
<time>2026-07-17T16:14:51.000Z</time>
|
|
</trkpt>
|
|
<trkpt lat="57.550096" lon="10.415841">
|
|
<ele>15.378430</ele>
|
|
<time>2026-07-17T16:14:52.000Z</time>
|
|
</trkpt>
|
|
<trkpt lat="57.550038" lon="10.415789">
|
|
<ele>15.403896</ele>
|
|
<time>2026-07-17T16:14:53.000Z</time>
|
|
</trkpt>
|
|
<trkpt lat="57.549981" lon="10.415739">
|
|
<ele>15.428822</ele>
|
|
<time>2026-07-17T16:14:54.000Z</time>
|
|
</trkpt>
|
|
<trkpt lat="57.549925" lon="10.415690">
|
|
<ele>15.453299</ele>
|
|
<time>2026-07-17T16:14:55.000Z</time>
|
|
</trkpt>
|
|
<trkpt lat="57.549868" lon="10.415638">
|
|
<ele>15.478409</ele>
|
|
<time>2026-07-17T16:14:56.000Z</time>
|
|
</trkpt>
|
|
<trkpt lat="57.549813" lon="10.415586">
|
|
<ele>15.502810</ele>
|
|
<time>2026-07-17T16:14:57.000Z</time>
|
|
</trkpt>
|
|
<trkpt lat="57.549757" lon="10.415535">
|
|
<ele>15.527472</ele>
|
|
<time>2026-07-17T16:14:58.000Z</time>
|
|
</trkpt>
|
|
<trkpt lat="57.549702" lon="10.415483">
|
|
<ele>15.551873</ele>
|
|
<time>2026-07-17T16:14:59.000Z</time>
|
|
</trkpt>
|
|
<trkpt lat="57.549646" lon="10.415433">
|
|
<ele>15.576442</ele>
|
|
<time>2026-07-17T16:15:00.000Z</time>
|
|
</trkpt>
|
|
<trkpt lat="57.549592" lon="10.415384">
|
|
<ele>15.600206</ele>
|
|
<time>2026-07-17T16:15:01.000Z</time>
|
|
</trkpt>
|
|
<trkpt lat="57.549536" lon="10.415334">
|
|
<ele>15.624774</ele>
|
|
<time>2026-07-17T16:15:02.000Z</time>
|
|
</trkpt>
|
|
<trkpt lat="57.549482" lon="10.415285">
|
|
<ele>15.648538</ele>
|
|
<time>2026-07-17T16:15:03.000Z</time>
|
|
</trkpt>
|
|
<trkpt lat="57.549427" lon="10.415237">
|
|
<ele>15.672567</ele>
|
|
<time>2026-07-17T16:15:04.000Z</time>
|
|
</trkpt>
|
|
<trkpt lat="57.549374" lon="10.415187">
|
|
<ele>15.696071</ele>
|
|
<time>2026-07-17T16:15:05.000Z</time>
|
|
</trkpt>
|
|
<trkpt lat="57.549320" lon="10.415140">
|
|
<ele>15.719652</ele>
|
|
<time>2026-07-17T16:15:06.000Z</time>
|
|
</trkpt>
|
|
<trkpt lat="57.549263" lon="10.415091">
|
|
<ele>15.744488</ele>
|
|
<time>2026-07-17T16:15:07.000Z</time>
|
|
</trkpt>
|
|
<trkpt lat="57.549207" lon="10.415041">
|
|
<ele>15.769057</ele>
|
|
<time>2026-07-17T16:15:08.000Z</time>
|
|
</trkpt>
|
|
<trkpt lat="57.549151" lon="10.414993">
|
|
<ele>15.793445</ele>
|
|
<time>2026-07-17T16:15:09.000Z</time>
|
|
</trkpt>
|
|
<trkpt lat="57.549093" lon="10.414944">
|
|
<ele>15.818642</ele>
|
|
<time>2026-07-17T16:15:10.000Z</time>
|
|
</trkpt>
|
|
<trkpt lat="57.549034" lon="10.414893">
|
|
<ele>15.844375</ele>
|
|
<time>2026-07-17T16:15:11.000Z</time>
|
|
</trkpt>
|
|
<trkpt lat="57.548978" lon="10.414843">
|
|
<ele>15.868943</ele>
|
|
<time>2026-07-17T16:15:12.000Z</time>
|
|
</trkpt>
|
|
<trkpt lat="57.548925" lon="10.414793">
|
|
<ele>15.892447</ele>
|
|
<time>2026-07-17T16:15:13.000Z</time>
|
|
</trkpt>
|
|
<trkpt lat="57.548870" lon="10.414744">
|
|
<ele>15.916567</ele>
|
|
<time>2026-07-17T16:15:14.000Z</time>
|
|
</trkpt>
|
|
<trkpt lat="57.548815" lon="10.414692">
|
|
<ele>15.940969</ele>
|
|
<time>2026-07-17T16:15:15.000Z</time>
|
|
</trkpt>
|
|
<trkpt lat="57.548760" lon="10.414641">
|
|
<ele>15.965275</ele>
|
|
<time>2026-07-17T16:15:16.000Z</time>
|
|
</trkpt>
|
|
<trkpt lat="57.548704" lon="10.414591">
|
|
<ele>16.003838</ele>
|
|
<time>2026-07-17T16:15:17.000Z</time>
|
|
</trkpt>
|
|
<trkpt lat="57.548651" lon="10.414542">
|
|
<ele>16.040666</ele>
|
|
<time>2026-07-17T16:15:18.000Z</time>
|
|
</trkpt>
|
|
<trkpt lat="57.548596" lon="10.414494">
|
|
<ele>16.078470</ele>
|
|
<time>2026-07-17T16:15:19.000Z</time>
|
|
</trkpt>
|
|
<trkpt lat="57.548540" lon="10.414446">
|
|
<ele>16.116839</ele>
|
|
<time>2026-07-17T16:15:20.000Z</time>
|
|
</trkpt>
|
|
<trkpt lat="57.548485" lon="10.414395">
|
|
<ele>16.155080</ele>
|
|
<time>2026-07-17T16:15:21.000Z</time>
|
|
</trkpt>
|
|
<trkpt lat="57.548429" lon="10.414346">
|
|
<ele>16.193589</ele>
|
|
<time>2026-07-17T16:15:22.000Z</time>
|
|
</trkpt>
|
|
<trkpt lat="57.548376" lon="10.414298">
|
|
<ele>16.230270</ele>
|
|
<time>2026-07-17T16:15:23.000Z</time>
|
|
</trkpt>
|
|
<trkpt lat="57.548322" lon="10.414248">
|
|
<ele>16.267804</ele>
|
|
<time>2026-07-17T16:15:24.000Z</time>
|
|
</trkpt>
|
|
<trkpt lat="57.548265" lon="10.414200">
|
|
<ele>16.306740</ele>
|
|
<time>2026-07-17T16:15:25.000Z</time>
|
|
</trkpt>
|
|
<trkpt lat="57.548212" lon="10.414154">
|
|
<ele>16.343134</ele>
|
|
<time>2026-07-17T16:15:26.000Z</time>
|
|
</trkpt>
|
|
<trkpt lat="57.548159" lon="10.414109">
|
|
<ele>16.379388</ele>
|
|
<time>2026-07-17T16:15:27.000Z</time>
|
|
</trkpt>
|
|
<trkpt lat="57.548106" lon="10.414065">
|
|
<ele>16.415505</ele>
|
|
<time>2026-07-17T16:15:28.000Z</time>
|
|
</trkpt>
|
|
<trkpt lat="57.548052" lon="10.414023">
|
|
<ele>16.451929</ele>
|
|
<time>2026-07-17T16:15:29.000Z</time>
|
|
</trkpt>
|
|
<trkpt lat="57.548001" lon="10.413983">
|
|
<ele>16.486372</ele>
|
|
<time>2026-07-17T16:15:30.000Z</time>
|
|
</trkpt>
|
|
<trkpt lat="57.547947" lon="10.413943">
|
|
<ele>16.522544</ele>
|
|
<time>2026-07-17T16:15:31.000Z</time>
|
|
</trkpt>
|
|
<trkpt lat="57.547889" lon="10.413903">
|
|
<ele>16.561041</ele>
|
|
<time>2026-07-17T16:15:32.000Z</time>
|
|
</trkpt>
|
|
<trkpt lat="57.547836" lon="10.413868">
|
|
<ele>16.596043</ele>
|
|
<time>2026-07-17T16:15:33.000Z</time>
|
|
</trkpt>
|
|
<trkpt lat="57.547780" lon="10.413833">
|
|
<ele>16.632810</ele>
|
|
<time>2026-07-17T16:15:34.000Z</time>
|
|
</trkpt>
|
|
<trkpt lat="57.547725" lon="10.413802">
|
|
<ele>16.668578</ele>
|
|
<time>2026-07-17T16:15:35.000Z</time>
|
|
</trkpt>
|
|
<trkpt lat="57.547670" lon="10.413773">
|
|
<ele>16.704158</ele>
|
|
<time>2026-07-17T16:15:36.000Z</time>
|
|
</trkpt>
|
|
<trkpt lat="57.547612" lon="10.413748">
|
|
<ele>16.741215</ele>
|
|
<time>2026-07-17T16:15:37.000Z</time>
|
|
</trkpt>
|
|
<trkpt lat="57.547556" lon="10.413727">
|
|
<ele>16.776773</ele>
|
|
<time>2026-07-17T16:15:38.000Z</time>
|
|
</trkpt>
|
|
<trkpt lat="57.547501" lon="10.413707">
|
|
<ele>16.811655</ele>
|
|
<time>2026-07-17T16:15:39.000Z</time>
|
|
</trkpt>
|
|
<trkpt lat="57.547445" lon="10.413687">
|
|
<ele>16.847148</ele>
|
|
<time>2026-07-17T16:15:40.000Z</time>
|
|
</trkpt>
|
|
<trkpt lat="57.547391" lon="10.413668">
|
|
<ele>16.881356</ele>
|
|
<time>2026-07-17T16:15:41.000Z</time>
|
|
</trkpt>
|
|
<trkpt lat="57.547334" lon="10.413648">
|
|
<ele>16.917461</ele>
|
|
<time>2026-07-17T16:15:42.000Z</time>
|
|
</trkpt>
|
|
<trkpt lat="57.547277" lon="10.413630">
|
|
<ele>16.953448</ele>
|
|
<time>2026-07-17T16:15:43.000Z</time>
|
|
</trkpt>
|
|
<trkpt lat="57.547222" lon="10.413617">
|
|
<ele>16.987959</ele>
|
|
<time>2026-07-17T16:15:44.000Z</time>
|
|
</trkpt>
|
|
<trkpt lat="57.547165" lon="10.413605">
|
|
<ele>17.023666</ele>
|
|
<time>2026-07-17T16:15:45.000Z</time>
|
|
</trkpt>
|
|
<trkpt lat="57.547108" lon="10.413592">
|
|
<ele>17.059412</ele>
|
|
<time>2026-07-17T16:15:46.000Z</time>
|
|
</trkpt>
|
|
<trkpt lat="57.547052" lon="10.413579">
|
|
<ele>17.088386</ele>
|
|
<time>2026-07-17T16:15:47.000Z</time>
|
|
</trkpt>
|
|
<trkpt lat="57.546998" lon="10.413568">
|
|
<ele>17.100260</ele>
|
|
<time>2026-07-17T16:15:48.000Z</time>
|
|
</trkpt>
|
|
<trkpt lat="57.546941" lon="10.413558">
|
|
<ele>17.112775</ele>
|
|
<time>2026-07-17T16:15:49.000Z</time>
|
|
</trkpt>
|
|
<trkpt lat="57.546884" lon="10.413549">
|
|
<ele>17.125279</ele>
|
|
<time>2026-07-17T16:15:50.000Z</time>
|
|
</trkpt>
|
|
<trkpt lat="57.546825" lon="10.413541">
|
|
<ele>17.138210</ele>
|
|
<time>2026-07-17T16:15:51.000Z</time>
|
|
</trkpt>
|
|
<trkpt lat="57.546766" lon="10.413532">
|
|
<ele>17.151150</ele>
|
|
<time>2026-07-17T16:15:52.000Z</time>
|
|
</trkpt>
|
|
<trkpt lat="57.546707" lon="10.413524">
|
|
<ele>17.164081</ele>
|
|
<time>2026-07-17T16:15:53.000Z</time>
|
|
</trkpt>
|
|
<trkpt lat="57.546652" lon="10.413518">
|
|
<ele>17.176124</ele>
|
|
<time>2026-07-17T16:15:54.000Z</time>
|
|
</trkpt>
|
|
<trkpt lat="57.546597" lon="10.413513">
|
|
<ele>17.188161</ele>
|
|
<time>2026-07-17T16:15:55.000Z</time>
|
|
</trkpt>
|
|
<trkpt lat="57.546540" lon="10.413508">
|
|
<ele>17.200634</ele>
|
|
<time>2026-07-17T16:15:56.000Z</time>
|
|
</trkpt>
|
|
<trkpt lat="57.546484" lon="10.413500">
|
|
<ele>17.212911</ele>
|
|
<time>2026-07-17T16:15:57.000Z</time>
|
|
</trkpt>
|
|
<trkpt lat="57.546427" lon="10.413491">
|
|
<ele>17.225416</ele>
|
|
<time>2026-07-17T16:15:58.000Z</time>
|
|
</trkpt>
|
|
<trkpt lat="57.546370" lon="10.413485">
|
|
<ele>17.237895</ele>
|
|
<time>2026-07-17T16:15:59.000Z</time>
|
|
</trkpt>
|
|
<trkpt lat="57.546314" lon="10.413480">
|
|
<ele>17.250151</ele>
|
|
<time>2026-07-17T16:16:00.000Z</time>
|
|
</trkpt>
|
|
<trkpt lat="57.546254" lon="10.413474">
|
|
<ele>17.263285</ele>
|
|
<time>2026-07-17T16:16:01.000Z</time>
|
|
</trkpt>
|
|
<trkpt lat="57.546195" lon="10.413468">
|
|
<ele>17.276201</ele>
|
|
<time>2026-07-17T16:16:02.000Z</time>
|
|
</trkpt>
|
|
<trkpt lat="57.546137" lon="10.413462">
|
|
<ele>17.288899</ele>
|
|
<time>2026-07-17T16:16:03.000Z</time>
|
|
</trkpt>
|
|
<trkpt lat="57.546078" lon="10.413455">
|
|
<ele>17.301822</ele>
|
|
<time>2026-07-17T16:16:04.000Z</time>
|
|
</trkpt>
|
|
<trkpt lat="57.546019" lon="10.413448">
|
|
<ele>17.314745</ele>
|
|
<time>2026-07-17T16:16:05.000Z</time>
|
|
</trkpt>
|
|
<trkpt lat="57.545958" lon="10.413441">
|
|
<ele>17.328104</ele>
|
|
<time>2026-07-17T16:16:06.000Z</time>
|
|
</trkpt>
|
|
<trkpt lat="57.545897" lon="10.413434">
|
|
<ele>17.341463</ele>
|
|
<time>2026-07-17T16:16:07.000Z</time>
|
|
</trkpt>
|
|
<trkpt lat="57.545837" lon="10.413428">
|
|
<ele>17.354598</ele>
|
|
<time>2026-07-17T16:16:08.000Z</time>
|
|
</trkpt>
|
|
<trkpt lat="57.545777" lon="10.413420">
|
|
<ele>17.367747</ele>
|
|
<time>2026-07-17T16:16:09.000Z</time>
|
|
</trkpt>
|
|
<trkpt lat="57.545717" lon="10.413413">
|
|
<ele>17.380888</ele>
|
|
<time>2026-07-17T16:16:10.000Z</time>
|
|
</trkpt>
|
|
<trkpt lat="57.545654" lon="10.413406">
|
|
<ele>17.394684</ele>
|
|
<time>2026-07-17T16:16:11.000Z</time>
|
|
</trkpt>
|
|
<trkpt lat="57.545592" lon="10.413399">
|
|
<ele>17.408261</ele>
|
|
<time>2026-07-17T16:16:12.000Z</time>
|
|
</trkpt>
|
|
<trkpt lat="57.545532" lon="10.413391">
|
|
<ele>17.421410</ele>
|
|
<time>2026-07-17T16:16:13.000Z</time>
|
|
</trkpt>
|
|
<trkpt lat="57.545473" lon="10.413382">
|
|
<ele>17.434350</ele>
|
|
<time>2026-07-17T16:16:14.000Z</time>
|
|
</trkpt>
|
|
<trkpt lat="57.545415" lon="10.413373">
|
|
<ele>17.447072</ele>
|
|
<time>2026-07-17T16:16:15.000Z</time>
|
|
</trkpt>
|
|
<trkpt lat="57.545362" lon="10.413365">
|
|
<ele>17.458696</ele>
|
|
<time>2026-07-17T16:16:16.000Z</time>
|
|
</trkpt>
|
|
<trkpt lat="57.545309" lon="10.413358">
|
|
<ele>17.470310</ele>
|
|
<time>2026-07-17T16:16:17.000Z</time>
|
|
</trkpt>
|
|
<trkpt lat="57.545254" lon="10.413354">
|
|
<ele>17.487141</ele>
|
|
<time>2026-07-17T16:16:18.000Z</time>
|
|
</trkpt>
|
|
<trkpt lat="57.545197" lon="10.413352">
|
|
<ele>17.514123</ele>
|
|
<time>2026-07-17T16:16:19.000Z</time>
|
|
</trkpt>
|
|
<trkpt lat="57.545143" lon="10.413349">
|
|
<ele>17.539691</ele>
|
|
<time>2026-07-17T16:16:20.000Z</time>
|
|
</trkpt>
|
|
<trkpt lat="57.545091" lon="10.413344">
|
|
<ele>17.564335</ele>
|
|
<time>2026-07-17T16:16:21.000Z</time>
|
|
</trkpt>
|
|
<trkpt lat="57.545034" lon="10.413339">
|
|
<ele>17.591341</ele>
|
|
<time>2026-07-17T16:16:22.000Z</time>
|
|
</trkpt>
|
|
<trkpt lat="57.544978" lon="10.413332">
|
|
<ele>17.617904</ele>
|
|
<time>2026-07-17T16:16:23.000Z</time>
|
|
</trkpt>
|
|
<trkpt lat="57.544912" lon="10.413328">
|
|
<ele>17.649157</ele>
|
|
<time>2026-07-17T16:16:24.000Z</time>
|
|
</trkpt>
|
|
<trkpt lat="57.544856" lon="10.413327">
|
|
<ele>17.675662</ele>
|
|
<time>2026-07-17T16:16:25.000Z</time>
|
|
</trkpt>
|
|
<trkpt lat="57.544793" lon="10.413325">
|
|
<ele>17.705483</ele>
|
|
<time>2026-07-17T16:16:26.000Z</time>
|
|
</trkpt>
|
|
<trkpt lat="57.544726" lon="10.413323">
|
|
<ele>17.737196</ele>
|
|
<time>2026-07-17T16:16:27.000Z</time>
|
|
</trkpt>
|
|
<trkpt lat="57.544659" lon="10.413322">
|
|
<ele>17.768907</ele>
|
|
<time>2026-07-17T16:16:28.000Z</time>
|
|
</trkpt>
|
|
<trkpt lat="57.544596" lon="10.413326">
|
|
<ele>17.798741</ele>
|
|
<time>2026-07-17T16:16:29.000Z</time>
|
|
</trkpt>
|
|
<trkpt lat="57.544531" lon="10.413332">
|
|
<ele>17.829542</ele>
|
|
<time>2026-07-17T16:16:30.000Z</time>
|
|
</trkpt>
|
|
<trkpt lat="57.544465" lon="10.413338">
|
|
<ele>17.860815</ele>
|
|
<time>2026-07-17T16:16:31.000Z</time>
|
|
</trkpt>
|
|
<trkpt lat="57.544401" lon="10.413346">
|
|
<ele>17.891173</ele>
|
|
<time>2026-07-17T16:16:32.000Z</time>
|
|
</trkpt>
|
|
<trkpt lat="57.544336" lon="10.413355">
|
|
<ele>17.922021</ele>
|
|
<time>2026-07-17T16:16:33.000Z</time>
|
|
</trkpt>
|
|
<trkpt lat="57.544272" lon="10.413368">
|
|
<ele>17.952490</ele>
|
|
<time>2026-07-17T16:16:34.000Z</time>
|
|
</trkpt>
|
|
<trkpt lat="57.544209" lon="10.413387">
|
|
<ele>17.982695</ele>
|
|
<time>2026-07-17T16:16:35.000Z</time>
|
|
</trkpt>
|
|
<trkpt lat="57.544145" lon="10.413408">
|
|
<ele>18.013450</ele>
|
|
<time>2026-07-17T16:16:36.000Z</time>
|
|
</trkpt>
|
|
<trkpt lat="57.544082" lon="10.413429">
|
|
<ele>18.043740</ele>
|
|
<time>2026-07-17T16:16:37.000Z</time>
|
|
</trkpt>
|
|
<trkpt lat="57.544021" lon="10.413449">
|
|
<ele>18.073054</ele>
|
|
<time>2026-07-17T16:16:38.000Z</time>
|
|
</trkpt>
|
|
<trkpt lat="57.543960" lon="10.413471">
|
|
<ele>18.102459</ele>
|
|
<time>2026-07-17T16:16:39.000Z</time>
|
|
</trkpt>
|
|
<trkpt lat="57.543899" lon="10.413498">
|
|
<ele>18.132133</ele>
|
|
<time>2026-07-17T16:16:40.000Z</time>
|
|
</trkpt>
|
|
<trkpt lat="57.543837" lon="10.413530">
|
|
<ele>18.162581</ele>
|
|
<time>2026-07-17T16:16:41.000Z</time>
|
|
</trkpt>
|
|
<trkpt lat="57.543778" lon="10.413563">
|
|
<ele>18.191735</ele>
|
|
<time>2026-07-17T16:16:42.000Z</time>
|
|
</trkpt>
|
|
<trkpt lat="57.543719" lon="10.413598">
|
|
<ele>18.221039</ele>
|
|
<time>2026-07-17T16:16:43.000Z</time>
|
|
</trkpt>
|
|
<trkpt lat="57.543658" lon="10.413634">
|
|
<ele>18.251322</ele>
|
|
<time>2026-07-17T16:16:44.000Z</time>
|
|
</trkpt>
|
|
<trkpt lat="57.543600" lon="10.413666">
|
|
<ele>18.279950</ele>
|
|
<time>2026-07-17T16:16:45.000Z</time>
|
|
</trkpt>
|
|
<trkpt lat="57.543541" lon="10.413697">
|
|
<ele>18.308963</ele>
|
|
<time>2026-07-17T16:16:46.000Z</time>
|
|
</trkpt>
|
|
<trkpt lat="57.543488" lon="10.413727">
|
|
<ele>18.332662</ele>
|
|
<time>2026-07-17T16:16:47.000Z</time>
|
|
</trkpt>
|
|
<trkpt lat="57.543437" lon="10.413757">
|
|
<ele>18.346797</ele>
|
|
<time>2026-07-17T16:16:48.000Z</time>
|
|
</trkpt>
|
|
<trkpt lat="57.543371" lon="10.413797">
|
|
<ele>18.365140</ele>
|
|
<time>2026-07-17T16:16:49.000Z</time>
|
|
</trkpt>
|
|
<trkpt lat="57.543316" lon="10.413832">
|
|
<ele>18.380500</ele>
|
|
<time>2026-07-17T16:16:50.000Z</time>
|
|
</trkpt>
|
|
<trkpt lat="57.543260" lon="10.413868">
|
|
<ele>18.396157</ele>
|
|
<time>2026-07-17T16:16:51.000Z</time>
|
|
</trkpt>
|
|
<trkpt lat="57.543208" lon="10.413900">
|
|
<ele>18.410630</ele>
|
|
<time>2026-07-17T16:16:52.000Z</time>
|
|
</trkpt>
|
|
<trkpt lat="57.543161" lon="10.413927">
|
|
<ele>18.423629</ele>
|
|
<time>2026-07-17T16:16:53.000Z</time>
|
|
</trkpt>
|
|
<trkpt lat="57.543114" lon="10.413954">
|
|
<ele>18.436628</ele>
|
|
<time>2026-07-17T16:16:54.000Z</time>
|
|
</trkpt>
|
|
<trkpt lat="57.543068" lon="10.413980">
|
|
<ele>18.449333</ele>
|
|
<time>2026-07-17T16:16:55.000Z</time>
|
|
</trkpt>
|
|
<trkpt lat="57.543029" lon="10.414005">
|
|
<ele>18.460233</ele>
|
|
<time>2026-07-17T16:16:56.000Z</time>
|
|
</trkpt>
|
|
<trkpt lat="57.542991" lon="10.414027">
|
|
<ele>18.470750</ele>
|
|
<time>2026-07-17T16:16:57.000Z</time>
|
|
</trkpt>
|
|
<trkpt lat="57.542957" lon="10.414045">
|
|
<ele>18.480091</ele>
|
|
<time>2026-07-17T16:16:58.000Z</time>
|
|
</trkpt>
|
|
<trkpt lat="57.542929" lon="10.414061">
|
|
<ele>18.487832</ele>
|
|
<time>2026-07-17T16:16:59.000Z</time>
|
|
</trkpt>
|
|
<trkpt lat="57.542908" lon="10.414072">
|
|
<ele>18.493597</ele>
|
|
<time>2026-07-17T16:17:00.000Z</time>
|
|
</trkpt>
|
|
<trkpt lat="57.542890" lon="10.414076">
|
|
<ele>18.498388</ele>
|
|
<time>2026-07-17T16:17:01.000Z</time>
|
|
</trkpt>
|
|
<trkpt lat="57.542878" lon="10.414078">
|
|
<ele>18.501572</ele>
|
|
<time>2026-07-17T16:17:02.000Z</time>
|
|
</trkpt>
|
|
<trkpt lat="57.542679" lon="10.414197">
|
|
<ele>18.556809</ele>
|
|
<time>2026-07-17T16:23:14.000Z</time>
|
|
</trkpt>
|
|
<trkpt lat="57.542642" lon="10.414215">
|
|
<ele>18.566916</ele>
|
|
<time>2026-07-17T16:23:15.000Z</time>
|
|
</trkpt>
|
|
<trkpt lat="57.542602" lon="10.414236">
|
|
<ele>18.577899</ele>
|
|
<time>2026-07-17T16:23:16.000Z</time>
|
|
</trkpt>
|
|
<trkpt lat="57.542562" lon="10.414258">
|
|
<ele>18.588922</ele>
|
|
<time>2026-07-17T16:23:17.000Z</time>
|
|
</trkpt>
|
|
<trkpt lat="57.542521" lon="10.414281">
|
|
<ele>18.600238</ele>
|
|
<time>2026-07-17T16:23:18.000Z</time>
|
|
</trkpt>
|
|
<trkpt lat="57.542477" lon="10.414306">
|
|
<ele>18.612396</ele>
|
|
<time>2026-07-17T16:23:19.000Z</time>
|
|
</trkpt>
|
|
<trkpt lat="57.542433" lon="10.414331">
|
|
<ele>18.624554</ele>
|
|
<time>2026-07-17T16:23:20.000Z</time>
|
|
</trkpt>
|
|
<trkpt lat="57.542389" lon="10.414356">
|
|
<ele>18.636711</ele>
|
|
<time>2026-07-17T16:23:21.000Z</time>
|
|
</trkpt>
|
|
<trkpt lat="57.542343" lon="10.414386">
|
|
<ele>18.649592</ele>
|
|
<time>2026-07-17T16:23:22.000Z</time>
|
|
</trkpt>
|
|
<trkpt lat="57.542296" lon="10.414416">
|
|
<ele>18.662722</ele>
|
|
<time>2026-07-17T16:23:23.000Z</time>
|
|
</trkpt>
|
|
<trkpt lat="57.542247" lon="10.414449">
|
|
<ele>18.676493</ele>
|
|
<time>2026-07-17T16:23:24.000Z</time>
|
|
</trkpt>
|
|
<trkpt lat="57.542199" lon="10.414476">
|
|
<ele>18.689745</ele>
|
|
<time>2026-07-17T16:23:25.000Z</time>
|
|
</trkpt>
|
|
<trkpt lat="57.542153" lon="10.414500">
|
|
<ele>18.702370</ele>
|
|
<time>2026-07-17T16:23:26.000Z</time>
|
|
</trkpt>
|
|
<trkpt lat="57.542105" lon="10.414524">
|
|
<ele>18.715505</ele>
|
|
<time>2026-07-17T16:23:27.000Z</time>
|
|
</trkpt>
|
|
<trkpt lat="57.542061" lon="10.414547">
|
|
<ele>18.727583</ele>
|
|
<time>2026-07-17T16:23:28.000Z</time>
|
|
</trkpt>
|
|
<trkpt lat="57.542023" lon="10.414570">
|
|
<ele>18.738142</ele>
|
|
<time>2026-07-17T16:23:29.000Z</time>
|
|
</trkpt>
|
|
<trkpt lat="57.541978" lon="10.414596">
|
|
<ele>18.750594</ele>
|
|
<time>2026-07-17T16:23:30.000Z</time>
|
|
</trkpt>
|
|
<trkpt lat="57.541923" lon="10.414631">
|
|
<ele>18.765955</ele>
|
|
<time>2026-07-17T16:23:31.000Z</time>
|
|
</trkpt>
|
|
<trkpt lat="57.541880" lon="10.414657">
|
|
<ele>18.777903</ele>
|
|
<time>2026-07-17T16:23:32.000Z</time>
|
|
</trkpt>
|
|
<trkpt lat="57.541829" lon="10.414684">
|
|
<ele>18.791916</ele>
|
|
<time>2026-07-17T16:23:33.000Z</time>
|
|
</trkpt>
|
|
<trkpt lat="57.541782" lon="10.414708">
|
|
<ele>18.804795</ele>
|
|
<time>2026-07-17T16:23:34.000Z</time>
|
|
</trkpt>
|
|
<trkpt lat="57.541731" lon="10.414740">
|
|
<ele>18.800216</ele>
|
|
<time>2026-07-17T16:23:35.000Z</time>
|
|
</trkpt>
|
|
<trkpt lat="57.541681" lon="10.414770">
|
|
<ele>18.795671</ele>
|
|
<time>2026-07-17T16:23:36.000Z</time>
|
|
</trkpt>
|
|
<trkpt lat="57.541632" lon="10.414799">
|
|
<ele>18.791223</ele>
|
|
<time>2026-07-17T16:23:37.000Z</time>
|
|
</trkpt>
|
|
<trkpt lat="57.541585" lon="10.414830">
|
|
<ele>18.786909</ele>
|
|
<time>2026-07-17T16:23:38.000Z</time>
|
|
</trkpt>
|
|
<trkpt lat="57.541539" lon="10.414860">
|
|
<ele>18.782692</ele>
|
|
<time>2026-07-17T16:23:39.000Z</time>
|
|
</trkpt>
|
|
<trkpt lat="57.541491" lon="10.414889">
|
|
<ele>18.778327</ele>
|
|
<time>2026-07-17T16:23:40.000Z</time>
|
|
</trkpt>
|
|
<trkpt lat="57.541442" lon="10.414918">
|
|
<ele>18.773878</ele>
|
|
<time>2026-07-17T16:23:41.000Z</time>
|
|
</trkpt>
|
|
<trkpt lat="57.541393" lon="10.414947">
|
|
<ele>18.769430</ele>
|
|
<time>2026-07-17T16:23:42.000Z</time>
|
|
</trkpt>
|
|
<trkpt lat="57.541343" lon="10.414978">
|
|
<ele>18.764871</ele>
|
|
<time>2026-07-17T16:23:43.000Z</time>
|
|
</trkpt>
|
|
<trkpt lat="57.541291" lon="10.415014">
|
|
<ele>18.760072</ele>
|
|
<time>2026-07-17T16:23:44.000Z</time>
|
|
</trkpt>
|
|
<trkpt lat="57.541239" lon="10.415052">
|
|
<ele>18.755239</ele>
|
|
<time>2026-07-17T16:23:45.000Z</time>
|
|
</trkpt>
|
|
<trkpt lat="57.541188" lon="10.415088">
|
|
<ele>18.750520</ele>
|
|
<time>2026-07-17T16:23:46.000Z</time>
|
|
</trkpt>
|
|
<trkpt lat="57.541137" lon="10.415121">
|
|
<ele>18.745849</ele>
|
|
<time>2026-07-17T16:23:47.000Z</time>
|
|
</trkpt>
|
|
<trkpt lat="57.541087" lon="10.415156">
|
|
<ele>18.741228</ele>
|
|
<time>2026-07-17T16:23:48.000Z</time>
|
|
</trkpt>
|
|
<trkpt lat="57.541039" lon="10.415190">
|
|
<ele>18.736785</ele>
|
|
<time>2026-07-17T16:23:49.000Z</time>
|
|
</trkpt>
|
|
<trkpt lat="57.540992" lon="10.415225">
|
|
<ele>18.732406</ele>
|
|
<time>2026-07-17T16:23:50.000Z</time>
|
|
</trkpt>
|
|
<trkpt lat="57.540939" lon="10.415257">
|
|
<ele>18.727586</ele>
|
|
<time>2026-07-17T16:23:51.000Z</time>
|
|
</trkpt>
|
|
<trkpt lat="57.540888" lon="10.415285">
|
|
<ele>18.722986</ele>
|
|
<time>2026-07-17T16:23:52.000Z</time>
|
|
</trkpt>
|
|
<trkpt lat="57.540839" lon="10.415313">
|
|
<ele>18.718552</ele>
|
|
<time>2026-07-17T16:23:53.000Z</time>
|
|
</trkpt>
|
|
<trkpt lat="57.540787" lon="10.415343">
|
|
<ele>18.713842</ele>
|
|
<time>2026-07-17T16:23:54.000Z</time>
|
|
</trkpt>
|
|
<trkpt lat="57.540736" lon="10.415373">
|
|
<ele>18.709215</ele>
|
|
<time>2026-07-17T16:23:55.000Z</time>
|
|
</trkpt>
|
|
<trkpt lat="57.540687" lon="10.415403">
|
|
<ele>18.704752</ele>
|
|
<time>2026-07-17T16:23:56.000Z</time>
|
|
</trkpt>
|
|
<trkpt lat="57.540637" lon="10.415432">
|
|
<ele>18.700221</ele>
|
|
<time>2026-07-17T16:23:57.000Z</time>
|
|
</trkpt>
|
|
<trkpt lat="57.540587" lon="10.415459">
|
|
<ele>18.695718</ele>
|
|
<time>2026-07-17T16:23:58.000Z</time>
|
|
</trkpt>
|
|
<trkpt lat="57.540536" lon="10.415483">
|
|
<ele>18.691166</ele>
|
|
<time>2026-07-17T16:23:59.000Z</time>
|
|
</trkpt>
|
|
<trkpt lat="57.540485" lon="10.415507">
|
|
<ele>18.686615</ele>
|
|
<time>2026-07-17T16:24:00.000Z</time>
|
|
</trkpt>
|
|
<trkpt lat="57.540435" lon="10.415535">
|
|
<ele>18.682098</ele>
|
|
<time>2026-07-17T16:24:01.000Z</time>
|
|
</trkpt>
|
|
<trkpt lat="57.540386" lon="10.415566">
|
|
<ele>18.677621</ele>
|
|
<time>2026-07-17T16:24:02.000Z</time>
|
|
</trkpt>
|
|
<trkpt lat="57.540339" lon="10.415597">
|
|
<ele>18.673307</ele>
|
|
<time>2026-07-17T16:24:03.000Z</time>
|
|
</trkpt>
|
|
<trkpt lat="57.540289" lon="10.415628">
|
|
<ele>18.668748</ele>
|
|
<time>2026-07-17T16:24:04.000Z</time>
|
|
</trkpt>
|
|
<trkpt lat="57.540238" lon="10.415658">
|
|
<ele>18.664121</ele>
|
|
<time>2026-07-17T16:24:05.000Z</time>
|
|
</trkpt>
|
|
<trkpt lat="57.540186" lon="10.415689">
|
|
<ele>18.659397</ele>
|
|
<time>2026-07-17T16:24:06.000Z</time>
|
|
</trkpt>
|
|
<trkpt lat="57.540136" lon="10.415722">
|
|
<ele>18.654808</ele>
|
|
<time>2026-07-17T16:24:07.000Z</time>
|
|
</trkpt>
|
|
<trkpt lat="57.540085" lon="10.415756">
|
|
<ele>18.650122</ele>
|
|
<time>2026-07-17T16:24:08.000Z</time>
|
|
</trkpt>
|
|
<trkpt lat="57.540033" lon="10.415790">
|
|
<ele>18.646028</ele>
|
|
<time>2026-07-17T16:24:09.000Z</time>
|
|
</trkpt>
|
|
<trkpt lat="57.539980" lon="10.415823">
|
|
<ele>18.642033</ele>
|
|
<time>2026-07-17T16:24:10.000Z</time>
|
|
</trkpt>
|
|
<trkpt lat="57.539922" lon="10.415856">
|
|
<ele>18.637698</ele>
|
|
<time>2026-07-17T16:24:11.000Z</time>
|
|
</trkpt>
|
|
<trkpt lat="57.539866" lon="10.415888">
|
|
<ele>18.633511</ele>
|
|
<time>2026-07-17T16:24:12.000Z</time>
|
|
</trkpt>
|
|
<trkpt lat="57.539815" lon="10.415922">
|
|
<ele>18.629639</ele>
|
|
<time>2026-07-17T16:24:13.000Z</time>
|
|
</trkpt>
|
|
<trkpt lat="57.539760" lon="10.415958">
|
|
<ele>18.625472</ele>
|
|
<time>2026-07-17T16:24:14.000Z</time>
|
|
</trkpt>
|
|
<trkpt lat="57.539704" lon="10.415992">
|
|
<ele>18.621261</ele>
|
|
<time>2026-07-17T16:24:15.000Z</time>
|
|
</trkpt>
|
|
<trkpt lat="57.539649" lon="10.416024">
|
|
<ele>18.617142</ele>
|
|
<time>2026-07-17T16:24:16.000Z</time>
|
|
</trkpt>
|
|
<trkpt lat="57.539595" lon="10.416055">
|
|
<ele>18.613103</ele>
|
|
<time>2026-07-17T16:24:17.000Z</time>
|
|
</trkpt>
|
|
<trkpt lat="57.539542" lon="10.416086">
|
|
<ele>18.609132</ele>
|
|
<time>2026-07-17T16:24:18.000Z</time>
|
|
</trkpt>
|
|
<trkpt lat="57.539485" lon="10.416120">
|
|
<ele>18.604854</ele>
|
|
<time>2026-07-17T16:24:19.000Z</time>
|
|
</trkpt>
|
|
<trkpt lat="57.539429" lon="10.416150">
|
|
<ele>18.600688</ele>
|
|
<time>2026-07-17T16:24:20.000Z</time>
|
|
</trkpt>
|
|
<trkpt lat="57.539376" lon="10.416180">
|
|
<ele>18.596729</ele>
|
|
<time>2026-07-17T16:24:21.000Z</time>
|
|
</trkpt>
|
|
<trkpt lat="57.539327" lon="10.416208">
|
|
<ele>18.593065</ele>
|
|
<time>2026-07-17T16:24:22.000Z</time>
|
|
</trkpt>
|
|
<trkpt lat="57.539281" lon="10.416234">
|
|
<ele>18.589629</ele>
|
|
<time>2026-07-17T16:24:23.000Z</time>
|
|
</trkpt>
|
|
<trkpt lat="57.539216" lon="10.416271">
|
|
<ele>18.584770</ele>
|
|
<time>2026-07-17T16:24:24.000Z</time>
|
|
</trkpt>
|
|
<trkpt lat="57.539163" lon="10.416301">
|
|
<ele>18.580810</ele>
|
|
<time>2026-07-17T16:24:25.000Z</time>
|
|
</trkpt>
|
|
<trkpt lat="57.539109" lon="10.416329">
|
|
<ele>18.576803</ele>
|
|
<time>2026-07-17T16:24:26.000Z</time>
|
|
</trkpt>
|
|
<trkpt lat="57.539056" lon="10.416359">
|
|
<ele>18.572844</ele>
|
|
<time>2026-07-17T16:24:27.000Z</time>
|
|
</trkpt>
|
|
<trkpt lat="57.539003" lon="10.416392">
|
|
<ele>18.568849</ele>
|
|
<time>2026-07-17T16:24:28.000Z</time>
|
|
</trkpt>
|
|
<trkpt lat="57.538947" lon="10.416427">
|
|
<ele>18.564627</ele>
|
|
<time>2026-07-17T16:24:29.000Z</time>
|
|
</trkpt>
|
|
<trkpt lat="57.538891" lon="10.416459">
|
|
<ele>18.560439</ele>
|
|
<time>2026-07-17T16:24:30.000Z</time>
|
|
</trkpt>
|
|
<trkpt lat="57.538839" lon="10.416489">
|
|
<ele>18.556548</ele>
|
|
<time>2026-07-17T16:24:31.000Z</time>
|
|
</trkpt>
|
|
<trkpt lat="57.538790" lon="10.416518">
|
|
<ele>18.552873</ele>
|
|
<time>2026-07-17T16:24:32.000Z</time>
|
|
</trkpt>
|
|
<trkpt lat="57.538741" lon="10.416545">
|
|
<ele>18.549220</ele>
|
|
<time>2026-07-17T16:24:33.000Z</time>
|
|
</trkpt>
|
|
<trkpt lat="57.538690" lon="10.416572">
|
|
<ele>18.545430</ele>
|
|
<time>2026-07-17T16:24:34.000Z</time>
|
|
</trkpt>
|
|
<trkpt lat="57.538639" lon="10.416604">
|
|
<ele>18.541583</ele>
|
|
<time>2026-07-17T16:24:35.000Z</time>
|
|
</trkpt>
|
|
<trkpt lat="57.538592" lon="10.416638">
|
|
<ele>18.537979</ele>
|
|
<time>2026-07-17T16:24:36.000Z</time>
|
|
</trkpt>
|
|
<trkpt lat="57.538543" lon="10.416676">
|
|
<ele>18.534185</ele>
|
|
<time>2026-07-17T16:24:37.000Z</time>
|
|
</trkpt>
|
|
<trkpt lat="57.538494" lon="10.416717">
|
|
<ele>18.530345</ele>
|
|
<time>2026-07-17T16:24:38.000Z</time>
|
|
</trkpt>
|
|
<trkpt lat="57.538448" lon="10.416762">
|
|
<ele>18.526631</ele>
|
|
<time>2026-07-17T16:24:39.000Z</time>
|
|
</trkpt>
|
|
<trkpt lat="57.538401" lon="10.416810">
|
|
<ele>18.522799</ele>
|
|
<time>2026-07-17T16:24:40.000Z</time>
|
|
</trkpt>
|
|
<trkpt lat="57.538355" lon="10.416856">
|
|
<ele>18.514770</ele>
|
|
<time>2026-07-17T16:24:41.000Z</time>
|
|
</trkpt>
|
|
<trkpt lat="57.538307" lon="10.416896">
|
|
<ele>18.500863</ele>
|
|
<time>2026-07-17T16:24:42.000Z</time>
|
|
</trkpt>
|
|
<trkpt lat="57.538255" lon="10.416934">
|
|
<ele>18.486089</ele>
|
|
<time>2026-07-17T16:24:43.000Z</time>
|
|
</trkpt>
|
|
<trkpt lat="57.538210" lon="10.416969">
|
|
<ele>18.473191</ele>
|
|
<time>2026-07-17T16:24:44.000Z</time>
|
|
</trkpt>
|
|
<trkpt lat="57.538155" lon="10.417010">
|
|
<ele>18.457523</ele>
|
|
<time>2026-07-17T16:24:45.000Z</time>
|
|
</trkpt>
|
|
<trkpt lat="57.538102" lon="10.417051">
|
|
<ele>18.442345</ele>
|
|
<time>2026-07-17T16:24:46.000Z</time>
|
|
</trkpt>
|
|
<trkpt lat="57.538049" lon="10.417092">
|
|
<ele>18.427166</ele>
|
|
<time>2026-07-17T16:24:47.000Z</time>
|
|
</trkpt>
|
|
<trkpt lat="57.537998" lon="10.417133">
|
|
<ele>18.412475</ele>
|
|
<time>2026-07-17T16:24:48.000Z</time>
|
|
</trkpt>
|
|
<trkpt lat="57.537947" lon="10.417171">
|
|
<ele>18.397947</ele>
|
|
<time>2026-07-17T16:24:49.000Z</time>
|
|
</trkpt>
|
|
<trkpt lat="57.537894" lon="10.417212">
|
|
<ele>18.382769</ele>
|
|
<time>2026-07-17T16:24:50.000Z</time>
|
|
</trkpt>
|
|
<trkpt lat="57.537845" lon="10.417250">
|
|
<ele>18.368731</ele>
|
|
<time>2026-07-17T16:24:51.000Z</time>
|
|
</trkpt>
|
|
<trkpt lat="57.537793" lon="10.417288">
|
|
<ele>18.353957</ele>
|
|
<time>2026-07-17T16:24:52.000Z</time>
|
|
</trkpt>
|
|
<trkpt lat="57.537741" lon="10.417328">
|
|
<ele>18.339078</ele>
|
|
<time>2026-07-17T16:24:53.000Z</time>
|
|
</trkpt>
|
|
<trkpt lat="57.537691" lon="10.417369">
|
|
<ele>18.324629</ele>
|
|
<time>2026-07-17T16:24:54.000Z</time>
|
|
</trkpt>
|
|
<trkpt lat="57.537642" lon="10.417410">
|
|
<ele>18.310422</ele>
|
|
<time>2026-07-17T16:24:55.000Z</time>
|
|
</trkpt>
|
|
<trkpt lat="57.537592" lon="10.417447">
|
|
<ele>18.296192</ele>
|
|
<time>2026-07-17T16:24:56.000Z</time>
|
|
</trkpt>
|
|
<trkpt lat="57.537545" lon="10.417481">
|
|
<ele>18.282857</ele>
|
|
<time>2026-07-17T16:24:57.000Z</time>
|
|
</trkpt>
|
|
<trkpt lat="57.537497" lon="10.417517">
|
|
<ele>18.269171</ele>
|
|
<time>2026-07-17T16:24:58.000Z</time>
|
|
</trkpt>
|
|
<trkpt lat="57.537443" lon="10.417561">
|
|
<ele>18.253582</ele>
|
|
<time>2026-07-17T16:24:59.000Z</time>
|
|
</trkpt>
|
|
<trkpt lat="57.537394" lon="10.417604">
|
|
<ele>18.239257</ele>
|
|
<time>2026-07-17T16:25:00.000Z</time>
|
|
</trkpt>
|
|
<trkpt lat="57.537345" lon="10.417645">
|
|
<ele>18.225049</ele>
|
|
<time>2026-07-17T16:25:01.000Z</time>
|
|
</trkpt>
|
|
<trkpt lat="57.537297" lon="10.417688">
|
|
<ele>18.210963</ele>
|
|
<time>2026-07-17T16:25:02.000Z</time>
|
|
</trkpt>
|
|
<trkpt lat="57.537246" lon="10.417735">
|
|
<ele>18.195913</ele>
|
|
<time>2026-07-17T16:25:03.000Z</time>
|
|
</trkpt>
|
|
<trkpt lat="57.537194" lon="10.417780">
|
|
<ele>18.180749</ele>
|
|
<time>2026-07-17T16:25:04.000Z</time>
|
|
</trkpt>
|
|
<trkpt lat="57.537142" lon="10.417822">
|
|
<ele>18.165758</ele>
|
|
<time>2026-07-17T16:25:05.000Z</time>
|
|
</trkpt>
|
|
<trkpt lat="57.537094" lon="10.417862">
|
|
<ele>18.151850</ele>
|
|
<time>2026-07-17T16:25:06.000Z</time>
|
|
</trkpt>
|
|
<trkpt lat="57.537045" lon="10.417903">
|
|
<ele>18.137643</ele>
|
|
<time>2026-07-17T16:25:07.000Z</time>
|
|
</trkpt>
|
|
<trkpt lat="57.536999" lon="10.417941">
|
|
<ele>18.124334</ele>
|
|
<time>2026-07-17T16:25:08.000Z</time>
|
|
</trkpt>
|
|
<trkpt lat="57.536956" lon="10.417976">
|
|
<ele>18.111923</ele>
|
|
<time>2026-07-17T16:25:09.000Z</time>
|
|
</trkpt>
|
|
<trkpt lat="57.536893" lon="10.418027">
|
|
<ele>18.093755</ele>
|
|
<time>2026-07-17T16:25:10.000Z</time>
|
|
</trkpt>
|
|
<trkpt lat="57.536841" lon="10.418069">
|
|
<ele>18.078765</ele>
|
|
<time>2026-07-17T16:25:11.000Z</time>
|
|
</trkpt>
|
|
<trkpt lat="57.536790" lon="10.418110">
|
|
<ele>18.064073</ele>
|
|
<time>2026-07-17T16:25:12.000Z</time>
|
|
</trkpt>
|
|
<trkpt lat="57.536743" lon="10.418145">
|
|
<ele>18.050686</ele>
|
|
<time>2026-07-17T16:25:13.000Z</time>
|
|
</trkpt>
|
|
<trkpt lat="57.536704" lon="10.418173">
|
|
<ele>18.045331</ele>
|
|
<time>2026-07-17T16:25:14.000Z</time>
|
|
</trkpt>
|
|
<trkpt lat="57.536633" lon="10.418226">
|
|
<ele>18.046845</ele>
|
|
<time>2026-07-17T16:25:15.000Z</time>
|
|
</trkpt>
|
|
<trkpt lat="57.536582" lon="10.418263">
|
|
<ele>18.047930</ele>
|
|
<time>2026-07-17T16:25:16.000Z</time>
|
|
</trkpt>
|
|
<trkpt lat="57.536535" lon="10.418296">
|
|
<ele>18.048924</ele>
|
|
<time>2026-07-17T16:25:17.000Z</time>
|
|
</trkpt>
|
|
<trkpt lat="57.536485" lon="10.418330">
|
|
<ele>18.049979</ele>
|
|
<time>2026-07-17T16:25:18.000Z</time>
|
|
</trkpt>
|
|
<trkpt lat="57.536429" lon="10.418370">
|
|
<ele>18.051167</ele>
|
|
<time>2026-07-17T16:25:19.000Z</time>
|
|
</trkpt>
|
|
<trkpt lat="57.536379" lon="10.418407">
|
|
<ele>18.052232</ele>
|
|
<time>2026-07-17T16:25:20.000Z</time>
|
|
</trkpt>
|
|
<trkpt lat="57.536329" lon="10.418445">
|
|
<ele>18.053302</ele>
|
|
<time>2026-07-17T16:25:21.000Z</time>
|
|
</trkpt>
|
|
<trkpt lat="57.536279" lon="10.418484">
|
|
<ele>18.054375</ele>
|
|
<time>2026-07-17T16:25:22.000Z</time>
|
|
</trkpt>
|
|
<trkpt lat="57.536224" lon="10.418526">
|
|
<ele>18.055553</ele>
|
|
<time>2026-07-17T16:25:23.000Z</time>
|
|
</trkpt>
|
|
<trkpt lat="57.536173" lon="10.418564">
|
|
<ele>18.056641</ele>
|
|
<time>2026-07-17T16:25:24.000Z</time>
|
|
</trkpt>
|
|
<trkpt lat="57.536119" lon="10.418605">
|
|
<ele>18.057796</ele>
|
|
<time>2026-07-17T16:25:25.000Z</time>
|
|
</trkpt>
|
|
<trkpt lat="57.536067" lon="10.418645">
|
|
<ele>18.058910</ele>
|
|
<time>2026-07-17T16:25:26.000Z</time>
|
|
</trkpt>
|
|
<trkpt lat="57.536016" lon="10.418685">
|
|
<ele>18.060006</ele>
|
|
<time>2026-07-17T16:25:27.000Z</time>
|
|
</trkpt>
|
|
<trkpt lat="57.535967" lon="10.418722">
|
|
<ele>18.061053</ele>
|
|
<time>2026-07-17T16:25:28.000Z</time>
|
|
</trkpt>
|
|
<trkpt lat="57.535920" lon="10.418759">
|
|
<ele>18.062064</ele>
|
|
<time>2026-07-17T16:25:29.000Z</time>
|
|
</trkpt>
|
|
<trkpt lat="57.535869" lon="10.418799">
|
|
<ele>18.063160</ele>
|
|
<time>2026-07-17T16:25:30.000Z</time>
|
|
</trkpt>
|
|
<trkpt lat="57.535825" lon="10.418837">
|
|
<ele>18.064121</ele>
|
|
<time>2026-07-17T16:25:31.000Z</time>
|
|
</trkpt>
|
|
<trkpt lat="57.535776" lon="10.418878">
|
|
<ele>18.065184</ele>
|
|
<time>2026-07-17T16:25:32.000Z</time>
|
|
</trkpt>
|
|
<trkpt lat="57.535731" lon="10.418917">
|
|
<ele>18.066167</ele>
|
|
<time>2026-07-17T16:25:33.000Z</time>
|
|
</trkpt>
|
|
<trkpt lat="57.535687" lon="10.418956">
|
|
<ele>18.067133</ele>
|
|
<time>2026-07-17T16:25:34.000Z</time>
|
|
</trkpt>
|
|
<trkpt lat="57.535648" lon="10.418997">
|
|
<ele>18.068020</ele>
|
|
<time>2026-07-17T16:25:35.000Z</time>
|
|
</trkpt>
|
|
<trkpt lat="57.535604" lon="10.419046">
|
|
<ele>18.069035</ele>
|
|
<time>2026-07-17T16:25:36.000Z</time>
|
|
</trkpt>
|
|
<trkpt lat="57.535568" lon="10.419086">
|
|
<ele>18.069865</ele>
|
|
<time>2026-07-17T16:25:37.000Z</time>
|
|
</trkpt>
|
|
<trkpt lat="57.535512" lon="10.419141">
|
|
<ele>18.071119</ele>
|
|
<time>2026-07-17T16:25:38.000Z</time>
|
|
</trkpt>
|
|
<trkpt lat="57.535464" lon="10.419181">
|
|
<ele>18.072161</ele>
|
|
<time>2026-07-17T16:25:39.000Z</time>
|
|
</trkpt>
|
|
<trkpt lat="57.535409" lon="10.419213">
|
|
<ele>18.073302</ele>
|
|
<time>2026-07-17T16:25:40.000Z</time>
|
|
</trkpt>
|
|
<trkpt lat="57.535354" lon="10.419236">
|
|
<ele>18.074418</ele>
|
|
<time>2026-07-17T16:25:41.000Z</time>
|
|
</trkpt>
|
|
<trkpt lat="57.535301" lon="10.419260">
|
|
<ele>18.075499</ele>
|
|
<time>2026-07-17T16:25:42.000Z</time>
|
|
</trkpt>
|
|
<trkpt lat="57.535250" lon="10.419291">
|
|
<ele>18.076561</ele>
|
|
<time>2026-07-17T16:25:43.000Z</time>
|
|
</trkpt>
|
|
<trkpt lat="57.535200" lon="10.419327">
|
|
<ele>18.077623</ele>
|
|
<time>2026-07-17T16:25:44.000Z</time>
|
|
</trkpt>
|
|
<trkpt lat="57.535151" lon="10.419365">
|
|
<ele>18.078674</ele>
|
|
<time>2026-07-17T16:25:45.000Z</time>
|
|
</trkpt>
|
|
<trkpt lat="57.535101" lon="10.419405">
|
|
<ele>18.079752</ele>
|
|
<time>2026-07-17T16:25:46.000Z</time>
|
|
</trkpt>
|
|
<trkpt lat="57.535055" lon="10.419447">
|
|
<ele>18.084457</ele>
|
|
<time>2026-07-17T16:25:47.000Z</time>
|
|
</trkpt>
|
|
<trkpt lat="57.535014" lon="10.419496">
|
|
<ele>18.102572</ele>
|
|
<time>2026-07-17T16:25:48.000Z</time>
|
|
</trkpt>
|
|
<trkpt lat="57.534969" lon="10.419549">
|
|
<ele>18.122371</ele>
|
|
<time>2026-07-17T16:25:49.000Z</time>
|
|
</trkpt>
|
|
<trkpt lat="57.534920" lon="10.419597">
|
|
<ele>18.142960</ele>
|
|
<time>2026-07-17T16:25:50.000Z</time>
|
|
</trkpt>
|
|
<trkpt lat="57.534873" lon="10.419637">
|
|
<ele>18.162176</ele>
|
|
<time>2026-07-17T16:25:51.000Z</time>
|
|
</trkpt>
|
|
<trkpt lat="57.534822" lon="10.419672">
|
|
<ele>18.182389</ele>
|
|
<time>2026-07-17T16:25:52.000Z</time>
|
|
</trkpt>
|
|
<trkpt lat="57.534770" lon="10.419707">
|
|
<ele>18.202951</ele>
|
|
<time>2026-07-17T16:25:53.000Z</time>
|
|
</trkpt>
|
|
<trkpt lat="57.534719" lon="10.419741">
|
|
<ele>18.223095</ele>
|
|
<time>2026-07-17T16:25:54.000Z</time>
|
|
</trkpt>
|
|
<trkpt lat="57.534665" lon="10.419773">
|
|
<ele>18.244169</ele>
|
|
<time>2026-07-17T16:25:55.000Z</time>
|
|
</trkpt>
|
|
<trkpt lat="57.534609" lon="10.419803">
|
|
<ele>18.265839</ele>
|
|
<time>2026-07-17T16:25:56.000Z</time>
|
|
</trkpt>
|
|
<trkpt lat="57.534559" lon="10.419831">
|
|
<ele>18.285256</ele>
|
|
<time>2026-07-17T16:25:57.000Z</time>
|
|
</trkpt>
|
|
<trkpt lat="57.534510" lon="10.419854">
|
|
<ele>18.304048</ele>
|
|
<time>2026-07-17T16:25:58.000Z</time>
|
|
</trkpt>
|
|
<trkpt lat="57.534448" lon="10.419885">
|
|
<ele>18.327921</ele>
|
|
<time>2026-07-17T16:25:59.000Z</time>
|
|
</trkpt>
|
|
<trkpt lat="57.534398" lon="10.419910">
|
|
<ele>18.347174</ele>
|
|
<time>2026-07-17T16:26:00.000Z</time>
|
|
</trkpt>
|
|
<trkpt lat="57.534339" lon="10.419937">
|
|
<ele>18.369768</ele>
|
|
<time>2026-07-17T16:26:01.000Z</time>
|
|
</trkpt>
|
|
<trkpt lat="57.534290" lon="10.419956">
|
|
<ele>18.388381</ele>
|
|
<time>2026-07-17T16:26:02.000Z</time>
|
|
</trkpt>
|
|
<trkpt lat="57.534237" lon="10.419968">
|
|
<ele>18.408237</ele>
|
|
<time>2026-07-17T16:26:03.000Z</time>
|
|
</trkpt>
|
|
<trkpt lat="57.534186" lon="10.419978">
|
|
<ele>18.427308</ele>
|
|
<time>2026-07-17T16:26:04.000Z</time>
|
|
</trkpt>
|
|
<trkpt lat="57.534138" lon="10.419992">
|
|
<ele>18.445376</ele>
|
|
<time>2026-07-17T16:26:05.000Z</time>
|
|
</trkpt>
|
|
<trkpt lat="57.534092" lon="10.420010">
|
|
<ele>18.462857</ele>
|
|
<time>2026-07-17T16:26:06.000Z</time>
|
|
</trkpt>
|
|
<trkpt lat="57.534043" lon="10.420032">
|
|
<ele>18.481601</ele>
|
|
<time>2026-07-17T16:26:07.000Z</time>
|
|
</trkpt>
|
|
<trkpt lat="57.533993" lon="10.420056">
|
|
<ele>18.500803</ele>
|
|
<time>2026-07-17T16:26:08.000Z</time>
|
|
</trkpt>
|
|
<trkpt lat="57.533946" lon="10.420079">
|
|
<ele>18.518875</ele>
|
|
<time>2026-07-17T16:26:09.000Z</time>
|
|
</trkpt>
|
|
<trkpt lat="57.533898" lon="10.420104">
|
|
<ele>18.537411</ele>
|
|
<time>2026-07-17T16:26:10.000Z</time>
|
|
</trkpt>
|
|
<trkpt lat="57.533852" lon="10.420133">
|
|
<ele>18.555471</ele>
|
|
<time>2026-07-17T16:26:11.000Z</time>
|
|
</trkpt>
|
|
<trkpt lat="57.533808" lon="10.420165">
|
|
<ele>18.573037</ele>
|
|
<time>2026-07-17T16:26:12.000Z</time>
|
|
</trkpt>
|
|
<trkpt lat="57.533763" lon="10.420199">
|
|
<ele>18.591096</ele>
|
|
<time>2026-07-17T16:26:13.000Z</time>
|
|
</trkpt>
|
|
<trkpt lat="57.533716" lon="10.420229">
|
|
<ele>18.609573</ele>
|
|
<time>2026-07-17T16:26:14.000Z</time>
|
|
</trkpt>
|
|
<trkpt lat="57.533673" lon="10.420246">
|
|
<ele>18.625920</ele>
|
|
<time>2026-07-17T16:26:15.000Z</time>
|
|
</trkpt>
|
|
<trkpt lat="57.533629" lon="10.420261">
|
|
<ele>18.642555</ele>
|
|
<time>2026-07-17T16:26:16.000Z</time>
|
|
</trkpt>
|
|
<trkpt lat="57.533589" lon="10.420274">
|
|
<ele>18.657656</ele>
|
|
<time>2026-07-17T16:26:17.000Z</time>
|
|
</trkpt>
|
|
<trkpt lat="57.533546" lon="10.420289">
|
|
<ele>18.673925</ele>
|
|
<time>2026-07-17T16:26:18.000Z</time>
|
|
</trkpt>
|
|
<trkpt lat="57.533502" lon="10.420303">
|
|
<ele>18.690525</ele>
|
|
<time>2026-07-17T16:26:19.000Z</time>
|
|
</trkpt>
|
|
<trkpt lat="57.533464" lon="10.420312">
|
|
<ele>18.704771</ele>
|
|
<time>2026-07-17T16:26:20.000Z</time>
|
|
</trkpt>
|
|
<trkpt lat="57.533426" lon="10.420308">
|
|
<ele>18.718925</ele>
|
|
<time>2026-07-17T16:26:21.000Z</time>
|
|
</trkpt>
|
|
<trkpt lat="57.533388" lon="10.420293">
|
|
<ele>18.733371</ele>
|
|
<time>2026-07-17T16:26:22.000Z</time>
|
|
</trkpt>
|
|
<trkpt lat="57.533354" lon="10.420286">
|
|
<ele>18.746092</ele>
|
|
<time>2026-07-17T16:26:23.000Z</time>
|
|
</trkpt>
|
|
<trkpt lat="57.533317" lon="10.420297">
|
|
<ele>18.757620</ele>
|
|
<time>2026-07-17T16:26:24.000Z</time>
|
|
</trkpt>
|
|
<trkpt lat="57.533285" lon="10.420328">
|
|
<ele>18.767978</ele>
|
|
<time>2026-07-17T16:26:25.000Z</time>
|
|
</trkpt>
|
|
<trkpt lat="57.533251" lon="10.420378">
|
|
<ele>18.780418</ele>
|
|
<time>2026-07-17T16:26:26.000Z</time>
|
|
</trkpt>
|
|
<trkpt lat="57.533217" lon="10.420428">
|
|
<ele>18.792858</ele>
|
|
<time>2026-07-17T16:26:27.000Z</time>
|
|
</trkpt>
|
|
<trkpt lat="57.533182" lon="10.420465">
|
|
<ele>18.804415</ele>
|
|
<time>2026-07-17T16:26:28.000Z</time>
|
|
</trkpt>
|
|
<trkpt lat="57.533142" lon="10.420490">
|
|
<ele>18.816531</ele>
|
|
<time>2026-07-17T16:26:29.000Z</time>
|
|
</trkpt>
|
|
<trkpt lat="57.533102" lon="10.420509">
|
|
<ele>18.828386</ele>
|
|
<time>2026-07-17T16:26:30.000Z</time>
|
|
</trkpt>
|
|
<trkpt lat="57.533062" lon="10.420529">
|
|
<ele>18.840280</ele>
|
|
<time>2026-07-17T16:26:31.000Z</time>
|
|
</trkpt>
|
|
<trkpt lat="57.533024" lon="10.420553">
|
|
<ele>18.851803</ele>
|
|
<time>2026-07-17T16:26:32.000Z</time>
|
|
</trkpt>
|
|
<trkpt lat="57.532984" lon="10.420577">
|
|
<ele>18.863871</ele>
|
|
<time>2026-07-17T16:26:33.000Z</time>
|
|
</trkpt>
|
|
<trkpt lat="57.532944" lon="10.420604">
|
|
<ele>18.876089</ele>
|
|
<time>2026-07-17T16:26:34.000Z</time>
|
|
</trkpt>
|
|
<trkpt lat="57.532904" lon="10.420630">
|
|
<ele>18.888255</ele>
|
|
<time>2026-07-17T16:26:35.000Z</time>
|
|
</trkpt>
|
|
<trkpt lat="57.532862" lon="10.420657">
|
|
<ele>18.901015</ele>
|
|
<time>2026-07-17T16:26:36.000Z</time>
|
|
</trkpt>
|
|
<trkpt lat="57.532821" lon="10.420681">
|
|
<ele>18.913357</ele>
|
|
<time>2026-07-17T16:26:37.000Z</time>
|
|
</trkpt>
|
|
<trkpt lat="57.532777" lon="10.420707">
|
|
<ele>18.926613</ele>
|
|
<time>2026-07-17T16:26:38.000Z</time>
|
|
</trkpt>
|
|
<trkpt lat="57.532734" lon="10.420728">
|
|
<ele>18.939379</ele>
|
|
<time>2026-07-17T16:26:39.000Z</time>
|
|
</trkpt>
|
|
<trkpt lat="57.532692" lon="10.420744">
|
|
<ele>18.951690</ele>
|
|
<time>2026-07-17T16:26:40.000Z</time>
|
|
</trkpt>
|
|
<trkpt lat="57.532647" lon="10.420757">
|
|
<ele>18.964768</ele>
|
|
<time>2026-07-17T16:26:41.000Z</time>
|
|
</trkpt>
|
|
<trkpt lat="57.532604" lon="10.420768">
|
|
<ele>18.977232</ele>
|
|
<time>2026-07-17T16:26:42.000Z</time>
|
|
</trkpt>
|
|
<trkpt lat="57.532557" lon="10.420786">
|
|
<ele>18.991012</ele>
|
|
<time>2026-07-17T16:26:43.000Z</time>
|
|
</trkpt>
|
|
<trkpt lat="57.532510" lon="10.420809">
|
|
<ele>19.004968</ele>
|
|
<time>2026-07-17T16:26:44.000Z</time>
|
|
</trkpt>
|
|
<trkpt lat="57.532464" lon="10.420832">
|
|
<ele>19.018645</ele>
|
|
<time>2026-07-17T16:26:45.000Z</time>
|
|
</trkpt>
|
|
<trkpt lat="57.532418" lon="10.420853">
|
|
<ele>19.032246</ele>
|
|
<time>2026-07-17T16:26:46.000Z</time>
|
|
</trkpt>
|
|
<trkpt lat="57.532372" lon="10.420875">
|
|
<ele>19.045885</ele>
|
|
<time>2026-07-17T16:26:47.000Z</time>
|
|
</trkpt>
|
|
<trkpt lat="57.532330" lon="10.420899">
|
|
<ele>19.058501</ele>
|
|
<time>2026-07-17T16:26:48.000Z</time>
|
|
</trkpt>
|
|
<trkpt lat="57.532288" lon="10.420927">
|
|
<ele>19.071312</ele>
|
|
<time>2026-07-17T16:26:49.000Z</time>
|
|
</trkpt>
|
|
<trkpt lat="57.532246" lon="10.420960">
|
|
<ele>19.084403</ele>
|
|
<time>2026-07-17T16:26:50.000Z</time>
|
|
</trkpt>
|
|
<trkpt lat="57.532207" lon="10.420990">
|
|
<ele>19.096520</ele>
|
|
<time>2026-07-17T16:26:51.000Z</time>
|
|
</trkpt>
|
|
<trkpt lat="57.532159" lon="10.421022">
|
|
<ele>19.111161</ele>
|
|
<time>2026-07-17T16:26:52.000Z</time>
|
|
</trkpt>
|
|
<trkpt lat="57.532114" lon="10.421048">
|
|
<ele>19.124691</ele>
|
|
<time>2026-07-17T16:26:53.000Z</time>
|
|
</trkpt>
|
|
<trkpt lat="57.532071" lon="10.421073">
|
|
<ele>19.137627</ele>
|
|
<time>2026-07-17T16:26:54.000Z</time>
|
|
</trkpt>
|
|
<trkpt lat="57.532025" lon="10.421095">
|
|
<ele>19.151266</ele>
|
|
<time>2026-07-17T16:26:55.000Z</time>
|
|
</trkpt>
|
|
<trkpt lat="57.531979" lon="10.421116">
|
|
<ele>19.164867</ele>
|
|
<time>2026-07-17T16:26:56.000Z</time>
|
|
</trkpt>
|
|
<trkpt lat="57.531933" lon="10.421137">
|
|
<ele>19.178468</ele>
|
|
<time>2026-07-17T16:26:57.000Z</time>
|
|
</trkpt>
|
|
<trkpt lat="57.531886" lon="10.421159">
|
|
<ele>19.192385</ele>
|
|
<time>2026-07-17T16:26:58.000Z</time>
|
|
</trkpt>
|
|
<trkpt lat="57.531840" lon="10.421182">
|
|
<ele>19.206063</ele>
|
|
<time>2026-07-17T16:26:59.000Z</time>
|
|
</trkpt>
|
|
<trkpt lat="57.531795" lon="10.421207">
|
|
<ele>19.219549</ele>
|
|
<time>2026-07-17T16:27:00.000Z</time>
|
|
</trkpt>
|
|
<trkpt lat="57.531746" lon="10.421234">
|
|
<ele>19.234223</ele>
|
|
<time>2026-07-17T16:27:01.000Z</time>
|
|
</trkpt>
|
|
<trkpt lat="57.531698" lon="10.421261">
|
|
<ele>19.248622</ele>
|
|
<time>2026-07-17T16:27:02.000Z</time>
|
|
</trkpt>
|
|
<trkpt lat="57.531652" lon="10.421287">
|
|
<ele>19.262427</ele>
|
|
<time>2026-07-17T16:27:03.000Z</time>
|
|
</trkpt>
|
|
<trkpt lat="57.531605" lon="10.421311">
|
|
<ele>19.267495</ele>
|
|
<time>2026-07-17T16:27:04.000Z</time>
|
|
</trkpt>
|
|
<trkpt lat="57.531553" lon="10.421336">
|
|
<ele>19.269714</ele>
|
|
<time>2026-07-17T16:27:05.000Z</time>
|
|
</trkpt>
|
|
<trkpt lat="57.531505" lon="10.421361">
|
|
<ele>19.271774</ele>
|
|
<time>2026-07-17T16:27:06.000Z</time>
|
|
</trkpt>
|
|
<trkpt lat="57.531454" lon="10.421386">
|
|
<ele>19.273954</ele>
|
|
<time>2026-07-17T16:27:07.000Z</time>
|
|
</trkpt>
|
|
<trkpt lat="57.531403" lon="10.421408">
|
|
<ele>19.276117</ele>
|
|
<time>2026-07-17T16:27:08.000Z</time>
|
|
</trkpt>
|
|
<trkpt lat="57.531352" lon="10.421430">
|
|
<ele>19.278281</ele>
|
|
<time>2026-07-17T16:27:09.000Z</time>
|
|
</trkpt>
|
|
<trkpt lat="57.531301" lon="10.421449">
|
|
<ele>19.280430</ele>
|
|
<time>2026-07-17T16:27:10.000Z</time>
|
|
</trkpt>
|
|
<trkpt lat="57.531246" lon="10.421465">
|
|
<ele>19.282731</ele>
|
|
<time>2026-07-17T16:27:11.000Z</time>
|
|
</trkpt>
|
|
<trkpt lat="57.531192" lon="10.421479">
|
|
<ele>19.284984</ele>
|
|
<time>2026-07-17T16:27:12.000Z</time>
|
|
</trkpt>
|
|
<trkpt lat="57.531140" lon="10.421495">
|
|
<ele>19.287162</ele>
|
|
<time>2026-07-17T16:27:13.000Z</time>
|
|
</trkpt>
|
|
<trkpt lat="57.531086" lon="10.421517">
|
|
<ele>19.289447</ele>
|
|
<time>2026-07-17T16:27:14.000Z</time>
|
|
</trkpt>
|
|
<trkpt lat="57.531038" lon="10.421544">
|
|
<ele>19.291519</ele>
|
|
<time>2026-07-17T16:27:15.000Z</time>
|
|
</trkpt>
|
|
<trkpt lat="57.530990" lon="10.421573">
|
|
<ele>19.293604</ele>
|
|
<time>2026-07-17T16:27:16.000Z</time>
|
|
</trkpt>
|
|
<trkpt lat="57.530946" lon="10.421602">
|
|
<ele>19.295533</ele>
|
|
<time>2026-07-17T16:27:17.000Z</time>
|
|
</trkpt>
|
|
<trkpt lat="57.530914" lon="10.421627">
|
|
<ele>19.296967</ele>
|
|
<time>2026-07-17T16:27:18.000Z</time>
|
|
</trkpt>
|
|
<trkpt lat="57.530848" lon="10.421666">
|
|
<ele>19.299829</ele>
|
|
<time>2026-07-17T16:27:19.000Z</time>
|
|
</trkpt>
|
|
<trkpt lat="57.530799" lon="10.421689">
|
|
<ele>19.301917</ele>
|
|
<time>2026-07-17T16:27:20.000Z</time>
|
|
</trkpt>
|
|
<trkpt lat="57.530737" lon="10.421716">
|
|
<ele>19.304549</ele>
|
|
<time>2026-07-17T16:27:21.000Z</time>
|
|
</trkpt>
|
|
<trkpt lat="57.530685" lon="10.421741">
|
|
<ele>19.306768</ele>
|
|
<time>2026-07-17T16:27:22.000Z</time>
|
|
</trkpt>
|
|
<trkpt lat="57.530631" lon="10.421769">
|
|
<ele>19.309085</ele>
|
|
<time>2026-07-17T16:27:23.000Z</time>
|
|
</trkpt>
|
|
<trkpt lat="57.530579" lon="10.421794">
|
|
<ele>19.311304</ele>
|
|
<time>2026-07-17T16:27:24.000Z</time>
|
|
</trkpt>
|
|
<trkpt lat="57.530527" lon="10.421818">
|
|
<ele>19.313518</ele>
|
|
<time>2026-07-17T16:27:25.000Z</time>
|
|
</trkpt>
|
|
<trkpt lat="57.530476" lon="10.421841">
|
|
<ele>19.315687</ele>
|
|
<time>2026-07-17T16:27:26.000Z</time>
|
|
</trkpt>
|
|
<trkpt lat="57.530427" lon="10.421866">
|
|
<ele>19.317787</ele>
|
|
<time>2026-07-17T16:27:27.000Z</time>
|
|
</trkpt>
|
|
<trkpt lat="57.530377" lon="10.421894">
|
|
<ele>19.319944</ele>
|
|
<time>2026-07-17T16:27:28.000Z</time>
|
|
</trkpt>
|
|
<trkpt lat="57.530327" lon="10.421921">
|
|
<ele>19.322096</ele>
|
|
<time>2026-07-17T16:27:29.000Z</time>
|
|
</trkpt>
|
|
<trkpt lat="57.530277" lon="10.421948">
|
|
<ele>19.324247</ele>
|
|
<time>2026-07-17T16:27:30.000Z</time>
|
|
</trkpt>
|
|
<trkpt lat="57.530229" lon="10.421974">
|
|
<ele>19.326313</ele>
|
|
<time>2026-07-17T16:27:31.000Z</time>
|
|
</trkpt>
|
|
<trkpt lat="57.530178" lon="10.422001">
|
|
<ele>19.328505</ele>
|
|
<time>2026-07-17T16:27:32.000Z</time>
|
|
</trkpt>
|
|
<trkpt lat="57.530125" lon="10.422027">
|
|
<ele>19.330770</ele>
|
|
<time>2026-07-17T16:27:33.000Z</time>
|
|
</trkpt>
|
|
<trkpt lat="57.530071" lon="10.422051">
|
|
<ele>19.333064</ele>
|
|
<time>2026-07-17T16:27:34.000Z</time>
|
|
</trkpt>
|
|
<trkpt lat="57.530019" lon="10.422077">
|
|
<ele>19.335289</ele>
|
|
<time>2026-07-17T16:27:35.000Z</time>
|
|
</trkpt>
|
|
<trkpt lat="57.529967" lon="10.422105">
|
|
<ele>19.337526</ele>
|
|
<time>2026-07-17T16:27:36.000Z</time>
|
|
</trkpt>
|
|
<trkpt lat="57.529913" lon="10.422136">
|
|
<ele>19.339861</ele>
|
|
<time>2026-07-17T16:27:37.000Z</time>
|
|
</trkpt>
|
|
<trkpt lat="57.529860" lon="10.422163">
|
|
<ele>19.351935</ele>
|
|
<time>2026-07-17T16:27:38.000Z</time>
|
|
</trkpt>
|
|
<trkpt lat="57.529807" lon="10.422186">
|
|
<ele>19.366406</ele>
|
|
<time>2026-07-17T16:27:39.000Z</time>
|
|
</trkpt>
|
|
<trkpt lat="57.529752" lon="10.422210">
|
|
<ele>19.381427</ele>
|
|
<time>2026-07-17T16:27:40.000Z</time>
|
|
</trkpt>
|
|
<trkpt lat="57.529699" lon="10.422237">
|
|
<ele>19.396039</ele>
|
|
<time>2026-07-17T16:27:41.000Z</time>
|
|
</trkpt>
|
|
<trkpt lat="57.529651" lon="10.422262">
|
|
<ele>19.409292</ele>
|
|
<time>2026-07-17T16:27:42.000Z</time>
|
|
</trkpt>
|
|
<trkpt lat="57.529607" lon="10.422285">
|
|
<ele>19.421445</ele>
|
|
<time>2026-07-17T16:27:43.000Z</time>
|
|
</trkpt>
|
|
<trkpt lat="57.529550" lon="10.422313">
|
|
<ele>19.437120</ele>
|
|
<time>2026-07-17T16:27:44.000Z</time>
|
|
</trkpt>
|
|
<trkpt lat="57.529499" lon="10.422335">
|
|
<ele>19.451041</ele>
|
|
<time>2026-07-17T16:27:45.000Z</time>
|
|
</trkpt>
|
|
<trkpt lat="57.529454" lon="10.422356">
|
|
<ele>19.463377</ele>
|
|
<time>2026-07-17T16:27:46.000Z</time>
|
|
</trkpt>
|
|
<trkpt lat="57.529419" lon="10.422372">
|
|
<ele>19.472961</ele>
|
|
<time>2026-07-17T16:27:47.000Z</time>
|
|
</trkpt>
|
|
<trkpt lat="57.529392" lon="10.422379">
|
|
<ele>19.480210</ele>
|
|
<time>2026-07-17T16:27:48.000Z</time>
|
|
</trkpt>
|
|
<trkpt lat="57.529449" lon="10.422505">
|
|
<ele>19.503732</ele>
|
|
<time>2026-07-17T16:30:40.000Z</time>
|
|
</trkpt>
|
|
<trkpt lat="57.529481" lon="10.422502">
|
|
<ele>19.512252</ele>
|
|
<time>2026-07-17T16:30:41.000Z</time>
|
|
</trkpt>
|
|
<trkpt lat="57.529515" lon="10.422489">
|
|
<ele>19.521482</ele>
|
|
<time>2026-07-17T16:30:42.000Z</time>
|
|
</trkpt>
|
|
<trkpt lat="57.529553" lon="10.422473">
|
|
<ele>19.531842</ele>
|
|
<time>2026-07-17T16:30:43.000Z</time>
|
|
</trkpt>
|
|
<trkpt lat="57.529592" lon="10.422456">
|
|
<ele>19.542493</ele>
|
|
<time>2026-07-17T16:30:44.000Z</time>
|
|
</trkpt>
|
|
<trkpt lat="57.529634" lon="10.422433">
|
|
<ele>19.554134</ele>
|
|
<time>2026-07-17T16:30:45.000Z</time>
|
|
</trkpt>
|
|
<trkpt lat="57.529673" lon="10.422410">
|
|
<ele>19.565013</ele>
|
|
<time>2026-07-17T16:30:46.000Z</time>
|
|
</trkpt>
|
|
<trkpt lat="57.529715" lon="10.422388">
|
|
<ele>19.576614</ele>
|
|
<time>2026-07-17T16:30:47.000Z</time>
|
|
</trkpt>
|
|
<trkpt lat="57.529764" lon="10.422367">
|
|
<ele>19.589985</ele>
|
|
<time>2026-07-17T16:30:48.000Z</time>
|
|
</trkpt>
|
|
<trkpt lat="57.529812" lon="10.422348">
|
|
<ele>19.603034</ele>
|
|
<time>2026-07-17T16:30:49.000Z</time>
|
|
</trkpt>
|
|
<trkpt lat="57.529859" lon="10.422327">
|
|
<ele>19.615887</ele>
|
|
<time>2026-07-17T16:30:50.000Z</time>
|
|
</trkpt>
|
|
<trkpt lat="57.529907" lon="10.422305">
|
|
<ele>19.629031</ele>
|
|
<time>2026-07-17T16:30:51.000Z</time>
|
|
</trkpt>
|
|
<trkpt lat="57.529955" lon="10.422282">
|
|
<ele>19.642211</ele>
|
|
<time>2026-07-17T16:30:52.000Z</time>
|
|
</trkpt>
|
|
<trkpt lat="57.530004" lon="10.422259">
|
|
<ele>19.655648</ele>
|
|
<time>2026-07-17T16:30:53.000Z</time>
|
|
</trkpt>
|
|
<trkpt lat="57.530054" lon="10.422238">
|
|
<ele>19.669278</ele>
|
|
<time>2026-07-17T16:30:54.000Z</time>
|
|
</trkpt>
|
|
<trkpt lat="57.530104" lon="10.422214">
|
|
<ele>19.683009</ele>
|
|
<time>2026-07-17T16:30:55.000Z</time>
|
|
</trkpt>
|
|
<trkpt lat="57.530153" lon="10.422190">
|
|
<ele>19.696481</ele>
|
|
<time>2026-07-17T16:30:56.000Z</time>
|
|
</trkpt>
|
|
<trkpt lat="57.530204" lon="10.422165">
|
|
<ele>19.710505</ele>
|
|
<time>2026-07-17T16:30:57.000Z</time>
|
|
</trkpt>
|
|
<trkpt lat="57.530256" lon="10.422141">
|
|
<ele>19.724751</ele>
|
|
<time>2026-07-17T16:30:58.000Z</time>
|
|
</trkpt>
|
|
<trkpt lat="57.530307" lon="10.422115">
|
|
<ele>19.738812</ele>
|
|
<time>2026-07-17T16:30:59.000Z</time>
|
|
</trkpt>
|
|
<trkpt lat="57.530358" lon="10.422090">
|
|
<ele>19.752835</ele>
|
|
<time>2026-07-17T16:31:00.000Z</time>
|
|
</trkpt>
|
|
<trkpt lat="57.530405" lon="10.422065">
|
|
<ele>19.765833</ele>
|
|
<time>2026-07-17T16:31:01.000Z</time>
|
|
</trkpt>
|
|
<trkpt lat="57.530456" lon="10.422039">
|
|
<ele>19.779894</ele>
|
|
<time>2026-07-17T16:31:02.000Z</time>
|
|
</trkpt>
|
|
<trkpt lat="57.530507" lon="10.422016">
|
|
<ele>19.793847</ele>
|
|
<time>2026-07-17T16:31:03.000Z</time>
|
|
</trkpt>
|
|
<trkpt lat="57.530557" lon="10.421994">
|
|
<ele>19.807509</ele>
|
|
<time>2026-07-17T16:31:04.000Z</time>
|
|
</trkpt>
|
|
<trkpt lat="57.530613" lon="10.421967">
|
|
<ele>19.818414</ele>
|
|
<time>2026-07-17T16:31:05.000Z</time>
|
|
</trkpt>
|
|
<trkpt lat="57.530666" lon="10.421942">
|
|
<ele>19.817707</ele>
|
|
<time>2026-07-17T16:31:06.000Z</time>
|
|
</trkpt>
|
|
<trkpt lat="57.530719" lon="10.421915">
|
|
<ele>19.816996</ele>
|
|
<time>2026-07-17T16:31:07.000Z</time>
|
|
</trkpt>
|
|
<trkpt lat="57.530773" lon="10.421887">
|
|
<ele>19.816271</ele>
|
|
<time>2026-07-17T16:31:08.000Z</time>
|
|
</trkpt>
|
|
<trkpt lat="57.530826" lon="10.421861">
|
|
<ele>19.815562</ele>
|
|
<time>2026-07-17T16:31:09.000Z</time>
|
|
</trkpt>
|
|
<trkpt lat="57.530880" lon="10.421837">
|
|
<ele>19.814845</ele>
|
|
<time>2026-07-17T16:31:10.000Z</time>
|
|
</trkpt>
|
|
<trkpt lat="57.530933" lon="10.421815">
|
|
<ele>19.814142</ele>
|
|
<time>2026-07-17T16:31:11.000Z</time>
|
|
</trkpt>
|
|
<trkpt lat="57.530987" lon="10.421797">
|
|
<ele>19.813433</ele>
|
|
<time>2026-07-17T16:31:12.000Z</time>
|
|
</trkpt>
|
|
<trkpt lat="57.531040" lon="10.421779">
|
|
<ele>19.812736</ele>
|
|
<time>2026-07-17T16:31:13.000Z</time>
|
|
</trkpt>
|
|
<trkpt lat="57.531094" lon="10.421755">
|
|
<ele>19.812018</ele>
|
|
<time>2026-07-17T16:31:14.000Z</time>
|
|
</trkpt>
|
|
<trkpt lat="57.531144" lon="10.421728">
|
|
<ele>19.811345</ele>
|
|
<time>2026-07-17T16:31:15.000Z</time>
|
|
</trkpt>
|
|
<trkpt lat="57.531193" lon="10.421698">
|
|
<ele>19.810678</ele>
|
|
<time>2026-07-17T16:31:16.000Z</time>
|
|
</trkpt>
|
|
<trkpt lat="57.531243" lon="10.421664">
|
|
<ele>19.809990</ele>
|
|
<time>2026-07-17T16:31:17.000Z</time>
|
|
</trkpt>
|
|
<trkpt lat="57.531290" lon="10.421634">
|
|
<ele>19.809347</ele>
|
|
<time>2026-07-17T16:31:18.000Z</time>
|
|
</trkpt>
|
|
<trkpt lat="57.531342" lon="10.421607">
|
|
<ele>19.808649</ele>
|
|
<time>2026-07-17T16:31:19.000Z</time>
|
|
</trkpt>
|
|
<trkpt lat="57.531399" lon="10.421580">
|
|
<ele>19.807889</ele>
|
|
<time>2026-07-17T16:31:20.000Z</time>
|
|
</trkpt>
|
|
<trkpt lat="57.531452" lon="10.421553">
|
|
<ele>19.807178</ele>
|
|
<time>2026-07-17T16:31:21.000Z</time>
|
|
</trkpt>
|
|
<trkpt lat="57.531504" lon="10.421529">
|
|
<ele>19.806486</ele>
|
|
<time>2026-07-17T16:31:22.000Z</time>
|
|
</trkpt>
|
|
<trkpt lat="57.531553" lon="10.421505">
|
|
<ele>19.805830</ele>
|
|
<time>2026-07-17T16:31:23.000Z</time>
|
|
</trkpt>
|
|
<trkpt lat="57.531602" lon="10.421482">
|
|
<ele>19.805177</ele>
|
|
<time>2026-07-17T16:31:24.000Z</time>
|
|
</trkpt>
|
|
<trkpt lat="57.531652" lon="10.421460">
|
|
<ele>19.804512</ele>
|
|
<time>2026-07-17T16:31:25.000Z</time>
|
|
</trkpt>
|
|
<trkpt lat="57.531702" lon="10.421438">
|
|
<ele>19.803848</ele>
|
|
<time>2026-07-17T16:31:26.000Z</time>
|
|
</trkpt>
|
|
<trkpt lat="57.531752" lon="10.421416">
|
|
<ele>19.803184</ele>
|
|
<time>2026-07-17T16:31:27.000Z</time>
|
|
</trkpt>
|
|
<trkpt lat="57.531805" lon="10.421395">
|
|
<ele>19.802483</ele>
|
|
<time>2026-07-17T16:31:28.000Z</time>
|
|
</trkpt>
|
|
<trkpt lat="57.531860" lon="10.421373">
|
|
<ele>19.801756</ele>
|
|
<time>2026-07-17T16:31:29.000Z</time>
|
|
</trkpt>
|
|
<trkpt lat="57.531914" lon="10.421348">
|
|
<ele>19.801036</ele>
|
|
<time>2026-07-17T16:31:30.000Z</time>
|
|
</trkpt>
|
|
<trkpt lat="57.531967" lon="10.421318">
|
|
<ele>19.800320</ele>
|
|
<time>2026-07-17T16:31:31.000Z</time>
|
|
</trkpt>
|
|
<trkpt lat="57.532020" lon="10.421289">
|
|
<ele>19.799605</ele>
|
|
<time>2026-07-17T16:31:32.000Z</time>
|
|
</trkpt>
|
|
<trkpt lat="57.532070" lon="10.421262">
|
|
<ele>19.798932</ele>
|
|
<time>2026-07-17T16:31:33.000Z</time>
|
|
</trkpt>
|
|
<trkpt lat="57.532117" lon="10.421236">
|
|
<ele>19.798298</ele>
|
|
<time>2026-07-17T16:31:34.000Z</time>
|
|
</trkpt>
|
|
<trkpt lat="57.532166" lon="10.421214">
|
|
<ele>19.797646</ele>
|
|
<time>2026-07-17T16:31:35.000Z</time>
|
|
</trkpt>
|
|
<trkpt lat="57.532213" lon="10.421195">
|
|
<ele>19.797024</ele>
|
|
<time>2026-07-17T16:31:36.000Z</time>
|
|
</trkpt>
|
|
<trkpt lat="57.532261" lon="10.421176">
|
|
<ele>19.796390</ele>
|
|
<time>2026-07-17T16:31:37.000Z</time>
|
|
</trkpt>
|
|
<trkpt lat="57.532308" lon="10.421156">
|
|
<ele>19.795766</ele>
|
|
<time>2026-07-17T16:31:38.000Z</time>
|
|
</trkpt>
|
|
<trkpt lat="57.532358" lon="10.421136">
|
|
<ele>19.796218</ele>
|
|
<time>2026-07-17T16:31:39.000Z</time>
|
|
</trkpt>
|
|
<trkpt lat="57.532409" lon="10.421119">
|
|
<ele>19.798451</ele>
|
|
<time>2026-07-17T16:31:40.000Z</time>
|
|
</trkpt>
|
|
<trkpt lat="57.532461" lon="10.421100">
|
|
<ele>19.800735</ele>
|
|
<time>2026-07-17T16:31:41.000Z</time>
|
|
</trkpt>
|
|
<trkpt lat="57.532511" lon="10.421078">
|
|
<ele>19.802949</ele>
|
|
<time>2026-07-17T16:31:42.000Z</time>
|
|
</trkpt>
|
|
<trkpt lat="57.532559" lon="10.421054">
|
|
<ele>19.805091</ele>
|
|
<time>2026-07-17T16:31:43.000Z</time>
|
|
</trkpt>
|
|
<trkpt lat="57.532606" lon="10.421027">
|
|
<ele>19.807210</ele>
|
|
<time>2026-07-17T16:31:44.000Z</time>
|
|
</trkpt>
|
|
<trkpt lat="57.532654" lon="10.421000">
|
|
<ele>19.809371</ele>
|
|
<time>2026-07-17T16:31:45.000Z</time>
|
|
</trkpt>
|
|
<trkpt lat="57.532700" lon="10.420972">
|
|
<ele>19.811457</ele>
|
|
<time>2026-07-17T16:31:46.000Z</time>
|
|
</trkpt>
|
|
<trkpt lat="57.532746" lon="10.420947">
|
|
<ele>19.813522</ele>
|
|
<time>2026-07-17T16:31:47.000Z</time>
|
|
</trkpt>
|
|
<trkpt lat="57.532790" lon="10.420923">
|
|
<ele>19.815498</ele>
|
|
<time>2026-07-17T16:31:48.000Z</time>
|
|
</trkpt>
|
|
<trkpt lat="57.532832" lon="10.420896">
|
|
<ele>19.817413</ele>
|
|
<time>2026-07-17T16:31:49.000Z</time>
|
|
</trkpt>
|
|
<trkpt lat="57.532872" lon="10.420867">
|
|
<ele>19.819262</ele>
|
|
<time>2026-07-17T16:31:50.000Z</time>
|
|
</trkpt>
|
|
<trkpt lat="57.532911" lon="10.420832">
|
|
<ele>19.821128</ele>
|
|
<time>2026-07-17T16:31:51.000Z</time>
|
|
</trkpt>
|
|
<trkpt lat="57.532957" lon="10.420801">
|
|
<ele>19.823236</ele>
|
|
<time>2026-07-17T16:31:52.000Z</time>
|
|
</trkpt>
|
|
<trkpt lat="57.533007" lon="10.420781">
|
|
<ele>19.825440</ele>
|
|
<time>2026-07-17T16:31:53.000Z</time>
|
|
</trkpt>
|
|
<trkpt lat="57.533056" lon="10.420761">
|
|
<ele>19.827602</ele>
|
|
<time>2026-07-17T16:31:54.000Z</time>
|
|
</trkpt>
|
|
<trkpt lat="57.533104" lon="10.420742">
|
|
<ele>19.829717</ele>
|
|
<time>2026-07-17T16:31:55.000Z</time>
|
|
</trkpt>
|
|
<trkpt lat="57.533150" lon="10.420722">
|
|
<ele>19.831752</ele>
|
|
<time>2026-07-17T16:31:56.000Z</time>
|
|
</trkpt>
|
|
<trkpt lat="57.533194" lon="10.420701">
|
|
<ele>19.833710</ele>
|
|
<time>2026-07-17T16:31:57.000Z</time>
|
|
</trkpt>
|
|
<trkpt lat="57.533236" lon="10.420689">
|
|
<ele>19.835541</ele>
|
|
<time>2026-07-17T16:31:58.000Z</time>
|
|
</trkpt>
|
|
<trkpt lat="57.533276" lon="10.420695">
|
|
<ele>19.837271</ele>
|
|
<time>2026-07-17T16:31:59.000Z</time>
|
|
</trkpt>
|
|
<trkpt lat="57.533316" lon="10.420710">
|
|
<ele>19.839029</ele>
|
|
<time>2026-07-17T16:32:00.000Z</time>
|
|
</trkpt>
|
|
<trkpt lat="57.533358" lon="10.420714">
|
|
<ele>19.840841</ele>
|
|
<time>2026-07-17T16:32:01.000Z</time>
|
|
</trkpt>
|
|
<trkpt lat="57.533397" lon="10.420694">
|
|
<ele>19.842585</ele>
|
|
<time>2026-07-17T16:32:02.000Z</time>
|
|
</trkpt>
|
|
<trkpt lat="57.533431" lon="10.420650">
|
|
<ele>19.844369</ele>
|
|
<time>2026-07-17T16:32:03.000Z</time>
|
|
</trkpt>
|
|
<trkpt lat="57.533467" lon="10.420598">
|
|
<ele>19.846332</ele>
|
|
<time>2026-07-17T16:32:04.000Z</time>
|
|
</trkpt>
|
|
<trkpt lat="57.533507" lon="10.420556">
|
|
<ele>19.848311</ele>
|
|
<time>2026-07-17T16:32:05.000Z</time>
|
|
</trkpt>
|
|
<trkpt lat="57.533550" lon="10.420523">
|
|
<ele>19.850315</ele>
|
|
<time>2026-07-17T16:32:06.000Z</time>
|
|
</trkpt>
|
|
<trkpt lat="57.533594" lon="10.420495">
|
|
<ele>19.852319</ele>
|
|
<time>2026-07-17T16:32:07.000Z</time>
|
|
</trkpt>
|
|
<trkpt lat="57.533638" lon="10.420466">
|
|
<ele>19.854330</ele>
|
|
<time>2026-07-17T16:32:08.000Z</time>
|
|
</trkpt>
|
|
<trkpt lat="57.533683" lon="10.420435">
|
|
<ele>19.856398</ele>
|
|
<time>2026-07-17T16:32:09.000Z</time>
|
|
</trkpt>
|
|
<trkpt lat="57.533732" lon="10.420408">
|
|
<ele>19.858600</ele>
|
|
<time>2026-07-17T16:32:10.000Z</time>
|
|
</trkpt>
|
|
<trkpt lat="57.533778" lon="10.420390">
|
|
<ele>19.860626</ele>
|
|
<time>2026-07-17T16:32:11.000Z</time>
|
|
</trkpt>
|
|
<trkpt lat="57.533823" lon="10.420379">
|
|
<ele>19.862582</ele>
|
|
<time>2026-07-17T16:32:12.000Z</time>
|
|
</trkpt>
|
|
<trkpt lat="57.533869" lon="10.420366">
|
|
<ele>19.864587</ele>
|
|
<time>2026-07-17T16:32:13.000Z</time>
|
|
</trkpt>
|
|
<trkpt lat="57.533913" lon="10.420347">
|
|
<ele>19.866534</ele>
|
|
<time>2026-07-17T16:32:14.000Z</time>
|
|
</trkpt>
|
|
<trkpt lat="57.533957" lon="10.420321">
|
|
<ele>19.868523</ele>
|
|
<time>2026-07-17T16:32:15.000Z</time>
|
|
</trkpt>
|
|
<trkpt lat="57.533999" lon="10.420292">
|
|
<ele>19.870453</ele>
|
|
<time>2026-07-17T16:32:16.000Z</time>
|
|
</trkpt>
|
|
<trkpt lat="57.534043" lon="10.420264">
|
|
<ele>19.872457</ele>
|
|
<time>2026-07-17T16:32:17.000Z</time>
|
|
</trkpt>
|
|
<trkpt lat="57.534087" lon="10.420239">
|
|
<ele>19.871837</ele>
|
|
<time>2026-07-17T16:32:18.000Z</time>
|
|
</trkpt>
|
|
<trkpt lat="57.534129" lon="10.420208">
|
|
<ele>19.870541</ele>
|
|
<time>2026-07-17T16:32:19.000Z</time>
|
|
</trkpt>
|
|
<trkpt lat="57.534171" lon="10.420173">
|
|
<ele>19.869222</ele>
|
|
<time>2026-07-17T16:32:20.000Z</time>
|
|
</trkpt>
|
|
<trkpt lat="57.534213" lon="10.420137">
|
|
<ele>19.867896</ele>
|
|
<time>2026-07-17T16:32:21.000Z</time>
|
|
</trkpt>
|
|
<trkpt lat="57.534258" lon="10.420106">
|
|
<ele>19.866519</ele>
|
|
<time>2026-07-17T16:32:22.000Z</time>
|
|
</trkpt>
|
|
<trkpt lat="57.534305" lon="10.420079">
|
|
<ele>19.865109</ele>
|
|
<time>2026-07-17T16:32:23.000Z</time>
|
|
</trkpt>
|
|
<trkpt lat="57.534353" lon="10.420055">
|
|
<ele>19.863683</ele>
|
|
<time>2026-07-17T16:32:24.000Z</time>
|
|
</trkpt>
|
|
<trkpt lat="57.534403" lon="10.420030">
|
|
<ele>19.862198</ele>
|
|
<time>2026-07-17T16:32:25.000Z</time>
|
|
</trkpt>
|
|
<trkpt lat="57.534451" lon="10.420005">
|
|
<ele>19.860769</ele>
|
|
<time>2026-07-17T16:32:26.000Z</time>
|
|
</trkpt>
|
|
<trkpt lat="57.534498" lon="10.419978">
|
|
<ele>19.859358</ele>
|
|
<time>2026-07-17T16:32:27.000Z</time>
|
|
</trkpt>
|
|
<trkpt lat="57.534548" lon="10.419951">
|
|
<ele>19.857865</ele>
|
|
<time>2026-07-17T16:32:28.000Z</time>
|
|
</trkpt>
|
|
<trkpt lat="57.534595" lon="10.419925">
|
|
<ele>19.856458</ele>
|
|
<time>2026-07-17T16:32:29.000Z</time>
|
|
</trkpt>
|
|
<trkpt lat="57.534641" lon="10.419899">
|
|
<ele>19.855080</ele>
|
|
<time>2026-07-17T16:32:30.000Z</time>
|
|
</trkpt>
|
|
<trkpt lat="57.534691" lon="10.419867">
|
|
<ele>19.853563</ele>
|
|
<time>2026-07-17T16:32:31.000Z</time>
|
|
</trkpt>
|
|
<trkpt lat="57.534738" lon="10.419835">
|
|
<ele>19.852128</ele>
|
|
<time>2026-07-17T16:32:32.000Z</time>
|
|
</trkpt>
|
|
<trkpt lat="57.534785" lon="10.419802">
|
|
<ele>19.850687</ele>
|
|
<time>2026-07-17T16:32:33.000Z</time>
|
|
</trkpt>
|
|
<trkpt lat="57.534830" lon="10.419768">
|
|
<ele>19.849294</ele>
|
|
<time>2026-07-17T16:32:34.000Z</time>
|
|
</trkpt>
|
|
<trkpt lat="57.534878" lon="10.419731">
|
|
<ele>19.847804</ele>
|
|
<time>2026-07-17T16:32:35.000Z</time>
|
|
</trkpt>
|
|
<trkpt lat="57.534922" lon="10.419696">
|
|
<ele>19.846432</ele>
|
|
<time>2026-07-17T16:32:36.000Z</time>
|
|
</trkpt>
|
|
<trkpt lat="57.534964" lon="10.419663">
|
|
<ele>19.845124</ele>
|
|
<time>2026-07-17T16:32:37.000Z</time>
|
|
</trkpt>
|
|
<trkpt lat="57.535006" lon="10.419628">
|
|
<ele>19.843805</ele>
|
|
<time>2026-07-17T16:32:38.000Z</time>
|
|
</trkpt>
|
|
<trkpt lat="57.535050" lon="10.419593">
|
|
<ele>19.842432</ele>
|
|
<time>2026-07-17T16:32:39.000Z</time>
|
|
</trkpt>
|
|
<trkpt lat="57.535094" lon="10.419559">
|
|
<ele>19.841066</ele>
|
|
<time>2026-07-17T16:32:40.000Z</time>
|
|
</trkpt>
|
|
<trkpt lat="57.535136" lon="10.419527">
|
|
<ele>19.839765</ele>
|
|
<time>2026-07-17T16:32:41.000Z</time>
|
|
</trkpt>
|
|
<trkpt lat="57.535178" lon="10.419496">
|
|
<ele>19.838469</ele>
|
|
<time>2026-07-17T16:32:42.000Z</time>
|
|
</trkpt>
|
|
<trkpt lat="57.535220" lon="10.419462">
|
|
<ele>19.837155</ele>
|
|
<time>2026-07-17T16:32:43.000Z</time>
|
|
</trkpt>
|
|
<trkpt lat="57.535259" lon="10.419432">
|
|
<ele>19.835945</ele>
|
|
<time>2026-07-17T16:32:44.000Z</time>
|
|
</trkpt>
|
|
<trkpt lat="57.535299" lon="10.419401">
|
|
<ele>19.834702</ele>
|
|
<time>2026-07-17T16:32:45.000Z</time>
|
|
</trkpt>
|
|
<trkpt lat="57.535345" lon="10.419367">
|
|
<ele>19.833283</ele>
|
|
<time>2026-07-17T16:32:46.000Z</time>
|
|
</trkpt>
|
|
<trkpt lat="57.535389" lon="10.419336">
|
|
<ele>19.831933</ele>
|
|
<time>2026-07-17T16:32:47.000Z</time>
|
|
</trkpt>
|
|
<trkpt lat="57.535439" lon="10.419302">
|
|
<ele>19.830407</ele>
|
|
<time>2026-07-17T16:32:48.000Z</time>
|
|
</trkpt>
|
|
<trkpt lat="57.535485" lon="10.419272">
|
|
<ele>19.829009</ele>
|
|
<time>2026-07-17T16:32:49.000Z</time>
|
|
</trkpt>
|
|
<trkpt lat="57.535530" lon="10.419240">
|
|
<ele>19.827627</ele>
|
|
<time>2026-07-17T16:32:50.000Z</time>
|
|
</trkpt>
|
|
<trkpt lat="57.535575" lon="10.419208">
|
|
<ele>19.826246</ele>
|
|
<time>2026-07-17T16:32:51.000Z</time>
|
|
</trkpt>
|
|
<trkpt lat="57.535620" lon="10.419175">
|
|
<ele>19.824859</ele>
|
|
<time>2026-07-17T16:32:52.000Z</time>
|
|
</trkpt>
|
|
<trkpt lat="57.535666" lon="10.419142">
|
|
<ele>19.823445</ele>
|
|
<time>2026-07-17T16:32:53.000Z</time>
|
|
</trkpt>
|
|
<trkpt lat="57.535708" lon="10.419107">
|
|
<ele>19.822125</ele>
|
|
<time>2026-07-17T16:32:54.000Z</time>
|
|
</trkpt>
|
|
<trkpt lat="57.535750" lon="10.419073">
|
|
<ele>19.825043</ele>
|
|
<time>2026-07-17T16:32:55.000Z</time>
|
|
</trkpt>
|
|
<trkpt lat="57.535791" lon="10.419041">
|
|
<ele>19.835134</ele>
|
|
<time>2026-07-17T16:32:56.000Z</time>
|
|
</trkpt>
|
|
<trkpt lat="57.535832" lon="10.419006">
|
|
<ele>19.845371</ele>
|
|
<time>2026-07-17T16:32:57.000Z</time>
|
|
</trkpt>
|
|
<trkpt lat="57.535871" lon="10.418975">
|
|
<ele>19.854996</ele>
|
|
<time>2026-07-17T16:32:58.000Z</time>
|
|
</trkpt>
|
|
<trkpt lat="57.535914" lon="10.418945">
|
|
<ele>19.865419</ele>
|
|
<time>2026-07-17T16:32:59.000Z</time>
|
|
</trkpt>
|
|
<trkpt lat="57.535956" lon="10.418908">
|
|
<ele>19.875965</ele>
|
|
<time>2026-07-17T16:33:00.000Z</time>
|
|
</trkpt>
|
|
<trkpt lat="57.535998" lon="10.418873">
|
|
<ele>19.886409</ele>
|
|
<time>2026-07-17T16:33:01.000Z</time>
|
|
</trkpt>
|
|
<trkpt lat="57.536040" lon="10.418840">
|
|
<ele>19.896756</ele>
|
|
<time>2026-07-17T16:33:02.000Z</time>
|
|
</trkpt>
|
|
<trkpt lat="57.536083" lon="10.418810">
|
|
<ele>19.907178</ele>
|
|
<time>2026-07-17T16:33:03.000Z</time>
|
|
</trkpt>
|
|
<trkpt lat="57.536128" lon="10.418780">
|
|
<ele>19.918027</ele>
|
|
<time>2026-07-17T16:33:04.000Z</time>
|
|
</trkpt>
|
|
<trkpt lat="57.536170" lon="10.418746">
|
|
<ele>19.928422</ele>
|
|
<time>2026-07-17T16:33:05.000Z</time>
|
|
</trkpt>
|
|
<trkpt lat="57.536213" lon="10.418709">
|
|
<ele>19.939174</ele>
|
|
<time>2026-07-17T16:33:06.000Z</time>
|
|
</trkpt>
|
|
<trkpt lat="57.536257" lon="10.418672">
|
|
<ele>19.950132</ele>
|
|
<time>2026-07-17T16:33:07.000Z</time>
|
|
</trkpt>
|
|
<trkpt lat="57.536299" lon="10.418637">
|
|
<ele>19.960576</ele>
|
|
<time>2026-07-17T16:33:08.000Z</time>
|
|
</trkpt>
|
|
<trkpt lat="57.536340" lon="10.418606">
|
|
<ele>19.970620</ele>
|
|
<time>2026-07-17T16:33:09.000Z</time>
|
|
</trkpt>
|
|
<trkpt lat="57.536378" lon="10.418576">
|
|
<ele>19.979988</ele>
|
|
<time>2026-07-17T16:33:10.000Z</time>
|
|
</trkpt>
|
|
<trkpt lat="57.536418" lon="10.418545">
|
|
<ele>19.989822</ele>
|
|
<time>2026-07-17T16:33:11.000Z</time>
|
|
</trkpt>
|
|
<trkpt lat="57.536460" lon="10.418512">
|
|
<ele>20.000169</ele>
|
|
<time>2026-07-17T16:33:12.000Z</time>
|
|
</trkpt>
|
|
<trkpt lat="57.536501" lon="10.418479">
|
|
<ele>20.010307</ele>
|
|
<time>2026-07-17T16:33:13.000Z</time>
|
|
</trkpt>
|
|
<trkpt lat="57.536543" lon="10.418442">
|
|
<ele>20.020853</ele>
|
|
<time>2026-07-17T16:33:14.000Z</time>
|
|
</trkpt>
|
|
<trkpt lat="57.536586" lon="10.418401">
|
|
<ele>20.031818</ele>
|
|
<time>2026-07-17T16:33:15.000Z</time>
|
|
</trkpt>
|
|
<trkpt lat="57.536627" lon="10.418361">
|
|
<ele>20.042324</ele>
|
|
<time>2026-07-17T16:33:16.000Z</time>
|
|
</trkpt>
|
|
<trkpt lat="57.536669" lon="10.418323">
|
|
<ele>20.052922</ele>
|
|
<time>2026-07-17T16:33:17.000Z</time>
|
|
</trkpt>
|
|
<trkpt lat="57.536712" lon="10.418287">
|
|
<ele>20.063623</ele>
|
|
<time>2026-07-17T16:33:18.000Z</time>
|
|
</trkpt>
|
|
<trkpt lat="57.536758" lon="10.418251">
|
|
<ele>20.074949</ele>
|
|
<time>2026-07-17T16:33:19.000Z</time>
|
|
</trkpt>
|
|
<trkpt lat="57.536803" lon="10.418215">
|
|
<ele>20.086066</ele>
|
|
<time>2026-07-17T16:33:20.000Z</time>
|
|
</trkpt>
|
|
<trkpt lat="57.536845" lon="10.418183">
|
|
<ele>20.096366</ele>
|
|
<time>2026-07-17T16:33:21.000Z</time>
|
|
</trkpt>
|
|
<trkpt lat="57.536885" lon="10.418150">
|
|
<ele>20.106296</ele>
|
|
<time>2026-07-17T16:33:22.000Z</time>
|
|
</trkpt>
|
|
<trkpt lat="57.536924" lon="10.418117">
|
|
<ele>20.116019</ele>
|
|
<time>2026-07-17T16:33:23.000Z</time>
|
|
</trkpt>
|
|
<trkpt lat="57.536966" lon="10.418084">
|
|
<ele>20.126366</ele>
|
|
<time>2026-07-17T16:33:24.000Z</time>
|
|
</trkpt>
|
|
<trkpt lat="57.537009" lon="10.418053">
|
|
<ele>20.136832</ele>
|
|
<time>2026-07-17T16:33:25.000Z</time>
|
|
</trkpt>
|
|
<trkpt lat="57.537050" lon="10.418024">
|
|
<ele>20.146787</ele>
|
|
<time>2026-07-17T16:33:26.000Z</time>
|
|
</trkpt>
|
|
<trkpt lat="57.537089" lon="10.417994">
|
|
<ele>20.156365</ele>
|
|
<time>2026-07-17T16:33:27.000Z</time>
|
|
</trkpt>
|
|
<trkpt lat="57.537127" lon="10.417963">
|
|
<ele>20.165781</ele>
|
|
<time>2026-07-17T16:33:28.000Z</time>
|
|
</trkpt>
|
|
<trkpt lat="57.537170" lon="10.417935">
|
|
<ele>20.176121</ele>
|
|
<time>2026-07-17T16:33:29.000Z</time>
|
|
</trkpt>
|
|
<trkpt lat="57.537215" lon="10.417903">
|
|
<ele>20.187054</ele>
|
|
<time>2026-07-17T16:33:30.000Z</time>
|
|
</trkpt>
|
|
<trkpt lat="57.537261" lon="10.417870">
|
|
<ele>20.198243</ele>
|
|
<time>2026-07-17T16:33:31.000Z</time>
|
|
</trkpt>
|
|
<trkpt lat="57.537304" lon="10.417839">
|
|
<ele>20.208710</ele>
|
|
<time>2026-07-17T16:33:32.000Z</time>
|
|
</trkpt>
|
|
<trkpt lat="57.537352" lon="10.417810">
|
|
<ele>20.220164</ele>
|
|
<time>2026-07-17T16:33:33.000Z</time>
|
|
</trkpt>
|
|
<trkpt lat="57.537400" lon="10.417781">
|
|
<ele>20.231840</ele>
|
|
<time>2026-07-17T16:33:34.000Z</time>
|
|
</trkpt>
|
|
<trkpt lat="57.537446" lon="10.417751">
|
|
<ele>20.244097</ele>
|
|
<time>2026-07-17T16:33:35.000Z</time>
|
|
</trkpt>
|
|
<trkpt lat="57.537491" lon="10.417721">
|
|
<ele>20.256117</ele>
|
|
<time>2026-07-17T16:33:36.000Z</time>
|
|
</trkpt>
|
|
<trkpt lat="57.537536" lon="10.417694">
|
|
<ele>20.268008</ele>
|
|
<time>2026-07-17T16:33:37.000Z</time>
|
|
</trkpt>
|
|
<trkpt lat="57.537576" lon="10.417668">
|
|
<ele>20.278662</ele>
|
|
<time>2026-07-17T16:33:38.000Z</time>
|
|
</trkpt>
|
|
<trkpt lat="57.537615" lon="10.417641">
|
|
<ele>20.289126</ele>
|
|
<time>2026-07-17T16:33:39.000Z</time>
|
|
</trkpt>
|
|
<trkpt lat="57.537656" lon="10.417613">
|
|
<ele>20.300109</ele>
|
|
<time>2026-07-17T16:33:40.000Z</time>
|
|
</trkpt>
|
|
<trkpt lat="57.537694" lon="10.417581">
|
|
<ele>20.310597</ele>
|
|
<time>2026-07-17T16:33:41.000Z</time>
|
|
</trkpt>
|
|
<trkpt lat="57.537732" lon="10.417548">
|
|
<ele>20.321141</ele>
|
|
<time>2026-07-17T16:33:42.000Z</time>
|
|
</trkpt>
|
|
<trkpt lat="57.537770" lon="10.417514">
|
|
<ele>20.331744</ele>
|
|
<time>2026-07-17T16:33:43.000Z</time>
|
|
</trkpt>
|
|
<trkpt lat="57.537809" lon="10.417481">
|
|
<ele>20.342516</ele>
|
|
<time>2026-07-17T16:33:44.000Z</time>
|
|
</trkpt>
|
|
<trkpt lat="57.537853" lon="10.417446">
|
|
<ele>20.354549</ele>
|
|
<time>2026-07-17T16:33:45.000Z</time>
|
|
</trkpt>
|
|
<trkpt lat="57.537898" lon="10.417413">
|
|
<ele>20.366712</ele>
|
|
<time>2026-07-17T16:33:46.000Z</time>
|
|
</trkpt>
|
|
<trkpt lat="57.537940" lon="10.417379">
|
|
<ele>20.378229</ele>
|
|
<time>2026-07-17T16:33:47.000Z</time>
|
|
</trkpt>
|
|
<trkpt lat="57.537982" lon="10.417345">
|
|
<ele>20.389746</ele>
|
|
<time>2026-07-17T16:33:48.000Z</time>
|
|
</trkpt>
|
|
<trkpt lat="57.538024" lon="10.417310">
|
|
<ele>20.401318</ele>
|
|
<time>2026-07-17T16:33:49.000Z</time>
|
|
</trkpt>
|
|
<trkpt lat="57.538064" lon="10.417275">
|
|
<ele>20.412432</ele>
|
|
<time>2026-07-17T16:33:50.000Z</time>
|
|
</trkpt>
|
|
<trkpt lat="57.538105" lon="10.417241">
|
|
<ele>20.423719</ele>
|
|
<time>2026-07-17T16:33:51.000Z</time>
|
|
</trkpt>
|
|
<trkpt lat="57.538149" lon="10.417207">
|
|
<ele>20.435699</ele>
|
|
<time>2026-07-17T16:33:52.000Z</time>
|
|
</trkpt>
|
|
<trkpt lat="57.538191" lon="10.417172">
|
|
<ele>20.447271</ele>
|
|
<time>2026-07-17T16:33:53.000Z</time>
|
|
</trkpt>
|
|
<trkpt lat="57.538233" lon="10.417137">
|
|
<ele>20.458843</ele>
|
|
<time>2026-07-17T16:33:54.000Z</time>
|
|
</trkpt>
|
|
<trkpt lat="57.538277" lon="10.417105">
|
|
<ele>20.470722</ele>
|
|
<time>2026-07-17T16:33:55.000Z</time>
|
|
</trkpt>
|
|
<trkpt lat="57.538323" lon="10.417074">
|
|
<ele>20.483025</ele>
|
|
<time>2026-07-17T16:33:56.000Z</time>
|
|
</trkpt>
|
|
<trkpt lat="57.538368" lon="10.417041">
|
|
<ele>20.495188</ele>
|
|
<time>2026-07-17T16:33:57.000Z</time>
|
|
</trkpt>
|
|
<trkpt lat="57.538414" lon="10.417010">
|
|
<ele>20.507490</ele>
|
|
<time>2026-07-17T16:33:58.000Z</time>
|
|
</trkpt>
|
|
<trkpt lat="57.538461" lon="10.416984">
|
|
<ele>20.519821</ele>
|
|
<time>2026-07-17T16:33:59.000Z</time>
|
|
</trkpt>
|
|
<trkpt lat="57.538511" lon="10.416960">
|
|
<ele>20.532807</ele>
|
|
<time>2026-07-17T16:34:00.000Z</time>
|
|
</trkpt>
|
|
<trkpt lat="57.538557" lon="10.416932">
|
|
<ele>20.544978</ele>
|
|
<time>2026-07-17T16:34:01.000Z</time>
|
|
</trkpt>
|
|
<trkpt lat="57.538601" lon="10.416899">
|
|
<ele>20.556907</ele>
|
|
<time>2026-07-17T16:34:02.000Z</time>
|
|
</trkpt>
|
|
<trkpt lat="57.538645" lon="10.416867">
|
|
<ele>20.568786</ele>
|
|
<time>2026-07-17T16:34:03.000Z</time>
|
|
</trkpt>
|
|
<trkpt lat="57.538687" lon="10.416836">
|
|
<ele>20.580148</ele>
|
|
<time>2026-07-17T16:34:04.000Z</time>
|
|
</trkpt>
|
|
<trkpt lat="57.538731" lon="10.416802">
|
|
<ele>20.592128</ele>
|
|
<time>2026-07-17T16:34:05.000Z</time>
|
|
</trkpt>
|
|
<trkpt lat="57.538773" lon="10.416767">
|
|
<ele>20.603700</ele>
|
|
<time>2026-07-17T16:34:06.000Z</time>
|
|
</trkpt>
|
|
<trkpt lat="57.538812" lon="10.416731">
|
|
<ele>20.614647</ele>
|
|
<time>2026-07-17T16:34:07.000Z</time>
|
|
</trkpt>
|
|
<trkpt lat="57.538850" lon="10.416696">
|
|
<ele>20.625308</ele>
|
|
<time>2026-07-17T16:34:08.000Z</time>
|
|
</trkpt>
|
|
<trkpt lat="57.538891" lon="10.416666">
|
|
<ele>20.636386</ele>
|
|
<time>2026-07-17T16:34:09.000Z</time>
|
|
</trkpt>
|
|
<trkpt lat="57.538933" lon="10.416639">
|
|
<ele>20.647560</ele>
|
|
<time>2026-07-17T16:34:10.000Z</time>
|
|
</trkpt>
|
|
<trkpt lat="57.538973" lon="10.416612">
|
|
<ele>20.658260</ele>
|
|
<time>2026-07-17T16:34:11.000Z</time>
|
|
</trkpt>
|
|
<trkpt lat="57.539019" lon="10.416584">
|
|
<ele>20.670431</ele>
|
|
<time>2026-07-17T16:34:12.000Z</time>
|
|
</trkpt>
|
|
<trkpt lat="57.539062" lon="10.416558">
|
|
<ele>20.681801</ele>
|
|
<time>2026-07-17T16:34:13.000Z</time>
|
|
</trkpt>
|
|
<trkpt lat="57.539109" lon="10.416531">
|
|
<ele>20.662659</ele>
|
|
<time>2026-07-17T16:34:14.000Z</time>
|
|
</trkpt>
|
|
<trkpt lat="57.539156" lon="10.416506">
|
|
<ele>20.643299</ele>
|
|
<time>2026-07-17T16:34:15.000Z</time>
|
|
</trkpt>
|
|
<trkpt lat="57.539204" lon="10.416479">
|
|
<ele>20.623438</ele>
|
|
<time>2026-07-17T16:34:16.000Z</time>
|
|
</trkpt>
|
|
<trkpt lat="57.539251" lon="10.416448">
|
|
<ele>20.603690</ele>
|
|
<time>2026-07-17T16:34:17.000Z</time>
|
|
</trkpt>
|
|
<trkpt lat="57.539301" lon="10.416415">
|
|
<ele>20.582679</ele>
|
|
<time>2026-07-17T16:34:18.000Z</time>
|
|
</trkpt>
|
|
<trkpt lat="57.539351" lon="10.416386">
|
|
<ele>20.561936</ele>
|
|
<time>2026-07-17T16:34:19.000Z</time>
|
|
</trkpt>
|
|
<trkpt lat="57.539400" lon="10.416359">
|
|
<ele>20.541697</ele>
|
|
<time>2026-07-17T16:34:20.000Z</time>
|
|
</trkpt>
|
|
<trkpt lat="57.539448" lon="10.416332">
|
|
<ele>20.521836</ele>
|
|
<time>2026-07-17T16:34:21.000Z</time>
|
|
</trkpt>
|
|
<trkpt lat="57.539494" lon="10.416305">
|
|
<ele>20.502733</ele>
|
|
<time>2026-07-17T16:34:22.000Z</time>
|
|
</trkpt>
|
|
<trkpt lat="57.539541" lon="10.416277">
|
|
<ele>20.483188</ele>
|
|
<time>2026-07-17T16:34:23.000Z</time>
|
|
</trkpt>
|
|
<trkpt lat="57.539588" lon="10.416250">
|
|
<ele>20.463706</ele>
|
|
<time>2026-07-17T16:34:24.000Z</time>
|
|
</trkpt>
|
|
<trkpt lat="57.539630" lon="10.416224">
|
|
<ele>20.446176</ele>
|
|
<time>2026-07-17T16:34:25.000Z</time>
|
|
</trkpt>
|
|
<trkpt lat="57.539670" lon="10.416200">
|
|
<ele>20.429531</ele>
|
|
<time>2026-07-17T16:34:26.000Z</time>
|
|
</trkpt>
|
|
<trkpt lat="57.539708" lon="10.416176">
|
|
<ele>20.413638</ele>
|
|
<time>2026-07-17T16:34:27.000Z</time>
|
|
</trkpt>
|
|
<trkpt lat="57.539745" lon="10.416162">
|
|
<ele>20.398683</ele>
|
|
<time>2026-07-17T16:34:28.000Z</time>
|
|
</trkpt>
|
|
<trkpt lat="57.539777" lon="10.416168">
|
|
<ele>20.385944</ele>
|
|
<time>2026-07-17T16:34:29.000Z</time>
|
|
</trkpt>
|
|
<trkpt lat="57.539804" lon="10.416199">
|
|
<ele>20.373382</ele>
|
|
<time>2026-07-17T16:34:30.000Z</time>
|
|
</trkpt>
|
|
<trkpt lat="57.539824" lon="10.416253">
|
|
<ele>20.359434</ele>
|
|
<time>2026-07-17T16:34:31.000Z</time>
|
|
</trkpt>
|
|
<trkpt lat="57.539841" lon="10.416320">
|
|
<ele>20.343679</ele>
|
|
<time>2026-07-17T16:34:32.000Z</time>
|
|
</trkpt>
|
|
<trkpt lat="57.539860" lon="10.416393">
|
|
<ele>20.326431</ele>
|
|
<time>2026-07-17T16:34:33.000Z</time>
|
|
</trkpt>
|
|
<trkpt lat="57.539881" lon="10.416471">
|
|
<ele>20.307879</ele>
|
|
<time>2026-07-17T16:34:34.000Z</time>
|
|
</trkpt>
|
|
<trkpt lat="57.539902" lon="10.416553">
|
|
<ele>20.288564</ele>
|
|
<time>2026-07-17T16:34:35.000Z</time>
|
|
</trkpt>
|
|
<trkpt lat="57.539923" lon="10.416638">
|
|
<ele>20.268671</ele>
|
|
<time>2026-07-17T16:34:36.000Z</time>
|
|
</trkpt>
|
|
<trkpt lat="57.539944" lon="10.416727">
|
|
<ele>20.248003</ele>
|
|
<time>2026-07-17T16:34:37.000Z</time>
|
|
</trkpt>
|
|
<trkpt lat="57.539966" lon="10.416820">
|
|
<ele>20.226397</ele>
|
|
<time>2026-07-17T16:34:38.000Z</time>
|
|
</trkpt>
|
|
<trkpt lat="57.539990" lon="10.416916">
|
|
<ele>20.203883</ele>
|
|
<time>2026-07-17T16:34:39.000Z</time>
|
|
</trkpt>
|
|
<trkpt lat="57.540011" lon="10.417014">
|
|
<ele>20.181450</ele>
|
|
<time>2026-07-17T16:34:40.000Z</time>
|
|
</trkpt>
|
|
<trkpt lat="57.540033" lon="10.417110">
|
|
<ele>20.159259</ele>
|
|
<time>2026-07-17T16:34:41.000Z</time>
|
|
</trkpt>
|
|
<trkpt lat="57.540056" lon="10.417208">
|
|
<ele>20.136520</ele>
|
|
<time>2026-07-17T16:34:42.000Z</time>
|
|
</trkpt>
|
|
<trkpt lat="57.540079" lon="10.417307">
|
|
<ele>20.113586</ele>
|
|
<time>2026-07-17T16:34:43.000Z</time>
|
|
</trkpt>
|
|
<trkpt lat="57.540102" lon="10.417410">
|
|
<ele>20.089870</ele>
|
|
<time>2026-07-17T16:34:44.000Z</time>
|
|
</trkpt>
|
|
<trkpt lat="57.540125" lon="10.417517">
|
|
<ele>20.065367</ele>
|
|
<time>2026-07-17T16:34:45.000Z</time>
|
|
</trkpt>
|
|
<trkpt lat="57.540148" lon="10.417625">
|
|
<ele>20.040665</ele>
|
|
<time>2026-07-17T16:34:46.000Z</time>
|
|
</trkpt>
|
|
<trkpt lat="57.540172" lon="10.417734">
|
|
<ele>20.015619</ele>
|
|
<time>2026-07-17T16:34:47.000Z</time>
|
|
</trkpt>
|
|
<trkpt lat="57.540198" lon="10.417843">
|
|
<ele>19.990261</ele>
|
|
<time>2026-07-17T16:34:48.000Z</time>
|
|
</trkpt>
|
|
<trkpt lat="57.540222" lon="10.417954">
|
|
<ele>19.965659</ele>
|
|
<time>2026-07-17T16:34:49.000Z</time>
|
|
</trkpt>
|
|
<trkpt lat="57.540247" lon="10.418065">
|
|
<ele>19.944659</ele>
|
|
<time>2026-07-17T16:34:50.000Z</time>
|
|
</trkpt>
|
|
<trkpt lat="57.540270" lon="10.418177">
|
|
<ele>19.923739</ele>
|
|
<time>2026-07-17T16:34:51.000Z</time>
|
|
</trkpt>
|
|
<trkpt lat="57.540295" lon="10.418290">
|
|
<ele>19.902417</ele>
|
|
<time>2026-07-17T16:34:52.000Z</time>
|
|
</trkpt>
|
|
<trkpt lat="57.540321" lon="10.418405">
|
|
<ele>19.880648</ele>
|
|
<time>2026-07-17T16:34:53.000Z</time>
|
|
</trkpt>
|
|
<trkpt lat="57.540348" lon="10.418517">
|
|
<ele>19.859229</ele>
|
|
<time>2026-07-17T16:34:54.000Z</time>
|
|
</trkpt>
|
|
<trkpt lat="57.540374" lon="10.418630">
|
|
<ele>19.837781</ele>
|
|
<time>2026-07-17T16:34:55.000Z</time>
|
|
</trkpt>
|
|
<trkpt lat="57.540400" lon="10.418743">
|
|
<ele>19.816333</ele>
|
|
<time>2026-07-17T16:34:56.000Z</time>
|
|
</trkpt>
|
|
<trkpt lat="57.540424" lon="10.418855">
|
|
<ele>19.795294</ele>
|
|
<time>2026-07-17T16:34:57.000Z</time>
|
|
</trkpt>
|
|
<trkpt lat="57.540451" lon="10.418967">
|
|
<ele>19.773875</ele>
|
|
<time>2026-07-17T16:34:58.000Z</time>
|
|
</trkpt>
|
|
<trkpt lat="57.540477" lon="10.419081">
|
|
<ele>19.752267</ele>
|
|
<time>2026-07-17T16:34:59.000Z</time>
|
|
</trkpt>
|
|
<trkpt lat="57.540503" lon="10.419194">
|
|
<ele>19.730819</ele>
|
|
<time>2026-07-17T16:35:00.000Z</time>
|
|
</trkpt>
|
|
<trkpt lat="57.540525" lon="10.419307">
|
|
<ele>19.709849</ele>
|
|
<time>2026-07-17T16:35:01.000Z</time>
|
|
</trkpt>
|
|
<trkpt lat="57.540550" lon="10.419421">
|
|
<ele>19.688366</ele>
|
|
<time>2026-07-17T16:35:02.000Z</time>
|
|
</trkpt>
|
|
<trkpt lat="57.540576" lon="10.419530">
|
|
<ele>19.667557</ele>
|
|
<time>2026-07-17T16:35:03.000Z</time>
|
|
</trkpt>
|
|
<trkpt lat="57.540601" lon="10.419639">
|
|
<ele>19.646879</ele>
|
|
<time>2026-07-17T16:35:04.000Z</time>
|
|
</trkpt>
|
|
<trkpt lat="57.540626" lon="10.419758">
|
|
<ele>19.624585</ele>
|
|
<time>2026-07-17T16:35:05.000Z</time>
|
|
</trkpt>
|
|
<trkpt lat="57.540653" lon="10.419870">
|
|
<ele>19.603166</ele>
|
|
<time>2026-07-17T16:35:06.000Z</time>
|
|
</trkpt>
|
|
<trkpt lat="57.540678" lon="10.419982">
|
|
<ele>19.582006</ele>
|
|
<time>2026-07-17T16:35:07.000Z</time>
|
|
</trkpt>
|
|
<trkpt lat="57.540703" lon="10.420092">
|
|
<ele>19.561167</ele>
|
|
<time>2026-07-17T16:35:08.000Z</time>
|
|
</trkpt>
|
|
<trkpt lat="57.540728" lon="10.420202">
|
|
<ele>19.540328</ele>
|
|
<time>2026-07-17T16:35:09.000Z</time>
|
|
</trkpt>
|
|
<trkpt lat="57.540752" lon="10.420313">
|
|
<ele>19.519451</ele>
|
|
<time>2026-07-17T16:35:10.000Z</time>
|
|
</trkpt>
|
|
<trkpt lat="57.540777" lon="10.420426">
|
|
<ele>19.498129</ele>
|
|
<time>2026-07-17T16:35:11.000Z</time>
|
|
</trkpt>
|
|
<trkpt lat="57.540800" lon="10.420535">
|
|
<ele>19.477698</ele>
|
|
<time>2026-07-17T16:35:12.000Z</time>
|
|
</trkpt>
|
|
<trkpt lat="57.540825" lon="10.420645">
|
|
<ele>19.456859</ele>
|
|
<time>2026-07-17T16:35:13.000Z</time>
|
|
</trkpt>
|
|
<trkpt lat="57.540850" lon="10.420755">
|
|
<ele>19.436020</ele>
|
|
<time>2026-07-17T16:35:14.000Z</time>
|
|
</trkpt>
|
|
<trkpt lat="57.540874" lon="10.420864">
|
|
<ele>19.415467</ele>
|
|
<time>2026-07-17T16:35:15.000Z</time>
|
|
</trkpt>
|
|
<trkpt lat="57.540900" lon="10.420974">
|
|
<ele>19.394499</ele>
|
|
<time>2026-07-17T16:35:16.000Z</time>
|
|
</trkpt>
|
|
<trkpt lat="57.540924" lon="10.421083">
|
|
<ele>19.385957</ele>
|
|
<time>2026-07-17T16:35:17.000Z</time>
|
|
</trkpt>
|
|
<trkpt lat="57.540950" lon="10.421193">
|
|
<ele>19.388062</ele>
|
|
<time>2026-07-17T16:35:18.000Z</time>
|
|
</trkpt>
|
|
<trkpt lat="57.540975" lon="10.421303">
|
|
<ele>19.390153</ele>
|
|
<time>2026-07-17T16:35:19.000Z</time>
|
|
</trkpt>
|
|
<trkpt lat="57.541000" lon="10.421416">
|
|
<ele>19.392294</ele>
|
|
<time>2026-07-17T16:35:20.000Z</time>
|
|
</trkpt>
|
|
<trkpt lat="57.541025" lon="10.421529">
|
|
<ele>19.394434</ele>
|
|
<time>2026-07-17T16:35:21.000Z</time>
|
|
</trkpt>
|
|
<trkpt lat="57.541050" lon="10.421641">
|
|
<ele>19.396558</ele>
|
|
<time>2026-07-17T16:35:22.000Z</time>
|
|
</trkpt>
|
|
<trkpt lat="57.541075" lon="10.421755">
|
|
<ele>19.398714</ele>
|
|
<time>2026-07-17T16:35:23.000Z</time>
|
|
</trkpt>
|
|
<trkpt lat="57.541099" lon="10.421868">
|
|
<ele>19.400843</ele>
|
|
<time>2026-07-17T16:35:24.000Z</time>
|
|
</trkpt>
|
|
<trkpt lat="57.541126" lon="10.421980">
|
|
<ele>19.402992</ele>
|
|
<time>2026-07-17T16:35:25.000Z</time>
|
|
</trkpt>
|
|
<trkpt lat="57.541151" lon="10.422093">
|
|
<ele>19.405133</ele>
|
|
<time>2026-07-17T16:35:26.000Z</time>
|
|
</trkpt>
|
|
<trkpt lat="57.541176" lon="10.422207">
|
|
<ele>19.407289</ele>
|
|
<time>2026-07-17T16:35:27.000Z</time>
|
|
</trkpt>
|
|
<trkpt lat="57.541203" lon="10.422321">
|
|
<ele>19.409471</ele>
|
|
<time>2026-07-17T16:35:28.000Z</time>
|
|
</trkpt>
|
|
<trkpt lat="57.541229" lon="10.422435">
|
|
<ele>19.411640</ele>
|
|
<time>2026-07-17T16:35:29.000Z</time>
|
|
</trkpt>
|
|
<trkpt lat="57.541254" lon="10.422547">
|
|
<ele>19.413764</ele>
|
|
<time>2026-07-17T16:35:30.000Z</time>
|
|
</trkpt>
|
|
<trkpt lat="57.541279" lon="10.422661">
|
|
<ele>19.415921</ele>
|
|
<time>2026-07-17T16:35:31.000Z</time>
|
|
</trkpt>
|
|
<trkpt lat="57.541304" lon="10.422774">
|
|
<ele>19.418061</ele>
|
|
<time>2026-07-17T16:35:32.000Z</time>
|
|
</trkpt>
|
|
<trkpt lat="57.541328" lon="10.422888">
|
|
<ele>19.420205</ele>
|
|
<time>2026-07-17T16:35:33.000Z</time>
|
|
</trkpt>
|
|
<trkpt lat="57.541355" lon="10.423001">
|
|
<ele>19.422371</ele>
|
|
<time>2026-07-17T16:35:34.000Z</time>
|
|
</trkpt>
|
|
<trkpt lat="57.541380" lon="10.423115">
|
|
<ele>19.424528</ele>
|
|
<time>2026-07-17T16:35:35.000Z</time>
|
|
</trkpt>
|
|
<trkpt lat="57.541405" lon="10.423227">
|
|
<ele>19.426652</ele>
|
|
<time>2026-07-17T16:35:36.000Z</time>
|
|
</trkpt>
|
|
<trkpt lat="57.541431" lon="10.423338">
|
|
<ele>19.428772</ele>
|
|
<time>2026-07-17T16:35:37.000Z</time>
|
|
</trkpt>
|
|
<trkpt lat="57.541458" lon="10.423449">
|
|
<ele>19.430906</ele>
|
|
<time>2026-07-17T16:35:38.000Z</time>
|
|
</trkpt>
|
|
<trkpt lat="57.541483" lon="10.423562">
|
|
<ele>19.433047</ele>
|
|
<time>2026-07-17T16:35:39.000Z</time>
|
|
</trkpt>
|
|
<trkpt lat="57.541508" lon="10.423675">
|
|
<ele>19.435187</ele>
|
|
<time>2026-07-17T16:35:40.000Z</time>
|
|
</trkpt>
|
|
<trkpt lat="57.541533" lon="10.423788">
|
|
<ele>19.437327</ele>
|
|
<time>2026-07-17T16:35:41.000Z</time>
|
|
</trkpt>
|
|
<trkpt lat="57.541557" lon="10.423901">
|
|
<ele>19.439455</ele>
|
|
<time>2026-07-17T16:35:42.000Z</time>
|
|
</trkpt>
|
|
<trkpt lat="57.541581" lon="10.424008">
|
|
<ele>19.441486</ele>
|
|
<time>2026-07-17T16:35:43.000Z</time>
|
|
</trkpt>
|
|
<trkpt lat="57.541604" lon="10.424114">
|
|
<ele>19.443488</ele>
|
|
<time>2026-07-17T16:35:44.000Z</time>
|
|
</trkpt>
|
|
<trkpt lat="57.541633" lon="10.424238">
|
|
<ele>19.435986</ele>
|
|
<time>2026-07-17T16:35:45.000Z</time>
|
|
</trkpt>
|
|
<trkpt lat="57.541659" lon="10.424351">
|
|
<ele>19.428941</ele>
|
|
<time>2026-07-17T16:35:46.000Z</time>
|
|
</trkpt>
|
|
<trkpt lat="57.541683" lon="10.424462">
|
|
<ele>19.422084</ele>
|
|
<time>2026-07-17T16:35:47.000Z</time>
|
|
</trkpt>
|
|
<trkpt lat="57.541710" lon="10.424574">
|
|
<ele>19.415049</ele>
|
|
<time>2026-07-17T16:35:48.000Z</time>
|
|
</trkpt>
|
|
<trkpt lat="57.541735" lon="10.424685">
|
|
<ele>19.408151</ele>
|
|
<time>2026-07-17T16:35:49.000Z</time>
|
|
</trkpt>
|
|
<trkpt lat="57.541759" lon="10.424796">
|
|
<ele>19.401295</ele>
|
|
<time>2026-07-17T16:35:50.000Z</time>
|
|
</trkpt>
|
|
<trkpt lat="57.541786" lon="10.424909">
|
|
<ele>19.394207</ele>
|
|
<time>2026-07-17T16:35:51.000Z</time>
|
|
</trkpt>
|
|
<trkpt lat="57.541813" lon="10.425021">
|
|
<ele>19.387172</ele>
|
|
<time>2026-07-17T16:35:52.000Z</time>
|
|
</trkpt>
|
|
<trkpt lat="57.541839" lon="10.425134">
|
|
<ele>19.380127</ele>
|
|
<time>2026-07-17T16:35:53.000Z</time>
|
|
</trkpt>
|
|
<trkpt lat="57.541866" lon="10.425249">
|
|
<ele>19.372935</ele>
|
|
<time>2026-07-17T16:35:54.000Z</time>
|
|
</trkpt>
|
|
<trkpt lat="57.541893" lon="10.425362">
|
|
<ele>19.365848</ele>
|
|
<time>2026-07-17T16:35:55.000Z</time>
|
|
</trkpt>
|
|
<trkpt lat="57.541919" lon="10.425476">
|
|
<ele>19.358750</ele>
|
|
<time>2026-07-17T16:35:56.000Z</time>
|
|
</trkpt>
|
|
<trkpt lat="57.541945" lon="10.425593">
|
|
<ele>19.351495</ele>
|
|
<time>2026-07-17T16:35:57.000Z</time>
|
|
</trkpt>
|
|
<trkpt lat="57.541969" lon="10.425708">
|
|
<ele>19.344425</ele>
|
|
<time>2026-07-17T16:35:58.000Z</time>
|
|
</trkpt>
|
|
<trkpt lat="57.541996" lon="10.425824">
|
|
<ele>19.337180</ele>
|
|
<time>2026-07-17T16:35:59.000Z</time>
|
|
</trkpt>
|
|
<trkpt lat="57.542023" lon="10.425940">
|
|
<ele>19.329935</ele>
|
|
<time>2026-07-17T16:36:00.000Z</time>
|
|
</trkpt>
|
|
<trkpt lat="57.542049" lon="10.426053">
|
|
<ele>19.322890</ele>
|
|
<time>2026-07-17T16:36:01.000Z</time>
|
|
</trkpt>
|
|
<trkpt lat="57.542074" lon="10.426165">
|
|
<ele>19.315940</ele>
|
|
<time>2026-07-17T16:36:02.000Z</time>
|
|
</trkpt>
|
|
<trkpt lat="57.542099" lon="10.426278">
|
|
<ele>19.308937</ele>
|
|
<time>2026-07-17T16:36:03.000Z</time>
|
|
</trkpt>
|
|
<trkpt lat="57.542125" lon="10.426392">
|
|
<ele>19.301840</ele>
|
|
<time>2026-07-17T16:36:04.000Z</time>
|
|
</trkpt>
|
|
<trkpt lat="57.542152" lon="10.426509">
|
|
<ele>19.294542</ele>
|
|
<time>2026-07-17T16:36:05.000Z</time>
|
|
</trkpt>
|
|
<trkpt lat="57.542179" lon="10.426626">
|
|
<ele>19.287245</ele>
|
|
<time>2026-07-17T16:36:06.000Z</time>
|
|
</trkpt>
|
|
<trkpt lat="57.542206" lon="10.426743">
|
|
<ele>19.279948</ele>
|
|
<time>2026-07-17T16:36:07.000Z</time>
|
|
</trkpt>
|
|
<trkpt lat="57.542232" lon="10.426859">
|
|
<ele>19.272745</ele>
|
|
<time>2026-07-17T16:36:08.000Z</time>
|
|
</trkpt>
|
|
<trkpt lat="57.542259" lon="10.426975">
|
|
<ele>19.265500</ele>
|
|
<time>2026-07-17T16:36:09.000Z</time>
|
|
</trkpt>
|
|
<trkpt lat="57.542286" lon="10.427092">
|
|
<ele>19.258203</ele>
|
|
<time>2026-07-17T16:36:10.000Z</time>
|
|
</trkpt>
|
|
<trkpt lat="57.542312" lon="10.427209">
|
|
<ele>19.250963</ele>
|
|
<time>2026-07-17T16:36:11.000Z</time>
|
|
</trkpt>
|
|
<trkpt lat="57.542339" lon="10.427324">
|
|
<ele>19.243971</ele>
|
|
<time>2026-07-17T16:36:12.000Z</time>
|
|
</trkpt>
|
|
<trkpt lat="57.542366" lon="10.427439">
|
|
<ele>19.236980</ele>
|
|
<time>2026-07-17T16:36:13.000Z</time>
|
|
</trkpt>
|
|
<trkpt lat="57.542392" lon="10.427554">
|
|
<ele>19.230030</ele>
|
|
<time>2026-07-17T16:36:14.000Z</time>
|
|
</trkpt>
|
|
<trkpt lat="57.542419" lon="10.427671">
|
|
<ele>19.222936</ele>
|
|
<time>2026-07-17T16:36:15.000Z</time>
|
|
</trkpt>
|
|
<trkpt lat="57.542444" lon="10.427786">
|
|
<ele>19.216025</ele>
|
|
<time>2026-07-17T16:36:16.000Z</time>
|
|
</trkpt>
|
|
<trkpt lat="57.542469" lon="10.427902">
|
|
<ele>19.209063</ele>
|
|
<time>2026-07-17T16:36:17.000Z</time>
|
|
</trkpt>
|
|
<trkpt lat="57.542496" lon="10.428017">
|
|
<ele>19.202071</ele>
|
|
<time>2026-07-17T16:36:18.000Z</time>
|
|
</trkpt>
|
|
<trkpt lat="57.542522" lon="10.428132">
|
|
<ele>19.195121</ele>
|
|
<time>2026-07-17T16:36:19.000Z</time>
|
|
</trkpt>
|
|
<trkpt lat="57.542547" lon="10.428246">
|
|
<ele>19.188262</ele>
|
|
<time>2026-07-17T16:36:20.000Z</time>
|
|
</trkpt>
|
|
<trkpt lat="57.542572" lon="10.428360">
|
|
<ele>19.181403</ele>
|
|
<time>2026-07-17T16:36:21.000Z</time>
|
|
</trkpt>
|
|
<trkpt lat="57.542599" lon="10.428473">
|
|
<ele>19.174513</ele>
|
|
<time>2026-07-17T16:36:22.000Z</time>
|
|
</trkpt>
|
|
<trkpt lat="57.542623" lon="10.428586">
|
|
<ele>19.167745</ele>
|
|
<time>2026-07-17T16:36:23.000Z</time>
|
|
</trkpt>
|
|
<trkpt lat="57.542648" lon="10.428700">
|
|
<ele>19.160885</ele>
|
|
<time>2026-07-17T16:36:24.000Z</time>
|
|
</trkpt>
|
|
<trkpt lat="57.542675" lon="10.428815">
|
|
<ele>19.153894</ele>
|
|
<time>2026-07-17T16:36:25.000Z</time>
|
|
</trkpt>
|
|
<trkpt lat="57.542700" lon="10.428929">
|
|
<ele>19.147035</ele>
|
|
<time>2026-07-17T16:36:26.000Z</time>
|
|
</trkpt>
|
|
<trkpt lat="57.542724" lon="10.429042">
|
|
<ele>19.140266</ele>
|
|
<time>2026-07-17T16:36:27.000Z</time>
|
|
</trkpt>
|
|
<trkpt lat="57.542751" lon="10.429155">
|
|
<ele>19.133377</ele>
|
|
<time>2026-07-17T16:36:28.000Z</time>
|
|
</trkpt>
|
|
<trkpt lat="57.542776" lon="10.429267">
|
|
<ele>19.126621</ele>
|
|
<time>2026-07-17T16:36:29.000Z</time>
|
|
</trkpt>
|
|
<trkpt lat="57.542801" lon="10.429379">
|
|
<ele>19.119864</ele>
|
|
<time>2026-07-17T16:36:30.000Z</time>
|
|
</trkpt>
|
|
<trkpt lat="57.542828" lon="10.429492">
|
|
<ele>19.112975</ele>
|
|
<time>2026-07-17T16:36:31.000Z</time>
|
|
</trkpt>
|
|
<trkpt lat="57.542853" lon="10.429605">
|
|
<ele>19.106167</ele>
|
|
<time>2026-07-17T16:36:32.000Z</time>
|
|
</trkpt>
|
|
<trkpt lat="57.542877" lon="10.429717">
|
|
<ele>19.099450</ele>
|
|
<time>2026-07-17T16:36:33.000Z</time>
|
|
</trkpt>
|
|
<trkpt lat="57.542904" lon="10.429828">
|
|
<ele>19.092663</ele>
|
|
<time>2026-07-17T16:36:34.000Z</time>
|
|
</trkpt>
|
|
<trkpt lat="57.542929" lon="10.429939">
|
|
<ele>19.085958</ele>
|
|
<time>2026-07-17T16:36:35.000Z</time>
|
|
</trkpt>
|
|
<trkpt lat="57.542953" lon="10.430051">
|
|
<ele>19.079241</ele>
|
|
<time>2026-07-17T16:36:36.000Z</time>
|
|
</trkpt>
|
|
<trkpt lat="57.542978" lon="10.430162">
|
|
<ele>19.072536</ele>
|
|
<time>2026-07-17T16:36:37.000Z</time>
|
|
</trkpt>
|
|
<trkpt lat="57.543003" lon="10.430272">
|
|
<ele>19.065883</ele>
|
|
<time>2026-07-17T16:36:38.000Z</time>
|
|
</trkpt>
|
|
<trkpt lat="57.543030" lon="10.430381">
|
|
<ele>19.065305</ele>
|
|
<time>2026-07-17T16:36:39.000Z</time>
|
|
</trkpt>
|
|
<trkpt lat="57.543055" lon="10.430489">
|
|
<ele>19.065836</ele>
|
|
<time>2026-07-17T16:36:40.000Z</time>
|
|
</trkpt>
|
|
<trkpt lat="57.543079" lon="10.430598">
|
|
<ele>19.066367</ele>
|
|
<time>2026-07-17T16:36:41.000Z</time>
|
|
</trkpt>
|
|
<trkpt lat="57.543104" lon="10.430708">
|
|
<ele>19.066906</ele>
|
|
<time>2026-07-17T16:36:42.000Z</time>
|
|
</trkpt>
|
|
<trkpt lat="57.543129" lon="10.430817">
|
|
<ele>19.067440</ele>
|
|
<time>2026-07-17T16:36:43.000Z</time>
|
|
</trkpt>
|
|
<trkpt lat="57.543155" lon="10.430926">
|
|
<ele>19.067978</ele>
|
|
<time>2026-07-17T16:36:44.000Z</time>
|
|
</trkpt>
|
|
<trkpt lat="57.543180" lon="10.431037">
|
|
<ele>19.068521</ele>
|
|
<time>2026-07-17T16:36:45.000Z</time>
|
|
</trkpt>
|
|
<trkpt lat="57.543205" lon="10.431149">
|
|
<ele>19.069068</ele>
|
|
<time>2026-07-17T16:36:46.000Z</time>
|
|
</trkpt>
|
|
<trkpt lat="57.543232" lon="10.431261">
|
|
<ele>19.069622</ele>
|
|
<time>2026-07-17T16:36:47.000Z</time>
|
|
</trkpt>
|
|
<trkpt lat="57.543257" lon="10.431372">
|
|
<ele>19.070165</ele>
|
|
<time>2026-07-17T16:36:48.000Z</time>
|
|
</trkpt>
|
|
<trkpt lat="57.543281" lon="10.431480">
|
|
<ele>19.070692</ele>
|
|
<time>2026-07-17T16:36:49.000Z</time>
|
|
</trkpt>
|
|
<trkpt lat="57.543306" lon="10.431584">
|
|
<ele>19.071206</ele>
|
|
<time>2026-07-17T16:36:50.000Z</time>
|
|
</trkpt>
|
|
<trkpt lat="57.543329" lon="10.431688">
|
|
<ele>19.071713</ele>
|
|
<time>2026-07-17T16:36:51.000Z</time>
|
|
</trkpt>
|
|
<trkpt lat="57.543356" lon="10.431801">
|
|
<ele>19.072271</ele>
|
|
<time>2026-07-17T16:36:52.000Z</time>
|
|
</trkpt>
|
|
<trkpt lat="57.543381" lon="10.431910">
|
|
<ele>19.072806</ele>
|
|
<time>2026-07-17T16:36:53.000Z</time>
|
|
</trkpt>
|
|
<trkpt lat="57.543406" lon="10.432020">
|
|
<ele>19.073344</ele>
|
|
<time>2026-07-17T16:36:54.000Z</time>
|
|
</trkpt>
|
|
<trkpt lat="57.543428" lon="10.432130">
|
|
<ele>19.073874</ele>
|
|
<time>2026-07-17T16:36:55.000Z</time>
|
|
</trkpt>
|
|
<trkpt lat="57.543453" lon="10.432240">
|
|
<ele>19.074413</ele>
|
|
<time>2026-07-17T16:36:56.000Z</time>
|
|
</trkpt>
|
|
<trkpt lat="57.543478" lon="10.432350">
|
|
<ele>19.074951</ele>
|
|
<time>2026-07-17T16:36:57.000Z</time>
|
|
</trkpt>
|
|
<trkpt lat="57.543503" lon="10.432459">
|
|
<ele>19.075486</ele>
|
|
<time>2026-07-17T16:36:58.000Z</time>
|
|
</trkpt>
|
|
<trkpt lat="57.543528" lon="10.432569">
|
|
<ele>19.076025</ele>
|
|
<time>2026-07-17T16:36:59.000Z</time>
|
|
</trkpt>
|
|
<trkpt lat="57.543552" lon="10.432678">
|
|
<ele>19.076556</ele>
|
|
<time>2026-07-17T16:37:00.000Z</time>
|
|
</trkpt>
|
|
<trkpt lat="57.543579" lon="10.432788">
|
|
<ele>19.077102</ele>
|
|
<time>2026-07-17T16:37:01.000Z</time>
|
|
</trkpt>
|
|
<trkpt lat="57.543604" lon="10.432898">
|
|
<ele>19.077640</ele>
|
|
<time>2026-07-17T16:37:02.000Z</time>
|
|
</trkpt>
|
|
<trkpt lat="57.543628" lon="10.433010">
|
|
<ele>19.078184</ele>
|
|
<time>2026-07-17T16:37:03.000Z</time>
|
|
</trkpt>
|
|
<trkpt lat="57.543655" lon="10.433120">
|
|
<ele>19.078730</ele>
|
|
<time>2026-07-17T16:37:04.000Z</time>
|
|
</trkpt>
|
|
<trkpt lat="57.543680" lon="10.433230">
|
|
<ele>19.079269</ele>
|
|
<time>2026-07-17T16:37:05.000Z</time>
|
|
</trkpt>
|
|
<trkpt lat="57.543703" lon="10.433341">
|
|
<ele>19.079805</ele>
|
|
<time>2026-07-17T16:37:06.000Z</time>
|
|
</trkpt>
|
|
<trkpt lat="57.543728" lon="10.433452">
|
|
<ele>19.085731</ele>
|
|
<time>2026-07-17T16:37:07.000Z</time>
|
|
</trkpt>
|
|
<trkpt lat="57.543753" lon="10.433562">
|
|
<ele>19.093799</ele>
|
|
<time>2026-07-17T16:37:08.000Z</time>
|
|
</trkpt>
|
|
<trkpt lat="57.543776" lon="10.433674">
|
|
<ele>19.101898</ele>
|
|
<time>2026-07-17T16:37:09.000Z</time>
|
|
</trkpt>
|
|
<trkpt lat="57.543798" lon="10.433786">
|
|
<ele>19.109953</ele>
|
|
<time>2026-07-17T16:37:10.000Z</time>
|
|
</trkpt>
|
|
<trkpt lat="57.543823" lon="10.433898">
|
|
<ele>19.118146</ele>
|
|
<time>2026-07-17T16:37:11.000Z</time>
|
|
</trkpt>
|
|
<trkpt lat="57.543850" lon="10.434011">
|
|
<ele>19.126500</ele>
|
|
<time>2026-07-17T16:37:12.000Z</time>
|
|
</trkpt>
|
|
<trkpt lat="57.543877" lon="10.434123">
|
|
<ele>19.134792</ele>
|
|
<time>2026-07-17T16:37:13.000Z</time>
|
|
</trkpt>
|
|
<trkpt lat="57.543901" lon="10.434235">
|
|
<ele>19.142937</ele>
|
|
<time>2026-07-17T16:37:14.000Z</time>
|
|
</trkpt>
|
|
<trkpt lat="57.543926" lon="10.434345">
|
|
<ele>19.151005</ele>
|
|
<time>2026-07-17T16:37:15.000Z</time>
|
|
</trkpt>
|
|
<trkpt lat="57.543953" lon="10.434453">
|
|
<ele>19.159051</ele>
|
|
<time>2026-07-17T16:37:16.000Z</time>
|
|
</trkpt>
|
|
<trkpt lat="57.543979" lon="10.434565">
|
|
<ele>19.167293</ele>
|
|
<time>2026-07-17T16:37:17.000Z</time>
|
|
</trkpt>
|
|
<trkpt lat="57.544006" lon="10.434677">
|
|
<ele>19.175585</ele>
|
|
<time>2026-07-17T16:37:18.000Z</time>
|
|
</trkpt>
|
|
<trkpt lat="57.544033" lon="10.434786">
|
|
<ele>19.183693</ele>
|
|
<time>2026-07-17T16:37:19.000Z</time>
|
|
</trkpt>
|
|
<trkpt lat="57.544058" lon="10.434896">
|
|
<ele>19.191761</ele>
|
|
<time>2026-07-17T16:37:20.000Z</time>
|
|
</trkpt>
|
|
<trkpt lat="57.544083" lon="10.435008">
|
|
<ele>19.199953</ele>
|
|
<time>2026-07-17T16:37:21.000Z</time>
|
|
</trkpt>
|
|
<trkpt lat="57.544108" lon="10.435117">
|
|
<ele>19.207959</ele>
|
|
<time>2026-07-17T16:37:22.000Z</time>
|
|
</trkpt>
|
|
<trkpt lat="57.544130" lon="10.435224">
|
|
<ele>19.215698</ele>
|
|
<time>2026-07-17T16:37:23.000Z</time>
|
|
</trkpt>
|
|
<trkpt lat="57.544154" lon="10.435330">
|
|
<ele>19.223468</ele>
|
|
<time>2026-07-17T16:37:24.000Z</time>
|
|
</trkpt>
|
|
<trkpt lat="57.544180" lon="10.435439">
|
|
<ele>19.231524</ele>
|
|
<time>2026-07-17T16:37:25.000Z</time>
|
|
</trkpt>
|
|
<trkpt lat="57.544208" lon="10.435556">
|
|
<ele>19.240176</ele>
|
|
<time>2026-07-17T16:37:26.000Z</time>
|
|
</trkpt>
|
|
<trkpt lat="57.544235" lon="10.435671">
|
|
<ele>19.248653</ele>
|
|
<time>2026-07-17T16:37:27.000Z</time>
|
|
</trkpt>
|
|
<trkpt lat="57.544260" lon="10.435785">
|
|
<ele>19.256970</ele>
|
|
<time>2026-07-17T16:37:28.000Z</time>
|
|
</trkpt>
|
|
<trkpt lat="57.544285" lon="10.435897">
|
|
<ele>19.265163</ele>
|
|
<time>2026-07-17T16:37:29.000Z</time>
|
|
</trkpt>
|
|
<trkpt lat="57.544310" lon="10.436009">
|
|
<ele>19.273355</ele>
|
|
<time>2026-07-17T16:37:30.000Z</time>
|
|
</trkpt>
|
|
<trkpt lat="57.544334" lon="10.436119">
|
|
<ele>19.281375</ele>
|
|
<time>2026-07-17T16:37:31.000Z</time>
|
|
</trkpt>
|
|
<trkpt lat="57.544359" lon="10.436226">
|
|
<ele>19.289256</ele>
|
|
<time>2026-07-17T16:37:32.000Z</time>
|
|
</trkpt>
|
|
<trkpt lat="57.544382" lon="10.436332">
|
|
<ele>19.296978</ele>
|
|
<time>2026-07-17T16:37:33.000Z</time>
|
|
</trkpt>
|
|
<trkpt lat="57.544405" lon="10.436436">
|
|
<ele>19.304575</ele>
|
|
<time>2026-07-17T16:37:34.000Z</time>
|
|
</trkpt>
|
|
<trkpt lat="57.544428" lon="10.436538">
|
|
<ele>19.306320</ele>
|
|
<time>2026-07-17T16:37:35.000Z</time>
|
|
</trkpt>
|
|
<trkpt lat="57.544451" lon="10.436638">
|
|
<ele>19.306320</ele>
|
|
<time>2026-07-17T16:37:36.000Z</time>
|
|
</trkpt>
|
|
<trkpt lat="57.544474" lon="10.436735">
|
|
<ele>19.306320</ele>
|
|
<time>2026-07-17T16:37:37.000Z</time>
|
|
</trkpt>
|
|
<trkpt lat="57.544497" lon="10.436830">
|
|
<ele>19.306320</ele>
|
|
<time>2026-07-17T16:37:38.000Z</time>
|
|
</trkpt>
|
|
<trkpt lat="57.544518" lon="10.436923">
|
|
<ele>19.306320</ele>
|
|
<time>2026-07-17T16:37:39.000Z</time>
|
|
</trkpt>
|
|
<trkpt lat="57.544539" lon="10.437013">
|
|
<ele>19.306320</ele>
|
|
<time>2026-07-17T16:37:40.000Z</time>
|
|
</trkpt>
|
|
<trkpt lat="57.544558" lon="10.437096">
|
|
<ele>19.306320</ele>
|
|
<time>2026-07-17T16:37:41.000Z</time>
|
|
</trkpt>
|
|
<trkpt lat="57.544573" lon="10.437170">
|
|
<ele>19.306320</ele>
|
|
<time>2026-07-17T16:37:42.000Z</time>
|
|
</trkpt>
|
|
<trkpt lat="57.544590" lon="10.437235">
|
|
<ele>19.306320</ele>
|
|
<time>2026-07-17T16:37:43.000Z</time>
|
|
</trkpt>
|
|
<trkpt lat="57.544606" lon="10.437293">
|
|
<ele>19.306320</ele>
|
|
<time>2026-07-17T16:37:44.000Z</time>
|
|
</trkpt>
|
|
<trkpt lat="57.544618" lon="10.437347">
|
|
<ele>19.306320</ele>
|
|
<time>2026-07-17T16:37:45.000Z</time>
|
|
</trkpt>
|
|
<trkpt lat="57.544628" lon="10.437399">
|
|
<ele>19.306320</ele>
|
|
<time>2026-07-17T16:37:46.000Z</time>
|
|
</trkpt>
|
|
<trkpt lat="57.544634" lon="10.437449">
|
|
<ele>19.306320</ele>
|
|
<time>2026-07-17T16:37:47.000Z</time>
|
|
</trkpt>
|
|
<trkpt lat="57.544634" lon="10.437497">
|
|
<ele>19.306320</ele>
|
|
<time>2026-07-17T16:37:48.000Z</time>
|
|
</trkpt>
|
|
<trkpt lat="57.544629" lon="10.437545">
|
|
<ele>19.306320</ele>
|
|
<time>2026-07-17T16:37:49.000Z</time>
|
|
</trkpt>
|
|
<trkpt lat="57.544619" lon="10.437591">
|
|
<ele>19.306320</ele>
|
|
<time>2026-07-17T16:37:50.000Z</time>
|
|
</trkpt>
|
|
<trkpt lat="57.544606" lon="10.437635">
|
|
<ele>19.306320</ele>
|
|
<time>2026-07-17T16:37:51.000Z</time>
|
|
</trkpt>
|
|
<trkpt lat="57.544590" lon="10.437675">
|
|
<ele>19.306320</ele>
|
|
<time>2026-07-17T16:37:52.000Z</time>
|
|
</trkpt>
|
|
<trkpt lat="57.544569" lon="10.437710">
|
|
<ele>19.306320</ele>
|
|
<time>2026-07-17T16:37:53.000Z</time>
|
|
</trkpt>
|
|
<trkpt lat="57.544547" lon="10.437739">
|
|
<ele>19.306320</ele>
|
|
<time>2026-07-17T16:37:54.000Z</time>
|
|
</trkpt>
|
|
<trkpt lat="57.544524" lon="10.437766">
|
|
<ele>19.306320</ele>
|
|
<time>2026-07-17T16:37:55.000Z</time>
|
|
</trkpt>
|
|
<trkpt lat="57.544499" lon="10.437797">
|
|
<ele>19.306320</ele>
|
|
<time>2026-07-17T16:37:56.000Z</time>
|
|
</trkpt>
|
|
<trkpt lat="57.544473" lon="10.437824">
|
|
<ele>19.306320</ele>
|
|
<time>2026-07-17T16:37:57.000Z</time>
|
|
</trkpt>
|
|
<trkpt lat="57.544446" lon="10.437850">
|
|
<ele>19.306320</ele>
|
|
<time>2026-07-17T16:37:58.000Z</time>
|
|
</trkpt>
|
|
<trkpt lat="57.544419" lon="10.437874">
|
|
<ele>19.306320</ele>
|
|
<time>2026-07-17T16:37:59.000Z</time>
|
|
</trkpt>
|
|
<trkpt lat="57.544392" lon="10.437895">
|
|
<ele>19.306320</ele>
|
|
<time>2026-07-17T16:38:00.000Z</time>
|
|
</trkpt>
|
|
<trkpt lat="57.544367" lon="10.437913">
|
|
<ele>19.306320</ele>
|
|
<time>2026-07-17T16:38:01.000Z</time>
|
|
</trkpt>
|
|
<trkpt lat="57.544342" lon="10.437931">
|
|
<ele>19.306320</ele>
|
|
<time>2026-07-17T16:38:02.000Z</time>
|
|
</trkpt>
|
|
<trkpt lat="57.544316" lon="10.437949">
|
|
<ele>19.306320</ele>
|
|
<time>2026-07-17T16:38:03.000Z</time>
|
|
</trkpt>
|
|
<trkpt lat="57.544289" lon="10.437965">
|
|
<ele>19.306320</ele>
|
|
<time>2026-07-17T16:38:04.000Z</time>
|
|
</trkpt>
|
|
<trkpt lat="57.544266" lon="10.437979">
|
|
<ele>19.306320</ele>
|
|
<time>2026-07-17T16:38:05.000Z</time>
|
|
</trkpt>
|
|
<trkpt lat="57.544247" lon="10.437998">
|
|
<ele>19.306320</ele>
|
|
<time>2026-07-17T16:38:06.000Z</time>
|
|
</trkpt>
|
|
<trkpt lat="57.544229" lon="10.438025">
|
|
<ele>19.306320</ele>
|
|
<time>2026-07-17T16:38:07.000Z</time>
|
|
</trkpt>
|
|
<trkpt lat="57.544218" lon="10.438059">
|
|
<ele>19.306320</ele>
|
|
<time>2026-07-17T16:38:08.000Z</time>
|
|
</trkpt>
|
|
<trkpt lat="57.544216" lon="10.438094">
|
|
<ele>19.306320</ele>
|
|
<time>2026-07-17T16:38:09.000Z</time>
|
|
</trkpt>
|
|
<trkpt lat="57.544218" lon="10.438125">
|
|
<ele>19.306320</ele>
|
|
<time>2026-07-17T16:38:10.000Z</time>
|
|
</trkpt>
|
|
<trkpt lat="57.544222" lon="10.438143">
|
|
<ele>19.306320</ele>
|
|
<time>2026-07-17T16:38:11.000Z</time>
|
|
</trkpt>
|
|
<trkpt lat="57.544250" lon="10.438233">
|
|
<ele>19.306320</ele>
|
|
<time>2026-07-17T16:38:22.000Z</time>
|
|
</trkpt>
|
|
<trkpt lat="57.544258" lon="10.438243">
|
|
<ele>19.306320</ele>
|
|
<time>2026-07-17T16:38:23.000Z</time>
|
|
</trkpt>
|
|
<trkpt lat="57.544265" lon="10.438253">
|
|
<ele>19.306320</ele>
|
|
<time>2026-07-17T16:38:24.000Z</time>
|
|
</trkpt>
|
|
<trkpt lat="57.544271" lon="10.438264">
|
|
<ele>19.306320</ele>
|
|
<time>2026-07-17T16:38:25.000Z</time>
|
|
</trkpt>
|
|
<trkpt lat="57.544277" lon="10.438275">
|
|
<ele>19.306320</ele>
|
|
<time>2026-07-17T16:38:26.000Z</time>
|
|
</trkpt>
|
|
<trkpt lat="57.544283" lon="10.438289">
|
|
<ele>19.306320</ele>
|
|
<time>2026-07-17T16:38:27.000Z</time>
|
|
</trkpt>
|
|
<trkpt lat="57.544285" lon="10.438300">
|
|
<ele>19.306320</ele>
|
|
<time>2026-07-17T16:38:28.000Z</time>
|
|
</trkpt>
|
|
<trkpt lat="57.544285" lon="10.438305">
|
|
<ele>19.306320</ele>
|
|
<time>2026-07-17T16:38:29.000Z</time>
|
|
</trkpt>
|
|
<trkpt lat="57.544285" lon="10.438309">
|
|
<ele>19.306320</ele>
|
|
<time>2026-07-17T16:38:30.000Z</time>
|
|
</trkpt>
|
|
<trkpt lat="57.544309" lon="10.438379">
|
|
<ele>19.306320</ele>
|
|
<time>2026-07-17T16:42:39.000Z</time>
|
|
</trkpt>
|
|
<trkpt lat="57.544313" lon="10.438398">
|
|
<ele>19.306320</ele>
|
|
<time>2026-07-17T16:42:40.000Z</time>
|
|
</trkpt>
|
|
<trkpt lat="57.544315" lon="10.438419">
|
|
<ele>19.306320</ele>
|
|
<time>2026-07-17T16:42:41.000Z</time>
|
|
</trkpt>
|
|
<trkpt lat="57.544317" lon="10.438437">
|
|
<ele>19.306320</ele>
|
|
<time>2026-07-17T16:42:42.000Z</time>
|
|
</trkpt>
|
|
<trkpt lat="57.544321" lon="10.438454">
|
|
<ele>19.306320</ele>
|
|
<time>2026-07-17T16:42:43.000Z</time>
|
|
</trkpt>
|
|
<trkpt lat="57.544326" lon="10.438470">
|
|
<ele>19.306320</ele>
|
|
<time>2026-07-17T16:42:44.000Z</time>
|
|
</trkpt>
|
|
<trkpt lat="57.544334" lon="10.438490">
|
|
<ele>19.306320</ele>
|
|
<time>2026-07-17T16:42:45.000Z</time>
|
|
</trkpt>
|
|
<trkpt lat="57.544341" lon="10.438510">
|
|
<ele>19.306320</ele>
|
|
<time>2026-07-17T16:42:46.000Z</time>
|
|
</trkpt>
|
|
<trkpt lat="57.544351" lon="10.438528">
|
|
<ele>19.306320</ele>
|
|
<time>2026-07-17T16:42:47.000Z</time>
|
|
</trkpt>
|
|
<trkpt lat="57.544362" lon="10.438542">
|
|
<ele>19.306320</ele>
|
|
<time>2026-07-17T16:42:48.000Z</time>
|
|
</trkpt>
|
|
<trkpt lat="57.544373" lon="10.438555">
|
|
<ele>19.306320</ele>
|
|
<time>2026-07-17T16:42:49.000Z</time>
|
|
</trkpt>
|
|
<trkpt lat="57.544385" lon="10.438564">
|
|
<ele>19.306320</ele>
|
|
<time>2026-07-17T16:42:50.000Z</time>
|
|
</trkpt>
|
|
<trkpt lat="57.544395" lon="10.438572">
|
|
<ele>19.306320</ele>
|
|
<time>2026-07-17T16:42:51.000Z</time>
|
|
</trkpt>
|
|
<trkpt lat="57.544402" lon="10.438581">
|
|
<ele>19.306320</ele>
|
|
<time>2026-07-17T16:42:52.000Z</time>
|
|
</trkpt>
|
|
<trkpt lat="57.544411" lon="10.438591">
|
|
<ele>19.306320</ele>
|
|
<time>2026-07-17T16:42:53.000Z</time>
|
|
</trkpt>
|
|
<trkpt lat="57.544421" lon="10.438598">
|
|
<ele>19.306320</ele>
|
|
<time>2026-07-17T16:42:54.000Z</time>
|
|
</trkpt>
|
|
<trkpt lat="57.544436" lon="10.438605">
|
|
<ele>19.306320</ele>
|
|
<time>2026-07-17T16:42:55.000Z</time>
|
|
</trkpt>
|
|
<trkpt lat="57.544450" lon="10.438610">
|
|
<ele>19.306320</ele>
|
|
<time>2026-07-17T16:42:56.000Z</time>
|
|
</trkpt>
|
|
<trkpt lat="57.544461" lon="10.438615">
|
|
<ele>19.306320</ele>
|
|
<time>2026-07-17T16:42:57.000Z</time>
|
|
</trkpt>
|
|
<trkpt lat="57.544474" lon="10.438623">
|
|
<ele>19.306320</ele>
|
|
<time>2026-07-17T16:42:58.000Z</time>
|
|
</trkpt>
|
|
<trkpt lat="57.544486" lon="10.438631">
|
|
<ele>19.306320</ele>
|
|
<time>2026-07-17T16:42:59.000Z</time>
|
|
</trkpt>
|
|
<trkpt lat="57.544496" lon="10.438638">
|
|
<ele>19.306320</ele>
|
|
<time>2026-07-17T16:43:00.000Z</time>
|
|
</trkpt>
|
|
<trkpt lat="57.544505" lon="10.438646">
|
|
<ele>19.306320</ele>
|
|
<time>2026-07-17T16:43:01.000Z</time>
|
|
</trkpt>
|
|
<trkpt lat="57.544515" lon="10.438653">
|
|
<ele>19.306320</ele>
|
|
<time>2026-07-17T16:43:02.000Z</time>
|
|
</trkpt>
|
|
<trkpt lat="57.544524" lon="10.438658">
|
|
<ele>19.306320</ele>
|
|
<time>2026-07-17T16:43:03.000Z</time>
|
|
</trkpt>
|
|
<trkpt lat="57.544531" lon="10.438659">
|
|
<ele>19.306320</ele>
|
|
<time>2026-07-17T16:43:04.000Z</time>
|
|
</trkpt>
|
|
<trkpt lat="57.544533" lon="10.438659">
|
|
<ele>19.306320</ele>
|
|
<time>2026-07-17T16:43:05.000Z</time>
|
|
</trkpt>
|
|
<trkpt lat="57.544533" lon="10.438659">
|
|
<ele>19.306320</ele>
|
|
<time>2026-07-17T16:43:09.000Z</time>
|
|
</trkpt>
|
|
</trkseg>
|
|
</trk>
|
|
</gpx> |